<?xml version='1.0' encoding='UTF-8'?><gpx version="1.1" creator="JPX - https://github.com/jenetics/jpx" xmlns="http://www.topografix.com/GPX/1/1"><trk><trkseg><trkpt lat="39.38429268355058" lon="17.115534596568107"><ele>57.99999999999999</ele><time>2026-03-29T07:35:25Z</time></trkpt><trkpt lat="39.384321708497595" lon="17.115458965863063"><ele>58.0</ele><time>2026-03-29T07:35:44Z</time></trkpt><trkpt lat="39.38438466108536" lon="17.11541217600784"><ele>58.0</ele><time>2026-03-29T07:36:11Z</time></trkpt><trkpt lat="39.384335520576975" lon="17.115469674190308"><ele>58.0</ele><time>2026-03-29T07:36:34Z</time></trkpt><trkpt lat="39.38439930835184" lon="17.115594808189382"><ele>57.99999999999999</ele><time>2026-03-29T07:36:41Z</time></trkpt><trkpt lat="39.38442024141673" lon="17.11568147691197"><ele>58.0</ele><time>2026-03-29T07:36:47Z</time></trkpt><trkpt lat="39.384436323424325" lon="17.1157661185008"><ele>57.2</ele><time>2026-03-29T07:36:48Z</time></trkpt><trkpt lat="39.38442360167555" lon="17.115883678678724"><ele>56.4</ele><time>2026-03-29T07:36:50Z</time></trkpt><trkpt lat="39.3843048958697" lon="17.115930140358557"><ele>55.60000000000001</ele><time>2026-03-29T07:36:52Z</time></trkpt><trkpt lat="39.38423993363142" lon="17.115945721760493"><ele>54.800000000000004</ele><time>2026-03-29T07:36:53Z</time></trkpt><trkpt lat="39.38418150677827" lon="17.11606278253478"><ele>54.0</ele><time>2026-03-29T07:36:54Z</time></trkpt><trkpt lat="39.384108269422676" lon="17.116079167671355"><ele>54.0</ele><time>2026-03-29T07:36:55Z</time></trkpt><trkpt lat="39.38402686729909" lon="17.11610448054931"><ele>54.0</ele><time>2026-03-29T07:36:56Z</time></trkpt><trkpt lat="39.38395965247339" lon="17.11614451162938"><ele>54.0</ele><time>2026-03-29T07:36:57Z</time></trkpt><trkpt lat="39.38388008909257" lon="17.116156018166663"><ele>54.0</ele><time>2026-03-29T07:36:58Z</time></trkpt><trkpt lat="39.383803633529354" lon="17.11618357842648"><ele>54.0</ele><time>2026-03-29T07:36:59Z</time></trkpt><trkpt lat="39.38373296059837" lon="17.116224109117802"><ele>54.0</ele><time>2026-03-29T07:37:00Z</time></trkpt><trkpt lat="39.383674372166446" lon="17.11627851646972"><ele>53.2</ele><time>2026-03-29T07:37:01Z</time></trkpt><trkpt lat="39.38356199260239" lon="17.116325639473054"><ele>52.400000000000006</ele><time>2026-03-29T07:37:03Z</time></trkpt><trkpt lat="39.383495829618376" lon="17.11634443016113"><ele>51.6</ele><time>2026-03-29T07:37:07Z</time></trkpt><trkpt lat="39.38338356180755" lon="17.11617397681318"><ele>50.8</ele><time>2026-03-29T07:37:09Z</time></trkpt><trkpt lat="39.38338869502497" lon="17.116074450004888"><ele>50.0</ele><time>2026-03-29T07:37:13Z</time></trkpt><trkpt lat="39.38339307829511" lon="17.115982614842654"><ele>50.0</ele><time>2026-03-29T07:37:16Z</time></trkpt><trkpt lat="39.383391676903635" lon="17.11587749149219"><ele>50.0</ele><time>2026-03-29T07:37:19Z</time></trkpt><trkpt lat="39.383384194937655" lon="17.11579547954519"><ele>50.0</ele><time>2026-03-29T07:37:22Z</time></trkpt><trkpt lat="39.383363612566875" lon="17.115654723919555"><ele>50.0</ele><time>2026-03-29T07:37:25Z</time></trkpt><trkpt lat="39.383339460247406" lon="17.11549921396915"><ele>50.0</ele><time>2026-03-29T07:37:27Z</time></trkpt><trkpt lat="39.383321447862464" lon="17.115386496626932"><ele>50.66666666666667</ele><time>2026-03-29T07:37:29Z</time></trkpt><trkpt lat="39.383308362551276" lon="17.11530461176599"><ele>51.333333333333336</ele><time>2026-03-29T07:37:32Z</time></trkpt><trkpt lat="39.38329549935757" lon="17.115180240202193"><ele>52.0</ele><time>2026-03-29T07:37:56Z</time></trkpt><trkpt lat="39.38323947576353" lon="17.115117987140263"><ele>52.66666666666667</ele><time>2026-03-29T07:37:58Z</time></trkpt><trkpt lat="39.38319329186958" lon="17.115017415735505"><ele>53.333333333333336</ele><time>2026-03-29T07:38:01Z</time></trkpt><trkpt lat="39.383156546497425" lon="17.114936512289"><ele>54.0</ele><time>2026-03-29T07:38:03Z</time></trkpt><trkpt lat="39.38310974998809" lon="17.114829307407028"><ele>54.0</ele><time>2026-03-29T07:38:05Z</time></trkpt><trkpt lat="39.38306452299979" lon="17.11470449740647"><ele>54.0</ele><time>2026-03-29T07:38:07Z</time></trkpt><trkpt lat="39.38302384478834" lon="17.11456112992872"><ele>54.0</ele><time>2026-03-29T07:38:09Z</time></trkpt><trkpt lat="39.38299777726653" lon="17.11447675229997"><ele>54.0</ele><time>2026-03-29T07:38:10Z</time></trkpt><trkpt lat="39.38297080376611" lon="17.114383887914062"><ele>54.0</ele><time>2026-03-29T07:38:11Z</time></trkpt><trkpt lat="39.382942863102734" lon="17.11429038556544"><ele>54.0</ele><time>2026-03-29T07:38:12Z</time></trkpt><trkpt lat="39.38290877740045" lon="17.114206253478216"><ele>53.714285714285715</ele><time>2026-03-29T07:38:13Z</time></trkpt><trkpt lat="39.382871627599265" lon="17.11413443003815"><ele>53.42857142857143</ele><time>2026-03-29T07:38:14Z</time></trkpt><trkpt lat="39.38282014349034" lon="17.11408298624402"><ele>53.14285714285714</ele><time>2026-03-29T07:38:15Z</time></trkpt><trkpt lat="39.38278255835507" lon="17.11401415731454"><ele>52.85714285714286</ele><time>2026-03-29T07:38:16Z</time></trkpt><trkpt lat="39.38272685111538" lon="17.11395220814016"><ele>52.57142857142858</ele><time>2026-03-29T07:38:17Z</time></trkpt><trkpt lat="39.38266613717376" lon="17.113888705763888"><ele>52.285714285714285</ele><time>2026-03-29T07:38:18Z</time></trkpt><trkpt lat="39.382616380382615" lon="17.113817651402375"><ele>52.0</ele><time>2026-03-29T07:38:19Z</time></trkpt><trkpt lat="39.38258342680747" lon="17.113735079855687"><ele>52.0</ele><time>2026-03-29T07:38:20.001Z</time></trkpt><trkpt lat="39.38254847276492" lon="17.113651493430375"><ele>52.0</ele><time>2026-03-29T07:38:21.001Z</time></trkpt><trkpt lat="39.38251056664904" lon="17.113571230104135"><ele>52.0</ele><time>2026-03-29T07:38:22.001Z</time></trkpt><trkpt lat="39.38247302473205" lon="17.113489404215994"><ele>52.0</ele><time>2026-03-29T07:38:23.001Z</time></trkpt><trkpt lat="39.3824342438989" lon="17.113408450616355"><ele>52.0</ele><time>2026-03-29T07:38:24.001Z</time></trkpt><trkpt lat="39.38239771595972" lon="17.113335591358645"><ele>52.0</ele><time>2026-03-29T07:38:25.001Z</time></trkpt><trkpt lat="39.38236117397613" lon="17.11326859043555"><ele>52.0</ele><time>2026-03-29T07:38:26.001Z</time></trkpt><trkpt lat="39.38233282168121" lon="17.113195866488265"><ele>52.6</ele><time>2026-03-29T07:38:27.001Z</time></trkpt><trkpt lat="39.38228026505224" lon="17.113061203812656"><ele>53.2</ele><time>2026-03-29T07:38:29.001Z</time></trkpt><trkpt lat="39.38221595885771" lon="17.11294247814049"><ele>53.8</ele><time>2026-03-29T07:38:31.001Z</time></trkpt><trkpt lat="39.382274182158866" lon="17.11284623884522"><ele>54.4</ele><time>2026-03-29T07:38:32.001Z</time></trkpt><trkpt lat="39.382164066453086" lon="17.112794453234425"><ele>55.0</ele><time>2026-03-29T07:38:33.001Z</time></trkpt><trkpt lat="39.382148631430624" lon="17.112714436129053"><ele>55.166666666666664</ele><time>2026-03-29T07:38:34.001Z</time></trkpt><trkpt lat="39.382125996395956" lon="17.11263111413782"><ele>55.33333333333333</ele><time>2026-03-29T07:38:35.001Z</time></trkpt><trkpt lat="39.38209398073606" lon="17.11254414678846"><ele>55.5</ele><time>2026-03-29T07:38:36.001Z</time></trkpt><trkpt lat="39.382062320313544" lon="17.112443967471222"><ele>55.66666666666667</ele><time>2026-03-29T07:38:37.001Z</time></trkpt><trkpt lat="39.38202551029412" lon="17.11233368841808"><ele>55.833333333333336</ele><time>2026-03-29T07:38:38.001Z</time></trkpt><trkpt lat="39.3819850545949" lon="17.11222414877214"><ele>56.0</ele><time>2026-03-29T07:38:39.001Z</time></trkpt><trkpt lat="39.381946207412796" lon="17.112119757007054"><ele>56.16666666666667</ele><time>2026-03-29T07:38:40.001Z</time></trkpt><trkpt lat="39.38190557546279" lon="17.11203485689538"><ele>56.333333333333336</ele><time>2026-03-29T07:38:41.001Z</time></trkpt><trkpt lat="39.3818581188372" lon="17.111956128945526"><ele>56.5</ele><time>2026-03-29T07:38:42.001Z</time></trkpt><trkpt lat="39.38180160175316" lon="17.111882405686533"><ele>56.66666666666667</ele><time>2026-03-29T07:38:43.001Z</time></trkpt><trkpt lat="39.38174495194934" lon="17.111805115650043"><ele>56.833333333333336</ele><time>2026-03-29T07:38:44.001Z</time></trkpt><trkpt lat="39.381692539384446" lon="17.111721391009866"><ele>57.0</ele><time>2026-03-29T07:38:45.001Z</time></trkpt><trkpt lat="39.38163949938127" lon="17.111650065227682"><ele>57.0</ele><time>2026-03-29T07:38:46.001Z</time></trkpt><trkpt lat="39.38158451880859" lon="17.111592613864296"><ele>57.0</ele><time>2026-03-29T07:38:47.001Z</time></trkpt><trkpt lat="39.38152289756383" lon="17.111550539194162"><ele>57.0</ele><time>2026-03-29T07:38:48.001Z</time></trkpt><trkpt lat="39.38143079850533" lon="17.111461665613255"><ele>57.0</ele><time>2026-03-29T07:38:50.001Z</time></trkpt><trkpt lat="39.3814077879198" lon="17.111325758781778"><ele>57.0</ele><time>2026-03-29T07:38:52.001Z</time></trkpt><trkpt lat="39.38141314236283" lon="17.11123808556848"><ele>57.0</ele><time>2026-03-29T07:38:53.001Z</time></trkpt><trkpt lat="39.38141307629047" lon="17.111139687587446"><ele>57.5</ele><time>2026-03-29T07:38:54.001Z</time></trkpt><trkpt lat="39.381405723147346" lon="17.111033887183943"><ele>58.0</ele><time>2026-03-29T07:38:55.001Z</time></trkpt><trkpt lat="39.381386248641924" lon="17.110929998441083"><ele>58.5</ele><time>2026-03-29T07:38:56.001Z</time></trkpt><trkpt lat="39.38136831172779" lon="17.110825524488764"><ele>59.0</ele><time>2026-03-29T07:38:57.001Z</time></trkpt><trkpt lat="39.381344297119604" lon="17.110719941360614"><ele>59.5</ele><time>2026-03-29T07:38:58.001Z</time></trkpt><trkpt lat="39.381309556161355" lon="17.11061564050652"><ele>60.0</ele><time>2026-03-29T07:38:59.001Z</time></trkpt><trkpt lat="39.381275602507245" lon="17.11051250398461"><ele>60.333333333333336</ele><time>2026-03-29T07:39:00.001Z</time></trkpt><trkpt lat="39.38124006372781" lon="17.11041015828648"><ele>60.66666666666667</ele><time>2026-03-29T07:39:01.001Z</time></trkpt><trkpt lat="39.381199151438125" lon="17.110312138325906"><ele>61.0</ele><time>2026-03-29T07:39:02.001Z</time></trkpt><trkpt lat="39.381161003387014" lon="17.110217062346045"><ele>61.333333333333336</ele><time>2026-03-29T07:39:03.001Z</time></trkpt><trkpt lat="39.38112778219367" lon="17.110124934543503"><ele>61.66666666666667</ele><time>2026-03-29T07:39:04.001Z</time></trkpt><trkpt lat="39.38108934584559" lon="17.110042523921237"><ele>62.0</ele><time>2026-03-29T07:39:05.001Z</time></trkpt><trkpt lat="39.38106727431837" lon="17.1099522265644"><ele>61.85714285714286</ele><time>2026-03-29T07:39:06.001Z</time></trkpt><trkpt lat="39.38103315700628" lon="17.109870925341436"><ele>61.71428571428572</ele><time>2026-03-29T07:39:07.001Z</time></trkpt><trkpt lat="39.3809943528205" lon="17.10979031264831"><ele>61.57142857142857</ele><time>2026-03-29T07:39:08.001Z</time></trkpt><trkpt lat="39.380951485980624" lon="17.109707476682043"><ele>61.42857142857143</ele><time>2026-03-29T07:39:09.001Z</time></trkpt><trkpt lat="39.38090966410836" lon="17.109621198458797"><ele>61.285714285714285</ele><time>2026-03-29T07:39:10.001Z</time></trkpt><trkpt lat="39.380859685428305" lon="17.109547595230392"><ele>61.14285714285714</ele><time>2026-03-29T07:39:11.001Z</time></trkpt><trkpt lat="39.38081194584938" lon="17.109477327620535"><ele>60.99999999999999</ele><time>2026-03-29T07:39:12.001Z</time></trkpt><trkpt lat="39.380760126139684" lon="17.109417401327317"><ele>60.99999999999999</ele><time>2026-03-29T07:39:13.001Z</time></trkpt><trkpt lat="39.380715205196275" lon="17.109348428330055"><ele>61.0</ele><time>2026-03-29T07:39:14.001Z</time></trkpt><trkpt lat="39.3806941247395" lon="17.10926217713397"><ele>60.99999999999999</ele><time>2026-03-29T07:39:15.001Z</time></trkpt><trkpt lat="39.380670000763125" lon="17.109174999937444"><ele>60.99999999999999</ele><time>2026-03-29T07:39:16.001Z</time></trkpt><trkpt lat="39.38063334192496" lon="17.10908777460494"><ele>61.0</ele><time>2026-03-29T07:39:17.001Z</time></trkpt><trkpt lat="39.38060521582128" lon="17.10900235625051"><ele>60.99999999999999</ele><time>2026-03-29T07:39:18.001Z</time></trkpt><trkpt lat="39.3805847237744" lon="17.1089253351245"><ele>60.99999999999999</ele><time>2026-03-29T07:39:19.001Z</time></trkpt><trkpt lat="39.380551345253956" lon="17.10880481423868"><ele>60.8</ele><time>2026-03-29T07:39:21.001Z</time></trkpt><trkpt lat="39.38052727882582" lon="17.108712483807167"><ele>60.599999999999994</ele><time>2026-03-29T07:39:23.001Z</time></trkpt><trkpt lat="39.38049628387304" lon="17.108625298534573"><ele>60.4</ele><time>2026-03-29T07:39:25.001Z</time></trkpt><trkpt lat="39.38053768886992" lon="17.108486891621336"><ele>60.2</ele><time>2026-03-29T07:39:27.001Z</time></trkpt><trkpt lat="39.38056054680542" lon="17.10836824053466"><ele>60.0</ele><time>2026-03-29T07:39:28.001Z</time></trkpt><trkpt lat="39.38058275244246" lon="17.10824491796036"><ele>58.75</ele><time>2026-03-29T07:39:29.001Z</time></trkpt><trkpt lat="39.380602640208174" lon="17.108119107730033"><ele>57.5</ele><time>2026-03-29T07:39:30.001Z</time></trkpt><trkpt lat="39.38060890720925" lon="17.10797517238314"><ele>56.25</ele><time>2026-03-29T07:39:31.001Z</time></trkpt><trkpt lat="39.38058581772252" lon="17.10781865173775"><ele>55.0</ele><time>2026-03-29T07:39:32.001Z</time></trkpt><trkpt lat="39.380535340202776" lon="17.10767319985787"><ele>56.0</ele><time>2026-03-29T07:39:33.001Z</time></trkpt><trkpt lat="39.380477987070144" lon="17.107513391781723"><ele>57.0</ele><time>2026-03-29T07:39:34.001Z</time></trkpt><trkpt lat="39.38041621997452" lon="17.10734484400658"><ele>58.0</ele><time>2026-03-29T07:39:35.001Z</time></trkpt><trkpt lat="39.38035579670272" lon="17.10717492772606"><ele>59.0</ele><time>2026-03-29T07:39:36.001Z</time></trkpt><trkpt lat="39.38031893660456" lon="17.106987159315217"><ele>59.0</ele><time>2026-03-29T07:39:37.001Z</time></trkpt><trkpt lat="39.38029292391391" lon="17.106776728034085"><ele>59.0</ele><time>2026-03-29T07:39:38.001Z</time></trkpt><trkpt lat="39.38027072412501" lon="17.106562507595463"><ele>59.0</ele><time>2026-03-29T07:39:39.001Z</time></trkpt><trkpt lat="39.38024830311113" lon="17.10633129613834"><ele>59.25</ele><time>2026-03-29T07:39:40.001Z</time></trkpt><trkpt lat="39.380225191350284" lon="17.106128146516372"><ele>59.5</ele><time>2026-03-29T07:39:41.001Z</time></trkpt><trkpt lat="39.38020593481256" lon="17.105932202672513"><ele>59.75</ele><time>2026-03-29T07:39:42.001Z</time></trkpt><trkpt lat="39.38018870670305" lon="17.105755334465787"><ele>60.0</ele><time>2026-03-29T07:39:43.001Z</time></trkpt><trkpt lat="39.3801577102446" lon="17.10558206282097"><ele>60.0</ele><time>2026-03-29T07:39:44.001Z</time></trkpt><trkpt lat="39.380152690204895" lon="17.105415188961455"><ele>60.0</ele><time>2026-03-29T07:39:45.001Z</time></trkpt><trkpt lat="39.38012113781699" lon="17.105260450774765"><ele>60.0</ele><time>2026-03-29T07:39:46.001Z</time></trkpt><trkpt lat="39.3801152982997" lon="17.105100132948778"><ele>60.0</ele><time>2026-03-29T07:39:47.001Z</time></trkpt><trkpt lat="39.3800860790793" lon="17.104946921789224"><ele>58.75</ele><time>2026-03-29T07:39:48.001Z</time></trkpt><trkpt lat="39.38005585875317" lon="17.10480979254231"><ele>57.5</ele><time>2026-03-29T07:39:49.001Z</time></trkpt><trkpt lat="39.380009276049904" lon="17.1046586032181"><ele>56.25</ele><time>2026-03-29T07:39:50.001Z</time></trkpt><trkpt lat="39.37995103820903" lon="17.104521430221794"><ele>55.0</ele><time>2026-03-29T07:39:51.001Z</time></trkpt><trkpt lat="39.37989947657501" lon="17.1043981924075"><ele>55.0</ele><time>2026-03-29T07:39:52.001Z</time></trkpt><trkpt lat="39.37986719496385" lon="17.104276870055898"><ele>55.0</ele><time>2026-03-29T07:39:53.001Z</time></trkpt><trkpt lat="39.37983973239208" lon="17.104170287397636"><ele>55.0</ele><time>2026-03-29T07:39:54.001Z</time></trkpt><trkpt lat="39.37984754725579" lon="17.104046066442116"><ele>55.0</ele><time>2026-03-29T07:39:55.001Z</time></trkpt><trkpt lat="39.37987089795402" lon="17.103913009403843"><ele>55.0</ele><time>2026-03-29T07:39:56.001Z</time></trkpt><trkpt lat="39.37990532590869" lon="17.103786695499636"><ele>54.99999999999999</ele><time>2026-03-29T07:39:57.001Z</time></trkpt><trkpt lat="39.37991921483935" lon="17.103662764706545"><ele>55.0</ele><time>2026-03-29T07:39:58.001Z</time></trkpt><trkpt lat="39.37993931933141" lon="17.103569820099874"><ele>55.0</ele><time>2026-03-29T07:39:59.001Z</time></trkpt><trkpt lat="39.379960876634776" lon="17.103470476916733"><ele>55.0</ele><time>2026-03-29T07:40:00.001Z</time></trkpt><trkpt lat="39.379984490742615" lon="17.103361655343154"><ele>54.99999999999999</ele><time>2026-03-29T07:40:02.001Z</time></trkpt><trkpt lat="39.38000939886224" lon="17.103271635627312"><ele>55.0</ele><time>2026-03-29T07:40:08.001Z</time></trkpt><trkpt lat="39.38002268987233" lon="17.103185621197245"><ele>54.99999999999999</ele><time>2026-03-29T07:40:25.001Z</time></trkpt><trkpt lat="39.38005482358406" lon="17.103086877283"><ele>55.0</ele><time>2026-03-29T07:40:27.001Z</time></trkpt><trkpt lat="39.380061620165506" lon="17.102996973841716"><ele>55.0</ele><time>2026-03-29T07:40:28.001Z</time></trkpt><trkpt lat="39.380071233493574" lon="17.102913438818604"><ele>55.0</ele><time>2026-03-29T07:40:29.001Z</time></trkpt><trkpt lat="39.38008402503942" lon="17.102833398555305"><ele>55.0</ele><time>2026-03-29T07:40:30.001Z</time></trkpt><trkpt lat="39.38010328233755" lon="17.10275284010692"><ele>54.99999999999999</ele><time>2026-03-29T07:40:31.001Z</time></trkpt><trkpt lat="39.38015364481483" lon="17.102648875465324"><ele>55.0</ele><time>2026-03-29T07:40:33.001Z</time></trkpt><trkpt lat="39.38016387643728" lon="17.1025223704175"><ele>55.0</ele><time>2026-03-29T07:40:35.001Z</time></trkpt><trkpt lat="39.38018642898275" lon="17.102415685811188"><ele>55.0</ele><time>2026-03-29T07:40:37.001Z</time></trkpt><trkpt lat="39.380216110774974" lon="17.102275276448108"><ele>55.0</ele><time>2026-03-29T07:40:39.001Z</time></trkpt><trkpt lat="39.380236906598874" lon="17.102176901617387"><ele>55.0</ele><time>2026-03-29T07:40:40.001Z</time></trkpt><trkpt lat="39.38027074033719" lon="17.102078919561652"><ele>55.0</ele><time>2026-03-29T07:40:41.001Z</time></trkpt><trkpt lat="39.38027973773761" lon="17.101961410945083"><ele>55.0</ele><time>2026-03-29T07:40:42.001Z</time></trkpt><trkpt lat="39.38030346635553" lon="17.10184636523778"><ele>55.0</ele><time>2026-03-29T07:40:43.001Z</time></trkpt><trkpt lat="39.38034471303412" lon="17.101730504190588"><ele>55.0</ele><time>2026-03-29T07:40:44.001Z</time></trkpt><trkpt lat="39.38036026813591" lon="17.101594134657763"><ele>55.0</ele><time>2026-03-29T07:40:45.001Z</time></trkpt><trkpt lat="39.38039992614454" lon="17.101443420687758"><ele>55.0</ele><time>2026-03-29T07:40:46.001Z</time></trkpt><trkpt lat="39.38048079872336" lon="17.101315932507255"><ele>55.49999999999999</ele><time>2026-03-29T07:40:47.001Z</time></trkpt><trkpt lat="39.38056430368596" lon="17.101222755571257"><ele>56.0</ele><time>2026-03-29T07:40:48.001Z</time></trkpt><trkpt lat="39.380621693016195" lon="17.101155487501703"><ele>56.5</ele><time>2026-03-29T07:40:49.001Z</time></trkpt><trkpt lat="39.38066411826659" lon="17.10109311656654"><ele>57.0</ele><time>2026-03-29T07:40:50.001Z</time></trkpt><trkpt lat="39.380697242938695" lon="17.10101506654369"><ele>57.49999999999999</ele><time>2026-03-29T07:40:51.001Z</time></trkpt><trkpt lat="39.38071858970704" lon="17.10089353200654"><ele>58.0</ele><time>2026-03-29T07:40:53.001Z</time></trkpt><trkpt lat="39.38071200160011" lon="17.100796771192414"><ele>58.2</ele><time>2026-03-29T07:40:54.001Z</time></trkpt><trkpt lat="39.3806945573686" lon="17.100713226163013"><ele>58.4</ele><time>2026-03-29T07:40:55.001Z</time></trkpt><trkpt lat="39.38065538585237" lon="17.10060209228978"><ele>58.60000000000001</ele><time>2026-03-29T07:40:56.002Z</time></trkpt><trkpt lat="39.38062524327863" lon="17.100487438047843"><ele>58.800000000000004</ele><time>2026-03-29T07:40:57.002Z</time></trkpt><trkpt lat="39.38057348739127" lon="17.10036776039959"><ele>59.0</ele><time>2026-03-29T07:40:58.002Z</time></trkpt><trkpt lat="39.38050190794649" lon="17.1002675857962"><ele>59.00000000000001</ele><time>2026-03-29T07:40:59.002Z</time></trkpt><trkpt lat="39.38045003670431" lon="17.100169918697706"><ele>59.0</ele><time>2026-03-29T07:41:00.002Z</time></trkpt><trkpt lat="39.380412622923224" lon="17.100068778170748"><ele>59.0</ele><time>2026-03-29T07:41:01.002Z</time></trkpt><trkpt lat="39.38038266686032" lon="17.099962995422132"><ele>59.0</ele><time>2026-03-29T07:41:02.002Z</time></trkpt><trkpt lat="39.38036146222012" lon="17.09986084671971"><ele>59.00000000000001</ele><time>2026-03-29T07:41:03.002Z</time></trkpt><trkpt lat="39.38032998736679" lon="17.09976730076622"><ele>59.0</ele><time>2026-03-29T07:41:04.002Z</time></trkpt><trkpt lat="39.38029356769383" lon="17.09967040343287"><ele>59.833333333333336</ele><time>2026-03-29T07:41:05.002Z</time></trkpt><trkpt lat="39.380261506121165" lon="17.09956441802397"><ele>60.66666666666667</ele><time>2026-03-29T07:41:06.002Z</time></trkpt><trkpt lat="39.38020877754049" lon="17.099475572628812"><ele>61.5</ele><time>2026-03-29T07:41:07.002Z</time></trkpt><trkpt lat="39.38016813902164" lon="17.099377486261858"><ele>62.33333333333333</ele><time>2026-03-29T07:41:08.002Z</time></trkpt><trkpt lat="39.38012767318652" lon="17.099277641495167"><ele>63.166666666666664</ele><time>2026-03-29T07:41:09.002Z</time></trkpt><trkpt lat="39.380097955347516" lon="17.099170443952524"><ele>64.0</ele><time>2026-03-29T07:41:10.002Z</time></trkpt><trkpt lat="39.380063078105984" lon="17.09908389699937"><ele>65.0</ele><time>2026-03-29T07:41:11.002Z</time></trkpt><trkpt lat="39.38003683356329" lon="17.098977529594038"><ele>66.0</ele><time>2026-03-29T07:41:12.001Z</time></trkpt><trkpt lat="39.38003875490561" lon="17.098859379372676"><ele>67.0</ele><time>2026-03-29T07:41:13.001Z</time></trkpt><trkpt lat="39.38006029378547" lon="17.09873698473171"><ele>68.0</ele><time>2026-03-29T07:41:14.001Z</time></trkpt><trkpt lat="39.38009433524245" lon="17.098614802824446"><ele>69.0</ele><time>2026-03-29T07:41:15.001Z</time></trkpt><trkpt lat="39.38012277051549" lon="17.09847859406905"><ele>69.0</ele><time>2026-03-29T07:41:16.001Z</time></trkpt><trkpt lat="39.3801415394733" lon="17.098331797961322"><ele>69.0</ele><time>2026-03-29T07:41:17.001Z</time></trkpt><trkpt lat="39.38016386104379" lon="17.098184219007496"><ele>69.0</ele><time>2026-03-29T07:41:18.001Z</time></trkpt><trkpt lat="39.380195901003006" lon="17.098077034286717"><ele>69.0</ele><time>2026-03-29T07:41:19.001Z</time></trkpt><trkpt lat="39.380212373638614" lon="17.097919936725475"><ele>69.0</ele><time>2026-03-29T07:41:20.001Z</time></trkpt><trkpt lat="39.38023403003643" lon="17.097775795422596"><ele>69.25</ele><time>2026-03-29T07:41:21.001Z</time></trkpt><trkpt lat="39.38025275218674" lon="17.0976454150134"><ele>69.5</ele><time>2026-03-29T07:41:22.001Z</time></trkpt><trkpt lat="39.38029255279232" lon="17.097502463167423"><ele>69.75</ele><time>2026-03-29T07:41:23.001Z</time></trkpt><trkpt lat="39.38032290995549" lon="17.09735632649209"><ele>70.0</ele><time>2026-03-29T07:41:24.001Z</time></trkpt><trkpt lat="39.38034925999543" lon="17.09721440475628"><ele>70.16666666666666</ele><time>2026-03-29T07:41:25.001Z</time></trkpt><trkpt lat="39.380370994953196" lon="17.09708931361466"><ele>70.33333333333333</ele><time>2026-03-29T07:41:26.001Z</time></trkpt><trkpt lat="39.38040157430428" lon="17.096990429135126"><ele>70.5</ele><time>2026-03-29T07:41:27.001Z</time></trkpt><trkpt lat="39.38041334373344" lon="17.09689218634912"><ele>70.66666666666667</ele><time>2026-03-29T07:41:28.001Z</time></trkpt><trkpt lat="39.380430444280506" lon="17.096804782826947"><ele>70.83333333333334</ele><time>2026-03-29T07:41:29.001Z</time></trkpt><trkpt lat="39.38045113077898" lon="17.096669326119343"><ele>71.0</ele><time>2026-03-29T07:41:31.001Z</time></trkpt><trkpt lat="39.380476889718885" lon="17.09652916210076"><ele>71.6</ele><time>2026-03-29T07:41:33.001Z</time></trkpt><trkpt lat="39.380503055241725" lon="17.09639055594231"><ele>72.19999999999999</ele><time>2026-03-29T07:41:35.001Z</time></trkpt><trkpt lat="39.380526155466086" lon="17.096269442124633"><ele>72.80000000000001</ele><time>2026-03-29T07:41:37.001Z</time></trkpt><trkpt lat="39.380546256555114" lon="17.096148616872902"><ele>73.4</ele><time>2026-03-29T07:41:39.001Z</time></trkpt><trkpt lat="39.3804747647016" lon="17.096133844507726"><ele>74.0</ele><time>2026-03-29T07:41:41.001Z</time></trkpt><trkpt lat="39.38040862120421" lon="17.096079626918463"><ele>74.0</ele><time>2026-03-29T07:41:43.001Z</time></trkpt><trkpt lat="39.380309296640185" lon="17.096012962237754"><ele>74.0</ele><time>2026-03-29T07:41:44.001Z</time></trkpt><trkpt lat="39.38026516711928" lon="17.096074763324676"><ele>74.0</ele><time>2026-03-29T07:41:45.001Z</time></trkpt><trkpt lat="39.38021408013477" lon="17.096146307337914"><ele>74.0</ele><time>2026-03-29T07:41:46Z</time></trkpt><trkpt lat="39.38015939814723" lon="17.096220773195494"><ele>74.0</ele><time>2026-03-29T07:41:47Z</time></trkpt><trkpt lat="39.380101629770465" lon="17.09629551078764"><ele>74.0</ele><time>2026-03-29T07:41:48Z</time></trkpt><trkpt lat="39.38004821145897" lon="17.096362291537414"><ele>74.0</ele><time>2026-03-29T07:41:49Z</time></trkpt><trkpt lat="39.37996644157221" lon="17.09645541202536"><ele>74.0</ele><time>2026-03-29T07:41:51Z</time></trkpt><trkpt lat="39.379916933711314" lon="17.096520373727206"><ele>74.0</ele><time>2026-03-29T07:41:53Z</time></trkpt><trkpt lat="39.379857105802365" lon="17.09655268867749"><ele>74.0</ele><time>2026-03-29T07:41:56Z</time></trkpt><trkpt lat="39.379764080640385" lon="17.096552822443524"><ele>74.0</ele><time>2026-03-29T07:42:00Z</time></trkpt><trkpt lat="39.379795937580575" lon="17.09644046846004"><ele>74.0</ele><time>2026-03-29T07:42:03Z</time></trkpt><trkpt lat="39.3798050580218" lon="17.096335309947378"><ele>74.0</ele><time>2026-03-29T07:42:05Z</time></trkpt><trkpt lat="39.379847963896026" lon="17.096208041178954"><ele>74.0</ele><time>2026-03-29T07:42:07Z</time></trkpt><trkpt lat="39.37983222734391" lon="17.0960397057485"><ele>74.0</ele><time>2026-03-29T07:42:09Z</time></trkpt><trkpt lat="39.37981966154867" lon="17.095945035681734"><ele>74.0</ele><time>2026-03-29T07:42:10Z</time></trkpt><trkpt lat="39.379805267721025" lon="17.095852315904164"><ele>74.0</ele><time>2026-03-29T07:42:11Z</time></trkpt><trkpt lat="39.3797821307353" lon="17.095768445758694"><ele>74.2</ele><time>2026-03-29T07:42:12Z</time></trkpt><trkpt lat="39.379730908813876" lon="17.095624865808084"><ele>74.4</ele><time>2026-03-29T07:42:14Z</time></trkpt><trkpt lat="39.37966577233673" lon="17.095510945605053"><ele>74.6</ele><time>2026-03-29T07:42:16Z</time></trkpt><trkpt lat="39.37960714092796" lon="17.095410972389743"><ele>74.8</ele><time>2026-03-29T07:42:18Z</time></trkpt><trkpt lat="39.37955558721578" lon="17.095308011400164"><ele>75.0</ele><time>2026-03-29T07:42:20Z</time></trkpt><trkpt lat="39.37949582732394" lon="17.095183495941548"><ele>74.99999999999999</ele><time>2026-03-29T07:42:22Z</time></trkpt><trkpt lat="39.379447087172196" lon="17.09512416880833"><ele>75.0</ele><time>2026-03-29T07:42:23Z</time></trkpt><trkpt lat="39.379404430019974" lon="17.095053269239756"><ele>75.0</ele><time>2026-03-29T07:42:24Z</time></trkpt><trkpt lat="39.37935869833479" lon="17.094977259720842"><ele>75.0</ele><time>2026-03-29T07:42:25Z</time></trkpt><trkpt lat="39.37931041320743" lon="17.094897006135305"><ele>75.0</ele><time>2026-03-29T07:42:26Z</time></trkpt><trkpt lat="39.37926283801136" lon="17.094817931602684"><ele>74.99999999999999</ele><time>2026-03-29T07:42:27Z</time></trkpt><trkpt lat="39.37921671848498" lon="17.094741276506042"><ele>75.0</ele><time>2026-03-29T07:42:28Z</time></trkpt><trkpt lat="39.37917372709164" lon="17.094669820668884"><ele>75.6</ele><time>2026-03-29T07:42:29Z</time></trkpt><trkpt lat="39.37923757889493" lon="17.094499620945886"><ele>76.2</ele><time>2026-03-29T07:42:30Z</time></trkpt><trkpt lat="39.379179205701696" lon="17.094382501268367"><ele>76.8</ele><time>2026-03-29T07:42:32Z</time></trkpt><trkpt lat="39.379166157512856" lon="17.09428501808023"><ele>77.4</ele><time>2026-03-29T07:42:34Z</time></trkpt><trkpt lat="39.37914476226901" lon="17.09419303638738"><ele>78.0</ele><time>2026-03-29T07:42:36Z</time></trkpt><trkpt lat="39.379103881788936" lon="17.094082619720194"><ele>79.25</ele><time>2026-03-29T07:42:38Z</time></trkpt><trkpt lat="39.3790473318247" lon="17.0939394502624"><ele>80.5</ele><time>2026-03-29T07:42:40Z</time></trkpt><trkpt lat="39.37900257608841" lon="17.09379666136645"><ele>81.75</ele><time>2026-03-29T07:42:42Z</time></trkpt><trkpt lat="39.37898223577894" lon="17.093640372820236"><ele>83.0</ele><time>2026-03-29T07:42:44Z</time></trkpt><trkpt lat="39.3789718749202" lon="17.093485093930447"><ele>83.0</ele><time>2026-03-29T07:42:46Z</time></trkpt><trkpt lat="39.37894539573434" lon="17.09332821406211"><ele>83.0</ele><time>2026-03-29T07:42:48Z</time></trkpt><trkpt lat="39.37891225659864" lon="17.09317035154368"><ele>83.0</ele><time>2026-03-29T07:42:50Z</time></trkpt><trkpt lat="39.37889161362276" lon="17.093087096666483"><ele>83.0</ele><time>2026-03-29T07:42:51Z</time></trkpt><trkpt lat="39.37886051078772" lon="17.09300055457141"><ele>83.0</ele><time>2026-03-29T07:42:52Z</time></trkpt><trkpt lat="39.378830804529585" lon="17.092909549308565"><ele>83.14285714285714</ele><time>2026-03-29T07:42:53Z</time></trkpt><trkpt lat="39.37880284000081" lon="17.09281487246763"><ele>83.28571428571429</ele><time>2026-03-29T07:42:54Z</time></trkpt><trkpt lat="39.37878629726616" lon="17.09272589213556"><ele>83.42857142857143</ele><time>2026-03-29T07:42:55Z</time></trkpt><trkpt lat="39.378772253352714" lon="17.092600385308888"><ele>83.57142857142857</ele><time>2026-03-29T07:42:57Z</time></trkpt><trkpt lat="39.37877349356899" lon="17.092509659218752"><ele>83.71428571428572</ele><time>2026-03-29T07:42:59Z</time></trkpt><trkpt lat="39.37876221473179" lon="17.092427790402102"><ele>83.85714285714286</ele><time>2026-03-29T07:43:01Z</time></trkpt><trkpt lat="39.378746118556506" lon="17.092343918410076"><ele>84.0</ele><time>2026-03-29T07:43:05Z</time></trkpt><trkpt lat="39.37873761446531" lon="17.092247633672205"><ele>85.16666666666667</ele><time>2026-03-29T07:43:12Z</time></trkpt><trkpt lat="39.37867641391057" lon="17.092182991430107"><ele>86.33333333333333</ele><time>2026-03-29T07:43:16Z</time></trkpt><trkpt lat="39.37867833723115" lon="17.092099846076888"><ele>87.5</ele><time>2026-03-29T07:43:19Z</time></trkpt><trkpt lat="39.378656492845195" lon="17.092021187921063"><ele>88.66666666666666</ele><time>2026-03-29T07:43:29Z</time></trkpt><trkpt lat="39.37862807639997" lon="17.091919368626865"><ele>89.83333333333333</ele><time>2026-03-29T07:44:03Z</time></trkpt><trkpt lat="39.37862937367723" lon="17.091804268642914"><ele>91.0</ele><time>2026-03-29T07:44:07Z</time></trkpt><trkpt lat="39.37859401975023" lon="17.09171361292135"><ele>91.0</ele><time>2026-03-29T07:44:10Z</time></trkpt><trkpt lat="39.378571836389234" lon="17.09159383933114"><ele>91.0</ele><time>2026-03-29T07:44:13Z</time></trkpt><trkpt lat="39.37853910652162" lon="17.09150935303446"><ele>91.0</ele><time>2026-03-29T07:44:15Z</time></trkpt><trkpt lat="39.37850734905178" lon="17.09142848197561"><ele>91.0</ele><time>2026-03-29T07:44:17Z</time></trkpt><trkpt lat="39.37845943700612" lon="17.091348263014996"><ele>91.0</ele><time>2026-03-29T07:44:19Z</time></trkpt><trkpt lat="39.37838599556322" lon="17.091274826957005"><ele>91.0</ele><time>2026-03-29T07:44:21Z</time></trkpt><trkpt lat="39.37832171635012" lon="17.091209684888454"><ele>91.5</ele><time>2026-03-29T07:44:23Z</time></trkpt><trkpt lat="39.37826043235378" lon="17.091179698764726"><ele>92.0</ele><time>2026-03-29T07:44:25Z</time></trkpt><trkpt lat="39.378191484786406" lon="17.091152661664026"><ele>92.5</ele><time>2026-03-29T07:44:27Z</time></trkpt><trkpt lat="39.37810619647064" lon="17.091134109274606"><ele>93.0</ele><time>2026-03-29T07:44:29Z</time></trkpt><trkpt lat="39.37801963024204" lon="17.091100296002214"><ele>93.5</ele><time>2026-03-29T07:44:31Z</time></trkpt><trkpt lat="39.37793610556605" lon="17.09105827896548"><ele>94.0</ele><time>2026-03-29T07:44:33Z</time></trkpt><trkpt lat="39.37785296695461" lon="17.09103096633975"><ele>95.6</ele><time>2026-03-29T07:44:35Z</time></trkpt><trkpt lat="39.37776955987233" lon="17.091032787447787"><ele>97.2</ele><time>2026-03-29T07:44:37Z</time></trkpt><trkpt lat="39.37767683013966" lon="17.091024698255886"><ele>98.8</ele><time>2026-03-29T07:44:39Z</time></trkpt><trkpt lat="39.37758384304343" lon="17.09096170003262"><ele>100.39999999999999</ele><time>2026-03-29T07:44:41Z</time></trkpt><trkpt lat="39.37747452896758" lon="17.09095494696659"><ele>102.0</ele><time>2026-03-29T07:44:43Z</time></trkpt><trkpt lat="39.37737270614468" lon="17.091030539871138"><ele>102.0</ele><time>2026-03-29T07:44:45Z</time></trkpt><trkpt lat="39.377290310980364" lon="17.091072456229927"><ele>102.0</ele><time>2026-03-29T07:44:47Z</time></trkpt><trkpt lat="39.377206931344574" lon="17.090996068075594"><ele>102.0</ele><time>2026-03-29T07:44:49Z</time></trkpt><trkpt lat="39.377129757504754" lon="17.090881027917504"><ele>102.0</ele><time>2026-03-29T07:44:51Z</time></trkpt><trkpt lat="39.377061397311145" lon="17.090793708176466"><ele>102.0</ele><time>2026-03-29T07:44:53Z</time></trkpt><trkpt lat="39.376971279440895" lon="17.090753317581846"><ele>103.19999999999999</ele><time>2026-03-29T07:44:55Z</time></trkpt><trkpt lat="39.376884098809285" lon="17.090647991875052"><ele>104.4</ele><time>2026-03-29T07:44:57Z</time></trkpt><trkpt lat="39.37683484256298" lon="17.090568886149153"><ele>105.60000000000001</ele><time>2026-03-29T07:44:58Z</time></trkpt><trkpt lat="39.376786351357104" lon="17.09048411172385"><ele>106.80000000000001</ele><time>2026-03-29T07:44:59Z</time></trkpt><trkpt lat="39.376740385725256" lon="17.090415360550175"><ele>108.0</ele><time>2026-03-29T07:45:00Z</time></trkpt><trkpt lat="39.37669520118949" lon="17.090291416439225"><ele>108.0</ele><time>2026-03-29T07:45:02Z</time></trkpt><trkpt lat="39.376602057311175" lon="17.09025059851285"><ele>108.0</ele><time>2026-03-29T07:45:04Z</time></trkpt><trkpt lat="39.37652457345472" lon="17.09022032579143"><ele>108.0</ele><time>2026-03-29T07:45:07Z</time></trkpt><trkpt lat="39.37646057489617" lon="17.090189269630276"><ele>108.0</ele><time>2026-03-29T07:45:11Z</time></trkpt><trkpt lat="39.37638340595731" lon="17.09014508699138"><ele>108.0</ele><time>2026-03-29T07:45:15Z</time></trkpt><trkpt lat="39.37630986280216" lon="17.090090465580367"><ele>108.0</ele><time>2026-03-29T07:45:19Z</time></trkpt><trkpt lat="39.37624623023129" lon="17.09005256641735"><ele>109.66666666666667</ele><time>2026-03-29T07:45:22Z</time></trkpt><trkpt lat="39.37617396094754" lon="17.090016385061965"><ele>111.33333333333334</ele><time>2026-03-29T07:45:25Z</time></trkpt><trkpt lat="39.37611400652565" lon="17.08996717420126"><ele>113.0</ele><time>2026-03-29T07:45:28Z</time></trkpt><trkpt lat="39.37603529349309" lon="17.089920030450994"><ele>114.66666666666667</ele><time>2026-03-29T07:45:31Z</time></trkpt><trkpt lat="39.375955664982676" lon="17.089864361977035"><ele>116.33333333333334</ele><time>2026-03-29T07:45:35Z</time></trkpt><trkpt lat="39.37590469372009" lon="17.08979508728324"><ele>118.0</ele><time>2026-03-29T07:45:37Z</time></trkpt><trkpt lat="39.37585610266885" lon="17.08972762975451"><ele>118.00000000000001</ele><time>2026-03-29T07:45:39Z</time></trkpt><trkpt lat="39.37579213543436" lon="17.08963877737805"><ele>118.0</ele><time>2026-03-29T07:45:41Z</time></trkpt><trkpt lat="39.375750520247834" lon="17.08956760151256"><ele>118.0</ele><time>2026-03-29T07:45:42Z</time></trkpt><trkpt lat="39.375687457831816" lon="17.089540456514726"><ele>118.0</ele><time>2026-03-29T07:45:43Z</time></trkpt><trkpt lat="39.37562538759574" lon="17.089497201498865"><ele>118.00000000000001</ele><time>2026-03-29T07:45:44Z</time></trkpt><trkpt lat="39.375529329690735" lon="17.089523465710712"><ele>118.0</ele><time>2026-03-29T07:45:45Z</time></trkpt><trkpt lat="39.37542851214099" lon="17.08944739836895"><ele>118.83333333333334</ele><time>2026-03-29T07:45:47Z</time></trkpt><trkpt lat="39.37536674161841" lon="17.089401459809675"><ele>119.66666666666667</ele><time>2026-03-29T07:45:48Z</time></trkpt><trkpt lat="39.375297465814846" lon="17.08934557895545"><ele>120.5</ele><time>2026-03-29T07:45:49Z</time></trkpt><trkpt lat="39.37524682765855" lon="17.08927566010784"><ele>121.33333333333334</ele><time>2026-03-29T07:45:50Z</time></trkpt><trkpt lat="39.375200609280625" lon="17.089184922532617"><ele>122.16666666666667</ele><time>2026-03-29T07:45:51Z</time></trkpt><trkpt lat="39.37517956971292" lon="17.089096422634604"><ele>123.0</ele><time>2026-03-29T07:45:52Z</time></trkpt><trkpt lat="39.375162943923385" lon="17.089005089253995"><ele>123.0</ele><time>2026-03-29T07:45:53Z</time></trkpt><trkpt lat="39.37514570110889" lon="17.08891271575483"><ele>123.0</ele><time>2026-03-29T07:45:54Z</time></trkpt><trkpt lat="39.37512619346443" lon="17.088815653450705"><ele>123.0</ele><time>2026-03-29T07:45:55Z</time></trkpt><trkpt lat="39.3751065565949" lon="17.088712304192548"><ele>123.0</ele><time>2026-03-29T07:45:56Z</time></trkpt><trkpt lat="39.375090631987256" lon="17.088603314677677"><ele>123.0</ele><time>2026-03-29T07:45:57Z</time></trkpt><trkpt lat="39.375082871000785" lon="17.088499900449243"><ele>123.0</ele><time>2026-03-29T07:45:58Z</time></trkpt><trkpt lat="39.37507231154601" lon="17.0884000750443"><ele>123.0</ele><time>2026-03-29T07:45:59Z</time></trkpt><trkpt lat="39.375055587698576" lon="17.08830136848146"><ele>123.0</ele><time>2026-03-29T07:46:00Z</time></trkpt><trkpt lat="39.37502974474822" lon="17.0881992191038"><ele>123.0</ele><time>2026-03-29T07:46:01Z</time></trkpt><trkpt lat="39.37499954918671" lon="17.088102689420325"><ele>123.0</ele><time>2026-03-29T07:46:02Z</time></trkpt><trkpt lat="39.37495361316031" lon="17.08800115409271"><ele>123.0</ele><time>2026-03-29T07:46:03Z</time></trkpt><trkpt lat="39.37490602108619" lon="17.0879073564396"><ele>123.0</ele><time>2026-03-29T07:46:04Z</time></trkpt><trkpt lat="39.3748321450812" lon="17.08782399068481"><ele>122.60000000000001</ele><time>2026-03-29T07:46:05Z</time></trkpt><trkpt lat="39.374757142080426" lon="17.087732234106102"><ele>122.20000000000002</ele><time>2026-03-29T07:46:06Z</time></trkpt><trkpt lat="39.37465762464949" lon="17.087690546918285"><ele>121.8</ele><time>2026-03-29T07:46:07Z</time></trkpt><trkpt lat="39.37455981075067" lon="17.087641479420405"><ele>121.4</ele><time>2026-03-29T07:46:08Z</time></trkpt><trkpt lat="39.37446327583491" lon="17.087598861596202"><ele>121.0</ele><time>2026-03-29T07:46:09Z</time></trkpt><trkpt lat="39.37437206331928" lon="17.087562920749058"><ele>121.16666666666667</ele><time>2026-03-29T07:46:10Z</time></trkpt><trkpt lat="39.37428300088162" lon="17.087530440688113"><ele>121.33333333333334</ele><time>2026-03-29T07:46:11Z</time></trkpt><trkpt lat="39.3741943114976" lon="17.087501650179227"><ele>121.5</ele><time>2026-03-29T07:46:12Z</time></trkpt><trkpt lat="39.37410661525221" lon="17.087474423074287"><ele>121.66666666666666</ele><time>2026-03-29T07:46:13Z</time></trkpt><trkpt lat="39.374023175191006" lon="17.08744851740957"><ele>121.83333333333333</ele><time>2026-03-29T07:46:14Z</time></trkpt><trkpt lat="39.37394672768316" lon="17.087424782719697"><ele>122.0</ele><time>2026-03-29T07:46:15Z</time></trkpt><trkpt lat="39.37387947606346" lon="17.087403032111318"><ele>123.19999999999999</ele><time>2026-03-29T07:46:16Z</time></trkpt><trkpt lat="39.37376100013643" lon="17.08735866552959"><ele>124.39999999999999</ele><time>2026-03-29T07:46:18Z</time></trkpt><trkpt lat="39.37367390492602" lon="17.08732595048045"><ele>125.60000000000001</ele><time>2026-03-29T07:46:20Z</time></trkpt><trkpt lat="39.37359083620868" lon="17.08729884339663"><ele>126.80000000000001</ele><time>2026-03-29T07:46:27Z</time></trkpt><trkpt lat="39.373528503715576" lon="17.0872813414211"><ele>128.0</ele><time>2026-03-29T07:46:29Z</time></trkpt><trkpt lat="39.37342928129119" lon="17.087257489935762"><ele>128.0</ele><time>2026-03-29T07:46:31Z</time></trkpt><trkpt lat="39.37330675186378" lon="17.087226070151416"><ele>128.0</ele><time>2026-03-29T07:46:33Z</time></trkpt><trkpt lat="39.373233826631626" lon="17.087198641517002"><ele>128.0</ele><time>2026-03-29T07:46:34Z</time></trkpt><trkpt lat="39.373157683323235" lon="17.08714826055972"><ele>128.0</ele><time>2026-03-29T07:46:35Z</time></trkpt><trkpt lat="39.37309790906846" lon="17.087076667880456"><ele>128.0</ele><time>2026-03-29T07:46:36Z</time></trkpt><trkpt lat="39.37306188088263" lon="17.086966999689068"><ele>128.0</ele><time>2026-03-29T07:46:37Z</time></trkpt><trkpt lat="39.37305612282454" lon="17.086865853994706"><ele>127.99999999999999</ele><time>2026-03-29T07:46:38Z</time></trkpt><trkpt lat="39.37305512156843" lon="17.086780771327863"><ele>128.0</ele><time>2026-03-29T07:46:39Z</time></trkpt><trkpt lat="39.373048249117645" lon="17.086692728681896"><ele>128.0</ele><time>2026-03-29T07:46:40Z</time></trkpt><trkpt lat="39.37303485504553" lon="17.086602239730336"><ele>127.99999999999999</ele><time>2026-03-29T07:46:41Z</time></trkpt><trkpt lat="39.3730178762003" lon="17.086501440568373"><ele>128.0</ele><time>2026-03-29T07:46:42Z</time></trkpt><trkpt lat="39.37300801905951" lon="17.08639675146724"><ele>128.0</ele><time>2026-03-29T07:46:42.999Z</time></trkpt><trkpt lat="39.37300294190907" lon="17.08629776893203"><ele>127.83333333333333</ele><time>2026-03-29T07:46:43.999Z</time></trkpt><trkpt lat="39.373016820759325" lon="17.086206998397838"><ele>127.66666666666666</ele><time>2026-03-29T07:46:44.999Z</time></trkpt><trkpt lat="39.37299955476398" lon="17.08612551874672"><ele>127.5</ele><time>2026-03-29T07:46:45.999Z</time></trkpt><trkpt lat="39.37296084151445" lon="17.086048111804487"><ele>127.33333333333334</ele><time>2026-03-29T07:46:46.999Z</time></trkpt><trkpt lat="39.37290867811409" lon="17.085974989064553"><ele>127.16666666666667</ele><time>2026-03-29T07:46:47.999Z</time></trkpt><trkpt lat="39.372871699117965" lon="17.08589572158245"><ele>127.0</ele><time>2026-03-29T07:46:48.999Z</time></trkpt><trkpt lat="39.37278871516258" lon="17.085781785772394"><ele>129.2</ele><time>2026-03-29T07:46:50.999Z</time></trkpt><trkpt lat="39.37272185685736" lon="17.0856798184856"><ele>131.39999999999998</ele><time>2026-03-29T07:46:52.999Z</time></trkpt><trkpt lat="39.372668373097135" lon="17.08560091553664"><ele>133.60000000000002</ele><time>2026-03-29T07:46:54.999Z</time></trkpt><trkpt lat="39.372679348463116" lon="17.085467634239127"><ele>135.8</ele><time>2026-03-29T07:46:56.999Z</time></trkpt><trkpt lat="39.37275268628199" lon="17.085398757047816"><ele>138.0</ele><time>2026-03-29T07:46:58.999Z</time></trkpt><trkpt lat="39.37280607458665" lon="17.085327241109972"><ele>138.0</ele><time>2026-03-29T07:47:00.999Z</time></trkpt><trkpt lat="39.37285756981953" lon="17.08526213267197"><ele>138.0</ele><time>2026-03-29T07:47:02.999Z</time></trkpt><trkpt lat="39.37291888867624" lon="17.08516370985057"><ele>138.0</ele><time>2026-03-29T07:47:04.999Z</time></trkpt><trkpt lat="39.372997137424434" lon="17.085059003742533"><ele>138.0</ele><time>2026-03-29T07:47:06.999Z</time></trkpt><trkpt lat="39.37306763391455" lon="17.084953186763954"><ele>138.0</ele><time>2026-03-29T07:47:08.999Z</time></trkpt><trkpt lat="39.37312520313937" lon="17.084833072775023"><ele>138.0</ele><time>2026-03-29T07:47:10.999Z</time></trkpt><trkpt lat="39.37318703755848" lon="17.084699290614513"><ele>138.0</ele><time>2026-03-29T07:47:12.999Z</time></trkpt><trkpt lat="39.373241435125095" lon="17.08455845690958"><ele>138.0</ele><time>2026-03-29T07:47:14.999Z</time></trkpt><trkpt lat="39.37327459324555" lon="17.084407558305973"><ele>138.0</ele><time>2026-03-29T07:47:16.999Z</time></trkpt><trkpt lat="39.3733097729162" lon="17.084262944038034"><ele>138.0</ele><time>2026-03-29T07:47:18.999Z</time></trkpt><trkpt lat="39.37332852119606" lon="17.084155029091455"><ele>138.0</ele><time>2026-03-29T07:47:20.999Z</time></trkpt><trkpt lat="39.373317297724526" lon="17.08407108895568"><ele>138.0</ele><time>2026-03-29T07:47:22.999Z</time></trkpt><trkpt lat="39.373229173174884" lon="17.084052508968718"><ele>138.0</ele><time>2026-03-29T07:47:25.999Z</time></trkpt><trkpt lat="39.37314921035927" lon="17.084133240683222"><ele>138.0</ele><time>2026-03-29T07:47:27.999Z</time></trkpt><trkpt lat="39.373212772951256" lon="17.084281582765044"><ele>138.0</ele><time>2026-03-29T07:47:29.999Z</time></trkpt><trkpt lat="39.373049280211035" lon="17.084322429611692"><ele>138.0</ele><time>2026-03-29T07:47:32.999Z</time></trkpt><trkpt lat="39.37298431211663" lon="17.084296235687574"><ele>138.0</ele><time>2026-03-29T07:47:38.999Z</time></trkpt><trkpt lat="39.37293401724168" lon="17.084236763831612"><ele>138.0</ele><time>2026-03-29T07:47:46.999Z</time></trkpt><trkpt lat="39.3728716026019" lon="17.084142846316976"><ele>138.0</ele><time>2026-03-29T07:47:50.999Z</time></trkpt><trkpt lat="39.37281276462998" lon="17.084080370429117"><ele>142.66666666666666</ele><time>2026-03-29T07:47:52.999Z</time></trkpt><trkpt lat="39.372745956431444" lon="17.084008258663186"><ele>147.33333333333334</ele><time>2026-03-29T07:47:54.999Z</time></trkpt><trkpt lat="39.37267866772265" lon="17.0839324635233"><ele>152.0</ele><time>2026-03-29T07:47:56.999Z</time></trkpt><trkpt lat="39.37262888583172" lon="17.08384622755066"><ele>156.66666666666669</ele><time>2026-03-29T07:47:58.999Z</time></trkpt><trkpt lat="39.37261588365989" lon="17.083752547007244"><ele>161.33333333333334</ele><time>2026-03-29T07:48:00.999Z</time></trkpt><trkpt lat="39.372628165890774" lon="17.083661177804473"><ele>166.0</ele><time>2026-03-29T07:48:03.001Z</time></trkpt><trkpt lat="39.37261894863318" lon="17.08355931806331"><ele>166.0</ele><time>2026-03-29T07:48:06.001Z</time></trkpt><trkpt lat="39.372664669500786" lon="17.08348867093682"><ele>166.0</ele><time>2026-03-29T07:48:08.001Z</time></trkpt><trkpt lat="39.37274248951428" lon="17.083417393148757"><ele>166.0</ele><time>2026-03-29T07:48:10Z</time></trkpt><trkpt lat="39.372814733818274" lon="17.08336596606238"><ele>166.0</ele><time>2026-03-29T07:48:12Z</time></trkpt><trkpt lat="39.37282679818423" lon="17.083263398694566"><ele>166.0</ele><time>2026-03-29T07:48:15Z</time></trkpt><trkpt lat="39.37276268113513" lon="17.083143799113117"><ele>166.0</ele><time>2026-03-29T07:48:17Z</time></trkpt><trkpt lat="39.372703072171" lon="17.083025665136425"><ele>166.4</ele><time>2026-03-29T07:48:19Z</time></trkpt><trkpt lat="39.37265403257097" lon="17.08293845438008"><ele>166.8</ele><time>2026-03-29T07:48:21Z</time></trkpt><trkpt lat="39.37261327775266" lon="17.082849768411133"><ele>167.20000000000002</ele><time>2026-03-29T07:48:23Z</time></trkpt><trkpt lat="39.37260322777879" lon="17.08270534534446"><ele>167.60000000000002</ele><time>2026-03-29T07:48:25Z</time></trkpt><trkpt lat="39.37263341573334" lon="17.08255481285357"><ele>168.0</ele><time>2026-03-29T07:48:27Z</time></trkpt><trkpt lat="39.37264834429328" lon="17.082393556684657"><ele>168.0</ele><time>2026-03-29T07:48:29Z</time></trkpt><trkpt lat="39.37265574543182" lon="17.08225783392992"><ele>168.0</ele><time>2026-03-29T07:48:31Z</time></trkpt><trkpt lat="39.372755649445516" lon="17.082201881304375"><ele>168.0</ele><time>2026-03-29T07:48:33Z</time></trkpt><trkpt lat="39.372864969541155" lon="17.082152812269744"><ele>168.0</ele><time>2026-03-29T07:48:35Z</time></trkpt><trkpt lat="39.37295022043144" lon="17.082094026889575"><ele>168.0</ele><time>2026-03-29T07:48:37Z</time></trkpt><trkpt lat="39.37301696681359" lon="17.082061486992625"><ele>168.57142857142858</ele><time>2026-03-29T07:48:39Z</time></trkpt><trkpt lat="39.37310483390756" lon="17.081997209423108"><ele>169.14285714285714</ele><time>2026-03-29T07:48:45Z</time></trkpt><trkpt lat="39.373155983505924" lon="17.08194831600825"><ele>169.71428571428572</ele><time>2026-03-29T07:48:46Z</time></trkpt><trkpt lat="39.37320417282744" lon="17.081891642687474"><ele>170.28571428571428</ele><time>2026-03-29T07:48:47Z</time></trkpt><trkpt lat="39.37324505259558" lon="17.08182166603631"><ele>170.85714285714286</ele><time>2026-03-29T07:48:48Z</time></trkpt><trkpt lat="39.37328383678205" lon="17.081746819589526"><ele>171.42857142857144</ele><time>2026-03-29T07:48:49Z</time></trkpt><trkpt lat="39.37332279550474" lon="17.081675544559342"><ele>172.0</ele><time>2026-03-29T07:48:50Z</time></trkpt><trkpt lat="39.37340928404608" lon="17.081581190949368"><ele>168.6</ele><time>2026-03-29T07:48:52Z</time></trkpt><trkpt lat="39.373505280097554" lon="17.08151203589071"><ele>165.2</ele><time>2026-03-29T07:48:54Z</time></trkpt><trkpt lat="39.37360256081201" lon="17.081441482927485"><ele>161.8</ele><time>2026-03-29T07:48:56Z</time></trkpt><trkpt lat="39.37369041869468" lon="17.08137859637038"><ele>158.4</ele><time>2026-03-29T07:48:58Z</time></trkpt><trkpt lat="39.373758882759546" lon="17.081332532828295"><ele>155.0</ele><time>2026-03-29T07:49:00Z</time></trkpt><trkpt lat="39.373820206474655" lon="17.081237482500647"><ele>155.0</ele><time>2026-03-29T07:49:04Z</time></trkpt><trkpt lat="39.37387222209079" lon="17.081105986837596"><ele>155.0</ele><time>2026-03-29T07:49:06Z</time></trkpt><trkpt lat="39.373901278397796" lon="17.08102337861652"><ele>155.0</ele><time>2026-03-29T07:49:07Z</time></trkpt><trkpt lat="39.37393424365786" lon="17.0809480208936"><ele>155.0</ele><time>2026-03-29T07:49:08Z</time></trkpt><trkpt lat="39.3740157943489" lon="17.08084218629839"><ele>155.0</ele><time>2026-03-29T07:49:10Z</time></trkpt><trkpt lat="39.374081462471395" lon="17.080735353521877"><ele>155.0</ele><time>2026-03-29T07:49:12Z</time></trkpt><trkpt lat="39.374168272336114" lon="17.080655774630145"><ele>155.0</ele><time>2026-03-29T07:49:14Z</time></trkpt><trkpt lat="39.3742686061814" lon="17.08058918375332"><ele>155.0</ele><time>2026-03-29T07:49:16Z</time></trkpt><trkpt lat="39.37434498768512" lon="17.080503234843118"><ele>155.0</ele><time>2026-03-29T07:49:18Z</time></trkpt><trkpt lat="39.37442701756373" lon="17.080426948008554"><ele>155.0</ele><time>2026-03-29T07:49:19.999Z</time></trkpt><trkpt lat="39.37450189370913" lon="17.080358456328977"><ele>155.0</ele><time>2026-03-29T07:49:21.999Z</time></trkpt><trkpt lat="39.37455254831833" lon="17.080295117776778"><ele>155.0</ele><time>2026-03-29T07:49:23.999Z</time></trkpt><trkpt lat="39.374611883827306" lon="17.08022697170331"><ele>155.0</ele><time>2026-03-29T07:49:26.999Z</time></trkpt><trkpt lat="39.3747068065475" lon="17.080242286477226"><ele>155.0</ele><time>2026-03-29T07:49:46.999Z</time></trkpt><trkpt lat="39.37477416159244" lon="17.080196536848423"><ele>155.0</ele><time>2026-03-29T07:49:51.999Z</time></trkpt><trkpt lat="39.37482544464678" lon="17.08013027814519"><ele>155.0</ele><time>2026-03-29T07:49:54.999Z</time></trkpt><trkpt lat="39.37487441164813" lon="17.08005755433187"><ele>155.83333333333331</ele><time>2026-03-29T07:49:57.999Z</time></trkpt><trkpt lat="39.37488292346787" lon="17.079969774002706"><ele>156.66666666666666</ele><time>2026-03-29T07:50:00.999Z</time></trkpt><trkpt lat="39.3747970113367" lon="17.079949582165657"><ele>157.5</ele><time>2026-03-29T07:50:03.999Z</time></trkpt><trkpt lat="39.37470948655794" lon="17.07991740598172"><ele>158.33333333333334</ele><time>2026-03-29T07:50:06.999Z</time></trkpt><trkpt lat="39.374700798124934" lon="17.07981862047351"><ele>159.16666666666669</ele><time>2026-03-29T07:50:08.999Z</time></trkpt><trkpt lat="39.374747492012226" lon="17.07968969656579"><ele>160.0</ele><time>2026-03-29T07:50:10.999Z</time></trkpt><trkpt lat="39.37502346875499" lon="17.07972730133551"><ele>160.0</ele><time>2026-03-29T07:50:12.999Z</time></trkpt><trkpt lat="39.37512995515108" lon="17.07952270986925"><ele>160.0</ele><time>2026-03-29T07:50:15.999Z</time></trkpt><trkpt lat="39.375182130756215" lon="17.07943078989355"><ele>160.0</ele><time>2026-03-29T07:50:16.999Z</time></trkpt><trkpt lat="39.37523103460331" lon="17.079344633743453"><ele>160.0</ele><time>2026-03-29T07:50:17.999Z</time></trkpt><trkpt lat="39.375276736304556" lon="17.07926374459295"><ele>160.0</ele><time>2026-03-29T07:50:18.999Z</time></trkpt><trkpt lat="39.37531539157183" lon="17.079193849161914"><ele>159.75</ele><time>2026-03-29T07:50:19.999Z</time></trkpt><trkpt lat="39.375374806282004" lon="17.079086417161463"><ele>159.5</ele><time>2026-03-29T07:50:21.999Z</time></trkpt><trkpt lat="39.37541975239591" lon="17.079005146850232"><ele>159.25</ele><time>2026-03-29T07:50:23.999Z</time></trkpt><trkpt lat="39.37528898616155" lon="17.07881615549973"><ele>159.0</ele><time>2026-03-29T07:50:26.999Z</time></trkpt><trkpt lat="39.37520074261039" lon="17.078814138718066"><ele>159.0</ele><time>2026-03-29T07:50:28.999Z</time></trkpt><trkpt lat="39.375100132190205" lon="17.07884056096569"><ele>159.0</ele><time>2026-03-29T07:50:30.999Z</time></trkpt><trkpt lat="39.375026405093266" lon="17.078917781952615"><ele>159.0</ele><time>2026-03-29T07:50:32.999Z</time></trkpt><trkpt lat="39.37498038444257" lon="17.079007721376385"><ele>159.0</ele><time>2026-03-29T07:50:34.999Z</time></trkpt><trkpt lat="39.37493796893558" lon="17.07908939908385"><ele>159.0</ele><time>2026-03-29T07:50:36.999Z</time></trkpt><trkpt lat="39.37490036725496" lon="17.07919158863304"><ele>159.0</ele><time>2026-03-29T07:50:38.999Z</time></trkpt><trkpt lat="39.37485366046411" lon="17.079277605571097"><ele>159.2</ele><time>2026-03-29T07:50:40.999Z</time></trkpt><trkpt lat="39.37476216998443" lon="17.079316940505308"><ele>159.4</ele><time>2026-03-29T07:50:42.999Z</time></trkpt><trkpt lat="39.37465776228461" lon="17.07940634242075"><ele>159.6</ele><time>2026-03-29T07:50:44.999Z</time></trkpt><trkpt lat="39.37460722002088" lon="17.079467957383716"><ele>159.8</ele><time>2026-03-29T07:50:45.999Z</time></trkpt><trkpt lat="39.374562861099086" lon="17.079532576829337"><ele>160.0</ele><time>2026-03-29T07:50:46.999Z</time></trkpt><trkpt lat="39.374472852647465" lon="17.079633619111366"><ele>159.16666666666669</ele><time>2026-03-29T07:50:48.999Z</time></trkpt><trkpt lat="39.37437818054372" lon="17.079716578614804"><ele>158.33333333333334</ele><time>2026-03-29T07:50:50.999Z</time></trkpt><trkpt lat="39.374285686927436" lon="17.079803101298328"><ele>157.5</ele><time>2026-03-29T07:50:52.999Z</time></trkpt><trkpt lat="39.37423327245501" lon="17.07985169817629"><ele>156.66666666666666</ele><time>2026-03-29T07:50:53.999Z</time></trkpt><trkpt lat="39.374167968801025" lon="17.07988233570972"><ele>155.83333333333331</ele><time>2026-03-29T07:50:54.999Z</time></trkpt><trkpt lat="39.37410127168668" lon="17.07989598760384"><ele>155.0</ele><time>2026-03-29T07:50:55.999Z</time></trkpt><trkpt lat="39.37399625801853" lon="17.079947947367334"><ele>155.0</ele><time>2026-03-29T07:50:57.999Z</time></trkpt><trkpt lat="39.373899660613084" lon="17.079974498787823"><ele>155.0</ele><time>2026-03-29T07:50:59.999Z</time></trkpt><trkpt lat="39.37382917684969" lon="17.07998140342121"><ele>155.0</ele><time>2026-03-29T07:51:00.999Z</time></trkpt><trkpt lat="39.373745808023386" lon="17.080010105183508"><ele>155.0</ele><time>2026-03-29T07:51:01.999Z</time></trkpt><trkpt lat="39.373650418393844" lon="17.08007145513414"><ele>155.0</ele><time>2026-03-29T07:51:02.999Z</time></trkpt><trkpt lat="39.373545710634374" lon="17.080145610340427"><ele>152.4</ele><time>2026-03-29T07:51:03.999Z</time></trkpt><trkpt lat="39.37345357636117" lon="17.080197707154372"><ele>149.8</ele><time>2026-03-29T07:51:04.999Z</time></trkpt><trkpt lat="39.37335580619405" lon="17.08024015546066"><ele>147.2</ele><time>2026-03-29T07:51:05.999Z</time></trkpt><trkpt lat="39.37325520290854" lon="17.080254264627207"><ele>144.6</ele><time>2026-03-29T07:51:06.999Z</time></trkpt><trkpt lat="39.37314926450944" lon="17.080221780368905"><ele>142.0</ele><time>2026-03-29T07:51:07.999Z</time></trkpt><trkpt lat="39.373085166900914" lon="17.080187587516825"><ele>142.0</ele><time>2026-03-29T07:51:08.999Z</time></trkpt><trkpt lat="39.372991502828604" lon="17.08013667601616"><ele>142.0</ele><time>2026-03-29T07:51:10.999Z</time></trkpt><trkpt lat="39.37292303013506" lon="17.08010248928734"><ele>142.0</ele><time>2026-03-29T07:51:12.999Z</time></trkpt><trkpt lat="39.37285737462144" lon="17.080088697729174"><ele>142.0</ele><time>2026-03-29T07:51:15.999Z</time></trkpt><trkpt lat="39.37279924747863" lon="17.080053404581037"><ele>142.0</ele><time>2026-03-29T07:51:20.999Z</time></trkpt><trkpt lat="39.37273291774145" lon="17.08002466172684"><ele>142.0</ele><time>2026-03-29T07:51:26.999Z</time></trkpt><trkpt lat="39.372703463609426" lon="17.079917673815082"><ele>142.0</ele><time>2026-03-29T07:51:30.999Z</time></trkpt><trkpt lat="39.372674766341866" lon="17.07983859758325"><ele>142.0</ele><time>2026-03-29T07:51:38.999Z</time></trkpt><trkpt lat="39.372602475911044" lon="17.079826391752356"><ele>142.0</ele><time>2026-03-29T07:51:46.999Z</time></trkpt><trkpt lat="39.37253170911608" lon="17.079766393084082"><ele>142.0</ele><time>2026-03-29T07:51:49.999Z</time></trkpt><trkpt lat="39.37245880180086" lon="17.07975151798581"><ele>142.0</ele><time>2026-03-29T07:51:51.999Z</time></trkpt><trkpt lat="39.37237734341594" lon="17.0797991106228"><ele>142.0</ele><time>2026-03-29T07:51:53.999Z</time></trkpt><trkpt lat="39.37229663954531" lon="17.079849739958803"><ele>142.0</ele><time>2026-03-29T07:51:55.999Z</time></trkpt><trkpt lat="39.37221915043767" lon="17.079892640865665"><ele>142.0</ele><time>2026-03-29T07:51:57.999Z</time></trkpt><trkpt lat="39.3721758856676" lon="17.080019165209404"><ele>142.0</ele><time>2026-03-29T07:51:59.999Z</time></trkpt><trkpt lat="39.37211038989944" lon="17.080156185228283"><ele>142.0</ele><time>2026-03-29T07:52:01.999Z</time></trkpt><trkpt lat="39.372047852749745" lon="17.080211409028223"><ele>142.0</ele><time>2026-03-29T07:52:02.999Z</time></trkpt><trkpt lat="39.37198355682173" lon="17.080271422255997"><ele>143.66666666666669</ele><time>2026-03-29T07:52:03.999Z</time></trkpt><trkpt lat="39.37192261175687" lon="17.080328964194965"><ele>145.33333333333334</ele><time>2026-03-29T07:52:04.999Z</time></trkpt><trkpt lat="39.371871004757196" lon="17.080383163274817"><ele>147.0</ele><time>2026-03-29T07:52:05.999Z</time></trkpt><trkpt lat="39.37179416779605" lon="17.08045909764196"><ele>148.66666666666666</ele><time>2026-03-29T07:52:07.999Z</time></trkpt><trkpt lat="39.37174496439552" lon="17.080546118294333"><ele>150.33333333333331</ele><time>2026-03-29T07:52:10.999Z</time></trkpt><trkpt lat="39.3717068820931" lon="17.080635504939764"><ele>152.0</ele><time>2026-03-29T07:52:17.999Z</time></trkpt><trkpt lat="39.371686182975694" lon="17.080734820804015"><ele>150.16666666666666</ele><time>2026-03-29T07:52:21.999Z</time></trkpt><trkpt lat="39.371651758391614" lon="17.080813625515397"><ele>148.33333333333331</ele><time>2026-03-29T07:52:25.999Z</time></trkpt><trkpt lat="39.371649703603836" lon="17.08090108241637"><ele>146.5</ele><time>2026-03-29T07:52:29.999Z</time></trkpt><trkpt lat="39.37159390459644" lon="17.080996700725997"><ele>144.66666666666666</ele><time>2026-03-29T07:52:35.999Z</time></trkpt><trkpt lat="39.371551913652375" lon="17.081106210205526"><ele>142.83333333333334</ele><time>2026-03-29T07:52:37.999Z</time></trkpt><trkpt lat="39.371527849504936" lon="17.08120787508713"><ele>141.0</ele><time>2026-03-29T07:52:39.999Z</time></trkpt><trkpt lat="39.3714719141198" lon="17.081286869927077"><ele>141.0</ele><time>2026-03-29T07:52:44.999Z</time></trkpt><trkpt lat="39.37140597517187" lon="17.0813574931464"><ele>141.0</ele><time>2026-03-29T07:52:46.999Z</time></trkpt><trkpt lat="39.37130821817088" lon="17.0814024157727"><ele>141.0</ele><time>2026-03-29T07:52:48.999Z</time></trkpt><trkpt lat="39.371217540084686" lon="17.081463630278122"><ele>141.0</ele><time>2026-03-29T07:52:50.999Z</time></trkpt><trkpt lat="39.37113676791249" lon="17.081523796824687"><ele>141.0</ele><time>2026-03-29T07:52:52.999Z</time></trkpt><trkpt lat="39.37111652409095" lon="17.081609657789777"><ele>142.0</ele><time>2026-03-29T07:52:54.999Z</time></trkpt><trkpt lat="39.371145288279436" lon="17.081693907245143"><ele>143.0</ele><time>2026-03-29T07:52:56.999Z</time></trkpt><trkpt lat="39.371163761090074" lon="17.08180410430631"><ele>144.0</ele><time>2026-03-29T07:52:59.999Z</time></trkpt><trkpt lat="39.37113037371656" lon="17.081906596088633"><ele>145.0</ele><time>2026-03-29T07:53:01.999Z</time></trkpt><trkpt lat="39.37106412993284" lon="17.081986341462365"><ele>146.0</ele><time>2026-03-29T07:53:03.999Z</time></trkpt><trkpt lat="39.37097132989239" lon="17.08200817539761"><ele>147.0</ele><time>2026-03-29T07:53:05.999Z</time></trkpt><trkpt lat="39.37088885090144" lon="17.08203058489563"><ele>147.0</ele><time>2026-03-29T07:53:07.999Z</time></trkpt><trkpt lat="39.37086907691749" lon="17.082123484288584"><ele>147.0</ele><time>2026-03-29T07:53:09.999Z</time></trkpt><trkpt lat="39.37089830123372" lon="17.082248147179055"><ele>147.0</ele><time>2026-03-29T07:53:11.999Z</time></trkpt><trkpt lat="39.37093218443679" lon="17.082401901704188"><ele>147.0</ele><time>2026-03-29T07:53:13.999Z</time></trkpt><trkpt lat="39.37092202301427" lon="17.082551417165984"><ele>147.0</ele><time>2026-03-29T07:53:15.999Z</time></trkpt><trkpt lat="39.37092732354451" lon="17.08269176381073"><ele>144.6</ele><time>2026-03-29T07:53:17.999Z</time></trkpt><trkpt lat="39.37097759400236" lon="17.08283892444314"><ele>142.2</ele><time>2026-03-29T07:53:19.999Z</time></trkpt><trkpt lat="39.370998004279286" lon="17.082919478262507"><ele>139.8</ele><time>2026-03-29T07:53:20.999Z</time></trkpt><trkpt lat="39.371040995182184" lon="17.083079298468828"><ele>137.4</ele><time>2026-03-29T07:53:22.999Z</time></trkpt><trkpt lat="39.37105488951739" lon="17.08316401431002"><ele>135.0</ele><time>2026-03-29T07:53:23.999Z</time></trkpt><trkpt lat="39.37105679500511" lon="17.08325771764578"><ele>134.33333333333334</ele><time>2026-03-29T07:53:24.999Z</time></trkpt><trkpt lat="39.37103694917032" lon="17.083355275981138"><ele>133.66666666666666</ele><time>2026-03-29T07:53:25.999Z</time></trkpt><trkpt lat="39.37101376106828" lon="17.083448198868066"><ele>133.0</ele><time>2026-03-29T07:53:26.999Z</time></trkpt><trkpt lat="39.37099674346537" lon="17.08352977387676"><ele>132.33333333333331</ele><time>2026-03-29T07:53:27.999Z</time></trkpt><trkpt lat="39.3709609440884" lon="17.08366020835679"><ele>131.66666666666666</ele><time>2026-03-29T07:53:29.999Z</time></trkpt><trkpt lat="39.37091640953734" lon="17.083723117813154"><ele>131.0</ele><time>2026-03-29T07:53:30.999Z</time></trkpt><trkpt lat="39.370869274258894" lon="17.0837924231562"><ele>131.0</ele><time>2026-03-29T07:53:31.999Z</time></trkpt><trkpt lat="39.37082574684847" lon="17.0838588876634"><ele>131.0</ele><time>2026-03-29T07:53:32.999Z</time></trkpt><trkpt lat="39.37074140079824" lon="17.083948341017784"><ele>131.0</ele><time>2026-03-29T07:53:34.999Z</time></trkpt><trkpt lat="39.37065057785047" lon="17.083959922151934"><ele>131.0</ele><time>2026-03-29T07:53:36.999Z</time></trkpt><trkpt lat="39.370571234321915" lon="17.08388829451094"><ele>131.0</ele><time>2026-03-29T07:53:38.999Z</time></trkpt><trkpt lat="39.3705131556165" lon="17.08380522770157"><ele>135.33333333333331</ele><time>2026-03-29T07:53:40.999Z</time></trkpt><trkpt lat="39.370475209748086" lon="17.083708010215318"><ele>139.66666666666666</ele><time>2026-03-29T07:53:42.999Z</time></trkpt><trkpt lat="39.370420043767794" lon="17.083600948672515"><ele>144.0</ele><time>2026-03-29T07:53:44.999Z</time></trkpt><trkpt lat="39.37035982252695" lon="17.083510987715798"><ele>148.33333333333334</ele><time>2026-03-29T07:53:46.998Z</time></trkpt><trkpt lat="39.370263556813974" lon="17.083475415705013"><ele>152.66666666666669</ele><time>2026-03-29T07:53:48.998Z</time></trkpt><trkpt lat="39.37019915847977" lon="17.08345291235749"><ele>157.0</ele><time>2026-03-29T07:53:49.998Z</time></trkpt><trkpt lat="39.370085056898155" lon="17.083493943510863"><ele>157.0</ele><time>2026-03-29T07:53:51.998Z</time></trkpt><trkpt lat="39.36998650228597" lon="17.08355884181464"><ele>157.0</ele><time>2026-03-29T07:53:53.998Z</time></trkpt><trkpt lat="39.369908962207674" lon="17.083617037456435"><ele>157.0</ele><time>2026-03-29T07:53:55.998Z</time></trkpt><trkpt lat="39.3698297967985" lon="17.083599985283822"><ele>157.0</ele><time>2026-03-29T07:53:57.998Z</time></trkpt><trkpt lat="39.3697647649274" lon="17.083510138498415"><ele>157.0</ele><time>2026-03-29T07:53:59.998Z</time></trkpt><trkpt lat="39.36970312018023" lon="17.083423731485983"><ele>159.0</ele><time>2026-03-29T07:54:01.998Z</time></trkpt><trkpt lat="39.3696307018805" lon="17.08332256819842"><ele>161.0</ele><time>2026-03-29T07:54:03.998Z</time></trkpt><trkpt lat="39.36954957577013" lon="17.083236165614384"><ele>163.0</ele><time>2026-03-29T07:54:05.998Z</time></trkpt><trkpt lat="39.3694906452553" lon="17.083139107502596"><ele>165.0</ele><time>2026-03-29T07:54:07.998Z</time></trkpt><trkpt lat="39.369459399579455" lon="17.083024314618207"><ele>167.0</ele><time>2026-03-29T07:54:09.998Z</time></trkpt><trkpt lat="39.36945833830284" lon="17.082896118735782"><ele>170.6</ele><time>2026-03-29T07:54:11.998Z</time></trkpt><trkpt lat="39.36946832518545" lon="17.082777507059347"><ele>174.2</ele><time>2026-03-29T07:54:13.998Z</time></trkpt><trkpt lat="39.36950506893424" lon="17.082662541352228"><ele>177.8</ele><time>2026-03-29T07:54:15.998Z</time></trkpt><trkpt lat="39.36957039203815" lon="17.08256836507099"><ele>181.4</ele><time>2026-03-29T07:54:17.998Z</time></trkpt><trkpt lat="39.369626596568864" lon="17.082486947268702"><ele>185.0</ele><time>2026-03-29T07:54:19.998Z</time></trkpt><trkpt lat="39.369653940416526" lon="17.082376036247307"><ele>187.2</ele><time>2026-03-29T07:54:21.998Z</time></trkpt><trkpt lat="39.36963014857248" lon="17.08229801214891"><ele>189.4</ele><time>2026-03-29T07:54:23.998Z</time></trkpt><trkpt lat="39.36956184420686" lon="17.082197759198536"><ele>191.60000000000002</ele><time>2026-03-29T07:54:26.998Z</time></trkpt><trkpt lat="39.369489924785285" lon="17.08212631594408"><ele>193.8</ele><time>2026-03-29T07:54:28.998Z</time></trkpt><trkpt lat="39.369405893495106" lon="17.08204687849556"><ele>196.0</ele><time>2026-03-29T07:54:30.998Z</time></trkpt><trkpt lat="39.369318589687346" lon="17.081972228673585"><ele>196.0</ele><time>2026-03-29T07:54:32.998Z</time></trkpt><trkpt lat="39.36924092474906" lon="17.08189776209749"><ele>196.0</ele><time>2026-03-29T07:54:34.998Z</time></trkpt><trkpt lat="39.36920177645152" lon="17.081822221711256"><ele>196.0</ele><time>2026-03-29T07:54:38.998Z</time></trkpt><trkpt lat="39.36914116012757" lon="17.08177942689995"><ele>196.0</ele><time>2026-03-29T07:54:48.998Z</time></trkpt><trkpt lat="39.369079364795525" lon="17.081728008280482"><ele>196.0</ele><time>2026-03-29T07:55:01.998Z</time></trkpt><trkpt lat="39.36901023223666" lon="17.081695139850982"><ele>196.0</ele><time>2026-03-29T07:55:05.998Z</time></trkpt><trkpt lat="39.368957028877176" lon="17.081744061210912"><ele>196.0</ele><time>2026-03-29T07:55:12Z</time></trkpt><trkpt lat="39.3688764893192" lon="17.081738076449994"><ele>197.33333333333331</ele><time>2026-03-29T07:55:16Z</time></trkpt><trkpt lat="39.36881207768473" lon="17.08166189724046"><ele>198.66666666666666</ele><time>2026-03-29T07:55:19Z</time></trkpt><trkpt lat="39.36877702995001" lon="17.081586630607447"><ele>200.0</ele><time>2026-03-29T07:55:27Z</time></trkpt><trkpt lat="39.3687909523077" lon="17.08148514768065"><ele>201.33333333333331</ele><time>2026-03-29T07:55:32Z</time></trkpt><trkpt lat="39.368815295563465" lon="17.081367690728094"><ele>202.66666666666666</ele><time>2026-03-29T07:55:35Z</time></trkpt><trkpt lat="39.36883334667036" lon="17.081277008157016"><ele>204.0</ele><time>2026-03-29T07:55:37Z</time></trkpt><trkpt lat="39.36882749570081" lon="17.081185398104502"><ele>205.85714285714286</ele><time>2026-03-29T07:55:39Z</time></trkpt><trkpt lat="39.36881450811454" lon="17.081082505546267"><ele>207.71428571428572</ele><time>2026-03-29T07:55:41Z</time></trkpt><trkpt lat="39.36877949949693" lon="17.080992096686177"><ele>209.57142857142856</ele><time>2026-03-29T07:55:43Z</time></trkpt><trkpt lat="39.36875070904699" lon="17.08089769526119"><ele>211.42857142857144</ele><time>2026-03-29T07:55:45Z</time></trkpt><trkpt lat="39.3687103883534" lon="17.080828356289285"><ele>213.28571428571428</ele><time>2026-03-29T07:55:47Z</time></trkpt><trkpt lat="39.3687338133616" lon="17.08073679132152"><ele>215.14285714285714</ele><time>2026-03-29T07:55:56Z</time></trkpt><trkpt lat="39.368761606486885" lon="17.080663148250693"><ele>217.0</ele><time>2026-03-29T07:56:12Z</time></trkpt><trkpt lat="39.36881673122773" lon="17.080608203978638"><ele>217.99999999999997</ele><time>2026-03-29T07:56:17Z</time></trkpt><trkpt lat="39.36880004220658" lon="17.080524289307792"><ele>219.0</ele><time>2026-03-29T07:56:21Z</time></trkpt><trkpt lat="39.36873763577998" lon="17.080496004283365"><ele>220.0</ele><time>2026-03-29T07:56:23Z</time></trkpt><trkpt lat="39.368688148786" lon="17.08040516541579"><ele>221.0</ele><time>2026-03-29T07:56:26Z</time></trkpt><trkpt lat="39.368633495999354" lon="17.080350116216845"><ele>221.99999999999997</ele><time>2026-03-29T07:56:28Z</time></trkpt><trkpt lat="39.368557024867094" lon="17.08027213443781"><ele>223.0</ele><time>2026-03-29T07:56:30Z</time></trkpt><trkpt lat="39.36850252605077" lon="17.08020811350562"><ele>222.99999999999997</ele><time>2026-03-29T07:56:32Z</time></trkpt><trkpt lat="39.36849394469312" lon="17.08010645685525"><ele>223.0</ele><time>2026-03-29T07:56:34Z</time></trkpt><trkpt lat="39.36847003640644" lon="17.079999942982106"><ele>223.0</ele><time>2026-03-29T07:56:36Z</time></trkpt><trkpt lat="39.36844327972335" lon="17.07989684316404"><ele>223.0</ele><time>2026-03-29T07:56:38Z</time></trkpt><trkpt lat="39.36842527115361" lon="17.0798004443704"><ele>222.99999999999997</ele><time>2026-03-29T07:56:40Z</time></trkpt><trkpt lat="39.36839013391104" lon="17.07972497696226"><ele>223.0</ele><time>2026-03-29T07:56:42Z</time></trkpt><trkpt lat="39.36836146840468" lon="17.07964854641988"><ele>222.42857142857142</ele><time>2026-03-29T07:56:44Z</time></trkpt><trkpt lat="39.36834622340337" lon="17.079568515127818"><ele>221.85714285714283</ele><time>2026-03-29T07:56:46Z</time></trkpt><trkpt lat="39.36837715853497" lon="17.079485741833185"><ele>221.28571428571428</ele><time>2026-03-29T07:56:49Z</time></trkpt><trkpt lat="39.36839101445431" lon="17.07939237086112"><ele>220.71428571428572</ele><time>2026-03-29T07:56:56Z</time></trkpt><trkpt lat="39.36844995537112" lon="17.079363623582957"><ele>220.14285714285714</ele><time>2026-03-29T07:57:03Z</time></trkpt><trkpt lat="39.36852114182977" lon="17.079331473622762"><ele>219.57142857142858</ele><time>2026-03-29T07:57:09Z</time></trkpt><trkpt lat="39.36857756407575" lon="17.07929461233693"><ele>219.0</ele><time>2026-03-29T07:57:24Z</time></trkpt><trkpt lat="39.368639518124844" lon="17.0792332554725"><ele>219.0</ele><time>2026-03-29T07:57:30.999Z</time></trkpt><trkpt lat="39.36868017084116" lon="17.079153092902363"><ele>219.0</ele><time>2026-03-29T07:57:34.999Z</time></trkpt><trkpt lat="39.36872476593997" lon="17.079061239116513"><ele>219.0</ele><time>2026-03-29T07:57:38.999Z</time></trkpt><trkpt lat="39.36875659663108" lon="17.078988553546264"><ele>219.0</ele><time>2026-03-29T07:57:42.999Z</time></trkpt><trkpt lat="39.368760494143196" lon="17.078890217229795"><ele>219.0</ele><time>2026-03-29T07:57:48.999Z</time></trkpt><trkpt lat="39.36877240475551" lon="17.07878444237764"><ele>219.0</ele><time>2026-03-29T07:57:52.999Z</time></trkpt><trkpt lat="39.368770029553154" lon="17.078691445985015"><ele>216.2857142857143</ele><time>2026-03-29T07:57:56.999Z</time></trkpt><trkpt lat="39.368766709499916" lon="17.078593036220106"><ele>213.57142857142856</ele><time>2026-03-29T07:58:00.999Z</time></trkpt><trkpt lat="39.36876682805508" lon="17.07848969374401"><ele>210.85714285714286</ele><time>2026-03-29T07:58:03.999Z</time></trkpt><trkpt lat="39.3687736105386" lon="17.078404010519787"><ele>208.14285714285717</ele><time>2026-03-29T07:58:05.999Z</time></trkpt><trkpt lat="39.36878269224985" lon="17.078301711420362"><ele>205.42857142857144</ele><time>2026-03-29T07:58:08.999Z</time></trkpt><trkpt lat="39.368777551132766" lon="17.078214805638645"><ele>202.71428571428572</ele><time>2026-03-29T07:58:10.999Z</time></trkpt><trkpt lat="39.3687690190321" lon="17.078123961614764"><ele>200.0</ele><time>2026-03-29T07:58:12.999Z</time></trkpt><trkpt lat="39.36875956545463" lon="17.07803847286776"><ele>197.00000000000003</ele><time>2026-03-29T07:58:14.999Z</time></trkpt><trkpt lat="39.36875055223453" lon="17.07792054638784"><ele>194.0</ele><time>2026-03-29T07:58:17.999Z</time></trkpt><trkpt lat="39.36876565772932" lon="17.077836783768138"><ele>191.0</ele><time>2026-03-29T07:58:19.999Z</time></trkpt><trkpt lat="39.3687625373528" lon="17.077744646640603"><ele>188.0</ele><time>2026-03-29T07:58:21.999Z</time></trkpt><trkpt lat="39.368785935042524" lon="17.077667426648834"><ele>185.0</ele><time>2026-03-29T07:58:23.999Z</time></trkpt><trkpt lat="39.36879803268078" lon="17.077579584916542"><ele>182.00000000000003</ele><time>2026-03-29T07:58:25.999Z</time></trkpt><trkpt lat="39.368801259440886" lon="17.077475915195727"><ele>179.0</ele><time>2026-03-29T07:58:27.999Z</time></trkpt><trkpt lat="39.368809637814174" lon="17.07737119653784"><ele>177.83333333333331</ele><time>2026-03-29T07:58:29.999Z</time></trkpt><trkpt lat="39.3688354344702" lon="17.077283473213296"><ele>176.66666666666666</ele><time>2026-03-29T07:58:31.999Z</time></trkpt><trkpt lat="39.36886102478568" lon="17.077184337074918"><ele>175.5</ele><time>2026-03-29T07:58:33.999Z</time></trkpt><trkpt lat="39.368874762004765" lon="17.077077413534617"><ele>174.33333333333334</ele><time>2026-03-29T07:58:35.999Z</time></trkpt><trkpt lat="39.36887550640242" lon="17.07699124477544"><ele>173.16666666666669</ele><time>2026-03-29T07:58:37.999Z</time></trkpt><trkpt lat="39.368870724442054" lon="17.07688385551626"><ele>172.0</ele><time>2026-03-29T07:58:40.999Z</time></trkpt><trkpt lat="39.36886905794245" lon="17.076790487312916"><ele>172.00000000000003</ele><time>2026-03-29T07:58:42.999Z</time></trkpt><trkpt lat="39.36887995660339" lon="17.076681271142167"><ele>172.0</ele><time>2026-03-29T07:58:44.999Z</time></trkpt><trkpt lat="39.3688839147574" lon="17.076592440154055"><ele>172.0</ele><time>2026-03-29T07:58:46.999Z</time></trkpt><trkpt lat="39.36890869281142" lon="17.076503078251722"><ele>172.0</ele><time>2026-03-29T07:58:49.999Z</time></trkpt><trkpt lat="39.36894259069498" lon="17.076417248514375"><ele>172.0</ele><time>2026-03-29T07:58:53.999Z</time></trkpt><trkpt lat="39.36898216116258" lon="17.07635142357471"><ele>172.00000000000003</ele><time>2026-03-29T07:58:56.999Z</time></trkpt><trkpt lat="39.3689440421904" lon="17.076261449346447"><ele>172.0</ele><time>2026-03-29T07:59:00.999Z</time></trkpt><trkpt lat="39.36889854940041" lon="17.076187991945172"><ele>168.00000000000003</ele><time>2026-03-29T07:59:03.999Z</time></trkpt><trkpt lat="39.36883840102183" lon="17.07613675087819"><ele>164.0</ele><time>2026-03-29T07:59:07.999Z</time></trkpt><trkpt lat="39.36877385143052" lon="17.076100059290486"><ele>160.0</ele><time>2026-03-29T07:59:13.999Z</time></trkpt><trkpt lat="39.36869827412425" lon="17.076079402179282"><ele>156.0</ele><time>2026-03-29T07:59:17.999Z</time></trkpt><trkpt lat="39.36863370487786" lon="17.076074024674302"><ele>152.0</ele><time>2026-03-29T07:59:21.999Z</time></trkpt><trkpt lat="39.368591418837156" lon="17.076157991004695"><ele>148.00000000000003</ele><time>2026-03-29T07:59:25.999Z</time></trkpt><trkpt lat="39.36854060779047" lon="17.076216362114305"><ele>144.0</ele><time>2026-03-29T07:59:34.999Z</time></trkpt><trkpt lat="39.36849093852651" lon="17.076281572632663"><ele>144.0</ele><time>2026-03-29T07:59:36.999Z</time></trkpt><trkpt lat="39.368454690151374" lon="17.076352309620617"><ele>144.0</ele><time>2026-03-29T07:59:38.999Z</time></trkpt><trkpt lat="39.36843658236577" lon="17.076432688638093"><ele>144.0</ele><time>2026-03-29T07:59:40.999Z</time></trkpt><trkpt lat="39.36838132393639" lon="17.076513982978227"><ele>144.0</ele><time>2026-03-29T07:59:43.999Z</time></trkpt><trkpt lat="39.368348481236794" lon="17.07659507276816"><ele>144.0</ele><time>2026-03-29T07:59:47.999Z</time></trkpt><trkpt lat="39.36829174795366" lon="17.076430328573583"><ele>144.0</ele><time>2026-03-29T07:59:54.999Z</time></trkpt><trkpt lat="39.36831530113209" lon="17.076345583953678"><ele>144.0</ele><time>2026-03-29T07:59:58.999Z</time></trkpt><trkpt lat="39.36835010703706" lon="17.07626676143277"><ele>144.0</ele><time>2026-03-29T08:00:01.999Z</time></trkpt><trkpt lat="39.36838790599981" lon="17.076175542571423"><ele>144.0</ele><time>2026-03-29T08:00:04.999Z</time></trkpt><trkpt lat="39.36843068275376" lon="17.07608639557569"><ele>144.0</ele><time>2026-03-29T08:00:07.999Z</time></trkpt><trkpt lat="39.36846951037673" lon="17.076001192582144"><ele>144.0</ele><time>2026-03-29T08:00:10.999Z</time></trkpt><trkpt lat="39.3684979077211" lon="17.075883657924383"><ele>144.0</ele><time>2026-03-29T08:00:13.999Z</time></trkpt><trkpt lat="39.368533359740724" lon="17.07578784687038"><ele>142.0</ele><time>2026-03-29T08:00:15.999Z</time></trkpt><trkpt lat="39.36856137611901" lon="17.075689409151835"><ele>140.0</ele><time>2026-03-29T08:00:17.999Z</time></trkpt><trkpt lat="39.368560458551016" lon="17.075577249284112"><ele>138.0</ele><time>2026-03-29T08:00:20.999Z</time></trkpt><trkpt lat="39.36851396943573" lon="17.075496464738272"><ele>136.0</ele><time>2026-03-29T08:00:22.999Z</time></trkpt><trkpt lat="39.36846556429869" lon="17.075405303375472"><ele>134.0</ele><time>2026-03-29T08:00:24.999Z</time></trkpt><trkpt lat="39.368405276719336" lon="17.07532574602087"><ele>132.0</ele><time>2026-03-29T08:00:26.999Z</time></trkpt><trkpt lat="39.36834529936537" lon="17.07525255375979"><ele>132.0</ele><time>2026-03-29T08:00:28.999Z</time></trkpt><trkpt lat="39.36831316854242" lon="17.07514091613491"><ele>132.0</ele><time>2026-03-29T08:00:30.999Z</time></trkpt><trkpt lat="39.36827390079436" lon="17.075019955660235"><ele>132.0</ele><time>2026-03-29T08:00:32.999Z</time></trkpt><trkpt lat="39.36822447016618" lon="17.074911820533863"><ele>132.0</ele><time>2026-03-29T08:00:34.999Z</time></trkpt><trkpt lat="39.368159749256726" lon="17.074805340450254"><ele>132.0</ele><time>2026-03-29T08:00:36.999Z</time></trkpt><trkpt lat="39.36811406746784" lon="17.074711164128423"><ele>130.85714285714286</ele><time>2026-03-29T08:00:38.999Z</time></trkpt><trkpt lat="39.36806733957369" lon="17.074607897444096"><ele>129.71428571428572</ele><time>2026-03-29T08:00:41.999Z</time></trkpt><trkpt lat="39.36801249413053" lon="17.07455675282568"><ele>128.57142857142858</ele><time>2026-03-29T08:00:43.999Z</time></trkpt><trkpt lat="39.367966678852234" lon="17.074487985165803"><ele>127.42857142857143</ele><time>2026-03-29T08:00:45.999Z</time></trkpt><trkpt lat="39.36791757052192" lon="17.07442336186992"><ele>126.2857142857143</ele><time>2026-03-29T08:00:47.999Z</time></trkpt><trkpt lat="39.36785590484763" lon="17.074382437575323"><ele>125.14285714285715</ele><time>2026-03-29T08:00:49.999Z</time></trkpt><trkpt lat="39.36778717905005" lon="17.074341835864185"><ele>124.0</ele><time>2026-03-29T08:00:51.999Z</time></trkpt><trkpt lat="39.36772392865509" lon="17.074293761367162"><ele>121.0</ele><time>2026-03-29T08:00:53.999Z</time></trkpt><trkpt lat="39.36764781817502" lon="17.074259211304646"><ele>118.0</ele><time>2026-03-29T08:00:56.999Z</time></trkpt><trkpt lat="39.367521153039775" lon="17.07427078787096"><ele>115.0</ele><time>2026-03-29T08:01:37.998Z</time></trkpt><trkpt lat="39.36743938864748" lon="17.074223303911"><ele>112.0</ele><time>2026-03-29T08:01:40.998Z</time></trkpt><trkpt lat="39.36736356578578" lon="17.074173485190627"><ele>109.0</ele><time>2026-03-29T08:01:42.998Z</time></trkpt><trkpt lat="39.36728768680322" lon="17.074092236330163"><ele>108.4</ele><time>2026-03-29T08:01:44.998Z</time></trkpt><trkpt lat="39.36720356491716" lon="17.074006546730782"><ele>107.80000000000001</ele><time>2026-03-29T08:01:46.998Z</time></trkpt><trkpt lat="39.36711976786253" lon="17.073927638418173"><ele>107.19999999999999</ele><time>2026-03-29T08:01:48.998Z</time></trkpt><trkpt lat="39.36703443593931" lon="17.073840491748996"><ele>106.6</ele><time>2026-03-29T08:01:50.998Z</time></trkpt><trkpt lat="39.366945053867376" lon="17.07375137233384"><ele>106.0</ele><time>2026-03-29T08:01:52.998Z</time></trkpt><trkpt lat="39.366852193562316" lon="17.07365273394857"><ele>104.33333333333334</ele><time>2026-03-29T08:01:54.998Z</time></trkpt><trkpt lat="39.36675699677908" lon="17.07355117561943"><ele>102.66666666666667</ele><time>2026-03-29T08:01:56.998Z</time></trkpt><trkpt lat="39.36669961158141" lon="17.07351749195727"><ele>101.0</ele><time>2026-03-29T08:01:57.998Z</time></trkpt><trkpt lat="39.36663623953371" lon="17.073515636202977"><ele>99.33333333333334</ele><time>2026-03-29T08:01:58.998Z</time></trkpt><trkpt lat="39.366570814522866" lon="17.073515684262713"><ele>97.66666666666667</ele><time>2026-03-29T08:01:59.998Z</time></trkpt><trkpt lat="39.36650033083981" lon="17.07351355230382"><ele>96.0</ele><time>2026-03-29T08:02:00.998Z</time></trkpt><trkpt lat="39.36643037864976" lon="17.073505812031303"><ele>96.0</ele><time>2026-03-29T08:02:01.998Z</time></trkpt><trkpt lat="39.36636176299615" lon="17.073500011458936"><ele>96.0</ele><time>2026-03-29T08:02:02.998Z</time></trkpt><trkpt lat="39.366293901301546" lon="17.07349836955298"><ele>96.0</ele><time>2026-03-29T08:02:03.998Z</time></trkpt><trkpt lat="39.366176233417804" lon="17.073528795331978"><ele>96.0</ele><time>2026-03-29T08:02:05.998Z</time></trkpt><trkpt lat="39.36608713966421" lon="17.073580909322086"><ele>96.0</ele><time>2026-03-29T08:02:07.998Z</time></trkpt><trkpt lat="39.366017213010586" lon="17.073634691526177"><ele>96.0</ele><time>2026-03-29T08:02:10.998Z</time></trkpt><trkpt lat="39.36594260645667" lon="17.073668998301248"><ele>94.16666666666667</ele><time>2026-03-29T08:02:14Z</time></trkpt><trkpt lat="39.36586650251221" lon="17.07361673967333"><ele>92.33333333333333</ele><time>2026-03-29T08:02:16Z</time></trkpt><trkpt lat="39.365776323518034" lon="17.07356842643817"><ele>90.5</ele><time>2026-03-29T08:02:18Z</time></trkpt><trkpt lat="39.36566226033195" lon="17.07352465051144"><ele>88.66666666666666</ele><time>2026-03-29T08:02:20Z</time></trkpt><trkpt lat="39.36560595552818" lon="17.073485361412455"><ele>86.83333333333333</ele><time>2026-03-29T08:02:21Z</time></trkpt><trkpt lat="39.36554540014161" lon="17.07345227844467"><ele>85.0</ele><time>2026-03-29T08:02:22Z</time></trkpt><trkpt lat="39.365477961889994" lon="17.073452104704057"><ele>83.5</ele><time>2026-03-29T08:02:23Z</time></trkpt><trkpt lat="39.365409145813175" lon="17.073464966617593"><ele>82.0</ele><time>2026-03-29T08:02:24Z</time></trkpt><trkpt lat="39.36533250857797" lon="17.073477567827833"><ele>80.5</ele><time>2026-03-29T08:02:25Z</time></trkpt><trkpt lat="39.3652499464758" lon="17.07345919975645"><ele>79.0</ele><time>2026-03-29T08:02:26Z</time></trkpt><trkpt lat="39.36516926832775" lon="17.073437807488883"><ele>77.5</ele><time>2026-03-29T08:02:27Z</time></trkpt><trkpt lat="39.365097192836224" lon="17.07339545967696"><ele>76.0</ele><time>2026-03-29T08:02:28Z</time></trkpt><trkpt lat="39.36502299348289" lon="17.073351169740143"><ele>76.0</ele><time>2026-03-29T08:02:29Z</time></trkpt><trkpt lat="39.36494743474809" lon="17.073319271899322"><ele>76.0</ele><time>2026-03-29T08:02:30Z</time></trkpt><trkpt lat="39.36488100683759" lon="17.073283674376587"><ele>76.0</ele><time>2026-03-29T08:02:31Z</time></trkpt><trkpt lat="39.36482062793389" lon="17.073255915802314"><ele>76.0</ele><time>2026-03-29T08:02:32Z</time></trkpt><trkpt lat="39.36471508203422" lon="17.073213758071216"><ele>76.0</ele><time>2026-03-29T08:02:34Z</time></trkpt><trkpt lat="39.36464160743343" lon="17.07320141781328"><ele>76.0</ele><time>2026-03-29T08:02:36Z</time></trkpt><trkpt lat="39.36456543700144" lon="17.073215836498406"><ele>75.2</ele><time>2026-03-29T08:02:41Z</time></trkpt><trkpt lat="39.364481217096134" lon="17.07323041096649"><ele>74.39999999999999</ele><time>2026-03-29T08:02:44Z</time></trkpt><trkpt lat="39.3643995725618" lon="17.073247635510995"><ele>73.6</ele><time>2026-03-29T08:02:47Z</time></trkpt><trkpt lat="39.36429721260055" lon="17.073240383601288"><ele>72.8</ele><time>2026-03-29T08:02:50Z</time></trkpt><trkpt lat="39.364196719895965" lon="17.073225608082883"><ele>72.0</ele><time>2026-03-29T08:02:52Z</time></trkpt><trkpt lat="39.36409511170077" lon="17.073213816226634"><ele>72.0</ele><time>2026-03-29T08:02:54Z</time></trkpt><trkpt lat="39.363985792495505" lon="17.073178953230027"><ele>72.0</ele><time>2026-03-29T08:02:56Z</time></trkpt><trkpt lat="39.36386683005214" lon="17.073137876695387"><ele>72.0</ele><time>2026-03-29T08:02:58Z</time></trkpt><trkpt lat="39.3637566936336" lon="17.073085953568118"><ele>72.0</ele><time>2026-03-29T08:03:00Z</time></trkpt><trkpt lat="39.3636472447394" lon="17.073035594988713"><ele>71.0</ele><time>2026-03-29T08:03:02Z</time></trkpt><trkpt lat="39.363540514391666" lon="17.07302877376948"><ele>70.0</ele><time>2026-03-29T08:03:04Z</time></trkpt><trkpt lat="39.36344215021425" lon="17.07305099083376"><ele>69.0</ele><time>2026-03-29T08:03:06Z</time></trkpt><trkpt lat="39.36335110392862" lon="17.07300030545984"><ele>68.0</ele><time>2026-03-29T08:03:08Z</time></trkpt><trkpt lat="39.36330019428235" lon="17.072921043096823"><ele>67.0</ele><time>2026-03-29T08:03:10Z</time></trkpt><trkpt lat="39.36330069426405" lon="17.072826305535706"><ele>67.0</ele><time>2026-03-29T08:03:12Z</time></trkpt><trkpt lat="39.36333841325518" lon="17.072691811604845"><ele>67.0</ele><time>2026-03-29T08:03:14Z</time></trkpt><trkpt lat="39.36336015807601" lon="17.07261396956235"><ele>67.0</ele><time>2026-03-29T08:03:15Z</time></trkpt><trkpt lat="39.363419311090745" lon="17.072470388907"><ele>67.0</ele><time>2026-03-29T08:03:17Z</time></trkpt><trkpt lat="39.36345436421078" lon="17.072388457152776"><ele>67.0</ele><time>2026-03-29T08:03:18Z</time></trkpt><trkpt lat="39.36349294445468" lon="17.072306522129065"><ele>67.0</ele><time>2026-03-29T08:03:19Z</time></trkpt><trkpt lat="39.36353326005747" lon="17.072223909983077"><ele>67.33333333333333</ele><time>2026-03-29T08:03:20Z</time></trkpt><trkpt lat="39.363573784696854" lon="17.07213796193792"><ele>67.66666666666666</ele><time>2026-03-29T08:03:21Z</time></trkpt><trkpt lat="39.36361257555748" lon="17.07204537936963"><ele>68.0</ele><time>2026-03-29T08:03:22Z</time></trkpt><trkpt lat="39.363639835325515" lon="17.071945349234493"><ele>68.33333333333333</ele><time>2026-03-29T08:03:23Z</time></trkpt><trkpt lat="39.363670272047216" lon="17.07184717132713"><ele>68.66666666666667</ele><time>2026-03-29T08:03:24Z</time></trkpt><trkpt lat="39.36371345060373" lon="17.071759476320587"><ele>69.0</ele><time>2026-03-29T08:03:25Z</time></trkpt><trkpt lat="39.36375415620331" lon="17.071676754584455"><ele>69.60000000000001</ele><time>2026-03-29T08:03:26Z</time></trkpt><trkpt lat="39.36378722834109" lon="17.071539909868058"><ele>70.2</ele><time>2026-03-29T08:03:28Z</time></trkpt><trkpt lat="39.36373947705613" lon="17.07142356384491"><ele>70.80000000000001</ele><time>2026-03-29T08:03:30Z</time></trkpt><trkpt lat="39.36363213789751" lon="17.071359274072986"><ele>71.4</ele><time>2026-03-29T08:03:32Z</time></trkpt><trkpt lat="39.36355604172481" lon="17.071333400372637"><ele>72.0</ele><time>2026-03-29T08:03:33Z</time></trkpt><trkpt lat="39.36346808713793" lon="17.071313148548054"><ele>72.0</ele><time>2026-03-29T08:03:34Z</time></trkpt><trkpt lat="39.363381570264686" lon="17.071286453725207"><ele>72.0</ele><time>2026-03-29T08:03:35Z</time></trkpt><trkpt lat="39.36330535476813" lon="17.071232814954847"><ele>72.0</ele><time>2026-03-29T08:03:36Z</time></trkpt><trkpt lat="39.363232075911554" lon="17.071183734480794"><ele>72.0</ele><time>2026-03-29T08:03:37Z</time></trkpt><trkpt lat="39.36316464045881" lon="17.071128907353422"><ele>72.0</ele><time>2026-03-29T08:03:38Z</time></trkpt><trkpt lat="39.36309900857481" lon="17.071074974724787"><ele>72.0</ele><time>2026-03-29T08:03:39Z</time></trkpt><trkpt lat="39.36305047967183" lon="17.07099858879881"><ele>70.71428571428572</ele><time>2026-03-29T08:03:40Z</time></trkpt><trkpt lat="39.36300613457679" lon="17.070926742014812"><ele>69.42857142857143</ele><time>2026-03-29T08:03:41Z</time></trkpt><trkpt lat="39.36297359078578" lon="17.070835462233074"><ele>68.14285714285714</ele><time>2026-03-29T08:03:42Z</time></trkpt><trkpt lat="39.36292434095375" lon="17.070749302489347"><ele>66.85714285714286</ele><time>2026-03-29T08:03:43Z</time></trkpt><trkpt lat="39.36286491547356" lon="17.07068707970797"><ele>65.57142857142857</ele><time>2026-03-29T08:03:44Z</time></trkpt><trkpt lat="39.362809750897796" lon="17.07063656472769"><ele>64.28571428571429</ele><time>2026-03-29T08:03:45Z</time></trkpt><trkpt lat="39.362739287657064" lon="17.070615531959998"><ele>63.0</ele><time>2026-03-29T08:03:46Z</time></trkpt><trkpt lat="39.36265971836617" lon="17.07060541742351"><ele>63.0</ele><time>2026-03-29T08:03:47Z</time></trkpt><trkpt lat="39.362571337385404" lon="17.070595405856476"><ele>63.0</ele><time>2026-03-29T08:03:48Z</time></trkpt><trkpt lat="39.36247141734077" lon="17.070605792605036"><ele>63.0</ele><time>2026-03-29T08:03:49Z</time></trkpt><trkpt lat="39.362377417373324" lon="17.07060012311482"><ele>63.0</ele><time>2026-03-29T08:03:50Z</time></trkpt><trkpt lat="39.36228348910011" lon="17.070610272620904"><ele>63.0</ele><time>2026-03-29T08:03:51Z</time></trkpt><trkpt lat="39.36219028317537" lon="17.070595140615204"><ele>62.666666666666664</ele><time>2026-03-29T08:03:52Z</time></trkpt><trkpt lat="39.362093431012376" lon="17.070580231502763"><ele>62.33333333333333</ele><time>2026-03-29T08:03:53Z</time></trkpt><trkpt lat="39.36200309884883" lon="17.07058522252542"><ele>62.0</ele><time>2026-03-29T08:03:54Z</time></trkpt><trkpt lat="39.36191729666586" lon="17.07059141257423"><ele>61.666666666666664</ele><time>2026-03-29T08:03:55Z</time></trkpt><trkpt lat="39.361831394918866" lon="17.07059760980448"><ele>61.33333333333333</ele><time>2026-03-29T08:03:56Z</time></trkpt><trkpt lat="39.361746669946875" lon="17.07060482757068"><ele>61.0</ele><time>2026-03-29T08:03:57Z</time></trkpt><trkpt lat="39.361664943351734" lon="17.070613302481593"><ele>60.99999999999999</ele><time>2026-03-29T08:03:58Z</time></trkpt><trkpt lat="39.361588409181955" lon="17.07062645493108"><ele>61.0</ele><time>2026-03-29T08:03:59Z</time></trkpt><trkpt lat="39.36151216765836" lon="17.07065523225452"><ele>61.0</ele><time>2026-03-29T08:04:00Z</time></trkpt><trkpt lat="39.36143088539487" lon="17.07065823640284"><ele>61.0</ele><time>2026-03-29T08:04:01Z</time></trkpt><trkpt lat="39.36134762280261" lon="17.070669547605572"><ele>60.99999999999999</ele><time>2026-03-29T08:04:02Z</time></trkpt><trkpt lat="39.36126386207627" lon="17.070682483060573"><ele>61.0</ele><time>2026-03-29T08:04:03Z</time></trkpt><trkpt lat="39.361181026208634" lon="17.070695607653793"><ele>60.49999999999999</ele><time>2026-03-29T08:04:04Z</time></trkpt><trkpt lat="39.36109736459399" lon="17.070703959417468"><ele>60.0</ele><time>2026-03-29T08:04:05Z</time></trkpt><trkpt lat="39.36101564238249" lon="17.07071215130436"><ele>59.5</ele><time>2026-03-29T08:04:06Z</time></trkpt><trkpt lat="39.36093552435906" lon="17.070715957625556"><ele>59.0</ele><time>2026-03-29T08:04:07Z</time></trkpt><trkpt lat="39.360854878260696" lon="17.07072851424773"><ele>58.49999999999999</ele><time>2026-03-29T08:04:08Z</time></trkpt><trkpt lat="39.36076966881577" lon="17.07072110217552"><ele>58.0</ele><time>2026-03-29T08:04:09Z</time></trkpt><trkpt lat="39.360682759223465" lon="17.070731376008187"><ele>57.99999999999999</ele><time>2026-03-29T08:04:10Z</time></trkpt><trkpt lat="39.36059421257772" lon="17.07075367982279"><ele>58.0</ele><time>2026-03-29T08:04:11Z</time></trkpt><trkpt lat="39.36050366970081" lon="17.070751160999652"><ele>58.0</ele><time>2026-03-29T08:04:12Z</time></trkpt><trkpt lat="39.36041674813841" lon="17.070758431616202"><ele>58.0</ele><time>2026-03-29T08:04:13Z</time></trkpt><trkpt lat="39.360332887770284" lon="17.070764648790398"><ele>57.99999999999999</ele><time>2026-03-29T08:04:14Z</time></trkpt><trkpt lat="39.360244903331186" lon="17.07075706325833"><ele>58.0</ele><time>2026-03-29T08:04:15Z</time></trkpt><trkpt lat="39.36014948217405" lon="17.070732244744278"><ele>58.0</ele><time>2026-03-29T08:04:15.999Z</time></trkpt><trkpt lat="39.36004629150438" lon="17.070704361067428"><ele>58.0</ele><time>2026-03-29T08:04:16.999Z</time></trkpt><trkpt lat="39.359946309652" lon="17.0706527665007"><ele>58.0</ele><time>2026-03-29T08:04:17.999Z</time></trkpt><trkpt lat="39.35985300523846" lon="17.070590571282164"><ele>58.0</ele><time>2026-03-29T08:04:18.999Z</time></trkpt><trkpt lat="39.35976723423727" lon="17.07052123956749"><ele>58.0</ele><time>2026-03-29T08:04:19.999Z</time></trkpt><trkpt lat="39.359681293990405" lon="17.07045510751465"><ele>58.0</ele><time>2026-03-29T08:04:20.999Z</time></trkpt><trkpt lat="39.359592770147" lon="17.07039534397095"><ele>58.0</ele><time>2026-03-29T08:04:21.999Z</time></trkpt><trkpt lat="39.359502372188736" lon="17.070340928597574"><ele>58.0</ele><time>2026-03-29T08:04:22.999Z</time></trkpt><trkpt lat="39.35941082211432" lon="17.0702876110624"><ele>58.0</ele><time>2026-03-29T08:04:23.999Z</time></trkpt><trkpt lat="39.35931500830886" lon="17.07024194976235"><ele>58.0</ele><time>2026-03-29T08:04:24.999Z</time></trkpt><trkpt lat="39.35921094220165" lon="17.0702230327197"><ele>58.0</ele><time>2026-03-29T08:04:25.999Z</time></trkpt><trkpt lat="39.35911635502457" lon="17.070176295092544"><ele>58.0</ele><time>2026-03-29T08:04:26.999Z</time></trkpt><trkpt lat="39.35902262808089" lon="17.07013257346372"><ele>58.0</ele><time>2026-03-29T08:04:27.999Z</time></trkpt><trkpt lat="39.358928034240144" lon="17.070091454185338"><ele>58.0</ele><time>2026-03-29T08:04:28.999Z</time></trkpt><trkpt lat="39.35883140694646" lon="17.07004944965627"><ele>58.0</ele><time>2026-03-29T08:04:29.999Z</time></trkpt><trkpt lat="39.35873422282894" lon="17.070007203033065"><ele>58.8</ele><time>2026-03-29T08:04:30.999Z</time></trkpt><trkpt lat="39.358637784800194" lon="17.0699644592389"><ele>59.599999999999994</ele><time>2026-03-29T08:04:31.999Z</time></trkpt><trkpt lat="39.358543798444686" lon="17.069920028015897"><ele>60.400000000000006</ele><time>2026-03-29T08:04:32.999Z</time></trkpt><trkpt lat="39.35845035867185" lon="17.069873917035036"><ele>61.2</ele><time>2026-03-29T08:04:33.999Z</time></trkpt><trkpt lat="39.358362964695274" lon="17.06981043664864"><ele>62.0</ele><time>2026-03-29T08:04:34.999Z</time></trkpt><trkpt lat="39.35826762099946" lon="17.069761870230426"><ele>62.0</ele><time>2026-03-29T08:04:35.999Z</time></trkpt><trkpt lat="39.358175567714945" lon="17.06970302571923"><ele>62.0</ele><time>2026-03-29T08:04:36.999Z</time></trkpt><trkpt lat="39.35808245609229" lon="17.06964794666614"><ele>62.0</ele><time>2026-03-29T08:04:37.999Z</time></trkpt><trkpt lat="39.35799190759863" lon="17.069594276002725"><ele>62.0</ele><time>2026-03-29T08:04:38.999Z</time></trkpt><trkpt lat="39.35790270418543" lon="17.069540728511505"><ele>62.0</ele><time>2026-03-29T08:04:39.999Z</time></trkpt><trkpt lat="39.357811497104606" lon="17.069484844540984"><ele>60.0</ele><time>2026-03-29T08:04:40.999Z</time></trkpt><trkpt lat="39.35771715961031" lon="17.069430454564483"><ele>58.0</ele><time>2026-03-29T08:04:41.999Z</time></trkpt><trkpt lat="39.35762573954785" lon="17.069364201945223"><ele>56.0</ele><time>2026-03-29T08:04:42.999Z</time></trkpt><trkpt lat="39.357538842314376" lon="17.069293671838754"><ele>54.0</ele><time>2026-03-29T08:04:43.999Z</time></trkpt><trkpt lat="39.35746208084659" lon="17.06921752354126"><ele>52.0</ele><time>2026-03-29T08:04:44.999Z</time></trkpt><trkpt lat="39.35738367558571" lon="17.069151267372302"><ele>52.0</ele><time>2026-03-29T08:04:45.999Z</time></trkpt><trkpt lat="39.35730670442053" lon="17.069075272683115"><ele>52.0</ele><time>2026-03-29T08:04:46.999Z</time></trkpt><trkpt lat="39.35722868332254" lon="17.068995554936063"><ele>52.0</ele><time>2026-03-29T08:04:47.999Z</time></trkpt><trkpt lat="39.35714406481858" lon="17.068919105201083"><ele>52.0</ele><time>2026-03-29T08:04:48.999Z</time></trkpt><trkpt lat="39.357053827321124" lon="17.06884637910122"><ele>52.0</ele><time>2026-03-29T08:04:49.999Z</time></trkpt><trkpt lat="39.356961054809815" lon="17.06877951251556"><ele>51.6</ele><time>2026-03-29T08:04:50.999Z</time></trkpt><trkpt lat="39.356867864848056" lon="17.068713342168476"><ele>51.2</ele><time>2026-03-29T08:04:51.999Z</time></trkpt><trkpt lat="39.356775032682506" lon="17.06864790720401"><ele>50.8</ele><time>2026-03-29T08:04:52.999Z</time></trkpt><trkpt lat="39.35668386671928" lon="17.06858362811649"><ele>50.4</ele><time>2026-03-29T08:04:53.999Z</time></trkpt><trkpt lat="39.35658497376846" lon="17.0685443704199"><ele>50.0</ele><time>2026-03-29T08:04:54.999Z</time></trkpt><trkpt lat="39.356494232302424" lon="17.06848700123111"><ele>50.0</ele><time>2026-03-29T08:04:55.999Z</time></trkpt><trkpt lat="39.356413850374096" lon="17.068410018055403"><ele>50.0</ele><time>2026-03-29T08:04:56.999Z</time></trkpt><trkpt lat="39.35632579822669" lon="17.068357064135544"><ele>50.0</ele><time>2026-03-29T08:04:57.999Z</time></trkpt><trkpt lat="39.35622795575432" lon="17.06832747061055"><ele>50.0</ele><time>2026-03-29T08:04:58.999Z</time></trkpt><trkpt lat="39.356132177483204" lon="17.068290612739375"><ele>50.0</ele><time>2026-03-29T08:04:59.999Z</time></trkpt><trkpt lat="39.35603281820169" lon="17.06826979180543"><ele>50.0</ele><time>2026-03-29T08:05:00.999Z</time></trkpt><trkpt lat="39.35593899017999" lon="17.068260212170724"><ele>50.0</ele><time>2026-03-29T08:05:01.999Z</time></trkpt><trkpt lat="39.35584450138493" lon="17.068254377645257"><ele>50.0</ele><time>2026-03-29T08:05:02.999Z</time></trkpt><trkpt lat="39.35575018388135" lon="17.068251067907223"><ele>50.0</ele><time>2026-03-29T08:05:03.999Z</time></trkpt><trkpt lat="39.3556549947806" lon="17.068248548132644"><ele>50.0</ele><time>2026-03-29T08:05:04.999Z</time></trkpt><trkpt lat="39.35556073984475" lon="17.06824605309283"><ele>49.0</ele><time>2026-03-29T08:05:05.999Z</time></trkpt><trkpt lat="39.35546671077693" lon="17.06824356402822"><ele>48.0</ele><time>2026-03-29T08:05:06.999Z</time></trkpt><trkpt lat="39.355371239071914" lon="17.068239986176565"><ele>47.0</ele><time>2026-03-29T08:05:07.999Z</time></trkpt><trkpt lat="39.35527098317238" lon="17.06823605715049"><ele>46.0</ele><time>2026-03-29T08:05:08.999Z</time></trkpt><trkpt lat="39.35516792077996" lon="17.06823201814726"><ele>45.0</ele><time>2026-03-29T08:05:09.999Z</time></trkpt><trkpt lat="39.35507113387136" lon="17.068228225075956"><ele>45.0</ele><time>2026-03-29T08:05:10.999Z</time></trkpt><trkpt lat="39.35498641334362" lon="17.06822490489373"><ele>45.0</ele><time>2026-03-29T08:05:11.999Z</time></trkpt><trkpt lat="39.354915247861285" lon="17.06822211592068"><ele>45.0</ele><time>2026-03-29T08:05:12.999Z</time></trkpt><trkpt lat="39.354805753320804" lon="17.068217824839387"><ele>45.0</ele><time>2026-03-29T08:05:14.999Z</time></trkpt><trkpt lat="39.35473761668065" lon="17.0682151545692"><ele>45.0</ele><time>2026-03-29T08:05:16.999Z</time></trkpt><trkpt lat="39.35482349353832" lon="17.068142686654713"><ele>45.0</ele><time>2026-03-29T08:05:20.999Z</time></trkpt><trkpt lat="39.35492705467621" lon="17.068069779283466"><ele>45.0</ele><time>2026-03-29T08:05:22.999Z</time></trkpt><trkpt lat="39.35498397416538" lon="17.068028797384695"><ele>45.0</ele><time>2026-03-29T08:05:23.999Z</time></trkpt><trkpt lat="39.35504130857342" lon="17.067986116357602"><ele>45.0</ele><time>2026-03-29T08:05:24.999Z</time></trkpt><trkpt lat="39.3551059411642" lon="17.06793800238502"><ele>45.0</ele><time>2026-03-29T08:05:25.999Z</time></trkpt><trkpt lat="39.35517389987397" lon="17.06788756547363"><ele>45.0</ele><time>2026-03-29T08:05:26.999Z</time></trkpt><trkpt lat="39.355245337118475" lon="17.067836285814685"><ele>45.0</ele><time>2026-03-29T08:05:27.999Z</time></trkpt><trkpt lat="39.35531607384111" lon="17.067785509308614"><ele>45.0</ele><time>2026-03-29T08:05:28.999Z</time></trkpt><trkpt lat="39.35538270047003" lon="17.06773768265023"><ele>45.0</ele><time>2026-03-29T08:05:29.999Z</time></trkpt><trkpt lat="39.355448391882376" lon="17.06768814927854"><ele>45.0</ele><time>2026-03-29T08:05:30.999Z</time></trkpt><trkpt lat="39.35552220876747" lon="17.067627981056166"><ele>45.0</ele><time>2026-03-29T08:05:31.999Z</time></trkpt><trkpt lat="39.355608432480935" lon="17.067551338780397"><ele>45.0</ele><time>2026-03-29T08:05:32.999Z</time></trkpt><trkpt lat="39.355691580197075" lon="17.067466362921543"><ele>45.0</ele><time>2026-03-29T08:05:33.999Z</time></trkpt><trkpt lat="39.35576268525249" lon="17.067388673054428"><ele>45.833333333333336</ele><time>2026-03-29T08:05:34.999Z</time></trkpt><trkpt lat="39.355820754371784" lon="17.067325204570192"><ele>46.66666666666667</ele><time>2026-03-29T08:05:35.999Z</time></trkpt><trkpt lat="39.35589589079387" lon="17.067246403630932"><ele>47.5</ele><time>2026-03-29T08:05:37.999Z</time></trkpt><trkpt lat="39.35595611394046" lon="17.06720380398504"><ele>48.333333333333336</ele><time>2026-03-29T08:05:39.999Z</time></trkpt><trkpt lat="39.356038739316006" lon="17.0671570715862"><ele>49.16666666666667</ele><time>2026-03-29T08:05:42.999Z</time></trkpt><trkpt lat="39.356100290874245" lon="17.06712246103205"><ele>50.0</ele><time>2026-03-29T08:05:44.999Z</time></trkpt><trkpt lat="39.35616748154637" lon="17.067088831197477"><ele>50.0</ele><time>2026-03-29T08:05:46.999Z</time></trkpt><trkpt lat="39.356244557342364" lon="17.067062621784423"><ele>50.0</ele><time>2026-03-29T08:05:48.999Z</time></trkpt><trkpt lat="39.35634590806005" lon="17.067029751876504"><ele>50.0</ele><time>2026-03-29T08:05:50.999Z</time></trkpt><trkpt lat="39.356458718923" lon="17.06697610495101"><ele>50.0</ele><time>2026-03-29T08:05:52.999Z</time></trkpt><trkpt lat="39.356558128103785" lon="17.0669235974445"><ele>50.0</ele><time>2026-03-29T08:05:54.999Z</time></trkpt><trkpt lat="39.35664254766087" lon="17.066879007404932"><ele>51.6</ele><time>2026-03-29T08:05:56.999Z</time></trkpt><trkpt lat="39.356710907230166" lon="17.066821728113823"><ele>53.2</ele><time>2026-03-29T08:05:58.999Z</time></trkpt><trkpt lat="39.35679314977259" lon="17.066784576053443"><ele>54.8</ele><time>2026-03-29T08:06:00.999Z</time></trkpt><trkpt lat="39.3568939962298" lon="17.06673576649244"><ele>56.4</ele><time>2026-03-29T08:06:02.999Z</time></trkpt><trkpt lat="39.35702077443284" lon="17.066665068762664"><ele>58.0</ele><time>2026-03-29T08:06:04.999Z</time></trkpt><trkpt lat="39.357105358293055" lon="17.066623170725777"><ele>57.666666666666664</ele><time>2026-03-29T08:06:05.998Z</time></trkpt><trkpt lat="39.357195439210905" lon="17.066579600259743"><ele>57.33333333333333</ele><time>2026-03-29T08:06:06.998Z</time></trkpt><trkpt lat="39.35728599302554" lon="17.06653443717052"><ele>57.0</ele><time>2026-03-29T08:06:07.998Z</time></trkpt><trkpt lat="39.357366447235826" lon="17.066502420916766"><ele>56.66666666666667</ele><time>2026-03-29T08:06:08.998Z</time></trkpt><trkpt lat="39.35742932920833" lon="17.06646740311996"><ele>56.333333333333336</ele><time>2026-03-29T08:06:09.998Z</time></trkpt><trkpt lat="39.35749194544711" lon="17.0664367794451"><ele>56.0</ele><time>2026-03-29T08:06:10.998Z</time></trkpt><trkpt lat="39.35756147972857" lon="17.066424155351196"><ele>56.00000000000001</ele><time>2026-03-29T08:06:11.998Z</time></trkpt><trkpt lat="39.3576315094601" lon="17.06638900233167"><ele>56.0</ele><time>2026-03-29T08:06:12.998Z</time></trkpt><trkpt lat="39.35770765100673" lon="17.066352372041"><ele>56.0</ele><time>2026-03-29T08:06:13.998Z</time></trkpt><trkpt lat="39.35778389435904" lon="17.066319278444816"><ele>56.0</ele><time>2026-03-29T08:06:14.998Z</time></trkpt><trkpt lat="39.3578495447614" lon="17.06627327502682"><ele>56.00000000000001</ele><time>2026-03-29T08:06:15.998Z</time></trkpt><trkpt lat="39.35791550480562" lon="17.066272764246524"><ele>56.0</ele><time>2026-03-29T08:06:16.998Z</time></trkpt><trkpt lat="39.35802892312771" lon="17.066314757465502"><ele>57.0</ele><time>2026-03-29T08:06:18.998Z</time></trkpt><trkpt lat="39.35812982553436" lon="17.066348661248345"><ele>57.99999999999999</ele><time>2026-03-29T08:06:20.998Z</time></trkpt><trkpt lat="39.35821765713355" lon="17.06639213509492"><ele>58.99999999999999</ele><time>2026-03-29T08:06:22.998Z</time></trkpt><trkpt lat="39.35830082413209" lon="17.066390181213634"><ele>60.0</ele><time>2026-03-29T08:06:24.998Z</time></trkpt><trkpt lat="39.35837934148468" lon="17.066400336056567"><ele>61.0</ele><time>2026-03-29T08:06:26.998Z</time></trkpt><trkpt lat="39.35847500525682" lon="17.06641270849141"><ele>61.0</ele><time>2026-03-29T08:06:28.998Z</time></trkpt><trkpt lat="39.35853365834359" lon="17.066380260948996"><ele>61.0</ele><time>2026-03-29T08:06:30.998Z</time></trkpt><trkpt lat="39.35858087333936" lon="17.066722108481905"><ele>61.0</ele><time>2026-03-29T08:06:31.998Z</time></trkpt><trkpt lat="39.35865909335991" lon="17.06678767253332"><ele>61.0</ele><time>2026-03-29T08:06:33.998Z</time></trkpt><trkpt lat="39.35875025062939" lon="17.066799755782448"><ele>61.199999999999996</ele><time>2026-03-29T08:06:35.998Z</time></trkpt><trkpt lat="39.358848686513845" lon="17.066785151917042"><ele>61.39999999999999</ele><time>2026-03-29T08:06:37.998Z</time></trkpt><trkpt lat="39.358945278831655" lon="17.066783801135312"><ele>61.6</ele><time>2026-03-29T08:06:39.998Z</time></trkpt><trkpt lat="39.359038280670575" lon="17.066803937491148"><ele>61.8</ele><time>2026-03-29T08:06:41.998Z</time></trkpt><trkpt lat="39.35911647043071" lon="17.066845927536285"><ele>62.0</ele><time>2026-03-29T08:06:43.998Z</time></trkpt><trkpt lat="39.35917926306789" lon="17.066900900075897"><ele>63.50000000000001</ele><time>2026-03-29T08:06:45.998Z</time></trkpt><trkpt lat="39.35923842282648" lon="17.06697678949169"><ele>65.0</ele><time>2026-03-29T08:06:47.998Z</time></trkpt><trkpt lat="39.35927658687601" lon="17.067050987698927"><ele>66.5</ele><time>2026-03-29T08:06:49.998Z</time></trkpt><trkpt lat="39.35934111064501" lon="17.067146273363402"><ele>68.0</ele><time>2026-03-29T08:06:52.998Z</time></trkpt><trkpt lat="39.359404962602575" lon="17.067235879982718"><ele>69.5</ele><time>2026-03-29T08:06:54.998Z</time></trkpt><trkpt lat="39.359449665931365" lon="17.067353487397035"><ele>71.0</ele><time>2026-03-29T08:06:56.998Z</time></trkpt><trkpt lat="39.35952601771362" lon="17.067435752383236"><ele>70.8</ele><time>2026-03-29T08:06:58.998Z</time></trkpt><trkpt lat="39.3596130218231" lon="17.06749671202195"><ele>70.6</ele><time>2026-03-29T08:07:00.998Z</time></trkpt><trkpt lat="39.359693502741735" lon="17.067571022522635"><ele>70.4</ele><time>2026-03-29T08:07:02.998Z</time></trkpt><trkpt lat="39.359775331954694" lon="17.06762963203235"><ele>70.2</ele><time>2026-03-29T08:07:04.998Z</time></trkpt><trkpt lat="39.35987540090502" lon="17.067638822594475"><ele>70.0</ele><time>2026-03-29T08:07:06.998Z</time></trkpt><trkpt lat="39.359961029283966" lon="17.06766567422091"><ele>72.0</ele><time>2026-03-29T08:07:08.998Z</time></trkpt><trkpt lat="39.36003895459856" lon="17.067686259484674"><ele>74.0</ele><time>2026-03-29T08:07:10.998Z</time></trkpt><trkpt lat="39.36010111075341" lon="17.067731240206893"><ele>76.0</ele><time>2026-03-29T08:07:12.998Z</time></trkpt><trkpt lat="39.36017055308717" lon="17.06776161865667"><ele>78.0</ele><time>2026-03-29T08:07:14.998Z</time></trkpt><trkpt lat="39.360256936965854" lon="17.067756400506195"><ele>80.0</ele><time>2026-03-29T08:07:16.998Z</time></trkpt><trkpt lat="39.360361424494556" lon="17.06771815110108"><ele>82.0</ele><time>2026-03-29T08:07:18.998Z</time></trkpt><trkpt lat="39.3604534687672" lon="17.067645106304063"><ele>82.8</ele><time>2026-03-29T08:07:20.998Z</time></trkpt><trkpt lat="39.360542447358384" lon="17.067582198767656"><ele>83.6</ele><time>2026-03-29T08:07:22.998Z</time></trkpt><trkpt lat="39.36063371734595" lon="17.067517206476325"><ele>84.39999999999999</ele><time>2026-03-29T08:07:24.998Z</time></trkpt><trkpt lat="39.36072868625027" lon="17.067433545261213"><ele>85.19999999999999</ele><time>2026-03-29T08:07:26.998Z</time></trkpt><trkpt lat="39.36082062182484" lon="17.067344274913115"><ele>86.0</ele><time>2026-03-29T08:07:28.998Z</time></trkpt><trkpt lat="39.36091335807636" lon="17.06725578962598"><ele>86.42857142857143</ele><time>2026-03-29T08:07:30.998Z</time></trkpt><trkpt lat="39.36097892017435" lon="17.067257686563245"><ele>86.85714285714286</ele><time>2026-03-29T08:07:31.998Z</time></trkpt><trkpt lat="39.36105003537191" lon="17.067270243407936"><ele>87.28571428571428</ele><time>2026-03-29T08:07:32.998Z</time></trkpt><trkpt lat="39.36112474683827" lon="17.06726997383487"><ele>87.71428571428572</ele><time>2026-03-29T08:07:33.998Z</time></trkpt><trkpt lat="39.3612012418657" lon="17.06727297237874"><ele>88.14285714285714</ele><time>2026-03-29T08:07:34.998Z</time></trkpt><trkpt lat="39.36127124196318" lon="17.067268611695003"><ele>88.57142857142857</ele><time>2026-03-29T08:07:35.998Z</time></trkpt><trkpt lat="39.36133616820614" lon="17.067262728270848"><ele>89.0</ele><time>2026-03-29T08:07:36.998Z</time></trkpt><trkpt lat="39.36139988985697" lon="17.067255725620683"><ele>89.85714285714285</ele><time>2026-03-29T08:07:37.998Z</time></trkpt><trkpt lat="39.361464487738786" lon="17.067250480863212"><ele>90.71428571428571</ele><time>2026-03-29T08:07:38.998Z</time></trkpt><trkpt lat="39.361530148226336" lon="17.067245396565063"><ele>91.57142857142857</ele><time>2026-03-29T08:07:39.998Z</time></trkpt><trkpt lat="39.36159884324197" lon="17.067234255999473"><ele>92.42857142857142</ele><time>2026-03-29T08:07:40.998Z</time></trkpt><trkpt lat="39.3616658527248" lon="17.067209315869285"><ele>93.28571428571429</ele><time>2026-03-29T08:07:41.998Z</time></trkpt><trkpt lat="39.36172919409749" lon="17.067167741365065"><ele>94.14285714285714</ele><time>2026-03-29T08:07:42.998Z</time></trkpt><trkpt lat="39.36178547758394" lon="17.067116462474313"><ele>95.0</ele><time>2026-03-29T08:07:43.998Z</time></trkpt><trkpt lat="39.36183510314145" lon="17.067061575816325"><ele>95.0</ele><time>2026-03-29T08:07:44.998Z</time></trkpt><trkpt lat="39.36192553686586" lon="17.066952807118813"><ele>95.0</ele><time>2026-03-29T08:07:46.998Z</time></trkpt><trkpt lat="39.36198438147706" lon="17.06691082405907"><ele>95.0</ele><time>2026-03-29T08:07:47.998Z</time></trkpt><trkpt lat="39.36205348688582" lon="17.066880482099915"><ele>95.0</ele><time>2026-03-29T08:07:48.998Z</time></trkpt><trkpt lat="39.362123058193674" lon="17.06684779431905"><ele>95.0</ele><time>2026-03-29T08:07:49.998Z</time></trkpt><trkpt lat="39.36219032822495" lon="17.066806114712556"><ele>95.0</ele><time>2026-03-29T08:07:50.998Z</time></trkpt><trkpt lat="39.36225748809409" lon="17.066756748119605"><ele>95.0</ele><time>2026-03-29T08:07:51.998Z</time></trkpt><trkpt lat="39.362324639343385" lon="17.0666982715176"><ele>95.0</ele><time>2026-03-29T08:07:52.998Z</time></trkpt><trkpt lat="39.36239038483027" lon="17.066638158527983"><ele>95.0</ele><time>2026-03-29T08:07:53.998Z</time></trkpt><trkpt lat="39.36244942546593" lon="17.066581048683393"><ele>95.0</ele><time>2026-03-29T08:07:54.998Z</time></trkpt><trkpt lat="39.3625051316936" lon="17.066540834531313"><ele>95.0</ele><time>2026-03-29T08:07:55.998Z</time></trkpt><trkpt lat="39.36261577905028" lon="17.06649421658236"><ele>95.0</ele><time>2026-03-29T08:07:57.998Z</time></trkpt><trkpt lat="39.362682567819135" lon="17.0664953566575"><ele>95.0</ele><time>2026-03-29T08:07:58.998Z</time></trkpt><trkpt lat="39.362746982797574" lon="17.066516040621742"><ele>95.0</ele><time>2026-03-29T08:07:59.998Z</time></trkpt><trkpt lat="39.36280502426152" lon="17.066552458778727"><ele>95.0</ele><time>2026-03-29T08:08:00.998Z</time></trkpt><trkpt lat="39.36290663582572" lon="17.066585109799526"><ele>95.0</ele><time>2026-03-29T08:08:02.998Z</time></trkpt><trkpt lat="39.36299800758757" lon="17.066616790700195"><ele>95.0</ele><time>2026-03-29T08:08:04.998Z</time></trkpt><trkpt lat="39.36308945286602" lon="17.066648593115833"><ele>95.0</ele><time>2026-03-29T08:08:06.998Z</time></trkpt><trkpt lat="39.363205537535215" lon="17.06662932953706"><ele>96.0</ele><time>2026-03-29T08:08:08.998Z</time></trkpt><trkpt lat="39.36326750341623" lon="17.066608705555325"><ele>97.0</ele><time>2026-03-29T08:08:09.998Z</time></trkpt><trkpt lat="39.363390468586125" lon="17.066620760481467"><ele>98.0</ele><time>2026-03-29T08:08:11.998Z</time></trkpt><trkpt lat="39.36350604059523" lon="17.066593688065666"><ele>99.0</ele><time>2026-03-29T08:08:13.998Z</time></trkpt><trkpt lat="39.363612440568005" lon="17.06654492808488"><ele>100.0</ele><time>2026-03-29T08:08:15.998Z</time></trkpt><trkpt lat="39.36371203288653" lon="17.06650837099108"><ele>100.0</ele><time>2026-03-29T08:08:17.998Z</time></trkpt><trkpt lat="39.363812881027364" lon="17.066479322422115"><ele>100.0</ele><time>2026-03-29T08:08:19.998Z</time></trkpt><trkpt lat="39.363909012944596" lon="17.066425280897807"><ele>100.0</ele><time>2026-03-29T08:08:21.998Z</time></trkpt><trkpt lat="39.36398844709699" lon="17.066355123057356"><ele>100.0</ele><time>2026-03-29T08:08:23.998Z</time></trkpt><trkpt lat="39.3640361330088" lon="17.066295124322263"><ele>100.0</ele><time>2026-03-29T08:08:25.998Z</time></trkpt><trkpt lat="39.36409935328914" lon="17.06621279124161"><ele>99.28571428571429</ele><time>2026-03-29T08:08:28.998Z</time></trkpt><trkpt lat="39.36414523739003" lon="17.066152925126552"><ele>98.57142857142857</ele><time>2026-03-29T08:08:30.998Z</time></trkpt><trkpt lat="39.364202408605884" lon="17.066100136437655"><ele>97.85714285714286</ele><time>2026-03-29T08:08:32.998Z</time></trkpt><trkpt lat="39.36425261610868" lon="17.066040841389338"><ele>97.14285714285714</ele><time>2026-03-29T08:08:34.998Z</time></trkpt><trkpt lat="39.36431584286283" lon="17.065984763375656"><ele>96.42857142857143</ele><time>2026-03-29T08:08:36.998Z</time></trkpt><trkpt lat="39.36436291942872" lon="17.06591773745659"><ele>95.71428571428572</ele><time>2026-03-29T08:08:39.998Z</time></trkpt><trkpt lat="39.36443036387674" lon="17.0658658087007"><ele>95.0</ele><time>2026-03-29T08:08:42.998Z</time></trkpt><trkpt lat="39.36450852875787" lon="17.065787950333746"><ele>95.8</ele><time>2026-03-29T08:08:45.998Z</time></trkpt><trkpt lat="39.36457537795831" lon="17.065723538787882"><ele>96.6</ele><time>2026-03-29T08:08:47.998Z</time></trkpt><trkpt lat="39.36464400142721" lon="17.065658076511394"><ele>97.4</ele><time>2026-03-29T08:08:49.998Z</time></trkpt><trkpt lat="39.36470800320335" lon="17.065560700231046"><ele>98.2</ele><time>2026-03-29T08:08:51.998Z</time></trkpt><trkpt lat="39.36477953261653" lon="17.065459621896963"><ele>99.0</ele><time>2026-03-29T08:08:53.998Z</time></trkpt><trkpt lat="39.364855453496624" lon="17.065345006250663"><ele>99.0</ele><time>2026-03-29T08:08:55.998Z</time></trkpt><trkpt lat="39.36493226840783" lon="17.06523774933378"><ele>99.0</ele><time>2026-03-29T08:08:57.998Z</time></trkpt><trkpt lat="39.364999852234575" lon="17.06514290028443"><ele>99.0</ele><time>2026-03-29T08:08:59.998Z</time></trkpt><trkpt lat="39.36505980650183" lon="17.06504999778869"><ele>99.0</ele><time>2026-03-29T08:09:01.998Z</time></trkpt><trkpt lat="39.36512229851658" lon="17.064973683319923"><ele>99.0</ele><time>2026-03-29T08:09:03.998Z</time></trkpt><trkpt lat="39.365207614540445" lon="17.064912364756943"><ele>97.25</ele><time>2026-03-29T08:09:05.998Z</time></trkpt><trkpt lat="39.365270867040486" lon="17.064823998447334"><ele>95.5</ele><time>2026-03-29T08:09:07.998Z</time></trkpt><trkpt lat="39.365334350411146" lon="17.064737727499654"><ele>93.75</ele><time>2026-03-29T08:09:09.998Z</time></trkpt><trkpt lat="39.3654180520966" lon="17.064695795962642"><ele>92.0</ele><time>2026-03-29T08:09:11.998Z</time></trkpt><trkpt lat="39.36562699358341" lon="17.0646952803406"><ele>91.19999999999999</ele><time>2026-03-29T08:09:16.998Z</time></trkpt><trkpt lat="39.36573705658208" lon="17.064679282837876"><ele>90.4</ele><time>2026-03-29T08:09:19Z</time></trkpt><trkpt lat="39.36584704433715" lon="17.064647512903015"><ele>89.6</ele><time>2026-03-29T08:09:21Z</time></trkpt><trkpt lat="39.36592591853764" lon="17.06463432442517"><ele>88.80000000000001</ele><time>2026-03-29T08:09:23Z</time></trkpt><trkpt lat="39.36601341540606" lon="17.06458782937676"><ele>88.0</ele><time>2026-03-29T08:09:26Z</time></trkpt><trkpt lat="39.36609584496567" lon="17.06454414763223"><ele>88.0</ele><time>2026-03-29T08:09:28Z</time></trkpt><trkpt lat="39.366192472751834" lon="17.064510149656087"><ele>88.0</ele><time>2026-03-29T08:09:30Z</time></trkpt><trkpt lat="39.366293676573626" lon="17.06444043667697"><ele>88.0</ele><time>2026-03-29T08:09:32Z</time></trkpt><trkpt lat="39.366344716042036" lon="17.064385934938613"><ele>88.0</ele><time>2026-03-29T08:09:33Z</time></trkpt><trkpt lat="39.36640267347958" lon="17.064328508069146"><ele>88.0</ele><time>2026-03-29T08:09:34Z</time></trkpt><trkpt lat="39.366463102842246" lon="17.064265766882"><ele>88.0</ele><time>2026-03-29T08:09:35Z</time></trkpt><trkpt lat="39.36653318173166" lon="17.064211875028715"><ele>88.5</ele><time>2026-03-29T08:09:36Z</time></trkpt><trkpt lat="39.366608567256385" lon="17.064165461016454"><ele>89.0</ele><time>2026-03-29T08:09:37Z</time></trkpt><trkpt lat="39.36668348327488" lon="17.06411142521944"><ele>89.5</ele><time>2026-03-29T08:09:38Z</time></trkpt><trkpt lat="39.366759329628366" lon="17.064060423506586"><ele>90.0</ele><time>2026-03-29T08:09:39Z</time></trkpt><trkpt lat="39.36683623118236" lon="17.064007741380887"><ele>90.5</ele><time>2026-03-29T08:09:40Z</time></trkpt><trkpt lat="39.3669061199829" lon="17.063965368304576"><ele>91.0</ele><time>2026-03-29T08:09:41Z</time></trkpt><trkpt lat="39.3669797352283" lon="17.06392391597027"><ele>91.0</ele><time>2026-03-29T08:09:42Z</time></trkpt><trkpt lat="39.36706075325968" lon="17.063893887499248"><ele>91.0</ele><time>2026-03-29T08:09:43Z</time></trkpt><trkpt lat="39.36713373060225" lon="17.06386650072708"><ele>91.0</ele><time>2026-03-29T08:09:44Z</time></trkpt><trkpt lat="39.367206557806156" lon="17.06384632007515"><ele>91.0</ele><time>2026-03-29T08:09:45Z</time></trkpt><trkpt lat="39.36728122500699" lon="17.06383996579591"><ele>91.0</ele><time>2026-03-29T08:09:46Z</time></trkpt><trkpt lat="39.36735800361426" lon="17.06383024541764"><ele>91.0</ele><time>2026-03-29T08:09:47Z</time></trkpt><trkpt lat="39.367434526328076" lon="17.06381877891849"><ele>90.33333333333333</ele><time>2026-03-29T08:09:48Z</time></trkpt><trkpt lat="39.36751161247235" lon="17.06380414600616"><ele>89.66666666666666</ele><time>2026-03-29T08:09:49Z</time></trkpt><trkpt lat="39.36758723006377" lon="17.06379075773251"><ele>89.0</ele><time>2026-03-29T08:09:50Z</time></trkpt><trkpt lat="39.36766217958351" lon="17.06377592264206"><ele>88.33333333333333</ele><time>2026-03-29T08:09:51Z</time></trkpt><trkpt lat="39.36773760140752" lon="17.063757408482182"><ele>87.66666666666667</ele><time>2026-03-29T08:09:52Z</time></trkpt><trkpt lat="39.36781399408202" lon="17.06373285310065"><ele>87.0</ele><time>2026-03-29T08:09:53Z</time></trkpt><trkpt lat="39.36789467742113" lon="17.063710469839897"><ele>87.0</ele><time>2026-03-29T08:09:54Z</time></trkpt><trkpt lat="39.367975672639275" lon="17.06369015500872"><ele>87.0</ele><time>2026-03-29T08:09:55Z</time></trkpt><trkpt lat="39.36805437556578" lon="17.063669147331005"><ele>87.0</ele><time>2026-03-29T08:09:56Z</time></trkpt><trkpt lat="39.36813241956605" lon="17.06365027455127"><ele>87.0</ele><time>2026-03-29T08:09:57Z</time></trkpt><trkpt lat="39.36820834736796" lon="17.063624290096836"><ele>87.0</ele><time>2026-03-29T08:09:58Z</time></trkpt><trkpt lat="39.3682819030952" lon="17.063596513672017"><ele>87.0</ele><time>2026-03-29T08:09:59Z</time></trkpt><trkpt lat="39.36835464435999" lon="17.063567655134552"><ele>86.83333333333333</ele><time>2026-03-29T08:10:00Z</time></trkpt><trkpt lat="39.36843568587916" lon="17.063539949350773"><ele>86.66666666666667</ele><time>2026-03-29T08:10:01Z</time></trkpt><trkpt lat="39.36852400133926" lon="17.0635143474822"><ele>86.5</ele><time>2026-03-29T08:10:02Z</time></trkpt><trkpt lat="39.368615247748295" lon="17.063487934205423"><ele>86.33333333333334</ele><time>2026-03-29T08:10:03Z</time></trkpt><trkpt lat="39.36870716145873" lon="17.06346392059338"><ele>86.16666666666667</ele><time>2026-03-29T08:10:04Z</time></trkpt><trkpt lat="39.368792767384434" lon="17.06343804872195"><ele>86.0</ele><time>2026-03-29T08:10:05Z</time></trkpt><trkpt lat="39.368870400829216" lon="17.06341812220543"><ele>86.0</ele><time>2026-03-29T08:10:06Z</time></trkpt><trkpt lat="39.368940050045275" lon="17.063400618174597"><ele>86.0</ele><time>2026-03-29T08:10:07Z</time></trkpt><trkpt lat="39.36900492822626" lon="17.063373597203782"><ele>86.0</ele><time>2026-03-29T08:10:08Z</time></trkpt><trkpt lat="39.36906558191976" lon="17.063336994651202"><ele>86.0</ele><time>2026-03-29T08:10:09Z</time></trkpt><trkpt lat="39.36912225894236" lon="17.063293880037318"><ele>86.0</ele><time>2026-03-29T08:10:10Z</time></trkpt><trkpt lat="39.36920190517488" lon="17.06317644640289"><ele>86.0</ele><time>2026-03-29T08:10:12Z</time></trkpt><trkpt lat="39.3692148550896" lon="17.063093380243604"><ele>85.71428571428572</ele><time>2026-03-29T08:10:13Z</time></trkpt><trkpt lat="39.36922993616236" lon="17.063008942865622"><ele>85.42857142857143</ele><time>2026-03-29T08:10:14Z</time></trkpt><trkpt lat="39.36924571909059" lon="17.062925143593727"><ele>85.14285714285714</ele><time>2026-03-29T08:10:15Z</time></trkpt><trkpt lat="39.36926708223601" lon="17.062838299799036"><ele>84.85714285714286</ele><time>2026-03-29T08:10:16Z</time></trkpt><trkpt lat="39.369301353416354" lon="17.06274829972165"><ele>84.57142857142857</ele><time>2026-03-29T08:10:17Z</time></trkpt><trkpt lat="39.36935482131357" lon="17.062668358390923"><ele>84.28571428571429</ele><time>2026-03-29T08:10:18Z</time></trkpt><trkpt lat="39.36940333364763" lon="17.062590753993312"><ele>84.0</ele><time>2026-03-29T08:10:19Z</time></trkpt><trkpt lat="39.36944818119541" lon="17.062523238040527"><ele>85.0</ele><time>2026-03-29T08:10:20Z</time></trkpt><trkpt lat="39.369528146746795" lon="17.06241520448923"><ele>86.0</ele><time>2026-03-29T08:10:22Z</time></trkpt><trkpt lat="39.36959382739182" lon="17.062326732200315"><ele>87.0</ele><time>2026-03-29T08:10:24Z</time></trkpt><trkpt lat="39.369647558881255" lon="17.062240173729776"><ele>88.0</ele><time>2026-03-29T08:10:26Z</time></trkpt><trkpt lat="39.369749519085374" lon="17.062214979989292"><ele>89.0</ele><time>2026-03-29T08:10:28Z</time></trkpt><trkpt lat="39.36983361550849" lon="17.06223916488488"><ele>89.66666666666667</ele><time>2026-03-29T08:10:29Z</time></trkpt><trkpt lat="39.36991376274967" lon="17.062279336111434"><ele>90.33333333333334</ele><time>2026-03-29T08:10:30Z</time></trkpt><trkpt lat="39.369984962519" lon="17.062299974881817"><ele>91.0</ele><time>2026-03-29T08:10:31Z</time></trkpt><trkpt lat="39.370047292466126" lon="17.06232752883734"><ele>91.66666666666667</ele><time>2026-03-29T08:10:32Z</time></trkpt><trkpt lat="39.37010962998931" lon="17.062347030544558"><ele>92.33333333333333</ele><time>2026-03-29T08:10:33Z</time></trkpt><trkpt lat="39.370222362000625" lon="17.062344057639816"><ele>93.0</ele><time>2026-03-29T08:10:35Z</time></trkpt><trkpt lat="39.37032805528496" lon="17.062298285985737"><ele>93.0</ele><time>2026-03-29T08:10:37Z</time></trkpt><trkpt lat="39.37042985819334" lon="17.06222159149066"><ele>93.0</ele><time>2026-03-29T08:10:39Z</time></trkpt><trkpt lat="39.37049698221817" lon="17.062130225860606"><ele>93.0</ele><time>2026-03-29T08:10:41Z</time></trkpt><trkpt lat="39.37053850316406" lon="17.06203863500767"><ele>93.0</ele><time>2026-03-29T08:10:43Z</time></trkpt><trkpt lat="39.370582184882366" lon="17.061957556865156"><ele>93.0</ele><time>2026-03-29T08:10:45Z</time></trkpt><trkpt lat="39.37062778948747" lon="17.06187691565445"><ele>92.83333333333333</ele><time>2026-03-29T08:10:47Z</time></trkpt><trkpt lat="39.37067206747302" lon="17.061777511040162"><ele>92.66666666666667</ele><time>2026-03-29T08:10:49Z</time></trkpt><trkpt lat="39.370709330062304" lon="17.061678803767023"><ele>92.5</ele><time>2026-03-29T08:10:51Z</time></trkpt><trkpt lat="39.3707384019565" lon="17.061581206309555"><ele>92.33333333333334</ele><time>2026-03-29T08:10:52.999Z</time></trkpt><trkpt lat="39.37076826847412" lon="17.061480462880947"><ele>92.16666666666667</ele><time>2026-03-29T08:10:54.999Z</time></trkpt><trkpt lat="39.37080365234738" lon="17.061371491090174"><ele>92.0</ele><time>2026-03-29T08:10:56.999Z</time></trkpt><trkpt lat="39.37085736517682" lon="17.06126077885122"><ele>93.39999999999999</ele><time>2026-03-29T08:10:58.999Z</time></trkpt><trkpt lat="39.37090412706797" lon="17.061180394293043"><ele>94.8</ele><time>2026-03-29T08:11:00.999Z</time></trkpt><trkpt lat="39.37094344257789" lon="17.06110832865128"><ele>96.2</ele><time>2026-03-29T08:11:02.999Z</time></trkpt><trkpt lat="39.370995900764676" lon="17.061012235652093"><ele>97.6</ele><time>2026-03-29T08:11:04.999Z</time></trkpt><trkpt lat="39.37104352757532" lon="17.06088244339608"><ele>99.0</ele><time>2026-03-29T08:11:06.999Z</time></trkpt><trkpt lat="39.37107976894846" lon="17.060754732144094"><ele>100.33333333333333</ele><time>2026-03-29T08:11:08.999Z</time></trkpt><trkpt lat="39.37109727778963" lon="17.06064032369032"><ele>101.66666666666666</ele><time>2026-03-29T08:11:10.999Z</time></trkpt><trkpt lat="39.37109795890754" lon="17.06053083401041"><ele>103.0</ele><time>2026-03-29T08:11:12.999Z</time></trkpt><trkpt lat="39.37110922561417" lon="17.060443329792893"><ele>104.33333333333333</ele><time>2026-03-29T08:11:14.999Z</time></trkpt><trkpt lat="39.371082232965335" lon="17.060361848087755"><ele>105.66666666666666</ele><time>2026-03-29T08:11:19.999Z</time></trkpt><trkpt lat="39.37108808209003" lon="17.060228159913287"><ele>107.0</ele><time>2026-03-29T08:11:22.999Z</time></trkpt><trkpt lat="39.371095668849954" lon="17.0601181033869"><ele>107.0</ele><time>2026-03-29T08:11:24.999Z</time></trkpt><trkpt lat="39.37109462900088" lon="17.06000075957062"><ele>106.99999999999999</ele><time>2026-03-29T08:11:26.999Z</time></trkpt><trkpt lat="39.371088089864315" lon="17.05986663046756"><ele>106.99999999999999</ele><time>2026-03-29T08:11:28.999Z</time></trkpt><trkpt lat="39.37107582190829" lon="17.059736392247007"><ele>107.0</ele><time>2026-03-29T08:11:30.999Z</time></trkpt><trkpt lat="39.3710679470159" lon="17.05959290783829"><ele>107.0</ele><time>2026-03-29T08:11:32.999Z</time></trkpt><trkpt lat="39.37108473726723" lon="17.059478518429433"><ele>107.6</ele><time>2026-03-29T08:11:34.999Z</time></trkpt><trkpt lat="39.37110108948812" lon="17.059394519932884"><ele>108.19999999999999</ele><time>2026-03-29T08:11:37.999Z</time></trkpt><trkpt lat="39.37113652946542" lon="17.059323167986136"><ele>108.8</ele><time>2026-03-29T08:11:42.999Z</time></trkpt><trkpt lat="39.371207451999304" lon="17.05918597420121"><ele>109.4</ele><time>2026-03-29T08:13:43.999Z</time></trkpt><trkpt lat="39.37121754361368" lon="17.058981120759825"><ele>110.0</ele><time>2026-03-29T08:25:33.999Z</time></trkpt><trkpt lat="39.37124925016192" lon="17.059131539054754"><ele>108.99999999999999</ele><time>2026-03-29T08:42:43.999Z</time></trkpt><trkpt lat="39.37124606075543" lon="17.059031567191013"><ele>108.0</ele><time>2026-03-29T08:43:12.999Z</time></trkpt><trkpt lat="39.37126823676724" lon="17.05890688275337"><ele>107.0</ele><time>2026-03-29T08:43:15.999Z</time></trkpt><trkpt lat="39.3712955800119" lon="17.05882240529998"><ele>106.0</ele><time>2026-03-29T08:43:17.999Z</time></trkpt><trkpt lat="39.371300840690274" lon="17.058709036013862"><ele>104.99999999999999</ele><time>2026-03-29T08:43:19.999Z</time></trkpt><trkpt lat="39.37133182950048" lon="17.058572317004014"><ele>104.0</ele><time>2026-03-29T08:43:21.999Z</time></trkpt><trkpt lat="39.37138280739025" lon="17.058446180111414"><ele>103.99999999999999</ele><time>2026-03-29T08:43:23.999Z</time></trkpt><trkpt lat="39.37141391246153" lon="17.05830922365125"><ele>104.0</ele><time>2026-03-29T08:43:25.999Z</time></trkpt><trkpt lat="39.37143853478413" lon="17.0582339132135"><ele>104.0</ele><time>2026-03-29T08:43:26.999Z</time></trkpt><trkpt lat="39.37146461543265" lon="17.058152344950837"><ele>104.0</ele><time>2026-03-29T08:43:27.999Z</time></trkpt><trkpt lat="39.37148188187329" lon="17.058058847544178"><ele>103.99999999999999</ele><time>2026-03-29T08:43:28.999Z</time></trkpt><trkpt lat="39.37149436427158" lon="17.057963340169216"><ele>104.0</ele><time>2026-03-29T08:43:29.999Z</time></trkpt><trkpt lat="39.371493681750806" lon="17.05787532019016"><ele>103.16666666666666</ele><time>2026-03-29T08:43:30.999Z</time></trkpt><trkpt lat="39.371483213252404" lon="17.057790076063483"><ele>102.33333333333333</ele><time>2026-03-29T08:43:31.999Z</time></trkpt><trkpt lat="39.37146286539363" lon="17.05768851394252"><ele>101.5</ele><time>2026-03-29T08:43:32.999Z</time></trkpt><trkpt lat="39.37139872614" lon="17.057551535946672"><ele>100.66666666666666</ele><time>2026-03-29T08:43:34.999Z</time></trkpt><trkpt lat="39.371366174862246" lon="17.05747767598883"><ele>99.83333333333333</ele><time>2026-03-29T08:43:35.999Z</time></trkpt><trkpt lat="39.37132431962818" lon="17.057399342332392"><ele>99.0</ele><time>2026-03-29T08:43:36.999Z</time></trkpt><trkpt lat="39.37126858408168" lon="17.057293454945487"><ele>98.2</ele><time>2026-03-29T08:43:38.999Z</time></trkpt><trkpt lat="39.37122768382345" lon="17.05721871967262"><ele>97.4</ele><time>2026-03-29T08:43:41.999Z</time></trkpt><trkpt lat="39.37122422298141" lon="17.057134197930832"><ele>96.6</ele><time>2026-03-29T08:43:44.999Z</time></trkpt><trkpt lat="39.37123207446962" lon="17.05704318278285"><ele>95.8</ele><time>2026-03-29T08:43:46.999Z</time></trkpt><trkpt lat="39.371265842488576" lon="17.05688607211517"><ele>95.0</ele><time>2026-03-29T08:43:48.999Z</time></trkpt><trkpt lat="39.37128605229985" lon="17.056726758312994"><ele>95.0</ele><time>2026-03-29T08:43:50.999Z</time></trkpt><trkpt lat="39.37129647232322" lon="17.056645768114024"><ele>95.0</ele><time>2026-03-29T08:43:51.999Z</time></trkpt><trkpt lat="39.3713181339556" lon="17.056528099823808"><ele>95.0</ele><time>2026-03-29T08:43:53.999Z</time></trkpt><trkpt lat="39.37133735303118" lon="17.05638358840478"><ele>95.0</ele><time>2026-03-29T08:43:55.999Z</time></trkpt><trkpt lat="39.371273095541945" lon="17.056274335365856"><ele>95.0</ele><time>2026-03-29T08:43:57.999Z</time></trkpt><trkpt lat="39.371176071866515" lon="17.056227520435545"><ele>95.33333333333334</ele><time>2026-03-29T08:43:59.999Z</time></trkpt><trkpt lat="39.371107259611215" lon="17.056216889457215"><ele>95.66666666666667</ele><time>2026-03-29T08:44:01.999Z</time></trkpt><trkpt lat="39.371009656537126" lon="17.056186312547034"><ele>96.0</ele><time>2026-03-29T08:44:03.999Z</time></trkpt><trkpt lat="39.370882613417386" lon="17.056169875011744"><ele>96.33333333333334</ele><time>2026-03-29T08:44:05.999Z</time></trkpt><trkpt lat="39.37081379359125" lon="17.05616611015851"><ele>96.66666666666667</ele><time>2026-03-29T08:44:06.999Z</time></trkpt><trkpt lat="39.37074525456569" lon="17.05615127635294"><ele>97.0</ele><time>2026-03-29T08:44:07.999Z</time></trkpt><trkpt lat="39.370682409056464" lon="17.056137149566307"><ele>97.0</ele><time>2026-03-29T08:44:08.999Z</time></trkpt><trkpt lat="39.370577722376375" lon="17.056089126457934"><ele>97.0</ele><time>2026-03-29T08:44:10.999Z</time></trkpt><trkpt lat="39.37049854708754" lon="17.056011042859645"><ele>97.0</ele><time>2026-03-29T08:44:12.999Z</time></trkpt><trkpt lat="39.37042322646785" lon="17.05590158140172"><ele>97.0</ele><time>2026-03-29T08:44:14.999Z</time></trkpt><trkpt lat="39.37034875747704" lon="17.055819272784912"><ele>97.0</ele><time>2026-03-29T08:44:16.999Z</time></trkpt><trkpt lat="39.370272770497294" lon="17.055740764015233"><ele>98.19999999999999</ele><time>2026-03-29T08:44:19.999Z</time></trkpt><trkpt lat="39.37019468022128" lon="17.055650524126126"><ele>99.4</ele><time>2026-03-29T08:44:21.999Z</time></trkpt><trkpt lat="39.370134362815385" lon="17.055550303626106"><ele>100.6</ele><time>2026-03-29T08:44:23.999Z</time></trkpt><trkpt lat="39.37009063231926" lon="17.05543579437914"><ele>101.80000000000001</ele><time>2026-03-29T08:44:25.999Z</time></trkpt><trkpt lat="39.370053951967314" lon="17.05529152983967"><ele>103.0</ele><time>2026-03-29T08:44:27.999Z</time></trkpt><trkpt lat="39.37001896827663" lon="17.055149817878103"><ele>102.99999999999999</ele><time>2026-03-29T08:44:29.999Z</time></trkpt><trkpt lat="39.36999589822105" lon="17.055073447123863"><ele>103.0</ele><time>2026-03-29T08:44:30.999Z</time></trkpt><trkpt lat="39.36997026843623" lon="17.054996215369563"><ele>103.0</ele><time>2026-03-29T08:44:31.999Z</time></trkpt><trkpt lat="39.36993286721013" lon="17.054881306537844"><ele>103.0</ele><time>2026-03-29T08:44:33.999Z</time></trkpt><trkpt lat="39.36992980690629" lon="17.054772902610353"><ele>103.0</ele><time>2026-03-29T08:44:35.999Z</time></trkpt><trkpt lat="39.36993365398906" lon="17.05468681773355"><ele>102.99999999999999</ele><time>2026-03-29T08:44:38.999Z</time></trkpt><trkpt lat="39.36995180768038" lon="17.054598883999507"><ele>103.0</ele><time>2026-03-29T08:44:43.999Z</time></trkpt><trkpt lat="39.3699604238511" lon="17.05451366458224"><ele>102.85714285714285</ele><time>2026-03-29T08:44:51Z</time></trkpt><trkpt lat="39.369983523805004" lon="17.054435309060164"><ele>102.71428571428571</ele><time>2026-03-29T08:45:00Z</time></trkpt><trkpt lat="39.36993824410088" lon="17.054357897763623"><ele>102.57142857142857</ele><time>2026-03-29T08:45:09Z</time></trkpt><trkpt lat="39.36987777628234" lon="17.054296875548843"><ele>102.42857142857142</ele><time>2026-03-29T08:45:15Z</time></trkpt><trkpt lat="39.36981003418652" lon="17.054267678885065"><ele>102.28571428571429</ele><time>2026-03-29T08:45:21Z</time></trkpt><trkpt lat="39.36975809532247" lon="17.054193424332382"><ele>102.14285714285714</ele><time>2026-03-29T08:45:27Z</time></trkpt><trkpt lat="39.3697045614246" lon="17.054149898720663"><ele>102.0</ele><time>2026-03-29T08:45:31Z</time></trkpt><trkpt lat="39.36964529102109" lon="17.054105317436743"><ele>100.42857142857143</ele><time>2026-03-29T08:45:35Z</time></trkpt><trkpt lat="39.3695805050204" lon="17.054050703893257"><ele>98.85714285714286</ele><time>2026-03-29T08:45:38Z</time></trkpt><trkpt lat="39.369527739080276" lon="17.053978669321015"><ele>97.28571428571428</ele><time>2026-03-29T08:45:40Z</time></trkpt><trkpt lat="39.36947505484633" lon="17.053919404852987"><ele>95.71428571428572</ele><time>2026-03-29T08:45:42Z</time></trkpt><trkpt lat="39.36943840377047" lon="17.053845338620107"><ele>94.14285714285714</ele><time>2026-03-29T08:45:44Z</time></trkpt><trkpt lat="39.369427481493226" lon="17.053749905375263"><ele>92.57142857142857</ele><time>2026-03-29T08:45:47Z</time></trkpt><trkpt lat="39.36946106049731" lon="17.053663437031794"><ele>91.0</ele><time>2026-03-29T08:45:51Z</time></trkpt><trkpt lat="39.36951158868783" lon="17.053597512878234"><ele>91.0</ele><time>2026-03-29T08:45:55Z</time></trkpt><trkpt lat="39.36955066270046" lon="17.053532259439642"><ele>91.0</ele><time>2026-03-29T08:45:58Z</time></trkpt><trkpt lat="39.369613683684996" lon="17.05345602600936"><ele>91.0</ele><time>2026-03-29T08:46:04Z</time></trkpt><trkpt lat="39.36966069079498" lon="17.053394838358543"><ele>91.0</ele><time>2026-03-29T08:46:05Z</time></trkpt><trkpt lat="39.36972455084314" lon="17.05325865422021"><ele>91.0</ele><time>2026-03-29T08:46:07Z</time></trkpt><trkpt lat="39.369760865532214" lon="17.053185465896703"><ele>91.0</ele><time>2026-03-29T08:46:08Z</time></trkpt><trkpt lat="39.36980887335035" lon="17.05310400171782"><ele>92.0</ele><time>2026-03-29T08:46:09Z</time></trkpt><trkpt lat="39.36985845507937" lon="17.05303794270407"><ele>93.0</ele><time>2026-03-29T08:46:10Z</time></trkpt><trkpt lat="39.36991953248842" lon="17.052966639984106"><ele>94.0</ele><time>2026-03-29T08:46:11Z</time></trkpt><trkpt lat="39.36997900196586" lon="17.052892130521528"><ele>95.0</ele><time>2026-03-29T08:46:12Z</time></trkpt><trkpt lat="39.370032868835985" lon="17.052813507464396"><ele>96.00000000000001</ele><time>2026-03-29T08:46:13Z</time></trkpt><trkpt lat="39.37008725712986" lon="17.052746925547183"><ele>97.0</ele><time>2026-03-29T08:46:14Z</time></trkpt><trkpt lat="39.37013015384642" lon="17.05268150471887"><ele>97.0</ele><time>2026-03-29T08:46:15Z</time></trkpt><trkpt lat="39.370173310176426" lon="17.052545687491754"><ele>97.0</ele><time>2026-03-29T08:46:17Z</time></trkpt><trkpt lat="39.37016966973614" lon="17.05243815220025"><ele>97.0</ele><time>2026-03-29T08:46:19Z</time></trkpt><trkpt lat="39.37013906290761" lon="17.052358010426307"><ele>97.0</ele><time>2026-03-29T08:46:22Z</time></trkpt><trkpt lat="39.37008965171139" lon="17.05222678274116"><ele>97.0</ele><time>2026-03-29T08:46:24Z</time></trkpt><trkpt lat="39.37006386433527" lon="17.05212235497638"><ele>97.39999999999999</ele><time>2026-03-29T08:46:25Z</time></trkpt><trkpt lat="39.37003603419732" lon="17.05201130358284"><ele>97.8</ele><time>2026-03-29T08:46:26Z</time></trkpt><trkpt lat="39.36999493625551" lon="17.051905720725635"><ele>98.2</ele><time>2026-03-29T08:46:27Z</time></trkpt><trkpt lat="39.36996329861351" lon="17.051808289256815"><ele>98.6</ele><time>2026-03-29T08:46:28Z</time></trkpt><trkpt lat="39.369927379578755" lon="17.05167369928281"><ele>99.0</ele><time>2026-03-29T08:46:30Z</time></trkpt><trkpt lat="39.36994501641833" lon="17.051536129581745"><ele>100.0</ele><time>2026-03-29T08:46:32Z</time></trkpt><trkpt lat="39.36997899093801" lon="17.051464231893373"><ele>101.0</ele><time>2026-03-29T08:46:33Z</time></trkpt><trkpt lat="39.370021989819826" lon="17.051384317887845"><ele>102.0</ele><time>2026-03-29T08:46:34Z</time></trkpt><trkpt lat="39.370052724553084" lon="17.051300561222977"><ele>103.0</ele><time>2026-03-29T08:46:35Z</time></trkpt><trkpt lat="39.37008067965374" lon="17.051206794353373"><ele>104.0</ele><time>2026-03-29T08:46:36Z</time></trkpt><trkpt lat="39.37010114009351" lon="17.051122844100608"><ele>105.0</ele><time>2026-03-29T08:46:37Z</time></trkpt><trkpt lat="39.37013064089333" lon="17.051040470399606"><ele>106.0</ele><time>2026-03-29T08:46:38Z</time></trkpt><trkpt lat="39.370160977742806" lon="17.050967564526797"><ele>106.00000000000001</ele><time>2026-03-29T08:46:39Z</time></trkpt><trkpt lat="39.3701973874036" lon="17.05083271836318"><ele>106.0</ele><time>2026-03-29T08:46:41Z</time></trkpt><trkpt lat="39.37022251828577" lon="17.050730116861768"><ele>106.0</ele><time>2026-03-29T08:46:43Z</time></trkpt><trkpt lat="39.37024458445607" lon="17.050632566658685"><ele>106.0</ele><time>2026-03-29T08:46:45Z</time></trkpt><trkpt lat="39.37030334468095" lon="17.0505537121962"><ele>106.00000000000001</ele><time>2026-03-29T08:46:47Z</time></trkpt><trkpt lat="39.3703642901062" lon="17.05049652488319"><ele>106.0</ele><time>2026-03-29T08:46:49Z</time></trkpt><trkpt lat="39.37042777963524" lon="17.05045027452857"><ele>106.50000000000001</ele><time>2026-03-29T08:46:51Z</time></trkpt><trkpt lat="39.37049848393033" lon="17.050407107462938"><ele>107.0</ele><time>2026-03-29T08:46:53Z</time></trkpt><trkpt lat="39.370548548321494" lon="17.050353447127197"><ele>107.5</ele><time>2026-03-29T08:46:54Z</time></trkpt><trkpt lat="39.370590362039245" lon="17.05029127423706"><ele>108.0</ele><time>2026-03-29T08:46:55Z</time></trkpt><trkpt lat="39.37063307670136" lon="17.050210390279048"><ele>108.50000000000001</ele><time>2026-03-29T08:46:56Z</time></trkpt><trkpt lat="39.3706598719357" lon="17.05012747067528"><ele>109.0</ele><time>2026-03-29T08:46:57Z</time></trkpt><trkpt lat="39.37071076362602" lon="17.049999702489327"><ele>111.16666666666667</ele><time>2026-03-29T08:46:59Z</time></trkpt><trkpt lat="39.370754332669634" lon="17.049936851292454"><ele>113.33333333333334</ele><time>2026-03-29T08:47:00Z</time></trkpt><trkpt lat="39.37085281384853" lon="17.049878093733387"><ele>115.5</ele><time>2026-03-29T08:47:02Z</time></trkpt><trkpt lat="39.37095298860158" lon="17.04986808014819"><ele>117.66666666666666</ele><time>2026-03-29T08:47:04Z</time></trkpt><trkpt lat="39.371021091152556" lon="17.049842369717165"><ele>119.83333333333333</ele><time>2026-03-29T08:47:06Z</time></trkpt><trkpt lat="39.37106952194333" lon="17.049755346316235"><ele>122.0</ele><time>2026-03-29T08:47:09Z</time></trkpt><trkpt lat="39.37110775787073" lon="17.049672854067367"><ele>122.0</ele><time>2026-03-29T08:47:11Z</time></trkpt><trkpt lat="39.37120220480896" lon="17.04957678540474"><ele>121.99999999999999</ele><time>2026-03-29T08:47:13Z</time></trkpt><trkpt lat="39.37125992888173" lon="17.049469830077694"><ele>121.99999999999999</ele><time>2026-03-29T08:47:15Z</time></trkpt><trkpt lat="39.37129293505193" lon="17.049347433681607"><ele>122.0</ele><time>2026-03-29T08:47:17Z</time></trkpt><trkpt lat="39.37132490968709" lon="17.049219833822168"><ele>122.0</ele><time>2026-03-29T08:47:19Z</time></trkpt><trkpt lat="39.37134878804732" lon="17.049136184406937"><ele>124.6</ele><time>2026-03-29T08:47:20Z</time></trkpt><trkpt lat="39.37136953516282" lon="17.049051997209673"><ele>127.19999999999999</ele><time>2026-03-29T08:47:21Z</time></trkpt><trkpt lat="39.37141072496027" lon="17.048942691024735"><ele>129.8</ele><time>2026-03-29T08:47:23Z</time></trkpt><trkpt lat="39.371463180947934" lon="17.048859437011302"><ele>132.4</ele><time>2026-03-29T08:47:25Z</time></trkpt><trkpt lat="39.371570773453314" lon="17.048850174861748"><ele>135.0</ele><time>2026-03-29T08:47:27Z</time></trkpt><trkpt lat="39.37167401004201" lon="17.04889411496761"><ele>135.0</ele><time>2026-03-29T08:47:28.999Z</time></trkpt><trkpt lat="39.37178529041011" lon="17.048914131126782"><ele>135.0</ele><time>2026-03-29T08:47:30.999Z</time></trkpt><trkpt lat="39.3718469948035" lon="17.04889659144611"><ele>135.0</ele><time>2026-03-29T08:47:31.999Z</time></trkpt><trkpt lat="39.37195117677351" lon="17.04886497641196"><ele>135.0</ele><time>2026-03-29T08:47:33.999Z</time></trkpt><trkpt lat="39.37201741999313" lon="17.048908234311355"><ele>135.0</ele><time>2026-03-29T08:47:35.999Z</time></trkpt><trkpt lat="39.37207668064714" lon="17.04898786157252"><ele>135.0</ele><time>2026-03-29T08:47:37.999Z</time></trkpt><trkpt lat="39.372157190697095" lon="17.04904017333507"><ele>134.0</ele><time>2026-03-29T08:47:39.999Z</time></trkpt><trkpt lat="39.3722594183344" lon="17.049029733562893"><ele>133.0</ele><time>2026-03-29T08:47:41.999Z</time></trkpt><trkpt lat="39.37235987856222" lon="17.04900753254862"><ele>132.0</ele><time>2026-03-29T08:47:43.999Z</time></trkpt><trkpt lat="39.3724283631599" lon="17.049024456616042"><ele>131.0</ele><time>2026-03-29T08:47:45.999Z</time></trkpt><trkpt lat="39.37250026846881" lon="17.04904742219101"><ele>130.0</ele><time>2026-03-29T08:47:47.999Z</time></trkpt><trkpt lat="39.37258408521769" lon="17.048998811430867"><ele>129.0</ele><time>2026-03-29T08:47:49.999Z</time></trkpt><trkpt lat="39.37266931018214" lon="17.04894947894604"><ele>129.0</ele><time>2026-03-29T08:47:51.999Z</time></trkpt><trkpt lat="39.37275976932172" lon="17.04891604816024"><ele>129.0</ele><time>2026-03-29T08:47:53.999Z</time></trkpt><trkpt lat="39.37284655511736" lon="17.04884368456655"><ele>129.0</ele><time>2026-03-29T08:47:55.999Z</time></trkpt><trkpt lat="39.3728896261833" lon="17.04874218503098"><ele>129.0</ele><time>2026-03-29T08:47:57.999Z</time></trkpt><trkpt lat="39.372918233360124" lon="17.048641844337318"><ele>129.0</ele><time>2026-03-29T08:48:00.999Z</time></trkpt><trkpt lat="39.372988923517646" lon="17.04857795298735"><ele>128.33333333333334</ele><time>2026-03-29T08:48:03.999Z</time></trkpt><trkpt lat="39.37305376962647" lon="17.04851151704379"><ele>127.66666666666666</ele><time>2026-03-29T08:48:06.999Z</time></trkpt><trkpt lat="39.37312555821546" lon="17.048472694392792"><ele>127.0</ele><time>2026-03-29T08:48:10.999Z</time></trkpt><trkpt lat="39.37319274212509" lon="17.0484271373606"><ele>126.33333333333333</ele><time>2026-03-29T08:48:13.999Z</time></trkpt><trkpt lat="39.373261811886486" lon="17.048368884945393"><ele>125.66666666666666</ele><time>2026-03-29T08:48:16.999Z</time></trkpt><trkpt lat="39.37332079755056" lon="17.04832857501467"><ele>125.0</ele><time>2026-03-29T08:48:18.999Z</time></trkpt><trkpt lat="39.373379610272536" lon="17.048266569759374"><ele>126.66666666666666</ele><time>2026-03-29T08:48:20.999Z</time></trkpt><trkpt lat="39.37342874048026" lon="17.048204845105317"><ele>128.33333333333331</ele><time>2026-03-29T08:48:22.999Z</time></trkpt><trkpt lat="39.373496387096836" lon="17.048148172974393"><ele>130.0</ele><time>2026-03-29T08:48:25.999Z</time></trkpt><trkpt lat="39.373573788448155" lon="17.048094607881904"><ele>131.66666666666666</ele><time>2026-03-29T08:48:28.999Z</time></trkpt><trkpt lat="39.37366229416862" lon="17.04806413019021"><ele>133.33333333333334</ele><time>2026-03-29T08:48:31.999Z</time></trkpt><trkpt lat="39.37372769103342" lon="17.048078441996815"><ele>135.0</ele><time>2026-03-29T08:48:34.999Z</time></trkpt><trkpt lat="39.373788550930456" lon="17.04810665692357"><ele>135.5</ele><time>2026-03-29T08:48:41.999Z</time></trkpt><trkpt lat="39.37385637808162" lon="17.048148880612697"><ele>136.0</ele><time>2026-03-29T08:48:45.999Z</time></trkpt><trkpt lat="39.37391650821994" lon="17.048176534200707"><ele>136.5</ele><time>2026-03-29T08:48:48.999Z</time></trkpt><trkpt lat="39.37396234884863" lon="17.048237010032796"><ele>137.0</ele><time>2026-03-29T08:48:50.999Z</time></trkpt><trkpt lat="39.37403270912961" lon="17.04830516238259"><ele>137.5</ele><time>2026-03-29T08:48:53.999Z</time></trkpt><trkpt lat="39.37410345932643" lon="17.048368042497167"><ele>138.0</ele><time>2026-03-29T08:48:56.999Z</time></trkpt><trkpt lat="39.374169762645096" lon="17.048430783969525"><ele>138.0</ele><time>2026-03-29T08:48:58.999Z</time></trkpt><trkpt lat="39.374247356590075" lon="17.04847317734933"><ele>138.0</ele><time>2026-03-29T08:49:00.999Z</time></trkpt><trkpt lat="39.374344827742156" lon="17.048491782584613"><ele>138.0</ele><time>2026-03-29T08:49:03.999Z</time></trkpt><trkpt lat="39.37441911931234" lon="17.048494997399228"><ele>138.0</ele><time>2026-03-29T08:49:05.999Z</time></trkpt><trkpt lat="39.37449989371014" lon="17.048504860904053"><ele>138.0</ele><time>2026-03-29T08:49:07.999Z</time></trkpt><trkpt lat="39.374567331275436" lon="17.04856292835069"><ele>138.0</ele><time>2026-03-29T08:49:09.999Z</time></trkpt><trkpt lat="39.374626407151666" lon="17.04859657210183"><ele>139.83333333333334</ele><time>2026-03-29T08:49:11.999Z</time></trkpt><trkpt lat="39.37471085402392" lon="17.048611193600756"><ele>141.66666666666666</ele><time>2026-03-29T08:49:15.999Z</time></trkpt><trkpt lat="39.374780529219144" lon="17.048574483372402"><ele>143.5</ele><time>2026-03-29T08:49:22.999Z</time></trkpt><trkpt lat="39.37485039638447" lon="17.048523896280305"><ele>145.33333333333331</ele><time>2026-03-29T08:49:24.999Z</time></trkpt><trkpt lat="39.37492032209984" lon="17.04849831679046"><ele>147.16666666666666</ele><time>2026-03-29T08:49:26.999Z</time></trkpt><trkpt lat="39.3749848120826" lon="17.048477565668044"><ele>149.0</ele><time>2026-03-29T08:49:29.999Z</time></trkpt><trkpt lat="39.37508391465201" lon="17.04847501009415"><ele>149.0</ele><time>2026-03-29T08:49:32.999Z</time></trkpt><trkpt lat="39.37517825711422" lon="17.04844278235771"><ele>149.0</ele><time>2026-03-29T08:49:34.999Z</time></trkpt><trkpt lat="39.375267713272784" lon="17.04838440076206"><ele>149.0</ele><time>2026-03-29T08:49:36.999Z</time></trkpt><trkpt lat="39.37533301164426" lon="17.04838307103719"><ele>149.0</ele><time>2026-03-29T08:49:38.999Z</time></trkpt><trkpt lat="39.37540803997232" lon="17.048459732712487"><ele>149.0</ele><time>2026-03-29T08:49:40.999Z</time></trkpt><trkpt lat="39.37546593060463" lon="17.048546306814472"><ele>149.0</ele><time>2026-03-29T08:49:42.999Z</time></trkpt><trkpt lat="39.375555768790136" lon="17.048568397191566"><ele>150.0</ele><time>2026-03-29T08:49:44.999Z</time></trkpt><trkpt lat="39.37564418132017" lon="17.048567229259433"><ele>151.0</ele><time>2026-03-29T08:49:46.999Z</time></trkpt><trkpt lat="39.37569788111956" lon="17.04850151396132"><ele>152.0</ele><time>2026-03-29T08:49:52.999Z</time></trkpt><trkpt lat="39.37577290093375" lon="17.048457098682334"><ele>153.0</ele><time>2026-03-29T08:49:58.999Z</time></trkpt><trkpt lat="39.37584291268465" lon="17.048443574484256"><ele>154.0</ele><time>2026-03-29T08:50:00.999Z</time></trkpt><trkpt lat="39.375927427460006" lon="17.0484394363772"><ele>155.0</ele><time>2026-03-29T08:50:03.999Z</time></trkpt><trkpt lat="39.375976085208265" lon="17.04838737639849"><ele>155.0</ele><time>2026-03-29T08:50:11.999Z</time></trkpt><trkpt lat="39.376003538261976" lon="17.048302092917808"><ele>155.0</ele><time>2026-03-29T08:50:17.999Z</time></trkpt><trkpt lat="39.37601225879336" lon="17.048212187214148"><ele>155.0</ele><time>2026-03-29T08:50:20.999Z</time></trkpt><trkpt lat="39.37597385314203" lon="17.04813243632648"><ele>155.0</ele><time>2026-03-29T08:50:22.999Z</time></trkpt><trkpt lat="39.37590738698143" lon="17.04809366292126"><ele>155.0</ele><time>2026-03-29T08:50:24.999Z</time></trkpt><trkpt lat="39.3758392370668" lon="17.048070387374914"><ele>155.0</ele><time>2026-03-29T08:50:26.999Z</time></trkpt><trkpt lat="39.37575859711859" lon="17.0480501841787"><ele>155.0</ele><time>2026-03-29T08:50:28.999Z</time></trkpt><trkpt lat="39.375671166262244" lon="17.048025682338164"><ele>157.66666666666666</ele><time>2026-03-29T08:50:30.999Z</time></trkpt><trkpt lat="39.37557053434139" lon="17.048011913282878"><ele>160.33333333333331</ele><time>2026-03-29T08:50:32.999Z</time></trkpt><trkpt lat="39.37548241930152" lon="17.04798378631146"><ele>163.0</ele><time>2026-03-29T08:50:34.999Z</time></trkpt><trkpt lat="39.375423278212914" lon="17.04794816523624"><ele>165.66666666666666</ele><time>2026-03-29T08:50:36.999Z</time></trkpt><trkpt lat="39.375358343331705" lon="17.047880631153795"><ele>168.33333333333334</ele><time>2026-03-29T08:50:38.999Z</time></trkpt><trkpt lat="39.37530034517336" lon="17.0478098694708"><ele>171.0</ele><time>2026-03-29T08:50:41.999Z</time></trkpt><trkpt lat="39.3753509702757" lon="17.047742362029602"><ele>171.0</ele><time>2026-03-29T08:50:43.999Z</time></trkpt><trkpt lat="39.37542568780381" lon="17.04767542604786"><ele>171.0</ele><time>2026-03-29T08:50:45.999Z</time></trkpt><trkpt lat="39.37549767683202" lon="17.04764313115122"><ele>171.0</ele><time>2026-03-29T08:50:47.999Z</time></trkpt><trkpt lat="39.37556270615681" lon="17.047590151323867"><ele>171.0</ele><time>2026-03-29T08:50:49.999Z</time></trkpt><trkpt lat="39.375635507463855" lon="17.047535053155276"><ele>171.0</ele><time>2026-03-29T08:50:51.999Z</time></trkpt><trkpt lat="39.37570055823862" lon="17.047503381583724"><ele>171.0</ele><time>2026-03-29T08:50:53.999Z</time></trkpt><trkpt lat="39.37577498711318" lon="17.047484949724293"><ele>174.0</ele><time>2026-03-29T08:50:55.999Z</time></trkpt><trkpt lat="39.375856841673176" lon="17.047491126099857"><ele>177.0</ele><time>2026-03-29T08:50:57.999Z</time></trkpt><trkpt lat="39.37593586116079" lon="17.047458040269596"><ele>180.0</ele><time>2026-03-29T08:50:59.999Z</time></trkpt><trkpt lat="39.3759440088634" lon="17.047367665086597"><ele>183.0</ele><time>2026-03-29T08:51:04.999Z</time></trkpt><trkpt lat="39.37591110614211" lon="17.047290801338235"><ele>186.0</ele><time>2026-03-29T08:51:06.999Z</time></trkpt><trkpt lat="39.37582827604455" lon="17.047255459143198"><ele>189.0</ele><time>2026-03-29T08:51:08.999Z</time></trkpt><trkpt lat="39.3757209644259" lon="17.047213533455952"><ele>189.0</ele><time>2026-03-29T08:51:10.999Z</time></trkpt><trkpt lat="39.37561499462599" lon="17.04715846801169"><ele>189.0</ele><time>2026-03-29T08:51:12.999Z</time></trkpt><trkpt lat="39.375511766954354" lon="17.047122337039642"><ele>189.0</ele><time>2026-03-29T08:51:14.999Z</time></trkpt><trkpt lat="39.37541422010348" lon="17.04709635719612"><ele>189.0</ele><time>2026-03-29T08:51:16.999Z</time></trkpt><trkpt lat="39.37533969538342" lon="17.047066324154333"><ele>189.0</ele><time>2026-03-29T08:51:18.999Z</time></trkpt><trkpt lat="39.375397722375" lon="17.046978269345807"><ele>189.0</ele><time>2026-03-29T08:51:24.999Z</time></trkpt><trkpt lat="39.375467801028286" lon="17.046931390119042"><ele>189.0</ele><time>2026-03-29T08:51:26.999Z</time></trkpt><trkpt lat="39.37555139649584" lon="17.04691543846381"><ele>189.0</ele><time>2026-03-29T08:51:29.999Z</time></trkpt><trkpt lat="39.37561589814967" lon="17.04692786275341"><ele>189.0</ele><time>2026-03-29T08:51:31.999Z</time></trkpt><trkpt lat="39.37567782661965" lon="17.046951951972126"><ele>189.0</ele><time>2026-03-29T08:51:36.999Z</time></trkpt><trkpt lat="39.37574587294925" lon="17.04696287386986"><ele>189.0</ele><time>2026-03-29T08:52:06.001Z</time></trkpt><trkpt lat="39.375805194541115" lon="17.046993273228516"><ele>189.0</ele><time>2026-03-29T08:52:20.001Z</time></trkpt><trkpt lat="39.375878853825874" lon="17.047038405605633"><ele>193.16666666666666</ele><time>2026-03-29T08:52:30.001Z</time></trkpt><trkpt lat="39.37594607270948" lon="17.04704359349802"><ele>197.33333333333331</ele><time>2026-03-29T08:52:35Z</time></trkpt><trkpt lat="39.3760116274071" lon="17.047030416454522"><ele>201.5</ele><time>2026-03-29T08:53:20Z</time></trkpt><trkpt lat="39.37609931499905" lon="17.047070479566884"><ele>205.66666666666666</ele><time>2026-03-29T08:57:10.998Z</time></trkpt><trkpt lat="39.376112892870175" lon="17.04699038807508"><ele>209.83333333333331</ele><time>2026-03-29T08:58:01.998Z</time></trkpt><trkpt lat="39.37611912901397" lon="17.046868710318904"><ele>214.0</ele><time>2026-03-29T08:58:04.998Z</time></trkpt><trkpt lat="39.376107891847326" lon="17.046775307653654"><ele>213.99999999999997</ele><time>2026-03-29T08:58:06.998Z</time></trkpt><trkpt lat="39.376104602729896" lon="17.04665997892242"><ele>214.0</ele><time>2026-03-29T08:58:08.998Z</time></trkpt><trkpt lat="39.3760773663926" lon="17.046574134881105"><ele>214.0</ele><time>2026-03-29T08:58:10.998Z</time></trkpt><trkpt lat="39.37604047111819" lon="17.046501209439132"><ele>214.0</ele><time>2026-03-29T08:58:13.998Z</time></trkpt><trkpt lat="39.376086765831815" lon="17.046407582407276"><ele>213.99999999999997</ele><time>2026-03-29T08:58:16.998Z</time></trkpt><trkpt lat="39.376148491832204" lon="17.046328864984243"><ele>214.0</ele><time>2026-03-29T08:58:18.998Z</time></trkpt><trkpt lat="39.37619985412348" lon="17.046253339464904"><ele>213.99999999999997</ele><time>2026-03-29T08:58:20.998Z</time></trkpt><trkpt lat="39.376243641950055" lon="17.046191786830693"><ele>214.0</ele><time>2026-03-29T08:58:22.998Z</time></trkpt><trkpt lat="39.376292662669364" lon="17.046127089519167"><ele>214.0</ele><time>2026-03-29T08:58:24.998Z</time></trkpt><trkpt lat="39.37637918961917" lon="17.046078465892467"><ele>214.0</ele><time>2026-03-29T08:58:26.998Z</time></trkpt><trkpt lat="39.37648136411938" lon="17.046041019382244"><ele>213.99999999999997</ele><time>2026-03-29T08:58:28.998Z</time></trkpt><trkpt lat="39.37657039084287" lon="17.04601461574116"><ele>214.0</ele><time>2026-03-29T08:58:30.998Z</time></trkpt><trkpt lat="39.376680786947006" lon="17.04599774630553"><ele>217.79999999999998</ele><time>2026-03-29T08:58:32.998Z</time></trkpt><trkpt lat="39.37678602740937" lon="17.04597691840165"><ele>221.59999999999997</ele><time>2026-03-29T08:58:34.998Z</time></trkpt><trkpt lat="39.376893635699375" lon="17.045954871082603"><ele>225.4</ele><time>2026-03-29T08:58:36.998Z</time></trkpt><trkpt lat="39.37699083953214" lon="17.04594847037435"><ele>229.2</ele><time>2026-03-29T08:58:38.998Z</time></trkpt><trkpt lat="39.37708734545899" lon="17.045928232061996"><ele>233.0</ele><time>2026-03-29T08:58:40.998Z</time></trkpt><trkpt lat="39.37718036070625" lon="17.045916306731936"><ele>235.8</ele><time>2026-03-29T08:58:42.998Z</time></trkpt><trkpt lat="39.37726534500667" lon="17.045937465445405"><ele>238.60000000000002</ele><time>2026-03-29T08:58:44.998Z</time></trkpt><trkpt lat="39.37736745186851" lon="17.045955751535114"><ele>241.39999999999998</ele><time>2026-03-29T08:58:46.998Z</time></trkpt><trkpt lat="39.37746265125626" lon="17.045962490119905"><ele>244.2</ele><time>2026-03-29T08:58:48.998Z</time></trkpt><trkpt lat="39.37755815237422" lon="17.045964101908645"><ele>247.0</ele><time>2026-03-29T08:58:50.998Z</time></trkpt><trkpt lat="39.37764607721657" lon="17.045948070804048"><ele>246.99999999999997</ele><time>2026-03-29T08:58:52.998Z</time></trkpt><trkpt lat="39.37773773990339" lon="17.045908025186577"><ele>247.0</ele><time>2026-03-29T08:58:54.998Z</time></trkpt><trkpt lat="39.37781756422227" lon="17.045855951719957"><ele>247.0</ele><time>2026-03-29T08:58:56.998Z</time></trkpt><trkpt lat="39.37789702627215" lon="17.04583492823524"><ele>247.0</ele><time>2026-03-29T08:58:58.998Z</time></trkpt><trkpt lat="39.37798015448973" lon="17.045819634741356"><ele>246.99999999999997</ele><time>2026-03-29T08:59:00.999Z</time></trkpt><trkpt lat="39.378073046361365" lon="17.04578625388135"><ele>247.0</ele><time>2026-03-29T08:59:02.999Z</time></trkpt><trkpt lat="39.37816555273036" lon="17.045754530822492"><ele>247.66666666666666</ele><time>2026-03-29T08:59:04.999Z</time></trkpt><trkpt lat="39.378264645259925" lon="17.045743974710458"><ele>248.33333333333331</ele><time>2026-03-29T08:59:06.999Z</time></trkpt><trkpt lat="39.378343724481745" lon="17.045731542924678"><ele>249.0</ele><time>2026-03-29T08:59:08.999Z</time></trkpt><trkpt lat="39.37840825436786" lon="17.045756100607562"><ele>249.66666666666669</ele><time>2026-03-29T08:59:14.999Z</time></trkpt><trkpt lat="39.378488202730736" lon="17.045728482469432"><ele>250.33333333333334</ele><time>2026-03-29T08:59:16.999Z</time></trkpt><trkpt lat="39.378574070813784" lon="17.045706840994697"><ele>251.0</ele><time>2026-03-29T08:59:18.999Z</time></trkpt><trkpt lat="39.3786740097367" lon="17.04570867513537"><ele>251.00000000000003</ele><time>2026-03-29T08:59:20.999Z</time></trkpt><trkpt lat="39.37879619638422" lon="17.045729725936084"><ele>251.0</ele><time>2026-03-29T08:59:22.999Z</time></trkpt><trkpt lat="39.37885836432366" lon="17.045749641192486"><ele>251.0</ele><time>2026-03-29T08:59:23.999Z</time></trkpt><trkpt lat="39.378922806942015" lon="17.045772301763268"><ele>251.0</ele><time>2026-03-29T08:59:24.999Z</time></trkpt><trkpt lat="39.37899388845293" lon="17.045799490339054"><ele>251.00000000000003</ele><time>2026-03-29T08:59:25.999Z</time></trkpt><trkpt lat="39.37905718417847" lon="17.045843973143224"><ele>251.0</ele><time>2026-03-29T08:59:26.999Z</time></trkpt><trkpt lat="39.3791234104307" lon="17.045891190735"><ele>254.60000000000002</ele><time>2026-03-29T08:59:27.999Z</time></trkpt><trkpt lat="39.379187448215404" lon="17.04593067408242"><ele>258.20000000000005</ele><time>2026-03-29T08:59:28.999Z</time></trkpt><trkpt lat="39.37929166449176" lon="17.045989970166353"><ele>261.79999999999995</ele><time>2026-03-29T08:59:30.999Z</time></trkpt><trkpt lat="39.379380731461474" lon="17.04600181790091"><ele>265.4</ele><time>2026-03-29T08:59:32.999Z</time></trkpt><trkpt lat="39.37947488331685" lon="17.045954156621537"><ele>269.0</ele><time>2026-03-29T08:59:34.999Z</time></trkpt><trkpt lat="39.37955386357918" lon="17.045893150060717"><ele>269.0</ele><time>2026-03-29T08:59:36.999Z</time></trkpt><trkpt lat="39.379608651625496" lon="17.04583802687405"><ele>269.0</ele><time>2026-03-29T08:59:37.999Z</time></trkpt><trkpt lat="39.37966855351009" lon="17.045776790306697"><ele>269.0</ele><time>2026-03-29T08:59:38.999Z</time></trkpt><trkpt lat="39.379734213875636" lon="17.045719836504933"><ele>269.0</ele><time>2026-03-29T08:59:39.999Z</time></trkpt><trkpt lat="39.379805000198814" lon="17.04566924396044"><ele>269.0</ele><time>2026-03-29T08:59:40.999Z</time></trkpt><trkpt lat="39.37987877894352" lon="17.04563606875668"><ele>269.0</ele><time>2026-03-29T08:59:41.999Z</time></trkpt><trkpt lat="39.379980031715576" lon="17.04561119828412"><ele>275.4</ele><time>2026-03-29T08:59:43.999Z</time></trkpt><trkpt lat="39.38006308612705" lon="17.04558938428178"><ele>281.79999999999995</ele><time>2026-03-29T08:59:45.999Z</time></trkpt><trkpt lat="39.380177053683745" lon="17.045549712953285"><ele>288.20000000000005</ele><time>2026-03-29T08:59:47.999Z</time></trkpt><trkpt lat="39.380230024666474" lon="17.04550117741724"><ele>294.6</ele><time>2026-03-29T08:59:48.999Z</time></trkpt><trkpt lat="39.38031945117931" lon="17.04541331051831"><ele>301.0</ele><time>2026-03-29T08:59:50.999Z</time></trkpt><trkpt lat="39.38039585650026" lon="17.04537423439252"><ele>301.0</ele><time>2026-03-29T08:59:52.999Z</time></trkpt><trkpt lat="39.38048590391519" lon="17.04534847750002"><ele>301.0</ele><time>2026-03-29T08:59:54.999Z</time></trkpt><trkpt lat="39.38061572553351" lon="17.045332763169416"><ele>301.0</ele><time>2026-03-29T08:59:56.999Z</time></trkpt><trkpt lat="39.38068599761929" lon="17.04532285309261"><ele>301.0</ele><time>2026-03-29T08:59:57.999Z</time></trkpt><trkpt lat="39.38076340056477" lon="17.045317381135145"><ele>301.0</ele><time>2026-03-29T08:59:58.999Z</time></trkpt><trkpt lat="39.380827035186684" lon="17.04530563301336"><ele>301.0</ele><time>2026-03-29T08:59:59.999Z</time></trkpt><trkpt lat="39.38093467443207" lon="17.045284476715995"><ele>300.8333333333333</ele><time>2026-03-29T09:00:01.999Z</time></trkpt><trkpt lat="39.38100664957822" lon="17.04527483836946"><ele>300.66666666666663</ele><time>2026-03-29T09:00:03.999Z</time></trkpt><trkpt lat="39.38107452168665" lon="17.045257444995663"><ele>300.5</ele><time>2026-03-29T09:00:07.999Z</time></trkpt><trkpt lat="39.38114757403227" lon="17.045241006567828"><ele>300.3333333333333</ele><time>2026-03-29T09:00:11.999Z</time></trkpt><trkpt lat="39.38122363771792" lon="17.045220924112805"><ele>300.1666666666667</ele><time>2026-03-29T09:00:13.999Z</time></trkpt><trkpt lat="39.381308579729186" lon="17.045193604796967"><ele>300.0</ele><time>2026-03-29T09:00:15.999Z</time></trkpt><trkpt lat="39.38138504439599" lon="17.045176217973527"><ele>301.3333333333333</ele><time>2026-03-29T09:00:17.999Z</time></trkpt><trkpt lat="39.38146957374454" lon="17.04515891534753"><ele>302.6666666666667</ele><time>2026-03-29T09:00:19.999Z</time></trkpt><trkpt lat="39.38158980951396" lon="17.0451401002351"><ele>304.0</ele><time>2026-03-29T09:00:21.999Z</time></trkpt><trkpt lat="39.381657362965235" lon="17.045135223668012"><ele>305.33333333333337</ele><time>2026-03-29T09:00:22.999Z</time></trkpt><trkpt lat="39.38172314701358" lon="17.045137740636328"><ele>306.6666666666667</ele><time>2026-03-29T09:00:23.999Z</time></trkpt><trkpt lat="39.38178668112828" lon="17.04515338863558"><ele>308.0</ele><time>2026-03-29T09:00:24.999Z</time></trkpt><trkpt lat="39.38189315541742" lon="17.045184205537385"><ele>308.0</ele><time>2026-03-29T09:00:26.999Z</time></trkpt><trkpt lat="39.3819945344692" lon="17.04518554020102"><ele>308.0</ele><time>2026-03-29T09:00:28.999Z</time></trkpt><trkpt lat="39.38210049254026" lon="17.045179629054793"><ele>308.0</ele><time>2026-03-29T09:00:30.999Z</time></trkpt><trkpt lat="39.382194507754285" lon="17.045235736238116"><ele>308.0</ele><time>2026-03-29T09:00:32.999Z</time></trkpt><trkpt lat="39.38227269733938" lon="17.04524850783961"><ele>308.0</ele><time>2026-03-29T09:00:34.999Z</time></trkpt><trkpt lat="39.38235741040826" lon="17.045219903672166"><ele>308.6</ele><time>2026-03-29T09:00:36.999Z</time></trkpt><trkpt lat="39.38247951249047" lon="17.045196539726497"><ele>309.20000000000005</ele><time>2026-03-29T09:00:38.999Z</time></trkpt><trkpt lat="39.382580037927326" lon="17.045178569513435"><ele>309.8</ele><time>2026-03-29T09:00:40.999Z</time></trkpt><trkpt lat="39.382680924353394" lon="17.045135797266756"><ele>310.40000000000003</ele><time>2026-03-29T09:00:42.999Z</time></trkpt><trkpt lat="39.38276168559057" lon="17.04506759310581"><ele>311.0</ele><time>2026-03-29T09:00:44.999Z</time></trkpt><trkpt lat="39.38282019873263" lon="17.04503492150219"><ele>311.0</ele><time>2026-03-29T09:00:49.999Z</time></trkpt><trkpt lat="39.38288618232801" lon="17.04498238301777"><ele>311.0</ele><time>2026-03-29T09:00:54.999Z</time></trkpt><trkpt lat="39.382994207016566" lon="17.045008127538257"><ele>311.0</ele><time>2026-03-29T09:00:57.999Z</time></trkpt><trkpt lat="39.383107618304585" lon="17.04503642287156"><ele>311.0</ele><time>2026-03-29T09:00:59.999Z</time></trkpt><trkpt lat="39.38317868796953" lon="17.04505545539784"><ele>311.0</ele><time>2026-03-29T09:01:00.999Z</time></trkpt><trkpt lat="39.38326762264955" lon="17.04508916220545"><ele>309.40000000000003</ele><time>2026-03-29T09:01:01.999Z</time></trkpt><trkpt lat="39.3833607959088" lon="17.045126589953377"><ele>307.8</ele><time>2026-03-29T09:01:02.999Z</time></trkpt><trkpt lat="39.383475222486176" lon="17.045176349364308"><ele>306.20000000000005</ele><time>2026-03-29T09:01:03.999Z</time></trkpt><trkpt lat="39.38358242838168" lon="17.04522060284075"><ele>304.6</ele><time>2026-03-29T09:01:04.999Z</time></trkpt><trkpt lat="39.383690764053775" lon="17.045261619669144"><ele>303.0</ele><time>2026-03-29T09:01:05.999Z</time></trkpt><trkpt lat="39.383792013010705" lon="17.04530112788038"><ele>303.0</ele><time>2026-03-29T09:01:06.999Z</time></trkpt><trkpt lat="39.38389890104927" lon="17.045348577051453"><ele>303.0</ele><time>2026-03-29T09:01:07.999Z</time></trkpt><trkpt lat="39.38398954469043" lon="17.045389265495157"><ele>303.0</ele><time>2026-03-29T09:01:08.999Z</time></trkpt><trkpt lat="39.38407311834668" lon="17.045415678248467"><ele>303.0</ele><time>2026-03-29T09:01:09.999Z</time></trkpt><trkpt lat="39.38417622121422" lon="17.04541311714037"><ele>303.0</ele><time>2026-03-29T09:01:10.999Z</time></trkpt><trkpt lat="39.38426688586378" lon="17.045398733590797"><ele>303.0</ele><time>2026-03-29T09:01:11.999Z</time></trkpt><trkpt lat="39.38435614861059" lon="17.045368141723973"><ele>303.0</ele><time>2026-03-29T09:01:12.999Z</time></trkpt><trkpt lat="39.38444309507458" lon="17.045307087968258"><ele>303.0</ele><time>2026-03-29T09:01:13.999Z</time></trkpt><trkpt lat="39.3845337911738" lon="17.045231766453266"><ele>303.0</ele><time>2026-03-29T09:01:14.999Z</time></trkpt><trkpt lat="39.384621446560104" lon="17.045146736404337"><ele>303.0</ele><time>2026-03-29T09:01:15.999Z</time></trkpt><trkpt lat="39.384695245250455" lon="17.045065650582014"><ele>304.0</ele><time>2026-03-29T09:01:16.999Z</time></trkpt><trkpt lat="39.384756653461245" lon="17.04499736039791"><ele>305.0</ele><time>2026-03-29T09:01:17.999Z</time></trkpt><trkpt lat="39.38479754315187" lon="17.044924081395436"><ele>306.0</ele><time>2026-03-29T09:01:18.999Z</time></trkpt><trkpt lat="39.38484082890885" lon="17.044853330255243"><ele>307.0</ele><time>2026-03-29T09:01:19.999Z</time></trkpt><trkpt lat="39.38487797647574" lon="17.044780133474184"><ele>308.0</ele><time>2026-03-29T09:01:20.999Z</time></trkpt><trkpt lat="39.38492175258607" lon="17.04465767448813"><ele>309.0</ele><time>2026-03-29T09:01:22.999Z</time></trkpt><trkpt lat="39.38495236468383" lon="17.04457595297027"><ele>309.0</ele><time>2026-03-29T09:01:24.999Z</time></trkpt><trkpt lat="39.38499487119279" lon="17.04450696169974"><ele>309.0</ele><time>2026-03-29T09:01:26.999Z</time></trkpt><trkpt lat="39.38503430250993" lon="17.044440104431985"><ele>309.0</ele><time>2026-03-29T09:01:28.999Z</time></trkpt><trkpt lat="39.38509786262487" lon="17.044451745189527"><ele>309.0</ele><time>2026-03-29T09:01:30.999Z</time></trkpt><trkpt lat="39.385174664115276" lon="17.04440466013755"><ele>309.0</ele><time>2026-03-29T09:01:32.999Z</time></trkpt><trkpt lat="39.38526829694838" lon="17.044296829477943"><ele>309.0</ele><time>2026-03-29T09:01:34.999Z</time></trkpt><trkpt lat="39.38532629347401" lon="17.044231973038777"><ele>309.0</ele><time>2026-03-29T09:01:35.999Z</time></trkpt><trkpt lat="39.385387378933615" lon="17.044163663018924"><ele>309.0</ele><time>2026-03-29T09:01:36.999Z</time></trkpt><trkpt lat="39.38544486941034" lon="17.044099373158335"><ele>309.0</ele><time>2026-03-29T09:01:37.999Z</time></trkpt><trkpt lat="39.385464737087226" lon="17.0439886427183"><ele>309.0</ele><time>2026-03-29T09:01:38.999Z</time></trkpt><trkpt lat="39.38549704641071" lon="17.04390147530937"><ele>309.0</ele><time>2026-03-29T09:01:39.999Z</time></trkpt><trkpt lat="39.38552823682215" lon="17.043803776863445"><ele>309.0</ele><time>2026-03-29T09:01:40.999Z</time></trkpt><trkpt lat="39.38556501233328" lon="17.043706392997205"><ele>309.42857142857144</ele><time>2026-03-29T09:01:41.999Z</time></trkpt><trkpt lat="39.3856030504344" lon="17.043615658360775"><ele>309.8571428571429</ele><time>2026-03-29T09:01:42.999Z</time></trkpt><trkpt lat="39.385636536213845" lon="17.043532442892822"><ele>310.28571428571433</ele><time>2026-03-29T09:01:43.999Z</time></trkpt><trkpt lat="39.3856638884751" lon="17.043455775783894"><ele>310.7142857142857</ele><time>2026-03-29T09:01:44.999Z</time></trkpt><trkpt lat="39.38568624645394" lon="17.043377942799342"><ele>311.1428571428571</ele><time>2026-03-29T09:01:45.999Z</time></trkpt><trkpt lat="39.38570235557449" lon="17.043295831041004"><ele>311.5714285714286</ele><time>2026-03-29T09:01:46.999Z</time></trkpt><trkpt lat="39.38572092669804" lon="17.04321636034824"><ele>312.0</ele><time>2026-03-29T09:01:47.999Z</time></trkpt><trkpt lat="39.385757189180865" lon="17.043068742979052"><ele>312.0</ele><time>2026-03-29T09:01:49.999Z</time></trkpt><trkpt lat="39.38577908234927" lon="17.042940245869588"><ele>312.0</ele><time>2026-03-29T09:01:51.999Z</time></trkpt><trkpt lat="39.385812266358826" lon="17.042836429741797"><ele>312.0</ele><time>2026-03-29T09:01:53.999Z</time></trkpt><trkpt lat="39.38589351917566" lon="17.042799751481347"><ele>312.0</ele><time>2026-03-29T09:01:55.999Z</time></trkpt><trkpt lat="39.385946139430985" lon="17.042849449864168"><ele>312.0</ele><time>2026-03-29T09:01:56.999Z</time></trkpt><trkpt lat="39.38601022694119" lon="17.042850037874135"><ele>312.0</ele><time>2026-03-29T09:01:57.999Z</time></trkpt><trkpt lat="39.386075227541326" lon="17.042852153695723"><ele>312.0</ele><time>2026-03-29T09:01:58.999Z</time></trkpt><trkpt lat="39.38614065632016" lon="17.042855903114457"><ele>312.0</ele><time>2026-03-29T09:01:59.999Z</time></trkpt><trkpt lat="39.38626034517576" lon="17.0428660183979"><ele>312.0</ele><time>2026-03-29T09:02:01.999Z</time></trkpt><trkpt lat="39.38637747444678" lon="17.042902888034064"><ele>312.0</ele><time>2026-03-29T09:02:03.999Z</time></trkpt><trkpt lat="39.386475326175635" lon="17.042979037529097"><ele>312.0</ele><time>2026-03-29T09:02:05.999Z</time></trkpt><trkpt lat="39.38652869147287" lon="17.04302311021535"><ele>311.3333333333333</ele><time>2026-03-29T09:02:06.999Z</time></trkpt><trkpt lat="39.3865915964643" lon="17.04306515505641"><ele>310.6666666666667</ele><time>2026-03-29T09:02:07.999Z</time></trkpt><trkpt lat="39.386692881665184" lon="17.043161665303078"><ele>310.0</ele><time>2026-03-29T09:02:09.999Z</time></trkpt><trkpt lat="39.386747698529774" lon="17.04322855373907"><ele>309.33333333333337</ele><time>2026-03-29T09:02:10.999Z</time></trkpt><trkpt lat="39.38678073672047" lon="17.043311820471647"><ele>308.6666666666667</ele><time>2026-03-29T09:02:11.999Z</time></trkpt><trkpt lat="39.386808938552264" lon="17.043392372449468"><ele>308.0</ele><time>2026-03-29T09:02:12.999Z</time></trkpt><trkpt lat="39.38685614995634" lon="17.043527116177952"><ele>308.0</ele><time>2026-03-29T09:02:14.999Z</time></trkpt><trkpt lat="39.386904102393935" lon="17.043635843478455"><ele>308.0</ele><time>2026-03-29T09:02:16.999Z</time></trkpt><trkpt lat="39.38694299595255" lon="17.043746123518098"><ele>308.0</ele><time>2026-03-29T09:02:18.999Z</time></trkpt><trkpt lat="39.38698971647381" lon="17.04383377240132"><ele>308.0</ele><time>2026-03-29T09:02:20.999Z</time></trkpt><trkpt lat="39.38704251206192" lon="17.043899843158783"><ele>308.0</ele><time>2026-03-29T09:02:23.999Z</time></trkpt><trkpt lat="39.3871125271252" lon="17.043960235462585"><ele>308.0</ele><time>2026-03-29T09:02:25.999Z</time></trkpt><trkpt lat="39.387186892637935" lon="17.044023172019774"><ele>305.4</ele><time>2026-03-29T09:02:27.999Z</time></trkpt><trkpt lat="39.38727556831731" lon="17.04409640341427"><ele>302.8</ele><time>2026-03-29T09:02:29.999Z</time></trkpt><trkpt lat="39.38734737139134" lon="17.044201689773498"><ele>300.2</ele><time>2026-03-29T09:02:31.999Z</time></trkpt><trkpt lat="39.387471439808174" lon="17.04421897595047"><ele>297.6</ele><time>2026-03-29T09:02:33.999Z</time></trkpt><trkpt lat="39.38754109082364" lon="17.044204773623285"><ele>295.0</ele><time>2026-03-29T09:02:34.999Z</time></trkpt><trkpt lat="39.38760597813914" lon="17.0441851578049"><ele>295.0</ele><time>2026-03-29T09:02:35.999Z</time></trkpt><trkpt lat="39.387719457553956" lon="17.04416048878036"><ele>295.0</ele><time>2026-03-29T09:02:37.999Z</time></trkpt><trkpt lat="39.38781356284592" lon="17.044152627024495"><ele>295.0</ele><time>2026-03-29T09:02:39.999Z</time></trkpt><trkpt lat="39.38787988736215" lon="17.04415374645715"><ele>295.0</ele><time>2026-03-29T09:02:41.999Z</time></trkpt><trkpt lat="39.3879893464178" lon="17.044214241371915"><ele>295.0</ele><time>2026-03-29T09:02:44.999Z</time></trkpt><trkpt lat="39.38812698674687" lon="17.044319227513007"><ele>293.66666666666663</ele><time>2026-03-29T09:02:46.999Z</time></trkpt><trkpt lat="39.38821762912698" lon="17.044271166290073"><ele>292.3333333333333</ele><time>2026-03-29T09:02:47.999Z</time></trkpt><trkpt lat="39.388278576242186" lon="17.044205423138052"><ele>291.0</ele><time>2026-03-29T09:02:48.999Z</time></trkpt><trkpt lat="39.38833669288434" lon="17.044140252806542"><ele>289.6666666666667</ele><time>2026-03-29T09:02:49.999Z</time></trkpt><trkpt lat="39.388386027175294" lon="17.044088849600232"><ele>288.33333333333337</ele><time>2026-03-29T09:02:50.999Z</time></trkpt><trkpt lat="39.38841417109743" lon="17.044010054138415"><ele>287.0</ele><time>2026-03-29T09:02:52.999Z</time></trkpt><trkpt lat="39.388504793542225" lon="17.04396675115933"><ele>287.0</ele><time>2026-03-29T09:02:54.999Z</time></trkpt><trkpt lat="39.3885893007575" lon="17.04405861010674"><ele>287.0</ele><time>2026-03-29T09:02:56.999Z</time></trkpt><trkpt lat="39.388640204950974" lon="17.044156331738417"><ele>287.0</ele><time>2026-03-29T09:02:57.999Z</time></trkpt><trkpt lat="39.388712680157774" lon="17.044174751210008"><ele>287.0</ele><time>2026-03-29T09:02:58.999Z</time></trkpt><trkpt lat="39.388790310608734" lon="17.044189019274377"><ele>287.0</ele><time>2026-03-29T09:02:59.999Z</time></trkpt><trkpt lat="39.38886160136064" lon="17.044199264514678"><ele>287.0</ele><time>2026-03-29T09:03:00.999Z</time></trkpt><trkpt lat="39.38892874394518" lon="17.04421835859132"><ele>287.0</ele><time>2026-03-29T09:03:01.999Z</time></trkpt><trkpt lat="39.38904569970567" lon="17.04424976086675"><ele>287.0</ele><time>2026-03-29T09:03:02.999Z</time></trkpt><trkpt lat="39.38913187280397" lon="17.044198471208322"><ele>287.0</ele><time>2026-03-29T09:03:03.999Z</time></trkpt><trkpt lat="39.38920567149661" lon="17.04413763577077"><ele>287.0</ele><time>2026-03-29T09:03:04.999Z</time></trkpt><trkpt lat="39.38927689945767" lon="17.044080327827103"><ele>287.0</ele><time>2026-03-29T09:03:05.999Z</time></trkpt><trkpt lat="39.38934304346253" lon="17.044029520443747"><ele>283.4</ele><time>2026-03-29T09:03:06.999Z</time></trkpt><trkpt lat="39.38942922551998" lon="17.043986788784043"><ele>279.79999999999995</ele><time>2026-03-29T09:03:07.999Z</time></trkpt><trkpt lat="39.38952611978327" lon="17.04391047670431"><ele>276.2</ele><time>2026-03-29T09:03:08.999Z</time></trkpt><trkpt lat="39.38960119115417" lon="17.043830340094296"><ele>272.59999999999997</ele><time>2026-03-29T09:03:09.999Z</time></trkpt><trkpt lat="39.389666169778174" lon="17.04377055546693"><ele>269.0</ele><time>2026-03-29T09:03:10.999Z</time></trkpt><trkpt lat="39.38975150994229" lon="17.04371927006056"><ele>269.0</ele><time>2026-03-29T09:03:11.999Z</time></trkpt><trkpt lat="39.38983919345803" lon="17.0436608289467"><ele>269.0</ele><time>2026-03-29T09:03:12.999Z</time></trkpt><trkpt lat="39.389921238681104" lon="17.04360475893481"><ele>269.0</ele><time>2026-03-29T09:03:13.999Z</time></trkpt><trkpt lat="39.39000539509334" lon="17.043540374432265"><ele>269.0</ele><time>2026-03-29T09:03:14.999Z</time></trkpt><trkpt lat="39.390086361775964" lon="17.043465712753974"><ele>269.0</ele><time>2026-03-29T09:03:15.999Z</time></trkpt><trkpt lat="39.39015665726635" lon="17.043373163288646"><ele>266.6666666666667</ele><time>2026-03-29T09:03:16.999Z</time></trkpt><trkpt lat="39.39020505660167" lon="17.04328066485458"><ele>264.33333333333337</ele><time>2026-03-29T09:03:17.999Z</time></trkpt><trkpt lat="39.390252248820026" lon="17.043175503672984"><ele>262.0</ele><time>2026-03-29T09:03:18.999Z</time></trkpt><trkpt lat="39.39028869887415" lon="17.043073656069755"><ele>259.6666666666667</ele><time>2026-03-29T09:03:19.999Z</time></trkpt><trkpt lat="39.390317402476775" lon="17.042972076996932"><ele>257.3333333333333</ele><time>2026-03-29T09:03:20.999Z</time></trkpt><trkpt lat="39.39033141538786" lon="17.042868604330618"><ele>255.0</ele><time>2026-03-29T09:03:21.999Z</time></trkpt><trkpt lat="39.3903172997695" lon="17.042774929283556"><ele>255.0</ele><time>2026-03-29T09:03:22.999Z</time></trkpt><trkpt lat="39.390265583584416" lon="17.042712204052997"><ele>255.0</ele><time>2026-03-29T09:03:23.999Z</time></trkpt><trkpt lat="39.390196405100134" lon="17.0426302791632"><ele>255.0</ele><time>2026-03-29T09:03:25.999Z</time></trkpt><trkpt lat="39.39013034454347" lon="17.042594825266427"><ele>255.0</ele><time>2026-03-29T09:03:27.999Z</time></trkpt><trkpt lat="39.39006454066599" lon="17.042548980163524"><ele>255.0</ele><time>2026-03-29T09:03:30.999Z</time></trkpt><trkpt lat="39.39010175450751" lon="17.042251966966216"><ele>250.2</ele><time>2026-03-29T09:03:33.999Z</time></trkpt><trkpt lat="39.39015295266402" lon="17.042181861180044"><ele>245.4</ele><time>2026-03-29T09:03:35.999Z</time></trkpt><trkpt lat="39.39020855712085" lon="17.042092573370404"><ele>240.60000000000002</ele><time>2026-03-29T09:03:37.999Z</time></trkpt><trkpt lat="39.39028939925024" lon="17.042023896461828"><ele>235.8</ele><time>2026-03-29T09:03:39.999Z</time></trkpt><trkpt lat="39.390382829973795" lon="17.042004504278392"><ele>231.0</ele><time>2026-03-29T09:03:41.999Z</time></trkpt><trkpt lat="39.390488468628035" lon="17.042025883730247"><ele>232.16666666666666</ele><time>2026-03-29T09:03:43.999Z</time></trkpt><trkpt lat="39.39061265038451" lon="17.042021366871445"><ele>233.33333333333331</ele><time>2026-03-29T09:03:45.999Z</time></trkpt><trkpt lat="39.390711916946266" lon="17.041986239242345"><ele>234.5</ele><time>2026-03-29T09:03:47.998Z</time></trkpt><trkpt lat="39.390782508899406" lon="17.04195745287951"><ele>235.66666666666666</ele><time>2026-03-29T09:03:49.998Z</time></trkpt><trkpt lat="39.39084182878173" lon="17.04192839487252"><ele>236.83333333333331</ele><time>2026-03-29T09:03:52.998Z</time></trkpt><trkpt lat="39.3908977896115" lon="17.041891000555644"><ele>238.0</ele><time>2026-03-29T09:03:55.998Z</time></trkpt><trkpt lat="39.390980696901046" lon="17.04184534092298"><ele>238.0</ele><time>2026-03-29T09:03:57.998Z</time></trkpt><trkpt lat="39.39106746291971" lon="17.04178659229978"><ele>238.0</ele><time>2026-03-29T09:03:59.998Z</time></trkpt><trkpt lat="39.39117136452723" lon="17.041722182600825"><ele>238.0</ele><time>2026-03-29T09:04:01.998Z</time></trkpt><trkpt lat="39.39125815798858" lon="17.041612920546125"><ele>238.0</ele><time>2026-03-29T09:04:03.998Z</time></trkpt><trkpt lat="39.39133544809457" lon="17.041523141564426"><ele>238.0</ele><time>2026-03-29T09:04:05.998Z</time></trkpt><trkpt lat="39.39140384464727" lon="17.04143018371342"><ele>234.60000000000002</ele><time>2026-03-29T09:04:07.998Z</time></trkpt><trkpt lat="39.391449395287424" lon="17.04129731520526"><ele>231.20000000000002</ele><time>2026-03-29T09:04:09.998Z</time></trkpt><trkpt lat="39.39149457482786" lon="17.04116598625896"><ele>227.8</ele><time>2026-03-29T09:04:11.998Z</time></trkpt><trkpt lat="39.39151576215301" lon="17.041059649271475"><ele>224.4</ele><time>2026-03-29T09:04:13.998Z</time></trkpt><trkpt lat="39.39154285145644" lon="17.04094764159727"><ele>221.0</ele><time>2026-03-29T09:04:15.998Z</time></trkpt><trkpt lat="39.39157400460557" lon="17.040828259014393"><ele>218.0</ele><time>2026-03-29T09:04:17.998Z</time></trkpt><trkpt lat="39.39163679240121" lon="17.040745163552597"><ele>215.00000000000003</ele><time>2026-03-29T09:04:19.998Z</time></trkpt><trkpt lat="39.3916984222496" lon="17.040663800112355"><ele>212.0</ele><time>2026-03-29T09:04:21.998Z</time></trkpt><trkpt lat="39.3917771070157" lon="17.040590363080984"><ele>209.0</ele><time>2026-03-29T09:04:23.998Z</time></trkpt><trkpt lat="39.39185675666222" lon="17.04054603709353"><ele>206.0</ele><time>2026-03-29T09:04:25.998Z</time></trkpt><trkpt lat="39.391938499801235" lon="17.040499870659715"><ele>206.00000000000003</ele><time>2026-03-29T09:04:27.998Z</time></trkpt><trkpt lat="39.39203011627515" lon="17.040473046060875"><ele>206.0</ele><time>2026-03-29T09:04:29.998Z</time></trkpt><trkpt lat="39.39211867339674" lon="17.040450725491805"><ele>206.0</ele><time>2026-03-29T09:04:31.998Z</time></trkpt><trkpt lat="39.3922010939611" lon="17.040458340320406"><ele>206.0</ele><time>2026-03-29T09:04:33.998Z</time></trkpt><trkpt lat="39.39227146931307" lon="17.040442325088804"><ele>206.00000000000003</ele><time>2026-03-29T09:04:35.998Z</time></trkpt><trkpt lat="39.39233782602195" lon="17.040419405300533"><ele>206.0</ele><time>2026-03-29T09:04:37.998Z</time></trkpt><trkpt lat="39.3923995744501" lon="17.040396551957436"><ele>204.16666666666669</ele><time>2026-03-29T09:04:39.998Z</time></trkpt><trkpt lat="39.392469664107296" lon="17.04034986135076"><ele>202.33333333333334</ele><time>2026-03-29T09:04:42.998Z</time></trkpt><trkpt lat="39.39253848366472" lon="17.040330697600346"><ele>200.5</ele><time>2026-03-29T09:04:48.998Z</time></trkpt><trkpt lat="39.39259400422416" lon="17.040283274004175"><ele>198.66666666666669</ele><time>2026-03-29T09:04:53.998Z</time></trkpt><trkpt lat="39.3926519129372" lon="17.040248903505493"><ele>196.83333333333334</ele><time>2026-03-29T09:04:56.998Z</time></trkpt><trkpt lat="39.39272888888333" lon="17.040214814308072"><ele>195.0</ele><time>2026-03-29T09:04:59.998Z</time></trkpt><trkpt lat="39.39285795656527" lon="17.040223398676"><ele>195.0</ele><time>2026-03-29T09:05:04.998Z</time></trkpt><trkpt lat="39.39290956007695" lon="17.040276425322254"><ele>195.0</ele><time>2026-03-29T09:05:06.998Z</time></trkpt><trkpt lat="39.3929497006305" lon="17.040350216970133"><ele>195.0</ele><time>2026-03-29T09:05:08.998Z</time></trkpt><trkpt lat="39.39300055172228" lon="17.040410753229974"><ele>195.0</ele><time>2026-03-29T09:05:10.998Z</time></trkpt><trkpt lat="39.3930443059294" lon="17.040481896850878"><ele>195.0</ele><time>2026-03-29T09:05:13.998Z</time></trkpt><trkpt lat="39.39310880862548" lon="17.04057020573323"><ele>195.0</ele><time>2026-03-29T09:05:16.998Z</time></trkpt><trkpt lat="39.39315886587821" lon="17.040640472432905"><ele>195.0</ele><time>2026-03-29T09:05:19.998Z</time></trkpt><trkpt lat="39.39321892126211" lon="17.040704338360523"><ele>191.5</ele><time>2026-03-29T09:05:23.998Z</time></trkpt><trkpt lat="39.39328301967101" lon="17.04071721227323"><ele>188.0</ele><time>2026-03-29T09:05:25.998Z</time></trkpt><trkpt lat="39.39334664579806" lon="17.04072294382866"><ele>184.5</ele><time>2026-03-29T09:05:27.998Z</time></trkpt><trkpt lat="39.39342202877565" lon="17.040725234014204"><ele>181.0</ele><time>2026-03-29T09:05:29.998Z</time></trkpt><trkpt lat="39.39352569684143" lon="17.040732435496885"><ele>177.5</ele><time>2026-03-29T09:05:31.998Z</time></trkpt><trkpt lat="39.393626482709585" lon="17.040725196343114"><ele>174.0</ele><time>2026-03-29T09:05:33.998Z</time></trkpt><trkpt lat="39.39369174403954" lon="17.040741902207174"><ele>174.0</ele><time>2026-03-29T09:05:35.998Z</time></trkpt><trkpt lat="39.39375557035873" lon="17.04076250187314"><ele>174.0</ele><time>2026-03-29T09:05:41.998Z</time></trkpt><trkpt lat="39.39382819733301" lon="17.040756892440847"><ele>174.0</ele><time>2026-03-29T09:05:49.998Z</time></trkpt><trkpt lat="39.393907443629274" lon="17.04073334491387"><ele>174.0</ele><time>2026-03-29T09:05:53.998Z</time></trkpt><trkpt lat="39.39398623378373" lon="17.040712636167516"><ele>174.0</ele><time>2026-03-29T09:05:56.998Z</time></trkpt><trkpt lat="39.39404629475572" lon="17.040684343225834"><ele>174.0</ele><time>2026-03-29T09:05:58.998Z</time></trkpt><trkpt lat="39.394120310457566" lon="17.040653394706577"><ele>174.0</ele><time>2026-03-29T09:06:00.998Z</time></trkpt><trkpt lat="39.3941963122385" lon="17.040634705622814"><ele>174.16666666666666</ele><time>2026-03-29T09:06:02.998Z</time></trkpt><trkpt lat="39.39426420393989" lon="17.040637606166523"><ele>174.33333333333334</ele><time>2026-03-29T09:06:04.998Z</time></trkpt><trkpt lat="39.39435782333441" lon="17.04063451296661"><ele>174.5</ele><time>2026-03-29T09:06:08.001Z</time></trkpt><trkpt lat="39.39441883704737" lon="17.04067263940606"><ele>174.66666666666669</ele><time>2026-03-29T09:06:10.001Z</time></trkpt><trkpt lat="39.394484371988156" lon="17.04071573066324"><ele>174.83333333333334</ele><time>2026-03-29T09:06:12.001Z</time></trkpt><trkpt lat="39.394555175840324" lon="17.040753262858164"><ele>175.0</ele><time>2026-03-29T09:06:14.001Z</time></trkpt><trkpt lat="39.394622100799175" lon="17.040811034728517"><ele>175.0</ele><time>2026-03-29T09:06:16.001Z</time></trkpt><trkpt lat="39.39465373303405" lon="17.040886722240344"><ele>175.0</ele><time>2026-03-29T09:06:18.001Z</time></trkpt><trkpt lat="39.39468336790818" lon="17.040961057425815"><ele>175.0</ele><time>2026-03-29T09:06:21.001Z</time></trkpt><trkpt lat="39.39471901137735" lon="17.041033247552004"><ele>175.0</ele><time>2026-03-29T09:06:25.001Z</time></trkpt><trkpt lat="39.39476799151096" lon="17.04111410295258"><ele>175.0</ele><time>2026-03-29T09:06:29Z</time></trkpt><trkpt lat="39.394823422704896" lon="17.041169229418976"><ele>175.0</ele><time>2026-03-29T09:06:33Z</time></trkpt><trkpt lat="39.39487891321806" lon="17.041225558301605"><ele>175.0</ele><time>2026-03-29T09:06:54Z</time></trkpt><trkpt lat="39.39493172642798" lon="17.041270332933898"><ele>172.85714285714286</ele><time>2026-03-29T09:07:42Z</time></trkpt><trkpt lat="39.394998855473645" lon="17.041298226790634"><ele>170.71428571428572</ele><time>2026-03-29T09:08:48.999Z</time></trkpt><trkpt lat="39.39506391231" lon="17.041285865913775"><ele>168.57142857142856</ele><time>2026-03-29T09:09:07.999Z</time></trkpt><trkpt lat="39.39512850935827" lon="17.041274452134726"><ele>166.42857142857144</ele><time>2026-03-29T09:09:31.999Z</time></trkpt><trkpt lat="39.39518445485339" lon="17.041221932751796"><ele>164.28571428571428</ele><time>2026-03-29T09:09:43.999Z</time></trkpt><trkpt lat="39.39528571509014" lon="17.041256801649332"><ele>162.14285714285714</ele><time>2026-03-29T09:10:16.999Z</time></trkpt><trkpt lat="39.39535183355179" lon="17.041266772773135"><ele>160.0</ele><time>2026-03-29T09:10:56.999Z</time></trkpt><trkpt lat="39.39538224015327" lon="17.041188296402293"><ele>160.0</ele><time>2026-03-29T09:11:06.999Z</time></trkpt><trkpt lat="39.39541434845966" lon="17.04111146295408"><ele>160.0</ele><time>2026-03-29T09:11:13.999Z</time></trkpt><trkpt lat="39.3954665427132" lon="17.04103927448182"><ele>160.0</ele><time>2026-03-29T09:11:17.999Z</time></trkpt><trkpt lat="39.395497136738825" lon="17.040953377757447"><ele>160.0</ele><time>2026-03-29T09:11:20.999Z</time></trkpt><trkpt lat="39.39551155022804" lon="17.04086170012707"><ele>160.0</ele><time>2026-03-29T09:11:23.999Z</time></trkpt><trkpt lat="39.39554165263184" lon="17.04075983683156"><ele>160.0</ele><time>2026-03-29T09:11:26.999Z</time></trkpt><trkpt lat="39.395583996087915" lon="17.04068758680834"><ele>160.0</ele><time>2026-03-29T09:11:29.999Z</time></trkpt><trkpt lat="39.395659096863874" lon="17.040671079045755"><ele>155.71428571428572</ele><time>2026-03-29T09:11:33.999Z</time></trkpt><trkpt lat="39.39572200555894" lon="17.040686556452858"><ele>151.42857142857144</ele><time>2026-03-29T09:11:35.999Z</time></trkpt><trkpt lat="39.39579181911766" lon="17.040687713196082"><ele>147.14285714285717</ele><time>2026-03-29T09:11:37.998Z</time></trkpt><trkpt lat="39.395859809852794" lon="17.040687182239825"><ele>142.85714285714286</ele><time>2026-03-29T09:11:39.998Z</time></trkpt><trkpt lat="39.39594131377743" lon="17.04063660601343"><ele>138.57142857142858</ele><time>2026-03-29T09:11:42.998Z</time></trkpt><trkpt lat="39.39599059798969" lon="17.04057232903362"><ele>134.2857142857143</ele><time>2026-03-29T09:11:44.998Z</time></trkpt><trkpt lat="39.396031278424935" lon="17.04050841979753"><ele>130.0</ele><time>2026-03-29T09:11:46.998Z</time></trkpt><trkpt lat="39.39606497983288" lon="17.040422946995015"><ele>130.0</ele><time>2026-03-29T09:11:49.998Z</time></trkpt><trkpt lat="39.39610778741384" lon="17.04035711870658"><ele>130.0</ele><time>2026-03-29T09:11:51.998Z</time></trkpt><trkpt lat="39.39617883037282" lon="17.04031675599402"><ele>130.0</ele><time>2026-03-29T09:11:54.998Z</time></trkpt><trkpt lat="39.39624698154081" lon="17.040354871480783"><ele>130.0</ele><time>2026-03-29T09:11:58.998Z</time></trkpt><trkpt lat="39.396326849407366" lon="17.040399067305835"><ele>130.0</ele><time>2026-03-29T09:12:02.998Z</time></trkpt><trkpt lat="39.39638996228834" lon="17.040470000575212"><ele>130.0</ele><time>2026-03-29T09:12:05.998Z</time></trkpt><trkpt lat="39.39642576389345" lon="17.040544518822315"><ele>129.85714285714286</ele><time>2026-03-29T09:12:08.998Z</time></trkpt><trkpt lat="39.39641498448376" lon="17.040631624934036"><ele>129.71428571428572</ele><time>2026-03-29T09:12:13.998Z</time></trkpt><trkpt lat="39.39642589408701" lon="17.040713189718755"><ele>129.57142857142856</ele><time>2026-03-29T09:12:19.998Z</time></trkpt><trkpt lat="39.39638886525667" lon="17.040787548067858"><ele>129.42857142857144</ele><time>2026-03-29T09:12:29.998Z</time></trkpt><trkpt lat="39.396368978151116" lon="17.04086999190598"><ele>129.28571428571428</ele><time>2026-03-29T09:12:39.998Z</time></trkpt><trkpt lat="39.39642917727652" lon="17.040902848776835"><ele>129.14285714285714</ele><time>2026-03-29T09:12:51.998Z</time></trkpt><trkpt lat="39.39649778567218" lon="17.040842907939957"><ele>129.0</ele><time>2026-03-29T09:12:54.998Z</time></trkpt><trkpt lat="39.396545028166564" lon="17.040761979310997"><ele>129.0</ele><time>2026-03-29T09:12:57.998Z</time></trkpt><trkpt lat="39.39659223714222" lon="17.040662990236708"><ele>129.0</ele><time>2026-03-29T09:13:00.998Z</time></trkpt><trkpt lat="39.39662969473513" lon="17.04057331625489"><ele>129.0</ele><time>2026-03-29T09:13:02.998Z</time></trkpt><trkpt lat="39.3966730256376" lon="17.040494203433354"><ele>129.0</ele><time>2026-03-29T09:13:04.998Z</time></trkpt><trkpt lat="39.39673050029012" lon="17.04042412860565"><ele>129.0</ele><time>2026-03-29T09:13:06.998Z</time></trkpt><trkpt lat="39.39679199483159" lon="17.040357036487123"><ele>129.0</ele><time>2026-03-29T09:13:08.998Z</time></trkpt><trkpt lat="39.39683061786674" lon="17.040241483301195"><ele>129.0</ele><time>2026-03-29T09:13:11.998Z</time></trkpt><trkpt lat="39.39681486979227" lon="17.040122204584215"><ele>129.0</ele><time>2026-03-29T09:13:14.001Z</time></trkpt><trkpt lat="39.3967702720753" lon="17.04002170524303"><ele>129.0</ele><time>2026-03-29T09:13:16.001Z</time></trkpt><trkpt lat="39.39672445456748" lon="17.03992981970404"><ele>129.0</ele><time>2026-03-29T09:13:18.001Z</time></trkpt><trkpt lat="39.39669756539614" lon="17.039850671113545"><ele>129.0</ele><time>2026-03-29T09:13:20.001Z</time></trkpt><trkpt lat="39.396753000633375" lon="17.039770139488315"><ele>129.0</ele><time>2026-03-29T09:13:23.001Z</time></trkpt><trkpt lat="39.396824600345965" lon="17.039766392221644"><ele>130.83333333333334</ele><time>2026-03-29T09:13:25.001Z</time></trkpt><trkpt lat="39.39690011983586" lon="17.03977586904234"><ele>132.66666666666666</ele><time>2026-03-29T09:13:27.001Z</time></trkpt><trkpt lat="39.3969654813761" lon="17.03977436968947"><ele>134.5</ele><time>2026-03-29T09:13:29.001Z</time></trkpt><trkpt lat="39.39700610526999" lon="17.03968977674707"><ele>136.33333333333331</ele><time>2026-03-29T09:13:31.001Z</time></trkpt><trkpt lat="39.39701089925651" lon="17.039576529429123"><ele>138.16666666666666</ele><time>2026-03-29T09:13:33.001Z</time></trkpt><trkpt lat="39.3970242494672" lon="17.039445493584147"><ele>140.0</ele><time>2026-03-29T09:13:35.001Z</time></trkpt><trkpt lat="39.39698344253439" lon="17.03931735525288"><ele>140.0</ele><time>2026-03-29T09:13:37.001Z</time></trkpt><trkpt lat="39.39696170416065" lon="17.039231646892766"><ele>140.0</ele><time>2026-03-29T09:13:39.001Z</time></trkpt><trkpt lat="39.39692609704931" lon="17.03916236160611"><ele>140.0</ele><time>2026-03-29T09:13:42.001Z</time></trkpt><trkpt lat="39.39687394556447" lon="17.0391118230509"><ele>140.0</ele><time>2026-03-29T09:13:44.001Z</time></trkpt><trkpt lat="39.396818913510145" lon="17.039051724438274"><ele>140.0</ele><time>2026-03-29T09:13:46Z</time></trkpt><trkpt lat="39.39681795296203" lon="17.03895403745176"><ele>140.0</ele><time>2026-03-29T09:13:48Z</time></trkpt><trkpt lat="39.396834251822526" lon="17.03886394191454"><ele>140.0</ele><time>2026-03-29T09:13:50Z</time></trkpt><trkpt lat="39.396851111437044" lon="17.038756053667694"><ele>142.8</ele><time>2026-03-29T09:13:53Z</time></trkpt><trkpt lat="39.396866717055396" lon="17.038640153274663"><ele>145.6</ele><time>2026-03-29T09:13:56Z</time></trkpt><trkpt lat="39.396893226290146" lon="17.03853279459638"><ele>148.4</ele><time>2026-03-29T09:13:58Z</time></trkpt><trkpt lat="39.39693739734716" lon="17.038415543855294"><ele>151.2</ele><time>2026-03-29T09:14:00Z</time></trkpt><trkpt lat="39.39698888217296" lon="17.038287596361602"><ele>154.0</ele><time>2026-03-29T09:14:02Z</time></trkpt><trkpt lat="39.39704132928839" lon="17.038142955818394"><ele>155.16666666666669</ele><time>2026-03-29T09:14:04Z</time></trkpt><trkpt lat="39.397074514671914" lon="17.038067108151747"><ele>156.33333333333334</ele><time>2026-03-29T09:14:05Z</time></trkpt><trkpt lat="39.39710111881503" lon="17.037987767890197"><ele>157.5</ele><time>2026-03-29T09:14:06Z</time></trkpt><trkpt lat="39.39712318973266" lon="17.03790905538512"><ele>158.66666666666666</ele><time>2026-03-29T09:14:07Z</time></trkpt><trkpt lat="39.39717006638737" lon="17.03776893605325"><ele>159.83333333333331</ele><time>2026-03-29T09:14:09Z</time></trkpt><trkpt lat="39.39721972923884" lon="17.037653055060407"><ele>161.0</ele><time>2026-03-29T09:14:11Z</time></trkpt><trkpt lat="39.397255856919905" lon="17.037545203104326"><ele>163.16666666666666</ele><time>2026-03-29T09:14:13Z</time></trkpt><trkpt lat="39.397276365624265" lon="17.037441575306758"><ele>165.33333333333331</ele><time>2026-03-29T09:14:15Z</time></trkpt><trkpt lat="39.39726595963197" lon="17.037334730237806"><ele>167.5</ele><time>2026-03-29T09:14:17Z</time></trkpt><trkpt lat="39.397254432430415" lon="17.037244869626708"><ele>169.66666666666666</ele><time>2026-03-29T09:14:19Z</time></trkpt><trkpt lat="39.39722885472442" lon="17.037136887256153"><ele>171.83333333333334</ele><time>2026-03-29T09:14:21Z</time></trkpt><trkpt lat="39.397163328915845" lon="17.037017000981503"><ele>174.0</ele><time>2026-03-29T09:14:23Z</time></trkpt><trkpt lat="39.39710304746973" lon="17.03689960386464"><ele>174.0</ele><time>2026-03-29T09:14:25Z</time></trkpt><trkpt lat="39.39702521532254" lon="17.03679939194386"><ele>174.0</ele><time>2026-03-29T09:14:27Z</time></trkpt><trkpt lat="39.39694867921937" lon="17.036700058544596"><ele>174.0</ele><time>2026-03-29T09:14:29Z</time></trkpt><trkpt lat="39.39687531884024" lon="17.0366033072541"><ele>174.0</ele><time>2026-03-29T09:14:30.999Z</time></trkpt><trkpt lat="39.396796733365015" lon="17.036486680031643"><ele>174.0</ele><time>2026-03-29T09:14:32.999Z</time></trkpt><trkpt lat="39.39673988841013" lon="17.036350650402696"><ele>176.79999999999998</ele><time>2026-03-29T09:14:34.999Z</time></trkpt><trkpt lat="39.39668123118" lon="17.036234232155355"><ele>179.6</ele><time>2026-03-29T09:14:36.999Z</time></trkpt><trkpt lat="39.39663354349517" lon="17.036122889326304"><ele>182.4</ele><time>2026-03-29T09:14:38.999Z</time></trkpt><trkpt lat="39.39658088128735" lon="17.03600606256106"><ele>185.2</ele><time>2026-03-29T09:14:40.999Z</time></trkpt><trkpt lat="39.39651867747814" lon="17.03589477751641"><ele>188.0</ele><time>2026-03-29T09:14:42.999Z</time></trkpt><trkpt lat="39.39648353000739" lon="17.0357905722597"><ele>190.33333333333331</ele><time>2026-03-29T09:14:44.999Z</time></trkpt><trkpt lat="39.39646430706511" lon="17.035684635387874"><ele>192.66666666666666</ele><time>2026-03-29T09:14:46.999Z</time></trkpt><trkpt lat="39.3964736508436" lon="17.03558356617165"><ele>195.0</ele><time>2026-03-29T09:14:48.999Z</time></trkpt><trkpt lat="39.39649751865137" lon="17.03549102244905"><ele>197.33333333333331</ele><time>2026-03-29T09:14:51.999Z</time></trkpt><trkpt lat="39.39652006383191" lon="17.035395489582108"><ele>199.66666666666666</ele><time>2026-03-29T09:14:53.999Z</time></trkpt><trkpt lat="39.3965162237443" lon="17.03529563992299"><ele>202.0</ele><time>2026-03-29T09:14:55.999Z</time></trkpt><trkpt lat="39.39650644175345" lon="17.035176038461053"><ele>201.99999999999997</ele><time>2026-03-29T09:14:57.999Z</time></trkpt><trkpt lat="39.39650543349887" lon="17.03504520459501"><ele>202.0</ele><time>2026-03-29T09:14:59.999Z</time></trkpt><trkpt lat="39.39649978858412" lon="17.03495642173464"><ele>202.0</ele><time>2026-03-29T09:15:01.999Z</time></trkpt><trkpt lat="39.396465101735004" lon="17.03484383308616"><ele>202.0</ele><time>2026-03-29T09:15:03.999Z</time></trkpt><trkpt lat="39.39641270991606" lon="17.0347558148585"><ele>201.99999999999997</ele><time>2026-03-29T09:15:05.999Z</time></trkpt><trkpt lat="39.396381909883274" lon="17.03468160556269"><ele>202.0</ele><time>2026-03-29T09:15:10.999Z</time></trkpt><trkpt lat="39.396357153051724" lon="17.034577723861823"><ele>202.49999999999997</ele><time>2026-03-29T09:15:12.999Z</time></trkpt><trkpt lat="39.39635230068069" lon="17.034490251229727"><ele>203.0</ele><time>2026-03-29T09:15:13.999Z</time></trkpt><trkpt lat="39.39634719054658" lon="17.034395407316087"><ele>203.5</ele><time>2026-03-29T09:15:14.999Z</time></trkpt><trkpt lat="39.39635135486002" lon="17.03430247275702"><ele>204.0</ele><time>2026-03-29T09:15:15.999Z</time></trkpt><trkpt lat="39.396364329657885" lon="17.0342024564972"><ele>204.49999999999997</ele><time>2026-03-29T09:15:16.999Z</time></trkpt><trkpt lat="39.396369219211586" lon="17.03402894302861"><ele>205.0</ele><time>2026-03-29T09:15:18.999Z</time></trkpt><trkpt lat="39.39637103594609" lon="17.03393487919066"><ele>205.0</ele><time>2026-03-29T09:15:19.999Z</time></trkpt><trkpt lat="39.39639759751339" lon="17.03384543190029"><ele>205.0</ele><time>2026-03-29T09:15:20.999Z</time></trkpt><trkpt lat="39.39643928473283" lon="17.033744918192717"><ele>205.0</ele><time>2026-03-29T09:15:21.999Z</time></trkpt><trkpt lat="39.39645945144467" lon="17.033620194589727"><ele>205.0</ele><time>2026-03-29T09:15:22.999Z</time></trkpt><trkpt lat="39.396451895331246" lon="17.033503540529477"><ele>205.0</ele><time>2026-03-29T09:15:23.999Z</time></trkpt><trkpt lat="39.39642368142125" lon="17.033373579237526"><ele>204.66666666666666</ele><time>2026-03-29T09:15:24.999Z</time></trkpt><trkpt lat="39.39640374859028" lon="17.03325898456379"><ele>204.33333333333331</ele><time>2026-03-29T09:15:25.999Z</time></trkpt><trkpt lat="39.3963832008844" lon="17.033154731789196"><ele>204.0</ele><time>2026-03-29T09:15:26.999Z</time></trkpt><trkpt lat="39.3963706964603" lon="17.033038243311594"><ele>203.66666666666669</ele><time>2026-03-29T09:15:27.999Z</time></trkpt><trkpt lat="39.39636191365652" lon="17.032923506913015"><ele>203.33333333333334</ele><time>2026-03-29T09:15:28.999Z</time></trkpt><trkpt lat="39.39636490874038" lon="17.032802413154577"><ele>203.0</ele><time>2026-03-29T09:15:29.999Z</time></trkpt><trkpt lat="39.39637723063522" lon="17.032694824669413"><ele>203.00000000000003</ele><time>2026-03-29T09:15:30.999Z</time></trkpt><trkpt lat="39.39639840987966" lon="17.032584657106252"><ele>203.0</ele><time>2026-03-29T09:15:31.999Z</time></trkpt><trkpt lat="39.396417457816185" lon="17.03247515883274"><ele>203.0</ele><time>2026-03-29T09:15:32.999Z</time></trkpt><trkpt lat="39.396435228020025" lon="17.032371232491506"><ele>203.0</ele><time>2026-03-29T09:15:33.999Z</time></trkpt><trkpt lat="39.396447930968705" lon="17.03227144371585"><ele>203.00000000000003</ele><time>2026-03-29T09:15:34.999Z</time></trkpt><trkpt lat="39.39646043365565" lon="17.032183664571765"><ele>203.0</ele><time>2026-03-29T09:15:35.999Z</time></trkpt><trkpt lat="39.39648420663183" lon="17.03202204182199"><ele>200.42857142857142</ele><time>2026-03-29T09:15:37.999Z</time></trkpt><trkpt lat="39.39649425959588" lon="17.031931719491375"><ele>197.85714285714286</ele><time>2026-03-29T09:15:38.999Z</time></trkpt><trkpt lat="39.39649621229003" lon="17.03184181894536"><ele>195.28571428571428</ele><time>2026-03-29T09:15:39.999Z</time></trkpt><trkpt lat="39.39649775588902" lon="17.031756065917143"><ele>192.71428571428572</ele><time>2026-03-29T09:15:40.999Z</time></trkpt><trkpt lat="39.39649633970036" lon="17.031674328599454"><ele>190.14285714285714</ele><time>2026-03-29T09:15:41.999Z</time></trkpt><trkpt lat="39.39650250291791" lon="17.03159166853871"><ele>187.57142857142856</ele><time>2026-03-29T09:15:42.999Z</time></trkpt><trkpt lat="39.39651590495577" lon="17.031507879984066"><ele>185.0</ele><time>2026-03-29T09:15:43.999Z</time></trkpt><trkpt lat="39.396560113489855" lon="17.031360481014598"><ele>181.25</ele><time>2026-03-29T09:15:45.999Z</time></trkpt><trkpt lat="39.39662734602644" lon="17.031232840682787"><ele>177.5</ele><time>2026-03-29T09:15:47.999Z</time></trkpt><trkpt lat="39.39671698508296" lon="17.03111961863531"><ele>173.75</ele><time>2026-03-29T09:15:49.999Z</time></trkpt><trkpt lat="39.39680422322592" lon="17.03101046425806"><ele>170.0</ele><time>2026-03-29T09:15:51.999Z</time></trkpt><trkpt lat="39.39687326957808" lon="17.030887598653646"><ele>167.4</ele><time>2026-03-29T09:15:53.999Z</time></trkpt><trkpt lat="39.396942361134975" lon="17.03076693856699"><ele>164.8</ele><time>2026-03-29T09:15:55.999Z</time></trkpt><trkpt lat="39.3970199693181" lon="17.03064679152236"><ele>162.2</ele><time>2026-03-29T09:15:57.999Z</time></trkpt><trkpt lat="39.39710428227184" lon="17.03053036634548"><ele>159.6</ele><time>2026-03-29T09:15:59.999Z</time></trkpt><trkpt lat="39.39716035728809" lon="17.030488430487654"><ele>157.0</ele><time>2026-03-29T09:16:00.999Z</time></trkpt><trkpt lat="39.397218388836976" lon="17.030444864668393"><ele>156.99999999999997</ele><time>2026-03-29T09:16:01.999Z</time></trkpt><trkpt lat="39.39727907329949" lon="17.030409416734944"><ele>157.0</ele><time>2026-03-29T09:16:02.999Z</time></trkpt><trkpt lat="39.397341987472494" lon="17.030383219794146"><ele>157.0</ele><time>2026-03-29T09:16:03.999Z</time></trkpt><trkpt lat="39.39741490816212" lon="17.030381125804546"><ele>157.0</ele><time>2026-03-29T09:16:04.999Z</time></trkpt><trkpt lat="39.39749139310643" lon="17.030372659090048"><ele>157.0</ele><time>2026-03-29T09:16:05.999Z</time></trkpt><trkpt lat="39.39756698482126" lon="17.030362867708263"><ele>156.99999999999997</ele><time>2026-03-29T09:16:06.999Z</time></trkpt><trkpt lat="39.39763792903994" lon="17.03035877769782"><ele>157.0</ele><time>2026-03-29T09:16:07.999Z</time></trkpt><trkpt lat="39.397754923635105" lon="17.030332569459155"><ele>157.0</ele><time>2026-03-29T09:16:09.999Z</time></trkpt><trkpt lat="39.397869353653164" lon="17.030263115417828"><ele>157.0</ele><time>2026-03-29T09:16:11.999Z</time></trkpt><trkpt lat="39.39795880195505" lon="17.030209856430236"><ele>157.0</ele><time>2026-03-29T09:16:13.999Z</time></trkpt><trkpt lat="39.39802548531658" lon="17.030163674171433"><ele>157.0</ele><time>2026-03-29T09:16:15.999Z</time></trkpt><trkpt lat="39.398053054568564" lon="17.030085009392792"><ele>157.0</ele><time>2026-03-29T09:16:17.999Z</time></trkpt><trkpt lat="39.3980844174308" lon="17.03000930897204"><ele>157.0</ele><time>2026-03-29T09:16:19.999Z</time></trkpt><trkpt lat="39.39812269103367" lon="17.029926615187115"><ele>153.2</ele><time>2026-03-29T09:16:21.999Z</time></trkpt><trkpt lat="39.3981787263676" lon="17.029848743295815"><ele>149.39999999999998</ele><time>2026-03-29T09:16:23.999Z</time></trkpt><trkpt lat="39.39826923349422" lon="17.029775776177164"><ele>145.60000000000002</ele><time>2026-03-29T09:16:25.999Z</time></trkpt><trkpt lat="39.39836787408228" lon="17.029687838587076"><ele>141.8</ele><time>2026-03-29T09:16:27.998Z</time></trkpt><trkpt lat="39.39845998840117" lon="17.029603625659043"><ele>138.0</ele><time>2026-03-29T09:16:29.998Z</time></trkpt><trkpt lat="39.39854381066668" lon="17.02952374541187"><ele>138.0</ele><time>2026-03-29T09:16:31.998Z</time></trkpt><trkpt lat="39.39862352324236" lon="17.02944133708739"><ele>138.0</ele><time>2026-03-29T09:16:33.998Z</time></trkpt><trkpt lat="39.398703240102776" lon="17.02937350406118"><ele>138.0</ele><time>2026-03-29T09:16:35.998Z</time></trkpt><trkpt lat="39.398795360006005" lon="17.029314820727684"><ele>138.0</ele><time>2026-03-29T09:16:37.998Z</time></trkpt><trkpt lat="39.398902183123084" lon="17.0292516237245"><ele>138.0</ele><time>2026-03-29T09:16:39.998Z</time></trkpt><trkpt lat="39.39900730650994" lon="17.029218760568984"><ele>136.83333333333334</ele><time>2026-03-29T09:16:41.998Z</time></trkpt><trkpt lat="39.399123550598524" lon="17.029198432011345"><ele>135.66666666666666</ele><time>2026-03-29T09:16:43.998Z</time></trkpt><trkpt lat="39.39918992325369" lon="17.029182751879233"><ele>134.5</ele><time>2026-03-29T09:16:44.998Z</time></trkpt><trkpt lat="39.399255247133915" lon="17.0291806653027"><ele>133.33333333333331</ele><time>2026-03-29T09:16:45.998Z</time></trkpt><trkpt lat="39.39934369929606" lon="17.029163329928018"><ele>132.16666666666666</ele><time>2026-03-29T09:16:47.998Z</time></trkpt><trkpt lat="39.399404036197275" lon="17.029137181093297"><ele>131.0</ele><time>2026-03-29T09:16:49.998Z</time></trkpt><trkpt lat="39.39947425770322" lon="17.02909719790984"><ele>129.0</ele><time>2026-03-29T09:16:51.998Z</time></trkpt><trkpt lat="39.39955747037488" lon="17.029019190797033"><ele>127.0</ele><time>2026-03-29T09:16:53.998Z</time></trkpt><trkpt lat="39.39964670435392" lon="17.02891797501779"><ele>125.0</ele><time>2026-03-29T09:16:55.998Z</time></trkpt><trkpt lat="39.39973471010749" lon="17.028822473535"><ele>123.0</ele><time>2026-03-29T09:16:57.998Z</time></trkpt><trkpt lat="39.399830533236866" lon="17.028712210477966"><ele>121.66666666666667</ele><time>2026-03-29T09:16:59.998Z</time></trkpt><trkpt lat="39.39987902858669" lon="17.028650977160133"><ele>120.33333333333334</ele><time>2026-03-29T09:17:00.998Z</time></trkpt><trkpt lat="39.39995800608467" lon="17.02855178784992"><ele>119.0</ele><time>2026-03-29T09:17:02.998Z</time></trkpt><trkpt lat="39.40002736624193" lon="17.02849642379432"><ele>117.66666666666667</ele><time>2026-03-29T09:17:05.998Z</time></trkpt><trkpt lat="39.40007825512024" lon="17.028439313232095"><ele>116.33333333333334</ele><time>2026-03-29T09:17:08.998Z</time></trkpt><trkpt lat="39.400149610866364" lon="17.02838012147486"><ele>115.0</ele><time>2026-03-29T09:17:12.998Z</time></trkpt><trkpt lat="39.40020275849502" lon="17.028334066850064"><ele>113.33333333333334</ele><time>2026-03-29T09:17:14.998Z</time></trkpt><trkpt lat="39.40027058009391" lon="17.028296483881615"><ele>111.66666666666667</ele><time>2026-03-29T09:17:17.998Z</time></trkpt><trkpt lat="39.400322246546466" lon="17.02824683482199"><ele>110.0</ele><time>2026-03-29T09:17:20.998Z</time></trkpt><trkpt lat="39.400390559179904" lon="17.028170807497577"><ele>108.33333333333334</ele><time>2026-03-29T09:17:23.998Z</time></trkpt><trkpt lat="39.40043635751627" lon="17.028109598081457"><ele>106.66666666666667</ele><time>2026-03-29T09:17:25.998Z</time></trkpt><trkpt lat="39.40048351278269" lon="17.028038794868294"><ele>105.0</ele><time>2026-03-29T09:17:27.998Z</time></trkpt><trkpt lat="39.40054439417434" lon="17.027957754761957"><ele>102.0</ele><time>2026-03-29T09:17:30.998Z</time></trkpt><trkpt lat="39.40061443520832" lon="17.02790342143521"><ele>99.0</ele><time>2026-03-29T09:17:33.998Z</time></trkpt><trkpt lat="39.400671583718484" lon="17.027864629824673"><ele>96.0</ele><time>2026-03-29T09:17:36.998Z</time></trkpt><trkpt lat="39.40075916147328" lon="17.02781682613923"><ele>93.0</ele><time>2026-03-29T09:17:44.998Z</time></trkpt><trkpt lat="39.40083863445356" lon="17.027804363496557"><ele>90.0</ele><time>2026-03-29T09:17:47.998Z</time></trkpt><trkpt lat="39.40090785332454" lon="17.02776458153179"><ele>87.0</ele><time>2026-03-29T09:17:49.998Z</time></trkpt><trkpt lat="39.400966386084264" lon="17.027723490362693"><ele>87.0</ele><time>2026-03-29T09:17:51.998Z</time></trkpt><trkpt lat="39.40104569392227" lon="17.02769404844733"><ele>87.0</ele><time>2026-03-29T09:17:53.998Z</time></trkpt><trkpt lat="39.40116495633019" lon="17.027626492035907"><ele>87.0</ele><time>2026-03-29T09:17:55.998Z</time></trkpt><trkpt lat="39.40122634614337" lon="17.027596709834768"><ele>87.0</ele><time>2026-03-29T09:17:56.998Z</time></trkpt><trkpt lat="39.40128219741767" lon="17.027553221592086"><ele>87.0</ele><time>2026-03-29T09:17:57.998Z</time></trkpt><trkpt lat="39.40136314763586" lon="17.027484482796904"><ele>87.0</ele><time>2026-03-29T09:17:59.998Z</time></trkpt><trkpt lat="39.401438339014526" lon="17.02756301873806"><ele>85.16666666666667</ele><time>2026-03-29T09:18:02.998Z</time></trkpt><trkpt lat="39.40145298783379" lon="17.02764730434074"><ele>83.33333333333333</ele><time>2026-03-29T09:18:03.998Z</time></trkpt><trkpt lat="39.40148290597822" lon="17.027781030392767"><ele>81.5</ele><time>2026-03-29T09:18:05.998Z</time></trkpt><trkpt lat="39.40152085020809" lon="17.027900152098535"><ele>79.66666666666666</ele><time>2026-03-29T09:18:07.998Z</time></trkpt><trkpt lat="39.40155528348679" lon="17.027987494139108"><ele>77.83333333333333</ele><time>2026-03-29T09:18:09.998Z</time></trkpt><trkpt lat="39.40163219981554" lon="17.027966817967467"><ele>76.0</ele><time>2026-03-29T09:18:11.998Z</time></trkpt><trkpt lat="39.40172322781196" lon="17.0278971857673"><ele>76.0</ele><time>2026-03-29T09:18:13.998Z</time></trkpt><trkpt lat="39.401810827025756" lon="17.02781563061214"><ele>76.0</ele><time>2026-03-29T09:18:15.998Z</time></trkpt><trkpt lat="39.40189379647111" lon="17.027766447455853"><ele>76.0</ele><time>2026-03-29T09:18:17.998Z</time></trkpt><trkpt lat="39.401973505072675" lon="17.027723870583934"><ele>76.0</ele><time>2026-03-29T09:18:19.998Z</time></trkpt><trkpt lat="39.40205887351232" lon="17.027689766461812"><ele>76.0</ele><time>2026-03-29T09:18:21.998Z</time></trkpt><trkpt lat="39.40213142234124" lon="17.027640898246993"><ele>74.39999999999999</ele><time>2026-03-29T09:18:23.998Z</time></trkpt><trkpt lat="39.402199261221476" lon="17.027591572303795"><ele>72.8</ele><time>2026-03-29T09:18:25.998Z</time></trkpt><trkpt lat="39.40225480037437" lon="17.02751127623742"><ele>71.19999999999999</ele><time>2026-03-29T09:18:27.998Z</time></trkpt><trkpt lat="39.40235208418939" lon="17.027450444821397"><ele>69.6</ele><time>2026-03-29T09:18:29.998Z</time></trkpt><trkpt lat="39.40245190503101" lon="17.027363774828483"><ele>68.0</ele><time>2026-03-29T09:18:31.998Z</time></trkpt><trkpt lat="39.40254800619038" lon="17.027285153877894"><ele>67.75</ele><time>2026-03-29T09:18:33.998Z</time></trkpt><trkpt lat="39.40265120506499" lon="17.02723504525657"><ele>67.5</ele><time>2026-03-29T09:18:35.998Z</time></trkpt><trkpt lat="39.40276737862228" lon="17.027214289299163"><ele>67.25</ele><time>2026-03-29T09:18:37.998Z</time></trkpt><trkpt lat="39.40287049593372" lon="17.027308692307358"><ele>67.0</ele><time>2026-03-29T09:18:39.998Z</time></trkpt><trkpt lat="39.4029770718545" lon="17.027393811460886"><ele>67.16666666666666</ele><time>2026-03-29T09:18:41.998Z</time></trkpt><trkpt lat="39.403040385756015" lon="17.027424186803625"><ele>67.33333333333333</ele><time>2026-03-29T09:18:42.998Z</time></trkpt><trkpt lat="39.403100580662475" lon="17.027469264990007"><ele>67.5</ele><time>2026-03-29T09:18:43.998Z</time></trkpt><trkpt lat="39.40316062543204" lon="17.027517754937588"><ele>67.66666666666667</ele><time>2026-03-29T09:18:44.998Z</time></trkpt><trkpt lat="39.40321662957503" lon="17.02755898380957"><ele>67.83333333333334</ele><time>2026-03-29T09:18:45.998Z</time></trkpt><trkpt lat="39.403309080291194" lon="17.02765125847393"><ele>68.0</ele><time>2026-03-29T09:18:47.998Z</time></trkpt><trkpt lat="39.403388096206456" lon="17.027765130043118"><ele>68.0</ele><time>2026-03-29T09:18:49.998Z</time></trkpt><trkpt lat="39.40342120816581" lon="17.02791945239496"><ele>68.0</ele><time>2026-03-29T09:18:51.998Z</time></trkpt><trkpt lat="39.403438797256605" lon="17.028045641964965"><ele>68.0</ele><time>2026-03-29T09:18:53.998Z</time></trkpt><trkpt lat="39.40348275654832" lon="17.0281389221982"><ele>68.0</ele><time>2026-03-29T09:18:55.998Z</time></trkpt><trkpt lat="39.4035167937268" lon="17.02823161463107"><ele>68.0</ele><time>2026-03-29T09:18:57.998Z</time></trkpt><trkpt lat="39.40355625772601" lon="17.028319492265858"><ele>68.0</ele><time>2026-03-29T09:19:00.998Z</time></trkpt><trkpt lat="39.40362791626423" lon="17.028289346469837"><ele>68.0</ele><time>2026-03-29T09:19:03.998Z</time></trkpt><trkpt lat="39.40369652699484" lon="17.028235114304756"><ele>68.0</ele><time>2026-03-29T09:19:05.998Z</time></trkpt><trkpt lat="39.403722252599664" lon="17.028089856179932"><ele>68.0</ele><time>2026-03-29T09:19:07.998Z</time></trkpt><trkpt lat="39.40373743571806" lon="17.02798668530546"><ele>68.0</ele><time>2026-03-29T09:19:08.998Z</time></trkpt><trkpt lat="39.403742907559625" lon="17.027875795267896"><ele>68.0</ele><time>2026-03-29T09:19:09.998Z</time></trkpt><trkpt lat="39.40373952714866" lon="17.027781075700446"><ele>68.0</ele><time>2026-03-29T09:19:10.998Z</time></trkpt><trkpt lat="39.40374888443106" lon="17.027661792664002"><ele>68.0</ele><time>2026-03-29T09:19:12.997Z</time></trkpt><trkpt lat="39.40377448281786" lon="17.027583549702392"><ele>68.0</ele><time>2026-03-29T09:19:15.997Z</time></trkpt><trkpt lat="39.403815024039694" lon="17.027505164250304"><ele>68.0</ele><time>2026-03-29T09:19:18.997Z</time></trkpt><trkpt lat="39.403846187839285" lon="17.027433595573132"><ele>68.0</ele><time>2026-03-29T09:19:20.997Z</time></trkpt><trkpt lat="39.40375777363202" lon="17.027276667046856"><ele>68.0</ele><time>2026-03-29T09:19:22.997Z</time></trkpt><trkpt lat="39.40366358052259" lon="17.027166513165067"><ele>68.75</ele><time>2026-03-29T09:19:23.997Z</time></trkpt><trkpt lat="39.403582238907546" lon="17.027046484758017"><ele>69.5</ele><time>2026-03-29T09:19:24.997Z</time></trkpt><trkpt lat="39.40349425832807" lon="17.02694198542637"><ele>70.25</ele><time>2026-03-29T09:19:25.997Z</time></trkpt><trkpt lat="39.4034004887414" lon="17.026840286603893"><ele>71.0</ele><time>2026-03-29T09:19:26.997Z</time></trkpt><trkpt lat="39.40330171214197" lon="17.02673987226384"><ele>71.0</ele><time>2026-03-29T09:19:27.997Z</time></trkpt><trkpt lat="39.40319339396077" lon="17.026658805640587"><ele>71.0</ele><time>2026-03-29T09:19:28.997Z</time></trkpt><trkpt lat="39.40310022310976" lon="17.02656893124728"><ele>71.0</ele><time>2026-03-29T09:19:29.997Z</time></trkpt><trkpt lat="39.403007984678275" lon="17.026477360374166"><ele>71.0</ele><time>2026-03-29T09:19:30.997Z</time></trkpt><trkpt lat="39.40292052640784" lon="17.02636568431309"><ele>70.75</ele><time>2026-03-29T09:19:31.997Z</time></trkpt><trkpt lat="39.4028566530105" lon="17.026229476356757"><ele>70.5</ele><time>2026-03-29T09:19:32.997Z</time></trkpt><trkpt lat="39.40280940099196" lon="17.0260834949883"><ele>70.25</ele><time>2026-03-29T09:19:33.997Z</time></trkpt><trkpt lat="39.4027487118676" lon="17.025954640913927"><ele>70.0</ele><time>2026-03-29T09:19:34.997Z</time></trkpt><trkpt lat="39.402699210063496" lon="17.025818851649603"><ele>71.0</ele><time>2026-03-29T09:19:35.997Z</time></trkpt><trkpt lat="39.402645820864755" lon="17.025680829348712"><ele>72.0</ele><time>2026-03-29T09:19:36.997Z</time></trkpt><trkpt lat="39.402612127410165" lon="17.025526788754842"><ele>73.0</ele><time>2026-03-29T09:19:37.997Z</time></trkpt><trkpt lat="39.4025736859686" lon="17.025373874297173"><ele>74.0</ele><time>2026-03-29T09:19:38.997Z</time></trkpt><trkpt lat="39.40253746044146" lon="17.025230955560126"><ele>74.0</ele><time>2026-03-29T09:19:39.997Z</time></trkpt><trkpt lat="39.402512402302165" lon="17.02509558145816"><ele>74.0</ele><time>2026-03-29T09:19:40.997Z</time></trkpt><trkpt lat="39.40249510322957" lon="17.02496777147616"><ele>74.0</ele><time>2026-03-29T09:19:41.997Z</time></trkpt><trkpt lat="39.40246162539115" lon="17.024847359786378"><ele>74.0</ele><time>2026-03-29T09:19:42.997Z</time></trkpt><trkpt lat="39.40241539061406" lon="17.024729093838673"><ele>74.0</ele><time>2026-03-29T09:19:43.997Z</time></trkpt><trkpt lat="39.40234803088339" lon="17.02461114433237"><ele>73.5</ele><time>2026-03-29T09:19:44.997Z</time></trkpt><trkpt lat="39.4022566317351" lon="17.024489302280305"><ele>73.0</ele><time>2026-03-29T09:19:45.997Z</time></trkpt><trkpt lat="39.40217056894974" lon="17.024355044956398"><ele>72.5</ele><time>2026-03-29T09:19:46.997Z</time></trkpt><trkpt lat="39.402085756551855" lon="17.02422561064731"><ele>72.0</ele><time>2026-03-29T09:19:47.997Z</time></trkpt><trkpt lat="39.40198923415619" lon="17.024105191496552"><ele>73.0</ele><time>2026-03-29T09:19:48.997Z</time></trkpt><trkpt lat="39.401894471532444" lon="17.023973221465567"><ele>74.0</ele><time>2026-03-29T09:19:49.997Z</time></trkpt><trkpt lat="39.40180071076774" lon="17.023849110341718"><ele>75.0</ele><time>2026-03-29T09:19:50.997Z</time></trkpt><trkpt lat="39.401707512746846" lon="17.023733527299694"><ele>76.0</ele><time>2026-03-29T09:19:51.997Z</time></trkpt><trkpt lat="39.40162130522237" lon="17.02362196282709"><ele>76.0</ele><time>2026-03-29T09:19:52.997Z</time></trkpt><trkpt lat="39.4015342068258" lon="17.023509938432692"><ele>76.0</ele><time>2026-03-29T09:19:53.997Z</time></trkpt><trkpt lat="39.401429579149216" lon="17.0234151946869"><ele>76.0</ele><time>2026-03-29T09:19:54.997Z</time></trkpt><trkpt lat="39.40131686692738" lon="17.023339474240867"><ele>76.0</ele><time>2026-03-29T09:19:55.997Z</time></trkpt><trkpt lat="39.401203187837815" lon="17.023272165111102"><ele>77.75</ele><time>2026-03-29T09:19:56.997Z</time></trkpt><trkpt lat="39.40108386342475" lon="17.023220968509644"><ele>79.5</ele><time>2026-03-29T09:19:57.997Z</time></trkpt><trkpt lat="39.400961121850905" lon="17.023172820761964"><ele>81.25</ele><time>2026-03-29T09:19:58.997Z</time></trkpt><trkpt lat="39.40084663222481" lon="17.023114909293728"><ele>83.0</ele><time>2026-03-29T09:19:59.997Z</time></trkpt><trkpt lat="39.40073980863951" lon="17.023062073363494"><ele>83.0</ele><time>2026-03-29T09:20:00.997Z</time></trkpt><trkpt lat="39.400645195443396" lon="17.02300185703991"><ele>83.0</ele><time>2026-03-29T09:20:01.997Z</time></trkpt><trkpt lat="39.40054739349918" lon="17.022950212094912"><ele>83.0</ele><time>2026-03-29T09:20:02.997Z</time></trkpt><trkpt lat="39.400442913721236" lon="17.022886802698505"><ele>83.0</ele><time>2026-03-29T09:20:03.997Z</time></trkpt><trkpt lat="39.40032994945109" lon="17.02281342956811"><ele>82.75</ele><time>2026-03-29T09:20:04.997Z</time></trkpt><trkpt lat="39.40021582442957" lon="17.02273398173549"><ele>82.5</ele><time>2026-03-29T09:20:05.997Z</time></trkpt><trkpt lat="39.40010490180708" lon="17.022650413549748"><ele>82.25</ele><time>2026-03-29T09:20:06.997Z</time></trkpt><trkpt lat="39.39999315616272" lon="17.02256438837238"><ele>82.0</ele><time>2026-03-29T09:20:07.997Z</time></trkpt><trkpt lat="39.39988132836251" lon="17.022478942614935"><ele>82.0</ele><time>2026-03-29T09:20:08.997Z</time></trkpt><trkpt lat="39.399770658937044" lon="17.022385481952572"><ele>82.0</ele><time>2026-03-29T09:20:09.997Z</time></trkpt><trkpt lat="39.39966526519201" lon="17.022300452261213"><ele>82.0</ele><time>2026-03-29T09:20:10.997Z</time></trkpt><trkpt lat="39.399574955896945" lon="17.022216685661963"><ele>82.0</ele><time>2026-03-29T09:20:11.997Z</time></trkpt><trkpt lat="39.39948941361011" lon="17.022145009547355"><ele>82.0</ele><time>2026-03-29T09:20:12.997Z</time></trkpt><trkpt lat="39.399409525626886" lon="17.022068171656684"><ele>82.0</ele><time>2026-03-29T09:20:13.997Z</time></trkpt><trkpt lat="39.39934059361618" lon="17.0219784606521"><ele>82.0</ele><time>2026-03-29T09:20:14.997Z</time></trkpt><trkpt lat="39.39929355732762" lon="17.02186446602762"><ele>82.0</ele><time>2026-03-29T09:20:15.997Z</time></trkpt><trkpt lat="39.399251182532986" lon="17.021736453067533"><ele>82.0</ele><time>2026-03-29T09:20:16.997Z</time></trkpt><trkpt lat="39.39922344310568" lon="17.02160009756507"><ele>82.0</ele><time>2026-03-29T09:20:17.997Z</time></trkpt><trkpt lat="39.39919369064389" lon="17.0214708128539"><ele>82.0</ele><time>2026-03-29T09:20:19Z</time></trkpt><trkpt lat="39.39916024402386" lon="17.02134754781747"><ele>82.0</ele><time>2026-03-29T09:20:20Z</time></trkpt><trkpt lat="39.39912937381314" lon="17.021223141855508"><ele>82.0</ele><time>2026-03-29T09:20:21Z</time></trkpt><trkpt lat="39.399100445646965" lon="17.02109807922195"><ele>82.0</ele><time>2026-03-29T09:20:22Z</time></trkpt><trkpt lat="39.39906964187552" lon="17.020972811557268"><ele>82.0</ele><time>2026-03-29T09:20:23Z</time></trkpt><trkpt lat="39.399041012993614" lon="17.020846605881022"><ele>82.0</ele><time>2026-03-29T09:20:24Z</time></trkpt><trkpt lat="39.39901989719134" lon="17.02072015562294"><ele>82.0</ele><time>2026-03-29T09:20:25Z</time></trkpt><trkpt lat="39.39900283036723" lon="17.02059138334099"><ele>82.0</ele><time>2026-03-29T09:20:26Z</time></trkpt><trkpt lat="39.39898397435712" lon="17.020459727159963"><ele>82.0</ele><time>2026-03-29T09:20:27Z</time></trkpt><trkpt lat="39.39896444015876" lon="17.020322536126752"><ele>82.39999999999999</ele><time>2026-03-29T09:20:28Z</time></trkpt><trkpt lat="39.39894512356371" lon="17.020185596121784"><ele>82.8</ele><time>2026-03-29T09:20:29Z</time></trkpt><trkpt lat="39.398923604084914" lon="17.02004990181276"><ele>83.2</ele><time>2026-03-29T09:20:30Z</time></trkpt><trkpt lat="39.3989029642887" lon="17.019915914780793"><ele>83.6</ele><time>2026-03-29T09:20:31Z</time></trkpt><trkpt lat="39.39887759531507" lon="17.01978285238706"><ele>84.0</ele><time>2026-03-29T09:20:32Z</time></trkpt><trkpt lat="39.39884260806446" lon="17.019654016754973"><ele>83.5</ele><time>2026-03-29T09:20:33Z</time></trkpt><trkpt lat="39.39880050363455" lon="17.019528403164074"><ele>83.0</ele><time>2026-03-29T09:20:34Z</time></trkpt><trkpt lat="39.39874376336408" lon="17.019396853237716"><ele>82.5</ele><time>2026-03-29T09:20:35Z</time></trkpt><trkpt lat="39.39865019675729" lon="17.019276612298"><ele>82.0</ele><time>2026-03-29T09:20:36Z</time></trkpt><trkpt lat="39.39856182857638" lon="17.01914650736346"><ele>83.5</ele><time>2026-03-29T09:20:37Z</time></trkpt><trkpt lat="39.39848301043737" lon="17.019010232760458"><ele>85.0</ele><time>2026-03-29T09:20:38Z</time></trkpt><trkpt lat="39.39838869965911" lon="17.018894368195184"><ele>86.5</ele><time>2026-03-29T09:20:39Z</time></trkpt><trkpt lat="39.39829722357641" lon="17.01877605888132"><ele>88.0</ele><time>2026-03-29T09:20:40Z</time></trkpt><trkpt lat="39.39819828169648" lon="17.01866420784632"><ele>88.0</ele><time>2026-03-29T09:20:41Z</time></trkpt><trkpt lat="39.39809379764108" lon="17.01855009547688"><ele>88.0</ele><time>2026-03-29T09:20:42Z</time></trkpt><trkpt lat="39.3979797417456" lon="17.018434413879184"><ele>88.0</ele><time>2026-03-29T09:20:43Z</time></trkpt><trkpt lat="39.39786173217188" lon="17.018319634055118"><ele>88.0</ele><time>2026-03-29T09:20:44Z</time></trkpt><trkpt lat="39.3977423149322" lon="17.018212401104595"><ele>90.5</ele><time>2026-03-29T09:20:45Z</time></trkpt><trkpt lat="39.39763107125467" lon="17.01811148262952"><ele>93.0</ele><time>2026-03-29T09:20:46Z</time></trkpt><trkpt lat="39.39752922781037" lon="17.01802053315353"><ele>95.5</ele><time>2026-03-29T09:20:47Z</time></trkpt><trkpt lat="39.39742373343502" lon="17.017933956539533"><ele>98.0</ele><time>2026-03-29T09:20:48Z</time></trkpt><trkpt lat="39.39731754951551" lon="17.017840738340247"><ele>98.0</ele><time>2026-03-29T09:20:49Z</time></trkpt><trkpt lat="39.397216378494946" lon="17.017745583535753"><ele>98.0</ele><time>2026-03-29T09:20:50Z</time></trkpt><trkpt lat="39.397113887196205" lon="17.017658064504808"><ele>98.0</ele><time>2026-03-29T09:20:51Z</time></trkpt><trkpt lat="39.397012294358916" lon="17.01757528442152"><ele>98.0</ele><time>2026-03-29T09:20:52Z</time></trkpt><trkpt lat="39.39691486859721" lon="17.01749613351168"><ele>100.75</ele><time>2026-03-29T09:20:53Z</time></trkpt><trkpt lat="39.39681759977091" lon="17.01741308696739"><ele>103.5</ele><time>2026-03-29T09:20:54Z</time></trkpt><trkpt lat="39.396705655017996" lon="17.017342113634363"><ele>106.25</ele><time>2026-03-29T09:20:55Z</time></trkpt><trkpt lat="39.396584895347594" lon="17.017288014762244"><ele>109.0</ele><time>2026-03-29T09:20:56Z</time></trkpt><trkpt lat="39.39647166067737" lon="17.01723757176975"><ele>109.0</ele><time>2026-03-29T09:20:57Z</time></trkpt><trkpt lat="39.39637391490929" lon="17.017186015870102"><ele>109.0</ele><time>2026-03-29T09:20:58Z</time></trkpt><trkpt lat="39.39628994292177" lon="17.01714163538501"><ele>109.0</ele><time>2026-03-29T09:20:59Z</time></trkpt><trkpt lat="39.3962145784102" lon="17.017114787280324"><ele>109.0</ele><time>2026-03-29T09:21:00Z</time></trkpt><trkpt lat="39.39610923300563" lon="17.017064928957762"><ele>109.0</ele><time>2026-03-29T09:21:02Z</time></trkpt><trkpt lat="39.39602699500004" lon="17.017021042160504"><ele>108.33333333333334</ele><time>2026-03-29T09:21:04Z</time></trkpt><trkpt lat="39.395942330315194" lon="17.016989358306674"><ele>107.66666666666667</ele><time>2026-03-29T09:21:06Z</time></trkpt><trkpt lat="39.39587783943907" lon="17.016981581526945"><ele>107.0</ele><time>2026-03-29T09:21:07Z</time></trkpt><trkpt lat="39.39580641213677" lon="17.016935003984926"><ele>106.33333333333334</ele><time>2026-03-29T09:21:08Z</time></trkpt><trkpt lat="39.395714419521056" lon="17.016928936470304"><ele>105.66666666666667</ele><time>2026-03-29T09:21:09Z</time></trkpt><trkpt lat="39.395620689769075" lon="17.016904120050466"><ele>105.0</ele><time>2026-03-29T09:21:10Z</time></trkpt><trkpt lat="39.395520636675144" lon="17.016877982866987"><ele>103.75</ele><time>2026-03-29T09:21:11Z</time></trkpt><trkpt lat="39.39541532359009" lon="17.016850019571084"><ele>102.5</ele><time>2026-03-29T09:21:12Z</time></trkpt><trkpt lat="39.3953048939928" lon="17.016820372501964"><ele>101.25</ele><time>2026-03-29T09:21:13Z</time></trkpt><trkpt lat="39.39519417318152" lon="17.016789575341253"><ele>100.0</ele><time>2026-03-29T09:21:14Z</time></trkpt><trkpt lat="39.395080655870046" lon="17.016755549281108"><ele>100.0</ele><time>2026-03-29T09:21:15Z</time></trkpt><trkpt lat="39.39496406367391" lon="17.016719971228508"><ele>100.0</ele><time>2026-03-29T09:21:16Z</time></trkpt><trkpt lat="39.39484540874804" lon="17.016683486264817"><ele>100.0</ele><time>2026-03-29T09:21:17Z</time></trkpt><trkpt lat="39.39473462642403" lon="17.01665224741005"><ele>100.0</ele><time>2026-03-29T09:21:18Z</time></trkpt><trkpt lat="39.39463076502754" lon="17.016619298765402"><ele>99.8</ele><time>2026-03-29T09:21:19Z</time></trkpt><trkpt lat="39.394531825230956" lon="17.016579319743137"><ele>99.6</ele><time>2026-03-29T09:21:20Z</time></trkpt><trkpt lat="39.39444796045005" lon="17.016509401149868"><ele>99.4</ele><time>2026-03-29T09:21:21Z</time></trkpt><trkpt lat="39.39436755099875" lon="17.016447830468508"><ele>99.2</ele><time>2026-03-29T09:21:22Z</time></trkpt><trkpt lat="39.394308782145195" lon="17.016369843021945"><ele>99.0</ele><time>2026-03-29T09:21:23Z</time></trkpt><trkpt lat="39.394283429134504" lon="17.01625275320064"><ele>99.0</ele><time>2026-03-29T09:21:24Z</time></trkpt><trkpt lat="39.39424000290348" lon="17.016118752166367"><ele>99.0</ele><time>2026-03-29T09:21:25Z</time></trkpt><trkpt lat="39.394190836659774" lon="17.015968513686133"><ele>99.0</ele><time>2026-03-29T09:21:26Z</time></trkpt><trkpt lat="39.39413962395284" lon="17.015807941237263"><ele>99.0</ele><time>2026-03-29T09:21:27Z</time></trkpt><trkpt lat="39.39408786008036" lon="17.015645638324813"><ele>100.25</ele><time>2026-03-29T09:21:28Z</time></trkpt><trkpt lat="39.394038111832366" lon="17.015489655310116"><ele>101.5</ele><time>2026-03-29T09:21:29Z</time></trkpt><trkpt lat="39.39399073070293" lon="17.015340228654875"><ele>102.75</ele><time>2026-03-29T09:21:30Z</time></trkpt><trkpt lat="39.393945325803486" lon="17.01519684084359"><ele>104.0</ele><time>2026-03-29T09:21:31Z</time></trkpt><trkpt lat="39.393900737714" lon="17.015062805536424"><ele>103.0</ele><time>2026-03-29T09:21:32Z</time></trkpt><trkpt lat="39.39384148107172" lon="17.01495268538871"><ele>102.0</ele><time>2026-03-29T09:21:33Z</time></trkpt><trkpt lat="39.39380294731656" lon="17.014842671975593"><ele>101.0</ele><time>2026-03-29T09:21:34Z</time></trkpt><trkpt lat="39.39376554546885" lon="17.014729344580022"><ele>100.0</ele><time>2026-03-29T09:21:35Z</time></trkpt><trkpt lat="39.39371718142519" lon="17.014618180393768"><ele>99.0</ele><time>2026-03-29T09:21:36Z</time></trkpt><trkpt lat="39.39366976793179" lon="17.01450920103536"><ele>99.0</ele><time>2026-03-29T09:21:37Z</time></trkpt><trkpt lat="39.393623425186746" lon="17.01440268277944"><ele>99.0</ele><time>2026-03-29T09:21:38Z</time></trkpt><trkpt lat="39.393546684332655" lon="17.014306496356003"><ele>99.0</ele><time>2026-03-29T09:21:39Z</time></trkpt><trkpt lat="39.39350266507262" lon="17.01417971970979"><ele>99.0</ele><time>2026-03-29T09:21:40Z</time></trkpt><trkpt lat="39.39346038565786" lon="17.01406544052997"><ele>99.0</ele><time>2026-03-29T09:21:41Z</time></trkpt><trkpt lat="39.39341224743506" lon="17.013967338302496"><ele>100.2</ele><time>2026-03-29T09:21:42Z</time></trkpt><trkpt lat="39.3933547750545" lon="17.013882888918715"><ele>101.4</ele><time>2026-03-29T09:21:43Z</time></trkpt><trkpt lat="39.39328352653702" lon="17.013806713491523"><ele>102.6</ele><time>2026-03-29T09:21:44Z</time></trkpt><trkpt lat="39.393207258680015" lon="17.013722536962447"><ele>103.8</ele><time>2026-03-29T09:21:45Z</time></trkpt><trkpt lat="39.39313908662808" lon="17.013631529769423"><ele>105.0</ele><time>2026-03-29T09:21:46Z</time></trkpt><trkpt lat="39.393076921800116" lon="17.013531635689848"><ele>104.6</ele><time>2026-03-29T09:21:47Z</time></trkpt><trkpt lat="39.39300538969895" lon="17.01342610334995"><ele>104.2</ele><time>2026-03-29T09:21:48Z</time></trkpt><trkpt lat="39.39293410726166" lon="17.01330911927984"><ele>103.80000000000001</ele><time>2026-03-29T09:21:48.999Z</time></trkpt><trkpt lat="39.39286190355286" lon="17.01319357440288"><ele>103.4</ele><time>2026-03-29T09:21:49.999Z</time></trkpt><trkpt lat="39.39279340869928" lon="17.013084279649714"><ele>103.0</ele><time>2026-03-29T09:21:50.999Z</time></trkpt><trkpt lat="39.392729378503184" lon="17.012978175816983"><ele>103.0</ele><time>2026-03-29T09:21:51.999Z</time></trkpt><trkpt lat="39.39266418229372" lon="17.01288129601496"><ele>103.0</ele><time>2026-03-29T09:21:52.999Z</time></trkpt><trkpt lat="39.39260714040269" lon="17.012778977124245"><ele>103.0</ele><time>2026-03-29T09:21:53.999Z</time></trkpt><trkpt lat="39.39255401173977" lon="17.012679498457402"><ele>103.0</ele><time>2026-03-29T09:21:54.999Z</time></trkpt><trkpt lat="39.39250693777696" lon="17.012593253746285"><ele>103.0</ele><time>2026-03-29T09:21:55.999Z</time></trkpt><trkpt lat="39.392421587439884" lon="17.012502595471627"><ele>104.2</ele><time>2026-03-29T09:21:57.999Z</time></trkpt><trkpt lat="39.39234017613247" lon="17.012447497845518"><ele>105.4</ele><time>2026-03-29T09:21:59.999Z</time></trkpt><trkpt lat="39.392285157546084" lon="17.012392686079032"><ele>106.60000000000001</ele><time>2026-03-29T09:22:02.999Z</time></trkpt><trkpt lat="39.3923739663168" lon="17.0122247519264"><ele>107.80000000000001</ele><time>2026-03-29T09:22:03.999Z</time></trkpt><trkpt lat="39.39242449456637" lon="17.012160103252835"><ele>109.0</ele><time>2026-03-29T09:22:04.999Z</time></trkpt><trkpt lat="39.392485348546366" lon="17.012095324850552"><ele>109.00000000000001</ele><time>2026-03-29T09:22:05.999Z</time></trkpt><trkpt lat="39.392550182500514" lon="17.012030353260016"><ele>109.0</ele><time>2026-03-29T09:22:06.999Z</time></trkpt><trkpt lat="39.39262431121157" lon="17.011978740476888"><ele>109.0</ele><time>2026-03-29T09:22:07.999Z</time></trkpt><trkpt lat="39.392699208883016" lon="17.011922878749303"><ele>109.0</ele><time>2026-03-29T09:22:08.999Z</time></trkpt><trkpt lat="39.39277102674389" lon="17.011852724030135"><ele>109.00000000000001</ele><time>2026-03-29T09:22:09.999Z</time></trkpt><trkpt lat="39.39284178563695" lon="17.01178268465935"><ele>109.0</ele><time>2026-03-29T09:22:10.999Z</time></trkpt><trkpt lat="39.39290655428521" lon="17.01170412052013"><ele>110.50000000000001</ele><time>2026-03-29T09:22:11.999Z</time></trkpt><trkpt lat="39.39296824587312" lon="17.011619296470446"><ele>112.0</ele><time>2026-03-29T09:22:12.999Z</time></trkpt><trkpt lat="39.393025342292376" lon="17.011533957438267"><ele>113.5</ele><time>2026-03-29T09:22:13.999Z</time></trkpt><trkpt lat="39.3930774287608" lon="17.011450197139997"><ele>115.0</ele><time>2026-03-29T09:22:14.999Z</time></trkpt><trkpt lat="39.393123360040505" lon="17.01136877093065"><ele>116.50000000000001</ele><time>2026-03-29T09:22:15.999Z</time></trkpt><trkpt lat="39.39315824590133" lon="17.011284989692975"><ele>118.0</ele><time>2026-03-29T09:22:16.999Z</time></trkpt><trkpt lat="39.39319785470748" lon="17.01120648533041"><ele>118.00000000000001</ele><time>2026-03-29T09:22:17.999Z</time></trkpt><trkpt lat="39.39323352641202" lon="17.01113061120341"><ele>118.0</ele><time>2026-03-29T09:22:18.999Z</time></trkpt><trkpt lat="39.39326726730695" lon="17.011054368117403"><ele>118.0</ele><time>2026-03-29T09:22:19.999Z</time></trkpt><trkpt lat="39.39329865246298" lon="17.010980452683487"><ele>118.0</ele><time>2026-03-29T09:22:20.999Z</time></trkpt><trkpt lat="39.393308545382816" lon="17.010833759541708"><ele>118.00000000000001</ele><time>2026-03-29T09:22:22.999Z</time></trkpt><trkpt lat="39.39336185508716" lon="17.01068631475089"><ele>118.0</ele><time>2026-03-29T09:22:24.999Z</time></trkpt><trkpt lat="39.39339874576812" lon="17.010609973766062"><ele>119.33333333333334</ele><time>2026-03-29T09:22:25.999Z</time></trkpt><trkpt lat="39.393443694131925" lon="17.01054286662687"><ele>120.66666666666667</ele><time>2026-03-29T09:22:26.999Z</time></trkpt><trkpt lat="39.39351758291202" lon="17.010437216465018"><ele>122.0</ele><time>2026-03-29T09:22:28.999Z</time></trkpt><trkpt lat="39.39355753030221" lon="17.010358439365195"><ele>123.33333333333334</ele><time>2026-03-29T09:22:30.999Z</time></trkpt><trkpt lat="39.39360244921923" lon="17.010291453605035"><ele>124.66666666666667</ele><time>2026-03-29T09:22:32.999Z</time></trkpt><trkpt lat="39.39365735044451" lon="17.010199990340674"><ele>126.0</ele><time>2026-03-29T09:22:34.999Z</time></trkpt><trkpt lat="39.39370647126463" lon="17.01013240191013"><ele>126.0</ele><time>2026-03-29T09:22:36.999Z</time></trkpt><trkpt lat="39.39373977378339" lon="17.01002466924805"><ele>126.0</ele><time>2026-03-29T09:22:39.999Z</time></trkpt><trkpt lat="39.39377656734313" lon="17.009939852447257"><ele>126.0</ele><time>2026-03-29T09:22:42.999Z</time></trkpt><trkpt lat="39.393797736914436" lon="17.009839275166232"><ele>126.0</ele><time>2026-03-29T09:22:45.999Z</time></trkpt><trkpt lat="39.39382463101896" lon="17.00974355500114"><ele>126.0</ele><time>2026-03-29T09:22:48.999Z</time></trkpt><trkpt lat="39.393849063036704" lon="17.009625417765275"><ele>126.0</ele><time>2026-03-29T09:22:51.999Z</time></trkpt><trkpt lat="39.39385269902783" lon="17.00953791071628"><ele>126.33333333333333</ele><time>2026-03-29T09:22:53.999Z</time></trkpt><trkpt lat="39.39386927553151" lon="17.00943653565602"><ele>126.66666666666666</ele><time>2026-03-29T09:22:55.999Z</time></trkpt><trkpt lat="39.39388914883476" lon="17.00934707981959"><ele>127.0</ele><time>2026-03-29T09:22:57.999Z</time></trkpt><trkpt lat="39.393917843602026" lon="17.00926793088242"><ele>127.33333333333333</ele><time>2026-03-29T09:22:59.999Z</time></trkpt><trkpt lat="39.393936701577545" lon="17.009133913033914"><ele>127.66666666666666</ele><time>2026-03-29T09:23:01.999Z</time></trkpt><trkpt lat="39.39394968702764" lon="17.008980681868362"><ele>128.0</ele><time>2026-03-29T09:23:03.999Z</time></trkpt><trkpt lat="39.39394146347765" lon="17.008832352291737"><ele>127.99999999999999</ele><time>2026-03-29T09:23:05.999Z</time></trkpt><trkpt lat="39.393936063818465" lon="17.008709596436155"><ele>128.0</ele><time>2026-03-29T09:23:07.999Z</time></trkpt><trkpt lat="39.39396566423348" lon="17.008614673706088"><ele>128.0</ele><time>2026-03-29T09:23:09.999Z</time></trkpt><trkpt lat="39.39402600787289" lon="17.008529028123164"><ele>128.0</ele><time>2026-03-29T09:23:11.999Z</time></trkpt><trkpt lat="39.394079916211474" lon="17.008438081224003"><ele>127.99999999999999</ele><time>2026-03-29T09:23:13.999Z</time></trkpt><trkpt lat="39.3941352976605" lon="17.008376693477942"><ele>128.0</ele><time>2026-03-29T09:23:15.999Z</time></trkpt><trkpt lat="39.39419139089228" lon="17.008301867342503"><ele>128.16666666666666</ele><time>2026-03-29T09:23:18.999Z</time></trkpt><trkpt lat="39.39423781699092" lon="17.008240172916977"><ele>128.33333333333331</ele><time>2026-03-29T09:23:20.999Z</time></trkpt><trkpt lat="39.39431352838541" lon="17.008163028204493"><ele>128.5</ele><time>2026-03-29T09:23:22.999Z</time></trkpt><trkpt lat="39.39439673643327" lon="17.008098965621176"><ele>128.66666666666666</ele><time>2026-03-29T09:23:24.999Z</time></trkpt><trkpt lat="39.39447516444861" lon="17.008024714719497"><ele>128.83333333333334</ele><time>2026-03-29T09:23:26.999Z</time></trkpt><trkpt lat="39.394542659407925" lon="17.007961178717164"><ele>129.0</ele><time>2026-03-29T09:23:28.999Z</time></trkpt><trkpt lat="39.39459711413106" lon="17.007898843848096"><ele>129.0</ele><time>2026-03-29T09:23:30.999Z</time></trkpt><trkpt lat="39.39464626253077" lon="17.00780235598119"><ele>129.0</ele><time>2026-03-29T09:23:32.999Z</time></trkpt><trkpt lat="39.39470378028453" lon="17.007722792978115"><ele>129.0</ele><time>2026-03-29T09:23:34.999Z</time></trkpt><trkpt lat="39.39470910285688" lon="17.007609124081473"><ele>129.0</ele><time>2026-03-29T09:23:36.999Z</time></trkpt><trkpt lat="39.39472075596518" lon="17.007473323081573"><ele>129.0</ele><time>2026-03-29T09:23:38.999Z</time></trkpt><trkpt lat="39.39474315099578" lon="17.007344827041486"><ele>129.0</ele><time>2026-03-29T09:23:40.999Z</time></trkpt><trkpt lat="39.3947428512391" lon="17.00721350730843"><ele>129.0</ele><time>2026-03-29T09:23:42.999Z</time></trkpt><trkpt lat="39.39468932766382" lon="17.007089582649133"><ele>129.0</ele><time>2026-03-29T09:23:44.999Z</time></trkpt><trkpt lat="39.39465188503451" lon="17.007021527346826"><ele>129.0</ele><time>2026-03-29T09:23:45.999Z</time></trkpt><trkpt lat="39.39459053426842" lon="17.006883859202812"><ele>129.0</ele><time>2026-03-29T09:23:47.999Z</time></trkpt><trkpt lat="39.394578148773235" lon="17.006714152626298"><ele>128.5</ele><time>2026-03-29T09:23:49.999Z</time></trkpt><trkpt lat="39.39458655417089" lon="17.006612380078654"><ele>128.0</ele><time>2026-03-29T09:23:50.999Z</time></trkpt><trkpt lat="39.39459731069153" lon="17.00651764663365"><ele>127.5</ele><time>2026-03-29T09:23:51.999Z</time></trkpt><trkpt lat="39.39460826824179" lon="17.006423813751436"><ele>127.0</ele><time>2026-03-29T09:23:52.999Z</time></trkpt><trkpt lat="39.39463064683992" lon="17.006331875326502"><ele>126.5</ele><time>2026-03-29T09:23:53.999Z</time></trkpt><trkpt lat="39.39467597430665" lon="17.00623251574382"><ele>126.0</ele><time>2026-03-29T09:23:54.999Z</time></trkpt><trkpt lat="39.39472739177261" lon="17.006149708259493"><ele>126.0</ele><time>2026-03-29T09:23:55.999Z</time></trkpt><trkpt lat="39.3947786354323" lon="17.006078516672"><ele>126.0</ele><time>2026-03-29T09:23:56.999Z</time></trkpt><trkpt lat="39.39483908930985" lon="17.00602489193537"><ele>126.0</ele><time>2026-03-29T09:23:57.999Z</time></trkpt><trkpt lat="39.394912307212735" lon="17.00598333573971"><ele>126.0</ele><time>2026-03-29T09:23:58.999Z</time></trkpt><trkpt lat="39.394988687952115" lon="17.005946549571757"><ele>126.0</ele><time>2026-03-29T09:23:59.999Z</time></trkpt><trkpt lat="39.39505226392943" lon="17.00592982589158"><ele>126.0</ele><time>2026-03-29T09:24:00.999Z</time></trkpt><trkpt lat="39.395145626064725" lon="17.005878096166335"><ele>126.0</ele><time>2026-03-29T09:24:02.999Z</time></trkpt><trkpt lat="39.39522589150885" lon="17.005846530009183"><ele>126.0</ele><time>2026-03-29T09:24:04.999Z</time></trkpt><trkpt lat="39.39527927902458" lon="17.005800792469522"><ele>126.0</ele><time>2026-03-29T09:24:07.999Z</time></trkpt><trkpt lat="39.39533080236496" lon="17.005716143651572"><ele>126.0</ele><time>2026-03-29T09:24:10.999Z</time></trkpt><trkpt lat="39.39537398418349" lon="17.005618082867215"><ele>126.0</ele><time>2026-03-29T09:24:13.999Z</time></trkpt><trkpt lat="39.39540593274341" lon="17.005539059810072"><ele>126.0</ele><time>2026-03-29T09:24:16.999Z</time></trkpt><trkpt lat="39.39539719973506" lon="17.005440134059"><ele>126.83333333333333</ele><time>2026-03-29T09:24:19.998Z</time></trkpt><trkpt lat="39.3953406931514" lon="17.005333790467315"><ele>127.66666666666666</ele><time>2026-03-29T09:24:22.998Z</time></trkpt><trkpt lat="39.39528808901074" lon="17.005231332146813"><ele>128.5</ele><time>2026-03-29T09:24:24.998Z</time></trkpt><trkpt lat="39.39523803316467" lon="17.005151812967597"><ele>129.33333333333331</ele><time>2026-03-29T09:24:26.998Z</time></trkpt><trkpt lat="39.39518916416236" lon="17.005096593779445"><ele>130.16666666666666</ele><time>2026-03-29T09:24:28.998Z</time></trkpt><trkpt lat="39.39515322830543" lon="17.004999665190233"><ele>131.0</ele><time>2026-03-29T09:24:33.998Z</time></trkpt><trkpt lat="39.395125574945965" lon="17.00491602312744"><ele>131.42857142857144</ele><time>2026-03-29T09:24:37.998Z</time></trkpt><trkpt lat="39.3950717586652" lon="17.004863893251933"><ele>131.85714285714286</ele><time>2026-03-29T09:24:43.998Z</time></trkpt><trkpt lat="39.39506725068838" lon="17.004766250808277"><ele>132.28571428571428</ele><time>2026-03-29T09:24:51.998Z</time></trkpt><trkpt lat="39.39505793396993" lon="17.004672749760616"><ele>132.71428571428572</ele><time>2026-03-29T09:24:55.998Z</time></trkpt><trkpt lat="39.39508372409169" lon="17.004594508952994"><ele>133.14285714285714</ele><time>2026-03-29T09:24:59.998Z</time></trkpt><trkpt lat="39.395103389799324" lon="17.0045023386052"><ele>133.57142857142858</ele><time>2026-03-29T09:25:08.998Z</time></trkpt><trkpt lat="39.39514451401007" lon="17.004440529739245"><ele>134.0</ele><time>2026-03-29T09:25:12.998Z</time></trkpt><trkpt lat="39.39518013230935" lon="17.004364246972727"><ele>134.0</ele><time>2026-03-29T09:25:17.998Z</time></trkpt><trkpt lat="39.39519972719818" lon="17.004274257592492"><ele>134.0</ele><time>2026-03-29T09:25:23.998Z</time></trkpt><trkpt lat="39.39524190816438" lon="17.004198353416495"><ele>134.0</ele><time>2026-03-29T09:25:27.998Z</time></trkpt><trkpt lat="39.395273577703264" lon="17.0041212486945"><ele>134.0</ele><time>2026-03-29T09:25:30.998Z</time></trkpt><trkpt lat="39.39529745650219" lon="17.00403832642699"><ele>134.0</ele><time>2026-03-29T09:25:35.998Z</time></trkpt><trkpt lat="39.3952984798628" lon="17.003938819478183"><ele>134.0</ele><time>2026-03-29T09:25:39.998Z</time></trkpt><trkpt lat="39.3953065833944" lon="17.003828243909563"><ele>134.0</ele><time>2026-03-29T09:25:42.998Z</time></trkpt><trkpt lat="39.39531197566091" lon="17.00374149142137"><ele>134.83333333333331</ele><time>2026-03-29T09:25:44.998Z</time></trkpt><trkpt lat="39.39532622534674" lon="17.003637825784924"><ele>135.66666666666666</ele><time>2026-03-29T09:25:47.998Z</time></trkpt><trkpt lat="39.39534191540115" lon="17.003523798341156"><ele>136.5</ele><time>2026-03-29T09:25:50.998Z</time></trkpt><trkpt lat="39.39537708371018" lon="17.00342182643929"><ele>137.33333333333334</ele><time>2026-03-29T09:25:53.998Z</time></trkpt><trkpt lat="39.395413968732186" lon="17.00334020291509"><ele>138.16666666666669</ele><time>2026-03-29T09:25:55.998Z</time></trkpt><trkpt lat="39.3954539400081" lon="17.003273787163355"><ele>139.0</ele><time>2026-03-29T09:25:57.998Z</time></trkpt><trkpt lat="39.39547867117844" lon="17.00319583218273"><ele>139.0</ele><time>2026-03-29T09:26:04.998Z</time></trkpt><trkpt lat="39.39555333900329" lon="17.003117777547253"><ele>139.0</ele><time>2026-03-29T09:26:06.998Z</time></trkpt><trkpt lat="39.395616258286424" lon="17.003027231579683"><ele>139.0</ele><time>2026-03-29T09:26:08.998Z</time></trkpt><trkpt lat="39.39566771460357" lon="17.002937535945314"><ele>139.0</ele><time>2026-03-29T09:26:10.998Z</time></trkpt><trkpt lat="39.395743088635456" lon="17.002804065546766"><ele>139.0</ele><time>2026-03-29T09:26:12.998Z</time></trkpt><trkpt lat="39.39579064043676" lon="17.00272300958661"><ele>139.0</ele><time>2026-03-29T09:26:13.998Z</time></trkpt><trkpt lat="39.39583735196509" lon="17.00264594805314"><ele>139.0</ele><time>2026-03-29T09:26:14.998Z</time></trkpt><trkpt lat="39.395879158776694" lon="17.002577723302476"><ele>139.0</ele><time>2026-03-29T09:26:15.998Z</time></trkpt><trkpt lat="39.395922894374245" lon="17.002451283440216"><ele>139.0</ele><time>2026-03-29T09:26:17.998Z</time></trkpt><trkpt lat="39.3959747920412" lon="17.002310734064952"><ele>139.0</ele><time>2026-03-29T09:26:19.998Z</time></trkpt><trkpt lat="39.396014341400964" lon="17.00219634685072"><ele>139.5</ele><time>2026-03-29T09:26:21.998Z</time></trkpt><trkpt lat="39.39603531941484" lon="17.0021050357282"><ele>140.0</ele><time>2026-03-29T09:26:29.998Z</time></trkpt><trkpt lat="39.39604988267813" lon="17.002019505135607"><ele>140.5</ele><time>2026-03-29T09:26:33.998Z</time></trkpt><trkpt lat="39.396094345332294" lon="17.001943332861323"><ele>141.0</ele><time>2026-03-29T09:26:36.998Z</time></trkpt><trkpt lat="39.39616132842994" lon="17.001855838422276"><ele>141.5</ele><time>2026-03-29T09:26:40.998Z</time></trkpt><trkpt lat="39.39619232817354" lon="17.001778804007802"><ele>142.0</ele><time>2026-03-29T09:26:41.998Z</time></trkpt><trkpt lat="39.396226932597756" lon="17.00169647675084"><ele>142.83333333333334</ele><time>2026-03-29T09:26:42.998Z</time></trkpt><trkpt lat="39.39625544681966" lon="17.00161059157504"><ele>143.66666666666669</ele><time>2026-03-29T09:26:43.998Z</time></trkpt><trkpt lat="39.39629255345732" lon="17.00147864686048"><ele>144.5</ele><time>2026-03-29T09:26:45.998Z</time></trkpt><trkpt lat="39.39631319930211" lon="17.001369982809116"><ele>145.33333333333334</ele><time>2026-03-29T09:26:47.998Z</time></trkpt><trkpt lat="39.39634302850517" lon="17.001271352331425"><ele>146.16666666666666</ele><time>2026-03-29T09:26:49.997Z</time></trkpt><trkpt lat="39.39635135089562" lon="17.001169464526104"><ele>147.0</ele><time>2026-03-29T09:26:52.997Z</time></trkpt><trkpt lat="39.39635620639039" lon="17.00105650283076"><ele>146.2</ele><time>2026-03-29T09:26:55.997Z</time></trkpt><trkpt lat="39.39639543630049" lon="17.000932373306682"><ele>145.39999999999998</ele><time>2026-03-29T09:26:58.997Z</time></trkpt><trkpt lat="39.39644653122749" lon="17.000813099419016"><ele>144.60000000000002</ele><time>2026-03-29T09:27:00.997Z</time></trkpt><trkpt lat="39.39650790095366" lon="17.000686153093042"><ele>143.8</ele><time>2026-03-29T09:27:02.997Z</time></trkpt><trkpt lat="39.39657771994427" lon="17.000561393962844"><ele>143.0</ele><time>2026-03-29T09:27:04.997Z</time></trkpt><trkpt lat="39.396640552186525" lon="17.000422468444587"><ele>143.0</ele><time>2026-03-29T09:27:06.997Z</time></trkpt><trkpt lat="39.39666025300844" lon="17.000272218329066"><ele>143.0</ele><time>2026-03-29T09:27:08.997Z</time></trkpt><trkpt lat="39.396619627958785" lon="17.000133661917587"><ele>143.0</ele><time>2026-03-29T09:27:10.997Z</time></trkpt><trkpt lat="39.39654006212927" lon="17.000048862110372"><ele>143.0</ele><time>2026-03-29T09:27:12.997Z</time></trkpt><trkpt lat="39.39643499199835" lon="17.0000731566414"><ele>143.0</ele><time>2026-03-29T09:27:14.997Z</time></trkpt><trkpt lat="39.396331815509114" lon="17.000081295260255"><ele>146.0</ele><time>2026-03-29T09:27:16.997Z</time></trkpt><trkpt lat="39.396223539530304" lon="17.0000799926997"><ele>149.0</ele><time>2026-03-29T09:27:18.997Z</time></trkpt><trkpt lat="39.39611461481207" lon="17.00012426880025"><ele>152.0</ele><time>2026-03-29T09:27:20.997Z</time></trkpt><trkpt lat="39.39599655209765" lon="17.000131967966613"><ele>155.0</ele><time>2026-03-29T09:27:22.997Z</time></trkpt><trkpt lat="39.395934122046015" lon="17.00011568357393"><ele>158.0</ele><time>2026-03-29T09:27:23.997Z</time></trkpt><trkpt lat="39.39582932177678" lon="17.000070113380996"><ele>158.0</ele><time>2026-03-29T09:27:26Z</time></trkpt><trkpt lat="39.39572459540224" lon="17.000064094986115"><ele>158.0</ele><time>2026-03-29T09:27:28Z</time></trkpt><trkpt lat="39.39561713208677" lon="17.0000421910772"><ele>158.0</ele><time>2026-03-29T09:27:30Z</time></trkpt><trkpt lat="39.39554940683904" lon="17.00004258667233"><ele>158.0</ele><time>2026-03-29T09:27:31Z</time></trkpt><trkpt lat="39.39548025179924" lon="17.00004026631005"><ele>158.0</ele><time>2026-03-29T09:27:32Z</time></trkpt><trkpt lat="39.39541242204945" lon="17.00002827399917"><ele>158.0</ele><time>2026-03-29T09:27:33Z</time></trkpt><trkpt lat="39.395307444319236" lon="17.000000416920336"><ele>161.0</ele><time>2026-03-29T09:27:35Z</time></trkpt><trkpt lat="39.39522948725854" lon="17.00002641188532"><ele>164.0</ele><time>2026-03-29T09:27:37Z</time></trkpt><trkpt lat="39.39511563751575" lon="17.000045878507915"><ele>167.0</ele><time>2026-03-29T09:27:39Z</time></trkpt><trkpt lat="39.3950041156994" lon="17.00003340201867"><ele>170.0</ele><time>2026-03-29T09:27:41Z</time></trkpt><trkpt lat="39.394889865241076" lon="17.00000604750008"><ele>173.0</ele><time>2026-03-29T09:27:43Z</time></trkpt><trkpt lat="39.39479766030628" lon="16.999954367687938"><ele>173.0</ele><time>2026-03-29T09:27:45Z</time></trkpt><trkpt lat="39.39471456895213" lon="16.99989072502227"><ele>173.0</ele><time>2026-03-29T09:27:47Z</time></trkpt><trkpt lat="39.39462730696147" lon="16.99979388556548"><ele>173.0</ele><time>2026-03-29T09:27:49Z</time></trkpt><trkpt lat="39.39458799635965" lon="16.99963772286809"><ele>173.0</ele><time>2026-03-29T09:27:51Z</time></trkpt><trkpt lat="39.394558485729995" lon="16.999559810834192"><ele>173.0</ele><time>2026-03-29T09:27:52Z</time></trkpt><trkpt lat="39.394522422247256" lon="16.999491890082027"><ele>175.5</ele><time>2026-03-29T09:27:53Z</time></trkpt><trkpt lat="39.39445796934681" lon="16.99937640341697"><ele>178.0</ele><time>2026-03-29T09:27:55Z</time></trkpt><trkpt lat="39.394386049117486" lon="16.99926820728958"><ele>180.5</ele><time>2026-03-29T09:27:57Z</time></trkpt><trkpt lat="39.394294377084506" lon="16.99916454517115"><ele>183.0</ele><time>2026-03-29T09:27:59Z</time></trkpt><trkpt lat="39.394220979902386" lon="16.9990385370433"><ele>185.0</ele><time>2026-03-29T09:28:01Z</time></trkpt><trkpt lat="39.3941647346557" lon="16.998899964143437"><ele>187.0</ele><time>2026-03-29T09:28:03Z</time></trkpt><trkpt lat="39.3941091381234" lon="16.998775284568964"><ele>189.0</ele><time>2026-03-29T09:28:05Z</time></trkpt><trkpt lat="39.39403824718984" lon="16.9986724917924"><ele>191.0</ele><time>2026-03-29T09:28:07Z</time></trkpt><trkpt lat="39.393938180356045" lon="16.99864648630791"><ele>193.0</ele><time>2026-03-29T09:28:09Z</time></trkpt><trkpt lat="39.393838579251195" lon="16.998664810350185"><ele>194.49999999999997</ele><time>2026-03-29T09:28:11Z</time></trkpt><trkpt lat="39.393733570713756" lon="16.998664542435076"><ele>196.0</ele><time>2026-03-29T09:28:13Z</time></trkpt><trkpt lat="39.39365630165633" lon="16.998642250496047"><ele>197.5</ele><time>2026-03-29T09:28:15Z</time></trkpt><trkpt lat="39.39357072173049" lon="16.998695943630697"><ele>199.0</ele><time>2026-03-29T09:28:18Z</time></trkpt><trkpt lat="39.39350655950731" lon="16.998725720935305"><ele>200.49999999999997</ele><time>2026-03-29T09:28:20Z</time></trkpt><trkpt lat="39.39341554622771" lon="16.998739959426313"><ele>202.0</ele><time>2026-03-29T09:28:22Z</time></trkpt><trkpt lat="39.39328906300419" lon="16.998718246683392"><ele>201.99999999999997</ele><time>2026-03-29T09:28:24Z</time></trkpt><trkpt lat="39.3932213396438" lon="16.998681579685744"><ele>202.0</ele><time>2026-03-29T09:28:25Z</time></trkpt><trkpt lat="39.393124136372336" lon="16.998638954132197"><ele>202.0</ele><time>2026-03-29T09:28:27Z</time></trkpt><trkpt lat="39.39305998468043" lon="16.998588882082444"><ele>202.0</ele><time>2026-03-29T09:28:29Z</time></trkpt><trkpt lat="39.393005094120234" lon="16.998536002112317"><ele>201.99999999999997</ele><time>2026-03-29T09:28:31Z</time></trkpt><trkpt lat="39.39291894128607" lon="16.998542293262144"><ele>202.0</ele><time>2026-03-29T09:28:33Z</time></trkpt><trkpt lat="39.39281617746311" lon="16.998595401329297"><ele>203.16666666666666</ele><time>2026-03-29T09:28:35Z</time></trkpt><trkpt lat="39.3927409536571" lon="16.99865410037395"><ele>204.33333333333331</ele><time>2026-03-29T09:28:37Z</time></trkpt><trkpt lat="39.39268102459215" lon="16.998698692850414"><ele>205.5</ele><time>2026-03-29T09:28:39Z</time></trkpt><trkpt lat="39.3926062212712" lon="16.998724106524353"><ele>206.66666666666669</ele><time>2026-03-29T09:28:42Z</time></trkpt><trkpt lat="39.39254391829386" lon="16.998748291472292"><ele>207.83333333333334</ele><time>2026-03-29T09:28:44Z</time></trkpt><trkpt lat="39.39246812693067" lon="16.998755119649758"><ele>209.0</ele><time>2026-03-29T09:28:46Z</time></trkpt><trkpt lat="39.392393956393626" lon="16.998757481176856"><ele>209.0</ele><time>2026-03-29T09:28:48Z</time></trkpt><trkpt lat="39.39232159897751" lon="16.99877617006837"><ele>209.0</ele><time>2026-03-29T09:28:50Z</time></trkpt><trkpt lat="39.39226009021268" lon="16.99881922760262"><ele>209.0</ele><time>2026-03-29T09:28:52Z</time></trkpt><trkpt lat="39.39220024980776" lon="16.998789980594307"><ele>209.0</ele><time>2026-03-29T09:28:55Z</time></trkpt><trkpt lat="39.39216491126001" lon="16.998688812307314"><ele>209.0</ele><time>2026-03-29T09:28:58Z</time></trkpt><trkpt lat="39.392095436008304" lon="16.998649093390373"><ele>209.0</ele><time>2026-03-29T09:29:04Z</time></trkpt><trkpt lat="39.39202749338216" lon="16.99864960669537"><ele>209.0</ele><time>2026-03-29T09:29:07Z</time></trkpt><trkpt lat="39.39196652840835" lon="16.99860395689659"><ele>211.00000000000003</ele><time>2026-03-29T09:29:10Z</time></trkpt><trkpt lat="39.39189418209537" lon="16.998570903607114"><ele>213.0</ele><time>2026-03-29T09:29:14Z</time></trkpt><trkpt lat="39.391833675783644" lon="16.998524953504578"><ele>215.0</ele><time>2026-03-29T09:29:18Z</time></trkpt><trkpt lat="39.39178560911369" lon="16.998461013966846"><ele>217.0</ele><time>2026-03-29T09:29:20Z</time></trkpt><trkpt lat="39.391726361843325" lon="16.998412350422047"><ele>219.00000000000003</ele><time>2026-03-29T09:29:22Z</time></trkpt><trkpt lat="39.39167097454736" lon="16.998328627333063"><ele>221.0</ele><time>2026-03-29T09:29:24Z</time></trkpt><trkpt lat="39.39157313652668" lon="16.99828348177873"><ele>221.00000000000003</ele><time>2026-03-29T09:29:26Z</time></trkpt><trkpt lat="39.391472156202106" lon="16.998225004431724"><ele>221.0</ele><time>2026-03-29T09:29:28Z</time></trkpt><trkpt lat="39.3913905057066" lon="16.998197951656262"><ele>221.0</ele><time>2026-03-29T09:29:30Z</time></trkpt><trkpt lat="39.39132551497095" lon="16.99816617556997"><ele>221.0</ele><time>2026-03-29T09:29:32Z</time></trkpt><trkpt lat="39.39124779122317" lon="16.99814266314009"><ele>221.00000000000003</ele><time>2026-03-29T09:29:34Z</time></trkpt><trkpt lat="39.39117649966831" lon="16.998126701740027"><ele>221.0</ele><time>2026-03-29T09:29:36Z</time></trkpt><trkpt lat="39.39110268847122" lon="16.998082792647487"><ele>222.60000000000002</ele><time>2026-03-29T09:29:39Z</time></trkpt><trkpt lat="39.39102895773408" lon="16.99805564088049"><ele>224.20000000000002</ele><time>2026-03-29T09:29:42Z</time></trkpt><trkpt lat="39.390958663564376" lon="16.998019259515477"><ele>225.79999999999998</ele><time>2026-03-29T09:29:45Z</time></trkpt><trkpt lat="39.390864344977054" lon="16.997971085399758"><ele>227.39999999999998</ele><time>2026-03-29T09:29:47Z</time></trkpt><trkpt lat="39.390785269803125" lon="16.99789653280144"><ele>229.0</ele><time>2026-03-29T09:29:49Z</time></trkpt><trkpt lat="39.39069596055391" lon="16.997830750451755"><ele>228.99999999999997</ele><time>2026-03-29T09:29:51Z</time></trkpt><trkpt lat="39.390595228111984" lon="16.997784378236343"><ele>229.0</ele><time>2026-03-29T09:29:53Z</time></trkpt><trkpt lat="39.39050121597111" lon="16.997734647660682"><ele>229.0</ele><time>2026-03-29T09:29:55Z</time></trkpt><trkpt lat="39.39042973055519" lon="16.997689413471303"><ele>229.0</ele><time>2026-03-29T09:29:57Z</time></trkpt><trkpt lat="39.39036891561213" lon="16.997658343095797"><ele>228.99999999999997</ele><time>2026-03-29T09:29:59.999Z</time></trkpt><trkpt lat="39.39031145756619" lon="16.997610621719264"><ele>229.0</ele><time>2026-03-29T09:30:02.999Z</time></trkpt><trkpt lat="39.39025521597623" lon="16.99754718369223"><ele>228.6</ele><time>2026-03-29T09:30:09.999Z</time></trkpt><trkpt lat="39.39021573548953" lon="16.997473191240495"><ele>228.2</ele><time>2026-03-29T09:30:12.999Z</time></trkpt><trkpt lat="39.390182956729504" lon="16.997373740903882"><ele>227.79999999999998</ele><time>2026-03-29T09:30:14.999Z</time></trkpt><trkpt lat="39.39013318451492" lon="16.99726618667659"><ele>227.39999999999998</ele><time>2026-03-29T09:30:16.999Z</time></trkpt><trkpt lat="39.3900742797783" lon="16.99716158393345"><ele>227.0</ele><time>2026-03-29T09:30:18.999Z</time></trkpt><trkpt lat="39.389979143025364" lon="16.997072969823893"><ele>227.00000000000003</ele><time>2026-03-29T09:30:20.999Z</time></trkpt><trkpt lat="39.38993069344308" lon="16.997013903823728"><ele>227.0</ele><time>2026-03-29T09:30:21.999Z</time></trkpt><trkpt lat="39.38988650849465" lon="16.996942960972603"><ele>227.0</ele><time>2026-03-29T09:30:22.999Z</time></trkpt><trkpt lat="39.38984793018735" lon="16.996875473631185"><ele>227.0</ele><time>2026-03-29T09:30:23.999Z</time></trkpt><trkpt lat="39.38980937327531" lon="16.996810823747687"><ele>227.00000000000003</ele><time>2026-03-29T09:30:24.999Z</time></trkpt><trkpt lat="39.38972625343085" lon="16.99669550443218"><ele>227.0</ele><time>2026-03-29T09:30:26.999Z</time></trkpt><trkpt lat="39.389638640267165" lon="16.996592982236297"><ele>228.2</ele><time>2026-03-29T09:30:28.999Z</time></trkpt><trkpt lat="39.389547119418744" lon="16.996511229593892"><ele>229.39999999999998</ele><time>2026-03-29T09:30:30.999Z</time></trkpt><trkpt lat="39.38946408796954" lon="16.996438605762375"><ele>230.60000000000002</ele><time>2026-03-29T09:30:32.999Z</time></trkpt><trkpt lat="39.389396778157014" lon="16.996374190546256"><ele>231.8</ele><time>2026-03-29T09:30:34.999Z</time></trkpt><trkpt lat="39.38934010424042" lon="16.9962921888002"><ele>233.0</ele><time>2026-03-29T09:30:36.999Z</time></trkpt><trkpt lat="39.3892584322672" lon="16.99621418458045"><ele>233.00000000000003</ele><time>2026-03-29T09:30:38.999Z</time></trkpt><trkpt lat="39.38920031227303" lon="16.99611697460791"><ele>233.0</ele><time>2026-03-29T09:30:40.999Z</time></trkpt><trkpt lat="39.389149350301835" lon="16.99604957226736"><ele>233.0</ele><time>2026-03-29T09:30:42.999Z</time></trkpt><trkpt lat="39.38913637707556" lon="16.99594609817682"><ele>233.0</ele><time>2026-03-29T09:30:44.999Z</time></trkpt><trkpt lat="39.389073130421465" lon="16.99581124704748"><ele>233.00000000000003</ele><time>2026-03-29T09:30:46.999Z</time></trkpt><trkpt lat="39.38904658247206" lon="16.99572532471485"><ele>233.0</ele><time>2026-03-29T09:30:47.999Z</time></trkpt><trkpt lat="39.389014076936895" lon="16.995645635291208"><ele>232.57142857142858</ele><time>2026-03-29T09:30:48.999Z</time></trkpt><trkpt lat="39.38897680475294" lon="16.995572508796513"><ele>232.1428571428571</ele><time>2026-03-29T09:30:49.999Z</time></trkpt><trkpt lat="39.38893896239738" lon="16.995496035893076"><ele>231.7142857142857</ele><time>2026-03-29T09:30:50.999Z</time></trkpt><trkpt lat="39.38890001040884" lon="16.995417463411272"><ele>231.28571428571428</ele><time>2026-03-29T09:30:51.999Z</time></trkpt><trkpt lat="39.38886072041078" lon="16.99533700218524"><ele>230.85714285714283</ele><time>2026-03-29T09:30:52.999Z</time></trkpt><trkpt lat="39.38882343843418" lon="16.995256660196787"><ele>230.4285714285714</ele><time>2026-03-29T09:30:53.999Z</time></trkpt><trkpt lat="39.3887878429638" lon="16.99518173493954"><ele>229.99999999999997</ele><time>2026-03-29T09:30:54.999Z</time></trkpt><trkpt lat="39.388768627536145" lon="16.995098432146897"><ele>229.85714285714283</ele><time>2026-03-29T09:30:55.999Z</time></trkpt><trkpt lat="39.38874880478679" lon="16.995015787969752"><ele>229.71428571428572</ele><time>2026-03-29T09:30:56.999Z</time></trkpt><trkpt lat="39.3887234281378" lon="16.994933340390098"><ele>229.57142857142856</ele><time>2026-03-29T09:30:57.999Z</time></trkpt><trkpt lat="39.388693437134705" lon="16.9948485704628"><ele>229.42857142857142</ele><time>2026-03-29T09:30:58.999Z</time></trkpt><trkpt lat="39.388660398392304" lon="16.994761094169593"><ele>229.28571428571428</ele><time>2026-03-29T09:30:59.999Z</time></trkpt><trkpt lat="39.388623399879606" lon="16.994673382519768"><ele>229.14285714285714</ele><time>2026-03-29T09:31:00.999Z</time></trkpt><trkpt lat="39.38858678616492" lon="16.99458699895088"><ele>229.0</ele><time>2026-03-29T09:31:01.999Z</time></trkpt><trkpt lat="39.388554481964334" lon="16.994500757253494"><ele>228.16666666666666</ele><time>2026-03-29T09:31:02.999Z</time></trkpt><trkpt lat="39.38853615201244" lon="16.99440998291536"><ele>227.33333333333331</ele><time>2026-03-29T09:31:03.999Z</time></trkpt><trkpt lat="39.38852427622226" lon="16.994316105709867"><ele>226.5</ele><time>2026-03-29T09:31:04.999Z</time></trkpt><trkpt lat="39.38851210417957" lon="16.994234641021862"><ele>225.66666666666669</ele><time>2026-03-29T09:31:05.999Z</time></trkpt><trkpt lat="39.38848152066706" lon="16.99410704397008"><ele>224.83333333333334</ele><time>2026-03-29T09:31:07.999Z</time></trkpt><trkpt lat="39.3884646819283" lon="16.99400137559053"><ele>224.0</ele><time>2026-03-29T09:31:09.999Z</time></trkpt><trkpt lat="39.38842454197526" lon="16.993910414365946"><ele>223.71428571428572</ele><time>2026-03-29T09:31:11.999Z</time></trkpt><trkpt lat="39.388387496846065" lon="16.99382766671962"><ele>223.42857142857144</ele><time>2026-03-29T09:31:14.999Z</time></trkpt><trkpt lat="39.38833205851186" lon="16.993786771356955"><ele>223.14285714285714</ele><time>2026-03-29T09:31:23.999Z</time></trkpt><trkpt lat="39.38826408753417" lon="16.993803621774667"><ele>222.85714285714286</ele><time>2026-03-29T09:31:45.999Z</time></trkpt><trkpt lat="39.38826350737939" lon="16.993706491208368"><ele>222.57142857142858</ele><time>2026-03-29T09:31:55.999Z</time></trkpt><trkpt lat="39.38826789911052" lon="16.993623855098225"><ele>222.28571428571428</ele><time>2026-03-29T09:31:57.999Z</time></trkpt><trkpt lat="39.38829883452487" lon="16.993520942798302"><ele>222.0</ele><time>2026-03-29T09:31:59.999Z</time></trkpt><trkpt lat="39.38832935336178" lon="16.99337016589484"><ele>222.0</ele><time>2026-03-29T09:32:01.998Z</time></trkpt><trkpt lat="39.3883440993398" lon="16.99327847321133"><ele>222.0</ele><time>2026-03-29T09:32:02.998Z</time></trkpt><trkpt lat="39.38834039166753" lon="16.993177414312434"><ele>222.0</ele><time>2026-03-29T09:32:03.998Z</time></trkpt><trkpt lat="39.38833683245251" lon="16.993071664838293"><ele>222.0</ele><time>2026-03-29T09:32:04.998Z</time></trkpt><trkpt lat="39.388333291092536" lon="16.99297170732139"><ele>222.0</ele><time>2026-03-29T09:32:05.998Z</time></trkpt><trkpt lat="39.38833569751726" lon="16.992878770201845"><ele>222.0</ele><time>2026-03-29T09:32:06.998Z</time></trkpt><trkpt lat="39.388337315511386" lon="16.992784660621545"><ele>222.0</ele><time>2026-03-29T09:32:07.998Z</time></trkpt><trkpt lat="39.388343614909196" lon="16.99269033868182"><ele>222.0</ele><time>2026-03-29T09:32:08.998Z</time></trkpt><trkpt lat="39.38835626700739" lon="16.99259474427723"><ele>222.0</ele><time>2026-03-29T09:32:09.998Z</time></trkpt><trkpt lat="39.388362183663794" lon="16.992504233724414"><ele>222.0</ele><time>2026-03-29T09:32:10.998Z</time></trkpt><trkpt lat="39.38836801764304" lon="16.9924174917749"><ele>222.0</ele><time>2026-03-29T09:32:11.998Z</time></trkpt><trkpt lat="39.38834977618369" lon="16.992335351719007"><ele>222.0</ele><time>2026-03-29T09:32:12.998Z</time></trkpt><trkpt lat="39.38833690224686" lon="16.992180859326854"><ele>222.33333333333334</ele><time>2026-03-29T09:32:14.998Z</time></trkpt><trkpt lat="39.38833864070218" lon="16.992051422263234"><ele>222.66666666666669</ele><time>2026-03-29T09:32:16.998Z</time></trkpt><trkpt lat="39.38833340444913" lon="16.991936594997373"><ele>223.0</ele><time>2026-03-29T09:32:18.998Z</time></trkpt><trkpt lat="39.38832154315277" lon="16.99181648275093"><ele>223.33333333333334</ele><time>2026-03-29T09:32:20.998Z</time></trkpt><trkpt lat="39.38832807742584" lon="16.99171768635026"><ele>223.66666666666669</ele><time>2026-03-29T09:32:22.998Z</time></trkpt><trkpt lat="39.388279087985765" lon="16.99165243796923"><ele>224.0</ele><time>2026-03-29T09:32:30.998Z</time></trkpt><trkpt lat="39.3882637344128" lon="16.991547874265798"><ele>224.0</ele><time>2026-03-29T09:32:33.998Z</time></trkpt><trkpt lat="39.38826084426175" lon="16.99146611540154"><ele>224.0</ele><time>2026-03-29T09:32:35.998Z</time></trkpt><trkpt lat="39.38829074506452" lon="16.99139034301243"><ele>224.0</ele><time>2026-03-29T09:32:37.998Z</time></trkpt><trkpt lat="39.388324879244855" lon="16.991308433450406"><ele>224.0</ele><time>2026-03-29T09:32:40.998Z</time></trkpt><trkpt lat="39.38834715759107" lon="16.991230205137743"><ele>224.0</ele><time>2026-03-29T09:32:45.998Z</time></trkpt><trkpt lat="39.38830507335966" lon="16.991152076933087"><ele>224.0</ele><time>2026-03-29T09:32:54.998Z</time></trkpt><trkpt lat="39.38826911713217" lon="16.99108342854042"><ele>224.0</ele><time>2026-03-29T09:32:58.998Z</time></trkpt><trkpt lat="39.38825558488231" lon="16.99100092783092"><ele>224.0</ele><time>2026-03-29T09:33:01.998Z</time></trkpt><trkpt lat="39.38825001881108" lon="16.990895623219266"><ele>224.0</ele><time>2026-03-29T09:33:05.997Z</time></trkpt><trkpt lat="39.38823890323709" lon="16.990805887095657"><ele>224.0</ele><time>2026-03-29T09:33:10.997Z</time></trkpt><trkpt lat="39.388234777491654" lon="16.990711258083667"><ele>224.0</ele><time>2026-03-29T09:33:14.997Z</time></trkpt><trkpt lat="39.38823100753" lon="16.990615912694537"><ele>224.0</ele><time>2026-03-29T09:33:18.997Z</time></trkpt><trkpt lat="39.388209680845044" lon="16.990538428866113"><ele>224.0</ele><time>2026-03-29T09:33:21.997Z</time></trkpt><trkpt lat="39.38819118566734" lon="16.990457027001717"><ele>224.0</ele><time>2026-03-29T09:33:24.997Z</time></trkpt><trkpt lat="39.388174698794636" lon="16.990344990956768"><ele>225.50000000000003</ele><time>2026-03-29T09:33:27.997Z</time></trkpt><trkpt lat="39.388166343813104" lon="16.990238013751643"><ele>227.0</ele><time>2026-03-29T09:33:30.997Z</time></trkpt><trkpt lat="39.38816437395245" lon="16.99012178945054"><ele>228.5</ele><time>2026-03-29T09:33:33.997Z</time></trkpt><trkpt lat="39.38816512229814" lon="16.9900394338725"><ele>230.0</ele><time>2026-03-29T09:33:35.997Z</time></trkpt><trkpt lat="39.38816880966925" lon="16.98994639951548"><ele>231.50000000000003</ele><time>2026-03-29T09:33:39.997Z</time></trkpt><trkpt lat="39.38822592502312" lon="16.989891401765295"><ele>233.0</ele><time>2026-03-29T09:33:45.997Z</time></trkpt><trkpt lat="39.388239048703944" lon="16.989783853943802"><ele>235.0</ele><time>2026-03-29T09:33:47.997Z</time></trkpt><trkpt lat="39.388239754971465" lon="16.989637804415334"><ele>237.0</ele><time>2026-03-29T09:33:49.997Z</time></trkpt><trkpt lat="39.38823847043761" lon="16.98950162124477"><ele>239.0</ele><time>2026-03-29T09:33:51.997Z</time></trkpt><trkpt lat="39.38827527220776" lon="16.989384561496156"><ele>241.0</ele><time>2026-03-29T09:33:53.997Z</time></trkpt><trkpt lat="39.38827648711958" lon="16.98926137637869"><ele>243.0</ele><time>2026-03-29T09:33:55.997Z</time></trkpt><trkpt lat="39.388281036084045" lon="16.989141192934028"><ele>244.60000000000002</ele><time>2026-03-29T09:33:57.997Z</time></trkpt><trkpt lat="39.388296467043354" lon="16.98901922058105"><ele>246.20000000000002</ele><time>2026-03-29T09:33:59.997Z</time></trkpt><trkpt lat="39.38833332832103" lon="16.988894710296247"><ele>247.8</ele><time>2026-03-29T09:34:01.997Z</time></trkpt><trkpt lat="39.38835197542818" lon="16.98877132530586"><ele>249.4</ele><time>2026-03-29T09:34:03.997Z</time></trkpt><trkpt lat="39.3883796990039" lon="16.988648947866594"><ele>251.0</ele><time>2026-03-29T09:34:05.997Z</time></trkpt><trkpt lat="39.38841617013524" lon="16.988498652120605"><ele>251.0</ele><time>2026-03-29T09:34:07.997Z</time></trkpt><trkpt lat="39.38844398910774" lon="16.98842353800261"><ele>251.00000000000003</ele><time>2026-03-29T09:34:08.997Z</time></trkpt><trkpt lat="39.38847327021891" lon="16.988346871840445"><ele>251.00000000000003</ele><time>2026-03-29T09:34:09.997Z</time></trkpt><trkpt lat="39.38853106708369" lon="16.988214368555617"><ele>251.0</ele><time>2026-03-29T09:34:11.997Z</time></trkpt><trkpt lat="39.38857151742326" lon="16.988087842299166"><ele>251.0</ele><time>2026-03-29T09:34:13.997Z</time></trkpt><trkpt lat="39.38858245256145" lon="16.987953863332642"><ele>252.60000000000002</ele><time>2026-03-29T09:34:15.997Z</time></trkpt><trkpt lat="39.388565694333494" lon="16.98782229683673"><ele>254.20000000000002</ele><time>2026-03-29T09:34:17.997Z</time></trkpt><trkpt lat="39.38855284119413" lon="16.987723136305124"><ele>255.79999999999998</ele><time>2026-03-29T09:34:19.997Z</time></trkpt><trkpt lat="39.38853306564453" lon="16.987624755435686"><ele>257.4</ele><time>2026-03-29T09:34:21.997Z</time></trkpt><trkpt lat="39.388494837106514" lon="16.98751593118903"><ele>259.0</ele><time>2026-03-29T09:34:23.997Z</time></trkpt><trkpt lat="39.388449432106114" lon="16.987403536356638"><ele>260.16666666666663</ele><time>2026-03-29T09:34:25.997Z</time></trkpt><trkpt lat="39.38842062194475" lon="16.987299821246385"><ele>261.3333333333333</ele><time>2026-03-29T09:34:27.997Z</time></trkpt><trkpt lat="39.38839756787336" lon="16.98720602926969"><ele>262.5</ele><time>2026-03-29T09:34:29.997Z</time></trkpt><trkpt lat="39.388377073610776" lon="16.987108302990986"><ele>263.6666666666667</ele><time>2026-03-29T09:34:32Z</time></trkpt><trkpt lat="39.38836505867124" lon="16.987008432735866"><ele>264.83333333333337</ele><time>2026-03-29T09:34:34Z</time></trkpt><trkpt lat="39.38834901447192" lon="16.986907421364442"><ele>266.0</ele><time>2026-03-29T09:34:37Z</time></trkpt><trkpt lat="39.38832316639343" lon="16.986798437188458"><ele>266.0</ele><time>2026-03-29T09:34:40Z</time></trkpt><trkpt lat="39.388313835258145" lon="16.98669681389718"><ele>266.0</ele><time>2026-03-29T09:34:42Z</time></trkpt><trkpt lat="39.38834978777643" lon="16.986596282790266"><ele>266.0</ele><time>2026-03-29T09:34:45Z</time></trkpt><trkpt lat="39.388390916178544" lon="16.98644101120838"><ele>266.0</ele><time>2026-03-29T09:34:47Z</time></trkpt><trkpt lat="39.38840279331754" lon="16.986356965025827"><ele>266.0</ele><time>2026-03-29T09:34:48Z</time></trkpt><trkpt lat="39.3884010122975" lon="16.986204706813634"><ele>266.2</ele><time>2026-03-29T09:34:50Z</time></trkpt><trkpt lat="39.388409210117004" lon="16.9860684253747"><ele>266.40000000000003</ele><time>2026-03-29T09:34:52Z</time></trkpt><trkpt lat="39.388387574829736" lon="16.985947761086248"><ele>266.6</ele><time>2026-03-29T09:34:54Z</time></trkpt><trkpt lat="39.38835699503837" lon="16.98581773896092"><ele>266.8</ele><time>2026-03-29T09:34:56Z</time></trkpt><trkpt lat="39.388341355719746" lon="16.98567961416763"><ele>267.0</ele><time>2026-03-29T09:34:58Z</time></trkpt><trkpt lat="39.38832123692747" lon="16.985546445991027"><ele>267.6</ele><time>2026-03-29T09:35:00Z</time></trkpt><trkpt lat="39.38829328237695" lon="16.985415135790337"><ele>268.2</ele><time>2026-03-29T09:35:02Z</time></trkpt><trkpt lat="39.388278049144375" lon="16.985284415236833"><ele>268.8</ele><time>2026-03-29T09:35:04Z</time></trkpt><trkpt lat="39.38827380834267" lon="16.985178126583865"><ele>269.4</ele><time>2026-03-29T09:35:06Z</time></trkpt><trkpt lat="39.388260823606025" lon="16.985089094051204"><ele>270.0</ele><time>2026-03-29T09:35:08Z</time></trkpt><trkpt lat="39.38833535805991" lon="16.984971402605108"><ele>270.0</ele><time>2026-03-29T09:35:10Z</time></trkpt><trkpt lat="39.38835883277036" lon="16.984880977017212"><ele>270.0</ele><time>2026-03-29T09:35:11Z</time></trkpt><trkpt lat="39.38842742224475" lon="16.984750225101727"><ele>270.0</ele><time>2026-03-29T09:35:13Z</time></trkpt><trkpt lat="39.388494565553806" lon="16.984635702850227"><ele>270.0</ele><time>2026-03-29T09:35:15Z</time></trkpt><trkpt lat="39.38854740192854" lon="16.984542504029662"><ele>270.0</ele><time>2026-03-29T09:35:17Z</time></trkpt><trkpt lat="39.38863803242735" lon="16.984485262329372"><ele>270.0</ele><time>2026-03-29T09:35:19Z</time></trkpt><trkpt lat="39.38866911286815" lon="16.98439975052136"><ele>270.0</ele><time>2026-03-29T09:35:21Z</time></trkpt><trkpt lat="39.388695818536945" lon="16.98431889508737"><ele>270.0</ele><time>2026-03-29T09:35:23Z</time></trkpt><trkpt lat="39.388725506876995" lon="16.984210005878666"><ele>270.0</ele><time>2026-03-29T09:35:25Z</time></trkpt><trkpt lat="39.38875787141581" lon="16.98409916563695"><ele>270.0</ele><time>2026-03-29T09:35:27Z</time></trkpt><trkpt lat="39.388782278465214" lon="16.983998570299597"><ele>270.0</ele><time>2026-03-29T09:35:28.999Z</time></trkpt><trkpt lat="39.38883700751246" lon="16.983899361351803"><ele>267.3333333333333</ele><time>2026-03-29T09:35:30.999Z</time></trkpt><trkpt lat="39.38888425157785" lon="16.983777550362486"><ele>264.6666666666667</ele><time>2026-03-29T09:35:32.999Z</time></trkpt><trkpt lat="39.3889552858798" lon="16.983641805028476"><ele>262.0</ele><time>2026-03-29T09:35:34.999Z</time></trkpt><trkpt lat="39.38899917197283" lon="16.983576234322022"><ele>259.33333333333337</ele><time>2026-03-29T09:35:35.999Z</time></trkpt><trkpt lat="39.38904825691237" lon="16.983509754872117"><ele>256.6666666666667</ele><time>2026-03-29T09:35:36.999Z</time></trkpt><trkpt lat="39.38909984897649" lon="16.983443584277303"><ele>254.0</ele><time>2026-03-29T09:35:37.999Z</time></trkpt><trkpt lat="39.38915581124836" lon="16.98337401474304"><ele>254.50000000000003</ele><time>2026-03-29T09:35:38.999Z</time></trkpt><trkpt lat="39.38920278653399" lon="16.983289712338433"><ele>255.0</ele><time>2026-03-29T09:35:39.999Z</time></trkpt><trkpt lat="39.389225595603804" lon="16.983190381981373"><ele>255.5</ele><time>2026-03-29T09:35:40.999Z</time></trkpt><trkpt lat="39.38927114427775" lon="16.983102443795953"><ele>256.0</ele><time>2026-03-29T09:35:41.999Z</time></trkpt><trkpt lat="39.38929749773282" lon="16.983005987977343"><ele>256.5</ele><time>2026-03-29T09:35:42.999Z</time></trkpt><trkpt lat="39.38931395487109" lon="16.982898596368507"><ele>257.0</ele><time>2026-03-29T09:35:43.999Z</time></trkpt><trkpt lat="39.38932533497725" lon="16.98279072378691"><ele>257.0</ele><time>2026-03-29T09:35:44.999Z</time></trkpt><trkpt lat="39.38932726007113" lon="16.9826927414552"><ele>257.0</ele><time>2026-03-29T09:35:45.999Z</time></trkpt><trkpt lat="39.389349740469655" lon="16.982599204654445"><ele>257.0</ele><time>2026-03-29T09:35:46.999Z</time></trkpt><trkpt lat="39.3893782962528" lon="16.982516418124696"><ele>257.0</ele><time>2026-03-29T09:35:47.999Z</time></trkpt><trkpt lat="39.38941369128979" lon="16.982427544711808"><ele>257.0</ele><time>2026-03-29T09:35:48.999Z</time></trkpt><trkpt lat="39.389443389372374" lon="16.982344040287995"><ele>257.0</ele><time>2026-03-29T09:35:49.999Z</time></trkpt><trkpt lat="39.389470899314006" lon="16.982266688769787"><ele>257.0</ele><time>2026-03-29T09:35:50.999Z</time></trkpt><trkpt lat="39.389517184183966" lon="16.982134338078357"><ele>257.6666666666667</ele><time>2026-03-29T09:35:52.999Z</time></trkpt><trkpt lat="39.389587254814145" lon="16.98205256351477"><ele>258.33333333333337</ele><time>2026-03-29T09:35:53.999Z</time></trkpt><trkpt lat="39.38958777457966" lon="16.981964110805432"><ele>259.0</ele><time>2026-03-29T09:35:54.999Z</time></trkpt><trkpt lat="39.38955640322798" lon="16.981892883861267"><ele>259.6666666666667</ele><time>2026-03-29T09:36:00.999Z</time></trkpt><trkpt lat="39.38951751241687" lon="16.981798045493715"><ele>260.3333333333333</ele><time>2026-03-29T09:36:03.999Z</time></trkpt><trkpt lat="39.38945205966581" lon="16.981734819312827"><ele>261.0</ele><time>2026-03-29T09:36:05.999Z</time></trkpt><trkpt lat="39.38946248728721" lon="16.98163946485824"><ele>262.40000000000003</ele><time>2026-03-29T09:36:07.999Z</time></trkpt><trkpt lat="39.389515231207234" lon="16.981532804065765"><ele>263.8</ele><time>2026-03-29T09:36:09.999Z</time></trkpt><trkpt lat="39.38952857894749" lon="16.98141822400097"><ele>265.20000000000005</ele><time>2026-03-29T09:36:11.999Z</time></trkpt><trkpt lat="39.38958699749403" lon="16.98132877842195"><ele>266.6</ele><time>2026-03-29T09:36:13.999Z</time></trkpt><trkpt lat="39.38967028921803" lon="16.981228402010927"><ele>268.0</ele><time>2026-03-29T09:36:15.999Z</time></trkpt><trkpt lat="39.38972475607455" lon="16.981156335519533"><ele>268.8</ele><time>2026-03-29T09:36:16.999Z</time></trkpt><trkpt lat="39.389723168993164" lon="16.980915490796697"><ele>269.6</ele><time>2026-03-29T09:36:18.999Z</time></trkpt><trkpt lat="39.389661728941675" lon="16.980848068594167"><ele>270.4</ele><time>2026-03-29T09:36:19.999Z</time></trkpt><trkpt lat="39.38959552745802" lon="16.98081544648888"><ele>271.2</ele><time>2026-03-29T09:36:20.999Z</time></trkpt><trkpt lat="39.38951675926343" lon="16.980792514925263"><ele>272.0</ele><time>2026-03-29T09:36:22.999Z</time></trkpt><trkpt lat="39.38945024990584" lon="16.9807611159889"><ele>274.0</ele><time>2026-03-29T09:36:24.999Z</time></trkpt><trkpt lat="39.38940299414117" lon="16.980692903367775"><ele>276.0</ele><time>2026-03-29T09:36:26.999Z</time></trkpt><trkpt lat="39.389322962309095" lon="16.980571257021435"><ele>278.0</ele><time>2026-03-29T09:36:28.999Z</time></trkpt><trkpt lat="39.38927884564577" lon="16.980508762025156"><ele>280.0</ele><time>2026-03-29T09:36:29.999Z</time></trkpt><trkpt lat="39.38922593627604" lon="16.980459980536068"><ele>282.0</ele><time>2026-03-29T09:36:30.999Z</time></trkpt><trkpt lat="39.389153745843544" lon="16.98042818996367"><ele>284.0</ele><time>2026-03-29T09:36:31.999Z</time></trkpt><trkpt lat="39.389090521298094" lon="16.980415247940567"><ele>284.0</ele><time>2026-03-29T09:36:32.999Z</time></trkpt><trkpt lat="39.38898694048" lon="16.9803850206045"><ele>284.0</ele><time>2026-03-29T09:36:34.999Z</time></trkpt><trkpt lat="39.388883795615996" lon="16.98033759644051"><ele>284.0</ele><time>2026-03-29T09:36:36.999Z</time></trkpt><trkpt lat="39.38882471038137" lon="16.980307810882362"><ele>284.0</ele><time>2026-03-29T09:36:37.999Z</time></trkpt><trkpt lat="39.38874741032592" lon="16.980233611325662"><ele>284.0</ele><time>2026-03-29T09:36:39.999Z</time></trkpt><trkpt lat="39.38869667485496" lon="16.98014756761288"><ele>285.0</ele><time>2026-03-29T09:36:41.999Z</time></trkpt><trkpt lat="39.38867057696229" lon="16.980033893125285"><ele>286.0</ele><time>2026-03-29T09:36:44.999Z</time></trkpt><trkpt lat="39.388674889450364" lon="16.979945232213318"><ele>287.0</ele><time>2026-03-29T09:36:46.999Z</time></trkpt><trkpt lat="39.388681770536735" lon="16.979854504193884"><ele>288.0</ele><time>2026-03-29T09:36:54.999Z</time></trkpt><trkpt lat="39.38870578013926" lon="16.979750581077155"><ele>289.0</ele><time>2026-03-29T09:36:55.999Z</time></trkpt><trkpt lat="39.38864302355896" lon="16.97959533755052"><ele>289.0</ele><time>2026-03-29T09:36:56.999Z</time></trkpt><trkpt lat="39.388581560251225" lon="16.979559062104535"><ele>289.0</ele><time>2026-03-29T09:36:57.999Z</time></trkpt><trkpt lat="39.388480426698216" lon="16.979482126808698"><ele>289.0</ele><time>2026-03-29T09:36:59.999Z</time></trkpt><trkpt lat="39.388426049280774" lon="16.97942450509325"><ele>289.0</ele><time>2026-03-29T09:37:00.999Z</time></trkpt><trkpt lat="39.388373000786586" lon="16.97936334161172"><ele>289.0</ele><time>2026-03-29T09:37:01.999Z</time></trkpt><trkpt lat="39.38829777658339" lon="16.979276610239896"><ele>289.0</ele><time>2026-03-29T09:37:03.999Z</time></trkpt><trkpt lat="39.388221610588445" lon="16.979189543335888"><ele>288.0</ele><time>2026-03-29T09:37:05.999Z</time></trkpt><trkpt lat="39.388130204250324" lon="16.979108964015623"><ele>287.0</ele><time>2026-03-29T09:37:07.999Z</time></trkpt><trkpt lat="39.388047826069716" lon="16.979036793802255"><ele>286.0</ele><time>2026-03-29T09:37:09.999Z</time></trkpt><trkpt lat="39.38796199061388" lon="16.978965437930135"><ele>285.0</ele><time>2026-03-29T09:37:11.999Z</time></trkpt><trkpt lat="39.38783804128578" lon="16.978937769685075"><ele>284.0</ele><time>2026-03-29T09:37:13.999Z</time></trkpt><trkpt lat="39.38773162675858" lon="16.97887897649557"><ele>284.0</ele><time>2026-03-29T09:37:15.999Z</time></trkpt><trkpt lat="39.387657219202154" lon="16.97878686316168"><ele>284.0</ele><time>2026-03-29T09:37:17.999Z</time></trkpt><trkpt lat="39.38762215898206" lon="16.978635445522276"><ele>284.0</ele><time>2026-03-29T09:37:19.999Z</time></trkpt><trkpt lat="39.38761530112363" lon="16.97854379276104"><ele>284.0</ele><time>2026-03-29T09:37:20.999Z</time></trkpt><trkpt lat="39.38761185755807" lon="16.978446231313463"><ele>284.0</ele><time>2026-03-29T09:37:21.999Z</time></trkpt><trkpt lat="39.38759997698567" lon="16.978357554896405"><ele>284.0</ele><time>2026-03-29T09:37:22.999Z</time></trkpt><trkpt lat="39.38757042527791" lon="16.97827285236805"><ele>286.8</ele><time>2026-03-29T09:37:23.999Z</time></trkpt><trkpt lat="39.387535161756006" lon="16.978195037910584"><ele>289.59999999999997</ele><time>2026-03-29T09:37:24.999Z</time></trkpt><trkpt lat="39.38751104853405" lon="16.978118492829488"><ele>292.4</ele><time>2026-03-29T09:37:25.999Z</time></trkpt><trkpt lat="39.387465976448446" lon="16.977977206212664"><ele>295.2</ele><time>2026-03-29T09:37:27.999Z</time></trkpt><trkpt lat="39.3874197001758" lon="16.977837165727024"><ele>298.0</ele><time>2026-03-29T09:37:29.999Z</time></trkpt><trkpt lat="39.38735840678895" lon="16.97770499383776"><ele>298.0</ele><time>2026-03-29T09:37:31.999Z</time></trkpt><trkpt lat="39.38733278925627" lon="16.977572271555466"><ele>298.0</ele><time>2026-03-29T09:37:33.999Z</time></trkpt><trkpt lat="39.38733975596607" lon="16.97745485862847"><ele>298.0</ele><time>2026-03-29T09:37:35.999Z</time></trkpt><trkpt lat="39.38734774618107" lon="16.97736954742443"><ele>298.0</ele><time>2026-03-29T09:37:36.999Z</time></trkpt><trkpt lat="39.38735019875073" lon="16.977277363850863"><ele>298.0</ele><time>2026-03-29T09:37:37.999Z</time></trkpt><trkpt lat="39.38730211176632" lon="16.977142514903594"><ele>298.0</ele><time>2026-03-29T09:37:39.999Z</time></trkpt><trkpt lat="39.38727652629698" lon="16.977067393583425"><ele>298.8333333333333</ele><time>2026-03-29T09:37:40.999Z</time></trkpt><trkpt lat="39.387250656754574" lon="16.976991438142182"><ele>299.66666666666663</ele><time>2026-03-29T09:37:41.999Z</time></trkpt><trkpt lat="39.38721819929111" lon="16.97691181773482"><ele>300.5</ele><time>2026-03-29T09:37:42.999Z</time></trkpt><trkpt lat="39.38714844675427" lon="16.976787139382733"><ele>301.3333333333333</ele><time>2026-03-29T09:37:44.999Z</time></trkpt><trkpt lat="39.387044850904815" lon="16.976722876403183"><ele>302.1666666666667</ele><time>2026-03-29T09:37:46.999Z</time></trkpt><trkpt lat="39.38700935064983" lon="16.976634716125474"><ele>303.0</ele><time>2026-03-29T09:37:48.999Z</time></trkpt><trkpt lat="39.387095468780615" lon="16.976519216084437"><ele>302.3333333333333</ele><time>2026-03-29T09:37:50.999Z</time></trkpt><trkpt lat="39.38714586724262" lon="16.97644265482973"><ele>301.6666666666667</ele><time>2026-03-29T09:37:51.999Z</time></trkpt><trkpt lat="39.38718124082132" lon="16.976351343508185"><ele>301.0</ele><time>2026-03-29T09:37:52.999Z</time></trkpt><trkpt lat="39.38719016308891" lon="16.976237451993914"><ele>300.33333333333337</ele><time>2026-03-29T09:37:53.999Z</time></trkpt><trkpt lat="39.38719535716153" lon="16.976128613871875"><ele>299.6666666666667</ele><time>2026-03-29T09:37:54.999Z</time></trkpt><trkpt lat="39.38720149295456" lon="16.97603186055978"><ele>299.0</ele><time>2026-03-29T09:37:55.999Z</time></trkpt><trkpt lat="39.38722425235242" lon="16.975952013865342"><ele>299.0</ele><time>2026-03-29T09:37:56.999Z</time></trkpt><trkpt lat="39.38725363805976" lon="16.975876540127995"><ele>299.0</ele><time>2026-03-29T09:37:57.999Z</time></trkpt><trkpt lat="39.38731170154125" lon="16.975816246693835"><ele>299.0</ele><time>2026-03-29T09:37:58.999Z</time></trkpt><trkpt lat="39.38734721166137" lon="16.9757294523806"><ele>299.0</ele><time>2026-03-29T09:37:59.999Z</time></trkpt><trkpt lat="39.387402024719954" lon="16.975666145315465"><ele>299.0</ele><time>2026-03-29T09:38:00.999Z</time></trkpt><trkpt lat="39.387452292483786" lon="16.975606486340233"><ele>299.0</ele><time>2026-03-29T09:38:01.999Z</time></trkpt><trkpt lat="39.38750710187866" lon="16.975549667824986"><ele>299.0</ele><time>2026-03-29T09:38:02.999Z</time></trkpt><trkpt lat="39.38755443965367" lon="16.975480866596296"><ele>296.59999999999997</ele><time>2026-03-29T09:38:03.999Z</time></trkpt><trkpt lat="39.38760924380426" lon="16.975401490702012"><ele>294.2</ele><time>2026-03-29T09:38:04.999Z</time></trkpt><trkpt lat="39.38766663949306" lon="16.975312374483245"><ele>291.79999999999995</ele><time>2026-03-29T09:38:05.999Z</time></trkpt><trkpt lat="39.387727493971035" lon="16.975210073656047"><ele>289.4</ele><time>2026-03-29T09:38:06.999Z</time></trkpt><trkpt lat="39.387779615373105" lon="16.975088898366575"><ele>287.0</ele><time>2026-03-29T09:38:07.999Z</time></trkpt><trkpt lat="39.38781497489933" lon="16.97500560795781"><ele>285.2</ele><time>2026-03-29T09:38:08.999Z</time></trkpt><trkpt lat="39.38786705639106" lon="16.974881106796847"><ele>283.4</ele><time>2026-03-29T09:38:10.999Z</time></trkpt><trkpt lat="39.387934601654074" lon="16.974718184191754"><ele>281.6</ele><time>2026-03-29T09:38:12.999Z</time></trkpt><trkpt lat="39.38797813500595" lon="16.974613179636872"><ele>279.8</ele><time>2026-03-29T09:38:13.999Z</time></trkpt><trkpt lat="39.38802349393035" lon="16.974504192701165"><ele>278.0</ele><time>2026-03-29T09:38:14.999Z</time></trkpt><trkpt lat="39.388067448864184" lon="16.974398699149397"><ele>281.6666666666667</ele><time>2026-03-29T09:38:15.999Z</time></trkpt><trkpt lat="39.38810528377272" lon="16.97431165521931"><ele>285.33333333333337</ele><time>2026-03-29T09:38:16.999Z</time></trkpt><trkpt lat="39.3881411434767" lon="16.974235562003784"><ele>289.0</ele><time>2026-03-29T09:38:17.999Z</time></trkpt><trkpt lat="39.38817946227616" lon="16.974154251031525"><ele>292.6666666666667</ele><time>2026-03-29T09:38:18.999Z</time></trkpt><trkpt lat="39.38822523499248" lon="16.974058313959357"><ele>296.3333333333333</ele><time>2026-03-29T09:38:19.999Z</time></trkpt><trkpt lat="39.38827781766316" lon="16.973946544951097"><ele>300.0</ele><time>2026-03-29T09:38:20.999Z</time></trkpt><trkpt lat="39.388322239342564" lon="16.97383303304134"><ele>300.0</ele><time>2026-03-29T09:38:21.999Z</time></trkpt><trkpt lat="39.38836322688184" lon="16.973726972925114"><ele>300.0</ele><time>2026-03-29T09:38:22.999Z</time></trkpt><trkpt lat="39.38840089266165" lon="16.973629508254785"><ele>300.0</ele><time>2026-03-29T09:38:23.999Z</time></trkpt><trkpt lat="39.38843525445773" lon="16.973540593033544"><ele>300.0</ele><time>2026-03-29T09:38:24.999Z</time></trkpt><trkpt lat="39.38838564394027" lon="16.97340855440254"><ele>300.0</ele><time>2026-03-29T09:38:25.999Z</time></trkpt><trkpt lat="39.388416094843926" lon="16.973263560625284"><ele>298.6666666666667</ele><time>2026-03-29T09:38:27.999Z</time></trkpt><trkpt lat="39.38848574911777" lon="16.973227712532687"><ele>297.3333333333333</ele><time>2026-03-29T09:38:28.999Z</time></trkpt><trkpt lat="39.38852249759367" lon="16.97309853886802"><ele>296.0</ele><time>2026-03-29T09:38:30.999Z</time></trkpt><trkpt lat="39.388563795366316" lon="16.972953373986616"><ele>294.66666666666663</ele><time>2026-03-29T09:38:32.999Z</time></trkpt><trkpt lat="39.3885857696428" lon="16.97287613352308"><ele>293.3333333333333</ele><time>2026-03-29T09:38:33.999Z</time></trkpt><trkpt lat="39.38860152743232" lon="16.972777616685615"><ele>292.0</ele><time>2026-03-29T09:38:34.999Z</time></trkpt><trkpt lat="39.38860289616613" lon="16.97267771857857"><ele>292.0</ele><time>2026-03-29T09:38:35.999Z</time></trkpt><trkpt lat="39.38856224898489" lon="16.97256742005617"><ele>292.0</ele><time>2026-03-29T09:38:36.999Z</time></trkpt><trkpt lat="39.38851599846652" lon="16.972472990822745"><ele>292.0</ele><time>2026-03-29T09:38:37.999Z</time></trkpt><trkpt lat="39.38846897455422" lon="16.97237761993268"><ele>292.0</ele><time>2026-03-29T09:38:38.999Z</time></trkpt><trkpt lat="39.388431274926226" lon="16.972285247079768"><ele>292.0</ele><time>2026-03-29T09:38:39.998Z</time></trkpt><trkpt lat="39.38840657463199" lon="16.97219814972091"><ele>292.0</ele><time>2026-03-29T09:38:40.998Z</time></trkpt><trkpt lat="39.38840371999991" lon="16.97208799254745"><ele>292.6</ele><time>2026-03-29T09:38:42.998Z</time></trkpt><trkpt lat="39.388457021514384" lon="16.971984958377803"><ele>293.2</ele><time>2026-03-29T09:38:44.998Z</time></trkpt><trkpt lat="39.388543740567584" lon="16.971874168619856"><ele>293.8</ele><time>2026-03-29T09:38:46.998Z</time></trkpt><trkpt lat="39.38859329969304" lon="16.97181035147361"><ele>294.4</ele><time>2026-03-29T09:38:47.998Z</time></trkpt><trkpt lat="39.38867828614989" lon="16.97172055017564"><ele>295.0</ele><time>2026-03-29T09:38:49.998Z</time></trkpt><trkpt lat="39.38879934258328" lon="16.971667464188304"><ele>296.16666666666663</ele><time>2026-03-29T09:38:51.998Z</time></trkpt><trkpt lat="39.38887128700503" lon="16.97165582831244"><ele>297.3333333333333</ele><time>2026-03-29T09:38:52.998Z</time></trkpt><trkpt lat="39.388934951044114" lon="16.971649670675028"><ele>298.5</ele><time>2026-03-29T09:38:53.998Z</time></trkpt><trkpt lat="39.38904756524139" lon="16.97164752847766"><ele>299.6666666666667</ele><time>2026-03-29T09:38:55.998Z</time></trkpt><trkpt lat="39.38911610123995" lon="16.971666523292605"><ele>300.83333333333337</ele><time>2026-03-29T09:38:56.998Z</time></trkpt><trkpt lat="39.3891829890537" lon="16.97169326623305"><ele>302.0</ele><time>2026-03-29T09:38:57.998Z</time></trkpt><trkpt lat="39.389257859799606" lon="16.971708632446926"><ele>304.28571428571433</ele><time>2026-03-29T09:38:58.998Z</time></trkpt><trkpt lat="39.38931940831493" lon="16.971756213751792"><ele>306.57142857142856</ele><time>2026-03-29T09:38:59.998Z</time></trkpt><trkpt lat="39.38938101869527" lon="16.97180476337915"><ele>308.8571428571429</ele><time>2026-03-29T09:39:00.998Z</time></trkpt><trkpt lat="39.38944402870423" lon="16.971856425469344"><ele>311.14285714285717</ele><time>2026-03-29T09:39:01.998Z</time></trkpt><trkpt lat="39.38950127272917" lon="16.97191726701867"><ele>313.42857142857144</ele><time>2026-03-29T09:39:02.998Z</time></trkpt><trkpt lat="39.38955959864574" lon="16.971979507071907"><ele>315.7142857142857</ele><time>2026-03-29T09:39:03.998Z</time></trkpt><trkpt lat="39.38962444275902" lon="16.972041211699914"><ele>318.0</ele><time>2026-03-29T09:39:04.998Z</time></trkpt><trkpt lat="39.389693005054184" lon="16.97210361029079"><ele>318.3333333333333</ele><time>2026-03-29T09:39:05.998Z</time></trkpt><trkpt lat="39.389756831539124" lon="16.972155000270508"><ele>318.6666666666667</ele><time>2026-03-29T09:39:06.998Z</time></trkpt><trkpt lat="39.38982031669425" lon="16.97218027759974"><ele>319.0</ele><time>2026-03-29T09:39:07.998Z</time></trkpt><trkpt lat="39.3898859260069" lon="16.972204536660055"><ele>319.33333333333337</ele><time>2026-03-29T09:39:08.998Z</time></trkpt><trkpt lat="39.38995940859322" lon="16.972216722260814"><ele>319.6666666666667</ele><time>2026-03-29T09:39:09.998Z</time></trkpt><trkpt lat="39.390033780225636" lon="16.972206662802943"><ele>320.0</ele><time>2026-03-29T09:39:10.998Z</time></trkpt><trkpt lat="39.39012731971071" lon="16.972159898091334"><ele>320.0</ele><time>2026-03-29T09:39:11.998Z</time></trkpt><trkpt lat="39.39018533145413" lon="16.972055126155052"><ele>320.0</ele><time>2026-03-29T09:39:12.998Z</time></trkpt><trkpt lat="39.39020758012046" lon="16.971911592745155"><ele>320.0</ele><time>2026-03-29T09:39:14.998Z</time></trkpt><trkpt lat="39.39022398371269" lon="16.971779848085575"><ele>320.0</ele><time>2026-03-29T09:39:16.998Z</time></trkpt><trkpt lat="39.39023859959367" lon="16.971642844581847"><ele>320.0</ele><time>2026-03-29T09:39:18.998Z</time></trkpt><trkpt lat="39.39023674787692" lon="16.97150333031195"><ele>317.0</ele><time>2026-03-29T09:39:20.998Z</time></trkpt><trkpt lat="39.3902305080492" lon="16.971399717407053"><ele>314.0</ele><time>2026-03-29T09:39:22.998Z</time></trkpt><trkpt lat="39.39022172086233" lon="16.971260065729975"><ele>311.0</ele><time>2026-03-29T09:39:24.998Z</time></trkpt><trkpt lat="39.39020797778513" lon="16.971118945222962"><ele>308.0</ele><time>2026-03-29T09:39:26.998Z</time></trkpt><trkpt lat="39.390188630653356" lon="16.970990672758123"><ele>305.0</ele><time>2026-03-29T09:39:28.998Z</time></trkpt><trkpt lat="39.390179565894044" lon="16.970856544082437"><ele>304.0</ele><time>2026-03-29T09:39:30.998Z</time></trkpt><trkpt lat="39.39018561803518" lon="16.97071505896775"><ele>303.0</ele><time>2026-03-29T09:39:32.998Z</time></trkpt><trkpt lat="39.390232414007414" lon="16.970585517459753"><ele>302.0</ele><time>2026-03-29T09:39:34.998Z</time></trkpt><trkpt lat="39.390271402292406" lon="16.970520830399366"><ele>301.0</ele><time>2026-03-29T09:39:35.998Z</time></trkpt><trkpt lat="39.390312474940984" lon="16.970455994707386"><ele>300.0</ele><time>2026-03-29T09:39:36.998Z</time></trkpt><trkpt lat="39.39040372940713" lon="16.970349582322616"><ele>300.0</ele><time>2026-03-29T09:39:38.998Z</time></trkpt><trkpt lat="39.390457385542575" lon="16.970283392932746"><ele>300.0</ele><time>2026-03-29T09:39:39.998Z</time></trkpt><trkpt lat="39.39051937987735" lon="16.970190912556635"><ele>300.0</ele><time>2026-03-29T09:39:40.998Z</time></trkpt><trkpt lat="39.390575015402064" lon="16.970081356997618"><ele>300.0</ele><time>2026-03-29T09:39:41.998Z</time></trkpt><trkpt lat="39.39063231181947" lon="16.969975059415685"><ele>300.0</ele><time>2026-03-29T09:39:42.998Z</time></trkpt><trkpt lat="39.39068624958024" lon="16.969878074410893"><ele>302.3333333333333</ele><time>2026-03-29T09:39:43.998Z</time></trkpt><trkpt lat="39.39073900832312" lon="16.969787053544664"><ele>304.6666666666667</ele><time>2026-03-29T09:39:44.998Z</time></trkpt><trkpt lat="39.39079167117064" lon="16.96970234775371"><ele>307.0</ele><time>2026-03-29T09:39:45.998Z</time></trkpt><trkpt lat="39.3908490563057" lon="16.969613607386943"><ele>309.33333333333337</ele><time>2026-03-29T09:39:46.998Z</time></trkpt><trkpt lat="39.390891674910286" lon="16.969527439401663"><ele>311.6666666666667</ele><time>2026-03-29T09:39:47.998Z</time></trkpt><trkpt lat="39.39092772419455" lon="16.969445051860127"><ele>314.0</ele><time>2026-03-29T09:39:48.998Z</time></trkpt><trkpt lat="39.3909740694479" lon="16.969327256988148"><ele>314.0</ele><time>2026-03-29T09:39:50.998Z</time></trkpt><trkpt lat="39.39101101619516" lon="16.969233124165935"><ele>314.0</ele><time>2026-03-29T09:39:52.998Z</time></trkpt><trkpt lat="39.391060818428585" lon="16.969104820520727"><ele>314.0</ele><time>2026-03-29T09:39:54.998Z</time></trkpt><trkpt lat="39.391091939277224" lon="16.9690201381724"><ele>314.0</ele><time>2026-03-29T09:39:55.998Z</time></trkpt><trkpt lat="39.391124446513665" lon="16.9689316831063"><ele>314.0</ele><time>2026-03-29T09:39:56.998Z</time></trkpt><trkpt lat="39.391154467996145" lon="16.96884845217137"><ele>314.0</ele><time>2026-03-29T09:39:57.998Z</time></trkpt><trkpt lat="39.39119556066172" lon="16.96871693939543"><ele>314.4</ele><time>2026-03-29T09:39:59.998Z</time></trkpt><trkpt lat="39.391228111389395" lon="16.96859364537951"><ele>314.79999999999995</ele><time>2026-03-29T09:40:02.998Z</time></trkpt><trkpt lat="39.39125463043986" lon="16.968480359281266"><ele>315.20000000000005</ele><time>2026-03-29T09:40:04.998Z</time></trkpt><trkpt lat="39.39126705732169" lon="16.968320712439375"><ele>315.6</ele><time>2026-03-29T09:40:06.998Z</time></trkpt><trkpt lat="39.391287194113715" lon="16.96823494955087"><ele>316.0</ele><time>2026-03-29T09:40:07.998Z</time></trkpt><trkpt lat="39.391302778544734" lon="16.96814390057647"><ele>316.0</ele><time>2026-03-29T09:40:08.998Z</time></trkpt><trkpt lat="39.39133644348554" lon="16.968060914566504"><ele>316.0</ele><time>2026-03-29T09:40:09.998Z</time></trkpt><trkpt lat="39.3913589932587" lon="16.967961514856004"><ele>316.0</ele><time>2026-03-29T09:40:10.998Z</time></trkpt><trkpt lat="39.391404576817685" lon="16.96787511047894"><ele>316.0</ele><time>2026-03-29T09:40:11.998Z</time></trkpt><trkpt lat="39.39145157158858" lon="16.96778686791045"><ele>316.0</ele><time>2026-03-29T09:40:12.998Z</time></trkpt><trkpt lat="39.39149523017983" lon="16.96770496449593"><ele>316.0</ele><time>2026-03-29T09:40:13.998Z</time></trkpt><trkpt lat="39.3915346206865" lon="16.967626672396758"><ele>318.8333333333333</ele><time>2026-03-29T09:40:14.998Z</time></trkpt><trkpt lat="39.391572236005274" lon="16.967547506773208"><ele>321.66666666666663</ele><time>2026-03-29T09:40:15.998Z</time></trkpt><trkpt lat="39.391612520466126" lon="16.967472156124153"><ele>324.5</ele><time>2026-03-29T09:40:16.998Z</time></trkpt><trkpt lat="39.39165781256188" lon="16.967406928160624"><ele>327.3333333333333</ele><time>2026-03-29T09:40:17.998Z</time></trkpt><trkpt lat="39.39172218734851" lon="16.967274111929047"><ele>330.1666666666667</ele><time>2026-03-29T09:40:19.998Z</time></trkpt><trkpt lat="39.39178327151719" lon="16.967148084975488"><ele>333.0</ele><time>2026-03-29T09:40:21.998Z</time></trkpt><trkpt lat="39.39184429252614" lon="16.96702218840399"><ele>333.0</ele><time>2026-03-29T09:40:23.998Z</time></trkpt><trkpt lat="39.39190198132396" lon="16.96689919889235"><ele>333.0</ele><time>2026-03-29T09:40:25.998Z</time></trkpt><trkpt lat="39.39195813533635" lon="16.966778567765566"><ele>333.0</ele><time>2026-03-29T09:40:27.998Z</time></trkpt><trkpt lat="39.39201959928841" lon="16.966638462841633"><ele>333.0</ele><time>2026-03-29T09:40:29.998Z</time></trkpt><trkpt lat="39.39205000650404" lon="16.966555021286034"><ele>333.0</ele><time>2026-03-29T09:40:30.998Z</time></trkpt><trkpt lat="39.392059417033465" lon="16.96645863787222"><ele>334.59999999999997</ele><time>2026-03-29T09:40:31.998Z</time></trkpt><trkpt lat="39.39207834696" lon="16.96636586572191"><ele>336.2</ele><time>2026-03-29T09:40:32.998Z</time></trkpt><trkpt lat="39.392107448493235" lon="16.96628682482493"><ele>337.8</ele><time>2026-03-29T09:40:33.998Z</time></trkpt><trkpt lat="39.39213255533366" lon="16.966146537285777"><ele>339.4</ele><time>2026-03-29T09:40:35.998Z</time></trkpt><trkpt lat="39.39216077921157" lon="16.966006277091697"><ele>341.0</ele><time>2026-03-29T09:40:37.998Z</time></trkpt><trkpt lat="39.392188658973566" lon="16.965867726427454"><ele>340.1666666666667</ele><time>2026-03-29T09:40:39.998Z</time></trkpt><trkpt lat="39.39221752892123" lon="16.965717690061865"><ele>339.33333333333337</ele><time>2026-03-29T09:40:41.998Z</time></trkpt><trkpt lat="39.392217977713194" lon="16.96562872153008"><ele>338.5</ele><time>2026-03-29T09:40:42.998Z</time></trkpt><trkpt lat="39.39224205159004" lon="16.965540158771137"><ele>337.6666666666667</ele><time>2026-03-29T09:40:43.998Z</time></trkpt><trkpt lat="39.39226715994595" lon="16.96544636079486"><ele>336.8333333333333</ele><time>2026-03-29T09:40:44.998Z</time></trkpt><trkpt lat="39.39228932975513" lon="16.96534960740928"><ele>336.0</ele><time>2026-03-29T09:40:45.998Z</time></trkpt><trkpt lat="39.39232348004662" lon="16.9652785737914"><ele>336.0</ele><time>2026-03-29T09:40:46.998Z</time></trkpt><trkpt lat="39.392341616627945" lon="16.96515904835189"><ele>336.0</ele><time>2026-03-29T09:40:48.998Z</time></trkpt><trkpt lat="39.39233188030267" lon="16.9650149413728"><ele>336.0</ele><time>2026-03-29T09:40:50.998Z</time></trkpt><trkpt lat="39.392330140122496" lon="16.964859216470337"><ele>336.0</ele><time>2026-03-29T09:40:52.998Z</time></trkpt><trkpt lat="39.392299997113035" lon="16.964717958774703"><ele>336.0</ele><time>2026-03-29T09:40:54.998Z</time></trkpt><trkpt lat="39.3922841914456" lon="16.964564057601944"><ele>336.0</ele><time>2026-03-29T09:40:56.998Z</time></trkpt><trkpt lat="39.39224080632863" lon="16.964439571661778"><ele>336.0</ele><time>2026-03-29T09:40:58.998Z</time></trkpt><trkpt lat="39.39222273509984" lon="16.964331875105284"><ele>336.0</ele><time>2026-03-29T09:41:00.998Z</time></trkpt><trkpt lat="39.39223284719514" lon="16.964225291349806"><ele>336.0</ele><time>2026-03-29T09:41:02.998Z</time></trkpt><trkpt lat="39.39223741609914" lon="16.964062362387203"><ele>336.0</ele><time>2026-03-29T09:41:04.998Z</time></trkpt><trkpt lat="39.39223887853677" lon="16.96394448902717"><ele>336.0</ele><time>2026-03-29T09:41:05.998Z</time></trkpt><trkpt lat="39.39226082250049" lon="16.963846234966713"><ele>336.0</ele><time>2026-03-29T09:41:06.998Z</time></trkpt><trkpt lat="39.39227731809351" lon="16.96375419205024"><ele>336.0</ele><time>2026-03-29T09:41:07.998Z</time></trkpt><trkpt lat="39.39229215733984" lon="16.963661098573354"><ele>336.0</ele><time>2026-03-29T09:41:08.998Z</time></trkpt><trkpt lat="39.39231115556646" lon="16.96355227615075"><ele>336.0</ele><time>2026-03-29T09:41:09.998Z</time></trkpt><trkpt lat="39.39233730382795" lon="16.963429911305273"><ele>336.0</ele><time>2026-03-29T09:41:10.998Z</time></trkpt><trkpt lat="39.39236532009926" lon="16.96330765984177"><ele>336.20000000000005</ele><time>2026-03-29T09:41:11.998Z</time></trkpt><trkpt lat="39.392392520092734" lon="16.963181726987525"><ele>336.40000000000003</ele><time>2026-03-29T09:41:12.998Z</time></trkpt><trkpt lat="39.39241972638225" lon="16.96305197281117"><ele>336.6</ele><time>2026-03-29T09:41:13.998Z</time></trkpt><trkpt lat="39.39244150753593" lon="16.962924475455154"><ele>336.8</ele><time>2026-03-29T09:41:14.998Z</time></trkpt><trkpt lat="39.3924656879413" lon="16.962802239066857"><ele>337.0</ele><time>2026-03-29T09:41:15.998Z</time></trkpt><trkpt lat="39.392479657450764" lon="16.962671457963992"><ele>337.0</ele><time>2026-03-29T09:41:16.998Z</time></trkpt><trkpt lat="39.39250692353935" lon="16.962542190683312"><ele>337.0</ele><time>2026-03-29T09:41:17.998Z</time></trkpt><trkpt lat="39.392536027121785" lon="16.962416182633973"><ele>337.0</ele><time>2026-03-29T09:41:18.998Z</time></trkpt><trkpt lat="39.39256355036141" lon="16.96229776901427"><ele>337.0</ele><time>2026-03-29T09:41:19.998Z</time></trkpt><trkpt lat="39.392599152465166" lon="16.962190537964254"><ele>337.0</ele><time>2026-03-29T09:41:20.998Z</time></trkpt><trkpt lat="39.392646677380185" lon="16.962095301883327"><ele>337.3333333333333</ele><time>2026-03-29T09:41:21.998Z</time></trkpt><trkpt lat="39.39266612966083" lon="16.961997137489455"><ele>337.66666666666663</ele><time>2026-03-29T09:41:22.998Z</time></trkpt><trkpt lat="39.39267369069397" lon="16.96190798180863"><ele>338.0</ele><time>2026-03-29T09:41:23.998Z</time></trkpt><trkpt lat="39.392655852176425" lon="16.96182454893903"><ele>338.3333333333333</ele><time>2026-03-29T09:41:24.998Z</time></trkpt><trkpt lat="39.39267080500537" lon="16.961727497579297"><ele>338.6666666666667</ele><time>2026-03-29T09:41:25.998Z</time></trkpt><trkpt lat="39.392678395939186" lon="16.961606002977483"><ele>339.0</ele><time>2026-03-29T09:41:26.998Z</time></trkpt><trkpt lat="39.39269044837811" lon="16.961459108400458"><ele>337.5</ele><time>2026-03-29T09:41:27.998Z</time></trkpt><trkpt lat="39.39272183208407" lon="16.961293384809707"><ele>336.0</ele><time>2026-03-29T09:41:28.998Z</time></trkpt><trkpt lat="39.39273528530469" lon="16.961111688006486"><ele>334.5</ele><time>2026-03-29T09:41:29.998Z</time></trkpt><trkpt lat="39.39274405304306" lon="16.960927805684854"><ele>333.0</ele><time>2026-03-29T09:41:30.998Z</time></trkpt><trkpt lat="39.39275109020861" lon="16.960760549624922"><ele>333.0</ele><time>2026-03-29T09:41:31.998Z</time></trkpt><trkpt lat="39.392754479189264" lon="16.96061580357016"><ele>333.0</ele><time>2026-03-29T09:41:32.998Z</time></trkpt><trkpt lat="39.392746073354544" lon="16.9604867688548"><ele>333.0</ele><time>2026-03-29T09:41:33.998Z</time></trkpt><trkpt lat="39.39273866939857" lon="16.96036675009193"><ele>333.0</ele><time>2026-03-29T09:41:34.998Z</time></trkpt><trkpt lat="39.39273028972197" lon="16.96025711965673"><ele>333.0</ele><time>2026-03-29T09:41:35.998Z</time></trkpt><trkpt lat="39.39271219366904" lon="16.960163960186893"><ele>333.0</ele><time>2026-03-29T09:41:37Z</time></trkpt><trkpt lat="39.3926947456049" lon="16.96003351222376"><ele>333.0</ele><time>2026-03-29T09:41:39Z</time></trkpt><trkpt lat="39.39267975980579" lon="16.959934659807455"><ele>333.0</ele><time>2026-03-29T09:41:41Z</time></trkpt><trkpt lat="39.39266975381676" lon="16.959844057169956"><ele>333.0</ele><time>2026-03-29T09:41:43Z</time></trkpt><trkpt lat="39.39265950168617" lon="16.95973109653616"><ele>333.0</ele><time>2026-03-29T09:41:45Z</time></trkpt><trkpt lat="39.39264991737654" lon="16.95957811063504"><ele>333.0</ele><time>2026-03-29T09:41:47Z</time></trkpt><trkpt lat="39.3926226171961" lon="16.959494907525315"><ele>333.0</ele><time>2026-03-29T09:41:48Z</time></trkpt><trkpt lat="39.39260640093326" lon="16.959399783015936"><ele>333.0</ele><time>2026-03-29T09:41:49Z</time></trkpt><trkpt lat="39.392587984844255" lon="16.95929175454706"><ele>333.0</ele><time>2026-03-29T09:41:50Z</time></trkpt><trkpt lat="39.39256806104848" lon="16.959174883308226"><ele>333.0</ele><time>2026-03-29T09:41:51Z</time></trkpt><trkpt lat="39.392547246355434" lon="16.959053097400904"><ele>333.0</ele><time>2026-03-29T09:41:52Z</time></trkpt><trkpt lat="39.39252830482193" lon="16.9589294615568"><ele>332.4</ele><time>2026-03-29T09:41:53Z</time></trkpt><trkpt lat="39.392511306952635" lon="16.958817612001305"><ele>331.79999999999995</ele><time>2026-03-29T09:41:54Z</time></trkpt><trkpt lat="39.39250983067979" lon="16.958702915263206"><ele>331.2</ele><time>2026-03-29T09:41:55Z</time></trkpt><trkpt lat="39.392493295240776" lon="16.958587982023577"><ele>330.6</ele><time>2026-03-29T09:41:56Z</time></trkpt><trkpt lat="39.39247810124319" lon="16.95846385587481"><ele>330.0</ele><time>2026-03-29T09:41:57Z</time></trkpt><trkpt lat="39.39245805907487" lon="16.958341047887842"><ele>329.4</ele><time>2026-03-29T09:41:58Z</time></trkpt><trkpt lat="39.392447256830394" lon="16.95822315725876"><ele>328.8</ele><time>2026-03-29T09:41:59Z</time></trkpt><trkpt lat="39.39243507925574" lon="16.958106521073297"><ele>328.20000000000005</ele><time>2026-03-29T09:42:00Z</time></trkpt><trkpt lat="39.39243390867848" lon="16.957986680819825"><ele>327.6</ele><time>2026-03-29T09:42:01Z</time></trkpt><trkpt lat="39.39237429429188" lon="16.95786365365052"><ele>327.0</ele><time>2026-03-29T09:42:02Z</time></trkpt><trkpt lat="39.39236342787934" lon="16.95773767335628"><ele>327.0</ele><time>2026-03-29T09:42:03Z</time></trkpt><trkpt lat="39.39234999365725" lon="16.95761103604371"><ele>327.0</ele><time>2026-03-29T09:42:04Z</time></trkpt><trkpt lat="39.392335500700376" lon="16.95749012244593"><ele>327.0</ele><time>2026-03-29T09:42:05Z</time></trkpt><trkpt lat="39.39231329265632" lon="16.957377860408048"><ele>327.0</ele><time>2026-03-29T09:42:06Z</time></trkpt><trkpt lat="39.39229393466175" lon="16.957264149026624"><ele>327.0</ele><time>2026-03-29T09:42:07Z</time></trkpt><trkpt lat="39.39227384277132" lon="16.957148885571847"><ele>326.6666666666667</ele><time>2026-03-29T09:42:08Z</time></trkpt><trkpt lat="39.39224884134967" lon="16.957036859323235"><ele>326.3333333333333</ele><time>2026-03-29T09:42:09Z</time></trkpt><trkpt lat="39.39221068779537" lon="16.95693688332912"><ele>326.0</ele><time>2026-03-29T09:42:10Z</time></trkpt><trkpt lat="39.3921714140915" lon="16.956845302719778"><ele>325.66666666666663</ele><time>2026-03-29T09:42:11Z</time></trkpt><trkpt lat="39.39212565700211" lon="16.956766167708043"><ele>325.3333333333333</ele><time>2026-03-29T09:42:12Z</time></trkpt><trkpt lat="39.39208089746456" lon="16.95668737502655"><ele>325.0</ele><time>2026-03-29T09:42:13Z</time></trkpt><trkpt lat="39.39201077079745" lon="16.956628190533696"><ele>322.66666666666663</ele><time>2026-03-29T09:42:14Z</time></trkpt><trkpt lat="39.39197233079718" lon="16.95654375073453"><ele>320.3333333333333</ele><time>2026-03-29T09:42:15Z</time></trkpt><trkpt lat="39.39197092967624" lon="16.956447313518794"><ele>318.0</ele><time>2026-03-29T09:42:16Z</time></trkpt><trkpt lat="39.39196556572157" lon="16.95635609899854"><ele>315.6666666666667</ele><time>2026-03-29T09:42:17Z</time></trkpt><trkpt lat="39.391969001054036" lon="16.95626501701698"><ele>313.33333333333337</ele><time>2026-03-29T09:42:18Z</time></trkpt><trkpt lat="39.39198625561302" lon="16.95618119828807"><ele>311.0</ele><time>2026-03-29T09:42:19Z</time></trkpt><trkpt lat="39.39200297584107" lon="16.9560372623543"><ele>311.0</ele><time>2026-03-29T09:42:21Z</time></trkpt><trkpt lat="39.39190060077397" lon="16.955935106742384"><ele>311.0</ele><time>2026-03-29T09:42:23Z</time></trkpt><trkpt lat="39.39181660921961" lon="16.95589169476284"><ele>311.0</ele><time>2026-03-29T09:42:24Z</time></trkpt><trkpt lat="39.391721089816656" lon="16.95588242211195"><ele>311.0</ele><time>2026-03-29T09:42:25Z</time></trkpt><trkpt lat="39.391622862495424" lon="16.95588668516752"><ele>311.0</ele><time>2026-03-29T09:42:26Z</time></trkpt><trkpt lat="39.391527215547775" lon="16.95589085949035"><ele>311.0</ele><time>2026-03-29T09:42:27Z</time></trkpt><trkpt lat="39.391435555330624" lon="16.955879727265344"><ele>311.0</ele><time>2026-03-29T09:42:28Z</time></trkpt><trkpt lat="39.39134887917429" lon="16.955862308611408"><ele>311.0</ele><time>2026-03-29T09:42:29Z</time></trkpt><trkpt lat="39.391271176428546" lon="16.955852523954928"><ele>311.0</ele><time>2026-03-29T09:42:30Z</time></trkpt><trkpt lat="39.39119204459427" lon="16.95586860116994"><ele>311.0</ele><time>2026-03-29T09:42:31Z</time></trkpt><trkpt lat="39.391108842738475" lon="16.955894390382007"><ele>311.0</ele><time>2026-03-29T09:42:32Z</time></trkpt><trkpt lat="39.39102285759435" lon="16.955911662868473"><ele>312.40000000000003</ele><time>2026-03-29T09:42:33Z</time></trkpt><trkpt lat="39.39093433957714" lon="16.955906861168824"><ele>313.8</ele><time>2026-03-29T09:42:34Z</time></trkpt><trkpt lat="39.39084361087119" lon="16.955894577017467"><ele>315.20000000000005</ele><time>2026-03-29T09:42:35Z</time></trkpt><trkpt lat="39.39075014652473" lon="16.95587317747101"><ele>316.6</ele><time>2026-03-29T09:42:36Z</time></trkpt><trkpt lat="39.390653128813305" lon="16.955848400036395"><ele>318.0</ele><time>2026-03-29T09:42:37Z</time></trkpt><trkpt lat="39.39056047957946" lon="16.955828721028787"><ele>318.4</ele><time>2026-03-29T09:42:38Z</time></trkpt><trkpt lat="39.39047132970152" lon="16.955819067102727"><ele>318.8</ele><time>2026-03-29T09:42:39Z</time></trkpt><trkpt lat="39.39038189983175" lon="16.955808934140357"><ele>319.2</ele><time>2026-03-29T09:42:40Z</time></trkpt><trkpt lat="39.390292851579574" lon="16.955781808683753"><ele>319.6</ele><time>2026-03-29T09:42:41Z</time></trkpt><trkpt lat="39.39020340603487" lon="16.955741770487574"><ele>320.0</ele><time>2026-03-29T09:42:42Z</time></trkpt><trkpt lat="39.390117906700034" lon="16.95569800485233"><ele>320.0</ele><time>2026-03-29T09:42:43Z</time></trkpt><trkpt lat="39.39004104598089" lon="16.95566041236924"><ele>320.0</ele><time>2026-03-29T09:42:44Z</time></trkpt><trkpt lat="39.389971842189276" lon="16.955630497915987"><ele>320.0</ele><time>2026-03-29T09:42:45Z</time></trkpt><trkpt lat="39.389913090001905" lon="16.955598604022246"><ele>320.0</ele><time>2026-03-29T09:42:46Z</time></trkpt><trkpt lat="39.389819939406145" lon="16.955528802813323"><ele>320.0</ele><time>2026-03-29T09:42:48Z</time></trkpt><trkpt lat="39.389749146206064" lon="16.955463277927368"><ele>320.0</ele><time>2026-03-29T09:42:50Z</time></trkpt><trkpt lat="39.389692160438585" lon="16.955395348426123"><ele>319.8</ele><time>2026-03-29T09:42:54Z</time></trkpt><trkpt lat="39.389645343194275" lon="16.955331280434468"><ele>319.6</ele><time>2026-03-29T09:42:58Z</time></trkpt><trkpt lat="39.38957766942888" lon="16.955257483866294"><ele>319.4</ele><time>2026-03-29T09:43:00Z</time></trkpt><trkpt lat="39.3894652170976" lon="16.955155758590923"><ele>319.2</ele><time>2026-03-29T09:43:02Z</time></trkpt><trkpt lat="39.38938490656097" lon="16.95509159783362"><ele>319.0</ele><time>2026-03-29T09:43:03Z</time></trkpt><trkpt lat="39.38929746763929" lon="16.955013731653377"><ele>319.0</ele><time>2026-03-29T09:43:04Z</time></trkpt><trkpt lat="39.38920886569749" lon="16.954934540807983"><ele>319.0</ele><time>2026-03-29T09:43:05Z</time></trkpt><trkpt lat="39.38913276705736" lon="16.954859899021127"><ele>319.0</ele><time>2026-03-29T09:43:06Z</time></trkpt><trkpt lat="39.38906985075689" lon="16.95479426189598"><ele>319.0</ele><time>2026-03-29T09:43:07Z</time></trkpt><trkpt lat="39.38899765940178" lon="16.95475126253466"><ele>319.0</ele><time>2026-03-29T09:43:08Z</time></trkpt><trkpt lat="39.38891064274298" lon="16.954724389168685"><ele>318.0</ele><time>2026-03-29T09:43:09Z</time></trkpt><trkpt lat="39.388793285308275" lon="16.95473196173055"><ele>317.0</ele><time>2026-03-29T09:43:10Z</time></trkpt><trkpt lat="39.38865718339748" lon="16.95474735505465"><ele>316.0</ele><time>2026-03-29T09:43:11Z</time></trkpt><trkpt lat="39.3885242189776" lon="16.95477235606913"><ele>315.0</ele><time>2026-03-29T09:43:12Z</time></trkpt><trkpt lat="39.388401917284995" lon="16.954796905769136"><ele>315.0</ele><time>2026-03-29T09:43:13Z</time></trkpt><trkpt lat="39.38828800349425" lon="16.954787700422187"><ele>315.0</ele><time>2026-03-29T09:43:14Z</time></trkpt><trkpt lat="39.38818630289302" lon="16.954801255392795"><ele>315.0</ele><time>2026-03-29T09:43:15Z</time></trkpt><trkpt lat="39.38809698365138" lon="16.95482589561355"><ele>315.0</ele><time>2026-03-29T09:43:16Z</time></trkpt><trkpt lat="39.388022330588576" lon="16.9548547649812"><ele>315.0</ele><time>2026-03-29T09:43:17Z</time></trkpt><trkpt lat="39.387944261448546" lon="16.954864961120506"><ele>315.6</ele><time>2026-03-29T09:43:18Z</time></trkpt><trkpt lat="39.387858079736276" lon="16.954871663904683"><ele>316.2</ele><time>2026-03-29T09:43:19Z</time></trkpt><trkpt lat="39.38775971318993" lon="16.95488064013715"><ele>316.8</ele><time>2026-03-29T09:43:20Z</time></trkpt><trkpt lat="39.38764362006736" lon="16.954908451483547"><ele>317.4</ele><time>2026-03-29T09:43:21Z</time></trkpt><trkpt lat="39.387532526723966" lon="16.954973509142214"><ele>318.0</ele><time>2026-03-29T09:43:22Z</time></trkpt><trkpt lat="39.38741688404622" lon="16.955009751591124"><ele>315.2</ele><time>2026-03-29T09:43:23Z</time></trkpt><trkpt lat="39.38730694202828" lon="16.955047523922758"><ele>312.4</ele><time>2026-03-29T09:43:24Z</time></trkpt><trkpt lat="39.38720207758004" lon="16.95507979122068"><ele>309.59999999999997</ele><time>2026-03-29T09:43:25Z</time></trkpt><trkpt lat="39.387101924560746" lon="16.955108097978783"><ele>306.8</ele><time>2026-03-29T09:43:26Z</time></trkpt><trkpt lat="39.38700582205099" lon="16.955117741847005"><ele>304.0</ele><time>2026-03-29T09:43:27Z</time></trkpt><trkpt lat="39.38692098543364" lon="16.955141604205732"><ele>304.0</ele><time>2026-03-29T09:43:28Z</time></trkpt><trkpt lat="39.38684110647858" lon="16.955164072098373"><ele>304.0</ele><time>2026-03-29T09:43:29Z</time></trkpt><trkpt lat="39.38677061292696" lon="16.955183900120954"><ele>304.0</ele><time>2026-03-29T09:43:30Z</time></trkpt><trkpt lat="39.38665016520396" lon="16.955217778956197"><ele>304.0</ele><time>2026-03-29T09:43:32Z</time></trkpt><trkpt lat="39.386549064863566" lon="16.955264986785455"><ele>304.0</ele><time>2026-03-29T09:43:34Z</time></trkpt><trkpt lat="39.38647024797778" lon="16.95527091428089"><ele>304.0</ele><time>2026-03-29T09:43:36Z</time></trkpt><trkpt lat="39.386409529567004" lon="16.955305047403318"><ele>304.0</ele><time>2026-03-29T09:43:38Z</time></trkpt><trkpt lat="39.38632493645781" lon="16.9553077119396"><ele>304.0</ele><time>2026-03-29T09:43:41Z</time></trkpt><trkpt lat="39.3862431981507" lon="16.955291688637196"><ele>304.0</ele><time>2026-03-29T09:43:43Z</time></trkpt><trkpt lat="39.38614982269802" lon="16.955303894324764"><ele>304.0</ele><time>2026-03-29T09:43:45Z</time></trkpt><trkpt lat="39.38603244556525" lon="16.955302162195526"><ele>304.0</ele><time>2026-03-29T09:43:47Z</time></trkpt><trkpt lat="39.38596899406346" lon="16.955288380978587"><ele>304.16666666666663</ele><time>2026-03-29T09:43:47.999Z</time></trkpt><trkpt lat="39.38589930038403" lon="16.95530107333109"><ele>304.3333333333333</ele><time>2026-03-29T09:43:48.999Z</time></trkpt><trkpt lat="39.385829297181644" lon="16.955301949053965"><ele>304.5</ele><time>2026-03-29T09:43:49.999Z</time></trkpt><trkpt lat="39.38572471957752" lon="16.955302141571483"><ele>304.6666666666667</ele><time>2026-03-29T09:43:51.999Z</time></trkpt><trkpt lat="39.385653033662734" lon="16.9552931982494"><ele>304.83333333333337</ele><time>2026-03-29T09:43:53.999Z</time></trkpt><trkpt lat="39.38558270107989" lon="16.95529227936491"><ele>305.0</ele><time>2026-03-29T09:43:56.999Z</time></trkpt><trkpt lat="39.38550694893995" lon="16.955282841968774"><ele>306.2</ele><time>2026-03-29T09:43:59.999Z</time></trkpt><trkpt lat="39.38544059689123" lon="16.955265640583807"><ele>307.4</ele><time>2026-03-29T09:44:01.999Z</time></trkpt><trkpt lat="39.38534867912972" lon="16.95524561733303"><ele>308.6</ele><time>2026-03-29T09:44:03.999Z</time></trkpt><trkpt lat="39.38525043975389" lon="16.95522635813565"><ele>309.8</ele><time>2026-03-29T09:44:05.999Z</time></trkpt><trkpt lat="39.38514885849711" lon="16.955257092549505"><ele>311.0</ele><time>2026-03-29T09:44:07.999Z</time></trkpt><trkpt lat="39.38504276813651" lon="16.95523150863642"><ele>311.0</ele><time>2026-03-29T09:44:09.999Z</time></trkpt><trkpt lat="39.38498863097427" lon="16.955286064824534"><ele>311.0</ele><time>2026-03-29T09:44:10.999Z</time></trkpt><trkpt lat="39.38489389828251" lon="16.955305229053096"><ele>311.0</ele><time>2026-03-29T09:44:12.999Z</time></trkpt><trkpt lat="39.38475443251579" lon="16.955322232013177"><ele>311.0</ele><time>2026-03-29T09:44:14.999Z</time></trkpt><trkpt lat="39.384672781677914" lon="16.95532994080004"><ele>311.0</ele><time>2026-03-29T09:44:15.999Z</time></trkpt><trkpt lat="39.384598220080036" lon="16.95535167176945"><ele>311.83333333333337</ele><time>2026-03-29T09:44:16.999Z</time></trkpt><trkpt lat="39.38452636754092" lon="16.95534997576952"><ele>312.6666666666667</ele><time>2026-03-29T09:44:17.999Z</time></trkpt><trkpt lat="39.3844152069611" lon="16.955361038988023"><ele>313.5</ele><time>2026-03-29T09:44:19.999Z</time></trkpt><trkpt lat="39.3843342233878" lon="16.955372462986894"><ele>314.3333333333333</ele><time>2026-03-29T09:44:21.999Z</time></trkpt><trkpt lat="39.384270438289" lon="16.95538507643964"><ele>315.16666666666663</ele><time>2026-03-29T09:44:23.999Z</time></trkpt><trkpt lat="39.3841966032927" lon="16.955400997899616"><ele>316.0</ele><time>2026-03-29T09:44:25.999Z</time></trkpt><trkpt lat="39.3840857146868" lon="16.955421828274787"><ele>316.0</ele><time>2026-03-29T09:44:27.999Z</time></trkpt><trkpt lat="39.38402123003286" lon="16.95544789530779"><ele>316.0</ele><time>2026-03-29T09:44:28.999Z</time></trkpt><trkpt lat="39.383954634731666" lon="16.955451588663223"><ele>316.0</ele><time>2026-03-29T09:44:29.999Z</time></trkpt><trkpt lat="39.38388634278511" lon="16.95546549896358"><ele>316.0</ele><time>2026-03-29T09:44:30.999Z</time></trkpt><trkpt lat="39.3838147508003" lon="16.955453995007726"><ele>316.0</ele><time>2026-03-29T09:44:31.999Z</time></trkpt><trkpt lat="39.38374722139335" lon="16.955463051612462"><ele>316.0</ele><time>2026-03-29T09:44:32.999Z</time></trkpt><trkpt lat="39.383630529879746" lon="16.955469749791494"><ele>316.0</ele><time>2026-03-29T09:44:34.999Z</time></trkpt><trkpt lat="39.38351258013867" lon="16.955436531427512"><ele>316.0</ele><time>2026-03-29T09:44:36.999Z</time></trkpt><trkpt lat="39.383445897982384" lon="16.95540444638784"><ele>316.0</ele><time>2026-03-29T09:44:37.999Z</time></trkpt><trkpt lat="39.38337703508457" lon="16.95537131201486"><ele>316.0</ele><time>2026-03-29T09:44:38.999Z</time></trkpt><trkpt lat="39.38330031653205" lon="16.95536054801463"><ele>316.0</ele><time>2026-03-29T09:44:39.999Z</time></trkpt><trkpt lat="39.383230950003416" lon="16.955328915201065"><ele>316.0</ele><time>2026-03-29T09:44:40.999Z</time></trkpt><trkpt lat="39.38316242679886" lon="16.955312070608198"><ele>316.0</ele><time>2026-03-29T09:44:41.999Z</time></trkpt><trkpt lat="39.38309540928475" lon="16.955296132057537"><ele>316.0</ele><time>2026-03-29T09:44:42.999Z</time></trkpt><trkpt lat="39.38303027158972" lon="16.955285836866622"><ele>316.0</ele><time>2026-03-29T09:44:43.999Z</time></trkpt><trkpt lat="39.38290970620656" lon="16.95526973098594"><ele>316.0</ele><time>2026-03-29T09:44:45.999Z</time></trkpt><trkpt lat="39.38280751561301" lon="16.955227780053704"><ele>316.0</ele><time>2026-03-29T09:44:47.999Z</time></trkpt><trkpt lat="39.38273314577668" lon="16.955228890164737"><ele>316.0</ele><time>2026-03-29T09:44:49.999Z</time></trkpt><trkpt lat="39.38265879739458" lon="16.955211387084177"><ele>315.0</ele><time>2026-03-29T09:44:52.999Z</time></trkpt><trkpt lat="39.38258798694785" lon="16.955203827884674"><ele>314.0</ele><time>2026-03-29T09:44:54.999Z</time></trkpt><trkpt lat="39.382524594494754" lon="16.955173785297077"><ele>313.0</ele><time>2026-03-29T09:44:56.999Z</time></trkpt><trkpt lat="39.38244670734741" lon="16.95514271958552"><ele>312.0</ele><time>2026-03-29T09:44:58.999Z</time></trkpt><trkpt lat="39.382341361094525" lon="16.955128113896592"><ele>311.0</ele><time>2026-03-29T09:45:00.999Z</time></trkpt><trkpt lat="39.38224508827391" lon="16.955126575621776"><ele>310.0</ele><time>2026-03-29T09:45:02.999Z</time></trkpt><trkpt lat="39.38217224639878" lon="16.9551099752392"><ele>309.66666666666663</ele><time>2026-03-29T09:45:04.999Z</time></trkpt><trkpt lat="39.382097214716914" lon="16.95510822713425"><ele>309.3333333333333</ele><time>2026-03-29T09:45:07.999Z</time></trkpt><trkpt lat="39.382029329908256" lon="16.955112197782025"><ele>309.0</ele><time>2026-03-29T09:45:10.999Z</time></trkpt><trkpt lat="39.38193945459501" lon="16.955079571139077"><ele>308.6666666666667</ele><time>2026-03-29T09:45:12.999Z</time></trkpt><trkpt lat="39.38187302083184" lon="16.95506919634134"><ele>308.33333333333337</ele><time>2026-03-29T09:45:13.999Z</time></trkpt><trkpt lat="39.38175652549823" lon="16.955061716552112"><ele>308.0</ele><time>2026-03-29T09:45:15.999Z</time></trkpt><trkpt lat="39.38167800116661" lon="16.955059899112047"><ele>308.0</ele><time>2026-03-29T09:45:17.999Z</time></trkpt><trkpt lat="39.381594307832586" lon="16.95508759493511"><ele>308.0</ele><time>2026-03-29T09:45:20.999Z</time></trkpt><trkpt lat="39.38153006978252" lon="16.955100861197312"><ele>308.0</ele><time>2026-03-29T09:45:23.999Z</time></trkpt><trkpt lat="39.38143812831674" lon="16.955119848605616"><ele>308.0</ele><time>2026-03-29T09:45:26.999Z</time></trkpt><trkpt lat="39.381327132763964" lon="16.955124967165407"><ele>308.0</ele><time>2026-03-29T09:45:28.999Z</time></trkpt><trkpt lat="39.38126188038315" lon="16.955114323111424"><ele>308.0</ele><time>2026-03-29T09:45:29.999Z</time></trkpt><trkpt lat="39.38114163374792" lon="16.955107952667245"><ele>308.4</ele><time>2026-03-29T09:45:31.999Z</time></trkpt><trkpt lat="39.38103442981908" lon="16.95511539864326"><ele>308.8</ele><time>2026-03-29T09:45:33.999Z</time></trkpt><trkpt lat="39.38093652278531" lon="16.95517006423404"><ele>309.2</ele><time>2026-03-29T09:45:35.999Z</time></trkpt><trkpt lat="39.380828539543735" lon="16.95520499880992"><ele>309.6</ele><time>2026-03-29T09:45:37.999Z</time></trkpt><trkpt lat="39.38072951435967" lon="16.955201382184217"><ele>310.0</ele><time>2026-03-29T09:45:39.999Z</time></trkpt><trkpt lat="39.38066795416525" lon="16.955167909489"><ele>310.0</ele><time>2026-03-29T09:45:41.999Z</time></trkpt><trkpt lat="39.38058541282413" lon="16.95511133756003"><ele>310.0</ele><time>2026-03-29T09:45:44.999Z</time></trkpt><trkpt lat="39.38050447710921" lon="16.955082908057925"><ele>310.0</ele><time>2026-03-29T09:45:47.999Z</time></trkpt><trkpt lat="39.380425455422035" lon="16.95504014468028"><ele>310.0</ele><time>2026-03-29T09:45:50.999Z</time></trkpt><trkpt lat="39.380356314055575" lon="16.95500492319585"><ele>310.0</ele><time>2026-03-29T09:45:54.999Z</time></trkpt><trkpt lat="39.380288847631725" lon="16.95497025950378"><ele>310.0</ele><time>2026-03-29T09:46:14.999Z</time></trkpt><trkpt lat="39.38021851487853" lon="16.954936443403092"><ele>310.42857142857144</ele><time>2026-03-29T09:46:28.999Z</time></trkpt><trkpt lat="39.380154111216605" lon="16.954904423195917"><ele>310.85714285714283</ele><time>2026-03-29T09:46:33.999Z</time></trkpt><trkpt lat="39.380098655430935" lon="16.95485656383781"><ele>311.2857142857143</ele><time>2026-03-29T09:46:38.999Z</time></trkpt><trkpt lat="39.380039408549294" lon="16.954799024444544"><ele>311.7142857142857</ele><time>2026-03-29T09:46:44.999Z</time></trkpt><trkpt lat="39.379984558484466" lon="16.954758084928642"><ele>312.14285714285717</ele><time>2026-03-29T09:46:51.999Z</time></trkpt><trkpt lat="39.37992232916178" lon="16.95471305303014"><ele>312.57142857142856</ele><time>2026-03-29T09:46:55.998Z</time></trkpt><trkpt lat="39.37985507589634" lon="16.954687167261202"><ele>313.0</ele><time>2026-03-29T09:46:58.998Z</time></trkpt><trkpt lat="39.37979455559841" lon="16.954633192119907"><ele>313.0</ele><time>2026-03-29T09:47:03.998Z</time></trkpt><trkpt lat="39.37973516943135" lon="16.954603582834245"><ele>313.0</ele><time>2026-03-29T09:47:09.998Z</time></trkpt><trkpt lat="39.37968973272898" lon="16.954533520962855"><ele>313.0</ele><time>2026-03-29T09:47:16.998Z</time></trkpt><trkpt lat="39.379640130313824" lon="16.954483335009137"><ele>313.0</ele><time>2026-03-29T09:47:22.998Z</time></trkpt><trkpt lat="39.379578041705194" lon="16.954432518495796"><ele>313.0</ele><time>2026-03-29T09:47:27.998Z</time></trkpt><trkpt lat="39.379510066846684" lon="16.954387288489013"><ele>313.0</ele><time>2026-03-29T09:47:49.998Z</time></trkpt><trkpt lat="39.37944340411445" lon="16.954347999755484"><ele>313.0</ele><time>2026-03-29T09:47:58.998Z</time></trkpt><trkpt lat="39.3793768314168" lon="16.95431051174487"><ele>313.7142857142857</ele><time>2026-03-29T09:48:02.998Z</time></trkpt><trkpt lat="39.37931438774118" lon="16.954278476119043"><ele>314.42857142857144</ele><time>2026-03-29T09:48:06.998Z</time></trkpt><trkpt lat="39.3792512532464" lon="16.95424749290676"><ele>315.1428571428571</ele><time>2026-03-29T09:48:15.998Z</time></trkpt><trkpt lat="39.379184281687834" lon="16.954217616189982"><ele>315.8571428571429</ele><time>2026-03-29T09:48:22.998Z</time></trkpt><trkpt lat="39.379117376536286" lon="16.954194218116836"><ele>316.5714285714286</ele><time>2026-03-29T09:48:29.998Z</time></trkpt><trkpt lat="39.37904575745136" lon="16.954169510149576"><ele>317.2857142857143</ele><time>2026-03-29T09:48:35.998Z</time></trkpt><trkpt lat="39.378985483838655" lon="16.954142412490327"><ele>318.0</ele><time>2026-03-29T09:48:43Z</time></trkpt><trkpt lat="39.37892826626142" lon="16.954106871555396"><ele>315.2857142857143</ele><time>2026-03-29T09:48:52Z</time></trkpt><trkpt lat="39.3788702164475" lon="16.954057107264653"><ele>312.5714285714286</ele><time>2026-03-29T09:48:59Z</time></trkpt><trkpt lat="39.37881697278035" lon="16.95399700321654"><ele>309.8571428571429</ele><time>2026-03-29T09:49:08Z</time></trkpt><trkpt lat="39.37876828838976" lon="16.953935055011996"><ele>307.1428571428571</ele><time>2026-03-29T09:49:17Z</time></trkpt><trkpt lat="39.37872122072236" lon="16.953869728976454"><ele>304.42857142857144</ele><time>2026-03-29T09:49:25Z</time></trkpt><trkpt lat="39.37867184153293" lon="16.953800039091078"><ele>301.7142857142857</ele><time>2026-03-29T09:49:32.999Z</time></trkpt><trkpt lat="39.37862436203075" lon="16.953734811554778"><ele>299.0</ele><time>2026-03-29T09:49:38.999Z</time></trkpt><trkpt lat="39.37857754094712" lon="16.953676057250917"><ele>299.0</ele><time>2026-03-29T09:49:46.999Z</time></trkpt><trkpt lat="39.37852174558894" lon="16.953627569401245"><ele>299.0</ele><time>2026-03-29T09:49:55.999Z</time></trkpt><trkpt lat="39.37846683304543" lon="16.95357098985522"><ele>299.0</ele><time>2026-03-29T09:50:00.999Z</time></trkpt><trkpt lat="39.3784016940561" lon="16.953528865789192"><ele>299.0</ele><time>2026-03-29T09:50:05.999Z</time></trkpt><trkpt lat="39.378330491269445" lon="16.953483341839604"><ele>299.0</ele><time>2026-03-29T09:50:09.999Z</time></trkpt><trkpt lat="39.378275646101024" lon="16.95343485024165"><ele>299.0</ele><time>2026-03-29T09:50:14.999Z</time></trkpt><trkpt lat="39.378216399680866" lon="16.953406972591207"><ele>299.0</ele><time>2026-03-29T09:50:18.999Z</time></trkpt><trkpt lat="39.37814765693314" lon="16.953370995366054"><ele>299.0</ele><time>2026-03-29T09:50:48.999Z</time></trkpt><trkpt lat="39.37809201599005" lon="16.95331606550857"><ele>299.0</ele><time>2026-03-29T09:50:53.999Z</time></trkpt><trkpt lat="39.378079877367384" lon="16.95339631037291"><ele>299.0</ele><time>2026-03-29T09:56:24Z</time></trkpt><trkpt lat="39.37807435551472" lon="16.953312114260928"><ele>299.0</ele><time>2026-03-29T10:00:27.999Z</time></trkpt><trkpt lat="39.37794736871786" lon="16.953289300982497"><ele>299.0</ele><time>2026-03-29T10:01:21.999Z</time></trkpt><trkpt lat="39.37787322259218" lon="16.953274824613917"><ele>299.0</ele><time>2026-03-29T10:01:54.998Z</time></trkpt><trkpt lat="39.3778537037816" lon="16.953190378977713"><ele>294.85714285714283</ele><time>2026-03-29T10:02:10.998Z</time></trkpt><trkpt lat="39.377810687711566" lon="16.95312082085583"><ele>290.7142857142857</ele><time>2026-03-29T10:02:27.998Z</time></trkpt><trkpt lat="39.37774859241181" lon="16.953073772933347"><ele>286.57142857142856</ele><time>2026-03-29T10:02:36.998Z</time></trkpt><trkpt lat="39.37769655474567" lon="16.95301257933853"><ele>282.42857142857144</ele><time>2026-03-29T10:02:42.998Z</time></trkpt><trkpt lat="39.377638285712884" lon="16.952942513024443"><ele>278.2857142857143</ele><time>2026-03-29T10:02:48.998Z</time></trkpt><trkpt lat="39.377590781185226" lon="16.952868520716997"><ele>274.1428571428571</ele><time>2026-03-29T10:02:52.998Z</time></trkpt><trkpt lat="39.3775719079575" lon="16.952785404225185"><ele>270.0</ele><time>2026-03-29T10:02:58.001Z</time></trkpt><trkpt lat="39.377530726177206" lon="16.95270988269817"><ele>270.0</ele><time>2026-03-29T10:03:05.001Z</time></trkpt><trkpt lat="39.37747024039287" lon="16.95264748362724"><ele>270.0</ele><time>2026-03-29T10:03:11.001Z</time></trkpt><trkpt lat="39.37740267780601" lon="16.952650506935626"><ele>270.0</ele><time>2026-03-29T10:03:15.001Z</time></trkpt><trkpt lat="39.377328641088184" lon="16.95260926593535"><ele>270.0</ele><time>2026-03-29T10:03:26Z</time></trkpt><trkpt lat="39.37724989877617" lon="16.95256222712009"><ele>270.0</ele><time>2026-03-29T10:03:29Z</time></trkpt><trkpt lat="39.37716811201915" lon="16.952511744444486"><ele>270.0</ele><time>2026-03-29T10:03:32Z</time></trkpt><trkpt lat="39.37710119373736" lon="16.952473426147545"><ele>267.0</ele><time>2026-03-29T10:03:34Z</time></trkpt><trkpt lat="39.377035243915245" lon="16.95244637126426"><ele>264.0</ele><time>2026-03-29T10:03:36Z</time></trkpt><trkpt lat="39.376966556159346" lon="16.952427802366966"><ele>261.0</ele><time>2026-03-29T10:03:38Z</time></trkpt><trkpt lat="39.37689760167261" lon="16.952409266967063"><ele>258.0</ele><time>2026-03-29T10:03:40Z</time></trkpt><trkpt lat="39.37682694647113" lon="16.952380322391882"><ele>254.99999999999997</ele><time>2026-03-29T10:03:42Z</time></trkpt><trkpt lat="39.37676414623045" lon="16.952346114450798"><ele>252.0</ele><time>2026-03-29T10:03:44Z</time></trkpt><trkpt lat="39.37669857718749" lon="16.952311887548927"><ele>249.0</ele><time>2026-03-29T10:03:46Z</time></trkpt><trkpt lat="39.37663701870103" lon="16.952279754148766"><ele>249.0</ele><time>2026-03-29T10:03:48Z</time></trkpt><trkpt lat="39.376573113825344" lon="16.952246395938502"><ele>249.0</ele><time>2026-03-29T10:03:50Z</time></trkpt><trkpt lat="39.37650480217617" lon="16.952182028145717"><ele>249.0</ele><time>2026-03-29T10:03:53Z</time></trkpt><trkpt lat="39.37642959942037" lon="16.9521926519224"><ele>249.0</ele><time>2026-03-29T10:03:55Z</time></trkpt><trkpt lat="39.37636479166751" lon="16.952131234786226"><ele>249.0</ele><time>2026-03-29T10:03:58Z</time></trkpt><trkpt lat="39.37629877288422" lon="16.95205742708473"><ele>249.0</ele><time>2026-03-29T10:04:01Z</time></trkpt><trkpt lat="39.37623360671753" lon="16.951991421524113"><ele>249.33333333333334</ele><time>2026-03-29T10:04:04Z</time></trkpt><trkpt lat="39.3761804914987" lon="16.9519414056824"><ele>249.66666666666669</ele><time>2026-03-29T10:04:06Z</time></trkpt><trkpt lat="39.37612100419739" lon="16.95188538953212"><ele>250.0</ele><time>2026-03-29T10:04:09Z</time></trkpt><trkpt lat="39.37604680931257" lon="16.951820998187895"><ele>250.33333333333334</ele><time>2026-03-29T10:04:17Z</time></trkpt><trkpt lat="39.37597799680012" lon="16.951747129780433"><ele>250.66666666666669</ele><time>2026-03-29T10:04:20Z</time></trkpt><trkpt lat="39.375916635945636" lon="16.951695403137865"><ele>251.0</ele><time>2026-03-29T10:04:23Z</time></trkpt><trkpt lat="39.37585829951987" lon="16.951664594916043"><ele>250.00000000000003</ele><time>2026-03-29T10:04:28Z</time></trkpt><trkpt lat="39.37579917524776" lon="16.95160891772211"><ele>249.0</ele><time>2026-03-29T10:04:32Z</time></trkpt><trkpt lat="39.375722016057836" lon="16.951562257247048"><ele>248.0</ele><time>2026-03-29T10:04:36Z</time></trkpt><trkpt lat="39.37565973266705" lon="16.951509191922057"><ele>247.0</ele><time>2026-03-29T10:04:39Z</time></trkpt><trkpt lat="39.37561440450552" lon="16.951442101850276"><ele>246.00000000000003</ele><time>2026-03-29T10:04:41Z</time></trkpt><trkpt lat="39.375569253035486" lon="16.95136711433249"><ele>245.0</ele><time>2026-03-29T10:04:43Z</time></trkpt><trkpt lat="39.37548594053094" lon="16.951279930595394"><ele>245.0</ele><time>2026-03-29T10:04:45Z</time></trkpt><trkpt lat="39.37538643774388" lon="16.951209307195988"><ele>245.0</ele><time>2026-03-29T10:04:47Z</time></trkpt><trkpt lat="39.375298617069895" lon="16.951155753861862"><ele>245.0</ele><time>2026-03-29T10:04:49Z</time></trkpt><trkpt lat="39.37521631240623" lon="16.95108070884409"><ele>245.0</ele><time>2026-03-29T10:04:51Z</time></trkpt><trkpt lat="39.37512366614121" lon="16.95103850528338"><ele>245.0</ele><time>2026-03-29T10:04:53Z</time></trkpt><trkpt lat="39.37503897230405" lon="16.950989226368918"><ele>245.0</ele><time>2026-03-29T10:04:55Z</time></trkpt><trkpt lat="39.37497470069996" lon="16.950938884123712"><ele>245.0</ele><time>2026-03-29T10:04:57Z</time></trkpt><trkpt lat="39.37492266218262" lon="16.950892445175317"><ele>245.0</ele><time>2026-03-29T10:05:00Z</time></trkpt><trkpt lat="39.374855456247026" lon="16.950833256300047"><ele>245.0</ele><time>2026-03-29T10:05:04Z</time></trkpt><trkpt lat="39.37479715001993" lon="16.950801782246078"><ele>245.0</ele><time>2026-03-29T10:05:08Z</time></trkpt><trkpt lat="39.37472958855041" lon="16.950759588324214"><ele>245.0</ele><time>2026-03-29T10:05:31Z</time></trkpt><trkpt lat="39.374658123834436" lon="16.95069469034748"><ele>245.0</ele><time>2026-03-29T10:05:34Z</time></trkpt><trkpt lat="39.37459000233655" lon="16.95067604022473"><ele>243.16666666666669</ele><time>2026-03-29T10:05:36Z</time></trkpt><trkpt lat="39.37451417330201" lon="16.9506371675755"><ele>241.33333333333334</ele><time>2026-03-29T10:05:39Z</time></trkpt><trkpt lat="39.37443092464342" lon="16.950596303349656"><ele>239.5</ele><time>2026-03-29T10:05:42Z</time></trkpt><trkpt lat="39.37436643897123" lon="16.950608440081698"><ele>237.66666666666669</ele><time>2026-03-29T10:05:44Z</time></trkpt><trkpt lat="39.37427876678658" lon="16.95063689283386"><ele>235.83333333333334</ele><time>2026-03-29T10:05:47Z</time></trkpt><trkpt lat="39.374195685987814" lon="16.95058027958669"><ele>234.0</ele><time>2026-03-29T10:05:50Z</time></trkpt><trkpt lat="39.37414102780237" lon="16.950501094366125"><ele>234.0</ele><time>2026-03-29T10:05:52Z</time></trkpt><trkpt lat="39.37408549290736" lon="16.950450188709574"><ele>234.0</ele><time>2026-03-29T10:05:54Z</time></trkpt><trkpt lat="39.37399954935432" lon="16.95040350850076"><ele>234.0</ele><time>2026-03-29T10:05:57Z</time></trkpt><trkpt lat="39.373924648868254" lon="16.950361577468943"><ele>234.0</ele><time>2026-03-29T10:06:00Z</time></trkpt><trkpt lat="39.37385814942886" lon="16.950328247240478"><ele>234.0</ele><time>2026-03-29T10:06:03Z</time></trkpt><trkpt lat="39.37379394797413" lon="16.950293886743278"><ele>234.0</ele><time>2026-03-29T10:06:06Z</time></trkpt><trkpt lat="39.3737424248253" lon="16.950238005975148"><ele>233.16666666666666</ele><time>2026-03-29T10:06:08Z</time></trkpt><trkpt lat="39.373696082889545" lon="16.9501243214288"><ele>232.33333333333331</ele><time>2026-03-29T10:06:10Z</time></trkpt><trkpt lat="39.37366582489399" lon="16.950016124952857"><ele>231.5</ele><time>2026-03-29T10:06:12Z</time></trkpt><trkpt lat="39.37362428873744" lon="16.94993774833054"><ele>230.66666666666666</ele><time>2026-03-29T10:06:14Z</time></trkpt><trkpt lat="39.37356714946221" lon="16.94985240958015"><ele>229.83333333333331</ele><time>2026-03-29T10:06:17Z</time></trkpt><trkpt lat="39.37349586858529" lon="16.949791888531347"><ele>229.0</ele><time>2026-03-29T10:06:20Z</time></trkpt><trkpt lat="39.37343476390398" lon="16.949734217870542"><ele>227.14285714285714</ele><time>2026-03-29T10:06:24Z</time></trkpt><trkpt lat="39.37337805987445" lon="16.94969230365267"><ele>225.2857142857143</ele><time>2026-03-29T10:06:27.999Z</time></trkpt><trkpt lat="39.373312798903726" lon="16.9496525122486"><ele>223.42857142857144</ele><time>2026-03-29T10:06:30.999Z</time></trkpt><trkpt lat="39.37324919818236" lon="16.949644442417444"><ele>221.57142857142856</ele><time>2026-03-29T10:06:32.999Z</time></trkpt><trkpt lat="39.37318594954337" lon="16.94962930953493"><ele>219.71428571428572</ele><time>2026-03-29T10:06:34.999Z</time></trkpt><trkpt lat="39.37311708015423" lon="16.94963498219194"><ele>217.85714285714286</ele><time>2026-03-29T10:06:36.999Z</time></trkpt><trkpt lat="39.37304693133907" lon="16.949632278101824"><ele>216.0</ele><time>2026-03-29T10:06:38.999Z</time></trkpt><trkpt lat="39.37298332530583" lon="16.949611665450686"><ele>213.33333333333334</ele><time>2026-03-29T10:06:40.999Z</time></trkpt><trkpt lat="39.372902573027254" lon="16.94956460037515"><ele>210.66666666666669</ele><time>2026-03-29T10:06:42.999Z</time></trkpt><trkpt lat="39.37283935482855" lon="16.949492532622088"><ele>208.0</ele><time>2026-03-29T10:06:44.999Z</time></trkpt><trkpt lat="39.37279305571482" lon="16.949389172932626"><ele>205.33333333333334</ele><time>2026-03-29T10:06:46.999Z</time></trkpt><trkpt lat="39.37273805939635" lon="16.949344165728554"><ele>202.66666666666669</ele><time>2026-03-29T10:06:48.999Z</time></trkpt><trkpt lat="39.37267638341976" lon="16.949301263775517"><ele>200.0</ele><time>2026-03-29T10:06:53.999Z</time></trkpt><trkpt lat="39.372604216673366" lon="16.949273482550662"><ele>200.00000000000003</ele><time>2026-03-29T10:06:57.998Z</time></trkpt><trkpt lat="39.37251507401109" lon="16.94921069043008"><ele>200.0</ele><time>2026-03-29T10:07:00.998Z</time></trkpt><trkpt lat="39.37244164977053" lon="16.949164526850545"><ele>200.0</ele><time>2026-03-29T10:07:02.998Z</time></trkpt><trkpt lat="39.37239572316702" lon="16.94909206903127"><ele>200.0</ele><time>2026-03-29T10:07:06.998Z</time></trkpt><trkpt lat="39.37234327983899" lon="16.949010497041332"><ele>200.00000000000003</ele><time>2026-03-29T10:07:09.998Z</time></trkpt><trkpt lat="39.372358800098986" lon="16.948914018975376"><ele>200.0</ele><time>2026-03-29T10:07:11.998Z</time></trkpt><trkpt lat="39.37234577221234" lon="16.94879977899287"><ele>199.33333333333334</ele><time>2026-03-29T10:07:14.998Z</time></trkpt><trkpt lat="39.372340536877516" lon="16.948690571859977"><ele>198.66666666666669</ele><time>2026-03-29T10:07:16.998Z</time></trkpt><trkpt lat="39.372334952262065" lon="16.94856705831123"><ele>198.0</ele><time>2026-03-29T10:07:18.998Z</time></trkpt><trkpt lat="39.372314439132204" lon="16.9484474473056"><ele>197.33333333333331</ele><time>2026-03-29T10:07:20.998Z</time></trkpt><trkpt lat="39.37230448445935" lon="16.948340139138633"><ele>196.66666666666666</ele><time>2026-03-29T10:07:23.998Z</time></trkpt><trkpt lat="39.37224581128707" lon="16.94827558758839"><ele>196.0</ele><time>2026-03-29T10:07:26.998Z</time></trkpt><trkpt lat="39.3722387650124" lon="16.948185416309446"><ele>194.28571428571428</ele><time>2026-03-29T10:07:30.998Z</time></trkpt><trkpt lat="39.37221359870615" lon="16.94808995796502"><ele>192.57142857142856</ele><time>2026-03-29T10:07:35.998Z</time></trkpt><trkpt lat="39.37218828069339" lon="16.948001460619572"><ele>190.85714285714286</ele><time>2026-03-29T10:07:39.998Z</time></trkpt><trkpt lat="39.372152057880236" lon="16.947933609300964"><ele>189.14285714285714</ele><time>2026-03-29T10:07:42.998Z</time></trkpt><trkpt lat="39.372141387928906" lon="16.94784620476478"><ele>187.42857142857142</ele><time>2026-03-29T10:07:45.998Z</time></trkpt><trkpt lat="39.3721136668888" lon="16.947770547190046"><ele>185.71428571428572</ele><time>2026-03-29T10:07:48.998Z</time></trkpt><trkpt lat="39.372078743730015" lon="16.94768937755087"><ele>184.0</ele><time>2026-03-29T10:07:51.998Z</time></trkpt><trkpt lat="39.37203299512919" lon="16.947633241815357"><ele>183.66666666666669</ele><time>2026-03-29T10:07:54.998Z</time></trkpt><trkpt lat="39.371991030666855" lon="16.947559661233836"><ele>183.33333333333334</ele><time>2026-03-29T10:07:57.998Z</time></trkpt><trkpt lat="39.37193171845709" lon="16.947485697392004"><ele>183.0</ele><time>2026-03-29T10:08:00.998Z</time></trkpt><trkpt lat="39.371878930981545" lon="16.947416082449227"><ele>182.66666666666666</ele><time>2026-03-29T10:08:03.998Z</time></trkpt><trkpt lat="39.371821336512355" lon="16.947370007313623"><ele>182.33333333333331</ele><time>2026-03-29T10:08:05.998Z</time></trkpt><trkpt lat="39.37175315394466" lon="16.94729057934059"><ele>182.0</ele><time>2026-03-29T10:08:08.998Z</time></trkpt><trkpt lat="39.371690024689016" lon="16.947223211010638"><ele>180.5</ele><time>2026-03-29T10:08:11.998Z</time></trkpt><trkpt lat="39.37161090136349" lon="16.947181055875564"><ele>179.0</ele><time>2026-03-29T10:08:14.998Z</time></trkpt><trkpt lat="39.37152337651666" lon="16.947150960307432"><ele>177.5</ele><time>2026-03-29T10:08:17.998Z</time></trkpt><trkpt lat="39.37144692114671" lon="16.94710336695632"><ele>176.0</ele><time>2026-03-29T10:08:20.998Z</time></trkpt><trkpt lat="39.37140019623706" lon="16.947044226554947"><ele>174.5</ele><time>2026-03-29T10:08:22.998Z</time></trkpt><trkpt lat="39.37134237337651" lon="16.94698885617163"><ele>173.0</ele><time>2026-03-29T10:08:24.998Z</time></trkpt><trkpt lat="39.371288316322314" lon="16.94693194658641"><ele>171.0</ele><time>2026-03-29T10:08:26.998Z</time></trkpt><trkpt lat="39.371221407835094" lon="16.94684655715069"><ele>169.0</ele><time>2026-03-29T10:08:29.998Z</time></trkpt><trkpt lat="39.371177058216645" lon="16.946778062420048"><ele>167.0</ele><time>2026-03-29T10:08:31.998Z</time></trkpt><trkpt lat="39.37112621947044" lon="16.946689870276852"><ele>165.0</ele><time>2026-03-29T10:08:34.998Z</time></trkpt><trkpt lat="39.37107154378156" lon="16.946608262308164"><ele>163.0</ele><time>2026-03-29T10:08:37.998Z</time></trkpt><trkpt lat="39.37101864981219" lon="16.946511373016225"><ele>161.0</ele><time>2026-03-29T10:08:40.998Z</time></trkpt><trkpt lat="39.37101040025733" lon="16.946400766123816"><ele>159.83333333333331</ele><time>2026-03-29T10:08:43.998Z</time></trkpt><trkpt lat="39.37104448840741" lon="16.94632145855458"><ele>158.66666666666666</ele><time>2026-03-29T10:08:45.998Z</time></trkpt><trkpt lat="39.371055781141244" lon="16.946240903234965"><ele>157.5</ele><time>2026-03-29T10:08:47.998Z</time></trkpt><trkpt lat="39.37110573121336" lon="16.946179665585507"><ele>156.33333333333334</ele><time>2026-03-29T10:08:52.998Z</time></trkpt><trkpt lat="39.37108999684335" lon="16.946099749395085"><ele>155.16666666666669</ele><time>2026-03-29T10:08:56.998Z</time></trkpt><trkpt lat="39.37095512452431" lon="16.946013057892216"><ele>154.0</ele><time>2026-03-29T10:09:05.998Z</time></trkpt><trkpt lat="39.37088277779962" lon="16.946080904440254"><ele>154.0</ele><time>2026-03-29T10:09:09.998Z</time></trkpt><trkpt lat="39.37082827247167" lon="16.946134091897644"><ele>154.0</ele><time>2026-03-29T10:09:11.998Z</time></trkpt><trkpt lat="39.37073919683279" lon="16.946145003603135"><ele>154.0</ele><time>2026-03-29T10:09:13.998Z</time></trkpt><trkpt lat="39.37064498628682" lon="16.946124547256932"><ele>154.0</ele><time>2026-03-29T10:09:15.998Z</time></trkpt><trkpt lat="39.370555843985166" lon="16.94608872281394"><ele>154.0</ele><time>2026-03-29T10:09:17.998Z</time></trkpt><trkpt lat="39.370480816542106" lon="16.946052618332462"><ele>154.0</ele><time>2026-03-29T10:09:19.998Z</time></trkpt><trkpt lat="39.37042133853995" lon="16.946005290709667"><ele>153.42857142857142</ele><time>2026-03-29T10:09:21.998Z</time></trkpt><trkpt lat="39.370367390357636" lon="16.945930092245295"><ele>152.85714285714286</ele><time>2026-03-29T10:09:24.998Z</time></trkpt><trkpt lat="39.37031254606604" lon="16.94585936074393"><ele>152.28571428571428</ele><time>2026-03-29T10:09:35.998Z</time></trkpt><trkpt lat="39.370254405816404" lon="16.945826557341384"><ele>151.71428571428572</ele><time>2026-03-29T10:09:40.998Z</time></trkpt><trkpt lat="39.370185391110425" lon="16.945792338750334"><ele>151.14285714285714</ele><time>2026-03-29T10:09:54.998Z</time></trkpt><trkpt lat="39.37012004617241" lon="16.945775882110222"><ele>150.57142857142856</ele><time>2026-03-29T10:10:05.001Z</time></trkpt><trkpt lat="39.3700512787329" lon="16.945753131103118"><ele>150.0</ele><time>2026-03-29T10:10:32Z</time></trkpt><trkpt lat="39.36999640034852" lon="16.945701149223012"><ele>150.0</ele><time>2026-03-29T10:10:40Z</time></trkpt><trkpt lat="39.37001494462921" lon="16.945609096261155"><ele>150.0</ele><time>2026-03-29T10:10:57Z</time></trkpt><trkpt lat="39.37004083660638" lon="16.945521888920954"><ele>150.0</ele><time>2026-03-29T10:11:01Z</time></trkpt><trkpt lat="39.37005687431202" lon="16.94542829952201"><ele>150.0</ele><time>2026-03-29T10:11:03Z</time></trkpt><trkpt lat="39.37025741562164" lon="16.94539658830779"><ele>150.0</ele><time>2026-03-29T10:11:05Z</time></trkpt><trkpt lat="39.37035887022607" lon="16.945356222946472"><ele>150.0</ele><time>2026-03-29T10:11:07Z</time></trkpt><trkpt lat="39.37045504418327" lon="16.945345871900994"><ele>150.0</ele><time>2026-03-29T10:11:09Z</time></trkpt><trkpt lat="39.370531114753845" lon="16.945347397125857"><ele>150.0</ele><time>2026-03-29T10:11:11Z</time></trkpt><trkpt lat="39.37059146781242" lon="16.9453199487793"><ele>150.0</ele><time>2026-03-29T10:11:13Z</time></trkpt><trkpt lat="39.37065441762986" lon="16.945273130598437"><ele>150.0</ele><time>2026-03-29T10:11:15Z</time></trkpt><trkpt lat="39.3707151254754" lon="16.945211692074036"><ele>150.0</ele><time>2026-03-29T10:11:16.999Z</time></trkpt><trkpt lat="39.37078275277413" lon="16.94515473181021"><ele>150.33333333333334</ele><time>2026-03-29T10:11:18.999Z</time></trkpt><trkpt lat="39.37085626651518" lon="16.94510139185412"><ele>150.66666666666666</ele><time>2026-03-29T10:11:20.999Z</time></trkpt><trkpt lat="39.370927207476036" lon="16.94507841389223"><ele>151.0</ele><time>2026-03-29T10:11:22.999Z</time></trkpt><trkpt lat="39.37098922018623" lon="16.94506217632642"><ele>151.33333333333331</ele><time>2026-03-29T10:11:24.999Z</time></trkpt><trkpt lat="39.371062419792466" lon="16.94504106427389"><ele>151.66666666666666</ele><time>2026-03-29T10:11:27.999Z</time></trkpt><trkpt lat="39.371124512602584" lon="16.94498059265985"><ele>152.0</ele><time>2026-03-29T10:11:30.999Z</time></trkpt><trkpt lat="39.371186366697444" lon="16.944909809794478"><ele>152.83333333333331</ele><time>2026-03-29T10:11:34.999Z</time></trkpt><trkpt lat="39.371224097638745" lon="16.94483539137898"><ele>153.66666666666666</ele><time>2026-03-29T10:11:37.999Z</time></trkpt><trkpt lat="39.37127268770813" lon="16.944754404152206"><ele>154.5</ele><time>2026-03-29T10:11:40.999Z</time></trkpt><trkpt lat="39.371312183510824" lon="16.944652623247578"><ele>155.33333333333334</ele><time>2026-03-29T10:11:43.999Z</time></trkpt><trkpt lat="39.371350646996184" lon="16.944568023854153"><ele>156.16666666666669</ele><time>2026-03-29T10:11:46.999Z</time></trkpt><trkpt lat="39.37138353556252" lon="16.944493607881867"><ele>157.0</ele><time>2026-03-29T10:11:49.999Z</time></trkpt><trkpt lat="39.371416613081415" lon="16.944411277306543"><ele>157.16666666666669</ele><time>2026-03-29T10:11:52.999Z</time></trkpt><trkpt lat="39.37147354072492" lon="16.944312571206197"><ele>157.33333333333334</ele><time>2026-03-29T10:11:55.999Z</time></trkpt><trkpt lat="39.371533126222594" lon="16.944187211216043"><ele>157.5</ele><time>2026-03-29T10:11:57.999Z</time></trkpt><trkpt lat="39.371576229540615" lon="16.944113773743194"><ele>157.66666666666666</ele><time>2026-03-29T10:11:58.999Z</time></trkpt><trkpt lat="39.371617427277066" lon="16.944034815822008"><ele>157.83333333333331</ele><time>2026-03-29T10:11:59.999Z</time></trkpt><trkpt lat="39.37165348999132" lon="16.94395034234324"><ele>158.0</ele><time>2026-03-29T10:12:00.999Z</time></trkpt><trkpt lat="39.371685730951" lon="16.943876427170895"><ele>159.8</ele><time>2026-03-29T10:12:01.999Z</time></trkpt><trkpt lat="39.37175027523164" lon="16.943761615781327"><ele>161.60000000000002</ele><time>2026-03-29T10:12:03.999Z</time></trkpt><trkpt lat="39.371803146467975" lon="16.9436591950601"><ele>163.39999999999998</ele><time>2026-03-29T10:12:05.999Z</time></trkpt><trkpt lat="39.371852796564255" lon="16.94354940521634"><ele>165.2</ele><time>2026-03-29T10:12:07.999Z</time></trkpt><trkpt lat="39.37189693742789" lon="16.943443528098356"><ele>167.0</ele><time>2026-03-29T10:12:09.999Z</time></trkpt><trkpt lat="39.37193468998842" lon="16.943294364691603"><ele>169.0</ele><time>2026-03-29T10:12:11.999Z</time></trkpt><trkpt lat="39.37195196698714" lon="16.943196456405726"><ele>171.0</ele><time>2026-03-29T10:12:12.999Z</time></trkpt><trkpt lat="39.3719533633361" lon="16.943083172793784"><ele>173.0</ele><time>2026-03-29T10:12:13.999Z</time></trkpt><trkpt lat="39.371961176882344" lon="16.942973257280137"><ele>175.0</ele><time>2026-03-29T10:12:14.999Z</time></trkpt><trkpt lat="39.37196791840375" lon="16.942866683315533"><ele>177.0</ele><time>2026-03-29T10:12:15.999Z</time></trkpt><trkpt lat="39.37196829332472" lon="16.942769284011128"><ele>179.0</ele><time>2026-03-29T10:12:16.999Z</time></trkpt><trkpt lat="39.371965591181926" lon="16.942670355513687"><ele>179.0</ele><time>2026-03-29T10:12:17.999Z</time></trkpt><trkpt lat="39.37196710202657" lon="16.942558893440637"><ele>179.0</ele><time>2026-03-29T10:12:18.999Z</time></trkpt><trkpt lat="39.371979254348595" lon="16.942439922243913"><ele>179.0</ele><time>2026-03-29T10:12:19.999Z</time></trkpt><trkpt lat="39.371988751578975" lon="16.942324235326474"><ele>179.0</ele><time>2026-03-29T10:12:20.999Z</time></trkpt><trkpt lat="39.372005419785715" lon="16.942221754869355"><ele>179.0</ele><time>2026-03-29T10:12:21.999Z</time></trkpt><trkpt lat="39.3720156106301" lon="16.942130716087014"><ele>179.0</ele><time>2026-03-29T10:12:22.999Z</time></trkpt><trkpt lat="39.37202752275167" lon="16.942050243900617"><ele>181.0</ele><time>2026-03-29T10:12:23.999Z</time></trkpt><trkpt lat="39.37205463618359" lon="16.941907387234878"><ele>183.0</ele><time>2026-03-29T10:12:25.999Z</time></trkpt><trkpt lat="39.37208761356297" lon="16.941794847800843"><ele>185.0</ele><time>2026-03-29T10:12:27.999Z</time></trkpt><trkpt lat="39.372117063127135" lon="16.94168766579198"><ele>187.0</ele><time>2026-03-29T10:12:29.999Z</time></trkpt><trkpt lat="39.37213499734091" lon="16.941543880171626"><ele>189.0</ele><time>2026-03-29T10:12:31.999Z</time></trkpt><trkpt lat="39.372151035417325" lon="16.941408232123027"><ele>190.5</ele><time>2026-03-29T10:12:33.999Z</time></trkpt><trkpt lat="39.372187536301446" lon="16.941319083996394"><ele>192.0</ele><time>2026-03-29T10:12:36.999Z</time></trkpt><trkpt lat="39.37223155770631" lon="16.941174293250103"><ele>193.5</ele><time>2026-03-29T10:12:39.999Z</time></trkpt><trkpt lat="39.37225446254159" lon="16.941082985405043"><ele>195.0</ele><time>2026-03-29T10:12:40.999Z</time></trkpt><trkpt lat="39.372265813041714" lon="16.94098236978411"><ele>196.5</ele><time>2026-03-29T10:12:41.999Z</time></trkpt><trkpt lat="39.37228423579525" lon="16.94088416264055"><ele>198.0</ele><time>2026-03-29T10:12:42.999Z</time></trkpt><trkpt lat="39.37231023491659" lon="16.940796562115704"><ele>202.4</ele><time>2026-03-29T10:12:43.999Z</time></trkpt><trkpt lat="39.37232283381663" lon="16.94070381559488"><ele>206.8</ele><time>2026-03-29T10:12:44.999Z</time></trkpt><trkpt lat="39.372340923628435" lon="16.94062240795319"><ele>211.2</ele><time>2026-03-29T10:12:45.999Z</time></trkpt><trkpt lat="39.37237272830209" lon="16.940471980488486"><ele>215.6</ele><time>2026-03-29T10:12:47.999Z</time></trkpt><trkpt lat="39.37241056122343" lon="16.940338049212304"><ele>220.0</ele><time>2026-03-29T10:12:49.999Z</time></trkpt><trkpt lat="39.37244251803313" lon="16.940209488968655"><ele>219.99999999999997</ele><time>2026-03-29T10:12:51.999Z</time></trkpt><trkpt lat="39.37247036664059" lon="16.94008660226474"><ele>220.0</ele><time>2026-03-29T10:12:53.999Z</time></trkpt><trkpt lat="39.372486420365725" lon="16.939982700588672"><ele>220.0</ele><time>2026-03-29T10:12:55.999Z</time></trkpt><trkpt lat="39.37249914307001" lon="16.939877171454697"><ele>220.0</ele><time>2026-03-29T10:12:57.999Z</time></trkpt><trkpt lat="39.3724923886904" lon="16.93977622946593"><ele>219.99999999999997</ele><time>2026-03-29T10:12:59.999Z</time></trkpt><trkpt lat="39.37249913826333" lon="16.939686054311938"><ele>220.0</ele><time>2026-03-29T10:13:01.999Z</time></trkpt><trkpt lat="39.372553474160455" lon="16.939630545464325"><ele>223.49999999999997</ele><time>2026-03-29T10:13:03.999Z</time></trkpt><trkpt lat="39.37259227072501" lon="16.939556175019188"><ele>227.0</ele><time>2026-03-29T10:13:05.999Z</time></trkpt><trkpt lat="39.372651584261405" lon="16.939475102389874"><ele>230.5</ele><time>2026-03-29T10:13:07.999Z</time></trkpt><trkpt lat="39.37270253075925" lon="16.939385325990727"><ele>234.0</ele><time>2026-03-29T10:13:09.999Z</time></trkpt><trkpt lat="39.37276117818305" lon="16.939304943822847"><ele>237.49999999999997</ele><time>2026-03-29T10:13:11.999Z</time></trkpt><trkpt lat="39.37284112916904" lon="16.93923723190355"><ele>241.0</ele><time>2026-03-29T10:13:13.999Z</time></trkpt><trkpt lat="39.372925637092855" lon="16.939184893466333"><ele>243.16666666666666</ele><time>2026-03-29T10:13:15.999Z</time></trkpt><trkpt lat="39.372995286119924" lon="16.939132634594284"><ele>245.33333333333331</ele><time>2026-03-29T10:13:17.999Z</time></trkpt><trkpt lat="39.37303189327888" lon="16.9390462303315"><ele>247.5</ele><time>2026-03-29T10:13:19.999Z</time></trkpt><trkpt lat="39.37304126193011" lon="16.938960677193496"><ele>249.66666666666669</ele><time>2026-03-29T10:13:21.998Z</time></trkpt><trkpt lat="39.37310172763689" lon="16.938910498089438"><ele>251.83333333333334</ele><time>2026-03-29T10:13:23.998Z</time></trkpt><trkpt lat="39.37315912969968" lon="16.938864388857017"><ele>254.0</ele><time>2026-03-29T10:13:27.998Z</time></trkpt><trkpt lat="39.37323228634635" lon="16.938802992234358"><ele>254.42857142857144</ele><time>2026-03-29T10:13:30.998Z</time></trkpt><trkpt lat="39.37328054372318" lon="16.938732645248795"><ele>254.85714285714283</ele><time>2026-03-29T10:13:32.998Z</time></trkpt><trkpt lat="39.373338218818056" lon="16.938689185207675"><ele>255.28571428571428</ele><time>2026-03-29T10:13:34.998Z</time></trkpt><trkpt lat="39.37341227739343" lon="16.938669868289338"><ele>255.71428571428572</ele><time>2026-03-29T10:13:36.998Z</time></trkpt><trkpt lat="39.37341695554799" lon="16.93855277722418"><ele>256.14285714285717</ele><time>2026-03-29T10:13:38.998Z</time></trkpt><trkpt lat="39.37340457378101" lon="16.938472681080626"><ele>256.57142857142856</ele><time>2026-03-29T10:13:39.998Z</time></trkpt><trkpt lat="39.37339120956278" lon="16.938380720845274"><ele>257.0</ele><time>2026-03-29T10:13:40.998Z</time></trkpt><trkpt lat="39.373377848689834" lon="16.938284516737156"><ele>257.0</ele><time>2026-03-29T10:13:41.998Z</time></trkpt><trkpt lat="39.37339408782605" lon="16.938195326971087"><ele>257.0</ele><time>2026-03-29T10:13:42.998Z</time></trkpt><trkpt lat="39.37339402202573" lon="16.93803296347927"><ele>257.0</ele><time>2026-03-29T10:13:44.998Z</time></trkpt><trkpt lat="39.37339569676585" lon="16.937944619721236"><ele>257.0</ele><time>2026-03-29T10:13:45.998Z</time></trkpt><trkpt lat="39.37339589387035" lon="16.937858693526792"><ele>257.0</ele><time>2026-03-29T10:13:46.998Z</time></trkpt><trkpt lat="39.37341667961544" lon="16.9377118080306"><ele>257.0</ele><time>2026-03-29T10:13:48.998Z</time></trkpt><trkpt lat="39.3734823826259" lon="16.9375931192626"><ele>256.1428571428571</ele><time>2026-03-29T10:13:50.998Z</time></trkpt><trkpt lat="39.37353248727337" lon="16.93754251960987"><ele>255.28571428571428</ele><time>2026-03-29T10:13:51.998Z</time></trkpt><trkpt lat="39.373581881050555" lon="16.937478100924874"><ele>254.42857142857142</ele><time>2026-03-29T10:13:52.998Z</time></trkpt><trkpt lat="39.37362657529821" lon="16.937403578137538"><ele>253.57142857142856</ele><time>2026-03-29T10:13:53.998Z</time></trkpt><trkpt lat="39.373668076736635" lon="16.937319122214404"><ele>252.71428571428572</ele><time>2026-03-29T10:13:54.998Z</time></trkpt><trkpt lat="39.37371183856352" lon="16.937241698003547"><ele>251.85714285714283</ele><time>2026-03-29T10:13:55.998Z</time></trkpt><trkpt lat="39.37375213404314" lon="16.93717321420361"><ele>250.99999999999997</ele><time>2026-03-29T10:13:56.998Z</time></trkpt><trkpt lat="39.373829621047975" lon="16.93706410704795"><ele>253.99999999999997</ele><time>2026-03-29T10:13:58.998Z</time></trkpt><trkpt lat="39.37389917726101" lon="16.93703857778181"><ele>257.0</ele><time>2026-03-29T10:14:01.998Z</time></trkpt><trkpt lat="39.37397144708872" lon="16.937045855669442"><ele>260.0</ele><time>2026-03-29T10:14:13.998Z</time></trkpt><trkpt lat="39.37403569018866" lon="16.93703075170657"><ele>263.0</ele><time>2026-03-29T10:14:17.998Z</time></trkpt><trkpt lat="39.3740987082132" lon="16.937008680793035"><ele>266.0</ele><time>2026-03-29T10:14:19.998Z</time></trkpt><trkpt lat="39.374183407310355" lon="16.936942254618494"><ele>268.99999999999994</ele><time>2026-03-29T10:14:21.998Z</time></trkpt><trkpt lat="39.37422836283568" lon="16.936875495064708"><ele>272.0</ele><time>2026-03-29T10:14:22.998Z</time></trkpt><trkpt lat="39.37428574102983" lon="16.93682605787108"><ele>271.99999999999994</ele><time>2026-03-29T10:14:23.998Z</time></trkpt><trkpt lat="39.37435158839002" lon="16.936793670177543"><ele>272.0</ele><time>2026-03-29T10:14:24.998Z</time></trkpt><trkpt lat="39.37441271287723" lon="16.936739165309636"><ele>272.0</ele><time>2026-03-29T10:14:25.998Z</time></trkpt><trkpt lat="39.37448349669214" lon="16.936714728946278"><ele>272.0</ele><time>2026-03-29T10:14:26.998Z</time></trkpt><trkpt lat="39.3745563464086" lon="16.936684851243083"><ele>272.0</ele><time>2026-03-29T10:14:27.998Z</time></trkpt><trkpt lat="39.37462692655483" lon="16.936662561977545"><ele>271.99999999999994</ele><time>2026-03-29T10:14:28.998Z</time></trkpt><trkpt lat="39.37469351579317" lon="16.936633468386596"><ele>272.0</ele><time>2026-03-29T10:14:29.998Z</time></trkpt><trkpt lat="39.374753312450096" lon="16.936592226759664"><ele>272.2</ele><time>2026-03-29T10:14:30.998Z</time></trkpt><trkpt lat="39.37484823744199" lon="16.936526598344027"><ele>272.4</ele><time>2026-03-29T10:14:32.998Z</time></trkpt><trkpt lat="39.37489222992157" lon="16.93646558610659"><ele>272.6</ele><time>2026-03-29T10:14:33.998Z</time></trkpt><trkpt lat="39.37494121131645" lon="16.93640955925841"><ele>272.8</ele><time>2026-03-29T10:14:34.998Z</time></trkpt><trkpt lat="39.37502885298806" lon="16.936323590719496"><ele>273.0</ele><time>2026-03-29T10:14:36.998Z</time></trkpt><trkpt lat="39.37512732671608" lon="16.936249605036338"><ele>273.0</ele><time>2026-03-29T10:14:38.998Z</time></trkpt><trkpt lat="39.37519126142402" lon="16.936227742843407"><ele>273.0</ele><time>2026-03-29T10:14:39.998Z</time></trkpt><trkpt lat="39.37525861379438" lon="16.93620699802641"><ele>273.0</ele><time>2026-03-29T10:14:40.998Z</time></trkpt><trkpt lat="39.375323777415424" lon="16.93618156026074"><ele>273.0</ele><time>2026-03-29T10:14:41.998Z</time></trkpt><trkpt lat="39.375388722988625" lon="16.936147951452167"><ele>273.0</ele><time>2026-03-29T10:14:42.998Z</time></trkpt><trkpt lat="39.375448867859966" lon="16.936098795117797"><ele>273.0</ele><time>2026-03-29T10:14:43.998Z</time></trkpt><trkpt lat="39.37550877499162" lon="16.93605268030296"><ele>273.0</ele><time>2026-03-29T10:14:44.998Z</time></trkpt><trkpt lat="39.37561038762449" lon="16.935974995765147"><ele>275.0</ele><time>2026-03-29T10:14:46.998Z</time></trkpt><trkpt lat="39.3756952465922" lon="16.935910558184943"><ele>277.0</ele><time>2026-03-29T10:14:48.998Z</time></trkpt><trkpt lat="39.37577267317986" lon="16.935876226325625"><ele>279.0</ele><time>2026-03-29T10:14:50.998Z</time></trkpt><trkpt lat="39.37581449752397" lon="16.935813830327586"><ele>281.0</ele><time>2026-03-29T10:14:53.998Z</time></trkpt><trkpt lat="39.37584092662339" lon="16.9357199994073"><ele>283.0</ele><time>2026-03-29T10:14:56.998Z</time></trkpt><trkpt lat="39.37580669529451" lon="16.935634644528626"><ele>285.0</ele><time>2026-03-29T10:15:00.998Z</time></trkpt><trkpt lat="39.37579431258793" lon="16.935508719895676"><ele>280.2</ele><time>2026-03-29T10:15:09.998Z</time></trkpt><trkpt lat="39.37574048881139" lon="16.93542494816299"><ele>275.4</ele><time>2026-03-29T10:15:11.998Z</time></trkpt><trkpt lat="39.375674749365665" lon="16.9353212943865"><ele>270.6</ele><time>2026-03-29T10:15:13.998Z</time></trkpt><trkpt lat="39.375620779289456" lon="16.93520924678859"><ele>265.8</ele><time>2026-03-29T10:15:15.998Z</time></trkpt><trkpt lat="39.37560989852965" lon="16.935082435925814"><ele>261.0</ele><time>2026-03-29T10:15:17.998Z</time></trkpt><trkpt lat="39.37565091107456" lon="16.934979570935628"><ele>260.2</ele><time>2026-03-29T10:15:19.998Z</time></trkpt><trkpt lat="39.37572619333991" lon="16.934883257801726"><ele>259.40000000000003</ele><time>2026-03-29T10:15:21.998Z</time></trkpt><trkpt lat="39.375802066794016" lon="16.93477482335596"><ele>258.6</ele><time>2026-03-29T10:15:23.998Z</time></trkpt><trkpt lat="39.37588832781571" lon="16.934684268524112"><ele>257.8</ele><time>2026-03-29T10:15:25.998Z</time></trkpt><trkpt lat="39.37596915527469" lon="16.934598645926712"><ele>257.0</ele><time>2026-03-29T10:15:27.997Z</time></trkpt><trkpt lat="39.3760566614487" lon="16.93450471997075"><ele>257.0</ele><time>2026-03-29T10:15:29.997Z</time></trkpt><trkpt lat="39.37609668877643" lon="16.934438647332065"><ele>257.0</ele><time>2026-03-29T10:15:30.997Z</time></trkpt><trkpt lat="39.376134578118396" lon="16.934363868567647"><ele>257.0</ele><time>2026-03-29T10:15:31.997Z</time></trkpt><trkpt lat="39.3761684126131" lon="16.934279302953083"><ele>257.0</ele><time>2026-03-29T10:15:32.997Z</time></trkpt><trkpt lat="39.37619619347681" lon="16.9341900921636"><ele>257.0</ele><time>2026-03-29T10:15:33.997Z</time></trkpt><trkpt lat="39.37622798516805" lon="16.934113587531257"><ele>257.0</ele><time>2026-03-29T10:15:34.997Z</time></trkpt><trkpt lat="39.37629100680629" lon="16.933980208098692"><ele>259.2</ele><time>2026-03-29T10:15:36.997Z</time></trkpt><trkpt lat="39.37635593707658" lon="16.933843725462218"><ele>261.4</ele><time>2026-03-29T10:15:38.997Z</time></trkpt><trkpt lat="39.3764414080501" lon="16.93375028718654"><ele>263.6</ele><time>2026-03-29T10:15:40.997Z</time></trkpt><trkpt lat="39.37650795090542" lon="16.93364967420402"><ele>265.8</ele><time>2026-03-29T10:15:42.997Z</time></trkpt><trkpt lat="39.37656386759257" lon="16.933566040208685"><ele>268.0</ele><time>2026-03-29T10:15:44.997Z</time></trkpt><trkpt lat="39.37661388129049" lon="16.933501952681528"><ele>268.0</ele><time>2026-03-29T10:15:46.997Z</time></trkpt><trkpt lat="39.376665515516905" lon="16.933425890295787"><ele>268.0</ele><time>2026-03-29T10:15:49.997Z</time></trkpt><trkpt lat="39.37672818814369" lon="16.9333418389639"><ele>268.0</ele><time>2026-03-29T10:15:52.997Z</time></trkpt><trkpt lat="39.37677958277043" lon="16.933293912422208"><ele>268.0</ele><time>2026-03-29T10:15:54.997Z</time></trkpt><trkpt lat="39.37684234031373" lon="16.933263227863108"><ele>268.0</ele><time>2026-03-29T10:15:57.997Z</time></trkpt><trkpt lat="39.37689217089747" lon="16.933212788014156"><ele>268.0</ele><time>2026-03-29T10:16:00.997Z</time></trkpt><trkpt lat="39.37693981159426" lon="16.93314903049924"><ele>268.0</ele><time>2026-03-29T10:16:04.997Z</time></trkpt><trkpt lat="39.37697114872655" lon="16.933076248118805"><ele>266.5</ele><time>2026-03-29T10:16:14.997Z</time></trkpt><trkpt lat="39.377018331219276" lon="16.933018296387917"><ele>265.0</ele><time>2026-03-29T10:16:21.997Z</time></trkpt><trkpt lat="39.377054747156706" lon="16.93295023300142"><ele>263.5</ele><time>2026-03-29T10:16:25.997Z</time></trkpt><trkpt lat="39.377109478363096" lon="16.932877891374872"><ele>262.0</ele><time>2026-03-29T10:16:29.997Z</time></trkpt><trkpt lat="39.3771603236196" lon="16.932829831980293"><ele>260.5</ele><time>2026-03-29T10:16:32.997Z</time></trkpt><trkpt lat="39.377248427663964" lon="16.93278194920315"><ele>259.0</ele><time>2026-03-29T10:16:38.997Z</time></trkpt><trkpt lat="39.37733331818209" lon="16.932725891326687"><ele>259.0</ele><time>2026-03-29T10:16:40.997Z</time></trkpt><trkpt lat="39.37741013906603" lon="16.932690868022043"><ele>259.0</ele><time>2026-03-29T10:16:42.997Z</time></trkpt><trkpt lat="39.37747646216003" lon="16.93266839794018"><ele>259.0</ele><time>2026-03-29T10:16:44.997Z</time></trkpt><trkpt lat="39.37757086807507" lon="16.932673875870638"><ele>259.0</ele><time>2026-03-29T10:16:47.997Z</time></trkpt><trkpt lat="39.37763197546169" lon="16.93271298453485"><ele>259.0</ele><time>2026-03-29T10:16:49.997Z</time></trkpt><trkpt lat="39.377680597655136" lon="16.932769267194377"><ele>259.0</ele><time>2026-03-29T10:16:51.997Z</time></trkpt><trkpt lat="39.3777369178219" lon="16.93282807687092"><ele>259.0</ele><time>2026-03-29T10:16:56.997Z</time></trkpt><trkpt lat="39.37778420617338" lon="16.9329056889027"><ele>259.0</ele><time>2026-03-29T10:16:59.997Z</time></trkpt><trkpt lat="39.37784252906288" lon="16.932973053102256"><ele>259.0</ele><time>2026-03-29T10:17:02.997Z</time></trkpt><trkpt lat="39.37791328076565" lon="16.93297945565537"><ele>259.0</ele><time>2026-03-29T10:17:08Z</time></trkpt><trkpt lat="39.377953719859214" lon="16.932915593001937"><ele>259.0</ele><time>2026-03-29T10:17:12Z</time></trkpt><trkpt lat="39.377990087250076" lon="16.932825432562897"><ele>259.0</ele><time>2026-03-29T10:17:15Z</time></trkpt><trkpt lat="39.378038084429896" lon="16.93273313852329"><ele>258.42857142857144</ele><time>2026-03-29T10:17:18Z</time></trkpt><trkpt lat="39.378093048685" lon="16.932660742717356"><ele>257.8571428571429</ele><time>2026-03-29T10:17:21Z</time></trkpt><trkpt lat="39.37814744089063" lon="16.93261430347292"><ele>257.2857142857143</ele><time>2026-03-29T10:17:24Z</time></trkpt><trkpt lat="39.37820982054521" lon="16.932568605579107"><ele>256.7142857142857</ele><time>2026-03-29T10:17:28Z</time></trkpt><trkpt lat="39.37828272658867" lon="16.932506069565843"><ele>256.14285714285717</ele><time>2026-03-29T10:17:31Z</time></trkpt><trkpt lat="39.378340225988275" lon="16.932465314435266"><ele>255.57142857142858</ele><time>2026-03-29T10:17:33Z</time></trkpt><trkpt lat="39.3784061669614" lon="16.932421941950064"><ele>255.0</ele><time>2026-03-29T10:17:37Z</time></trkpt><trkpt lat="39.37848447404953" lon="16.932314183857425"><ele>255.0</ele><time>2026-03-29T10:18:03Z</time></trkpt><trkpt lat="39.378549964401756" lon="16.932301043010064"><ele>255.00000000000003</ele><time>2026-03-29T10:18:16Z</time></trkpt><trkpt lat="39.37860757685828" lon="16.932232986568938"><ele>255.0</ele><time>2026-03-29T10:18:22Z</time></trkpt><trkpt lat="39.37867383843611" lon="16.932211462601163"><ele>255.0</ele><time>2026-03-29T10:18:30Z</time></trkpt><trkpt lat="39.37872960293053" lon="16.932161578699695"><ele>255.00000000000003</ele><time>2026-03-29T10:18:35Z</time></trkpt><trkpt lat="39.378822616137214" lon="16.93213194581641"><ele>255.0</ele><time>2026-03-29T10:18:38Z</time></trkpt><trkpt lat="39.37888559107554" lon="16.932117216128617"><ele>255.0</ele><time>2026-03-29T10:18:44Z</time></trkpt><trkpt lat="39.37890662755868" lon="16.93203937053235"><ele>256.8571428571429</ele><time>2026-03-29T10:18:51.999Z</time></trkpt><trkpt lat="39.37896947411629" lon="16.932030242018676"><ele>258.7142857142857</ele><time>2026-03-29T10:19:07.999Z</time></trkpt><trkpt lat="39.379036821757" lon="16.932053141271986"><ele>260.57142857142856</ele><time>2026-03-29T10:19:15.999Z</time></trkpt><trkpt lat="39.3790948382292" lon="16.93212165793704"><ele>262.42857142857144</ele><time>2026-03-29T10:19:18.999Z</time></trkpt><trkpt lat="39.37913455766994" lon="16.932188231483185"><ele>264.2857142857143</ele><time>2026-03-29T10:19:23.999Z</time></trkpt><trkpt lat="39.379166946268946" lon="16.932278195087243"><ele>266.14285714285717</ele><time>2026-03-29T10:19:40.999Z</time></trkpt><trkpt lat="39.3792228910531" lon="16.932325853949273"><ele>268.0</ele><time>2026-03-29T10:19:42.999Z</time></trkpt><trkpt lat="39.3793012728172" lon="16.932353133609084"><ele>268.0</ele><time>2026-03-29T10:19:44.999Z</time></trkpt><trkpt lat="39.37938928633055" lon="16.93238120564491"><ele>268.0</ele><time>2026-03-29T10:19:46.999Z</time></trkpt><trkpt lat="39.379481728188196" lon="16.932411852428675"><ele>268.0</ele><time>2026-03-29T10:19:48.999Z</time></trkpt><trkpt lat="39.3795693479873" lon="16.932440766209286"><ele>268.0</ele><time>2026-03-29T10:19:50.999Z</time></trkpt><trkpt lat="39.3796713512051" lon="16.932470830955324"><ele>268.0</ele><time>2026-03-29T10:19:52.999Z</time></trkpt><trkpt lat="39.37978192405828" lon="16.932467134116536"><ele>267.6</ele><time>2026-03-29T10:19:54.999Z</time></trkpt><trkpt lat="39.37990021417029" lon="16.932460186176435"><ele>267.20000000000005</ele><time>2026-03-29T10:19:56.999Z</time></trkpt><trkpt lat="39.38001076660059" lon="16.932434438903673"><ele>266.8</ele><time>2026-03-29T10:19:58.999Z</time></trkpt><trkpt lat="39.38009707538366" lon="16.932413441155724"><ele>266.40000000000003</ele><time>2026-03-29T10:20:00.999Z</time></trkpt><trkpt lat="39.38017259088436" lon="16.93239682489732"><ele>266.0</ele><time>2026-03-29T10:20:03.999Z</time></trkpt><trkpt lat="39.38025240061408" lon="16.932411022117574"><ele>266.0</ele><time>2026-03-29T10:20:07.999Z</time></trkpt><trkpt lat="39.380320113732616" lon="16.93245300815967"><ele>266.0</ele><time>2026-03-29T10:20:10.999Z</time></trkpt><trkpt lat="39.38037674709078" lon="16.932495879086336"><ele>266.0</ele><time>2026-03-29T10:20:14.999Z</time></trkpt><trkpt lat="39.38046784435394" lon="16.93255122994791"><ele>266.0</ele><time>2026-03-29T10:20:29.999Z</time></trkpt><trkpt lat="39.38053577486571" lon="16.932567752503374"><ele>266.0</ele><time>2026-03-29T10:20:42.998Z</time></trkpt><trkpt lat="39.38059863217773" lon="16.932583393071024"><ele>266.0</ele><time>2026-03-29T10:20:46.998Z</time></trkpt><trkpt lat="39.380646058082704" lon="16.932495798237678"><ele>266.42857142857144</ele><time>2026-03-29T10:20:50.998Z</time></trkpt><trkpt lat="39.38064217827989" lon="16.932399468429914"><ele>266.8571428571429</ele><time>2026-03-29T10:20:54.998Z</time></trkpt><trkpt lat="39.38062239971747" lon="16.932312586690948"><ele>267.2857142857143</ele><time>2026-03-29T10:20:57.998Z</time></trkpt><trkpt lat="39.38058795923056" lon="16.932233458003243"><ele>267.7142857142857</ele><time>2026-03-29T10:21:01.998Z</time></trkpt><trkpt lat="39.38058881740302" lon="16.93213371869474"><ele>268.14285714285717</ele><time>2026-03-29T10:21:10.998Z</time></trkpt><trkpt lat="39.380573841064276" lon="16.932024447409987"><ele>268.57142857142856</ele><time>2026-03-29T10:21:14.998Z</time></trkpt><trkpt lat="39.380564298741845" lon="16.931940733653356"><ele>269.0</ele><time>2026-03-29T10:21:16.998Z</time></trkpt><trkpt lat="39.38055819563425" lon="16.931847093835078"><ele>269.0</ele><time>2026-03-29T10:21:18.998Z</time></trkpt><trkpt lat="39.3805248864221" lon="16.93172812714851"><ele>269.0</ele><time>2026-03-29T10:21:20.998Z</time></trkpt><trkpt lat="39.38052849509203" lon="16.931614384171763"><ele>269.0</ele><time>2026-03-29T10:21:22.998Z</time></trkpt><trkpt lat="39.38055611810497" lon="16.93146490312928"><ele>269.0</ele><time>2026-03-29T10:21:24.998Z</time></trkpt><trkpt lat="39.380565947126556" lon="16.931371119101318"><ele>269.0</ele><time>2026-03-29T10:21:25.998Z</time></trkpt><trkpt lat="39.38058310875649" lon="16.931284568899592"><ele>269.0</ele><time>2026-03-29T10:21:26.998Z</time></trkpt><trkpt lat="39.38058732144594" lon="16.931145116328533"><ele>268.0</ele><time>2026-03-29T10:21:28.998Z</time></trkpt><trkpt lat="39.38058303498191" lon="16.9310227300431"><ele>267.0</ele><time>2026-03-29T10:21:30.998Z</time></trkpt><trkpt lat="39.38054618583886" lon="16.930891068163454"><ele>266.0</ele><time>2026-03-29T10:21:32.998Z</time></trkpt><trkpt lat="39.38050844476112" lon="16.93076822795233"><ele>265.0</ele><time>2026-03-29T10:21:34.998Z</time></trkpt><trkpt lat="39.38046653565748" lon="16.9306459499556"><ele>264.0</ele><time>2026-03-29T10:21:36.998Z</time></trkpt><trkpt lat="39.38041544356768" lon="16.930521271982574"><ele>259.1666666666667</ele><time>2026-03-29T10:21:38.998Z</time></trkpt><trkpt lat="39.38039265483111" lon="16.93038778290118"><ele>254.33333333333331</ele><time>2026-03-29T10:21:40.998Z</time></trkpt><trkpt lat="39.38037487314242" lon="16.93028132108999"><ele>249.5</ele><time>2026-03-29T10:21:42.998Z</time></trkpt><trkpt lat="39.38036694533034" lon="16.930193626405316"><ele>244.66666666666666</ele><time>2026-03-29T10:21:45.998Z</time></trkpt><trkpt lat="39.38037178557961" lon="16.930102117837762"><ele>239.83333333333331</ele><time>2026-03-29T10:21:56.998Z</time></trkpt><trkpt lat="39.38040565482449" lon="16.93002336053557"><ele>235.0</ele><time>2026-03-29T10:22:00.998Z</time></trkpt><trkpt lat="39.380434535651816" lon="16.92991301163383"><ele>234.66666666666666</ele><time>2026-03-29T10:22:03.998Z</time></trkpt><trkpt lat="39.38043146152764" lon="16.92980127229571"><ele>234.33333333333331</ele><time>2026-03-29T10:22:06.998Z</time></trkpt><trkpt lat="39.380442296605224" lon="16.929706211694054"><ele>234.0</ele><time>2026-03-29T10:22:08.998Z</time></trkpt><trkpt lat="39.38047923876858" lon="16.929598068324605"><ele>233.66666666666669</ele><time>2026-03-29T10:22:10.998Z</time></trkpt><trkpt lat="39.38051864375018" lon="16.929504123585357"><ele>233.33333333333334</ele><time>2026-03-29T10:22:20.998Z</time></trkpt><trkpt lat="39.38055922307276" lon="16.929440087747288"><ele>233.0</ele><time>2026-03-29T10:22:23.998Z</time></trkpt><trkpt lat="39.38054691174989" lon="16.929341935521308"><ele>234.14285714285717</ele><time>2026-03-29T10:22:27.998Z</time></trkpt><trkpt lat="39.38054206088748" lon="16.929252324706233"><ele>235.28571428571428</ele><time>2026-03-29T10:22:33.998Z</time></trkpt><trkpt lat="39.380580650731595" lon="16.929162947112687"><ele>236.42857142857144</ele><time>2026-03-29T10:22:37.997Z</time></trkpt><trkpt lat="39.38055872318098" lon="16.929065155902627"><ele>237.57142857142858</ele><time>2026-03-29T10:22:39.997Z</time></trkpt><trkpt lat="39.38055760672272" lon="16.928980577425794"><ele>238.71428571428572</ele><time>2026-03-29T10:22:40.997Z</time></trkpt><trkpt lat="39.38056316228619" lon="16.92888701342515"><ele>239.85714285714286</ele><time>2026-03-29T10:22:41.997Z</time></trkpt><trkpt lat="39.38056637033459" lon="16.928789235346493"><ele>241.0</ele><time>2026-03-29T10:22:42.997Z</time></trkpt><trkpt lat="39.38056881693471" lon="16.92869930625341"><ele>241.0</ele><time>2026-03-29T10:22:43.997Z</time></trkpt><trkpt lat="39.380543928611225" lon="16.92856869450159"><ele>241.00000000000003</ele><time>2026-03-29T10:22:45.997Z</time></trkpt><trkpt lat="39.380523378728704" lon="16.92844909410692"><ele>241.00000000000003</ele><time>2026-03-29T10:22:47.997Z</time></trkpt><trkpt lat="39.380502024441725" lon="16.9283263692396"><ele>241.0</ele><time>2026-03-29T10:22:49.997Z</time></trkpt><trkpt lat="39.38046900478639" lon="16.928197032260886"><ele>241.0</ele><time>2026-03-29T10:22:51.997Z</time></trkpt><trkpt lat="39.3804355257802" lon="16.928117347590774"><ele>242.14285714285717</ele><time>2026-03-29T10:22:53.997Z</time></trkpt><trkpt lat="39.38041569166253" lon="16.92803683265204"><ele>243.2857142857143</ele><time>2026-03-29T10:22:56.997Z</time></trkpt><trkpt lat="39.38037452800977" lon="16.927961318915962"><ele>244.42857142857144</ele><time>2026-03-29T10:23:02.997Z</time></trkpt><trkpt lat="39.38034330758798" lon="16.927887645478105"><ele>245.57142857142856</ele><time>2026-03-29T10:23:05.997Z</time></trkpt><trkpt lat="39.38027932218202" lon="16.92782692763668"><ele>246.7142857142857</ele><time>2026-03-29T10:23:07.997Z</time></trkpt><trkpt lat="39.38021001367931" lon="16.927763896915046"><ele>247.85714285714283</ele><time>2026-03-29T10:23:09.997Z</time></trkpt><trkpt lat="39.38015120404478" lon="16.927687688911007"><ele>249.0</ele><time>2026-03-29T10:23:11.997Z</time></trkpt><trkpt lat="39.38010145784341" lon="16.927613029417355"><ele>248.83333333333334</ele><time>2026-03-29T10:23:13.997Z</time></trkpt><trkpt lat="39.38006912545884" lon="16.927530959440713"><ele>248.66666666666669</ele><time>2026-03-29T10:23:15.997Z</time></trkpt><trkpt lat="39.38007244438322" lon="16.927424940176348"><ele>248.5</ele><time>2026-03-29T10:23:17.997Z</time></trkpt><trkpt lat="39.38005742704803" lon="16.92731384779038"><ele>248.33333333333334</ele><time>2026-03-29T10:23:19.997Z</time></trkpt><trkpt lat="39.380055226425824" lon="16.927188273281967"><ele>248.16666666666669</ele><time>2026-03-29T10:23:21.997Z</time></trkpt><trkpt lat="39.38004325328145" lon="16.927061181711142"><ele>248.0</ele><time>2026-03-29T10:23:23.997Z</time></trkpt><trkpt lat="39.38001084164166" lon="16.926942892040007"><ele>248.0</ele><time>2026-03-29T10:23:25.997Z</time></trkpt><trkpt lat="39.38000541538127" lon="16.926809571980574"><ele>248.0</ele><time>2026-03-29T10:23:27.997Z</time></trkpt><trkpt lat="39.380055321506816" lon="16.92668741766768"><ele>248.0</ele><time>2026-03-29T10:23:29.997Z</time></trkpt><trkpt lat="39.38008197740352" lon="16.926540025186767"><ele>248.0</ele><time>2026-03-29T10:23:31.997Z</time></trkpt><trkpt lat="39.38006711710444" lon="16.926393675239673"><ele>248.0</ele><time>2026-03-29T10:23:33.997Z</time></trkpt><trkpt lat="39.38004839784573" lon="16.926290694500135"><ele>248.0</ele><time>2026-03-29T10:23:35.997Z</time></trkpt><trkpt lat="39.380037122789766" lon="16.9261905377558"><ele>248.0</ele><time>2026-03-29T10:23:37.997Z</time></trkpt><trkpt lat="39.38004384795856" lon="16.92605859307627"><ele>248.0</ele><time>2026-03-29T10:23:39.997Z</time></trkpt><trkpt lat="39.38006028110365" lon="16.92589678753545"><ele>248.0</ele><time>2026-03-29T10:23:41.997Z</time></trkpt><trkpt lat="39.38006978493332" lon="16.92574990403508"><ele>248.0</ele><time>2026-03-29T10:23:43.997Z</time></trkpt><trkpt lat="39.380056495274225" lon="16.925594094920793"><ele>248.33333333333334</ele><time>2026-03-29T10:23:45.997Z</time></trkpt><trkpt lat="39.38002849413988" lon="16.925509977993023"><ele>248.66666666666669</ele><time>2026-03-29T10:23:46.997Z</time></trkpt><trkpt lat="39.37999212087264" lon="16.92542850752407"><ele>249.0</ele><time>2026-03-29T10:23:47.997Z</time></trkpt><trkpt lat="39.379956268586675" lon="16.925355597891592"><ele>249.33333333333331</ele><time>2026-03-29T10:23:48.997Z</time></trkpt><trkpt lat="39.37992397854763" lon="16.925284110859728"><ele>249.66666666666666</ele><time>2026-03-29T10:23:49.997Z</time></trkpt><trkpt lat="39.37989535046637" lon="16.92517191926554"><ele>250.0</ele><time>2026-03-29T10:23:51.997Z</time></trkpt><trkpt lat="39.379872026759564" lon="16.925065191847114"><ele>251.0</ele><time>2026-03-29T10:23:53.997Z</time></trkpt><trkpt lat="39.37986093079574" lon="16.924956321484927"><ele>252.0</ele><time>2026-03-29T10:23:55.997Z</time></trkpt><trkpt lat="39.37984165055135" lon="16.924852605366855"><ele>253.0</ele><time>2026-03-29T10:23:57.997Z</time></trkpt><trkpt lat="39.37983343689448" lon="16.924737401783872"><ele>254.0</ele><time>2026-03-29T10:23:59.997Z</time></trkpt><trkpt lat="39.379822080142596" lon="16.924605490431624"><ele>255.0</ele><time>2026-03-29T10:24:01.997Z</time></trkpt><trkpt lat="39.379772324192" lon="16.924505629420782"><ele>255.0</ele><time>2026-03-29T10:24:03.997Z</time></trkpt><trkpt lat="39.37969357698856" lon="16.92444932421887"><ele>255.0</ele><time>2026-03-29T10:24:05.997Z</time></trkpt><trkpt lat="39.37963003770744" lon="16.924378966353935"><ele>255.0</ele><time>2026-03-29T10:24:07.997Z</time></trkpt><trkpt lat="39.37956602696573" lon="16.924356528817935"><ele>255.0</ele><time>2026-03-29T10:24:09.997Z</time></trkpt><trkpt lat="39.37948517940839" lon="16.924313288498308"><ele>255.0</ele><time>2026-03-29T10:24:13Z</time></trkpt><trkpt lat="39.37942431004498" lon="16.924266958117265"><ele>255.0</ele><time>2026-03-29T10:24:14.999Z</time></trkpt><trkpt lat="39.37936542862171" lon="16.92423222919321"><ele>254.16666666666666</ele><time>2026-03-29T10:24:16.999Z</time></trkpt><trkpt lat="39.37930358828659" lon="16.924208619859318"><ele>253.33333333333331</ele><time>2026-03-29T10:24:18.999Z</time></trkpt><trkpt lat="39.379284366519755" lon="16.924044561762358"><ele>252.5</ele><time>2026-03-29T10:24:19.999Z</time></trkpt><trkpt lat="39.379209024293935" lon="16.92403906501375"><ele>251.66666666666666</ele><time>2026-03-29T10:24:22.999Z</time></trkpt><trkpt lat="39.37913271550337" lon="16.924034034858472"><ele>250.83333333333331</ele><time>2026-03-29T10:24:30.999Z</time></trkpt><trkpt lat="39.379060091901664" lon="16.92396229398646"><ele>250.0</ele><time>2026-03-29T10:24:34.999Z</time></trkpt><trkpt lat="39.37901208454122" lon="16.923904416941006"><ele>250.0</ele><time>2026-03-29T10:24:35.999Z</time></trkpt><trkpt lat="39.37894244158813" lon="16.92381091891607"><ele>250.0</ele><time>2026-03-29T10:24:36.999Z</time></trkpt><trkpt lat="39.37888384558017" lon="16.92368669308059"><ele>250.0</ele><time>2026-03-29T10:24:37.999Z</time></trkpt><trkpt lat="39.37883168323553" lon="16.923556347002094"><ele>250.0</ele><time>2026-03-29T10:24:38.999Z</time></trkpt><trkpt lat="39.37877834956435" lon="16.92343326892627"><ele>250.0</ele><time>2026-03-29T10:24:39.999Z</time></trkpt><trkpt lat="39.37872331146948" lon="16.923317171179587"><ele>248.4</ele><time>2026-03-29T10:24:40.999Z</time></trkpt><trkpt lat="39.37866980537273" lon="16.923209725201612"><ele>246.8</ele><time>2026-03-29T10:24:41.999Z</time></trkpt><trkpt lat="39.37861423345515" lon="16.92310496075462"><ele>245.2</ele><time>2026-03-29T10:24:42.999Z</time></trkpt><trkpt lat="39.378549130295724" lon="16.92300784118114"><ele>243.6</ele><time>2026-03-29T10:24:43.999Z</time></trkpt><trkpt lat="39.37847149263899" lon="16.922932345574726"><ele>242.0</ele><time>2026-03-29T10:24:44.999Z</time></trkpt><trkpt lat="39.378388250144816" lon="16.9228685974575"><ele>242.0</ele><time>2026-03-29T10:24:45.999Z</time></trkpt><trkpt lat="39.378292517537915" lon="16.92283648692862"><ele>242.0</ele><time>2026-03-29T10:24:46.999Z</time></trkpt><trkpt lat="39.37819219962592" lon="16.92283270948952"><ele>242.0</ele><time>2026-03-29T10:24:47.999Z</time></trkpt><trkpt lat="39.378098901022476" lon="16.922817019002327"><ele>242.0</ele><time>2026-03-29T10:24:48.999Z</time></trkpt><trkpt lat="39.37801521397494" lon="16.9228047267473"><ele>242.0</ele><time>2026-03-29T10:24:49.999Z</time></trkpt><trkpt lat="39.377927264204104" lon="16.922784281361334"><ele>243.6</ele><time>2026-03-29T10:24:50.999Z</time></trkpt><trkpt lat="39.37784424550733" lon="16.9227709946283"><ele>245.2</ele><time>2026-03-29T10:24:51.999Z</time></trkpt><trkpt lat="39.37776063040683" lon="16.92279217368423"><ele>246.8</ele><time>2026-03-29T10:24:52.999Z</time></trkpt><trkpt lat="39.377676177466604" lon="16.922821618911446"><ele>248.4</ele><time>2026-03-29T10:24:53.999Z</time></trkpt><trkpt lat="39.3776055437717" lon="16.92290421045266"><ele>250.0</ele><time>2026-03-29T10:24:54.999Z</time></trkpt><trkpt lat="39.37755411235007" lon="16.92302271602847"><ele>250.0</ele><time>2026-03-29T10:24:55.999Z</time></trkpt><trkpt lat="39.37751749506396" lon="16.9231701779996"><ele>250.0</ele><time>2026-03-29T10:24:56.999Z</time></trkpt><trkpt lat="39.37749600434857" lon="16.923343460773584"><ele>250.0</ele><time>2026-03-29T10:24:57.999Z</time></trkpt><trkpt lat="39.37744764312629" lon="16.923516583689807"><ele>250.0</ele><time>2026-03-29T10:24:58.999Z</time></trkpt><trkpt lat="39.37741621334771" lon="16.923691191735088"><ele>249.75</ele><time>2026-03-29T10:24:59.999Z</time></trkpt><trkpt lat="39.377387223787345" lon="16.923856334708518"><ele>249.5</ele><time>2026-03-29T10:25:00.999Z</time></trkpt><trkpt lat="39.3773618801609" lon="16.924006425548974"><ele>249.25</ele><time>2026-03-29T10:25:01.999Z</time></trkpt><trkpt lat="39.37733881948677" lon="16.924150104816853"><ele>249.0</ele><time>2026-03-29T10:25:02.999Z</time></trkpt><trkpt lat="39.37731676752179" lon="16.924292746115352"><ele>249.0</ele><time>2026-03-29T10:25:03.999Z</time></trkpt><trkpt lat="39.37729483653203" lon="16.924434617395107"><ele>248.99999999999997</ele><time>2026-03-29T10:25:04.999Z</time></trkpt><trkpt lat="39.377270646280614" lon="16.92457544201177"><ele>248.99999999999997</ele><time>2026-03-29T10:25:05.999Z</time></trkpt><trkpt lat="39.37724518073572" lon="16.924706813164846"><ele>249.0</ele><time>2026-03-29T10:25:06.999Z</time></trkpt><trkpt lat="39.377215658989705" lon="16.9248204027345"><ele>249.0</ele><time>2026-03-29T10:25:07.999Z</time></trkpt><trkpt lat="39.37718351767664" lon="16.92491433325429"><ele>250.83333333333334</ele><time>2026-03-29T10:25:08.999Z</time></trkpt><trkpt lat="39.37714829193277" lon="16.924993635211845"><ele>252.66666666666669</ele><time>2026-03-29T10:25:09.999Z</time></trkpt><trkpt lat="39.377097964534514" lon="16.92506063091855"><ele>254.5</ele><time>2026-03-29T10:25:10.999Z</time></trkpt><trkpt lat="39.37702688767851" lon="16.925110333720376"><ele>256.33333333333337</ele><time>2026-03-29T10:25:11.999Z</time></trkpt><trkpt lat="39.376947557551006" lon="16.92515338195257"><ele>258.1666666666667</ele><time>2026-03-29T10:25:12.999Z</time></trkpt><trkpt lat="39.37686387134683" lon="16.92515646838465"><ele>260.0</ele><time>2026-03-29T10:25:13.999Z</time></trkpt><trkpt lat="39.376781417670905" lon="16.92512293076853"><ele>260.0</ele><time>2026-03-29T10:25:14.999Z</time></trkpt><trkpt lat="39.376692411473776" lon="16.925095016537153"><ele>260.0</ele><time>2026-03-29T10:25:15.999Z</time></trkpt><trkpt lat="39.3765988407954" lon="16.925070804449074"><ele>260.0</ele><time>2026-03-29T10:25:16.999Z</time></trkpt><trkpt lat="39.37653323195832" lon="16.924861416012604"><ele>260.0</ele><time>2026-03-29T10:25:17.999Z</time></trkpt><trkpt lat="39.376460376735906" lon="16.924771634365403"><ele>260.0</ele><time>2026-03-29T10:25:18.999Z</time></trkpt><trkpt lat="39.376387231692895" lon="16.92469380590166"><ele>260.0</ele><time>2026-03-29T10:25:19.999Z</time></trkpt><trkpt lat="39.37633646351916" lon="16.924599855604548"><ele>260.0</ele><time>2026-03-29T10:25:20.999Z</time></trkpt><trkpt lat="39.376288256589646" lon="16.924493344587706"><ele>260.0</ele><time>2026-03-29T10:25:21.999Z</time></trkpt><trkpt lat="39.3762566458317" lon="16.92436211951529"><ele>260.0</ele><time>2026-03-29T10:25:22.999Z</time></trkpt><trkpt lat="39.3762408303422" lon="16.924220172894387"><ele>258.4</ele><time>2026-03-29T10:25:23.999Z</time></trkpt><trkpt lat="39.37622661762132" lon="16.92408472924794"><ele>256.8</ele><time>2026-03-29T10:25:24.999Z</time></trkpt><trkpt lat="39.37621928797313" lon="16.923953006858156"><ele>255.2</ele><time>2026-03-29T10:25:25.999Z</time></trkpt><trkpt lat="39.37619188115808" lon="16.923830306494533"><ele>253.6</ele><time>2026-03-29T10:25:26.999Z</time></trkpt><trkpt lat="39.37615041106262" lon="16.923707595200586"><ele>252.0</ele><time>2026-03-29T10:25:27.999Z</time></trkpt><trkpt lat="39.37609670566115" lon="16.923590200085613"><ele>252.0</ele><time>2026-03-29T10:25:28.999Z</time></trkpt><trkpt lat="39.376021781129865" lon="16.92348295634439"><ele>252.0</ele><time>2026-03-29T10:25:29.999Z</time></trkpt><trkpt lat="39.37596148988341" lon="16.92335769227122"><ele>252.0</ele><time>2026-03-29T10:25:30.999Z</time></trkpt><trkpt lat="39.375887454162026" lon="16.923246146861707"><ele>252.0</ele><time>2026-03-29T10:25:31.999Z</time></trkpt><trkpt lat="39.375815279537015" lon="16.923136500958627"><ele>254.39999999999998</ele><time>2026-03-29T10:25:32.999Z</time></trkpt><trkpt lat="39.37574962372293" lon="16.923027434333825"><ele>256.79999999999995</ele><time>2026-03-29T10:25:33.999Z</time></trkpt><trkpt lat="39.37569038588843" lon="16.92292140707382"><ele>259.2</ele><time>2026-03-29T10:25:34.999Z</time></trkpt><trkpt lat="39.375640215788415" lon="16.92282445174032"><ele>261.59999999999997</ele><time>2026-03-29T10:25:35.999Z</time></trkpt><trkpt lat="39.375581294220304" lon="16.92274744435433"><ele>264.0</ele><time>2026-03-29T10:25:36.999Z</time></trkpt><trkpt lat="39.37554478170949" lon="16.922665875427032"><ele>262.8</ele><time>2026-03-29T10:25:37.999Z</time></trkpt><trkpt lat="39.37551313307031" lon="16.922590703134805"><ele>261.59999999999997</ele><time>2026-03-29T10:25:38.999Z</time></trkpt><trkpt lat="39.37544896071731" lon="16.92246252930926"><ele>260.4</ele><time>2026-03-29T10:25:40.999Z</time></trkpt><trkpt lat="39.375412643072856" lon="16.922327556313284"><ele>259.2</ele><time>2026-03-29T10:25:42.999Z</time></trkpt><trkpt lat="39.37538053478295" lon="16.92219959399278"><ele>258.0</ele><time>2026-03-29T10:25:44.999Z</time></trkpt><trkpt lat="39.37535753145175" lon="16.922066720989836"><ele>258.0</ele><time>2026-03-29T10:25:46.999Z</time></trkpt><trkpt lat="39.37534672675961" lon="16.92198513088398"><ele>258.0</ele><time>2026-03-29T10:25:47.999Z</time></trkpt><trkpt lat="39.37533513705659" lon="16.92189130217942"><ele>258.0</ele><time>2026-03-29T10:25:48.999Z</time></trkpt><trkpt lat="39.37532222280098" lon="16.921793085227176"><ele>258.0</ele><time>2026-03-29T10:25:49.999Z</time></trkpt><trkpt lat="39.37530775161476" lon="16.921688605877076"><ele>258.0</ele><time>2026-03-29T10:25:50.999Z</time></trkpt><trkpt lat="39.37529062831265" lon="16.921584493774652"><ele>258.0</ele><time>2026-03-29T10:25:51.999Z</time></trkpt><trkpt lat="39.375272803958644" lon="16.92147611896095"><ele>259.0</ele><time>2026-03-29T10:25:52.999Z</time></trkpt><trkpt lat="39.375239087722285" lon="16.921359283860703"><ele>260.0</ele><time>2026-03-29T10:25:53.999Z</time></trkpt><trkpt lat="39.375216939208585" lon="16.92122605219135"><ele>261.0</ele><time>2026-03-29T10:25:54.999Z</time></trkpt><trkpt lat="39.37520883734426" lon="16.921083526470355"><ele>262.0</ele><time>2026-03-29T10:25:55.999Z</time></trkpt><trkpt lat="39.37518606571598" lon="16.920939240100054"><ele>263.0</ele><time>2026-03-29T10:25:56.999Z</time></trkpt><trkpt lat="39.375165374277614" lon="16.920789796244023"><ele>264.0</ele><time>2026-03-29T10:25:57.999Z</time></trkpt><trkpt lat="39.375130656753186" lon="16.92062663128256"><ele>265.0</ele><time>2026-03-29T10:25:58.999Z</time></trkpt><trkpt lat="39.375120344889616" lon="16.92044992189895"><ele>266.0</ele><time>2026-03-29T10:25:59.999Z</time></trkpt><trkpt lat="39.375132181586366" lon="16.920273852189275"><ele>267.0</ele><time>2026-03-29T10:26:00.999Z</time></trkpt><trkpt lat="39.375136102194524" lon="16.920116132087607"><ele>267.0</ele><time>2026-03-29T10:26:01.999Z</time></trkpt><trkpt lat="39.37514032171278" lon="16.91997738897464"><ele>267.0</ele><time>2026-03-29T10:26:02.999Z</time></trkpt><trkpt lat="39.37514028555879" lon="16.919849374287708"><ele>267.0</ele><time>2026-03-29T10:26:03.999Z</time></trkpt><trkpt lat="39.37515286938273" lon="16.91973068277048"><ele>267.0</ele><time>2026-03-29T10:26:04.999Z</time></trkpt><trkpt lat="39.3751543197006" lon="16.919617690381713"><ele>267.0</ele><time>2026-03-29T10:26:05.999Z</time></trkpt><trkpt lat="39.37514799356086" lon="16.91950316101165"><ele>267.0</ele><time>2026-03-29T10:26:06.999Z</time></trkpt><trkpt lat="39.37512633162203" lon="16.919384339262155"><ele>267.0</ele><time>2026-03-29T10:26:07.999Z</time></trkpt><trkpt lat="39.375094377204086" lon="16.91925262544309"><ele>267.0</ele><time>2026-03-29T10:26:08.999Z</time></trkpt><trkpt lat="39.375040648791234" lon="16.919127069487274"><ele>267.0</ele><time>2026-03-29T10:26:09.999Z</time></trkpt><trkpt lat="39.37498098741333" lon="16.919013684191697"><ele>267.0</ele><time>2026-03-29T10:26:10.999Z</time></trkpt><trkpt lat="39.374924214502144" lon="16.918905655660996"><ele>267.0</ele><time>2026-03-29T10:26:11.999Z</time></trkpt><trkpt lat="39.37487729371085" lon="16.918794137634137"><ele>267.0</ele><time>2026-03-29T10:26:12.999Z</time></trkpt><trkpt lat="39.37483692240068" lon="16.91867884927375"><ele>267.0</ele><time>2026-03-29T10:26:13.999Z</time></trkpt><trkpt lat="39.37477144373388" lon="16.918578124894474"><ele>267.0</ele><time>2026-03-29T10:26:14.999Z</time></trkpt><trkpt lat="39.37481376034093" lon="16.918384446769366"><ele>267.25</ele><time>2026-03-29T10:26:15.999Z</time></trkpt><trkpt lat="39.37483372287237" lon="16.918215029466268"><ele>267.5</ele><time>2026-03-29T10:26:16.999Z</time></trkpt><trkpt lat="39.37485145534884" lon="16.918043538063934"><ele>267.75</ele><time>2026-03-29T10:26:17.999Z</time></trkpt><trkpt lat="39.374871765898995" lon="16.917877364880642"><ele>268.0</ele><time>2026-03-29T10:26:18.999Z</time></trkpt><trkpt lat="39.37488658294169" lon="16.917720152894173"><ele>268.0</ele><time>2026-03-29T10:26:19.999Z</time></trkpt><trkpt lat="39.37490150307687" lon="16.917569256098062"><ele>268.0</ele><time>2026-03-29T10:26:20.999Z</time></trkpt><trkpt lat="39.374913940161335" lon="16.917416431595292"><ele>268.0</ele><time>2026-03-29T10:26:21.999Z</time></trkpt><trkpt lat="39.3749262636238" lon="16.91726137247436"><ele>268.0</ele><time>2026-03-29T10:26:22.999Z</time></trkpt><trkpt lat="39.37493903470553" lon="16.917107547378592"><ele>266.5</ele><time>2026-03-29T10:26:23.999Z</time></trkpt><trkpt lat="39.37495051441637" lon="16.91695630262589"><ele>265.0</ele><time>2026-03-29T10:26:24.999Z</time></trkpt><trkpt lat="39.37496153562742" lon="16.91680951927682"><ele>263.5</ele><time>2026-03-29T10:26:25.999Z</time></trkpt><trkpt lat="39.37497099358022" lon="16.9166621199008"><ele>262.0</ele><time>2026-03-29T10:26:26.999Z</time></trkpt><trkpt lat="39.37498295716805" lon="16.916516465220543"><ele>261.2</ele><time>2026-03-29T10:26:27.999Z</time></trkpt><trkpt lat="39.37499767860717" lon="16.916375619976325"><ele>260.4</ele><time>2026-03-29T10:26:28.999Z</time></trkpt><trkpt lat="39.37501264515267" lon="16.916242798151245"><ele>259.6</ele><time>2026-03-29T10:26:29.999Z</time></trkpt><trkpt lat="39.375026694185834" lon="16.916116956167134"><ele>258.8</ele><time>2026-03-29T10:26:30.999Z</time></trkpt><trkpt lat="39.37503505806095" lon="16.915999879317557"><ele>258.0</ele><time>2026-03-29T10:26:31.999Z</time></trkpt><trkpt lat="39.37504404927536" lon="16.915888280690005"><ele>257.6</ele><time>2026-03-29T10:26:32.999Z</time></trkpt><trkpt lat="39.375056410842255" lon="16.91577733747581"><ele>257.20000000000005</ele><time>2026-03-29T10:26:33.999Z</time></trkpt><trkpt lat="39.375064433522226" lon="16.91566335076927"><ele>256.8</ele><time>2026-03-29T10:26:34.998Z</time></trkpt><trkpt lat="39.37507529880738" lon="16.91554524479508"><ele>256.40000000000003</ele><time>2026-03-29T10:26:35.998Z</time></trkpt><trkpt lat="39.37508814925419" lon="16.91541566338177"><ele>256.0</ele><time>2026-03-29T10:26:36.998Z</time></trkpt><trkpt lat="39.37509906145995" lon="16.915275833623"><ele>256.0</ele><time>2026-03-29T10:26:37.998Z</time></trkpt><trkpt lat="39.375111664451936" lon="16.915132420834073"><ele>256.0</ele><time>2026-03-29T10:26:38.998Z</time></trkpt><trkpt lat="39.37512203394576" lon="16.914995780267237"><ele>256.0</ele><time>2026-03-29T10:26:39.998Z</time></trkpt><trkpt lat="39.37513590677797" lon="16.91486344717394"><ele>256.0</ele><time>2026-03-29T10:26:40.998Z</time></trkpt><trkpt lat="39.37514735031951" lon="16.91472770015887"><ele>256.0</ele><time>2026-03-29T10:26:41.998Z</time></trkpt><trkpt lat="39.3751617194327" lon="16.91458842427508"><ele>255.8</ele><time>2026-03-29T10:26:42.998Z</time></trkpt><trkpt lat="39.37517072654855" lon="16.914454598397416"><ele>255.60000000000002</ele><time>2026-03-29T10:26:43.998Z</time></trkpt><trkpt lat="39.37517686755118" lon="16.914329220765197"><ele>255.4</ele><time>2026-03-29T10:26:44.998Z</time></trkpt><trkpt lat="39.37518315289363" lon="16.914208561942964"><ele>255.2</ele><time>2026-03-29T10:26:45.998Z</time></trkpt><trkpt lat="39.375189369991546" lon="16.914094113461633"><ele>255.0</ele><time>2026-03-29T10:26:46.998Z</time></trkpt><trkpt lat="39.375196196260234" lon="16.91398529437631"><ele>254.66666666666666</ele><time>2026-03-29T10:26:47.998Z</time></trkpt><trkpt lat="39.37520261488664" lon="16.913882942065772"><ele>254.33333333333331</ele><time>2026-03-29T10:26:48.998Z</time></trkpt><trkpt lat="39.375206281335664" lon="16.913784461991202"><ele>254.0</ele><time>2026-03-29T10:26:49.998Z</time></trkpt><trkpt lat="39.375198315897514" lon="16.913687066732255"><ele>253.66666666666666</ele><time>2026-03-29T10:26:50.998Z</time></trkpt><trkpt lat="39.37518799692471" lon="16.913589977040978"><ele>253.33333333333331</ele><time>2026-03-29T10:26:51.998Z</time></trkpt><trkpt lat="39.37516756166952" lon="16.913495941760274"><ele>253.0</ele><time>2026-03-29T10:26:52.998Z</time></trkpt><trkpt lat="39.37513715063267" lon="16.913404779966164"><ele>253.0</ele><time>2026-03-29T10:26:53.998Z</time></trkpt><trkpt lat="39.37509541282172" lon="16.913312372983683"><ele>253.0</ele><time>2026-03-29T10:26:54.998Z</time></trkpt><trkpt lat="39.375045228155116" lon="16.91321819178317"><ele>253.0</ele><time>2026-03-29T10:26:55.998Z</time></trkpt><trkpt lat="39.37498540345323" lon="16.913119289325852"><ele>253.0</ele><time>2026-03-29T10:26:56.998Z</time></trkpt><trkpt lat="39.374922903050404" lon="16.913014332737337"><ele>253.0</ele><time>2026-03-29T10:26:57.998Z</time></trkpt><trkpt lat="39.374857147785264" lon="16.91290998642641"><ele>253.0</ele><time>2026-03-29T10:26:58.998Z</time></trkpt><trkpt lat="39.37479096570638" lon="16.912804381568087"><ele>253.0</ele><time>2026-03-29T10:26:59.998Z</time></trkpt><trkpt lat="39.374725365260055" lon="16.912697252352864"><ele>253.0</ele><time>2026-03-29T10:27:00.998Z</time></trkpt><trkpt lat="39.374660653122625" lon="16.912588812433974"><ele>253.0</ele><time>2026-03-29T10:27:01.998Z</time></trkpt><trkpt lat="39.37459232104869" lon="16.912481231795653"><ele>253.0</ele><time>2026-03-29T10:27:02.998Z</time></trkpt><trkpt lat="39.37452431701314" lon="16.912365848585036"><ele>254.0</ele><time>2026-03-29T10:27:03.998Z</time></trkpt><trkpt lat="39.3744536193711" lon="16.912250222822166"><ele>255.0</ele><time>2026-03-29T10:27:04.998Z</time></trkpt><trkpt lat="39.37438641879458" lon="16.912133837311373"><ele>256.0</ele><time>2026-03-29T10:27:05.998Z</time></trkpt><trkpt lat="39.374320687024394" lon="16.912018276931466"><ele>257.0</ele><time>2026-03-29T10:27:06.998Z</time></trkpt><trkpt lat="39.37425273386729" lon="16.91189182877026"><ele>257.0</ele><time>2026-03-29T10:27:07.998Z</time></trkpt><trkpt lat="39.37418106066604" lon="16.911756681806228"><ele>257.0</ele><time>2026-03-29T10:27:08.998Z</time></trkpt><trkpt lat="39.374108615508405" lon="16.91163254505449"><ele>257.0</ele><time>2026-03-29T10:27:09.998Z</time></trkpt><trkpt lat="39.37404143918798" lon="16.911519392858292"><ele>257.0</ele><time>2026-03-29T10:27:10.998Z</time></trkpt><trkpt lat="39.373973641218804" lon="16.91141861560442"><ele>258.0</ele><time>2026-03-29T10:27:11.998Z</time></trkpt><trkpt lat="39.37391359919665" lon="16.91131384707069"><ele>259.0</ele><time>2026-03-29T10:27:12.998Z</time></trkpt><trkpt lat="39.37385067446588" lon="16.911204950251527"><ele>260.0</ele><time>2026-03-29T10:27:13.998Z</time></trkpt><trkpt lat="39.37378765672736" lon="16.911093291793794"><ele>261.0</ele><time>2026-03-29T10:27:14.998Z</time></trkpt><trkpt lat="39.3737305715597" lon="16.910986024048828"><ele>262.0</ele><time>2026-03-29T10:27:15.998Z</time></trkpt><trkpt lat="39.373676504229266" lon="16.910881498488266"><ele>263.0</ele><time>2026-03-29T10:27:16.998Z</time></trkpt><trkpt lat="39.37362420817129" lon="16.91077933451333"><ele>264.0</ele><time>2026-03-29T10:27:17.998Z</time></trkpt><trkpt lat="39.373572427539834" lon="16.91067922905689"><ele>265.0</ele><time>2026-03-29T10:27:18.998Z</time></trkpt><trkpt lat="39.37353661108764" lon="16.91056997614907"><ele>266.0</ele><time>2026-03-29T10:27:19.998Z</time></trkpt><trkpt lat="39.373506455392295" lon="16.910460008256777"><ele>267.0</ele><time>2026-03-29T10:27:20.998Z</time></trkpt><trkpt lat="39.37348255338616" lon="16.910343289441844"><ele>267.0</ele><time>2026-03-29T10:27:21.998Z</time></trkpt><trkpt lat="39.37345275088394" lon="16.910228067731495"><ele>267.0</ele><time>2026-03-29T10:27:22.998Z</time></trkpt><trkpt lat="39.373422203424916" lon="16.91011676844461"><ele>267.0</ele><time>2026-03-29T10:27:23.998Z</time></trkpt><trkpt lat="39.37339340341119" lon="16.910011590601965"><ele>267.0</ele><time>2026-03-29T10:27:24.998Z</time></trkpt><trkpt lat="39.37338270206066" lon="16.909904455122124"><ele>267.0</ele><time>2026-03-29T10:27:25.998Z</time></trkpt><trkpt lat="39.37335814336099" lon="16.909801945056813"><ele>267.0</ele><time>2026-03-29T10:27:26.998Z</time></trkpt><trkpt lat="39.37333299469348" lon="16.909696590192905"><ele>267.2</ele><time>2026-03-29T10:27:27.998Z</time></trkpt><trkpt lat="39.373304827953454" lon="16.909586617440947"><ele>267.4</ele><time>2026-03-29T10:27:28.998Z</time></trkpt><trkpt lat="39.373275881479714" lon="16.909473167838083"><ele>267.6</ele><time>2026-03-29T10:27:29.998Z</time></trkpt><trkpt lat="39.373249118021754" lon="16.909355617359747"><ele>267.8</ele><time>2026-03-29T10:27:30.998Z</time></trkpt><trkpt lat="39.37321072230861" lon="16.909241789420673"><ele>268.0</ele><time>2026-03-29T10:27:31.998Z</time></trkpt><trkpt lat="39.37322058864098" lon="16.90912013949392"><ele>268.5</ele><time>2026-03-29T10:27:32.998Z</time></trkpt><trkpt lat="39.373233333738355" lon="16.90899150799979"><ele>269.0</ele><time>2026-03-29T10:27:33.998Z</time></trkpt><trkpt lat="39.37326483026905" lon="16.908843881425252"><ele>269.5</ele><time>2026-03-29T10:27:34.998Z</time></trkpt><trkpt lat="39.37330812748602" lon="16.90868227015081"><ele>270.0</ele><time>2026-03-29T10:27:35.998Z</time></trkpt><trkpt lat="39.373352250487976" lon="16.908526918657056"><ele>268.4</ele><time>2026-03-29T10:27:36.998Z</time></trkpt><trkpt lat="39.373393625529296" lon="16.908381242384152"><ele>266.8</ele><time>2026-03-29T10:27:37.998Z</time></trkpt><trkpt lat="39.373432275855755" lon="16.908243328639298"><ele>265.2</ele><time>2026-03-29T10:27:38.998Z</time></trkpt><trkpt lat="39.373466388693544" lon="16.908115410976635"><ele>263.6</ele><time>2026-03-29T10:27:39.998Z</time></trkpt><trkpt lat="39.37348608482103" lon="16.907986769507378"><ele>262.0</ele><time>2026-03-29T10:27:40.998Z</time></trkpt><trkpt lat="39.37352255320947" lon="16.907863678199103"><ele>262.0</ele><time>2026-03-29T10:27:41.998Z</time></trkpt><trkpt lat="39.373559247119644" lon="16.907740639342723"><ele>262.0</ele><time>2026-03-29T10:27:42.998Z</time></trkpt><trkpt lat="39.3735914755996" lon="16.907624050013407"><ele>262.0</ele><time>2026-03-29T10:27:43.998Z</time></trkpt><trkpt lat="39.373624441431154" lon="16.90751700601291"><ele>262.0</ele><time>2026-03-29T10:27:44.998Z</time></trkpt><trkpt lat="39.373656395394626" lon="16.907415288943017"><ele>262.0</ele><time>2026-03-29T10:27:45.998Z</time></trkpt><trkpt lat="39.37368733652605" lon="16.90731646419243"><ele>261.3333333333333</ele><time>2026-03-29T10:27:46.998Z</time></trkpt><trkpt lat="39.3737166485106" lon="16.907214756417144"><ele>260.66666666666663</ele><time>2026-03-29T10:27:47.998Z</time></trkpt><trkpt lat="39.373735951610385" lon="16.907104725032926"><ele>260.0</ele><time>2026-03-29T10:27:48.998Z</time></trkpt><trkpt lat="39.37374534655132" lon="16.906991888705193"><ele>259.3333333333333</ele><time>2026-03-29T10:27:49.998Z</time></trkpt><trkpt lat="39.37374650353218" lon="16.906875579119273"><ele>258.6666666666667</ele><time>2026-03-29T10:27:50.998Z</time></trkpt><trkpt lat="39.37374488363483" lon="16.906754092467377"><ele>258.0</ele><time>2026-03-29T10:27:51.998Z</time></trkpt><trkpt lat="39.37374137968234" lon="16.906633463706548"><ele>258.0</ele><time>2026-03-29T10:27:52.998Z</time></trkpt><trkpt lat="39.37372335120821" lon="16.90651568929962"><ele>258.0</ele><time>2026-03-29T10:27:53.998Z</time></trkpt><trkpt lat="39.37369596468706" lon="16.906400964676497"><ele>258.0</ele><time>2026-03-29T10:27:54.998Z</time></trkpt><trkpt lat="39.373658371642534" lon="16.906294614652904"><ele>258.0</ele><time>2026-03-29T10:27:55.998Z</time></trkpt><trkpt lat="39.373614115689" lon="16.906200945751145"><ele>258.0</ele><time>2026-03-29T10:27:56.998Z</time></trkpt><trkpt lat="39.37356650840839" lon="16.906117000765175"><ele>258.0</ele><time>2026-03-29T10:27:57.998Z</time></trkpt><trkpt lat="39.373513867260314" lon="16.906043475207653"><ele>258.0</ele><time>2026-03-29T10:27:58.998Z</time></trkpt><trkpt lat="39.37343899461844" lon="16.90600770127535"><ele>258.0</ele><time>2026-03-29T10:27:59.998Z</time></trkpt><trkpt lat="39.373392241338244" lon="16.905896018096723"><ele>258.0</ele><time>2026-03-29T10:28:00.998Z</time></trkpt><trkpt lat="39.373328508772055" lon="16.90580678707759"><ele>258.0</ele><time>2026-03-29T10:28:01.998Z</time></trkpt><trkpt lat="39.37326372124344" lon="16.905709548743733"><ele>258.0</ele><time>2026-03-29T10:28:02.998Z</time></trkpt><trkpt lat="39.37320499577686" lon="16.905612139507188"><ele>258.5</ele><time>2026-03-29T10:28:03.998Z</time></trkpt><trkpt lat="39.37315440739008" lon="16.90552386459814"><ele>259.0</ele><time>2026-03-29T10:28:04.998Z</time></trkpt><trkpt lat="39.37311417846996" lon="16.905429265644976"><ele>259.5</ele><time>2026-03-29T10:28:05.998Z</time></trkpt><trkpt lat="39.37307468545654" lon="16.905330801514747"><ele>260.0</ele><time>2026-03-29T10:28:06.998Z</time></trkpt><trkpt lat="39.37304080077569" lon="16.905232991283043"><ele>260.5</ele><time>2026-03-29T10:28:07.998Z</time></trkpt><trkpt lat="39.37300978302113" lon="16.905147405041774"><ele>261.0</ele><time>2026-03-29T10:28:08.998Z</time></trkpt><trkpt lat="39.37298153161864" lon="16.905069767441876"><ele>264.2</ele><time>2026-03-29T10:28:09.998Z</time></trkpt><trkpt lat="39.37292338658963" lon="16.904929496679852"><ele>267.40000000000003</ele><time>2026-03-29T10:28:11.998Z</time></trkpt><trkpt lat="39.37285592985353" lon="16.904807595848766"><ele>270.6</ele><time>2026-03-29T10:28:13.998Z</time></trkpt><trkpt lat="39.37283237472546" lon="16.90472252504879"><ele>273.8</ele><time>2026-03-29T10:28:14.998Z</time></trkpt><trkpt lat="39.37278788992893" lon="16.904633641849323"><ele>277.0</ele><time>2026-03-29T10:28:15.998Z</time></trkpt><trkpt lat="39.3727408882935" lon="16.90452716426171"><ele>277.0</ele><time>2026-03-29T10:28:16.998Z</time></trkpt><trkpt lat="39.37269846915268" lon="16.904417920521002"><ele>277.0</ele><time>2026-03-29T10:28:17.998Z</time></trkpt><trkpt lat="39.372656991330956" lon="16.904309930314085"><ele>277.0</ele><time>2026-03-29T10:28:18.998Z</time></trkpt><trkpt lat="39.37261303358456" lon="16.90418951875663"><ele>277.0</ele><time>2026-03-29T10:28:19.998Z</time></trkpt><trkpt lat="39.37256744281951" lon="16.904065401015796"><ele>277.0</ele><time>2026-03-29T10:28:20.998Z</time></trkpt><trkpt lat="39.37251945952946" lon="16.90393870758249"><ele>277.8</ele><time>2026-03-29T10:28:21.998Z</time></trkpt><trkpt lat="39.37247024253553" lon="16.90381412667738"><ele>278.6</ele><time>2026-03-29T10:28:22.998Z</time></trkpt><trkpt lat="39.37241043176798" lon="16.90368835086939"><ele>279.40000000000003</ele><time>2026-03-29T10:28:23.998Z</time></trkpt><trkpt lat="39.37233906925671" lon="16.90357298469235"><ele>280.2</ele><time>2026-03-29T10:28:24.998Z</time></trkpt><trkpt lat="39.372267355356016" lon="16.903472950489927"><ele>281.0</ele><time>2026-03-29T10:28:25.998Z</time></trkpt><trkpt lat="39.3721962512135" lon="16.90337475719752"><ele>285.40000000000003</ele><time>2026-03-29T10:28:26.998Z</time></trkpt><trkpt lat="39.3721241620738" lon="16.90326778975775"><ele>289.8</ele><time>2026-03-29T10:28:27.998Z</time></trkpt><trkpt lat="39.3720459942312" lon="16.903168424168435"><ele>294.20000000000005</ele><time>2026-03-29T10:28:28.998Z</time></trkpt><trkpt lat="39.37195930672054" lon="16.903077510513874"><ele>298.6</ele><time>2026-03-29T10:28:29.998Z</time></trkpt><trkpt lat="39.371871372238864" lon="16.902992953566102"><ele>303.0</ele><time>2026-03-29T10:28:30.998Z</time></trkpt><trkpt lat="39.37178159037376" lon="16.902916979258862"><ele>303.0</ele><time>2026-03-29T10:28:31.998Z</time></trkpt><trkpt lat="39.37169579285754" lon="16.9028445895389"><ele>303.0</ele><time>2026-03-29T10:28:32.998Z</time></trkpt><trkpt lat="39.37160647920853" lon="16.902772664814773"><ele>303.0</ele><time>2026-03-29T10:28:33.998Z</time></trkpt><trkpt lat="39.371515231769926" lon="16.90270416353978"><ele>303.0</ele><time>2026-03-29T10:28:34.998Z</time></trkpt><trkpt lat="39.371415496912576" lon="16.90266203145252"><ele>303.0</ele><time>2026-03-29T10:28:35.998Z</time></trkpt><trkpt lat="39.37132391446405" lon="16.902593889899368"><ele>307.4</ele><time>2026-03-29T10:28:36.998Z</time></trkpt><trkpt lat="39.37123658167108" lon="16.90253172312823"><ele>311.8</ele><time>2026-03-29T10:28:37.998Z</time></trkpt><trkpt lat="39.37114843951899" lon="16.902487549363084"><ele>316.2</ele><time>2026-03-29T10:28:38.998Z</time></trkpt><trkpt lat="39.37106431198377" lon="16.902432902096272"><ele>320.6</ele><time>2026-03-29T10:28:39.998Z</time></trkpt><trkpt lat="39.37097928222081" lon="16.902371151503292"><ele>325.0</ele><time>2026-03-29T10:28:40.998Z</time></trkpt><trkpt lat="39.37089602417778" lon="16.902303423652842"><ele>325.0</ele><time>2026-03-29T10:28:41.998Z</time></trkpt><trkpt lat="39.370812582269686" lon="16.902255207326856"><ele>325.0</ele><time>2026-03-29T10:28:42.998Z</time></trkpt><trkpt lat="39.37073202513051" lon="16.90221122510374"><ele>325.0</ele><time>2026-03-29T10:28:43.998Z</time></trkpt><trkpt lat="39.370662563696854" lon="16.90216593199021"><ele>325.0</ele><time>2026-03-29T10:28:44.998Z</time></trkpt><trkpt lat="39.37060120875209" lon="16.902106261265367"><ele>325.0</ele><time>2026-03-29T10:28:45.998Z</time></trkpt><trkpt lat="39.37054741635395" lon="16.902041319986264"><ele>325.0</ele><time>2026-03-29T10:28:46.998Z</time></trkpt><trkpt lat="39.37049343676761" lon="16.901968356082282"><ele>327.0</ele><time>2026-03-29T10:28:47.998Z</time></trkpt><trkpt lat="39.370433670995205" lon="16.901888370721835"><ele>329.0</ele><time>2026-03-29T10:28:48.997Z</time></trkpt><trkpt lat="39.37037109436892" lon="16.901806514587943"><ele>331.0</ele><time>2026-03-29T10:28:49.997Z</time></trkpt><trkpt lat="39.370297017638734" lon="16.90173900151353"><ele>333.0</ele><time>2026-03-29T10:28:50.997Z</time></trkpt><trkpt lat="39.37023545578616" lon="16.901660914256865"><ele>335.0</ele><time>2026-03-29T10:28:51.997Z</time></trkpt><trkpt lat="39.370181285126364" lon="16.901594288560478"><ele>337.0</ele><time>2026-03-29T10:28:52.997Z</time></trkpt><trkpt lat="39.37013375386597" lon="16.90153972300764"><ele>338.16666666666663</ele><time>2026-03-29T10:28:53.997Z</time></trkpt><trkpt lat="39.37005342115506" lon="16.90144540917814"><ele>339.3333333333333</ele><time>2026-03-29T10:28:55.997Z</time></trkpt><trkpt lat="39.36999649242815" lon="16.901364073896623"><ele>340.5</ele><time>2026-03-29T10:28:57.997Z</time></trkpt><trkpt lat="39.370026945142804" lon="16.901237448659924"><ele>341.6666666666667</ele><time>2026-03-29T10:28:59.997Z</time></trkpt><trkpt lat="39.37002793800643" lon="16.901153335719336"><ele>342.83333333333337</ele><time>2026-03-29T10:29:00.997Z</time></trkpt><trkpt lat="39.37002931693441" lon="16.90107084994347"><ele>344.0</ele><time>2026-03-29T10:29:01.997Z</time></trkpt><trkpt lat="39.37004680809983" lon="16.90097309347095"><ele>345.1666666666667</ele><time>2026-03-29T10:29:02.997Z</time></trkpt><trkpt lat="39.37007099431424" lon="16.900874574702346"><ele>346.33333333333337</ele><time>2026-03-29T10:29:03.997Z</time></trkpt><trkpt lat="39.37009552523619" lon="16.900761483336357"><ele>347.5</ele><time>2026-03-29T10:29:04.997Z</time></trkpt><trkpt lat="39.37010311833237" lon="16.90064769571327"><ele>348.6666666666667</ele><time>2026-03-29T10:29:05.997Z</time></trkpt><trkpt lat="39.370104166414755" lon="16.90053957862364"><ele>349.8333333333333</ele><time>2026-03-29T10:29:06.997Z</time></trkpt><trkpt lat="39.37010416641231" lon="16.900425298196343"><ele>351.0</ele><time>2026-03-29T10:29:07.997Z</time></trkpt><trkpt lat="39.37010416640978" lon="16.900304765300803"><ele>351.0</ele><time>2026-03-29T10:29:08.997Z</time></trkpt><trkpt lat="39.37010536629376" lon="16.90018938248236"><ele>351.0</ele><time>2026-03-29T10:29:09.997Z</time></trkpt><trkpt lat="39.37009174323418" lon="16.9000857092289"><ele>351.0</ele><time>2026-03-29T10:29:10.997Z</time></trkpt><trkpt lat="39.370091483164614" lon="16.899996451750948"><ele>351.0</ele><time>2026-03-29T10:29:11.997Z</time></trkpt><trkpt lat="39.37009802464123" lon="16.89991210844009"><ele>351.0</ele><time>2026-03-29T10:29:12.997Z</time></trkpt><trkpt lat="39.3700641909352" lon="16.899812772181107"><ele>351.0</ele><time>2026-03-29T10:29:13.997Z</time></trkpt><trkpt lat="39.370022870260755" lon="16.89974700489971"><ele>351.8333333333333</ele><time>2026-03-29T10:29:14.997Z</time></trkpt><trkpt lat="39.369978261233356" lon="16.8996826924753"><ele>352.6666666666667</ele><time>2026-03-29T10:29:15.997Z</time></trkpt><trkpt lat="39.36992036502583" lon="16.899636462332744"><ele>353.5</ele><time>2026-03-29T10:29:16.997Z</time></trkpt><trkpt lat="39.369833253550745" lon="16.899641557615112"><ele>354.33333333333337</ele><time>2026-03-29T10:29:17.997Z</time></trkpt><trkpt lat="39.36977575788007" lon="16.899687829389425"><ele>355.1666666666667</ele><time>2026-03-29T10:29:18.997Z</time></trkpt><trkpt lat="39.36971327701968" lon="16.899739261499583"><ele>356.0</ele><time>2026-03-29T10:29:19.997Z</time></trkpt><trkpt lat="39.36963701472612" lon="16.89980451554499"><ele>359.20000000000005</ele><time>2026-03-29T10:29:20.997Z</time></trkpt><trkpt lat="39.36955605016509" lon="16.8998792687193"><ele>362.40000000000003</ele><time>2026-03-29T10:29:21.997Z</time></trkpt><trkpt lat="39.3694707702755" lon="16.899956391735792"><ele>365.6</ele><time>2026-03-29T10:29:22.997Z</time></trkpt><trkpt lat="39.369381277343315" lon="16.9000273600646"><ele>368.8</ele><time>2026-03-29T10:29:23.997Z</time></trkpt><trkpt lat="39.369299030374656" lon="16.900084647215337"><ele>372.0</ele><time>2026-03-29T10:29:24.997Z</time></trkpt><trkpt lat="39.36922293771432" lon="16.900134687469134"><ele>372.00000000000006</ele><time>2026-03-29T10:29:25.997Z</time></trkpt><trkpt lat="39.36915807815691" lon="16.900203704828986"><ele>372.0</ele><time>2026-03-29T10:29:26.997Z</time></trkpt><trkpt lat="39.36908692785924" lon="16.90020993422105"><ele>372.0</ele><time>2026-03-29T10:29:27.997Z</time></trkpt><trkpt lat="39.36902389651643" lon="16.90017126919752"><ele>372.0</ele><time>2026-03-29T10:29:28.997Z</time></trkpt><trkpt lat="39.3689685868558" lon="16.90009899936993"><ele>372.0</ele><time>2026-03-29T10:29:29.997Z</time></trkpt><trkpt lat="39.36891459220593" lon="16.90002894806025"><ele>372.00000000000006</ele><time>2026-03-29T10:29:30.997Z</time></trkpt><trkpt lat="39.36885742649673" lon="16.899984437159386"><ele>372.0</ele><time>2026-03-29T10:29:31.997Z</time></trkpt><trkpt lat="39.36879585757285" lon="16.899957856110593"><ele>375.5</ele><time>2026-03-29T10:29:32.997Z</time></trkpt><trkpt lat="39.36872588208777" lon="16.899962559723686"><ele>379.0</ele><time>2026-03-29T10:29:33.997Z</time></trkpt><trkpt lat="39.368656200272355" lon="16.89994958161077"><ele>382.5</ele><time>2026-03-29T10:29:34.997Z</time></trkpt><trkpt lat="39.36859159170743" lon="16.89996511439634"><ele>386.0</ele><time>2026-03-29T10:29:35.997Z</time></trkpt><trkpt lat="39.36852924931818" lon="16.89998987363545"><ele>389.5</ele><time>2026-03-29T10:29:36.997Z</time></trkpt><trkpt lat="39.368417072415035" lon="16.90005787827064"><ele>393.0</ele><time>2026-03-29T10:29:38.997Z</time></trkpt><trkpt lat="39.368330298528534" lon="16.90012835957861"><ele>393.0</ele><time>2026-03-29T10:29:40.997Z</time></trkpt><trkpt lat="39.368264314506995" lon="16.90018975289968"><ele>393.0</ele><time>2026-03-29T10:29:43.997Z</time></trkpt><trkpt lat="39.36822277619109" lon="16.900251886745256"><ele>393.0</ele><time>2026-03-29T10:30:01.997Z</time></trkpt><trkpt lat="39.36815221325376" lon="16.900309932805495"><ele>393.0</ele><time>2026-03-29T10:30:06.997Z</time></trkpt><trkpt lat="39.36807654643482" lon="16.900364458715433"><ele>393.0</ele><time>2026-03-29T10:30:08.997Z</time></trkpt><trkpt lat="39.36802196920378" lon="16.900415239218496"><ele>393.0</ele><time>2026-03-29T10:30:10.997Z</time></trkpt><trkpt lat="39.36799800741596" lon="16.90051890833"><ele>393.8333333333333</ele><time>2026-03-29T10:30:12.997Z</time></trkpt><trkpt lat="39.367956546107344" lon="16.90060801644164"><ele>394.66666666666663</ele><time>2026-03-29T10:30:14.997Z</time></trkpt><trkpt lat="39.36792014946247" lon="16.90069365804974"><ele>395.5</ele><time>2026-03-29T10:30:16.997Z</time></trkpt><trkpt lat="39.36789422761527" lon="16.900782262197612"><ele>396.3333333333333</ele><time>2026-03-29T10:30:18.997Z</time></trkpt><trkpt lat="39.36785363615944" lon="16.9008719630021"><ele>397.16666666666663</ele><time>2026-03-29T10:30:20.997Z</time></trkpt><trkpt lat="39.3677995105465" lon="16.900970803770623"><ele>398.0</ele><time>2026-03-29T10:30:22.997Z</time></trkpt><trkpt lat="39.36772512526345" lon="16.901065047327698"><ele>398.0</ele><time>2026-03-29T10:30:24.997Z</time></trkpt><trkpt lat="39.367639265443785" lon="16.901127831932616"><ele>398.0</ele><time>2026-03-29T10:30:26.997Z</time></trkpt><trkpt lat="39.367543146692185" lon="16.901160456372878"><ele>398.0</ele><time>2026-03-29T10:30:28.997Z</time></trkpt><trkpt lat="39.36745183559011" lon="16.901147662404238"><ele>398.0</ele><time>2026-03-29T10:30:30.997Z</time></trkpt><trkpt lat="39.36733167996177" lon="16.90111272055696"><ele>398.0</ele><time>2026-03-29T10:30:32.997Z</time></trkpt><trkpt lat="39.3672673035654" lon="16.901105933307992"><ele>397.99999999999994</ele><time>2026-03-29T10:30:33.997Z</time></trkpt><trkpt lat="39.36720306230107" lon="16.901110483754884"><ele>398.0</ele><time>2026-03-29T10:30:34.997Z</time></trkpt><trkpt lat="39.36709514666468" lon="16.90113844489554"><ele>398.0</ele><time>2026-03-29T10:30:36.997Z</time></trkpt><trkpt lat="39.366980978132396" lon="16.9011850145274"><ele>398.0</ele><time>2026-03-29T10:30:38.997Z</time></trkpt><trkpt lat="39.366914948003696" lon="16.90120059385672"><ele>397.99999999999994</ele><time>2026-03-29T10:30:39.997Z</time></trkpt><trkpt lat="39.366847590292366" lon="16.90120300281782"><ele>398.0</ele><time>2026-03-29T10:30:40.997Z</time></trkpt><trkpt lat="39.366784461085935" lon="16.901182781153494"><ele>401.0</ele><time>2026-03-29T10:30:41.997Z</time></trkpt><trkpt lat="39.36666944098909" lon="16.901182195186134"><ele>404.0</ele><time>2026-03-29T10:30:43.997Z</time></trkpt><trkpt lat="39.36659068930171" lon="16.901110039614213"><ele>407.0</ele><time>2026-03-29T10:30:45.997Z</time></trkpt><trkpt lat="39.3665448873595" lon="16.90100423780825"><ele>410.0</ele><time>2026-03-29T10:30:47.997Z</time></trkpt><trkpt lat="39.36648594849156" lon="16.900908323181145"><ele>413.0</ele><time>2026-03-29T10:30:49.997Z</time></trkpt><trkpt lat="39.366427356137955" lon="16.900781843815555"><ele>417.7142857142857</ele><time>2026-03-29T10:30:51.997Z</time></trkpt><trkpt lat="39.36639441341152" lon="16.900706274990625"><ele>422.42857142857144</ele><time>2026-03-29T10:30:52.997Z</time></trkpt><trkpt lat="39.366366318941814" lon="16.90063203717521"><ele>427.1428571428571</ele><time>2026-03-29T10:30:53.997Z</time></trkpt><trkpt lat="39.366356884393284" lon="16.90055036145642"><ele>431.8571428571429</ele><time>2026-03-29T10:30:54.997Z</time></trkpt><trkpt lat="39.3663841372543" lon="16.90047233664725"><ele>436.57142857142856</ele><time>2026-03-29T10:30:55.997Z</time></trkpt><trkpt lat="39.36641117951029" lon="16.900396541223103"><ele>441.2857142857143</ele><time>2026-03-29T10:30:56.997Z</time></trkpt><trkpt lat="39.366410271982694" lon="16.90025774643835"><ele>446.0</ele><time>2026-03-29T10:30:58.997Z</time></trkpt><trkpt lat="39.36638564659842" lon="16.90013370567653"><ele>448.3333333333333</ele><time>2026-03-29T10:31:00.997Z</time></trkpt><trkpt lat="39.36635511206238" lon="16.900039152560886"><ele>450.66666666666663</ele><time>2026-03-29T10:31:02.996Z</time></trkpt><trkpt lat="39.36629800565467" lon="16.89996205178851"><ele>453.0</ele><time>2026-03-29T10:31:04.996Z</time></trkpt><trkpt lat="39.36620848316879" lon="16.899887734918103"><ele>455.33333333333337</ele><time>2026-03-29T10:31:06.996Z</time></trkpt><trkpt lat="39.36614229113012" lon="16.89983278591256"><ele>457.6666666666667</ele><time>2026-03-29T10:31:08.996Z</time></trkpt><trkpt lat="39.366083163857795" lon="16.899777867020756"><ele>460.0</ele><time>2026-03-29T10:31:10.996Z</time></trkpt><trkpt lat="39.36601787940231" lon="16.8997220107991"><ele>460.0</ele><time>2026-03-29T10:31:12.996Z</time></trkpt><trkpt lat="39.36590857818735" lon="16.899667959408855"><ele>460.0</ele><time>2026-03-29T10:31:14.996Z</time></trkpt><trkpt lat="39.365784664653404" lon="16.899635331660313"><ele>460.0</ele><time>2026-03-29T10:31:16.996Z</time></trkpt><trkpt lat="39.3656638669265" lon="16.899669514592603"><ele>460.0</ele><time>2026-03-29T10:31:18.999Z</time></trkpt><trkpt lat="39.36555240401162" lon="16.89966697375532"><ele>461.2</ele><time>2026-03-29T10:31:20.999Z</time></trkpt><trkpt lat="39.36541271596757" lon="16.89969058135012"><ele>462.4</ele><time>2026-03-29T10:31:22.999Z</time></trkpt><trkpt lat="39.36533756852531" lon="16.8996774567961"><ele>463.6</ele><time>2026-03-29T10:31:23.999Z</time></trkpt><trkpt lat="39.36526074693836" lon="16.899660601780475"><ele>464.8</ele><time>2026-03-29T10:31:25Z</time></trkpt><trkpt lat="39.36519075401467" lon="16.89958465334899"><ele>466.0</ele><time>2026-03-29T10:31:26Z</time></trkpt><trkpt lat="39.3650981415256" lon="16.899578005377194"><ele>466.00000000000006</ele><time>2026-03-29T10:31:27Z</time></trkpt><trkpt lat="39.365018512992044" lon="16.89959433708874"><ele>466.0</ele><time>2026-03-29T10:31:28Z</time></trkpt><trkpt lat="39.364946880502664" lon="16.899614589246088"><ele>466.0</ele><time>2026-03-29T10:31:29Z</time></trkpt><trkpt lat="39.36486923032815" lon="16.899636542715633"><ele>466.0</ele><time>2026-03-29T10:31:30Z</time></trkpt><trkpt lat="39.36478192414455" lon="16.899662166462566"><ele>466.00000000000006</ele><time>2026-03-29T10:31:31Z</time></trkpt><trkpt lat="39.364698202077754" lon="16.899685857155003"><ele>466.0</ele><time>2026-03-29T10:31:32Z</time></trkpt><trkpt lat="39.36462168858075" lon="16.899701812747203"><ele>467.42857142857144</ele><time>2026-03-29T10:31:33Z</time></trkpt><trkpt lat="39.36454935135279" lon="16.89971560512011"><ele>468.85714285714283</ele><time>2026-03-29T10:31:34Z</time></trkpt><trkpt lat="39.3644776589404" lon="16.89970797186232"><ele>470.2857142857143</ele><time>2026-03-29T10:31:35Z</time></trkpt><trkpt lat="39.36440790757703" lon="16.89970089592774"><ele>471.7142857142857</ele><time>2026-03-29T10:31:36Z</time></trkpt><trkpt lat="39.36433846511782" lon="16.899699102545444"><ele>473.1428571428571</ele><time>2026-03-29T10:31:37Z</time></trkpt><trkpt lat="39.36426574037525" lon="16.89969401070314"><ele>474.57142857142856</ele><time>2026-03-29T10:31:38Z</time></trkpt><trkpt lat="39.36419573351056" lon="16.899663186002815"><ele>476.0</ele><time>2026-03-29T10:31:39Z</time></trkpt><trkpt lat="39.36413009117196" lon="16.89964759228179"><ele>476.0</ele><time>2026-03-29T10:31:40Z</time></trkpt><trkpt lat="39.36402478696964" lon="16.89961112199756"><ele>476.0</ele><time>2026-03-29T10:31:42Z</time></trkpt><trkpt lat="39.36391566118345" lon="16.899575605508716"><ele>476.0</ele><time>2026-03-29T10:31:44Z</time></trkpt><trkpt lat="39.36380251431226" lon="16.899578768158225"><ele>476.0</ele><time>2026-03-29T10:31:46Z</time></trkpt><trkpt lat="39.36369408541112" lon="16.899577751009744"><ele>476.0</ele><time>2026-03-29T10:31:48Z</time></trkpt><trkpt lat="39.36362921283449" lon="16.899563563267325"><ele>476.99999999999994</ele><time>2026-03-29T10:31:49Z</time></trkpt><trkpt lat="39.3635624362192" lon="16.899547588245436"><ele>478.0</ele><time>2026-03-29T10:31:50Z</time></trkpt><trkpt lat="39.363487699089575" lon="16.899567052238606"><ele>479.0</ele><time>2026-03-29T10:31:51Z</time></trkpt><trkpt lat="39.36341098244898" lon="16.89957286378397"><ele>480.0</ele><time>2026-03-29T10:31:52Z</time></trkpt><trkpt lat="39.36333036781181" lon="16.899566081214218"><ele>480.99999999999994</ele><time>2026-03-29T10:31:53Z</time></trkpt><trkpt lat="39.36325093945396" lon="16.899558844458166"><ele>482.0</ele><time>2026-03-29T10:31:54Z</time></trkpt><trkpt lat="39.36317132135779" lon="16.8995341936311"><ele>481.99999999999994</ele><time>2026-03-29T10:31:55Z</time></trkpt><trkpt lat="39.363081006404244" lon="16.899531534166968"><ele>482.0</ele><time>2026-03-29T10:31:56Z</time></trkpt><trkpt lat="39.362985734465894" lon="16.899524680407968"><ele>482.0</ele><time>2026-03-29T10:31:57Z</time></trkpt><trkpt lat="39.36290604170719" lon="16.89950306875184"><ele>482.0</ele><time>2026-03-29T10:31:58Z</time></trkpt><trkpt lat="39.36282164846019" lon="16.899483270609398"><ele>481.99999999999994</ele><time>2026-03-29T10:31:59Z</time></trkpt><trkpt lat="39.36275349289125" lon="16.899414501141248"><ele>482.0</ele><time>2026-03-29T10:32:00Z</time></trkpt><trkpt lat="39.36268857055971" lon="16.899349400363082"><ele>482.16666666666663</ele><time>2026-03-29T10:32:01Z</time></trkpt><trkpt lat="39.362633897868804" lon="16.899290965749724"><ele>482.3333333333333</ele><time>2026-03-29T10:32:02Z</time></trkpt><trkpt lat="39.362574369272394" lon="16.899248584504544"><ele>482.5</ele><time>2026-03-29T10:32:03Z</time></trkpt><trkpt lat="39.362478171726586" lon="16.899159578966135"><ele>482.66666666666663</ele><time>2026-03-29T10:32:05Z</time></trkpt><trkpt lat="39.362393755986545" lon="16.899075784227016"><ele>482.8333333333333</ele><time>2026-03-29T10:32:07Z</time></trkpt><trkpt lat="39.36232290508027" lon="16.89902560242543"><ele>483.0</ele><time>2026-03-29T10:32:08Z</time></trkpt><trkpt lat="39.362376361140775" lon="16.89886469063125"><ele>485.4</ele><time>2026-03-29T10:32:10Z</time></trkpt><trkpt lat="39.362500886040195" lon="16.8988508655952"><ele>487.79999999999995</ele><time>2026-03-29T10:32:12Z</time></trkpt><trkpt lat="39.36249952428026" lon="16.89873665312349"><ele>490.2</ele><time>2026-03-29T10:32:13Z</time></trkpt><trkpt lat="39.362446698260904" lon="16.898656726417936"><ele>492.6</ele><time>2026-03-29T10:32:14Z</time></trkpt><trkpt lat="39.36238164042675" lon="16.898590736441477"><ele>495.0</ele><time>2026-03-29T10:32:15Z</time></trkpt><trkpt lat="39.36231854101569" lon="16.898533386536645"><ele>495.0</ele><time>2026-03-29T10:32:16Z</time></trkpt><trkpt lat="39.36225763022147" lon="16.89847802584515"><ele>495.0</ele><time>2026-03-29T10:32:17Z</time></trkpt><trkpt lat="39.36220119477562" lon="16.89842443583776"><ele>495.0</ele><time>2026-03-29T10:32:18Z</time></trkpt><trkpt lat="39.36214869163923" lon="16.898373792781467"><ele>495.0</ele><time>2026-03-29T10:32:19Z</time></trkpt><trkpt lat="39.36205552483105" lon="16.898279795188973"><ele>495.0</ele><time>2026-03-29T10:32:21Z</time></trkpt><trkpt lat="39.361977060497686" lon="16.89815891861166"><ele>495.8571428571428</ele><time>2026-03-29T10:32:23Z</time></trkpt><trkpt lat="39.361943292941305" lon="16.898079278015494"><ele>496.71428571428567</ele><time>2026-03-29T10:32:24Z</time></trkpt><trkpt lat="39.36191200221557" lon="16.897991044103687"><ele>497.57142857142856</ele><time>2026-03-29T10:32:25Z</time></trkpt><trkpt lat="39.361872065065484" lon="16.897906209375645"><ele>498.4285714285714</ele><time>2026-03-29T10:32:26Z</time></trkpt><trkpt lat="39.36183971379546" lon="16.897818486170827"><ele>499.2857142857142</ele><time>2026-03-29T10:32:27Z</time></trkpt><trkpt lat="39.361824027082626" lon="16.897724216754252"><ele>500.14285714285717</ele><time>2026-03-29T10:32:28Z</time></trkpt><trkpt lat="39.36179663093592" lon="16.897636185399126"><ele>501.0</ele><time>2026-03-29T10:32:29Z</time></trkpt><trkpt lat="39.36177076492412" lon="16.897550755533036"><ele>502.4</ele><time>2026-03-29T10:32:30Z</time></trkpt><trkpt lat="39.36174276653106" lon="16.897461307416577"><ele>503.8</ele><time>2026-03-29T10:32:31Z</time></trkpt><trkpt lat="39.361708248247325" lon="16.897301279855686"><ele>505.19999999999993</ele><time>2026-03-29T10:32:33Z</time></trkpt><trkpt lat="39.36172628188543" lon="16.89722247820066"><ele>506.59999999999997</ele><time>2026-03-29T10:32:34Z</time></trkpt><trkpt lat="39.361751821008944" lon="16.897084411297378"><ele>508.0</ele><time>2026-03-29T10:32:35.999Z</time></trkpt><trkpt lat="39.361755560986275" lon="16.896982545751694"><ele>508.00000000000006</ele><time>2026-03-29T10:32:36.999Z</time></trkpt><trkpt lat="39.3617426573362" lon="16.89690244112935"><ele>508.0</ele><time>2026-03-29T10:32:37.999Z</time></trkpt><trkpt lat="39.36172830786155" lon="16.896813360770434"><ele>508.0</ele><time>2026-03-29T10:32:38.999Z</time></trkpt><trkpt lat="39.36171431926402" lon="16.89672652070817"><ele>508.0</ele><time>2026-03-29T10:32:39.999Z</time></trkpt><trkpt lat="39.361700728518514" lon="16.89664215047977"><ele>508.00000000000006</ele><time>2026-03-29T10:32:40.999Z</time></trkpt><trkpt lat="39.361524661711314" lon="16.89661745198898"><ele>508.0</ele><time>2026-03-29T10:32:41.999Z</time></trkpt><trkpt lat="39.36152366703665" lon="16.896507514705828"><ele>509.2</ele><time>2026-03-29T10:32:43.999Z</time></trkpt><trkpt lat="39.36152237727045" lon="16.89637040273621"><ele>510.4</ele><time>2026-03-29T10:32:45.999Z</time></trkpt><trkpt lat="39.361519111501046" lon="16.89622532245884"><ele>511.59999999999997</ele><time>2026-03-29T10:32:47.999Z</time></trkpt><trkpt lat="39.36154595054378" lon="16.896111290027413"><ele>512.8</ele><time>2026-03-29T10:32:48.999Z</time></trkpt><trkpt lat="39.36151886969731" lon="16.896001628016812"><ele>514.0</ele><time>2026-03-29T10:32:49.999Z</time></trkpt><trkpt lat="39.361475909988094" lon="16.895897501499558"><ele>515.1666666666667</ele><time>2026-03-29T10:32:50.999Z</time></trkpt><trkpt lat="39.36142572149687" lon="16.895812029970624"><ele>516.3333333333334</ele><time>2026-03-29T10:32:51.999Z</time></trkpt><trkpt lat="39.36136465078269" lon="16.8957334700348"><ele>517.5</ele><time>2026-03-29T10:32:52.999Z</time></trkpt><trkpt lat="39.36129375708702" lon="16.89565851265283"><ele>518.6666666666666</ele><time>2026-03-29T10:32:53.999Z</time></trkpt><trkpt lat="39.361213525916035" lon="16.895580752217445"><ele>519.8333333333333</ele><time>2026-03-29T10:32:54.999Z</time></trkpt><trkpt lat="39.3611387013092" lon="16.895519787785748"><ele>521.0</ele><time>2026-03-29T10:32:55.999Z</time></trkpt><trkpt lat="39.36106808952457" lon="16.89545009244081"><ele>521.2</ele><time>2026-03-29T10:32:56.999Z</time></trkpt><trkpt lat="39.360999290151504" lon="16.895364006793972"><ele>521.4000000000001</ele><time>2026-03-29T10:32:57.999Z</time></trkpt><trkpt lat="39.36093280304026" lon="16.895266583164155"><ele>521.6</ele><time>2026-03-29T10:32:58.999Z</time></trkpt><trkpt lat="39.36087269085771" lon="16.895176413458966"><ele>521.8000000000001</ele><time>2026-03-29T10:32:59.999Z</time></trkpt><trkpt lat="39.36082118650648" lon="16.895067454866656"><ele>522.0</ele><time>2026-03-29T10:33:00.999Z</time></trkpt><trkpt lat="39.36078396443839" lon="16.894928067700434"><ele>523.25</ele><time>2026-03-29T10:33:01.999Z</time></trkpt><trkpt lat="39.36076225068394" lon="16.894764410412115"><ele>524.5</ele><time>2026-03-29T10:33:02.999Z</time></trkpt><trkpt lat="39.36075640480973" lon="16.89459335953441"><ele>525.75</ele><time>2026-03-29T10:33:03.999Z</time></trkpt><trkpt lat="39.36073361420175" lon="16.89443789941545"><ele>527.0</ele><time>2026-03-29T10:33:04.999Z</time></trkpt><trkpt lat="39.36073756683193" lon="16.894298476784392"><ele>528.0</ele><time>2026-03-29T10:33:05.999Z</time></trkpt><trkpt lat="39.36073244675715" lon="16.89417753539024"><ele>529.0</ele><time>2026-03-29T10:33:06.999Z</time></trkpt><trkpt lat="39.36072911616544" lon="16.894071455268854"><ele>530.0</ele><time>2026-03-29T10:33:07.999Z</time></trkpt><trkpt lat="39.36072590933785" lon="16.8939721646919"><ele>531.0</ele><time>2026-03-29T10:33:08.999Z</time></trkpt><trkpt lat="39.36073684018126" lon="16.893883691114905"><ele>532.0</ele><time>2026-03-29T10:33:09.999Z</time></trkpt><trkpt lat="39.36075264332388" lon="16.89374476983244"><ele>533.0</ele><time>2026-03-29T10:33:11.999Z</time></trkpt><trkpt lat="39.36075298736269" lon="16.89362212924183"><ele>533.0</ele><time>2026-03-29T10:33:13.999Z</time></trkpt><trkpt lat="39.36077593142188" lon="16.8935175750778"><ele>533.0</ele><time>2026-03-29T10:33:15.999Z</time></trkpt><trkpt lat="39.360781300683314" lon="16.8934231940359"><ele>533.0</ele><time>2026-03-29T10:33:17.999Z</time></trkpt><trkpt lat="39.36077189567389" lon="16.893321343558156"><ele>533.0</ele><time>2026-03-29T10:33:20.999Z</time></trkpt><trkpt lat="39.36077652201763" lon="16.893236479725402"><ele>533.0</ele><time>2026-03-29T10:33:24.999Z</time></trkpt><trkpt lat="39.360796965880475" lon="16.893147830769703"><ele>533.0</ele><time>2026-03-29T10:33:26.999Z</time></trkpt><trkpt lat="39.3607982398459" lon="16.8930357044025"><ele>533.0</ele><time>2026-03-29T10:33:28.999Z</time></trkpt><trkpt lat="39.36080473011017" lon="16.89293371129343"><ele>533.0</ele><time>2026-03-29T10:33:30.999Z</time></trkpt><trkpt lat="39.36084157530679" lon="16.892804662214743"><ele>533.0</ele><time>2026-03-29T10:33:32.999Z</time></trkpt><trkpt lat="39.36086714818056" lon="16.892640559461913"><ele>533.0</ele><time>2026-03-29T10:33:34.999Z</time></trkpt><trkpt lat="39.360880978401894" lon="16.892550673340068"><ele>533.0</ele><time>2026-03-29T10:33:35.999Z</time></trkpt><trkpt lat="39.36089518188936" lon="16.892457014879007"><ele>533.0</ele><time>2026-03-29T10:33:36.999Z</time></trkpt><trkpt lat="39.36090099769494" lon="16.892352531065242"><ele>533.0</ele><time>2026-03-29T10:33:37.999Z</time></trkpt><trkpt lat="39.360923967714726" lon="16.892246361305645"><ele>533.0</ele><time>2026-03-29T10:33:38.999Z</time></trkpt><trkpt lat="39.360935166123866" lon="16.89213251302677"><ele>533.0</ele><time>2026-03-29T10:33:39.999Z</time></trkpt><trkpt lat="39.36093437585201" lon="16.89201285978374"><ele>533.0</ele><time>2026-03-29T10:33:40.999Z</time></trkpt><trkpt lat="39.36094895983298" lon="16.89189222561278"><ele>533.0</ele><time>2026-03-29T10:33:41.999Z</time></trkpt><trkpt lat="39.360979709956666" lon="16.891772970526848"><ele>532.6666666666666</ele><time>2026-03-29T10:33:42.999Z</time></trkpt><trkpt lat="39.36099685985912" lon="16.891656810678892"><ele>532.3333333333333</ele><time>2026-03-29T10:33:43.999Z</time></trkpt><trkpt lat="39.361000900212844" lon="16.891542709478006"><ele>532.0</ele><time>2026-03-29T10:33:44.999Z</time></trkpt><trkpt lat="39.36101960622906" lon="16.89143485712484"><ele>531.6666666666666</ele><time>2026-03-29T10:33:45.999Z</time></trkpt><trkpt lat="39.36104052064849" lon="16.891327342642775"><ele>531.3333333333334</ele><time>2026-03-29T10:33:46.999Z</time></trkpt><trkpt lat="39.36106605890037" lon="16.89122047019171"><ele>531.0</ele><time>2026-03-29T10:33:47.999Z</time></trkpt><trkpt lat="39.3610798754573" lon="16.891113803206576"><ele>531.0</ele><time>2026-03-29T10:33:48.999Z</time></trkpt><trkpt lat="39.36111183325001" lon="16.89101779161772"><ele>531.0</ele><time>2026-03-29T10:33:49.999Z</time></trkpt><trkpt lat="39.36112576745639" lon="16.890924976627776"><ele>531.0</ele><time>2026-03-29T10:33:50.999Z</time></trkpt><trkpt lat="39.36113657814112" lon="16.89084304688945"><ele>531.0</ele><time>2026-03-29T10:33:51.999Z</time></trkpt><trkpt lat="39.36115353685637" lon="16.890700554325438"><ele>531.0</ele><time>2026-03-29T10:33:53.999Z</time></trkpt><trkpt lat="39.36116202246294" lon="16.890600698171525"><ele>531.0</ele><time>2026-03-29T10:33:55.999Z</time></trkpt><trkpt lat="39.36116264473953" lon="16.890499262131105"><ele>531.0</ele><time>2026-03-29T10:33:58.999Z</time></trkpt><trkpt lat="39.36123293159129" lon="16.89039720935824"><ele>531.0</ele><time>2026-03-29T10:41:41Z</time></trkpt><trkpt lat="39.36126041162126" lon="16.890238822763564"><ele>531.0</ele><time>2026-03-29T10:44:04.998Z</time></trkpt><trkpt lat="39.36126745286286" lon="16.890124287475654"><ele>531.0</ele><time>2026-03-29T10:49:16.999Z</time></trkpt><trkpt lat="39.36129704133713" lon="16.890197318929125"><ele>531.0</ele><time>2026-03-29T10:53:10Z</time></trkpt><trkpt lat="39.36130338369798" lon="16.89028364838558"><ele>531.0</ele><time>2026-03-29T10:53:17Z</time></trkpt><trkpt lat="39.36124155938788" lon="16.890228120833715"><ele>531.0</ele><time>2026-03-29T10:53:34Z</time></trkpt><trkpt lat="39.361181645770664" lon="16.890139593293473"><ele>531.0</ele><time>2026-03-29T10:53:37Z</time></trkpt><trkpt lat="39.3611178634139" lon="16.89005122193482"><ele>531.0</ele><time>2026-03-29T10:53:39Z</time></trkpt><trkpt lat="39.36106671228578" lon="16.889995157471485"><ele>531.0</ele><time>2026-03-29T10:53:40Z</time></trkpt><trkpt lat="39.360934230700224" lon="16.890027218101988"><ele>533.5</ele><time>2026-03-29T10:53:41Z</time></trkpt><trkpt lat="39.36087190219127" lon="16.889953498923393"><ele>536.0</ele><time>2026-03-29T10:53:42Z</time></trkpt><trkpt lat="39.36079241781347" lon="16.889871320363905"><ele>538.5</ele><time>2026-03-29T10:53:43Z</time></trkpt><trkpt lat="39.360873414694375" lon="16.889649320217373"><ele>541.0</ele><time>2026-03-29T10:53:44Z</time></trkpt><trkpt lat="39.360844535850084" lon="16.889549299225"><ele>541.0</ele><time>2026-03-29T10:53:45Z</time></trkpt><trkpt lat="39.36083909457981" lon="16.889425054945512"><ele>541.0</ele><time>2026-03-29T10:53:46Z</time></trkpt><trkpt lat="39.36084404215304" lon="16.889295821921937"><ele>541.0</ele><time>2026-03-29T10:53:47Z</time></trkpt><trkpt lat="39.36082969512759" lon="16.889184943289838"><ele>541.0</ele><time>2026-03-29T10:53:48Z</time></trkpt><trkpt lat="39.36080548256437" lon="16.88906621226796"><ele>541.0</ele><time>2026-03-29T10:53:50Z</time></trkpt><trkpt lat="39.36068233501164" lon="16.888999738895887"><ele>541.1666666666667</ele><time>2026-03-29T10:53:51Z</time></trkpt><trkpt lat="39.360688054845824" lon="16.888858354754962"><ele>541.3333333333334</ele><time>2026-03-29T10:53:53Z</time></trkpt><trkpt lat="39.36066433843318" lon="16.888752703179634"><ele>541.5</ele><time>2026-03-29T10:53:54Z</time></trkpt><trkpt lat="39.36068121979483" lon="16.888664649183205"><ele>541.6666666666666</ele><time>2026-03-29T10:53:55Z</time></trkpt><trkpt lat="39.36068929593259" lon="16.88857490024202"><ele>541.8333333333333</ele><time>2026-03-29T10:53:56Z</time></trkpt><trkpt lat="39.36070394858008" lon="16.888491825630805"><ele>542.0</ele><time>2026-03-29T10:53:57Z</time></trkpt><trkpt lat="39.36068932059083" lon="16.88834479217806"><ele>542.8333333333333</ele><time>2026-03-29T10:53:59Z</time></trkpt><trkpt lat="39.360665805395094" lon="16.8882467551339"><ele>543.6666666666666</ele><time>2026-03-29T10:54:00Z</time></trkpt><trkpt lat="39.3606132941161" lon="16.888151171093153"><ele>544.5</ele><time>2026-03-29T10:54:01Z</time></trkpt><trkpt lat="39.36055154382617" lon="16.888076203512746"><ele>545.3333333333334</ele><time>2026-03-29T10:54:02Z</time></trkpt><trkpt lat="39.36048221274565" lon="16.888015191837784"><ele>546.1666666666667</ele><time>2026-03-29T10:54:03Z</time></trkpt><trkpt lat="39.360409200103035" lon="16.887961709586683"><ele>547.0</ele><time>2026-03-29T10:54:04Z</time></trkpt><trkpt lat="39.360346118325225" lon="16.887949941516933"><ele>547.0</ele><time>2026-03-29T10:54:05Z</time></trkpt><trkpt lat="39.36022966497906" lon="16.887962985541897"><ele>547.0</ele><time>2026-03-29T10:54:07Z</time></trkpt><trkpt lat="39.36016169110576" lon="16.887979111777593"><ele>547.0</ele><time>2026-03-29T10:54:08Z</time></trkpt><trkpt lat="39.36009163416451" lon="16.88800797802905"><ele>547.0</ele><time>2026-03-29T10:54:09Z</time></trkpt><trkpt lat="39.359992159155546" lon="16.888050185066003"><ele>547.0</ele><time>2026-03-29T10:54:10Z</time></trkpt><trkpt lat="39.35989042399122" lon="16.88809591170224"><ele>547.0</ele><time>2026-03-29T10:54:11Z</time></trkpt><trkpt lat="39.35978569011741" lon="16.88813629922091"><ele>547.0</ele><time>2026-03-29T10:54:12Z</time></trkpt><trkpt lat="39.35968431566425" lon="16.888168929326238"><ele>547.0</ele><time>2026-03-29T10:54:13Z</time></trkpt><trkpt lat="39.359544010600594" lon="16.888217073899586"><ele>547.0</ele><time>2026-03-29T10:54:14Z</time></trkpt><trkpt lat="39.35948599880851" lon="16.888251102441387"><ele>547.0</ele><time>2026-03-29T10:54:15Z</time></trkpt><trkpt lat="39.35941520896792" lon="16.888183848764356"><ele>547.4</ele><time>2026-03-29T10:54:16Z</time></trkpt><trkpt lat="39.35936472353613" lon="16.888090245816528"><ele>547.8000000000001</ele><time>2026-03-29T10:54:17Z</time></trkpt><trkpt lat="39.35939884735718" lon="16.887952660927464"><ele>548.2</ele><time>2026-03-29T10:54:18Z</time></trkpt><trkpt lat="39.35936735962678" lon="16.88786958158876"><ele>548.6</ele><time>2026-03-29T10:54:19Z</time></trkpt><trkpt lat="39.35932737259061" lon="16.887734658849574"><ele>549.0</ele><time>2026-03-29T10:54:21Z</time></trkpt><trkpt lat="39.35930348112903" lon="16.88765225644197"><ele>549.0</ele><time>2026-03-29T10:54:23Z</time></trkpt><trkpt lat="39.35933146111633" lon="16.887398227832005"><ele>549.0</ele><time>2026-03-29T10:54:25Z</time></trkpt><trkpt lat="39.35923546781734" lon="16.887320706590486"><ele>549.0</ele><time>2026-03-29T10:54:28Z</time></trkpt><trkpt lat="39.3593186430902" lon="16.887420220180836"><ele>549.0</ele><time>2026-03-29T10:54:30Z</time></trkpt><trkpt lat="39.35916133948865" lon="16.887329175558897"><ele>549.0</ele><time>2026-03-29T10:58:43Z</time></trkpt><trkpt lat="39.359251052161206" lon="16.88734544673246"><ele>549.0</ele><time>2026-03-29T10:58:46Z</time></trkpt><trkpt lat="39.35931731627205" lon="16.88737649458043"><ele>549.0</ele><time>2026-03-29T10:58:48Z</time></trkpt><trkpt lat="39.35928313129682" lon="16.88745462762629"><ele>549.0</ele><time>2026-03-29T10:58:50Z</time></trkpt><trkpt lat="39.359287850247405" lon="16.887569199359305"><ele>549.0</ele><time>2026-03-29T10:58:53Z</time></trkpt><trkpt lat="39.35929656190388" lon="16.887683348156088"><ele>549.0</ele><time>2026-03-29T10:58:55Z</time></trkpt><trkpt lat="39.359312613555986" lon="16.887804206384246"><ele>549.0</ele><time>2026-03-29T10:58:57Z</time></trkpt><trkpt lat="39.35934503265869" lon="16.88791172445721"><ele>549.0</ele><time>2026-03-29T10:58:59Z</time></trkpt><trkpt lat="39.3593963364433" lon="16.88802785660809"><ele>549.0</ele><time>2026-03-29T10:59:01Z</time></trkpt><trkpt lat="39.35946826635521" lon="16.888147314742675"><ele>549.0</ele><time>2026-03-29T10:59:03Z</time></trkpt><trkpt lat="39.35953640369719" lon="16.888172545896737"><ele>549.0</ele><time>2026-03-29T10:59:04Z</time></trkpt><trkpt lat="39.359646871650014" lon="16.8882073214591"><ele>548.6</ele><time>2026-03-29T10:59:06Z</time></trkpt><trkpt lat="39.35977572049808" lon="16.88820690220911"><ele>548.2</ele><time>2026-03-29T10:59:08Z</time></trkpt><trkpt lat="39.35985287813591" lon="16.888189966787774"><ele>547.8000000000001</ele><time>2026-03-29T10:59:09Z</time></trkpt><trkpt lat="39.35993581995854" lon="16.888166660595804"><ele>547.4</ele><time>2026-03-29T10:59:10Z</time></trkpt><trkpt lat="39.36001393763605" lon="16.88813496199514"><ele>547.0</ele><time>2026-03-29T10:59:11Z</time></trkpt><trkpt lat="39.360090576346" lon="16.888101850969"><ele>547.0</ele><time>2026-03-29T10:59:12Z</time></trkpt><trkpt lat="39.36015724616829" lon="16.888072692123085"><ele>547.0</ele><time>2026-03-29T10:59:13Z</time></trkpt><trkpt lat="39.36026685858095" lon="16.88803410068677"><ele>547.0</ele><time>2026-03-29T10:59:15Z</time></trkpt><trkpt lat="39.36037251398047" lon="16.888043087478884"><ele>547.0</ele><time>2026-03-29T10:59:17Z</time></trkpt><trkpt lat="39.36048995777187" lon="16.88811479160159"><ele>547.0</ele><time>2026-03-29T10:59:19Z</time></trkpt><trkpt lat="39.3605430713982" lon="16.888178528006517"><ele>546.1666666666667</ele><time>2026-03-29T10:59:20Z</time></trkpt><trkpt lat="39.36060031591365" lon="16.888236889446567"><ele>545.3333333333334</ele><time>2026-03-29T10:59:21Z</time></trkpt><trkpt lat="39.36061358399608" lon="16.888317394721252"><ele>544.5</ele><time>2026-03-29T10:59:22Z</time></trkpt><trkpt lat="39.36065048615847" lon="16.888459078492073"><ele>543.6666666666666</ele><time>2026-03-29T10:59:24Z</time></trkpt><trkpt lat="39.36065605390775" lon="16.88862243715303"><ele>542.8333333333333</ele><time>2026-03-29T10:59:26Z</time></trkpt><trkpt lat="39.36065239860936" lon="16.888713224868322"><ele>542.0</ele><time>2026-03-29T10:59:27Z</time></trkpt><trkpt lat="39.3606509103116" lon="16.88881026775022"><ele>542.0</ele><time>2026-03-29T10:59:28Z</time></trkpt><trkpt lat="39.36064822340539" lon="16.88889880051044"><ele>542.0</ele><time>2026-03-29T10:59:28.999Z</time></trkpt><trkpt lat="39.360643784572495" lon="16.88904408733884"><ele>542.0</ele><time>2026-03-29T10:59:30.999Z</time></trkpt><trkpt lat="39.36064003894976" lon="16.889160731407614"><ele>542.0</ele><time>2026-03-29T10:59:32.999Z</time></trkpt><trkpt lat="39.36063732693683" lon="16.8892938540566"><ele>542.0</ele><time>2026-03-29T10:59:34.999Z</time></trkpt><trkpt lat="39.36061801907909" lon="16.889374148942697"><ele>542.0</ele><time>2026-03-29T10:59:35.999Z</time></trkpt><trkpt lat="39.3606152192566" lon="16.889458342434377"><ele>541.8000000000001</ele><time>2026-03-29T10:59:36.999Z</time></trkpt><trkpt lat="39.36061713566933" lon="16.889618839939452"><ele>541.6</ele><time>2026-03-29T10:59:38.999Z</time></trkpt><trkpt lat="39.36066608533885" lon="16.88976718587066"><ele>541.4000000000001</ele><time>2026-03-29T10:59:40.999Z</time></trkpt><trkpt lat="39.36072916157288" lon="16.889873965864513"><ele>541.2</ele><time>2026-03-29T10:59:43.001Z</time></trkpt><trkpt lat="39.3607913625469" lon="16.88994674742365"><ele>541.0</ele><time>2026-03-29T10:59:45.001Z</time></trkpt><trkpt lat="39.36085587750704" lon="16.89000970488569"><ele>541.0</ele><time>2026-03-29T10:59:48.001Z</time></trkpt><trkpt lat="39.360907637691106" lon="16.89008269325027"><ele>541.0</ele><time>2026-03-29T10:59:51Z</time></trkpt><trkpt lat="39.36096281490155" lon="16.890149806230234"><ele>541.0</ele><time>2026-03-29T10:59:54Z</time></trkpt><trkpt lat="39.361021473623595" lon="16.890209845749133"><ele>541.0</ele><time>2026-03-29T10:59:57Z</time></trkpt><trkpt lat="39.36106175471302" lon="16.89028178311977"><ele>541.0</ele><time>2026-03-29T11:00:05Z</time></trkpt><trkpt lat="39.36110771347987" lon="16.890351848004443"><ele>541.0</ele><time>2026-03-29T11:00:09Z</time></trkpt><trkpt lat="39.361222793000564" lon="16.89034806491248"><ele>540.1666666666667</ele><time>2026-03-29T11:05:55.999Z</time></trkpt><trkpt lat="39.36135582050265" lon="16.89035850338755"><ele>539.3333333333334</ele><time>2026-03-29T11:08:32Z</time></trkpt><trkpt lat="39.36141680419702" lon="16.890421585108857"><ele>538.5</ele><time>2026-03-29T11:11:46.999Z</time></trkpt><trkpt lat="39.36139812239662" lon="16.890320853293453"><ele>537.6666666666666</ele><time>2026-03-29T11:12:57.999Z</time></trkpt><trkpt lat="39.3613867588129" lon="16.8902262925248"><ele>536.8333333333333</ele><time>2026-03-29T11:13:00.999Z</time></trkpt><trkpt lat="39.36139492633217" lon="16.890136968353808"><ele>536.0</ele><time>2026-03-29T11:13:02.999Z</time></trkpt><trkpt lat="39.361438863658755" lon="16.890022727667205"><ele>536.0</ele><time>2026-03-29T11:13:04.999Z</time></trkpt><trkpt lat="39.36149744106591" lon="16.88997088932881"><ele>536.0</ele><time>2026-03-29T11:13:05.999Z</time></trkpt><trkpt lat="39.361592236762114" lon="16.88996172242373"><ele>536.0</ele><time>2026-03-29T11:13:07.999Z</time></trkpt><trkpt lat="39.36167467986033" lon="16.889947982930437"><ele>536.0</ele><time>2026-03-29T11:13:19.999Z</time></trkpt><trkpt lat="39.36177435353906" lon="16.889908010723275"><ele>536.0</ele><time>2026-03-29T11:13:21.999Z</time></trkpt><trkpt lat="39.36188690028027" lon="16.889873723462912"><ele>536.0</ele><time>2026-03-29T11:13:23.999Z</time></trkpt><trkpt lat="39.36194704762192" lon="16.889848671778672"><ele>536.0</ele><time>2026-03-29T11:13:24.999Z</time></trkpt><trkpt lat="39.36200861034003" lon="16.889830761070108"><ele>536.0</ele><time>2026-03-29T11:13:25.999Z</time></trkpt><trkpt lat="39.36211488788749" lon="16.889789824446723"><ele>536.0</ele><time>2026-03-29T11:13:27.999Z</time></trkpt><trkpt lat="39.36218426774472" lon="16.889775750025304"><ele>536.0</ele><time>2026-03-29T11:13:29.999Z</time></trkpt><trkpt lat="39.362253276115666" lon="16.889747725513804"><ele>536.0</ele><time>2026-03-29T11:13:31.999Z</time></trkpt><trkpt lat="39.362314119438594" lon="16.88972117423435"><ele>536.0</ele><time>2026-03-29T11:13:33.999Z</time></trkpt><trkpt lat="39.36239305717064" lon="16.889701913916564"><ele>535.4</ele><time>2026-03-29T11:13:35.999Z</time></trkpt><trkpt lat="39.362482281584846" lon="16.889681954888598"><ele>534.8</ele><time>2026-03-29T11:13:37.999Z</time></trkpt><trkpt lat="39.36259361404554" lon="16.889639005076603"><ele>534.1999999999999</ele><time>2026-03-29T11:13:39.999Z</time></trkpt><trkpt lat="39.362685661267875" lon="16.88958943147068"><ele>533.6</ele><time>2026-03-29T11:13:41.999Z</time></trkpt><trkpt lat="39.36275981181391" lon="16.88954948734354"><ele>533.0</ele><time>2026-03-29T11:13:43.999Z</time></trkpt><trkpt lat="39.36283471299372" lon="16.889513562795212"><ele>533.0</ele><time>2026-03-29T11:13:45.999Z</time></trkpt><trkpt lat="39.36292485927565" lon="16.889477599882163"><ele>533.0</ele><time>2026-03-29T11:13:47.999Z</time></trkpt><trkpt lat="39.36302402564868" lon="16.889449799104813"><ele>533.0</ele><time>2026-03-29T11:13:49.999Z</time></trkpt><trkpt lat="39.36310980755319" lon="16.88943182267142"><ele>533.0</ele><time>2026-03-29T11:13:51.999Z</time></trkpt><trkpt lat="39.363175320010455" lon="16.889434163975302"><ele>533.0</ele><time>2026-03-29T11:13:56.001Z</time></trkpt><trkpt lat="39.363240488091336" lon="16.8894378807605"><ele>533.0</ele><time>2026-03-29T11:14:01.001Z</time></trkpt><trkpt lat="39.36331309286213" lon="16.889466312443698"><ele>534.0</ele><time>2026-03-29T11:14:03.001Z</time></trkpt><trkpt lat="39.363402553298165" lon="16.88946602450628"><ele>535.0</ele><time>2026-03-29T11:14:05.001Z</time></trkpt><trkpt lat="39.36348932760664" lon="16.889416814098436"><ele>536.0</ele><time>2026-03-29T11:14:07.001Z</time></trkpt><trkpt lat="39.363588215486125" lon="16.8893755678561"><ele>537.0</ele><time>2026-03-29T11:14:09.001Z</time></trkpt><trkpt lat="39.363647651967604" lon="16.88934856520838"><ele>538.0</ele><time>2026-03-29T11:14:10.001Z</time></trkpt><trkpt lat="39.36375361035727" lon="16.889261833639086"><ele>535.8333333333334</ele><time>2026-03-29T11:14:12.001Z</time></trkpt><trkpt lat="39.3638549403171" lon="16.889190344916457"><ele>533.6666666666667</ele><time>2026-03-29T11:14:14.001Z</time></trkpt><trkpt lat="39.36393977153065" lon="16.889134119358967"><ele>531.5</ele><time>2026-03-29T11:14:16.001Z</time></trkpt><trkpt lat="39.36400277409049" lon="16.8890974743615"><ele>529.3333333333334</ele><time>2026-03-29T11:14:18.001Z</time></trkpt><trkpt lat="39.36407157512962" lon="16.889071245393403"><ele>527.1666666666666</ele><time>2026-03-29T11:14:21.001Z</time></trkpt><trkpt lat="39.36413441947125" lon="16.88904321556013"><ele>525.0</ele><time>2026-03-29T11:14:23.001Z</time></trkpt><trkpt lat="39.36420793740598" lon="16.889021495565494"><ele>525.0</ele><time>2026-03-29T11:14:25.001Z</time></trkpt><trkpt lat="39.3643094210452" lon="16.888997463533055"><ele>525.0</ele><time>2026-03-29T11:14:27.001Z</time></trkpt><trkpt lat="39.3644234764641" lon="16.888954706079492"><ele>525.0</ele><time>2026-03-29T11:14:29.001Z</time></trkpt><trkpt lat="39.3644975302719" lon="16.888948226543622"><ele>525.0</ele><time>2026-03-29T11:14:32.001Z</time></trkpt><trkpt lat="39.36458352129802" lon="16.888924103790725"><ele>525.0</ele><time>2026-03-29T11:14:35.001Z</time></trkpt><trkpt lat="39.36467992047575" lon="16.88890912484961"><ele>524.6</ele><time>2026-03-29T11:14:37Z</time></trkpt><trkpt lat="39.36479594374306" lon="16.88889172362248"><ele>524.2</ele><time>2026-03-29T11:14:39Z</time></trkpt><trkpt lat="39.364888386575174" lon="16.888871156673417"><ele>523.8</ele><time>2026-03-29T11:14:41Z</time></trkpt><trkpt lat="39.3649755885057" lon="16.888842976724817"><ele>523.4</ele><time>2026-03-29T11:14:43Z</time></trkpt><trkpt lat="39.36506864001525" lon="16.888816212455904"><ele>523.0</ele><time>2026-03-29T11:14:46Z</time></trkpt><trkpt lat="39.36515284327825" lon="16.888804229326183"><ele>523.0</ele><time>2026-03-29T11:14:48Z</time></trkpt><trkpt lat="39.365258195976836" lon="16.888797378118905"><ele>523.0</ele><time>2026-03-29T11:14:50Z</time></trkpt><trkpt lat="39.36536521012311" lon="16.88879086057484"><ele>523.0</ele><time>2026-03-29T11:14:52Z</time></trkpt><trkpt lat="39.36545155433841" lon="16.888770278115516"><ele>523.0</ele><time>2026-03-29T11:14:54Z</time></trkpt><trkpt lat="39.36553174068775" lon="16.88875802873991"><ele>523.0</ele><time>2026-03-29T11:14:56Z</time></trkpt><trkpt lat="39.365624153457844" lon="16.88872810380365"><ele>520.6</ele><time>2026-03-29T11:14:58Z</time></trkpt><trkpt lat="39.36571683575308" lon="16.88869444922063"><ele>518.1999999999999</ele><time>2026-03-29T11:15:00Z</time></trkpt><trkpt lat="39.36580305161638" lon="16.88866139480158"><ele>515.8</ele><time>2026-03-29T11:15:02Z</time></trkpt><trkpt lat="39.365897781703026" lon="16.88861781230127"><ele>513.4</ele><time>2026-03-29T11:15:04Z</time></trkpt><trkpt lat="39.3659994700499" lon="16.8885470102102"><ele>511.0</ele><time>2026-03-29T11:15:06Z</time></trkpt><trkpt lat="39.36608561598982" lon="16.888486901533838"><ele>510.1666666666667</ele><time>2026-03-29T11:15:08Z</time></trkpt><trkpt lat="39.366166172459096" lon="16.888394455088285"><ele>509.33333333333337</ele><time>2026-03-29T11:15:10Z</time></trkpt><trkpt lat="39.36623132322042" lon="16.888343516166916"><ele>508.5</ele><time>2026-03-29T11:15:12Z</time></trkpt><trkpt lat="39.36631113516678" lon="16.888295128486117"><ele>507.66666666666663</ele><time>2026-03-29T11:15:16Z</time></trkpt><trkpt lat="39.36638257237534" lon="16.88826838721635"><ele>506.8333333333333</ele><time>2026-03-29T11:15:18Z</time></trkpt><trkpt lat="39.36647131859112" lon="16.888249507131096"><ele>506.0</ele><time>2026-03-29T11:15:20Z</time></trkpt><trkpt lat="39.36653782096397" lon="16.888224110601417"><ele>505.99999999999994</ele><time>2026-03-29T11:15:21Z</time></trkpt><trkpt lat="39.36661811001423" lon="16.888199632592006"><ele>506.0</ele><time>2026-03-29T11:15:22Z</time></trkpt><trkpt lat="39.366698828263594" lon="16.88816438335016"><ele>506.0</ele><time>2026-03-29T11:15:23Z</time></trkpt><trkpt lat="39.366773503565" lon="16.888141617301397"><ele>506.0</ele><time>2026-03-29T11:15:24Z</time></trkpt><trkpt lat="39.366850598809734" lon="16.88810824631879"><ele>505.99999999999994</ele><time>2026-03-29T11:15:25Z</time></trkpt><trkpt lat="39.366927226917895" lon="16.888078247828275"><ele>506.0</ele><time>2026-03-29T11:15:26Z</time></trkpt><trkpt lat="39.36699970012503" lon="16.888053140497902"><ele>506.0</ele><time>2026-03-29T11:15:27Z</time></trkpt><trkpt lat="39.3670677834393" lon="16.888024129544483"><ele>506.0</ele><time>2026-03-29T11:15:28Z</time></trkpt><trkpt lat="39.36714108224817" lon="16.887989371066695"><ele>506.0</ele><time>2026-03-29T11:15:29Z</time></trkpt><trkpt lat="39.367222585192316" lon="16.88793861127668"><ele>506.0</ele><time>2026-03-29T11:15:30Z</time></trkpt><trkpt lat="39.367319009451194" lon="16.887888691079876"><ele>506.0</ele><time>2026-03-29T11:15:31Z</time></trkpt><trkpt lat="39.36741817962216" lon="16.887834408532974"><ele>508.8</ele><time>2026-03-29T11:15:32Z</time></trkpt><trkpt lat="39.367515084563465" lon="16.88778530341448"><ele>511.6</ele><time>2026-03-29T11:15:33Z</time></trkpt><trkpt lat="39.36761485530779" lon="16.88775390414614"><ele>514.4</ele><time>2026-03-29T11:15:34Z</time></trkpt><trkpt lat="39.36771395576553" lon="16.88771718685141"><ele>517.2</ele><time>2026-03-29T11:15:35Z</time></trkpt><trkpt lat="39.367828750756395" lon="16.88767708035413"><ele>520.0</ele><time>2026-03-29T11:15:36Z</time></trkpt><trkpt lat="39.36794628585167" lon="16.88763817526633"><ele>519.5</ele><time>2026-03-29T11:15:37Z</time></trkpt><trkpt lat="39.368061414316784" lon="16.88759501606131"><ele>519.0</ele><time>2026-03-29T11:15:38Z</time></trkpt><trkpt lat="39.36817853589447" lon="16.887544537857433"><ele>518.5</ele><time>2026-03-29T11:15:39Z</time></trkpt><trkpt lat="39.36829215608747" lon="16.887502822816554"><ele>518.0</ele><time>2026-03-29T11:15:40Z</time></trkpt><trkpt lat="39.36840646265987" lon="16.887460370586275"><ele>518.0</ele><time>2026-03-29T11:15:41Z</time></trkpt><trkpt lat="39.36852599812639" lon="16.887416155318345"><ele>518.0</ele><time>2026-03-29T11:15:42Z</time></trkpt><trkpt lat="39.36863867340566" lon="16.887374050082066"><ele>518.0</ele><time>2026-03-29T11:15:43Z</time></trkpt><trkpt lat="39.36874499154982" lon="16.887340824178825"><ele>518.0</ele><time>2026-03-29T11:15:44Z</time></trkpt><trkpt lat="39.368837250901095" lon="16.887307725286025"><ele>518.0</ele><time>2026-03-29T11:15:45Z</time></trkpt><trkpt lat="39.368919817951195" lon="16.887277976559133"><ele>519.6</ele><time>2026-03-29T11:15:46Z</time></trkpt><trkpt lat="39.36898376114378" lon="16.887232395837483"><ele>521.1999999999999</ele><time>2026-03-29T11:15:47Z</time></trkpt><trkpt lat="39.36910132449363" lon="16.88725682554934"><ele>522.8</ele><time>2026-03-29T11:15:48Z</time></trkpt><trkpt lat="39.369150275023" lon="16.887183294152127"><ele>524.4</ele><time>2026-03-29T11:15:50Z</time></trkpt><trkpt lat="39.36919232287563" lon="16.88709530669806"><ele>526.0</ele><time>2026-03-29T11:15:52Z</time></trkpt><trkpt lat="39.36922132151357" lon="16.88696777572205"><ele>526.0</ele><time>2026-03-29T11:15:54Z</time></trkpt><trkpt lat="39.36926827230211" lon="16.886821414148777"><ele>526.0</ele><time>2026-03-29T11:15:56Z</time></trkpt><trkpt lat="39.369286627964755" lon="16.88671357506911"><ele>526.0</ele><time>2026-03-29T11:15:57Z</time></trkpt><trkpt lat="39.36933806634193" lon="16.886615435683122"><ele>526.0</ele><time>2026-03-29T11:15:58Z</time></trkpt><trkpt lat="39.36939358923213" lon="16.886515632601007"><ele>526.0</ele><time>2026-03-29T11:15:59Z</time></trkpt><trkpt lat="39.36946686627956" lon="16.88641533145291"><ele>525.8333333333334</ele><time>2026-03-29T11:16:00Z</time></trkpt><trkpt lat="39.369517777998695" lon="16.886303709408555"><ele>525.6666666666667</ele><time>2026-03-29T11:16:01Z</time></trkpt><trkpt lat="39.369572470721984" lon="16.88622141519782"><ele>525.5</ele><time>2026-03-29T11:16:02Z</time></trkpt><trkpt lat="39.369634801463526" lon="16.886156871326968"><ele>525.3333333333334</ele><time>2026-03-29T11:16:03Z</time></trkpt><trkpt lat="39.36970653899145" lon="16.88609416816653"><ele>525.1666666666666</ele><time>2026-03-29T11:16:04Z</time></trkpt><trkpt lat="39.36978292876047" lon="16.88603240960981"><ele>525.0</ele><time>2026-03-29T11:16:05Z</time></trkpt><trkpt lat="39.36985910712601" lon="16.88597082227463"><ele>526.2</ele><time>2026-03-29T11:16:06Z</time></trkpt><trkpt lat="39.369936764308186" lon="16.885908039627168"><ele>527.4</ele><time>2026-03-29T11:16:07Z</time></trkpt><trkpt lat="39.37001669038076" lon="16.88584342267506"><ele>528.6</ele><time>2026-03-29T11:16:08Z</time></trkpt><trkpt lat="39.370099977246234" lon="16.885776088659984"><ele>529.8</ele><time>2026-03-29T11:16:09Z</time></trkpt><trkpt lat="39.37020267091641" lon="16.88574523427221"><ele>531.0</ele><time>2026-03-29T11:16:10Z</time></trkpt><trkpt lat="39.37029183964412" lon="16.8856870113169"><ele>531.0</ele><time>2026-03-29T11:16:11Z</time></trkpt><trkpt lat="39.37037422131179" lon="16.88562877802289"><ele>531.0</ele><time>2026-03-29T11:16:12Z</time></trkpt><trkpt lat="39.370439789932895" lon="16.885528339278533"><ele>531.0</ele><time>2026-03-29T11:16:13Z</time></trkpt><trkpt lat="39.370530018075044" lon="16.88548320482479"><ele>531.0</ele><time>2026-03-29T11:16:14Z</time></trkpt><trkpt lat="39.37062745562621" lon="16.885461891151326"><ele>531.0</ele><time>2026-03-29T11:16:15Z</time></trkpt><trkpt lat="39.370724353899554" lon="16.885425596825982"><ele>532.0</ele><time>2026-03-29T11:16:16Z</time></trkpt><trkpt lat="39.3708193820994" lon="16.885403152034897"><ele>533.0</ele><time>2026-03-29T11:16:17Z</time></trkpt><trkpt lat="39.37091372013446" lon="16.885394242068536"><ele>534.0</ele><time>2026-03-29T11:16:18Z</time></trkpt><trkpt lat="39.37101396859783" lon="16.88539711487167"><ele>535.0</ele><time>2026-03-29T11:16:19Z</time></trkpt><trkpt lat="39.37112285398691" lon="16.885413037612512"><ele>536.0</ele><time>2026-03-29T11:16:20Z</time></trkpt><trkpt lat="39.371234736935605" lon="16.885442903002133"><ele>536.0</ele><time>2026-03-29T11:16:21Z</time></trkpt><trkpt lat="39.37134754895621" lon="16.885474851266373"><ele>536.0</ele><time>2026-03-29T11:16:22Z</time></trkpt><trkpt lat="39.37145752029016" lon="16.88550469319511"><ele>536.0</ele><time>2026-03-29T11:16:23Z</time></trkpt><trkpt lat="39.37156432036299" lon="16.885527128528203"><ele>536.0</ele><time>2026-03-29T11:16:24Z</time></trkpt><trkpt lat="39.37167016230919" lon="16.885545722838252"><ele>536.0</ele><time>2026-03-29T11:16:25Z</time></trkpt><trkpt lat="39.371771561911174" lon="16.885563129953674"><ele>535.5</ele><time>2026-03-29T11:16:26Z</time></trkpt><trkpt lat="39.37187035764101" lon="16.88557311810118"><ele>535.0</ele><time>2026-03-29T11:16:27Z</time></trkpt><trkpt lat="39.371961365145424" lon="16.885578677585247"><ele>534.5</ele><time>2026-03-29T11:16:28Z</time></trkpt><trkpt lat="39.37203910818589" lon="16.885583463573337"><ele>534.0</ele><time>2026-03-29T11:16:29Z</time></trkpt><trkpt lat="39.372136545392074" lon="16.885596967191635"><ele>533.5</ele><time>2026-03-29T11:16:31Z</time></trkpt><trkpt lat="39.372202760836764" lon="16.885601608870804"><ele>533.0</ele><time>2026-03-29T11:16:33Z</time></trkpt><trkpt lat="39.3723035252215" lon="16.88557298770681"><ele>532.6</ele><time>2026-03-29T11:16:35Z</time></trkpt><trkpt lat="39.37243089323563" lon="16.885540635991838"><ele>532.1999999999999</ele><time>2026-03-29T11:16:37Z</time></trkpt><trkpt lat="39.37250169255025" lon="16.885530694145825"><ele>531.8</ele><time>2026-03-29T11:16:38Z</time></trkpt><trkpt lat="39.3725724521491" lon="16.885514706107166"><ele>531.4</ele><time>2026-03-29T11:16:39Z</time></trkpt><trkpt lat="39.372642515402205" lon="16.885524937575564"><ele>531.0</ele><time>2026-03-29T11:16:40Z</time></trkpt><trkpt lat="39.37274878755513" lon="16.88553737360313"><ele>531.0</ele><time>2026-03-29T11:16:42Z</time></trkpt><trkpt lat="39.372824505677045" lon="16.885542139101286"><ele>531.0</ele><time>2026-03-29T11:16:44Z</time></trkpt><trkpt lat="39.372899795523224" lon="16.88557131128827"><ele>531.0</ele><time>2026-03-29T11:16:46Z</time></trkpt><trkpt lat="39.372973177370994" lon="16.88560763837939"><ele>531.0</ele><time>2026-03-29T11:16:48Z</time></trkpt><trkpt lat="39.37304879208631" lon="16.88566072364273"><ele>531.0</ele><time>2026-03-29T11:16:50Z</time></trkpt><trkpt lat="39.37313704343306" lon="16.885697074490594"><ele>531.0</ele><time>2026-03-29T11:16:52Z</time></trkpt><trkpt lat="39.37324561687249" lon="16.885767224371396"><ele>529.8571428571429</ele><time>2026-03-29T11:16:54Z</time></trkpt><trkpt lat="39.37330771176414" lon="16.885821778011884"><ele>528.7142857142858</ele><time>2026-03-29T11:16:55Z</time></trkpt><trkpt lat="39.37336160821483" lon="16.885891998873273"><ele>527.5714285714286</ele><time>2026-03-29T11:16:56Z</time></trkpt><trkpt lat="39.37342160208602" lon="16.885931826745203"><ele>526.4285714285714</ele><time>2026-03-29T11:16:57Z</time></trkpt><trkpt lat="39.3734631330074" lon="16.886002487677043"><ele>525.2857142857142</ele><time>2026-03-29T11:16:58Z</time></trkpt><trkpt lat="39.3735424182577" lon="16.886029339710905"><ele>524.1428571428571</ele><time>2026-03-29T11:16:59.999Z</time></trkpt><trkpt lat="39.37360442523275" lon="16.88606753589741"><ele>523.0</ele><time>2026-03-29T11:17:01.999Z</time></trkpt><trkpt lat="39.37366848974584" lon="16.886106999523964"><ele>522.8333333333334</ele><time>2026-03-29T11:17:03.999Z</time></trkpt><trkpt lat="39.37376028996552" lon="16.886079080897026"><ele>522.6666666666667</ele><time>2026-03-29T11:17:05.999Z</time></trkpt><trkpt lat="39.373810037774795" lon="16.8861680866747"><ele>522.5</ele><time>2026-03-29T11:17:07.999Z</time></trkpt><trkpt lat="39.37389238395424" lon="16.886166552661642"><ele>522.3333333333334</ele><time>2026-03-29T11:17:08.999Z</time></trkpt><trkpt lat="39.37396056135406" lon="16.886293944019087"><ele>522.1666666666666</ele><time>2026-03-29T11:17:10.999Z</time></trkpt><trkpt lat="39.37399522714953" lon="16.886366015693593"><ele>522.0</ele><time>2026-03-29T11:17:11.999Z</time></trkpt><trkpt lat="39.37403235646967" lon="16.88644320904959"><ele>522.0</ele><time>2026-03-29T11:17:12.999Z</time></trkpt><trkpt lat="39.37405811387509" lon="16.886519393097238"><ele>522.0</ele><time>2026-03-29T11:17:13.999Z</time></trkpt><trkpt lat="39.374095500835445" lon="16.886588548681452"><ele>522.0</ele><time>2026-03-29T11:17:14.999Z</time></trkpt><trkpt lat="39.374134302854735" lon="16.886654120376765"><ele>522.0</ele><time>2026-03-29T11:17:15.999Z</time></trkpt><trkpt lat="39.374216809462666" lon="16.886757089818104"><ele>522.0</ele><time>2026-03-29T11:17:17.999Z</time></trkpt><trkpt lat="39.37431606712639" lon="16.886823342127826"><ele>522.0</ele><time>2026-03-29T11:17:19.999Z</time></trkpt><trkpt lat="39.37437986059745" lon="16.88684092314929"><ele>522.0</ele><time>2026-03-29T11:17:20.999Z</time></trkpt><trkpt lat="39.37445007927872" lon="16.886838992541865"><ele>522.0</ele><time>2026-03-29T11:17:21.999Z</time></trkpt><trkpt lat="39.37451879969062" lon="16.88685645332371"><ele>522.0</ele><time>2026-03-29T11:17:22.999Z</time></trkpt><trkpt lat="39.3745903854869" lon="16.88687324477674"><ele>522.0</ele><time>2026-03-29T11:17:23.999Z</time></trkpt><trkpt lat="39.37465951048459" lon="16.88688339448306"><ele>522.0</ele><time>2026-03-29T11:17:24.999Z</time></trkpt><trkpt lat="39.37472071479735" lon="16.886908767797078"><ele>522.0</ele><time>2026-03-29T11:17:25.999Z</time></trkpt><trkpt lat="39.37482375480544" lon="16.8869076499328"><ele>522.0</ele><time>2026-03-29T11:17:27.999Z</time></trkpt><trkpt lat="39.37493813777428" lon="16.886881590039824"><ele>522.0</ele><time>2026-03-29T11:17:29.999Z</time></trkpt><trkpt lat="39.375010726559694" lon="16.886881685437377"><ele>522.0</ele><time>2026-03-29T11:17:30.999Z</time></trkpt><trkpt lat="39.375080059588534" lon="16.886867762897115"><ele>522.0</ele><time>2026-03-29T11:17:31.999Z</time></trkpt><trkpt lat="39.375150066408175" lon="16.886833004415596"><ele>522.0</ele><time>2026-03-29T11:17:32.999Z</time></trkpt><trkpt lat="39.37525024334126" lon="16.886842409631768"><ele>522.0</ele><time>2026-03-29T11:17:34.999Z</time></trkpt><trkpt lat="39.37531991721096" lon="16.88684303124557"><ele>522.0</ele><time>2026-03-29T11:17:36.999Z</time></trkpt><trkpt lat="39.37541019544395" lon="16.88682446047424"><ele>522.0</ele><time>2026-03-29T11:17:38.999Z</time></trkpt><trkpt lat="39.37552876749289" lon="16.886843405745196"><ele>522.0</ele><time>2026-03-29T11:17:40.999Z</time></trkpt><trkpt lat="39.37563973898937" lon="16.886835561173147"><ele>522.0</ele><time>2026-03-29T11:17:42.999Z</time></trkpt><trkpt lat="39.37575027776171" lon="16.886847505235902"><ele>522.0</ele><time>2026-03-29T11:17:44.999Z</time></trkpt><trkpt lat="39.375823311866874" lon="16.88684410427676"><ele>520.75</ele><time>2026-03-29T11:17:46.999Z</time></trkpt><trkpt lat="39.37588715017619" lon="16.88656110383521"><ele>519.5</ele><time>2026-03-29T11:17:48.998Z</time></trkpt><trkpt lat="39.375953539357035" lon="16.886483502143392"><ele>518.25</ele><time>2026-03-29T11:17:50.998Z</time></trkpt><trkpt lat="39.3760549691966" lon="16.886391507746215"><ele>517.0</ele><time>2026-03-29T11:17:52.998Z</time></trkpt><trkpt lat="39.37615942610005" lon="16.886301675996286"><ele>517.0</ele><time>2026-03-29T11:17:54.998Z</time></trkpt><trkpt lat="39.376268686750834" lon="16.88625534088957"><ele>517.0</ele><time>2026-03-29T11:17:56.998Z</time></trkpt><trkpt lat="39.376336147876714" lon="16.886232303008956"><ele>517.0</ele><time>2026-03-29T11:17:57.998Z</time></trkpt><trkpt lat="39.37640279304833" lon="16.88619322297824"><ele>517.0</ele><time>2026-03-29T11:17:58.998Z</time></trkpt><trkpt lat="39.37646032357306" lon="16.886149650469395"><ele>517.0</ele><time>2026-03-29T11:17:59.998Z</time></trkpt><trkpt lat="39.37650821830153" lon="16.886096091398812"><ele>517.0</ele><time>2026-03-29T11:18:00.998Z</time></trkpt><trkpt lat="39.37656602328608" lon="16.886053957154974"><ele>516.2857142857143</ele><time>2026-03-29T11:18:01.998Z</time></trkpt><trkpt lat="39.37663077931334" lon="16.886017340874044"><ele>515.5714285714287</ele><time>2026-03-29T11:18:02.998Z</time></trkpt><trkpt lat="39.37669801723305" lon="16.885987060099755"><ele>514.8571428571429</ele><time>2026-03-29T11:18:03.998Z</time></trkpt><trkpt lat="39.37676340503212" lon="16.885960585056274"><ele>514.1428571428571</ele><time>2026-03-29T11:18:04.998Z</time></trkpt><trkpt lat="39.37682191703771" lon="16.885929696553735"><ele>513.4285714285713</ele><time>2026-03-29T11:18:05.998Z</time></trkpt><trkpt lat="39.37690858282807" lon="16.885847735769936"><ele>512.7142857142857</ele><time>2026-03-29T11:18:07.998Z</time></trkpt><trkpt lat="39.376943069916194" lon="16.885775074371026"><ele>512.0</ele><time>2026-03-29T11:18:08.998Z</time></trkpt><trkpt lat="39.37696035901724" lon="16.885676453163576"><ele>512.0</ele><time>2026-03-29T11:18:09.998Z</time></trkpt><trkpt lat="39.37700206853125" lon="16.885580245544237"><ele>512.0</ele><time>2026-03-29T11:18:10.998Z</time></trkpt><trkpt lat="39.37707085320655" lon="16.88549006234053"><ele>512.0</ele><time>2026-03-29T11:18:11.998Z</time></trkpt><trkpt lat="39.37714974575958" lon="16.885398323167788"><ele>512.0</ele><time>2026-03-29T11:18:12.998Z</time></trkpt><trkpt lat="39.3772295711826" lon="16.88531205873318"><ele>512.0</ele><time>2026-03-29T11:18:13.998Z</time></trkpt><trkpt lat="39.37730355415301" lon="16.885236682514666"><ele>512.1666666666666</ele><time>2026-03-29T11:18:14.998Z</time></trkpt><trkpt lat="39.37738045066554" lon="16.885187312527755"><ele>512.3333333333333</ele><time>2026-03-29T11:18:15.998Z</time></trkpt><trkpt lat="39.37744819417081" lon="16.885135779829437"><ele>512.5</ele><time>2026-03-29T11:18:16.998Z</time></trkpt><trkpt lat="39.37751213157335" lon="16.885087644375737"><ele>512.6666666666666</ele><time>2026-03-29T11:18:17.998Z</time></trkpt><trkpt lat="39.37757580442965" lon="16.88503451088751"><ele>512.8333333333334</ele><time>2026-03-29T11:18:18.998Z</time></trkpt><trkpt lat="39.377636140047244" lon="16.884954076718362"><ele>513.0</ele><time>2026-03-29T11:18:19.998Z</time></trkpt><trkpt lat="39.377702411278044" lon="16.88487295690288"><ele>513.0</ele><time>2026-03-29T11:18:20.998Z</time></trkpt><trkpt lat="39.377750515223106" lon="16.88478514660925"><ele>513.0</ele><time>2026-03-29T11:18:21.998Z</time></trkpt><trkpt lat="39.377797384976" lon="16.884703220842937"><ele>513.0</ele><time>2026-03-29T11:18:22.998Z</time></trkpt><trkpt lat="39.37784514968567" lon="16.884614898246316"><ele>513.0</ele><time>2026-03-29T11:18:23.998Z</time></trkpt><trkpt lat="39.37791028854079" lon="16.884542366311013"><ele>513.0</ele><time>2026-03-29T11:18:24.998Z</time></trkpt><trkpt lat="39.37798258750446" lon="16.88448161691436"><ele>513.0</ele><time>2026-03-29T11:18:25.998Z</time></trkpt><trkpt lat="39.37806217663513" lon="16.88443133329249"><ele>512.8333333333334</ele><time>2026-03-29T11:18:26.998Z</time></trkpt><trkpt lat="39.37815028135018" lon="16.884390069052483"><ele>512.6666666666666</ele><time>2026-03-29T11:18:27.998Z</time></trkpt><trkpt lat="39.378237342883196" lon="16.884350848076128"><ele>512.5</ele><time>2026-03-29T11:18:28.998Z</time></trkpt><trkpt lat="39.378316480286585" lon="16.88431073533616"><ele>512.3333333333333</ele><time>2026-03-29T11:18:29.998Z</time></trkpt><trkpt lat="39.3783878576387" lon="16.88425499587351"><ele>512.1666666666666</ele><time>2026-03-29T11:18:30.998Z</time></trkpt><trkpt lat="39.37845906987529" lon="16.88420132890363"><ele>512.0</ele><time>2026-03-29T11:18:31.998Z</time></trkpt><trkpt lat="39.378517789260236" lon="16.88413258998026"><ele>511.8333333333333</ele><time>2026-03-29T11:18:32.998Z</time></trkpt><trkpt lat="39.378573395409205" lon="16.88406849545702"><ele>511.66666666666663</ele><time>2026-03-29T11:18:33.998Z</time></trkpt><trkpt lat="39.37862525223957" lon="16.88400939037224"><ele>511.5</ele><time>2026-03-29T11:18:34.998Z</time></trkpt><trkpt lat="39.378681106448504" lon="16.88394900611314"><ele>511.33333333333337</ele><time>2026-03-29T11:18:35.998Z</time></trkpt><trkpt lat="39.378746298259" lon="16.88386344770356"><ele>511.1666666666667</ele><time>2026-03-29T11:18:36.998Z</time></trkpt><trkpt lat="39.378815719249026" lon="16.883756805508416"><ele>511.0</ele><time>2026-03-29T11:18:37.998Z</time></trkpt><trkpt lat="39.37888414678689" lon="16.88365353530728"><ele>511.0</ele><time>2026-03-29T11:18:38.998Z</time></trkpt><trkpt lat="39.37895276246404" lon="16.883560225056346"><ele>511.0</ele><time>2026-03-29T11:18:39.998Z</time></trkpt><trkpt lat="39.37903441619459" lon="16.883484956073808"><ele>511.0</ele><time>2026-03-29T11:18:40.998Z</time></trkpt><trkpt lat="39.37911929095033" lon="16.88342705695152"><ele>511.0</ele><time>2026-03-29T11:18:41.998Z</time></trkpt><trkpt lat="39.37919167580738" lon="16.88336685055511"><ele>511.0</ele><time>2026-03-29T11:18:42.998Z</time></trkpt><trkpt lat="39.37924078635474" lon="16.883301767602756"><ele>512.4285714285714</ele><time>2026-03-29T11:18:43.998Z</time></trkpt><trkpt lat="39.37928763910336" lon="16.88323973906806"><ele>513.8571428571429</ele><time>2026-03-29T11:18:44.998Z</time></trkpt><trkpt lat="39.379353869300175" lon="16.883198019196033"><ele>515.2857142857142</ele><time>2026-03-29T11:18:45.998Z</time></trkpt><trkpt lat="39.37942099588505" lon="16.883144317848526"><ele>516.7142857142858</ele><time>2026-03-29T11:18:46.998Z</time></trkpt><trkpt lat="39.379484191116326" lon="16.883097232220184"><ele>518.1428571428571</ele><time>2026-03-29T11:18:47.998Z</time></trkpt><trkpt lat="39.37953804739701" lon="16.883052106711943"><ele>519.5714285714286</ele><time>2026-03-29T11:18:48.998Z</time></trkpt><trkpt lat="39.37959074283843" lon="16.883003660469093"><ele>521.0</ele><time>2026-03-29T11:18:49.998Z</time></trkpt><trkpt lat="39.379643343085085" lon="16.882941342041214"><ele>521.8333333333333</ele><time>2026-03-29T11:18:50.998Z</time></trkpt><trkpt lat="39.37970320983107" lon="16.88287976346795"><ele>522.6666666666666</ele><time>2026-03-29T11:18:51.998Z</time></trkpt><trkpt lat="39.379768080995476" lon="16.8828244588577"><ele>523.5</ele><time>2026-03-29T11:18:52.998Z</time></trkpt><trkpt lat="39.37982982269069" lon="16.882770030628375"><ele>524.3333333333334</ele><time>2026-03-29T11:18:53.998Z</time></trkpt><trkpt lat="39.379889311208835" lon="16.882716052534114"><ele>525.1666666666667</ele><time>2026-03-29T11:18:54.998Z</time></trkpt><trkpt lat="39.37996280710364" lon="16.882685614336737"><ele>526.0</ele><time>2026-03-29T11:18:55.998Z</time></trkpt><trkpt lat="39.380043763464805" lon="16.882636748443097"><ele>525.8</ele><time>2026-03-29T11:18:56.998Z</time></trkpt><trkpt lat="39.380125294003285" lon="16.88256650543877"><ele>525.6</ele><time>2026-03-29T11:18:57.998Z</time></trkpt><trkpt lat="39.380204140609386" lon="16.88248763727589"><ele>525.4</ele><time>2026-03-29T11:18:58.998Z</time></trkpt><trkpt lat="39.38028449673826" lon="16.882421488237153"><ele>525.2</ele><time>2026-03-29T11:18:59.998Z</time></trkpt><trkpt lat="39.38036487700273" lon="16.882356333561457"><ele>525.0</ele><time>2026-03-29T11:19:00.998Z</time></trkpt><trkpt lat="39.380443171957154" lon="16.8822937109646"><ele>525.0</ele><time>2026-03-29T11:19:01.998Z</time></trkpt><trkpt lat="39.38051452898429" lon="16.88223372680548"><ele>525.0</ele><time>2026-03-29T11:19:02.998Z</time></trkpt><trkpt lat="39.38058020798235" lon="16.882172460553804"><ele>525.0</ele><time>2026-03-29T11:19:03.998Z</time></trkpt><trkpt lat="39.38064519793317" lon="16.882094313042533"><ele>525.0</ele><time>2026-03-29T11:19:04.998Z</time></trkpt><trkpt lat="39.380708919808285" lon="16.88199627833723"><ele>525.0</ele><time>2026-03-29T11:19:05.998Z</time></trkpt><trkpt lat="39.38076780546989" lon="16.88188935846027"><ele>526.4</ele><time>2026-03-29T11:19:06.998Z</time></trkpt><trkpt lat="39.38081119495834" lon="16.881772087034264"><ele>527.8</ele><time>2026-03-29T11:19:07.998Z</time></trkpt><trkpt lat="39.38084396487766" lon="16.881650537675775"><ele>529.2</ele><time>2026-03-29T11:19:08.998Z</time></trkpt><trkpt lat="39.38087726767013" lon="16.881532596074138"><ele>530.6</ele><time>2026-03-29T11:19:09.998Z</time></trkpt><trkpt lat="39.38090912236953" lon="16.881421988294864"><ele>532.0</ele><time>2026-03-29T11:19:10.998Z</time></trkpt><trkpt lat="39.3809446774451" lon="16.881323337273606"><ele>532.0</ele><time>2026-03-29T11:19:11.998Z</time></trkpt><trkpt lat="39.38098033191927" lon="16.881238841048305"><ele>532.0</ele><time>2026-03-29T11:19:12.998Z</time></trkpt><trkpt lat="39.381013221597264" lon="16.881165122581795"><ele>532.0</ele><time>2026-03-29T11:19:13.998Z</time></trkpt><trkpt lat="39.381056667652274" lon="16.881102299233206"><ele>532.0</ele><time>2026-03-29T11:19:14.998Z</time></trkpt><trkpt lat="39.381115952165715" lon="16.881051467335432"><ele>532.0</ele><time>2026-03-29T11:19:15.998Z</time></trkpt><trkpt lat="39.381187148036254" lon="16.8810011332628"><ele>532.0</ele><time>2026-03-29T11:19:16.998Z</time></trkpt><trkpt lat="39.3812554515329" lon="16.880955045774268"><ele>532.0</ele><time>2026-03-29T11:19:17.998Z</time></trkpt><trkpt lat="39.38135571732665" lon="16.88088540996894"><ele>530.8000000000001</ele><time>2026-03-29T11:19:19.998Z</time></trkpt><trkpt lat="39.381450269457105" lon="16.880842583011205"><ele>529.6</ele><time>2026-03-29T11:19:21.998Z</time></trkpt><trkpt lat="39.38154945797088" lon="16.880780353190875"><ele>528.4000000000001</ele><time>2026-03-29T11:19:23.998Z</time></trkpt><trkpt lat="39.3816692555686" lon="16.88071729355517"><ele>527.2</ele><time>2026-03-29T11:19:25.998Z</time></trkpt><trkpt lat="39.38174362004031" lon="16.880691910544897"><ele>526.0</ele><time>2026-03-29T11:19:26.998Z</time></trkpt><trkpt lat="39.38182273516823" lon="16.880666694778437"><ele>526.0</ele><time>2026-03-29T11:19:27.998Z</time></trkpt><trkpt lat="39.38189542179372" lon="16.880632408922697"><ele>526.0</ele><time>2026-03-29T11:19:28.998Z</time></trkpt><trkpt lat="39.381969825743596" lon="16.88060643340635"><ele>526.0</ele><time>2026-03-29T11:19:29.998Z</time></trkpt><trkpt lat="39.38203834346728" lon="16.88057744162516"><ele>526.0</ele><time>2026-03-29T11:19:30.998Z</time></trkpt><trkpt lat="39.38210479002004" lon="16.88055755292375"><ele>526.0</ele><time>2026-03-29T11:19:31.998Z</time></trkpt><trkpt lat="39.38216829804228" lon="16.88055543233963"><ele>526.0</ele><time>2026-03-29T11:19:32.998Z</time></trkpt><trkpt lat="39.382278625853864" lon="16.88050282964561"><ele>524.8</ele><time>2026-03-29T11:19:34.998Z</time></trkpt><trkpt lat="39.382342899155496" lon="16.88046663197185"><ele>523.6</ele><time>2026-03-29T11:19:35.998Z</time></trkpt><trkpt lat="39.382416570203326" lon="16.880414536895582"><ele>522.4</ele><time>2026-03-29T11:19:36.998Z</time></trkpt><trkpt lat="39.38249989080209" lon="16.880353364409014"><ele>521.2</ele><time>2026-03-29T11:19:37.998Z</time></trkpt><trkpt lat="39.38259710996269" lon="16.880298122908712"><ele>520.0</ele><time>2026-03-29T11:19:38.998Z</time></trkpt><trkpt lat="39.382703523726235" lon="16.880241959804355"><ele>520.0</ele><time>2026-03-29T11:19:39.998Z</time></trkpt><trkpt lat="39.38282084507049" lon="16.880209659972163"><ele>520.0</ele><time>2026-03-29T11:19:40.998Z</time></trkpt><trkpt lat="39.382925169411585" lon="16.880189904345514"><ele>520.0</ele><time>2026-03-29T11:19:41.998Z</time></trkpt><trkpt lat="39.38302068236392" lon="16.880172723873724"><ele>520.0</ele><time>2026-03-29T11:19:42.998Z</time></trkpt><trkpt lat="39.38311631694908" lon="16.88016583592154"><ele>520.0</ele><time>2026-03-29T11:19:43.998Z</time></trkpt><trkpt lat="39.38321634123878" lon="16.880167477617746"><ele>520.8</ele><time>2026-03-29T11:19:44.998Z</time></trkpt><trkpt lat="39.383306179953365" lon="16.880160087519773"><ele>521.6</ele><time>2026-03-29T11:19:45.998Z</time></trkpt><trkpt lat="39.383385863152455" lon="16.88013892313078"><ele>522.4</ele><time>2026-03-29T11:19:46.998Z</time></trkpt><trkpt lat="39.3834564320091" lon="16.880122284874325"><ele>523.2</ele><time>2026-03-29T11:19:47.998Z</time></trkpt><trkpt lat="39.38357103009381" lon="16.880100811599533"><ele>524.0</ele><time>2026-03-29T11:19:49.998Z</time></trkpt><trkpt lat="39.3836634060825" lon="16.880086357396124"><ele>524.0</ele><time>2026-03-29T11:19:51.998Z</time></trkpt><trkpt lat="39.383742441211105" lon="16.880081670335027"><ele>524.0</ele><time>2026-03-29T11:19:54.998Z</time></trkpt><trkpt lat="39.383811596920474" lon="16.880075362918127"><ele>524.0</ele><time>2026-03-29T11:19:56.998Z</time></trkpt><trkpt lat="39.38390079042975" lon="16.880059197033603"><ele>524.0</ele><time>2026-03-29T11:19:58.998Z</time></trkpt><trkpt lat="39.38402098257488" lon="16.880057703886248"><ele>524.0</ele><time>2026-03-29T11:20:00.998Z</time></trkpt><trkpt lat="39.38408834234402" lon="16.88006773903331"><ele>524.0</ele><time>2026-03-29T11:20:01.998Z</time></trkpt><trkpt lat="39.38415741052834" lon="16.880066298943287"><ele>525.0</ele><time>2026-03-29T11:20:02.998Z</time></trkpt><trkpt lat="39.3842288066297" lon="16.880069769250305"><ele>526.0</ele><time>2026-03-29T11:20:03.998Z</time></trkpt><trkpt lat="39.38430387343092" lon="16.880076146388177"><ele>527.0</ele><time>2026-03-29T11:20:04.998Z</time></trkpt><trkpt lat="39.38438381866165" lon="16.880085576674166"><ele>528.0</ele><time>2026-03-29T11:20:05.998Z</time></trkpt><trkpt lat="39.384462142268156" lon="16.88008929368517"><ele>529.0</ele><time>2026-03-29T11:20:06.998Z</time></trkpt><trkpt lat="39.384541228034614" lon="16.88009339444603"><ele>530.0</ele><time>2026-03-29T11:20:07.998Z</time></trkpt><trkpt lat="39.38462698273133" lon="16.880093825054924"><ele>528.6</ele><time>2026-03-29T11:20:08.998Z</time></trkpt><trkpt lat="39.38471609487324" lon="16.880083580637606"><ele>527.2</ele><time>2026-03-29T11:20:09.998Z</time></trkpt><trkpt lat="39.38480847576421" lon="16.88007673059181"><ele>525.8</ele><time>2026-03-29T11:20:10.998Z</time></trkpt><trkpt lat="39.38490096143527" lon="16.880067156132718"><ele>524.4</ele><time>2026-03-29T11:20:11.998Z</time></trkpt><trkpt lat="39.38499207574136" lon="16.880047833173123"><ele>523.0</ele><time>2026-03-29T11:20:12.998Z</time></trkpt><trkpt lat="39.38508280943165" lon="16.880028686038315"><ele>523.0</ele><time>2026-03-29T11:20:13.998Z</time></trkpt><trkpt lat="39.38516900947696" lon="16.88000472629177"><ele>523.0</ele><time>2026-03-29T11:20:14.998Z</time></trkpt><trkpt lat="39.385253426634556" lon="16.87999118826924"><ele>523.0</ele><time>2026-03-29T11:20:15.998Z</time></trkpt><trkpt lat="39.38533411203452" lon="16.879982171463528"><ele>523.0</ele><time>2026-03-29T11:20:16.998Z</time></trkpt><trkpt lat="39.38541725926448" lon="16.87997169727757"><ele>523.0</ele><time>2026-03-29T11:20:17.998Z</time></trkpt><trkpt lat="39.385503189992114" lon="16.879951150507235"><ele>523.0</ele><time>2026-03-29T11:20:18.998Z</time></trkpt><trkpt lat="39.38559092725016" lon="16.87993177761193"><ele>521.8333333333334</ele><time>2026-03-29T11:20:19.998Z</time></trkpt><trkpt lat="39.385672856634436" lon="16.87991373070381"><ele>520.6666666666667</ele><time>2026-03-29T11:20:20.998Z</time></trkpt><trkpt lat="39.385741170081566" lon="16.8798888710925"><ele>519.5</ele><time>2026-03-29T11:20:21.998Z</time></trkpt><trkpt lat="39.38583995655232" lon="16.87982824766452"><ele>518.3333333333334</ele><time>2026-03-29T11:20:23.998Z</time></trkpt><trkpt lat="39.385910092544485" lon="16.879770507447418"><ele>517.1666666666666</ele><time>2026-03-29T11:20:25.998Z</time></trkpt><trkpt lat="39.385983273973956" lon="16.879701897643116"><ele>516.0</ele><time>2026-03-29T11:20:27.998Z</time></trkpt><trkpt lat="39.386052321868135" lon="16.87962909456756"><ele>515.9999999999999</ele><time>2026-03-29T11:20:29.998Z</time></trkpt><trkpt lat="39.38610370474814" lon="16.879579281792537"><ele>516.0</ele><time>2026-03-29T11:20:34.998Z</time></trkpt><trkpt lat="39.38617328399047" lon="16.879524621117714"><ele>516.0</ele><time>2026-03-29T11:20:39.998Z</time></trkpt><trkpt lat="39.38624664192024" lon="16.879431875559998"><ele>516.0</ele><time>2026-03-29T11:20:41.998Z</time></trkpt><trkpt lat="39.38630090814554" lon="16.879386222835333"><ele>516.0</ele><time>2026-03-29T11:20:42.998Z</time></trkpt><trkpt lat="39.3863535199829" lon="16.87933377035435"><ele>515.9999999999999</ele><time>2026-03-29T11:20:43.998Z</time></trkpt><trkpt lat="39.386411033490006" lon="16.879286899387665"><ele>516.0</ele><time>2026-03-29T11:20:44.998Z</time></trkpt><trkpt lat="39.38647299729318" lon="16.87924066227517"><ele>515.3333333333334</ele><time>2026-03-29T11:20:45.998Z</time></trkpt><trkpt lat="39.38653116244971" lon="16.879194130845015"><ele>514.6666666666666</ele><time>2026-03-29T11:20:46.998Z</time></trkpt><trkpt lat="39.386633475656545" lon="16.879107538590926"><ele>514.0</ele><time>2026-03-29T11:20:48.998Z</time></trkpt><trkpt lat="39.38668264288772" lon="16.879049996759225"><ele>513.3333333333333</ele><time>2026-03-29T11:20:49.998Z</time></trkpt><trkpt lat="39.386741903720385" lon="16.879009727705608"><ele>512.6666666666666</ele><time>2026-03-29T11:20:50.998Z</time></trkpt><trkpt lat="39.38680307262056" lon="16.878961344544564"><ele>512.0</ele><time>2026-03-29T11:20:51.998Z</time></trkpt><trkpt lat="39.38687191083576" lon="16.878922886917675"><ele>512.0</ele><time>2026-03-29T11:20:52.998Z</time></trkpt><trkpt lat="39.38693618418547" lon="16.87887901705275"><ele>511.99999999999994</ele><time>2026-03-29T11:20:53.998Z</time></trkpt><trkpt lat="39.38699271194137" lon="16.878825123488884"><ele>512.0</ele><time>2026-03-29T11:20:54.998Z</time></trkpt><trkpt lat="39.38704641390824" lon="16.878772623683712"><ele>512.0</ele><time>2026-03-29T11:20:55.998Z</time></trkpt><trkpt lat="39.387095762650866" lon="16.878719149611957"><ele>511.99999999999994</ele><time>2026-03-29T11:20:56.998Z</time></trkpt><trkpt lat="39.38715251758851" lon="16.878677993857615"><ele>512.0</ele><time>2026-03-29T11:20:57.998Z</time></trkpt><trkpt lat="39.3872187714852" lon="16.87865333099162"><ele>512.0</ele><time>2026-03-29T11:20:58.998Z</time></trkpt><trkpt lat="39.3872940577811" lon="16.878654196192123"><ele>511.16666666666663</ele><time>2026-03-29T11:20:59.998Z</time></trkpt><trkpt lat="39.387362487502756" lon="16.878629586142868"><ele>510.3333333333333</ele><time>2026-03-29T11:21:01.001Z</time></trkpt><trkpt lat="39.38742760302448" lon="16.87859307699839"><ele>509.5</ele><time>2026-03-29T11:21:02.001Z</time></trkpt><trkpt lat="39.38749137510621" lon="16.878553562589772"><ele>508.66666666666663</ele><time>2026-03-29T11:21:03.001Z</time></trkpt><trkpt lat="39.387555371429045" lon="16.87852700843834"><ele>507.8333333333333</ele><time>2026-03-29T11:21:04.001Z</time></trkpt><trkpt lat="39.38767200093682" lon="16.87850028735045"><ele>507.0</ele><time>2026-03-29T11:21:06.001Z</time></trkpt><trkpt lat="39.387780394199446" lon="16.878474870698806"><ele>507.0</ele><time>2026-03-29T11:21:08.001Z</time></trkpt><trkpt lat="39.387880420361554" lon="16.878444588375736"><ele>507.00000000000006</ele><time>2026-03-29T11:21:10.001Z</time></trkpt><trkpt lat="39.38799776229757" lon="16.87841412360798"><ele>507.00000000000006</ele><time>2026-03-29T11:21:12.001Z</time></trkpt><trkpt lat="39.388106072634365" lon="16.878401688896457"><ele>507.0</ele><time>2026-03-29T11:21:14.001Z</time></trkpt><trkpt lat="39.38820473020323" lon="16.87839343548428"><ele>507.0</ele><time>2026-03-29T11:21:16.001Z</time></trkpt><trkpt lat="39.388328675025555" lon="16.878389086463095"><ele>504.57142857142856</ele><time>2026-03-29T11:21:18.001Z</time></trkpt><trkpt lat="39.38839391555772" lon="16.878418136102137"><ele>502.14285714285717</ele><time>2026-03-29T11:21:19Z</time></trkpt><trkpt lat="39.388457547130756" lon="16.878439457659518"><ele>499.7142857142857</ele><time>2026-03-29T11:21:20Z</time></trkpt><trkpt lat="39.388532826284916" lon="16.878450612942434"><ele>497.2857142857143</ele><time>2026-03-29T11:21:21Z</time></trkpt><trkpt lat="39.38860938239915" lon="16.878455592012166"><ele>494.8571428571429</ele><time>2026-03-29T11:21:22Z</time></trkpt><trkpt lat="39.38868531210097" lon="16.878458053472553"><ele>492.42857142857144</ele><time>2026-03-29T11:21:23Z</time></trkpt><trkpt lat="39.38875587017379" lon="16.878475708636685"><ele>490.0</ele><time>2026-03-29T11:21:24Z</time></trkpt><trkpt lat="39.38882012979764" lon="16.878492810255683"><ele>486.83333333333337</ele><time>2026-03-29T11:21:25Z</time></trkpt><trkpt lat="39.38888335536528" lon="16.878512856370335"><ele>483.6666666666667</ele><time>2026-03-29T11:21:26Z</time></trkpt><trkpt lat="39.38894513204154" lon="16.87853333936501"><ele>480.5</ele><time>2026-03-29T11:21:27Z</time></trkpt><trkpt lat="39.38903289795706" lon="16.87855620936879"><ele>477.33333333333337</ele><time>2026-03-29T11:21:29Z</time></trkpt><trkpt lat="39.389075171100245" lon="16.878489004555217"><ele>474.1666666666667</ele><time>2026-03-29T11:21:31Z</time></trkpt><trkpt lat="39.38915393737752" lon="16.878476833863196"><ele>471.0</ele><time>2026-03-29T11:21:34Z</time></trkpt><trkpt lat="39.389262924783225" lon="16.87846942215104"><ele>472.1666666666667</ele><time>2026-03-29T11:21:36Z</time></trkpt><trkpt lat="39.38932428134398" lon="16.878430640641096"><ele>473.33333333333337</ele><time>2026-03-29T11:21:37Z</time></trkpt><trkpt lat="39.389383297379034" lon="16.878370681619597"><ele>474.5</ele><time>2026-03-29T11:21:38Z</time></trkpt><trkpt lat="39.389447340911126" lon="16.878308081334556"><ele>475.6666666666667</ele><time>2026-03-29T11:21:39Z</time></trkpt><trkpt lat="39.38953817178614" lon="16.87826774853518"><ele>476.83333333333337</ele><time>2026-03-29T11:21:40Z</time></trkpt><trkpt lat="39.38963486254849" lon="16.878284733688503"><ele>478.0</ele><time>2026-03-29T11:21:41Z</time></trkpt><trkpt lat="39.38972830323177" lon="16.878292037743"><ele>478.00000000000006</ele><time>2026-03-29T11:21:42Z</time></trkpt><trkpt lat="39.38981675846587" lon="16.878287120736132"><ele>478.0</ele><time>2026-03-29T11:21:43Z</time></trkpt><trkpt lat="39.38990480789207" lon="16.878267215805476"><ele>478.0</ele><time>2026-03-29T11:21:44Z</time></trkpt><trkpt lat="39.38998360683512" lon="16.878231800139744"><ele>478.0</ele><time>2026-03-29T11:21:45Z</time></trkpt><trkpt lat="39.39005031231671" lon="16.878204280555746"><ele>478.00000000000006</ele><time>2026-03-29T11:21:46Z</time></trkpt><trkpt lat="39.3901628855856" lon="16.878187096832654"><ele>478.0</ele><time>2026-03-29T11:21:48Z</time></trkpt><trkpt lat="39.390262004536126" lon="16.878227836827495"><ele>478.0</ele><time>2026-03-29T11:21:50Z</time></trkpt><trkpt lat="39.390307630194556" lon="16.878310226241823"><ele>477.99999999999994</ele><time>2026-03-29T11:21:51Z</time></trkpt><trkpt lat="39.39036677780177" lon="16.878408333283694"><ele>477.99999999999994</ele><time>2026-03-29T11:21:52Z</time></trkpt><trkpt lat="39.39043835993124" lon="16.87849557994895"><ele>478.0</ele><time>2026-03-29T11:21:53Z</time></trkpt><trkpt lat="39.39052002117483" lon="16.878563045062407"><ele>478.0</ele><time>2026-03-29T11:21:54Z</time></trkpt><trkpt lat="39.390602685110125" lon="16.87862666188078"><ele>478.6666666666667</ele><time>2026-03-29T11:21:55Z</time></trkpt><trkpt lat="39.390676960133995" lon="16.87869576237957"><ele>479.33333333333337</ele><time>2026-03-29T11:21:56Z</time></trkpt><trkpt lat="39.39073592193409" lon="16.878768906418212"><ele>480.0</ele><time>2026-03-29T11:21:57Z</time></trkpt><trkpt lat="39.39078074315656" lon="16.878843316750473"><ele>480.66666666666663</ele><time>2026-03-29T11:21:58Z</time></trkpt><trkpt lat="39.39080803913777" lon="16.87893031574962"><ele>481.3333333333333</ele><time>2026-03-29T11:21:59Z</time></trkpt><trkpt lat="39.390836969942285" lon="16.879015206868694"><ele>482.0</ele><time>2026-03-29T11:22:00Z</time></trkpt><trkpt lat="39.39087792598594" lon="16.879092927092028"><ele>481.99999999999994</ele><time>2026-03-29T11:22:01Z</time></trkpt><trkpt lat="39.3909304308138" lon="16.87916881229871"><ele>482.0</ele><time>2026-03-29T11:22:02Z</time></trkpt><trkpt lat="39.39099503779814" lon="16.879239120286552"><ele>482.0</ele><time>2026-03-29T11:22:03Z</time></trkpt><trkpt lat="39.39107008937086" lon="16.87929545577037"><ele>482.0</ele><time>2026-03-29T11:22:04Z</time></trkpt><trkpt lat="39.391147165938094" lon="16.879357597250344"><ele>481.99999999999994</ele><time>2026-03-29T11:22:05Z</time></trkpt><trkpt lat="39.39122545458399" lon="16.87943274157412"><ele>482.0</ele><time>2026-03-29T11:22:06Z</time></trkpt><trkpt lat="39.39129720262133" lon="16.879520898526035"><ele>482.3333333333333</ele><time>2026-03-29T11:22:07Z</time></trkpt><trkpt lat="39.391361306734055" lon="16.879600152985457"><ele>482.66666666666663</ele><time>2026-03-29T11:22:08Z</time></trkpt><trkpt lat="39.391416474725204" lon="16.87966769090301"><ele>483.0</ele><time>2026-03-29T11:22:09Z</time></trkpt><trkpt lat="39.39146889859222" lon="16.879729846432394"><ele>483.33333333333337</ele><time>2026-03-29T11:22:10Z</time></trkpt><trkpt lat="39.39151767613394" lon="16.879789060912056"><ele>483.6666666666667</ele><time>2026-03-29T11:22:11Z</time></trkpt><trkpt lat="39.39162252607061" lon="16.879848354553538"><ele>484.0</ele><time>2026-03-29T11:22:12.999Z</time></trkpt><trkpt lat="39.39175373011069" lon="16.879838102095224"><ele>484.00000000000006</ele><time>2026-03-29T11:22:14.999Z</time></trkpt><trkpt lat="39.39182907956728" lon="16.879829887372217"><ele>484.0</ele><time>2026-03-29T11:22:15.999Z</time></trkpt><trkpt lat="39.39190098154251" lon="16.87983220893012"><ele>484.0</ele><time>2026-03-29T11:22:16.999Z</time></trkpt><trkpt lat="39.391964027801315" lon="16.879829761257476"><ele>484.0</ele><time>2026-03-29T11:22:17.999Z</time></trkpt><trkpt lat="39.39205857560739" lon="16.879817752224287"><ele>484.00000000000006</ele><time>2026-03-29T11:22:19.999Z</time></trkpt><trkpt lat="39.39211264485769" lon="16.879872130027376"><ele>484.0</ele><time>2026-03-29T11:22:22.999Z</time></trkpt><trkpt lat="39.3920721597033" lon="16.879963163919054"><ele>484.0</ele><time>2026-03-29T11:22:24.999Z</time></trkpt><trkpt lat="39.39198830818698" lon="16.88005418821136"><ele>484.0</ele><time>2026-03-29T11:22:26.999Z</time></trkpt><trkpt lat="39.39194221105648" lon="16.880147594408026"><ele>484.0</ele><time>2026-03-29T11:22:27.999Z</time></trkpt><trkpt lat="39.39192191843931" lon="16.880266844499676"><ele>484.0</ele><time>2026-03-29T11:22:28.999Z</time></trkpt><trkpt lat="39.39192164758991" lon="16.880403495868237"><ele>484.0</ele><time>2026-03-29T11:22:29.999Z</time></trkpt><trkpt lat="39.391928448623204" lon="16.880537274660362"><ele>483.6</ele><time>2026-03-29T11:22:30.999Z</time></trkpt><trkpt lat="39.39194503925743" lon="16.88066456351687"><ele>483.2</ele><time>2026-03-29T11:22:31.999Z</time></trkpt><trkpt lat="39.39197205275566" lon="16.880785641267494"><ele>482.80000000000007</ele><time>2026-03-29T11:22:32.999Z</time></trkpt><trkpt lat="39.39201755641417" lon="16.880892674311777"><ele>482.40000000000003</ele><time>2026-03-29T11:22:33.999Z</time></trkpt><trkpt lat="39.39205904609596" lon="16.880992803917497"><ele>482.0</ele><time>2026-03-29T11:22:34.999Z</time></trkpt><trkpt lat="39.392092488433576" lon="16.881079507617446"><ele>481.3333333333333</ele><time>2026-03-29T11:22:35.999Z</time></trkpt><trkpt lat="39.39212399644304" lon="16.881153852535107"><ele>480.66666666666663</ele><time>2026-03-29T11:22:36.999Z</time></trkpt><trkpt lat="39.39217333346037" lon="16.881222582733137"><ele>480.0</ele><time>2026-03-29T11:22:37.999Z</time></trkpt><trkpt lat="39.39224066302201" lon="16.88128642707737"><ele>479.33333333333337</ele><time>2026-03-29T11:22:38.999Z</time></trkpt><trkpt lat="39.39230626283345" lon="16.881359277441586"><ele>478.6666666666667</ele><time>2026-03-29T11:22:39.999Z</time></trkpt><trkpt lat="39.39236944972962" lon="16.88142032915577"><ele>478.0</ele><time>2026-03-29T11:22:40.999Z</time></trkpt><trkpt lat="39.39243353769045" lon="16.88146755621933"><ele>480.1666666666667</ele><time>2026-03-29T11:22:41.999Z</time></trkpt><trkpt lat="39.39250619425467" lon="16.88146914454543"><ele>482.33333333333337</ele><time>2026-03-29T11:22:42.999Z</time></trkpt><trkpt lat="39.392579281556635" lon="16.881459502634833"><ele>484.5</ele><time>2026-03-29T11:22:43.999Z</time></trkpt><trkpt lat="39.39266928283977" lon="16.881485241030486"><ele>486.66666666666663</ele><time>2026-03-29T11:22:45.999Z</time></trkpt><trkpt lat="39.39270247444176" lon="16.88160235927115"><ele>488.8333333333333</ele><time>2026-03-29T11:22:47.999Z</time></trkpt><trkpt lat="39.39272396932536" lon="16.881688949440715"><ele>491.0</ele><time>2026-03-29T11:22:48.999Z</time></trkpt><trkpt lat="39.39275447805124" lon="16.881770739732"><ele>491.0</ele><time>2026-03-29T11:22:49.999Z</time></trkpt><trkpt lat="39.392785638900236" lon="16.881842672849668"><ele>491.0</ele><time>2026-03-29T11:22:50.999Z</time></trkpt><trkpt lat="39.392782176569305" lon="16.88200861827869"><ele>491.0</ele><time>2026-03-29T11:22:52.999Z</time></trkpt><trkpt lat="39.392738494152866" lon="16.882094448532712"><ele>491.0</ele><time>2026-03-29T11:22:53.999Z</time></trkpt><trkpt lat="39.39266955644037" lon="16.88215972870766"><ele>491.0</ele><time>2026-03-29T11:22:54.999Z</time></trkpt><trkpt lat="39.392604804809835" lon="16.88224855956084"><ele>491.0</ele><time>2026-03-29T11:22:55.999Z</time></trkpt><trkpt lat="39.39253640002411" lon="16.882355252033914"><ele>491.0</ele><time>2026-03-29T11:22:56.999Z</time></trkpt><trkpt lat="39.39246760732353" lon="16.88245387048609"><ele>491.0</ele><time>2026-03-29T11:22:57.999Z</time></trkpt><trkpt lat="39.392398917471056" lon="16.88253969289353"><ele>491.0</ele><time>2026-03-29T11:22:58.999Z</time></trkpt><trkpt lat="39.392333310956445" lon="16.882618345551236"><ele>491.0</ele><time>2026-03-29T11:22:59.999Z</time></trkpt><trkpt lat="39.392276116794285" lon="16.8826931861543"><ele>489.3333333333333</ele><time>2026-03-29T11:23:00.999Z</time></trkpt><trkpt lat="39.39222177718439" lon="16.882757754111584"><ele>487.66666666666663</ele><time>2026-03-29T11:23:01.999Z</time></trkpt><trkpt lat="39.39217562410225" lon="16.882818520371615"><ele>486.0</ele><time>2026-03-29T11:23:02.999Z</time></trkpt><trkpt lat="39.39211302089491" lon="16.88294348095731"><ele>484.33333333333337</ele><time>2026-03-29T11:23:04.999Z</time></trkpt><trkpt lat="39.39214817617141" lon="16.883093937750527"><ele>482.6666666666667</ele><time>2026-03-29T11:23:06.999Z</time></trkpt><trkpt lat="39.39217256889044" lon="16.883181671778228"><ele>481.0</ele><time>2026-03-29T11:23:07.999Z</time></trkpt><trkpt lat="39.392188691904686" lon="16.88327503841151"><ele>481.00000000000006</ele><time>2026-03-29T11:23:08.999Z</time></trkpt><trkpt lat="39.392195096985546" lon="16.88336303017288"><ele>481.0</ele><time>2026-03-29T11:23:09.999Z</time></trkpt><trkpt lat="39.39218382839743" lon="16.88346134169601"><ele>481.0</ele><time>2026-03-29T11:23:10.999Z</time></trkpt><trkpt lat="39.39213812773243" lon="16.88355939085523"><ele>481.0</ele><time>2026-03-29T11:23:11.999Z</time></trkpt><trkpt lat="39.39208332875858" lon="16.883667809354385"><ele>481.00000000000006</ele><time>2026-03-29T11:23:12.999Z</time></trkpt><trkpt lat="39.392034542581015" lon="16.883789088561603"><ele>481.0</ele><time>2026-03-29T11:23:13.999Z</time></trkpt><trkpt lat="39.39200760550641" lon="16.88392329501451"><ele>480.0</ele><time>2026-03-29T11:23:14.999Z</time></trkpt><trkpt lat="39.391983819147164" lon="16.88405380605045"><ele>479.0</ele><time>2026-03-29T11:23:15.999Z</time></trkpt><trkpt lat="39.391947237376634" lon="16.884173997927498"><ele>478.0</ele><time>2026-03-29T11:23:16.999Z</time></trkpt><trkpt lat="39.39190296301803" lon="16.884290180298706"><ele>477.0</ele><time>2026-03-29T11:23:17.999Z</time></trkpt><trkpt lat="39.391858938828406" lon="16.884408428143935"><ele>476.0</ele><time>2026-03-29T11:23:18.999Z</time></trkpt><trkpt lat="39.391826260124176" lon="16.88453405203418"><ele>474.4</ele><time>2026-03-29T11:23:19.999Z</time></trkpt><trkpt lat="39.39179471532292" lon="16.884657584717093"><ele>472.8</ele><time>2026-03-29T11:23:20.999Z</time></trkpt><trkpt lat="39.39175503703743" lon="16.884780987546964"><ele>471.19999999999993</ele><time>2026-03-29T11:23:21.999Z</time></trkpt><trkpt lat="39.39171976702519" lon="16.884909378476458"><ele>469.59999999999997</ele><time>2026-03-29T11:23:22.999Z</time></trkpt><trkpt lat="39.391682569953865" lon="16.88503527729662"><ele>468.0</ele><time>2026-03-29T11:23:23.999Z</time></trkpt><trkpt lat="39.39164612378233" lon="16.885161247730558"><ele>465.59999999999997</ele><time>2026-03-29T11:23:24.999Z</time></trkpt><trkpt lat="39.3916149814399" lon="16.885284334738486"><ele>463.19999999999993</ele><time>2026-03-29T11:23:25.999Z</time></trkpt><trkpt lat="39.391571967298894" lon="16.885390459743462"><ele>460.8</ele><time>2026-03-29T11:23:26.999Z</time></trkpt><trkpt lat="39.39153115973492" lon="16.885492503071983"><ele>458.4</ele><time>2026-03-29T11:23:27.999Z</time></trkpt><trkpt lat="39.391499700938" lon="16.885605100649187"><ele>456.0</ele><time>2026-03-29T11:23:28.999Z</time></trkpt><trkpt lat="39.39147155214079" lon="16.885729490178793"><ele>456.0</ele><time>2026-03-29T11:23:29.999Z</time></trkpt><trkpt lat="39.39144324912641" lon="16.885853802529027"><ele>456.0</ele><time>2026-03-29T11:23:30.999Z</time></trkpt><trkpt lat="39.391413749123885" lon="16.885969640978896"><ele>456.0</ele><time>2026-03-29T11:23:31.999Z</time></trkpt><trkpt lat="39.39138248097283" lon="16.886071517278747"><ele>456.0</ele><time>2026-03-29T11:23:32.999Z</time></trkpt><trkpt lat="39.39136193030098" lon="16.886178251743285"><ele>456.0</ele><time>2026-03-29T11:23:33.999Z</time></trkpt><trkpt lat="39.39136183097745" lon="16.886302117692576"><ele>452.5</ele><time>2026-03-29T11:23:34.999Z</time></trkpt><trkpt lat="39.39134878234037" lon="16.88644380040646"><ele>449.0</ele><time>2026-03-29T11:23:35.999Z</time></trkpt><trkpt lat="39.39132929776738" lon="16.88659553424049"><ele>445.5</ele><time>2026-03-29T11:23:36.999Z</time></trkpt><trkpt lat="39.39130841835994" lon="16.886745253739115"><ele>442.0</ele><time>2026-03-29T11:23:37.999Z</time></trkpt><trkpt lat="39.39130118500983" lon="16.886886010013036"><ele>441.50000000000006</ele><time>2026-03-29T11:23:38.999Z</time></trkpt><trkpt lat="39.3912878090055" lon="16.887006307438813"><ele>441.0</ele><time>2026-03-29T11:23:39.999Z</time></trkpt><trkpt lat="39.39127247467133" lon="16.887111632158877"><ele>440.5</ele><time>2026-03-29T11:23:40.999Z</time></trkpt><trkpt lat="39.391251216915855" lon="16.887217486368357"><ele>440.0</ele><time>2026-03-29T11:23:41.999Z</time></trkpt><trkpt lat="39.39121863044833" lon="16.8873191265924"><ele>439.50000000000006</ele><time>2026-03-29T11:23:42.999Z</time></trkpt><trkpt lat="39.39118692389082" lon="16.88742104227796"><ele>439.0</ele><time>2026-03-29T11:23:43.999Z</time></trkpt><trkpt lat="39.39115029849399" lon="16.887517382350342"><ele>438.33333333333337</ele><time>2026-03-29T11:23:44.999Z</time></trkpt><trkpt lat="39.391118790420016" lon="16.887613530522316"><ele>437.6666666666667</ele><time>2026-03-29T11:23:45.999Z</time></trkpt><trkpt lat="39.39108431330036" lon="16.887712669811982"><ele>437.0</ele><time>2026-03-29T11:23:46.999Z</time></trkpt><trkpt lat="39.391055770281746" lon="16.887825307455596"><ele>436.33333333333337</ele><time>2026-03-29T11:23:47.999Z</time></trkpt><trkpt lat="39.391022710659016" lon="16.887939915775267"><ele>435.6666666666667</ele><time>2026-03-29T11:23:48.999Z</time></trkpt><trkpt lat="39.39099014090711" lon="16.888052051423657"><ele>435.0</ele><time>2026-03-29T11:23:49.999Z</time></trkpt><trkpt lat="39.390967840280915" lon="16.888162110527315"><ele>435.0</ele><time>2026-03-29T11:23:50.999Z</time></trkpt><trkpt lat="39.39095206976822" lon="16.888274329401984"><ele>435.0</ele><time>2026-03-29T11:23:51.999Z</time></trkpt><trkpt lat="39.39093925737202" lon="16.888382823584706"><ele>435.0</ele><time>2026-03-29T11:23:52.999Z</time></trkpt><trkpt lat="39.390906921168664" lon="16.88848248859943"><ele>435.0</ele><time>2026-03-29T11:23:53.999Z</time></trkpt><trkpt lat="39.39087731696344" lon="16.88858190252384"><ele>435.0</ele><time>2026-03-29T11:23:54.999Z</time></trkpt><trkpt lat="39.39084855527154" lon="16.888673241594482"><ele>435.0</ele><time>2026-03-29T11:23:55.999Z</time></trkpt><trkpt lat="39.390822766968014" lon="16.88876678234563"><ele>432.5</ele><time>2026-03-29T11:23:56.999Z</time></trkpt><trkpt lat="39.39080422966538" lon="16.88886445338808"><ele>430.0</ele><time>2026-03-29T11:23:57.999Z</time></trkpt><trkpt lat="39.390784266283625" lon="16.88896490063085"><ele>427.5</ele><time>2026-03-29T11:23:58.999Z</time></trkpt><trkpt lat="39.39075564953835" lon="16.889058121202122"><ele>425.0</ele><time>2026-03-29T11:23:59.999Z</time></trkpt><trkpt lat="39.390712522407156" lon="16.88913527075035"><ele>422.5</ele><time>2026-03-29T11:24:00.999Z</time></trkpt><trkpt lat="39.3906666736377" lon="16.889207224258474"><ele>420.0</ele><time>2026-03-29T11:24:01.999Z</time></trkpt><trkpt lat="39.390614934332184" lon="16.889280228332954"><ele>418.42857142857144</ele><time>2026-03-29T11:24:02.999Z</time></trkpt><trkpt lat="39.390565006999246" lon="16.889348166898742"><ele>416.8571428571429</ele><time>2026-03-29T11:24:03.999Z</time></trkpt><trkpt lat="39.390516822806475" lon="16.889411174969705"><ele>415.2857142857143</ele><time>2026-03-29T11:24:04.999Z</time></trkpt><trkpt lat="39.390464334038334" lon="16.88946406177359"><ele>413.7142857142857</ele><time>2026-03-29T11:24:05.999Z</time></trkpt><trkpt lat="39.39040401251128" lon="16.889502518094332"><ele>412.14285714285717</ele><time>2026-03-29T11:24:06.999Z</time></trkpt><trkpt lat="39.390325591929304" lon="16.889530092456727"><ele>410.57142857142856</ele><time>2026-03-29T11:24:07.999Z</time></trkpt><trkpt lat="39.39024031465645" lon="16.88954536453552"><ele>409.0</ele><time>2026-03-29T11:24:08.999Z</time></trkpt><trkpt lat="39.390158825525155" lon="16.88954570843464"><ele>409.00000000000006</ele><time>2026-03-29T11:24:09.999Z</time></trkpt><trkpt lat="39.39008300574305" lon="16.889554717487492"><ele>409.0</ele><time>2026-03-29T11:24:10.999Z</time></trkpt><trkpt lat="39.39001583227913" lon="16.88958206731932"><ele>409.0</ele><time>2026-03-29T11:24:11.999Z</time></trkpt><trkpt lat="39.38990000217253" lon="16.88963081824105"><ele>409.0</ele><time>2026-03-29T11:24:13.999Z</time></trkpt><trkpt lat="39.389857467778015" lon="16.8897316028373"><ele>409.00000000000006</ele><time>2026-03-29T11:24:15.999Z</time></trkpt><trkpt lat="39.38989346231299" lon="16.889818744034542"><ele>409.0</ele><time>2026-03-29T11:24:17.999Z</time></trkpt><trkpt lat="39.39001223107914" lon="16.889851386065953"><ele>409.00000000000006</ele><time>2026-03-29T11:24:19.999Z</time></trkpt><trkpt lat="39.39008067229694" lon="16.889864650193505"><ele>409.0</ele><time>2026-03-29T11:24:20.999Z</time></trkpt><trkpt lat="39.39014967077236" lon="16.889876618751114"><ele>409.0</ele><time>2026-03-29T11:24:21.999Z</time></trkpt><trkpt lat="39.39022392614371" lon="16.889875650018055"><ele>409.0</ele><time>2026-03-29T11:24:22.999Z</time></trkpt><trkpt lat="39.39029590103877" lon="16.889876926496925"><ele>409.00000000000006</ele><time>2026-03-29T11:24:23.999Z</time></trkpt><trkpt lat="39.39036124750327" lon="16.889875871185296"><ele>409.0</ele><time>2026-03-29T11:24:24.999Z</time></trkpt><trkpt lat="39.39048138962095" lon="16.889902825203063"><ele>408.6666666666667</ele><time>2026-03-29T11:24:26.999Z</time></trkpt><trkpt lat="39.39054691958701" lon="16.8899201874457"><ele>408.33333333333337</ele><time>2026-03-29T11:24:27.999Z</time></trkpt><trkpt lat="39.390612326490306" lon="16.889939407306528"><ele>408.0</ele><time>2026-03-29T11:24:28.998Z</time></trkpt><trkpt lat="39.39067739864727" lon="16.889948142590637"><ele>407.66666666666663</ele><time>2026-03-29T11:24:29.998Z</time></trkpt><trkpt lat="39.39074068970713" lon="16.889956972802523"><ele>407.3333333333333</ele><time>2026-03-29T11:24:30.998Z</time></trkpt><trkpt lat="39.39086311651384" lon="16.889916579049004"><ele>407.0</ele><time>2026-03-29T11:24:32.998Z</time></trkpt><trkpt lat="39.390929945045606" lon="16.88988133191276"><ele>407.0</ele><time>2026-03-29T11:24:33.998Z</time></trkpt><trkpt lat="39.390993679638996" lon="16.889836721410614"><ele>407.0</ele><time>2026-03-29T11:24:34.998Z</time></trkpt><trkpt lat="39.39104913321965" lon="16.889791684160663"><ele>407.0</ele><time>2026-03-29T11:24:35.998Z</time></trkpt><trkpt lat="39.39114992188503" lon="16.889716216374147"><ele>407.0</ele><time>2026-03-29T11:24:37.998Z</time></trkpt><trkpt lat="39.39126159661145" lon="16.88974676520331"><ele>407.0</ele><time>2026-03-29T11:24:40.998Z</time></trkpt><trkpt lat="39.39136408132983" lon="16.88982611667757"><ele>407.0</ele><time>2026-03-29T11:24:42.998Z</time></trkpt><trkpt lat="39.39142454119402" lon="16.88986398178016"><ele>407.0</ele><time>2026-03-29T11:24:43.998Z</time></trkpt><trkpt lat="39.39148942296308" lon="16.889874411571032"><ele>407.0</ele><time>2026-03-29T11:24:44.998Z</time></trkpt><trkpt lat="39.391609374598644" lon="16.889827680978353"><ele>407.0</ele><time>2026-03-29T11:24:46.998Z</time></trkpt><trkpt lat="39.39173846175833" lon="16.889791352515275"><ele>407.0</ele><time>2026-03-29T11:24:48.998Z</time></trkpt><trkpt lat="39.39181270495967" lon="16.8897715557166"><ele>406.99999999999994</ele><time>2026-03-29T11:24:49.998Z</time></trkpt><trkpt lat="39.39189105835457" lon="16.889751551555523"><ele>407.0</ele><time>2026-03-29T11:24:50.998Z</time></trkpt><trkpt lat="39.39196875848647" lon="16.88974360564365"><ele>407.0</ele><time>2026-03-29T11:24:51.998Z</time></trkpt><trkpt lat="39.39204032634927" lon="16.889728077607387"><ele>407.0</ele><time>2026-03-29T11:24:52.998Z</time></trkpt><trkpt lat="39.39210876963666" lon="16.889712965018326"><ele>406.99999999999994</ele><time>2026-03-29T11:24:53.998Z</time></trkpt><trkpt lat="39.3921807028553" lon="16.889691484465327"><ele>407.0</ele><time>2026-03-29T11:24:54.998Z</time></trkpt><trkpt lat="39.392259104212876" lon="16.889668544475057"><ele>409.49999999999994</ele><time>2026-03-29T11:24:55.998Z</time></trkpt><trkpt lat="39.39232853069483" lon="16.889654466460918"><ele>412.0</ele><time>2026-03-29T11:24:56.998Z</time></trkpt><trkpt lat="39.39240027016997" lon="16.88965318492205"><ele>414.5</ele><time>2026-03-29T11:24:57.998Z</time></trkpt><trkpt lat="39.392485308857914" lon="16.889666246173913"><ele>417.0</ele><time>2026-03-29T11:24:58.998Z</time></trkpt><trkpt lat="39.392577273845774" lon="16.889686159891806"><ele>419.49999999999994</ele><time>2026-03-29T11:24:59.998Z</time></trkpt><trkpt lat="39.392670481659714" lon="16.889701005142445"><ele>422.0</ele><time>2026-03-29T11:25:00.998Z</time></trkpt><trkpt lat="39.39276127680096" lon="16.889704202114228"><ele>421.99999999999994</ele><time>2026-03-29T11:25:01.998Z</time></trkpt><trkpt lat="39.39284783374282" lon="16.889719821688107"><ele>422.0</ele><time>2026-03-29T11:25:02.998Z</time></trkpt><trkpt lat="39.39292825093506" lon="16.889741637734573"><ele>422.0</ele><time>2026-03-29T11:25:03.998Z</time></trkpt><trkpt lat="39.393008305418334" lon="16.889769988784693"><ele>422.0</ele><time>2026-03-29T11:25:04.998Z</time></trkpt><trkpt lat="39.393090145975705" lon="16.88979843588107"><ele>421.99999999999994</ele><time>2026-03-29T11:25:05.998Z</time></trkpt><trkpt lat="39.39318614930106" lon="16.88978506325906"><ele>422.0</ele><time>2026-03-29T11:25:06.998Z</time></trkpt><trkpt lat="39.39328386761485" lon="16.889721382233308"><ele>424.0</ele><time>2026-03-29T11:25:07.998Z</time></trkpt><trkpt lat="39.39337774288915" lon="16.889649867094203"><ele>426.0</ele><time>2026-03-29T11:25:08.998Z</time></trkpt><trkpt lat="39.39346824824464" lon="16.889595107985787"><ele>428.00000000000006</ele><time>2026-03-29T11:25:09.998Z</time></trkpt><trkpt lat="39.393550262625936" lon="16.889563371032498"><ele>430.0</ele><time>2026-03-29T11:25:10.998Z</time></trkpt><trkpt lat="39.393622525504554" lon="16.88955362486874"><ele>432.0</ele><time>2026-03-29T11:25:11.998Z</time></trkpt><trkpt lat="39.39373612222392" lon="16.88960200499798"><ele>433.8</ele><time>2026-03-29T11:25:13.998Z</time></trkpt><trkpt lat="39.393864915577694" lon="16.8896067407201"><ele>435.6</ele><time>2026-03-29T11:25:15.998Z</time></trkpt><trkpt lat="39.3939404352741" lon="16.889548302792242"><ele>437.40000000000003</ele><time>2026-03-29T11:25:16.998Z</time></trkpt><trkpt lat="39.39401529314223" lon="16.88950333540863"><ele>439.20000000000005</ele><time>2026-03-29T11:25:17.998Z</time></trkpt><trkpt lat="39.39408409569487" lon="16.889475757929734"><ele>441.0</ele><time>2026-03-29T11:25:18.998Z</time></trkpt><trkpt lat="39.39416171192523" lon="16.88945917195999"><ele>441.0</ele><time>2026-03-29T11:25:19.998Z</time></trkpt><trkpt lat="39.39425280888797" lon="16.889470233082495"><ele>441.0</ele><time>2026-03-29T11:25:20.998Z</time></trkpt><trkpt lat="39.39435295150833" lon="16.88949480665643"><ele>441.0</ele><time>2026-03-29T11:25:21.998Z</time></trkpt><trkpt lat="39.39445719389202" lon="16.889519207373354"><ele>441.0</ele><time>2026-03-29T11:25:22.998Z</time></trkpt><trkpt lat="39.3945587597438" lon="16.889553753713557"><ele>441.0</ele><time>2026-03-29T11:25:23.998Z</time></trkpt><trkpt lat="39.39465341266952" lon="16.889603919177937"><ele>440.8333333333333</ele><time>2026-03-29T11:25:24.998Z</time></trkpt><trkpt lat="39.394737743014396" lon="16.889643165819518"><ele>440.66666666666663</ele><time>2026-03-29T11:25:25.998Z</time></trkpt><trkpt lat="39.39481250894376" lon="16.8896784728331"><ele>440.5</ele><time>2026-03-29T11:25:26.998Z</time></trkpt><trkpt lat="39.39487807390077" lon="16.889724200329425"><ele>440.3333333333333</ele><time>2026-03-29T11:25:27.998Z</time></trkpt><trkpt lat="39.39494063302912" lon="16.889772248387636"><ele>440.16666666666663</ele><time>2026-03-29T11:25:28.998Z</time></trkpt><trkpt lat="39.395001366205335" lon="16.88982759381302"><ele>440.0</ele><time>2026-03-29T11:25:29.998Z</time></trkpt><trkpt lat="39.395066332665316" lon="16.889880697460377"><ele>439.99999999999994</ele><time>2026-03-29T11:25:30.998Z</time></trkpt><trkpt lat="39.39514568135614" lon="16.889905891384753"><ele>440.0</ele><time>2026-03-29T11:25:31.998Z</time></trkpt><trkpt lat="39.39522864408402" lon="16.889911543014264"><ele>440.0</ele><time>2026-03-29T11:25:32.998Z</time></trkpt><trkpt lat="39.39530600850406" lon="16.889914734851505"><ele>440.0</ele><time>2026-03-29T11:25:33.998Z</time></trkpt><trkpt lat="39.39537881657857" lon="16.88993475435493"><ele>439.99999999999994</ele><time>2026-03-29T11:25:34.998Z</time></trkpt><trkpt lat="39.395446923335186" lon="16.88996407224597"><ele>440.0</ele><time>2026-03-29T11:25:35.998Z</time></trkpt><trkpt lat="39.3955127337891" lon="16.889988284602854"><ele>438.99999999999994</ele><time>2026-03-29T11:25:36.998Z</time></trkpt><trkpt lat="39.395608063340205" lon="16.890041239912964"><ele>438.0</ele><time>2026-03-29T11:25:38.998Z</time></trkpt><trkpt lat="39.39564838596881" lon="16.890121248738154"><ele>437.0</ele><time>2026-03-29T11:25:42.998Z</time></trkpt><trkpt lat="39.39567113115421" lon="16.89020300405229"><ele>436.0</ele><time>2026-03-29T11:25:44.998Z</time></trkpt><trkpt lat="39.39571496036918" lon="16.890348061732467"><ele>434.99999999999994</ele><time>2026-03-29T11:25:46.998Z</time></trkpt><trkpt lat="39.39573545802577" lon="16.890438943375273"><ele>434.0</ele><time>2026-03-29T11:25:47.998Z</time></trkpt><trkpt lat="39.3957482245738" lon="16.89052732528678"><ele>433.99999999999994</ele><time>2026-03-29T11:25:48.998Z</time></trkpt><trkpt lat="39.39578062296313" lon="16.890661707819774"><ele>434.0</ele><time>2026-03-29T11:25:50.998Z</time></trkpt><trkpt lat="39.39580644586539" lon="16.890754333513286"><ele>434.0</ele><time>2026-03-29T11:25:52.998Z</time></trkpt><trkpt lat="39.39582821623527" lon="16.8908426289265"><ele>434.0</ele><time>2026-03-29T11:25:54.998Z</time></trkpt><trkpt lat="39.39583561003886" lon="16.890943947985193"><ele>433.99999999999994</ele><time>2026-03-29T11:25:56.998Z</time></trkpt><trkpt lat="39.395861297276355" lon="16.891033364948928"><ele>434.0</ele><time>2026-03-29T11:25:58.998Z</time></trkpt><trkpt lat="39.39590406214661" lon="16.89112113193289"><ele>434.7142857142857</ele><time>2026-03-29T11:26:00.998Z</time></trkpt><trkpt lat="39.39594357466257" lon="16.891246144259"><ele>435.42857142857144</ele><time>2026-03-29T11:26:02.998Z</time></trkpt><trkpt lat="39.39596601349941" lon="16.89132392769078"><ele>436.1428571428571</ele><time>2026-03-29T11:26:03.998Z</time></trkpt><trkpt lat="39.39599483729744" lon="16.891402610816534"><ele>436.8571428571429</ele><time>2026-03-29T11:26:04.998Z</time></trkpt><trkpt lat="39.3960298538681" lon="16.891476634745153"><ele>437.57142857142856</ele><time>2026-03-29T11:26:05.998Z</time></trkpt><trkpt lat="39.396061323694134" lon="16.89155184202416"><ele>438.2857142857143</ele><time>2026-03-29T11:26:06.998Z</time></trkpt><trkpt lat="39.39609193195635" lon="16.891627321299197"><ele>439.0</ele><time>2026-03-29T11:26:07.998Z</time></trkpt><trkpt lat="39.39618562737597" lon="16.89173716921241"><ele>439.00000000000006</ele><time>2026-03-29T11:26:09.998Z</time></trkpt><trkpt lat="39.39625860644472" lon="16.89174913776249"><ele>439.0</ele><time>2026-03-29T11:26:10.998Z</time></trkpt><trkpt lat="39.39632792654926" lon="16.891778455595457"><ele>439.0</ele><time>2026-03-29T11:26:11.998Z</time></trkpt><trkpt lat="39.39639345365483" lon="16.89180575664838"><ele>439.0</ele><time>2026-03-29T11:26:12.998Z</time></trkpt><trkpt lat="39.39649105378505" lon="16.89189427455433"><ele>439.00000000000006</ele><time>2026-03-29T11:26:14.998Z</time></trkpt><trkpt lat="39.396578913250565" lon="16.89195234597254"><ele>439.0</ele><time>2026-03-29T11:26:16.998Z</time></trkpt><trkpt lat="39.396638289074545" lon="16.892060581869668"><ele>434.33333333333337</ele><time>2026-03-29T11:26:18.998Z</time></trkpt><trkpt lat="39.396672435887595" lon="16.89213307434185"><ele>429.6666666666667</ele><time>2026-03-29T11:26:19.998Z</time></trkpt><trkpt lat="39.39670439152842" lon="16.892216331584667"><ele>425.0</ele><time>2026-03-29T11:26:20.998Z</time></trkpt><trkpt lat="39.396733446848096" lon="16.892303514948495"><ele>420.33333333333337</ele><time>2026-03-29T11:26:21.998Z</time></trkpt><trkpt lat="39.39674607056386" lon="16.8923958113581"><ele>415.6666666666667</ele><time>2026-03-29T11:26:22.998Z</time></trkpt><trkpt lat="39.39676643223921" lon="16.892481646891525"><ele>411.0</ele><time>2026-03-29T11:26:23.998Z</time></trkpt><trkpt lat="39.39680351378971" lon="16.892603242304254"><ele>409.3333333333333</ele><time>2026-03-29T11:26:25.998Z</time></trkpt><trkpt lat="39.39684854085827" lon="16.892677215659134"><ele>407.66666666666663</ele><time>2026-03-29T11:26:27.998Z</time></trkpt><trkpt lat="39.39688123469873" lon="16.892760806486184"><ele>406.0</ele><time>2026-03-29T11:26:29.998Z</time></trkpt><trkpt lat="39.396890430298455" lon="16.892876709937784"><ele>404.3333333333333</ele><time>2026-03-29T11:26:31.998Z</time></trkpt><trkpt lat="39.39690494960696" lon="16.892987936134464"><ele>402.66666666666663</ele><time>2026-03-29T11:26:33.998Z</time></trkpt><trkpt lat="39.39692843039801" lon="16.893073583857742"><ele>401.0</ele><time>2026-03-29T11:26:35.998Z</time></trkpt><trkpt lat="39.39700197986469" lon="16.893162786126457"><ele>401.0</ele><time>2026-03-29T11:26:37.998Z</time></trkpt><trkpt lat="39.39709171210309" lon="16.893226242088897"><ele>401.0</ele><time>2026-03-29T11:26:39.998Z</time></trkpt><trkpt lat="39.397192377414314" lon="16.893287929655887"><ele>401.0</ele><time>2026-03-29T11:26:41.998Z</time></trkpt><trkpt lat="39.397260547967186" lon="16.89338718272761"><ele>401.0</ele><time>2026-03-29T11:26:43.998Z</time></trkpt><trkpt lat="39.39729840260998" lon="16.893530303839114"><ele>401.0</ele><time>2026-03-29T11:26:45.998Z</time></trkpt><trkpt lat="39.39736237272279" lon="16.89365171524159"><ele>398.49999999999994</ele><time>2026-03-29T11:26:47.998Z</time></trkpt><trkpt lat="39.39741972844" lon="16.893749143616226"><ele>396.0</ele><time>2026-03-29T11:26:49.997Z</time></trkpt><trkpt lat="39.39751581052399" lon="16.89371845633001"><ele>393.5</ele><time>2026-03-29T11:26:52.997Z</time></trkpt><trkpt lat="39.39756985689903" lon="16.893640890040352"><ele>391.0</ele><time>2026-03-29T11:26:54.997Z</time></trkpt><trkpt lat="39.397573069515346" lon="16.893538260214076"><ele>388.49999999999994</ele><time>2026-03-29T11:26:56.997Z</time></trkpt><trkpt lat="39.39759487316467" lon="16.893423105186855"><ele>386.0</ele><time>2026-03-29T11:26:58.997Z</time></trkpt><trkpt lat="39.39763231156702" lon="16.893320590186143"><ele>385.99999999999994</ele><time>2026-03-29T11:27:00.997Z</time></trkpt><trkpt lat="39.39770694526692" lon="16.89323465440883"><ele>386.0</ele><time>2026-03-29T11:27:02.997Z</time></trkpt><trkpt lat="39.39780469948154" lon="16.893184464081408"><ele>386.0</ele><time>2026-03-29T11:27:04.997Z</time></trkpt><trkpt lat="39.39787787029492" lon="16.8931628393014"><ele>386.0</ele><time>2026-03-29T11:27:06.997Z</time></trkpt><trkpt lat="39.39790872912849" lon="16.89323891395197"><ele>385.99999999999994</ele><time>2026-03-29T11:27:10.997Z</time></trkpt><trkpt lat="39.397922227679196" lon="16.893330860093197"><ele>386.0</ele><time>2026-03-29T11:27:13.997Z</time></trkpt><trkpt lat="39.39790850340322" lon="16.89342729587944"><ele>382.6</ele><time>2026-03-29T11:27:15.997Z</time></trkpt><trkpt lat="39.397951433730185" lon="16.893531810468666"><ele>379.20000000000005</ele><time>2026-03-29T11:27:19.997Z</time></trkpt><trkpt lat="39.39803493105373" lon="16.893522530361246"><ele>375.79999999999995</ele><time>2026-03-29T11:27:21.997Z</time></trkpt><trkpt lat="39.39811761821796" lon="16.89342589741859"><ele>372.4</ele><time>2026-03-29T11:27:23.997Z</time></trkpt><trkpt lat="39.398208953249004" lon="16.893338013980696"><ele>369.0</ele><time>2026-03-29T11:27:25.997Z</time></trkpt><trkpt lat="39.398297795317454" lon="16.893300584801793"><ele>366.4</ele><time>2026-03-29T11:27:27.997Z</time></trkpt><trkpt lat="39.39834837011211" lon="16.89336924279876"><ele>363.79999999999995</ele><time>2026-03-29T11:27:29.997Z</time></trkpt><trkpt lat="39.39839594100133" lon="16.89348638236034"><ele>361.20000000000005</ele><time>2026-03-29T11:27:31.997Z</time></trkpt><trkpt lat="39.39846428699323" lon="16.89362927937176"><ele>358.6</ele><time>2026-03-29T11:27:33.997Z</time></trkpt><trkpt lat="39.398505669659954" lon="16.893694692982713"><ele>356.0</ele><time>2026-03-29T11:27:34.997Z</time></trkpt><trkpt lat="39.398594220957406" lon="16.893826849293827"><ele>354.5</ele><time>2026-03-29T11:27:36.997Z</time></trkpt><trkpt lat="39.398618046546154" lon="16.893918143398697"><ele>353.0</ele><time>2026-03-29T11:27:37.997Z</time></trkpt><trkpt lat="39.3986502544653" lon="16.89402264306427"><ele>351.5</ele><time>2026-03-29T11:27:38.997Z</time></trkpt><trkpt lat="39.398699361560666" lon="16.89411262037623"><ele>350.0</ele><time>2026-03-29T11:27:39.997Z</time></trkpt><trkpt lat="39.398732772487676" lon="16.894193846360167"><ele>348.5</ele><time>2026-03-29T11:27:40.997Z</time></trkpt><trkpt lat="39.3987583032891" lon="16.89428072542015"><ele>347.0</ele><time>2026-03-29T11:27:41.997Z</time></trkpt><trkpt lat="39.39877311747947" lon="16.89442488463549"><ele>344.83333333333337</ele><time>2026-03-29T11:27:43.997Z</time></trkpt><trkpt lat="39.3987566825139" lon="16.894552613584427"><ele>342.6666666666667</ele><time>2026-03-29T11:27:45.997Z</time></trkpt><trkpt lat="39.398725921365006" lon="16.894671834478306"><ele>340.5</ele><time>2026-03-29T11:27:47.997Z</time></trkpt><trkpt lat="39.398681445914896" lon="16.894745980515005"><ele>338.3333333333333</ele><time>2026-03-29T11:27:50.997Z</time></trkpt><trkpt lat="39.39872559010222" lon="16.894823236098627"><ele>336.16666666666663</ele><time>2026-03-29T11:27:53.997Z</time></trkpt><trkpt lat="39.398779807796465" lon="16.894918249115143"><ele>334.0</ele><time>2026-03-29T11:27:55.997Z</time></trkpt><trkpt lat="39.3988596019864" lon="16.895031646960675"><ele>332.2</ele><time>2026-03-29T11:27:57.997Z</time></trkpt><trkpt lat="39.39892677204852" lon="16.8950492643369"><ele>330.4</ele><time>2026-03-29T11:27:58.997Z</time></trkpt><trkpt lat="39.39900649566982" lon="16.89503617037208"><ele>328.6</ele><time>2026-03-29T11:27:59.997Z</time></trkpt><trkpt lat="39.39910456162455" lon="16.895008872180444"><ele>326.8</ele><time>2026-03-29T11:28:00.997Z</time></trkpt><trkpt lat="39.39921084076722" lon="16.894983149299836"><ele>325.0</ele><time>2026-03-29T11:28:01.997Z</time></trkpt><trkpt lat="39.399307661745844" lon="16.894965413477333"><ele>325.0</ele><time>2026-03-29T11:28:02.997Z</time></trkpt><trkpt lat="39.399394342192345" lon="16.89494659925114"><ele>325.0</ele><time>2026-03-29T11:28:03.997Z</time></trkpt><trkpt lat="39.399476401568045" lon="16.894931024781975"><ele>325.0</ele><time>2026-03-29T11:28:04.997Z</time></trkpt><trkpt lat="39.399558299862846" lon="16.8949195252066"><ele>325.0</ele><time>2026-03-29T11:28:05.997Z</time></trkpt><trkpt lat="39.399643568570816" lon="16.894904233730845"><ele>325.0</ele><time>2026-03-29T11:28:06.999Z</time></trkpt><trkpt lat="39.3997194303938" lon="16.894892459266387"><ele>325.0</ele><time>2026-03-29T11:28:07.999Z</time></trkpt><trkpt lat="39.399830422218585" lon="16.894864944752115"><ele>324.5</ele><time>2026-03-29T11:28:09.999Z</time></trkpt><trkpt lat="39.39989670353307" lon="16.89480563668481"><ele>324.0</ele><time>2026-03-29T11:28:11.999Z</time></trkpt><trkpt lat="39.399916399283306" lon="16.894643662768765"><ele>323.5</ele><time>2026-03-29T11:28:13.999Z</time></trkpt><trkpt lat="39.399933540575965" lon="16.894548250887855"><ele>323.0</ele><time>2026-03-29T11:28:14.999Z</time></trkpt><trkpt lat="39.399955495139295" lon="16.894463868569"><ele>322.5</ele><time>2026-03-29T11:28:15.999Z</time></trkpt><trkpt lat="39.39997350848897" lon="16.89438216388513"><ele>322.0</ele><time>2026-03-29T11:28:16.999Z</time></trkpt><trkpt lat="39.40003947695836" lon="16.89424044124808"><ele>321.0</ele><time>2026-03-29T11:28:18.999Z</time></trkpt><trkpt lat="39.400081904086164" lon="16.89417673831014"><ele>320.0</ele><time>2026-03-29T11:28:19.999Z</time></trkpt><trkpt lat="39.40013902136413" lon="16.89406285176577"><ele>319.0</ele><time>2026-03-29T11:28:21.999Z</time></trkpt><trkpt lat="39.400189408829085" lon="16.893960675901052"><ele>318.0</ele><time>2026-03-29T11:28:23.999Z</time></trkpt><trkpt lat="39.40024686923809" lon="16.89382703835856"><ele>317.0</ele><time>2026-03-29T11:28:25.999Z</time></trkpt><trkpt lat="39.40026861413608" lon="16.893746979350883"><ele>316.0</ele><time>2026-03-29T11:28:26.999Z</time></trkpt><trkpt lat="39.400314030424404" lon="16.893611822673407"><ele>316.0</ele><time>2026-03-29T11:28:28.999Z</time></trkpt><trkpt lat="39.400369560059524" lon="16.89346779614872"><ele>316.0</ele><time>2026-03-29T11:28:31Z</time></trkpt><trkpt lat="39.40039956062951" lon="16.893385730966312"><ele>316.0</ele><time>2026-03-29T11:28:32Z</time></trkpt><trkpt lat="39.400421631231154" lon="16.89330135584587"><ele>316.0</ele><time>2026-03-29T11:28:33Z</time></trkpt><trkpt lat="39.40044336769816" lon="16.89322429902321"><ele>316.0</ele><time>2026-03-29T11:28:34Z</time></trkpt><trkpt lat="39.400475208423735" lon="16.89308808569648"><ele>316.0</ele><time>2026-03-29T11:28:36Z</time></trkpt><trkpt lat="39.4004876242727" lon="16.89295928180878"><ele>314.40000000000003</ele><time>2026-03-29T11:28:38Z</time></trkpt><trkpt lat="39.400479045636274" lon="16.89282312807962"><ele>312.8</ele><time>2026-03-29T11:28:40Z</time></trkpt><trkpt lat="39.40050381238005" lon="16.892671141800452"><ele>311.20000000000005</ele><time>2026-03-29T11:28:42Z</time></trkpt><trkpt lat="39.400520159179315" lon="16.892589506451976"><ele>309.6</ele><time>2026-03-29T11:28:43Z</time></trkpt><trkpt lat="39.40053250128894" lon="16.892509233166496"><ele>308.0</ele><time>2026-03-29T11:28:44Z</time></trkpt><trkpt lat="39.40057065603085" lon="16.892356041644167"><ele>306.33333333333337</ele><time>2026-03-29T11:28:46Z</time></trkpt><trkpt lat="39.40061106293363" lon="16.892282106195914"><ele>304.6666666666667</ele><time>2026-03-29T11:28:47Z</time></trkpt><trkpt lat="39.40064814019556" lon="16.892214249351493"><ele>303.0</ele><time>2026-03-29T11:28:48Z</time></trkpt><trkpt lat="39.40072453392916" lon="16.892116278369464"><ele>301.3333333333333</ele><time>2026-03-29T11:28:50Z</time></trkpt><trkpt lat="39.40080958781228" lon="16.892071429870832"><ele>299.66666666666663</ele><time>2026-03-29T11:28:52Z</time></trkpt><trkpt lat="39.400898168614525" lon="16.892059320697786"><ele>298.0</ele><time>2026-03-29T11:28:54Z</time></trkpt><trkpt lat="39.400983766544435" lon="16.892064060663706"><ele>298.0</ele><time>2026-03-29T11:28:56Z</time></trkpt><trkpt lat="39.401059114725946" lon="16.892103187791555"><ele>298.0</ele><time>2026-03-29T11:28:58Z</time></trkpt><trkpt lat="39.40113788385671" lon="16.89211328419997"><ele>298.0</ele><time>2026-03-29T11:29:01Z</time></trkpt><trkpt lat="39.40114800632296" lon="16.892006271445865"><ele>298.0</ele><time>2026-03-29T11:29:03Z</time></trkpt><trkpt lat="39.401154958773" lon="16.891878776198098"><ele>298.0</ele><time>2026-03-29T11:29:05Z</time></trkpt><trkpt lat="39.401149005509076" lon="16.891738453291843"><ele>295.8</ele><time>2026-03-29T11:29:07Z</time></trkpt><trkpt lat="39.40114683629999" lon="16.891586821101264"><ele>293.6</ele><time>2026-03-29T11:29:09Z</time></trkpt><trkpt lat="39.40114372045857" lon="16.891442312002436"><ele>291.4</ele><time>2026-03-29T11:29:11Z</time></trkpt><trkpt lat="39.4011290840296" lon="16.891331671323055"><ele>289.2</ele><time>2026-03-29T11:29:13Z</time></trkpt><trkpt lat="39.40110653100982" lon="16.891223666187553"><ele>287.0</ele><time>2026-03-29T11:29:15Z</time></trkpt><trkpt lat="39.401091974515765" lon="16.891129478492243"><ele>287.0</ele><time>2026-03-29T11:29:17Z</time></trkpt><trkpt lat="39.40103505804815" lon="16.891057190598247"><ele>287.0</ele><time>2026-03-29T11:29:19Z</time></trkpt><trkpt lat="39.40098999581968" lon="16.890979612394574"><ele>287.0</ele><time>2026-03-29T11:29:21Z</time></trkpt><trkpt lat="39.40096893936891" lon="16.890892661666268"><ele>287.0</ele><time>2026-03-29T11:29:23Z</time></trkpt><trkpt lat="39.40099333664913" lon="16.890748027987875"><ele>287.0</ele><time>2026-03-29T11:29:25Z</time></trkpt><trkpt lat="39.40101474153812" lon="16.89063801929291"><ele>287.0</ele><time>2026-03-29T11:29:28Z</time></trkpt><trkpt lat="39.40106742891819" lon="16.890526495747338"><ele>286.2857142857143</ele><time>2026-03-29T11:29:30Z</time></trkpt><trkpt lat="39.4010837786849" lon="16.890445122819752"><ele>285.57142857142856</ele><time>2026-03-29T11:29:31Z</time></trkpt><trkpt lat="39.40108388709478" lon="16.890355345753655"><ele>284.8571428571429</ele><time>2026-03-29T11:29:32Z</time></trkpt><trkpt lat="39.40108997409765" lon="16.890263728510526"><ele>284.1428571428571</ele><time>2026-03-29T11:29:33Z</time></trkpt><trkpt lat="39.40108238419146" lon="16.89017185543149"><ele>283.42857142857144</ele><time>2026-03-29T11:29:34Z</time></trkpt><trkpt lat="39.401062421095126" lon="16.890080677657757"><ele>282.7142857142857</ele><time>2026-03-29T11:29:35Z</time></trkpt><trkpt lat="39.4010538477618" lon="16.889978716967516"><ele>282.0</ele><time>2026-03-29T11:29:36Z</time></trkpt><trkpt lat="39.40107592675031" lon="16.889877149274927"><ele>281.3333333333333</ele><time>2026-03-29T11:29:37Z</time></trkpt><trkpt lat="39.40109304452733" lon="16.889789254802405"><ele>280.6666666666667</ele><time>2026-03-29T11:29:38Z</time></trkpt><trkpt lat="39.40112851069069" lon="16.889643752913592"><ele>280.0</ele><time>2026-03-29T11:29:40Z</time></trkpt><trkpt lat="39.40115873934298" lon="16.88956787161444"><ele>279.33333333333337</ele><time>2026-03-29T11:29:41Z</time></trkpt><trkpt lat="39.40119901332625" lon="16.889478440172393"><ele>278.6666666666667</ele><time>2026-03-29T11:29:42Z</time></trkpt><trkpt lat="39.40121176809229" lon="16.889364928118454"><ele>278.0</ele><time>2026-03-29T11:29:43Z</time></trkpt><trkpt lat="39.40121924148305" lon="16.889263334058718"><ele>278.8</ele><time>2026-03-29T11:29:44Z</time></trkpt><trkpt lat="39.40122852903129" lon="16.88917167457618"><ele>279.6</ele><time>2026-03-29T11:29:45Z</time></trkpt><trkpt lat="39.40125491501613" lon="16.889096244481383"><ele>280.4</ele><time>2026-03-29T11:29:46Z</time></trkpt><trkpt lat="39.40131062640989" lon="16.88896497014991"><ele>281.2</ele><time>2026-03-29T11:29:48Z</time></trkpt><trkpt lat="39.40135913675406" lon="16.888862502542807"><ele>282.0</ele><time>2026-03-29T11:29:50Z</time></trkpt><trkpt lat="39.401427350270524" lon="16.888732715792024"><ele>278.6</ele><time>2026-03-29T11:29:52Z</time></trkpt><trkpt lat="39.40147559262514" lon="16.88861669325015"><ele>275.2</ele><time>2026-03-29T11:29:54Z</time></trkpt><trkpt lat="39.40152960795353" lon="16.888500848905863"><ele>271.8</ele><time>2026-03-29T11:29:57Z</time></trkpt><trkpt lat="39.40160203791074" lon="16.88835789633589"><ele>268.4</ele><time>2026-03-29T11:29:59Z</time></trkpt><trkpt lat="39.40164850850245" lon="16.88829984061288"><ele>265.0</ele><time>2026-03-29T11:30:00Z</time></trkpt><trkpt lat="39.40169669350459" lon="16.88824422941322"><ele>264.99999999999994</ele><time>2026-03-29T11:30:01Z</time></trkpt><trkpt lat="39.40174691579146" lon="16.888192607178834"><ele>265.0</ele><time>2026-03-29T11:30:02Z</time></trkpt><trkpt lat="39.401800570453084" lon="16.88813381965911"><ele>265.0</ele><time>2026-03-29T11:30:03Z</time></trkpt><trkpt lat="39.4018605884907" lon="16.888070947361047"><ele>265.0</ele><time>2026-03-29T11:30:04Z</time></trkpt><trkpt lat="39.40190678642205" lon="16.888000178339635"><ele>265.0</ele><time>2026-03-29T11:30:05Z</time></trkpt><trkpt lat="39.401948615592204" lon="16.887928519322468"><ele>264.99999999999994</ele><time>2026-03-29T11:30:06Z</time></trkpt><trkpt lat="39.402010199253816" lon="16.88787030265086"><ele>265.0</ele><time>2026-03-29T11:30:07Z</time></trkpt><trkpt lat="39.402077275367525" lon="16.887820048548434"><ele>264.99999999999994</ele><time>2026-03-29T11:30:08Z</time></trkpt><trkpt lat="39.40213066120851" lon="16.88776049407361"><ele>265.0</ele><time>2026-03-29T11:30:09Z</time></trkpt><trkpt lat="39.402165470958565" lon="16.887682104366437"><ele>265.0</ele><time>2026-03-29T11:30:09.999Z</time></trkpt><trkpt lat="39.40218558982345" lon="16.887592590940503"><ele>265.0</ele><time>2026-03-29T11:30:10.999Z</time></trkpt><trkpt lat="39.40220398578045" lon="16.88749870110998"><ele>265.0</ele><time>2026-03-29T11:30:11.999Z</time></trkpt><trkpt lat="39.4022242234799" lon="16.88741499581101"><ele>264.99999999999994</ele><time>2026-03-29T11:30:12.999Z</time></trkpt><trkpt lat="39.40224877318516" lon="16.887337671344383"><ele>265.0</ele><time>2026-03-29T11:30:13.999Z</time></trkpt><trkpt lat="39.40229009868861" lon="16.887214649371835"><ele>262.8333333333333</ele><time>2026-03-29T11:30:15.999Z</time></trkpt><trkpt lat="39.40234232668714" lon="16.887164878454236"><ele>260.66666666666663</ele><time>2026-03-29T11:30:16.999Z</time></trkpt><trkpt lat="39.40240976010417" lon="16.88711912480089"><ele>258.5</ele><time>2026-03-29T11:30:17.999Z</time></trkpt><trkpt lat="39.40246742405943" lon="16.88706779438259"><ele>256.3333333333333</ele><time>2026-03-29T11:30:18.999Z</time></trkpt><trkpt lat="39.40250659305242" lon="16.887003419116816"><ele>254.16666666666666</ele><time>2026-03-29T11:30:19.999Z</time></trkpt><trkpt lat="39.40252843494307" lon="16.886877912345312"><ele>252.0</ele><time>2026-03-29T11:30:21.999Z</time></trkpt><trkpt lat="39.402578619998984" lon="16.886781061412204"><ele>250.28571428571428</ele><time>2026-03-29T11:30:23.999Z</time></trkpt><trkpt lat="39.40263125849713" lon="16.886724065099532"><ele>248.57142857142856</ele><time>2026-03-29T11:30:24.999Z</time></trkpt><trkpt lat="39.40269618008963" lon="16.88666905327136"><ele>246.85714285714286</ele><time>2026-03-29T11:30:25.999Z</time></trkpt><trkpt lat="39.40274860131278" lon="16.886607478616472"><ele>245.14285714285714</ele><time>2026-03-29T11:30:26.999Z</time></trkpt><trkpt lat="39.40279149352672" lon="16.88653672723986"><ele>243.42857142857142</ele><time>2026-03-29T11:30:27.999Z</time></trkpt><trkpt lat="39.40282749763014" lon="16.88646066946327"><ele>241.71428571428572</ele><time>2026-03-29T11:30:28.999Z</time></trkpt><trkpt lat="39.402863335854335" lon="16.88638395333207"><ele>240.0</ele><time>2026-03-29T11:30:29.999Z</time></trkpt><trkpt lat="39.40290911764194" lon="16.886313786068822"><ele>240.0</ele><time>2026-03-29T11:30:30.999Z</time></trkpt><trkpt lat="39.40295394632769" lon="16.88624538977783"><ele>240.0</ele><time>2026-03-29T11:30:31.999Z</time></trkpt><trkpt lat="39.40299492298596" lon="16.88617986175446"><ele>240.0</ele><time>2026-03-29T11:30:32.999Z</time></trkpt><trkpt lat="39.403038366613046" lon="16.886120442197576"><ele>240.0</ele><time>2026-03-29T11:30:33.999Z</time></trkpt><trkpt lat="39.403142327657605" lon="16.886026657023983"><ele>240.0</ele><time>2026-03-29T11:30:35.999Z</time></trkpt><trkpt lat="39.40318902839213" lon="16.885908844216694"><ele>240.0</ele><time>2026-03-29T11:30:37.999Z</time></trkpt><trkpt lat="39.40322633352417" lon="16.885787785578568"><ele>236.5</ele><time>2026-03-29T11:30:39.999Z</time></trkpt><trkpt lat="39.40328452179325" lon="16.885656840850757"><ele>233.0</ele><time>2026-03-29T11:30:41.999Z</time></trkpt><trkpt lat="39.403318401069384" lon="16.88557820378567"><ele>229.5</ele><time>2026-03-29T11:30:42.999Z</time></trkpt><trkpt lat="39.4033612175523" lon="16.88549790717167"><ele>226.0</ele><time>2026-03-29T11:30:43.999Z</time></trkpt><trkpt lat="39.403410886672596" lon="16.885425919140527"><ele>222.5</ele><time>2026-03-29T11:30:44.999Z</time></trkpt><trkpt lat="39.403491234181374" lon="16.885324595755005"><ele>219.0</ele><time>2026-03-29T11:30:46.999Z</time></trkpt><trkpt lat="39.403510742202506" lon="16.885206267977036"><ele>216.39999999999998</ele><time>2026-03-29T11:30:48.999Z</time></trkpt><trkpt lat="39.40349695201463" lon="16.885052504198843"><ele>213.79999999999998</ele><time>2026-03-29T11:30:50.999Z</time></trkpt><trkpt lat="39.4034860595273" lon="16.88496947635657"><ele>211.2</ele><time>2026-03-29T11:30:51.999Z</time></trkpt><trkpt lat="39.40346781747606" lon="16.88484139950115"><ele>208.60000000000002</ele><time>2026-03-29T11:30:53.999Z</time></trkpt><trkpt lat="39.40350922826255" lon="16.88475876663869"><ele>206.0</ele><time>2026-03-29T11:30:56.999Z</time></trkpt><trkpt lat="39.40354804895316" lon="16.884874691668813"><ele>206.00000000000003</ele><time>2026-03-29T11:30:59.999Z</time></trkpt><trkpt lat="39.40359960018984" lon="16.884982758956138"><ele>206.0</ele><time>2026-03-29T11:31:01.999Z</time></trkpt><trkpt lat="39.40364517150066" lon="16.885070567754433"><ele>206.0</ele><time>2026-03-29T11:31:03.999Z</time></trkpt><trkpt lat="39.40371399351826" lon="16.88510021449275"><ele>206.0</ele><time>2026-03-29T11:31:06.999Z</time></trkpt><trkpt lat="39.40372361596102" lon="16.885011739072965"><ele>206.00000000000003</ele><time>2026-03-29T11:31:08.999Z</time></trkpt><trkpt lat="39.40370800210204" lon="16.88489108179049"><ele>206.0</ele><time>2026-03-29T11:31:10.999Z</time></trkpt><trkpt lat="39.40373835759864" lon="16.88479496349198"><ele>206.00000000000003</ele><time>2026-03-29T11:31:12.999Z</time></trkpt><trkpt lat="39.403799589129875" lon="16.884746111571012"><ele>206.0</ele><time>2026-03-29T11:31:15.999Z</time></trkpt><trkpt lat="39.40387458199039" lon="16.884768507982926"><ele>206.0</ele><time>2026-03-29T11:31:17.999Z</time></trkpt><trkpt lat="39.403929056981895" lon="16.884673543011036"><ele>206.0</ele><time>2026-03-29T11:31:19.999Z</time></trkpt><trkpt lat="39.403970365611784" lon="16.884565293594815"><ele>206.00000000000003</ele><time>2026-03-29T11:31:21.999Z</time></trkpt><trkpt lat="39.40399477795557" lon="16.88448910395149"><ele>206.0</ele><time>2026-03-29T11:31:26.999Z</time></trkpt><trkpt lat="39.404005621723734" lon="16.88440546147807"><ele>207.8</ele><time>2026-03-29T11:31:30.999Z</time></trkpt><trkpt lat="39.40406912028676" lon="16.884438895860615"><ele>209.60000000000002</ele><time>2026-03-29T11:31:52.999Z</time></trkpt><trkpt lat="39.40406601843593" lon="16.884542242972266"><ele>211.4</ele><time>2026-03-29T11:31:54.999Z</time></trkpt><trkpt lat="39.404079319300806" lon="16.88467405561036"><ele>213.2</ele><time>2026-03-29T11:31:56.999Z</time></trkpt><trkpt lat="39.404084547665455" lon="16.884825031551088"><ele>215.0</ele><time>2026-03-29T11:31:58.999Z</time></trkpt><trkpt lat="39.404066471978055" lon="16.884956976294475"><ele>215.0</ele><time>2026-03-29T11:32:00.999Z</time></trkpt><trkpt lat="39.404031167352095" lon="16.885090884952533"><ele>215.0</ele><time>2026-03-29T11:32:02.999Z</time></trkpt><trkpt lat="39.40399936529952" lon="16.885217851189843"><ele>215.0</ele><time>2026-03-29T11:32:04.999Z</time></trkpt><trkpt lat="39.4039167391898" lon="16.88534012975152"><ele>215.0</ele><time>2026-03-29T11:32:06.999Z</time></trkpt><trkpt lat="39.40384761812483" lon="16.88546447513501"><ele>215.66666666666669</ele><time>2026-03-29T11:32:08.999Z</time></trkpt><trkpt lat="39.40378679341348" lon="16.885599742653234"><ele>216.33333333333334</ele><time>2026-03-29T11:32:10.999Z</time></trkpt><trkpt lat="39.40375275031337" lon="16.885673530327484"><ele>217.0</ele><time>2026-03-29T11:32:11.999Z</time></trkpt><trkpt lat="39.403720350768545" lon="16.885747604381297"><ele>217.66666666666669</ele><time>2026-03-29T11:32:12.999Z</time></trkpt><trkpt lat="39.40368040961469" lon="16.88589605164241"><ele>218.33333333333334</ele><time>2026-03-29T11:32:14.999Z</time></trkpt><trkpt lat="39.403657861960895" lon="16.885975176331264"><ele>219.0</ele><time>2026-03-29T11:32:15.999Z</time></trkpt><trkpt lat="39.40357596021277" lon="16.886090261691876"><ele>221.85714285714286</ele><time>2026-03-29T11:32:17.999Z</time></trkpt><trkpt lat="39.40352608138492" lon="16.886176314249617"><ele>224.71428571428572</ele><time>2026-03-29T11:32:19.999Z</time></trkpt><trkpt lat="39.40347853711893" lon="16.88623060672751"><ele>227.57142857142858</ele><time>2026-03-29T11:32:22.999Z</time></trkpt><trkpt lat="39.40343186276123" lon="16.88629728446566"><ele>230.42857142857144</ele><time>2026-03-29T11:32:25.999Z</time></trkpt><trkpt lat="39.40339005507108" lon="16.886364426517222"><ele>233.28571428571428</ele><time>2026-03-29T11:32:27.999Z</time></trkpt><trkpt lat="39.40343302609075" lon="16.886427702073863"><ele>236.14285714285717</ele><time>2026-03-29T11:32:29.999Z</time></trkpt><trkpt lat="39.40350995329475" lon="16.8864056475999"><ele>239.00000000000003</ele><time>2026-03-29T11:32:31.999Z</time></trkpt><trkpt lat="39.40359495775264" lon="16.886363598377542"><ele>239.00000000000003</ele><time>2026-03-29T11:32:33.999Z</time></trkpt><trkpt lat="39.40367142017612" lon="16.886414297272477"><ele>239.0</ele><time>2026-03-29T11:32:35.999Z</time></trkpt><trkpt lat="39.403735504070156" lon="16.886427052436183"><ele>239.0</ele><time>2026-03-29T11:32:37.999Z</time></trkpt><trkpt lat="39.40378409370072" lon="16.886368720671864"><ele>239.0</ele><time>2026-03-29T11:32:39.999Z</time></trkpt><trkpt lat="39.4038220155185" lon="16.88625496303242"><ele>239.00000000000003</ele><time>2026-03-29T11:32:41.999Z</time></trkpt><trkpt lat="39.40389444877542" lon="16.886145044939123"><ele>239.0</ele><time>2026-03-29T11:32:43.999Z</time></trkpt><trkpt lat="39.403976537898025" lon="16.886044183037345"><ele>237.79999999999998</ele><time>2026-03-29T11:32:45.999Z</time></trkpt><trkpt lat="39.40406228338941" lon="16.88593822115766"><ele>236.59999999999997</ele><time>2026-03-29T11:32:47.999Z</time></trkpt><trkpt lat="39.404134013345136" lon="16.885843054416455"><ele>235.4</ele><time>2026-03-29T11:32:49.999Z</time></trkpt><trkpt lat="39.40419936653201" lon="16.88574735127735"><ele>234.2</ele><time>2026-03-29T11:32:51.999Z</time></trkpt><trkpt lat="39.404252352959766" lon="16.885672156164834"><ele>233.0</ele><time>2026-03-29T11:32:53.999Z</time></trkpt><trkpt lat="39.40434023382376" lon="16.885658152404854"><ele>233.0</ele><time>2026-03-29T11:32:55.999Z</time></trkpt><trkpt lat="39.40444711996453" lon="16.885628318810557"><ele>233.0</ele><time>2026-03-29T11:32:57.999Z</time></trkpt><trkpt lat="39.40455376520193" lon="16.885572119091456"><ele>233.0</ele><time>2026-03-29T11:32:59.999Z</time></trkpt><trkpt lat="39.404629327775844" lon="16.88560019319719"><ele>233.0</ele><time>2026-03-29T11:33:01.999Z</time></trkpt><trkpt lat="39.404631644619855" lon="16.88571233758844"><ele>233.0</ele><time>2026-03-29T11:33:03.999Z</time></trkpt><trkpt lat="39.40456537772302" lon="16.885815802596397"><ele>237.60000000000002</ele><time>2026-03-29T11:33:05.999Z</time></trkpt><trkpt lat="39.40451549880797" lon="16.88593809143242"><ele>242.20000000000002</ele><time>2026-03-29T11:33:07.999Z</time></trkpt><trkpt lat="39.404445518470034" lon="16.886028682360955"><ele>246.8</ele><time>2026-03-29T11:33:09.999Z</time></trkpt><trkpt lat="39.40437392188219" lon="16.88610597419391"><ele>251.4</ele><time>2026-03-29T11:33:11.999Z</time></trkpt><trkpt lat="39.40431592387194" lon="16.886191816003677"><ele>256.0</ele><time>2026-03-29T11:33:14.999Z</time></trkpt><trkpt lat="39.40425882611109" lon="16.886230743235327"><ele>255.99999999999997</ele><time>2026-03-29T11:33:17.999Z</time></trkpt><trkpt lat="39.40416463088258" lon="16.886288563859456"><ele>256.0</ele><time>2026-03-29T11:33:22.999Z</time></trkpt><trkpt lat="39.40410041834204" lon="16.886331310861273"><ele>256.0</ele><time>2026-03-29T11:33:23.999Z</time></trkpt><trkpt lat="39.404052932384175" lon="16.886406776774628"><ele>256.0</ele><time>2026-03-29T11:33:24.999Z</time></trkpt><trkpt lat="39.40401009532749" lon="16.88649061749564"><ele>255.99999999999997</ele><time>2026-03-29T11:33:25.999Z</time></trkpt><trkpt lat="39.40398664702463" lon="16.886578964927022"><ele>256.0</ele><time>2026-03-29T11:33:26.999Z</time></trkpt><trkpt lat="39.40397258070235" lon="16.88666261088264"><ele>257.2</ele><time>2026-03-29T11:33:27.999Z</time></trkpt><trkpt lat="39.4039448251166" lon="16.886814286641094"><ele>258.40000000000003</ele><time>2026-03-29T11:33:29.999Z</time></trkpt><trkpt lat="39.403856715178655" lon="16.88692007450926"><ele>259.6</ele><time>2026-03-29T11:33:31.999Z</time></trkpt><trkpt lat="39.40378951351395" lon="16.88695690847161"><ele>260.8</ele><time>2026-03-29T11:33:32.999Z</time></trkpt><trkpt lat="39.40371217514759" lon="16.886981352570803"><ele>262.0</ele><time>2026-03-29T11:33:33.999Z</time></trkpt><trkpt lat="39.403628144386154" lon="16.887007389712352"><ele>262.0</ele><time>2026-03-29T11:33:34.999Z</time></trkpt><trkpt lat="39.40354585395393" lon="16.88704923382026"><ele>262.0</ele><time>2026-03-29T11:33:35.999Z</time></trkpt><trkpt lat="39.40347769364865" lon="16.887109177752567"><ele>262.0</ele><time>2026-03-29T11:33:36.999Z</time></trkpt><trkpt lat="39.403423603915165" lon="16.88716179919814"><ele>262.0</ele><time>2026-03-29T11:33:37.998Z</time></trkpt><trkpt lat="39.403376598011945" lon="16.887222159349413"><ele>262.0</ele><time>2026-03-29T11:33:38.998Z</time></trkpt><trkpt lat="39.40334383985956" lon="16.88730049902931"><ele>262.0</ele><time>2026-03-29T11:33:39.998Z</time></trkpt><trkpt lat="39.40331269559516" lon="16.887387215041063"><ele>262.0</ele><time>2026-03-29T11:33:40.998Z</time></trkpt><trkpt lat="39.40331044457174" lon="16.887482264634045"><ele>262.0</ele><time>2026-03-29T11:33:41.998Z</time></trkpt><trkpt lat="39.40331942160173" lon="16.887571829867376"><ele>262.0</ele><time>2026-03-29T11:33:42.998Z</time></trkpt><trkpt lat="39.40333992665127" lon="16.887664773846158"><ele>262.0</ele><time>2026-03-29T11:33:43.998Z</time></trkpt><trkpt lat="39.40338723163445" lon="16.887739161895997"><ele>262.0</ele><time>2026-03-29T11:33:44.998Z</time></trkpt><trkpt lat="39.40344148973277" lon="16.88779692904165"><ele>262.0</ele><time>2026-03-29T11:33:45.998Z</time></trkpt><trkpt lat="39.40350773828421" lon="16.887794128834013"><ele>262.0</ele><time>2026-03-29T11:33:46.998Z</time></trkpt><trkpt lat="39.40357473701765" lon="16.88776076754655"><ele>262.0</ele><time>2026-03-29T11:33:47.998Z</time></trkpt><trkpt lat="39.4036540446307" lon="16.88773887471143"><ele>264.3333333333333</ele><time>2026-03-29T11:33:48.998Z</time></trkpt><trkpt lat="39.403741319301474" lon="16.887723023314727"><ele>266.66666666666663</ele><time>2026-03-29T11:33:49.998Z</time></trkpt><trkpt lat="39.40383148278966" lon="16.887707698721016"><ele>269.0</ele><time>2026-03-29T11:33:50.998Z</time></trkpt><trkpt lat="39.403913670058344" lon="16.887693391453464"><ele>271.3333333333333</ele><time>2026-03-29T11:33:51.998Z</time></trkpt><trkpt lat="39.403991088736" lon="16.88768506963845"><ele>273.6666666666667</ele><time>2026-03-29T11:33:52.998Z</time></trkpt><trkpt lat="39.40406570508699" lon="16.887636771568754"><ele>276.0</ele><time>2026-03-29T11:33:53.998Z</time></trkpt><trkpt lat="39.40414403455749" lon="16.887552693597858"><ele>276.0</ele><time>2026-03-29T11:33:54.998Z</time></trkpt><trkpt lat="39.40422425462389" lon="16.88746371987978"><ele>276.0</ele><time>2026-03-29T11:33:55.998Z</time></trkpt><trkpt lat="39.40429257388523" lon="16.88737763394942"><ele>276.0</ele><time>2026-03-29T11:33:56.998Z</time></trkpt><trkpt lat="39.40434478645103" lon="16.88730428795502"><ele>276.0</ele><time>2026-03-29T11:33:57.998Z</time></trkpt><trkpt lat="39.40439462192385" lon="16.88725124879005"><ele>276.0</ele><time>2026-03-29T11:33:58.998Z</time></trkpt><trkpt lat="39.40445958956063" lon="16.88721891830086"><ele>276.0</ele><time>2026-03-29T11:33:59.998Z</time></trkpt><trkpt lat="39.404541492944205" lon="16.887205489594933"><ele>276.0</ele><time>2026-03-29T11:34:00.998Z</time></trkpt><trkpt lat="39.40462547983903" lon="16.887210771656257"><ele>276.0</ele><time>2026-03-29T11:34:01.998Z</time></trkpt><trkpt lat="39.40469162976965" lon="16.887226112475997"><ele>276.0</ele><time>2026-03-29T11:34:02.998Z</time></trkpt><trkpt lat="39.40476191834685" lon="16.887343236962106"><ele>276.0</ele><time>2026-03-29T11:34:04.998Z</time></trkpt><trkpt lat="39.404763919109286" lon="16.887429970733255"><ele>276.0</ele><time>2026-03-29T11:34:05.998Z</time></trkpt><trkpt lat="39.40469484716379" lon="16.887573170513587"><ele>277.7142857142857</ele><time>2026-03-29T11:34:07.998Z</time></trkpt><trkpt lat="39.40468951854381" lon="16.887658143423515"><ele>279.42857142857144</ele><time>2026-03-29T11:34:08.998Z</time></trkpt><trkpt lat="39.40468738197265" lon="16.887743862712178"><ele>281.14285714285717</ele><time>2026-03-29T11:34:09.998Z</time></trkpt><trkpt lat="39.40468547636167" lon="16.887829605067644"><ele>282.8571428571429</ele><time>2026-03-29T11:34:10.998Z</time></trkpt><trkpt lat="39.40468126498774" lon="16.88792008285297"><ele>284.57142857142856</ele><time>2026-03-29T11:34:11.998Z</time></trkpt><trkpt lat="39.404673072062224" lon="16.88802452688104"><ele>286.28571428571433</ele><time>2026-03-29T11:34:12.998Z</time></trkpt><trkpt lat="39.40465805584217" lon="16.88814383004869"><ele>288.0</ele><time>2026-03-29T11:34:13.998Z</time></trkpt><trkpt lat="39.4046467378039" lon="16.88827118502132"><ele>288.0</ele><time>2026-03-29T11:34:14.998Z</time></trkpt><trkpt lat="39.404638153058684" lon="16.888394567291126"><ele>288.0</ele><time>2026-03-29T11:34:15.998Z</time></trkpt><trkpt lat="39.40463029351349" lon="16.888499869953876"><ele>288.0</ele><time>2026-03-29T11:34:16.998Z</time></trkpt><trkpt lat="39.40462162578918" lon="16.88858837126574"><ele>288.0</ele><time>2026-03-29T11:34:17.998Z</time></trkpt><trkpt lat="39.40458897787718" lon="16.88874191485782"><ele>288.0</ele><time>2026-03-29T11:34:19.998Z</time></trkpt><trkpt lat="39.404546101679536" lon="16.888840173656913"><ele>289.8333333333333</ele><time>2026-03-29T11:34:20.998Z</time></trkpt><trkpt lat="39.40452867497717" lon="16.888962728619564"><ele>291.6666666666667</ele><time>2026-03-29T11:34:21.998Z</time></trkpt><trkpt lat="39.40452680589945" lon="16.88906899273055"><ele>293.5</ele><time>2026-03-29T11:34:22.998Z</time></trkpt><trkpt lat="39.404527607035064" lon="16.889176324463378"><ele>295.33333333333337</ele><time>2026-03-29T11:34:23.998Z</time></trkpt><trkpt lat="39.40452965687088" lon="16.889281100384455"><ele>297.1666666666667</ele><time>2026-03-29T11:34:24.998Z</time></trkpt><trkpt lat="39.404529049587254" lon="16.88937686928768"><ele>299.0</ele><time>2026-03-29T11:34:25.998Z</time></trkpt><trkpt lat="39.40452619692232" lon="16.88947469262549"><ele>302.2</ele><time>2026-03-29T11:34:26.998Z</time></trkpt><trkpt lat="39.40450677101157" lon="16.889620487899116"><ele>305.4</ele><time>2026-03-29T11:34:28.998Z</time></trkpt><trkpt lat="39.404474153765385" lon="16.88973541406812"><ele>308.6</ele><time>2026-03-29T11:34:30.998Z</time></trkpt><trkpt lat="39.404415951888595" lon="16.889818680428995"><ele>311.8</ele><time>2026-03-29T11:34:33.997Z</time></trkpt><trkpt lat="39.40433443055889" lon="16.88992198628927"><ele>315.0</ele><time>2026-03-29T11:34:35.997Z</time></trkpt><trkpt lat="39.404279084999196" lon="16.889994842683286"><ele>315.0</ele><time>2026-03-29T11:34:36.997Z</time></trkpt><trkpt lat="39.404226583350194" lon="16.890067885626436"><ele>315.0</ele><time>2026-03-29T11:34:37.997Z</time></trkpt><trkpt lat="39.40417865495798" lon="16.890144587652415"><ele>315.0</ele><time>2026-03-29T11:34:38.997Z</time></trkpt><trkpt lat="39.40413588747527" lon="16.89022641131052"><ele>315.0</ele><time>2026-03-29T11:34:39.997Z</time></trkpt><trkpt lat="39.404098455174754" lon="16.89031400020447"><ele>315.0</ele><time>2026-03-29T11:34:40.997Z</time></trkpt><trkpt lat="39.40406394903797" lon="16.89041693114985"><ele>315.0</ele><time>2026-03-29T11:34:41.997Z</time></trkpt><trkpt lat="39.40403637847761" lon="16.890514427114688"><ele>317.1666666666667</ele><time>2026-03-29T11:34:42.997Z</time></trkpt><trkpt lat="39.40400830545955" lon="16.890613699876752"><ele>319.3333333333333</ele><time>2026-03-29T11:34:43.997Z</time></trkpt><trkpt lat="39.40397900217404" lon="16.890719081435574"><ele>321.5</ele><time>2026-03-29T11:34:44.997Z</time></trkpt><trkpt lat="39.40395050863759" lon="16.890824622055764"><ele>323.66666666666663</ele><time>2026-03-29T11:34:45.997Z</time></trkpt><trkpt lat="39.40392293124683" lon="16.89092422897817"><ele>325.8333333333333</ele><time>2026-03-29T11:34:46.997Z</time></trkpt><trkpt lat="39.403889602524465" lon="16.891016937858854"><ele>328.0</ele><time>2026-03-29T11:34:47.997Z</time></trkpt><trkpt lat="39.403851074617116" lon="16.891105686710425"><ele>328.4</ele><time>2026-03-29T11:34:48.997Z</time></trkpt><trkpt lat="39.40379786738817" lon="16.89117640566757"><ele>328.79999999999995</ele><time>2026-03-29T11:34:49.997Z</time></trkpt><trkpt lat="39.40373953723578" lon="16.89125575963752"><ele>329.2</ele><time>2026-03-29T11:34:50.997Z</time></trkpt><trkpt lat="39.40367479965167" lon="16.891350022224543"><ele>329.6</ele><time>2026-03-29T11:34:51.997Z</time></trkpt><trkpt lat="39.40361810865987" lon="16.891459737561483"><ele>330.0</ele><time>2026-03-29T11:34:52.997Z</time></trkpt><trkpt lat="39.403565814557695" lon="16.891564934066565"><ele>330.0</ele><time>2026-03-29T11:34:53.997Z</time></trkpt><trkpt lat="39.40351633404021" lon="16.89167257417622"><ele>330.0</ele><time>2026-03-29T11:34:54.997Z</time></trkpt><trkpt lat="39.40347333678661" lon="16.89179006901959"><ele>330.0</ele><time>2026-03-29T11:34:55.997Z</time></trkpt><trkpt lat="39.403432349465575" lon="16.891903341520468"><ele>330.0</ele><time>2026-03-29T11:34:56.997Z</time></trkpt><trkpt lat="39.40338289429796" lon="16.892016538321336"><ele>330.0</ele><time>2026-03-29T11:34:57.997Z</time></trkpt><trkpt lat="39.40332981597261" lon="16.892132399514054"><ele>330.2</ele><time>2026-03-29T11:34:58.997Z</time></trkpt><trkpt lat="39.403277122526376" lon="16.89224742057843"><ele>330.4</ele><time>2026-03-29T11:34:59.997Z</time></trkpt><trkpt lat="39.403224118480026" lon="16.89236838287141"><ele>330.6</ele><time>2026-03-29T11:35:00.997Z</time></trkpt><trkpt lat="39.40318763153746" lon="16.892489268100874"><ele>330.8</ele><time>2026-03-29T11:35:01.997Z</time></trkpt><trkpt lat="39.403163999800995" lon="16.892607230050306"><ele>331.0</ele><time>2026-03-29T11:35:02.997Z</time></trkpt><trkpt lat="39.40315394126333" lon="16.892723545454725"><ele>331.0</ele><time>2026-03-29T11:35:03.997Z</time></trkpt><trkpt lat="39.40315337926196" lon="16.892846165800606"><ele>331.0</ele><time>2026-03-29T11:35:04.997Z</time></trkpt><trkpt lat="39.40317364671492" lon="16.892980123607465"><ele>331.0</ele><time>2026-03-29T11:35:05.997Z</time></trkpt><trkpt lat="39.40321963749691" lon="16.893107568122662"><ele>331.0</ele><time>2026-03-29T11:35:06.997Z</time></trkpt><trkpt lat="39.40328199312776" lon="16.893214962065734"><ele>331.0</ele><time>2026-03-29T11:35:07.997Z</time></trkpt><trkpt lat="39.40336010410129" lon="16.893314858766058"><ele>331.0</ele><time>2026-03-29T11:35:08.997Z</time></trkpt><trkpt lat="39.40344066770447" lon="16.893403277863825"><ele>331.0</ele><time>2026-03-29T11:35:09.997Z</time></trkpt><trkpt lat="39.40352034458127" lon="16.893479269491376"><ele>331.0</ele><time>2026-03-29T11:35:10.997Z</time></trkpt><trkpt lat="39.40358861360909" lon="16.893554293702156"><ele>331.0</ele><time>2026-03-29T11:35:11.997Z</time></trkpt><trkpt lat="39.40366407486564" lon="16.893588324411294"><ele>331.0</ele><time>2026-03-29T11:35:12.999Z</time></trkpt><trkpt lat="39.40372450437231" lon="16.893639345900727"><ele>331.0</ele><time>2026-03-29T11:35:13.999Z</time></trkpt><trkpt lat="39.40376347827784" lon="16.893715681063057"><ele>329.3333333333333</ele><time>2026-03-29T11:35:14.999Z</time></trkpt><trkpt lat="39.403764999285194" lon="16.89381144123414"><ele>327.66666666666663</ele><time>2026-03-29T11:35:15.999Z</time></trkpt><trkpt lat="39.403757504133644" lon="16.893917068632515"><ele>326.0</ele><time>2026-03-29T11:35:16.999Z</time></trkpt><trkpt lat="39.403737671837554" lon="16.89402993518734"><ele>324.3333333333333</ele><time>2026-03-29T11:35:17.999Z</time></trkpt><trkpt lat="39.40372758653841" lon="16.894153929644897"><ele>322.6666666666667</ele><time>2026-03-29T11:35:18.999Z</time></trkpt><trkpt lat="39.40371733389186" lon="16.89427998155841"><ele>321.0</ele><time>2026-03-29T11:35:19.999Z</time></trkpt><trkpt lat="39.4037105791143" lon="16.89439407268733"><ele>321.0</ele><time>2026-03-29T11:35:20.999Z</time></trkpt><trkpt lat="39.403707132194036" lon="16.894492855459387"><ele>321.0</ele><time>2026-03-29T11:35:21.999Z</time></trkpt><trkpt lat="39.403703907830874" lon="16.89458395962826"><ele>321.0</ele><time>2026-03-29T11:35:22.999Z</time></trkpt><trkpt lat="39.40369258240124" lon="16.89471175284632"><ele>321.0</ele><time>2026-03-29T11:35:23.999Z</time></trkpt><trkpt lat="39.403769709265724" lon="16.89481878278072"><ele>321.0</ele><time>2026-03-29T11:35:25.999Z</time></trkpt><trkpt lat="39.40382871791907" lon="16.89486107638616"><ele>321.0</ele><time>2026-03-29T11:35:26.999Z</time></trkpt><trkpt lat="39.40388580337955" lon="16.894897175947523"><ele>321.1666666666667</ele><time>2026-03-29T11:35:27.999Z</time></trkpt><trkpt lat="39.40394359229525" lon="16.89493728808743"><ele>321.3333333333333</ele><time>2026-03-29T11:35:28.999Z</time></trkpt><trkpt lat="39.404002500090925" lon="16.894966265325134"><ele>321.5</ele><time>2026-03-29T11:35:29.999Z</time></trkpt><trkpt lat="39.404082320464944" lon="16.895036707613052"><ele>321.66666666666663</ele><time>2026-03-29T11:35:31.999Z</time></trkpt><trkpt lat="39.40415582354272" lon="16.895016894499374"><ele>321.8333333333333</ele><time>2026-03-29T11:35:33.999Z</time></trkpt><trkpt lat="39.40422488590679" lon="16.89502386443583"><ele>322.0</ele><time>2026-03-29T11:35:37.999Z</time></trkpt><trkpt lat="39.40429378450117" lon="16.89509979635592"><ele>321.40000000000003</ele><time>2026-03-29T11:35:39.999Z</time></trkpt><trkpt lat="39.404381047471894" lon="16.89515516573443"><ele>320.8</ele><time>2026-03-29T11:35:41.999Z</time></trkpt><trkpt lat="39.40447707006251" lon="16.89515674839976"><ele>320.2</ele><time>2026-03-29T11:35:43.999Z</time></trkpt><trkpt lat="39.404556717170124" lon="16.895143166693195"><ele>319.6</ele><time>2026-03-29T11:35:45.999Z</time></trkpt><trkpt lat="39.40462969499508" lon="16.89511142956811"><ele>319.0</ele><time>2026-03-29T11:35:47.999Z</time></trkpt><trkpt lat="39.404715046053205" lon="16.895044687449598"><ele>319.0</ele><time>2026-03-29T11:35:49.999Z</time></trkpt><trkpt lat="39.40480091734658" lon="16.895079904241147"><ele>319.0</ele><time>2026-03-29T11:35:51.999Z</time></trkpt><trkpt lat="39.40489067072503" lon="16.895198093252166"><ele>319.0</ele><time>2026-03-29T11:35:53.999Z</time></trkpt><trkpt lat="39.404941253722605" lon="16.89527340715698"><ele>319.0</ele><time>2026-03-29T11:35:54.999Z</time></trkpt><trkpt lat="39.40497877707763" lon="16.895368609893517"><ele>319.0</ele><time>2026-03-29T11:35:55.999Z</time></trkpt><trkpt lat="39.40502767797789" lon="16.895444386538824"><ele>316.5</ele><time>2026-03-29T11:35:56.999Z</time></trkpt><trkpt lat="39.40507359283793" lon="16.895510206339534"><ele>314.0</ele><time>2026-03-29T11:35:57.999Z</time></trkpt><trkpt lat="39.40512786094559" lon="16.895561406174735"><ele>311.5</ele><time>2026-03-29T11:35:58.999Z</time></trkpt><trkpt lat="39.40518909015127" lon="16.895606800719744"><ele>309.0</ele><time>2026-03-29T11:35:59.999Z</time></trkpt><trkpt lat="39.405253703105565" lon="16.895631131335325"><ele>306.5</ele><time>2026-03-29T11:36:00.999Z</time></trkpt><trkpt lat="39.405316239225634" lon="16.895653509921484"><ele>304.0</ele><time>2026-03-29T11:36:01.999Z</time></trkpt><trkpt lat="39.405426371499594" lon="16.89568984633896"><ele>304.8</ele><time>2026-03-29T11:36:03.999Z</time></trkpt><trkpt lat="39.405528828494745" lon="16.89571902407125"><ele>305.59999999999997</ele><time>2026-03-29T11:36:05.999Z</time></trkpt><trkpt lat="39.40561809664511" lon="16.895750707471063"><ele>306.4</ele><time>2026-03-29T11:36:07.999Z</time></trkpt><trkpt lat="39.40564586193234" lon="16.895839263728078"><ele>307.2</ele><time>2026-03-29T11:36:09.999Z</time></trkpt><trkpt lat="39.40568824412894" lon="16.895935585444384"><ele>308.0</ele><time>2026-03-29T11:36:11.999Z</time></trkpt><trkpt lat="39.40575211492996" lon="16.896029080511003"><ele>305.4</ele><time>2026-03-29T11:36:13.999Z</time></trkpt><trkpt lat="39.405807218151935" lon="16.89612497762911"><ele>302.8</ele><time>2026-03-29T11:36:15.999Z</time></trkpt><trkpt lat="39.4058678676568" lon="16.896226289547556"><ele>300.2</ele><time>2026-03-29T11:36:17.999Z</time></trkpt><trkpt lat="39.405930147096285" lon="16.896347402046203"><ele>297.6</ele><time>2026-03-29T11:36:19.999Z</time></trkpt><trkpt lat="39.405975936826955" lon="16.896483337536186"><ele>295.0</ele><time>2026-03-29T11:36:21.999Z</time></trkpt><trkpt lat="39.40600306378354" lon="16.89663742024436"><ele>295.0</ele><time>2026-03-29T11:36:23.999Z</time></trkpt><trkpt lat="39.40602121945159" lon="16.89671798124518"><ele>295.0</ele><time>2026-03-29T11:36:24.999Z</time></trkpt><trkpt lat="39.40605131446464" lon="16.89687395161949"><ele>295.0</ele><time>2026-03-29T11:36:26.999Z</time></trkpt><trkpt lat="39.40608206797334" lon="16.897002203508837"><ele>295.0</ele><time>2026-03-29T11:36:28.999Z</time></trkpt><trkpt lat="39.40611086440811" lon="16.897122293370007"><ele>295.0</ele><time>2026-03-29T11:36:30.999Z</time></trkpt><trkpt lat="39.40613561076243" lon="16.897225493170705"><ele>291.8</ele><time>2026-03-29T11:36:32.999Z</time></trkpt><trkpt lat="39.40615587891452" lon="16.897310017517732"><ele>288.6</ele><time>2026-03-29T11:36:35.999Z</time></trkpt><trkpt lat="39.40619349065734" lon="16.89743772051498"><ele>285.4</ele><time>2026-03-29T11:36:39.999Z</time></trkpt><trkpt lat="39.40620529284049" lon="16.8975722942535"><ele>282.2</ele><time>2026-03-29T11:36:41.999Z</time></trkpt><trkpt lat="39.406260540858916" lon="16.897676224515273"><ele>279.0</ele><time>2026-03-29T11:36:43.999Z</time></trkpt><trkpt lat="39.40631101232039" lon="16.897791508875674"><ele>277.4</ele><time>2026-03-29T11:36:45.999Z</time></trkpt><trkpt lat="39.4062902146005" lon="16.89794318135358"><ele>275.79999999999995</ele><time>2026-03-29T11:36:47.999Z</time></trkpt><trkpt lat="39.40628415771932" lon="16.898106602600574"><ele>274.20000000000005</ele><time>2026-03-29T11:36:49.999Z</time></trkpt><trkpt lat="39.4062753841642" lon="16.898199966754017"><ele>272.6</ele><time>2026-03-29T11:36:50.999Z</time></trkpt><trkpt lat="39.4062721055288" lon="16.898298533877703"><ele>271.0</ele><time>2026-03-29T11:36:51.999Z</time></trkpt><trkpt lat="39.406261366105284" lon="16.89839671777802"><ele>270.1428571428571</ele><time>2026-03-29T11:36:52.999Z</time></trkpt><trkpt lat="39.40624246616506" lon="16.898493791396938"><ele>269.2857142857143</ele><time>2026-03-29T11:36:53.999Z</time></trkpt><trkpt lat="39.40623776718751" lon="16.898595124699657"><ele>268.42857142857144</ele><time>2026-03-29T11:36:54.999Z</time></trkpt><trkpt lat="39.40623665232814" lon="16.898679230442692"><ele>267.57142857142856</ele><time>2026-03-29T11:36:55.999Z</time></trkpt><trkpt lat="39.4062312601623" lon="16.89876297436574"><ele>266.7142857142857</ele><time>2026-03-29T11:36:56.999Z</time></trkpt><trkpt lat="39.406224645355316" lon="16.898847358474754"><ele>265.85714285714283</ele><time>2026-03-29T11:36:57.999Z</time></trkpt><trkpt lat="39.40621496707237" lon="16.89893479518932"><ele>265.0</ele><time>2026-03-29T11:36:58.999Z</time></trkpt><trkpt lat="39.40620150360414" lon="16.899031141594506"><ele>265.0</ele><time>2026-03-29T11:36:59.999Z</time></trkpt><trkpt lat="39.406193808672775" lon="16.899130338204046"><ele>265.0</ele><time>2026-03-29T11:37:00.999Z</time></trkpt><trkpt lat="39.40616703489453" lon="16.8992243139391"><ele>265.0</ele><time>2026-03-29T11:37:01.999Z</time></trkpt><trkpt lat="39.40614284214153" lon="16.899324105059588"><ele>265.0</ele><time>2026-03-29T11:37:02.999Z</time></trkpt><trkpt lat="39.40612326711064" lon="16.899429261853687"><ele>265.0</ele><time>2026-03-29T11:37:03.999Z</time></trkpt><trkpt lat="39.40610717590993" lon="16.899536037481486"><ele>265.0</ele><time>2026-03-29T11:37:04.999Z</time></trkpt><trkpt lat="39.406107156981484" lon="16.899630707843247"><ele>264.0</ele><time>2026-03-29T11:37:05.999Z</time></trkpt><trkpt lat="39.406096559210575" lon="16.89971253742194"><ele>263.0</ele><time>2026-03-29T11:37:06.999Z</time></trkpt><trkpt lat="39.406048846577434" lon="16.89986433442729"><ele>262.0</ele><time>2026-03-29T11:37:08.999Z</time></trkpt><trkpt lat="39.406012381328175" lon="16.8999404671913"><ele>261.0</ele><time>2026-03-29T11:37:09.999Z</time></trkpt><trkpt lat="39.405978054978355" lon="16.900020055641708"><ele>260.0</ele><time>2026-03-29T11:37:10.999Z</time></trkpt><trkpt lat="39.405939016419154" lon="16.900096953066264"><ele>259.0</ele><time>2026-03-29T11:37:11.999Z</time></trkpt><trkpt lat="39.40591205984923" lon="16.90017781305958"><ele>258.0</ele><time>2026-03-29T11:37:12.999Z</time></trkpt><trkpt lat="39.40591265148803" lon="16.90026442250154"><ele>257.0</ele><time>2026-03-29T11:37:13.999Z</time></trkpt><trkpt lat="39.405918766780275" lon="16.900390671138876"><ele>255.99999999999997</ele><time>2026-03-29T11:37:15.999Z</time></trkpt><trkpt lat="39.405918759738306" lon="16.90049914818897"><ele>255.0</ele><time>2026-03-29T11:37:17.999Z</time></trkpt><trkpt lat="39.40587184394236" lon="16.90060976636952"><ele>254.0</ele><time>2026-03-29T11:37:19.999Z</time></trkpt><trkpt lat="39.40585386588041" lon="16.90076196180281"><ele>254.0</ele><time>2026-03-29T11:37:21.999Z</time></trkpt><trkpt lat="39.405837337307716" lon="16.90084271494607"><ele>254.0</ele><time>2026-03-29T11:37:22.999Z</time></trkpt><trkpt lat="39.40582910089231" lon="16.900926422574354"><ele>254.0</ele><time>2026-03-29T11:37:23.999Z</time></trkpt><trkpt lat="39.405811969830495" lon="16.90101019021906"><ele>254.0</ele><time>2026-03-29T11:37:24.999Z</time></trkpt><trkpt lat="39.40578016156564" lon="16.90109789094676"><ele>254.0</ele><time>2026-03-29T11:37:25.999Z</time></trkpt><trkpt lat="39.40576856616106" lon="16.901197436589218"><ele>254.0</ele><time>2026-03-29T11:37:26.999Z</time></trkpt><trkpt lat="39.40575433726407" lon="16.90129104077639"><ele>254.0</ele><time>2026-03-29T11:37:27.999Z</time></trkpt><trkpt lat="39.40573714470727" lon="16.90138004510623"><ele>253.0</ele><time>2026-03-29T11:37:28.999Z</time></trkpt><trkpt lat="39.40572347590906" lon="16.9014690217741"><ele>252.0</ele><time>2026-03-29T11:37:29.999Z</time></trkpt><trkpt lat="39.4057215865927" lon="16.90155837746573"><ele>251.0</ele><time>2026-03-29T11:37:30.999Z</time></trkpt><trkpt lat="39.40573924032627" lon="16.901642823681314"><ele>250.0</ele><time>2026-03-29T11:37:31.999Z</time></trkpt><trkpt lat="39.40575944040512" lon="16.901721446808118"><ele>249.0</ele><time>2026-03-29T11:37:32.999Z</time></trkpt><trkpt lat="39.40577338229489" lon="16.90180147659104"><ele>248.0</ele><time>2026-03-29T11:37:33.999Z</time></trkpt><trkpt lat="39.40579543281092" lon="16.901878492221122"><ele>247.0</ele><time>2026-03-29T11:37:34.999Z</time></trkpt><trkpt lat="39.4058444107231" lon="16.901932020059157"><ele>243.85714285714286</ele><time>2026-03-29T11:37:35.999Z</time></trkpt><trkpt lat="39.40588965859849" lon="16.90199308173501"><ele>240.71428571428572</ele><time>2026-03-29T11:37:36.999Z</time></trkpt><trkpt lat="39.40593464687647" lon="16.902059694798016"><ele>237.57142857142858</ele><time>2026-03-29T11:37:37.999Z</time></trkpt><trkpt lat="39.40598601423023" lon="16.90211770559724"><ele>234.42857142857144</ele><time>2026-03-29T11:37:38.999Z</time></trkpt><trkpt lat="39.4060326959722" lon="16.90219216720878"><ele>231.28571428571428</ele><time>2026-03-29T11:37:39.999Z</time></trkpt><trkpt lat="39.40607500818233" lon="16.902269246441485"><ele>228.14285714285717</ele><time>2026-03-29T11:37:40.999Z</time></trkpt><trkpt lat="39.406120276814285" lon="16.90233858014727"><ele>225.00000000000003</ele><time>2026-03-29T11:37:41.999Z</time></trkpt><trkpt lat="39.406169779809694" lon="16.902399139896264"><ele>225.0</ele><time>2026-03-29T11:37:42.999Z</time></trkpt><trkpt lat="39.406265700031376" lon="16.902493012504102"><ele>225.0</ele><time>2026-03-29T11:37:44.999Z</time></trkpt><trkpt lat="39.40637954878369" lon="16.902555869350365"><ele>225.0</ele><time>2026-03-29T11:37:46.999Z</time></trkpt><trkpt lat="39.40643837095829" lon="16.902609734660523"><ele>225.0</ele><time>2026-03-29T11:37:47.999Z</time></trkpt><trkpt lat="39.406496543028915" lon="16.902655990914333"><ele>225.0</ele><time>2026-03-29T11:37:48.999Z</time></trkpt><trkpt lat="39.40660762475063" lon="16.9026816185184"><ele>224.66666666666666</ele><time>2026-03-29T11:37:50.999Z</time></trkpt><trkpt lat="39.40671740913736" lon="16.902657234839392"><ele>224.33333333333331</ele><time>2026-03-29T11:37:52.999Z</time></trkpt><trkpt lat="39.40678854240589" lon="16.902636944476377"><ele>224.0</ele><time>2026-03-29T11:37:53.999Z</time></trkpt><trkpt lat="39.406864696104876" lon="16.902627943118237"><ele>223.66666666666666</ele><time>2026-03-29T11:37:54.999Z</time></trkpt><trkpt lat="39.406934083877324" lon="16.902576312433304"><ele>223.33333333333331</ele><time>2026-03-29T11:37:55.999Z</time></trkpt><trkpt lat="39.40700474359533" lon="16.902523062607887"><ele>223.0</ele><time>2026-03-29T11:37:56.999Z</time></trkpt><trkpt lat="39.40708285688227" lon="16.90251211199813"><ele>225.33333333333331</ele><time>2026-03-29T11:37:57.999Z</time></trkpt><trkpt lat="39.40716620937572" lon="16.9025092508518"><ele>227.66666666666666</ele><time>2026-03-29T11:37:58.999Z</time></trkpt><trkpt lat="39.40726151099336" lon="16.90254123044498"><ele>230.0</ele><time>2026-03-29T11:37:59.999Z</time></trkpt><trkpt lat="39.407350067184524" lon="16.90257251996989"><ele>232.33333333333331</ele><time>2026-03-29T11:38:00.999Z</time></trkpt><trkpt lat="39.40742258368138" lon="16.90259830598086"><ele>234.66666666666666</ele><time>2026-03-29T11:38:01.999Z</time></trkpt><trkpt lat="39.407495146910314" lon="16.90260675216301"><ele>237.0</ele><time>2026-03-29T11:38:02.999Z</time></trkpt><trkpt lat="39.40755491443366" lon="16.9026445118253"><ele>237.0</ele><time>2026-03-29T11:38:03.999Z</time></trkpt><trkpt lat="39.40763586757378" lon="16.902708378864805"><ele>237.0</ele><time>2026-03-29T11:38:05.999Z</time></trkpt><trkpt lat="39.407696169579815" lon="16.902757994175897"><ele>237.0</ele><time>2026-03-29T11:38:07.999Z</time></trkpt><trkpt lat="39.407766685034375" lon="16.902814819699255"><ele>237.0</ele><time>2026-03-29T11:38:09.999Z</time></trkpt><trkpt lat="39.40782283270834" lon="16.9028636286698"><ele>237.0</ele><time>2026-03-29T11:38:11.999Z</time></trkpt><trkpt lat="39.407870718389795" lon="16.90292407568374"><ele>237.0</ele><time>2026-03-29T11:38:15.999Z</time></trkpt><trkpt lat="39.40788836824314" lon="16.903029298890168"><ele>237.0</ele><time>2026-03-29T11:38:17.999Z</time></trkpt><trkpt lat="39.40791061078414" lon="16.9031099824441"><ele>237.0</ele><time>2026-03-29T11:38:18.999Z</time></trkpt><trkpt lat="39.40793104341435" lon="16.903245376149844"><ele>237.0</ele><time>2026-03-29T11:38:20.999Z</time></trkpt><trkpt lat="39.40796633694467" lon="16.903321252271187"><ele>237.0</ele><time>2026-03-29T11:38:22.999Z</time></trkpt><trkpt lat="39.40803836144402" lon="16.903376836525247"><ele>237.0</ele><time>2026-03-29T11:38:24.999Z</time></trkpt><trkpt lat="39.4081419690739" lon="16.90373225492712"><ele>236.8</ele><time>2026-03-29T11:38:28.999Z</time></trkpt><trkpt lat="39.40806819446153" lon="16.903839860493164"><ele>236.6</ele><time>2026-03-29T11:38:30.999Z</time></trkpt><trkpt lat="39.40796920883307" lon="16.90395632465526"><ele>236.40000000000003</ele><time>2026-03-29T11:38:32.999Z</time></trkpt><trkpt lat="39.40789432711544" lon="16.904033456200295"><ele>236.20000000000002</ele><time>2026-03-29T11:38:33.999Z</time></trkpt><trkpt lat="39.40780988147497" lon="16.904086987901657"><ele>236.0</ele><time>2026-03-29T11:38:35.999Z</time></trkpt><trkpt lat="39.40767406150537" lon="16.90412924803447"><ele>236.00000000000003</ele><time>2026-03-29T11:38:36.999Z</time></trkpt><trkpt lat="39.40760254831491" lon="16.904141746727145"><ele>236.0</ele><time>2026-03-29T11:38:38.999Z</time></trkpt><trkpt lat="39.40751446943959" lon="16.904160132863375"><ele>236.0</ele><time>2026-03-29T11:38:41.999Z</time></trkpt><trkpt lat="39.407439860152714" lon="16.904212887581476"><ele>236.0</ele><time>2026-03-29T11:38:46.999Z</time></trkpt><trkpt lat="39.40737083999264" lon="16.904273273488414"><ele>236.00000000000003</ele><time>2026-03-29T11:38:48.999Z</time></trkpt><trkpt lat="39.40730764354437" lon="16.904322481209253"><ele>236.0</ele><time>2026-03-29T11:38:49.999Z</time></trkpt><trkpt lat="39.40719540304202" lon="16.904423813793187"><ele>230.66666666666669</ele><time>2026-03-29T11:38:51.999Z</time></trkpt><trkpt lat="39.40714025335667" lon="16.904501770890395"><ele>225.33333333333331</ele><time>2026-03-29T11:38:53.999Z</time></trkpt><trkpt lat="39.407049089437585" lon="16.904572456871513"><ele>220.0</ele><time>2026-03-29T11:38:55.999Z</time></trkpt><trkpt lat="39.406639612725456" lon="16.904166655402285"><ele>219.99999999999997</ele><time>2026-03-29T11:38:57.999Z</time></trkpt><trkpt lat="39.406555458158465" lon="16.90418595714503"><ele>220.0</ele><time>2026-03-29T11:38:59.999Z</time></trkpt><trkpt lat="39.406479973582954" lon="16.904218673041264"><ele>220.0</ele><time>2026-03-29T11:39:01.999Z</time></trkpt><trkpt lat="39.40641038091905" lon="16.904231133169073"><ele>220.0</ele><time>2026-03-29T11:39:03.999Z</time></trkpt><trkpt lat="39.40633753020297" lon="16.904245665876815"><ele>219.99999999999997</ele><time>2026-03-29T11:39:05.999Z</time></trkpt><trkpt lat="39.40625215325855" lon="16.90425898010863"><ele>220.0</ele><time>2026-03-29T11:39:07.999Z</time></trkpt><trkpt lat="39.406162877741124" lon="16.904259047322416"><ele>217.66666666666666</ele><time>2026-03-29T11:39:09.999Z</time></trkpt><trkpt lat="39.406085046737275" lon="16.904233302991162"><ele>215.33333333333331</ele><time>2026-03-29T11:39:11.999Z</time></trkpt><trkpt lat="39.40602058518519" lon="16.904210059816073"><ele>213.0</ele><time>2026-03-29T11:39:13.999Z</time></trkpt><trkpt lat="39.40594749238131" lon="16.904183679563012"><ele>210.66666666666669</ele><time>2026-03-29T11:39:15.999Z</time></trkpt><trkpt lat="39.40586633370544" lon="16.90416908188646"><ele>208.33333333333334</ele><time>2026-03-29T11:39:17.999Z</time></trkpt><trkpt lat="39.40579879174319" lon="16.904143114289397"><ele>206.0</ele><time>2026-03-29T11:39:19.999Z</time></trkpt><trkpt lat="39.40571296159023" lon="16.904108195593007"><ele>205.99999999999997</ele><time>2026-03-29T11:39:22.999Z</time></trkpt><trkpt lat="39.405643334659175" lon="16.904118229079632"><ele>206.0</ele><time>2026-03-29T11:39:25.999Z</time></trkpt><trkpt lat="39.40560345146864" lon="16.90423659221315"><ele>206.0</ele><time>2026-03-29T11:39:27.999Z</time></trkpt><trkpt lat="39.40556844988224" lon="16.904312050871624"><ele>206.0</ele><time>2026-03-29T11:39:28.999Z</time></trkpt><trkpt lat="39.40553796463284" lon="16.904389532448725"><ele>206.0</ele><time>2026-03-29T11:39:29.999Z</time></trkpt><trkpt lat="39.40549674325034" lon="16.904459702124242"><ele>205.99999999999997</ele><time>2026-03-29T11:39:30.999Z</time></trkpt><trkpt lat="39.405461061543974" lon="16.904533555829257"><ele>206.0</ele><time>2026-03-29T11:39:31.999Z</time></trkpt><trkpt lat="39.40540936438809" lon="16.90460487670318"><ele>203.50000000000003</ele><time>2026-03-29T11:39:32.999Z</time></trkpt><trkpt lat="39.40535191034665" lon="16.904671292837865"><ele>201.0</ele><time>2026-03-29T11:39:33.999Z</time></trkpt><trkpt lat="39.405293600016186" lon="16.904741955639732"><ele>198.5</ele><time>2026-03-29T11:39:34.999Z</time></trkpt><trkpt lat="39.405243606203136" lon="16.904825873066933"><ele>196.0</ele><time>2026-03-29T11:39:35.999Z</time></trkpt><trkpt lat="39.40518798946952" lon="16.90490718369297"><ele>193.5</ele><time>2026-03-29T11:39:36.999Z</time></trkpt><trkpt lat="39.405133268977735" lon="16.904987603374114"><ele>191.0</ele><time>2026-03-29T11:39:37.999Z</time></trkpt><trkpt lat="39.405071780472426" lon="16.90506388407392"><ele>191.16666666666666</ele><time>2026-03-29T11:39:38.999Z</time></trkpt><trkpt lat="39.405010892379494" lon="16.90514160002219"><ele>191.33333333333331</ele><time>2026-03-29T11:39:39.999Z</time></trkpt><trkpt lat="39.4049594133253" lon="16.90522441143764"><ele>191.5</ele><time>2026-03-29T11:39:40.999Z</time></trkpt><trkpt lat="39.404905942620225" lon="16.905303689057043"><ele>191.66666666666666</ele><time>2026-03-29T11:39:41.999Z</time></trkpt><trkpt lat="39.404852032985126" lon="16.90538127285281"><ele>191.83333333333334</ele><time>2026-03-29T11:39:42.999Z</time></trkpt><trkpt lat="39.4048022330857" lon="16.90545760885564"><ele>192.0</ele><time>2026-03-29T11:39:43.999Z</time></trkpt><trkpt lat="39.40475288418218" lon="16.90552811867585"><ele>192.0</ele><time>2026-03-29T11:39:44.999Z</time></trkpt><trkpt lat="39.40470577095333" lon="16.905597195845637"><ele>192.0</ele><time>2026-03-29T11:39:45.999Z</time></trkpt><trkpt lat="39.40464443827437" lon="16.905731126128376"><ele>192.0</ele><time>2026-03-29T11:39:47.999Z</time></trkpt><trkpt lat="39.404601144289614" lon="16.90584466509803"><ele>192.0</ele><time>2026-03-29T11:39:49.999Z</time></trkpt><trkpt lat="39.40460514446539" lon="16.90593107000849"><ele>192.0</ele><time>2026-03-29T11:39:51.999Z</time></trkpt><trkpt lat="39.404658801999076" lon="16.90602342340078"><ele>192.0</ele><time>2026-03-29T11:39:55.999Z</time></trkpt><trkpt lat="39.404647202236994" lon="16.90616587301488"><ele>190.99999999999997</ele><time>2026-03-29T11:39:57.999Z</time></trkpt><trkpt lat="39.40459169048347" lon="16.906225270530435"><ele>190.0</ele><time>2026-03-29T11:39:58.999Z</time></trkpt><trkpt lat="39.4045396750984" lon="16.906292040566015"><ele>189.0</ele><time>2026-03-29T11:39:59.999Z</time></trkpt><trkpt lat="39.40450295326672" lon="16.906366609230073"><ele>188.0</ele><time>2026-03-29T11:40:00.999Z</time></trkpt><trkpt lat="39.40445857827941" lon="16.906430716193103"><ele>187.0</ele><time>2026-03-29T11:40:01.999Z</time></trkpt><trkpt lat="39.40444269352282" lon="16.906513265719717"><ele>185.99999999999997</ele><time>2026-03-29T11:40:02.999Z</time></trkpt><trkpt lat="39.40444081407687" lon="16.906609487689828"><ele>185.0</ele><time>2026-03-29T11:40:03.999Z</time></trkpt><trkpt lat="39.404452142201215" lon="16.906708838464944"><ele>185.4</ele><time>2026-03-29T11:40:04.999Z</time></trkpt><trkpt lat="39.40451011967952" lon="16.906820026893183"><ele>185.8</ele><time>2026-03-29T11:40:05.999Z</time></trkpt><trkpt lat="39.40448691912576" lon="16.90690096884548"><ele>186.2</ele><time>2026-03-29T11:40:06.999Z</time></trkpt><trkpt lat="39.404379789399336" lon="16.90693636747785"><ele>186.6</ele><time>2026-03-29T11:40:08.999Z</time></trkpt><trkpt lat="39.40426282480019" lon="16.90698712688173"><ele>187.0</ele><time>2026-03-29T11:40:10.999Z</time></trkpt><trkpt lat="39.40421339169801" lon="16.907047146989857"><ele>187.0</ele><time>2026-03-29T11:40:11.999Z</time></trkpt><trkpt lat="39.40417280919966" lon="16.90712009404078"><ele>187.0</ele><time>2026-03-29T11:40:12.999Z</time></trkpt><trkpt lat="39.40411888058443" lon="16.90718300799688"><ele>187.0</ele><time>2026-03-29T11:40:13.999Z</time></trkpt><trkpt lat="39.404085940956136" lon="16.90725437598148"><ele>187.0</ele><time>2026-03-29T11:40:14.999Z</time></trkpt><trkpt lat="39.40406253379083" lon="16.90734549781513"><ele>187.0</ele><time>2026-03-29T11:40:16.999Z</time></trkpt><trkpt lat="39.40405529677508" lon="16.907441879334904"><ele>187.0</ele><time>2026-03-29T11:40:19.999Z</time></trkpt><trkpt lat="39.40407635511969" lon="16.907584593413883"><ele>186.28571428571428</ele><time>2026-03-29T11:40:21.999Z</time></trkpt><trkpt lat="39.40407514986275" lon="16.907669824140342"><ele>185.57142857142858</ele><time>2026-03-29T11:40:22.999Z</time></trkpt><trkpt lat="39.40408349235173" lon="16.907754459205513"><ele>184.85714285714286</ele><time>2026-03-29T11:40:23.999Z</time></trkpt><trkpt lat="39.404064439225905" lon="16.907836932571193"><ele>184.14285714285714</ele><time>2026-03-29T11:40:24.999Z</time></trkpt><trkpt lat="39.40403672202422" lon="16.907914133971683"><ele>183.42857142857144</ele><time>2026-03-29T11:40:25.999Z</time></trkpt><trkpt lat="39.40398311320879" lon="16.907960672248347"><ele>182.71428571428572</ele><time>2026-03-29T11:40:26.999Z</time></trkpt><trkpt lat="39.40399507691252" lon="16.908082795420164"><ele>182.0</ele><time>2026-03-29T11:40:27.999Z</time></trkpt><trkpt lat="39.40396196093723" lon="16.90816138565223"><ele>182.0</ele><time>2026-03-29T11:40:28.999Z</time></trkpt><trkpt lat="39.40399003358988" lon="16.908269189256828"><ele>182.0</ele><time>2026-03-29T11:40:29.999Z</time></trkpt><trkpt lat="39.40399171994913" lon="16.908360714003727"><ele>182.0</ele><time>2026-03-29T11:40:30.998Z</time></trkpt><trkpt lat="39.403994568916836" lon="16.908510883064793"><ele>182.0</ele><time>2026-03-29T11:40:32.998Z</time></trkpt><trkpt lat="39.40393669551891" lon="16.90864165927861"><ele>182.0</ele><time>2026-03-29T11:40:34.998Z</time></trkpt><trkpt lat="39.40390745989592" lon="16.908717699896936"><ele>181.0</ele><time>2026-03-29T11:40:35.998Z</time></trkpt><trkpt lat="39.40384117312989" lon="16.90884006429197"><ele>180.0</ele><time>2026-03-29T11:40:37.998Z</time></trkpt><trkpt lat="39.40377631951275" lon="16.90894146506848"><ele>179.0</ele><time>2026-03-29T11:40:39.998Z</time></trkpt><trkpt lat="39.403769105654455" lon="16.90910943715056"><ele>178.0</ele><time>2026-03-29T11:40:41.998Z</time></trkpt><trkpt lat="39.403771127709625" lon="16.909255952547973"><ele>176.33333333333334</ele><time>2026-03-29T11:40:43.998Z</time></trkpt><trkpt lat="39.403773047033816" lon="16.90938598019922"><ele>174.66666666666669</ele><time>2026-03-29T11:40:45.998Z</time></trkpt><trkpt lat="39.40377564724731" lon="16.90946824605879"><ele>173.0</ele><time>2026-03-29T11:40:46.998Z</time></trkpt><trkpt lat="39.40377622686362" lon="16.909561783278"><ele>171.33333333333334</ele><time>2026-03-29T11:40:47.998Z</time></trkpt><trkpt lat="39.40377990684241" lon="16.909660952796926"><ele>169.66666666666666</ele><time>2026-03-29T11:40:48.998Z</time></trkpt><trkpt lat="39.403789349697874" lon="16.90975969173987"><ele>168.0</ele><time>2026-03-29T11:40:49.998Z</time></trkpt><trkpt lat="39.403798305042095" lon="16.90985657863039"><ele>168.0</ele><time>2026-03-29T11:40:50.998Z</time></trkpt><trkpt lat="39.40379471348601" lon="16.909966013219382"><ele>168.0</ele><time>2026-03-29T11:40:51.998Z</time></trkpt><trkpt lat="39.4038371963663" lon="16.910056529027354"><ele>168.0</ele><time>2026-03-29T11:40:52.998Z</time></trkpt><trkpt lat="39.40385387790598" lon="16.910156974665558"><ele>168.0</ele><time>2026-03-29T11:40:53.998Z</time></trkpt><trkpt lat="39.4038879359674" lon="16.91024585882995"><ele>168.0</ele><time>2026-03-29T11:40:54.998Z</time></trkpt><trkpt lat="39.403901024381724" lon="16.91034699627887"><ele>168.0</ele><time>2026-03-29T11:40:55.998Z</time></trkpt><trkpt lat="39.40394188040604" lon="16.910437870796898"><ele>167.16666666666666</ele><time>2026-03-29T11:40:56.998Z</time></trkpt><trkpt lat="39.403969748048645" lon="16.910534320565255"><ele>166.33333333333334</ele><time>2026-03-29T11:40:57.998Z</time></trkpt><trkpt lat="39.40397388081283" lon="16.91063900448792"><ele>165.5</ele><time>2026-03-29T11:40:58.998Z</time></trkpt><trkpt lat="39.403978581245354" lon="16.91073226123778"><ele>164.66666666666669</ele><time>2026-03-29T11:40:59.998Z</time></trkpt><trkpt lat="39.40399255846268" lon="16.910815307577604"><ele>163.83333333333334</ele><time>2026-03-29T11:41:00.998Z</time></trkpt><trkpt lat="39.40403173346298" lon="16.910950648751097"><ele>163.0</ele><time>2026-03-29T11:41:02.998Z</time></trkpt><trkpt lat="39.40405016331094" lon="16.911097209745037"><ele>161.83333333333334</ele><time>2026-03-29T11:41:04.998Z</time></trkpt><trkpt lat="39.40411304196922" lon="16.911178421852675"><ele>160.66666666666669</ele><time>2026-03-29T11:41:06.998Z</time></trkpt><trkpt lat="39.40417516639016" lon="16.911230250654768"><ele>159.5</ele><time>2026-03-29T11:41:09.998Z</time></trkpt><trkpt lat="39.40423741213099" lon="16.91120061264566"><ele>158.33333333333334</ele><time>2026-03-29T11:41:11.998Z</time></trkpt><trkpt lat="39.40421135797925" lon="16.91136796664742"><ele>157.16666666666666</ele><time>2026-03-29T11:41:15.998Z</time></trkpt><trkpt lat="39.404141007585885" lon="16.911383542200806"><ele>156.0</ele><time>2026-03-29T11:41:17.998Z</time></trkpt><trkpt lat="39.40405473242421" lon="16.911367718077766"><ele>156.0</ele><time>2026-03-29T11:41:19.998Z</time></trkpt><trkpt lat="39.40395443946109" lon="16.911440622306575"><ele>156.0</ele><time>2026-03-29T11:41:21.998Z</time></trkpt><trkpt lat="39.40393481994347" lon="16.911563546564192"><ele>156.0</ele><time>2026-03-29T11:41:23.998Z</time></trkpt><trkpt lat="39.40391399357107" lon="16.911646626530725"><ele>156.0</ele><time>2026-03-29T11:41:24.998Z</time></trkpt><trkpt lat="39.40390815543191" lon="16.911735417580328"><ele>156.0</ele><time>2026-03-29T11:41:25.998Z</time></trkpt><trkpt lat="39.40390246687084" lon="16.911820048859557"><ele>156.0</ele><time>2026-03-29T11:41:26.998Z</time></trkpt><trkpt lat="39.40385793687402" lon="16.911950033881496"><ele>153.6</ele><time>2026-03-29T11:41:28.998Z</time></trkpt><trkpt lat="39.403793127264876" lon="16.912051915324405"><ele>151.2</ele><time>2026-03-29T11:41:30.998Z</time></trkpt><trkpt lat="39.403721461653035" lon="16.912167956493366"><ele>148.8</ele><time>2026-03-29T11:41:32.998Z</time></trkpt><trkpt lat="39.40370382586511" lon="16.912252428505063"><ele>146.4</ele><time>2026-03-29T11:41:33.998Z</time></trkpt><trkpt lat="39.40368892122786" lon="16.912335579663694"><ele>144.0</ele><time>2026-03-29T11:41:34.998Z</time></trkpt><trkpt lat="39.40364354641026" lon="16.912485553545086"><ele>143.5</ele><time>2026-03-29T11:41:36.998Z</time></trkpt><trkpt lat="39.40362339255314" lon="16.91258339910391"><ele>143.0</ele><time>2026-03-29T11:41:37.998Z</time></trkpt><trkpt lat="39.40359605969102" lon="16.91268623805588"><ele>142.5</ele><time>2026-03-29T11:41:38.998Z</time></trkpt><trkpt lat="39.40357265458216" lon="16.912784341230875"><ele>142.0</ele><time>2026-03-29T11:41:39.998Z</time></trkpt><trkpt lat="39.40354741561231" lon="16.912876453063785"><ele>141.5</ele><time>2026-03-29T11:41:40.998Z</time></trkpt><trkpt lat="39.403522783271704" lon="16.91296292828008"><ele>141.0</ele><time>2026-03-29T11:41:41.998Z</time></trkpt><trkpt lat="39.40350202261968" lon="16.913050911782992"><ele>141.0</ele><time>2026-03-29T11:41:42.998Z</time></trkpt><trkpt lat="39.403474048896584" lon="16.91314259825964"><ele>141.0</ele><time>2026-03-29T11:41:43.998Z</time></trkpt><trkpt lat="39.40345353867548" lon="16.91323523725388"><ele>141.0</ele><time>2026-03-29T11:41:44.998Z</time></trkpt><trkpt lat="39.403430998132805" lon="16.91331472871997"><ele>141.0</ele><time>2026-03-29T11:41:45.998Z</time></trkpt><trkpt lat="39.40336373934768" lon="16.913435285144516"><ele>141.0</ele><time>2026-03-29T11:41:47.998Z</time></trkpt><trkpt lat="39.403271630213766" lon="16.913529241777855"><ele>141.0</ele><time>2026-03-29T11:41:49.998Z</time></trkpt><trkpt lat="39.40321057837991" lon="16.913568653381418"><ele>141.6</ele><time>2026-03-29T11:41:50.998Z</time></trkpt><trkpt lat="39.40313066653067" lon="16.913598706216035"><ele>142.2</ele><time>2026-03-29T11:41:51.998Z</time></trkpt><trkpt lat="39.40303968746043" lon="16.913628848161053"><ele>142.8</ele><time>2026-03-29T11:41:52.998Z</time></trkpt><trkpt lat="39.40294320705327" lon="16.913665327406044"><ele>143.4</ele><time>2026-03-29T11:41:53.998Z</time></trkpt><trkpt lat="39.40285690989839" lon="16.91372641467116"><ele>144.0</ele><time>2026-03-29T11:41:54.998Z</time></trkpt><trkpt lat="39.40275991054655" lon="16.91375553143874"><ele>142.83333333333334</ele><time>2026-03-29T11:41:55.998Z</time></trkpt><trkpt lat="39.402667884610715" lon="16.913813348877294"><ele>141.66666666666666</ele><time>2026-03-29T11:41:56.998Z</time></trkpt><trkpt lat="39.40258555425749" lon="16.913869243175665"><ele>140.5</ele><time>2026-03-29T11:41:57.998Z</time></trkpt><trkpt lat="39.402514403881206" lon="16.913918900368284"><ele>139.33333333333331</ele><time>2026-03-29T11:41:58.998Z</time></trkpt><trkpt lat="39.40244889649968" lon="16.913971754467106"><ele>138.16666666666666</ele><time>2026-03-29T11:41:59.998Z</time></trkpt><trkpt lat="39.40239806146151" lon="16.91404328407697"><ele>137.0</ele><time>2026-03-29T11:42:00.998Z</time></trkpt><trkpt lat="39.40234074445583" lon="16.91408974307759"><ele>137.0</ele><time>2026-03-29T11:42:01.998Z</time></trkpt><trkpt lat="39.40226123091453" lon="16.914177761465623"><ele>137.0</ele><time>2026-03-29T11:42:03.998Z</time></trkpt><trkpt lat="39.40220833037906" lon="16.91423838210503"><ele>137.0</ele><time>2026-03-29T11:42:05.998Z</time></trkpt><trkpt lat="39.40211504975295" lon="16.914314002524602"><ele>137.0</ele><time>2026-03-29T11:42:07.998Z</time></trkpt><trkpt lat="39.40205339377918" lon="16.91437770181684"><ele>137.0</ele><time>2026-03-29T11:42:08.998Z</time></trkpt><trkpt lat="39.40200441356171" lon="16.914484605332255"><ele>136.2</ele><time>2026-03-29T11:42:09.998Z</time></trkpt><trkpt lat="39.40193718638459" lon="16.91456436680328"><ele>135.39999999999998</ele><time>2026-03-29T11:42:10.998Z</time></trkpt><trkpt lat="39.40187931731645" lon="16.91465127364221"><ele>134.60000000000002</ele><time>2026-03-29T11:42:11.998Z</time></trkpt><trkpt lat="39.40179223446597" lon="16.91470801868172"><ele>133.8</ele><time>2026-03-29T11:42:12.998Z</time></trkpt><trkpt lat="39.401732140894374" lon="16.91481469286617"><ele>133.0</ele><time>2026-03-29T11:42:13.998Z</time></trkpt><trkpt lat="39.40167505510457" lon="16.91492950443548"><ele>133.0</ele><time>2026-03-29T11:42:14.998Z</time></trkpt><trkpt lat="39.40162297623467" lon="16.915043061857155"><ele>133.0</ele><time>2026-03-29T11:42:15.998Z</time></trkpt><trkpt lat="39.401583072208474" lon="16.915163269333267"><ele>133.0</ele><time>2026-03-29T11:42:16.998Z</time></trkpt><trkpt lat="39.40156120195659" lon="16.915294581738383"><ele>133.0</ele><time>2026-03-29T11:42:17.998Z</time></trkpt><trkpt lat="39.40155488093017" lon="16.91542847390346"><ele>133.0</ele><time>2026-03-29T11:42:19Z</time></trkpt><trkpt lat="39.40155004541335" lon="16.915568652384025"><ele>132.66666666666669</ele><time>2026-03-29T11:42:20Z</time></trkpt><trkpt lat="39.40154442031314" lon="16.91570607257962"><ele>132.33333333333334</ele><time>2026-03-29T11:42:21Z</time></trkpt><trkpt lat="39.401538178103756" lon="16.91583332788324"><ele>132.0</ele><time>2026-03-29T11:42:22Z</time></trkpt><trkpt lat="39.40152162925828" lon="16.915940871041936"><ele>131.66666666666666</ele><time>2026-03-29T11:42:23Z</time></trkpt><trkpt lat="39.40149907259571" lon="16.916034833571324"><ele>131.33333333333331</ele><time>2026-03-29T11:42:24Z</time></trkpt><trkpt lat="39.40147256776401" lon="16.916124158501315"><ele>131.0</ele><time>2026-03-29T11:42:25Z</time></trkpt><trkpt lat="39.401448899582924" lon="16.916203923536568"><ele>131.0</ele><time>2026-03-29T11:42:26Z</time></trkpt><trkpt lat="39.401412932797115" lon="16.916319580668418"><ele>131.0</ele><time>2026-03-29T11:42:28Z</time></trkpt><trkpt lat="39.401390771416764" lon="16.91640354364273"><ele>131.0</ele><time>2026-03-29T11:42:30Z</time></trkpt><trkpt lat="39.401375516648706" lon="16.91657162566091"><ele>131.0</ele><time>2026-03-29T11:42:32Z</time></trkpt><trkpt lat="39.40139934715679" lon="16.91666986180049"><ele>131.0</ele><time>2026-03-29T11:42:33Z</time></trkpt><trkpt lat="39.40143781492809" lon="16.91677969645594"><ele>131.5</ele><time>2026-03-29T11:42:34Z</time></trkpt><trkpt lat="39.401481403604514" lon="16.916899532042216"><ele>132.0</ele><time>2026-03-29T11:42:35Z</time></trkpt><trkpt lat="39.40151671365046" lon="16.917030344370016"><ele>132.5</ele><time>2026-03-29T11:42:36Z</time></trkpt><trkpt lat="39.40155001501819" lon="16.91717767559898"><ele>133.0</ele><time>2026-03-29T11:42:37Z</time></trkpt><trkpt lat="39.401603704987565" lon="16.917345134748462"><ele>133.0</ele><time>2026-03-29T11:42:38Z</time></trkpt><trkpt lat="39.40164970366039" lon="16.917535610860117"><ele>133.0</ele><time>2026-03-29T11:42:39Z</time></trkpt><trkpt lat="39.401695602194884" lon="16.91772486094422"><ele>133.0</ele><time>2026-03-29T11:42:40Z</time></trkpt><trkpt lat="39.401736816623625" lon="16.91789953950079"><ele>133.0</ele><time>2026-03-29T11:42:41Z</time></trkpt><trkpt lat="39.401770523924334" lon="16.9180530063881"><ele>133.20000000000002</ele><time>2026-03-29T11:42:42Z</time></trkpt><trkpt lat="39.40180084770883" lon="16.918193661513754"><ele>133.4</ele><time>2026-03-29T11:42:43Z</time></trkpt><trkpt lat="39.401832465473724" lon="16.91832296913296"><ele>133.60000000000002</ele><time>2026-03-29T11:42:44Z</time></trkpt><trkpt lat="39.401859683914395" lon="16.918434961196617"><ele>133.8</ele><time>2026-03-29T11:42:45Z</time></trkpt><trkpt lat="39.40187253050428" lon="16.918549599423446"><ele>134.0</ele><time>2026-03-29T11:42:46Z</time></trkpt><trkpt lat="39.401886819696124" lon="16.918662163581306"><ele>133.2</ele><time>2026-03-29T11:42:47Z</time></trkpt><trkpt lat="39.40187913809112" lon="16.918779353375754"><ele>132.4</ele><time>2026-03-29T11:42:48Z</time></trkpt><trkpt lat="39.40187861020995" lon="16.918893464700975"><ele>131.6</ele><time>2026-03-29T11:42:49Z</time></trkpt><trkpt lat="39.40186751621661" lon="16.919022696531815"><ele>130.8</ele><time>2026-03-29T11:42:50Z</time></trkpt><trkpt lat="39.40185581860263" lon="16.919158959752107"><ele>130.0</ele><time>2026-03-29T11:42:51Z</time></trkpt><trkpt lat="39.40184366468862" lon="16.91930053832489"><ele>129.25</ele><time>2026-03-29T11:42:52Z</time></trkpt><trkpt lat="39.40184704457741" lon="16.919439265577356"><ele>128.5</ele><time>2026-03-29T11:42:53Z</time></trkpt><trkpt lat="39.40180046240361" lon="16.919572522460307"><ele>127.75</ele><time>2026-03-29T11:42:54Z</time></trkpt><trkpt lat="39.401727222801604" lon="16.919694620241142"><ele>127.0</ele><time>2026-03-29T11:42:55Z</time></trkpt><trkpt lat="39.40162186528675" lon="16.91979575941066"><ele>127.0</ele><time>2026-03-29T11:42:56Z</time></trkpt><trkpt lat="39.40156125182197" lon="16.91992881929682"><ele>127.0</ele><time>2026-03-29T11:42:57Z</time></trkpt><trkpt lat="39.4015251027205" lon="16.920063421446372"><ele>127.0</ele><time>2026-03-29T11:42:58Z</time></trkpt><trkpt lat="39.401504346524554" lon="16.92022352122931"><ele>127.0</ele><time>2026-03-29T11:42:59Z</time></trkpt><trkpt lat="39.401529420213556" lon="16.920376858616823"><ele>126.0</ele><time>2026-03-29T11:43:00Z</time></trkpt><trkpt lat="39.40156745698642" lon="16.92052708829946"><ele>124.99999999999999</ele><time>2026-03-29T11:43:01Z</time></trkpt><trkpt lat="39.401601330670296" lon="16.920651242742927"><ele>123.99999999999999</ele><time>2026-03-29T11:43:02Z</time></trkpt><trkpt lat="39.40161632723194" lon="16.920779376091506"><ele>123.0</ele><time>2026-03-29T11:43:03Z</time></trkpt><trkpt lat="39.40162344789395" lon="16.920904181109584"><ele>122.0</ele><time>2026-03-29T11:43:04Z</time></trkpt><trkpt lat="39.40162246180656" lon="16.92104067668756"><ele>121.19999999999999</ele><time>2026-03-29T11:43:05Z</time></trkpt><trkpt lat="39.40165930867543" lon="16.921165581254982"><ele>120.39999999999999</ele><time>2026-03-29T11:43:06Z</time></trkpt><trkpt lat="39.401734829761985" lon="16.921224543362733"><ele>119.60000000000001</ele><time>2026-03-29T11:43:07Z</time></trkpt><trkpt lat="39.40180317861113" lon="16.921269411914906"><ele>118.80000000000001</ele><time>2026-03-29T11:43:08Z</time></trkpt><trkpt lat="39.40186523618885" lon="16.92130490865192"><ele>118.0</ele><time>2026-03-29T11:43:09Z</time></trkpt><trkpt lat="39.40198440805568" lon="16.92135346610494"><ele>118.00000000000001</ele><time>2026-03-29T11:43:11Z</time></trkpt><trkpt lat="39.40207439185627" lon="16.921430164704972"><ele>118.0</ele><time>2026-03-29T11:43:13Z</time></trkpt><trkpt lat="39.402123632387806" lon="16.921509108824235"><ele>118.0</ele><time>2026-03-29T11:43:15Z</time></trkpt><trkpt lat="39.40217837709329" lon="16.921564385478707"><ele>118.0</ele><time>2026-03-29T11:43:18Z</time></trkpt><trkpt lat="39.402238188492625" lon="16.921609875310097"><ele>118.00000000000001</ele><time>2026-03-29T11:43:23Z</time></trkpt><trkpt lat="39.40232595776118" lon="16.921705745353183"><ele>118.0</ele><time>2026-03-29T11:43:25Z</time></trkpt><trkpt lat="39.40238420698005" lon="16.921777896875444"><ele>118.00000000000001</ele><time>2026-03-29T11:43:26Z</time></trkpt><trkpt lat="39.40244508227461" lon="16.92183368168266"><ele>118.0</ele><time>2026-03-29T11:43:27Z</time></trkpt><trkpt lat="39.402459911434626" lon="16.921924642804562"><ele>118.0</ele><time>2026-03-29T11:43:28Z</time></trkpt><trkpt lat="39.402455979793885" lon="16.922082291337727"><ele>118.0</ele><time>2026-03-29T11:43:30Z</time></trkpt><trkpt lat="39.402505189909476" lon="16.922159418487862"><ele>118.00000000000001</ele><time>2026-03-29T11:43:31Z</time></trkpt><trkpt lat="39.402565077189436" lon="16.922241707627666"><ele>118.0</ele><time>2026-03-29T11:43:32Z</time></trkpt><trkpt lat="39.40263029672226" lon="16.922312850568034"><ele>118.0</ele><time>2026-03-29T11:43:33Z</time></trkpt><trkpt lat="39.40268723058222" lon="16.922388916746442"><ele>118.00000000000001</ele><time>2026-03-29T11:43:34Z</time></trkpt><trkpt lat="39.402743221340636" lon="16.92248137437942"><ele>118.00000000000001</ele><time>2026-03-29T11:43:35Z</time></trkpt><trkpt lat="39.402812222611566" lon="16.922588672358362"><ele>118.0</ele><time>2026-03-29T11:43:36Z</time></trkpt><trkpt lat="39.40289558662872" lon="16.92267199219662"><ele>118.0</ele><time>2026-03-29T11:43:37Z</time></trkpt><trkpt lat="39.40297996309132" lon="16.922745909969255"><ele>117.83333333333334</ele><time>2026-03-29T11:43:38Z</time></trkpt><trkpt lat="39.40306252839583" lon="16.92281297075152"><ele>117.66666666666667</ele><time>2026-03-29T11:43:39Z</time></trkpt><trkpt lat="39.40314509934236" lon="16.922862733928167"><ele>117.5</ele><time>2026-03-29T11:43:40Z</time></trkpt><trkpt lat="39.40322553690579" lon="16.922909812740315"><ele>117.33333333333334</ele><time>2026-03-29T11:43:41Z</time></trkpt><trkpt lat="39.403291795609945" lon="16.922960797360457"><ele>117.16666666666667</ele><time>2026-03-29T11:43:42Z</time></trkpt><trkpt lat="39.403351408007865" lon="16.923013200004178"><ele>117.0</ele><time>2026-03-29T11:43:43Z</time></trkpt><trkpt lat="39.403414751526356" lon="16.923050418209105"><ele>117.0</ele><time>2026-03-29T11:43:44Z</time></trkpt><trkpt lat="39.403446305910364" lon="16.923122045736864"><ele>116.99999999999999</ele><time>2026-03-29T11:43:45Z</time></trkpt><trkpt lat="39.40347694934532" lon="16.92328554387578"><ele>116.99999999999999</ele><time>2026-03-29T11:43:47Z</time></trkpt><trkpt lat="39.403475863286495" lon="16.923377001861898"><ele>117.0</ele><time>2026-03-29T11:43:48Z</time></trkpt><trkpt lat="39.40349831220887" lon="16.92352470121609"><ele>117.0</ele><time>2026-03-29T11:43:50Z</time></trkpt><trkpt lat="39.403513784701545" lon="16.92365167025996"><ele>118.0</ele><time>2026-03-29T11:43:52Z</time></trkpt><trkpt lat="39.40345997734194" lon="16.923801036885983"><ele>118.99999999999999</ele><time>2026-03-29T11:43:54Z</time></trkpt><trkpt lat="39.4034077216551" lon="16.923872144008374"><ele>119.99999999999999</ele><time>2026-03-29T11:43:55Z</time></trkpt><trkpt lat="39.403343373328376" lon="16.923941445778844"><ele>121.0</ele><time>2026-03-29T11:43:56Z</time></trkpt><trkpt lat="39.4032532220015" lon="16.92403105412849"><ele>122.0</ele><time>2026-03-29T11:43:57Z</time></trkpt><trkpt lat="39.40316963430367" lon="16.924177441450052"><ele>123.8</ele><time>2026-03-29T11:43:58Z</time></trkpt><trkpt lat="39.403078285924884" lon="16.924306291895427"><ele>125.6</ele><time>2026-03-29T11:43:59Z</time></trkpt><trkpt lat="39.40300586236736" lon="16.924421568127503"><ele>127.39999999999999</ele><time>2026-03-29T11:44:00Z</time></trkpt><trkpt lat="39.402950284647" lon="16.924524400029867"><ele>129.2</ele><time>2026-03-29T11:44:01Z</time></trkpt><trkpt lat="39.4029129323534" lon="16.92460180496997"><ele>131.0</ele><time>2026-03-29T11:44:02Z</time></trkpt><trkpt lat="39.402870508632255" lon="16.924697969138293"><ele>131.0</ele><time>2026-03-29T11:44:04Z</time></trkpt><trkpt lat="39.402841842681866" lon="16.92477288573694"><ele>131.0</ele><time>2026-03-29T11:44:06Z</time></trkpt><trkpt lat="39.40295398623899" lon="16.92490734310694"><ele>131.0</ele><time>2026-03-29T11:44:10Z</time></trkpt><trkpt lat="39.403011881558484" lon="16.924835528038052"><ele>131.0</ele><time>2026-03-29T11:44:11Z</time></trkpt><trkpt lat="39.40307916608444" lon="16.92473508239975"><ele>131.0</ele><time>2026-03-29T11:44:12Z</time></trkpt><trkpt lat="39.403142560851066" lon="16.924629550413847"><ele>129.2</ele><time>2026-03-29T11:44:13Z</time></trkpt><trkpt lat="39.403201434515836" lon="16.924530500283712"><ele>127.39999999999999</ele><time>2026-03-29T11:44:14Z</time></trkpt><trkpt lat="39.4032562320028" lon="16.924445970745868"><ele>125.6</ele><time>2026-03-29T11:44:15Z</time></trkpt><trkpt lat="39.40330172675276" lon="16.924349867416765"><ele>123.8</ele><time>2026-03-29T11:44:16Z</time></trkpt><trkpt lat="39.4033670399146" lon="16.924257148988893"><ele>122.0</ele><time>2026-03-29T11:44:17Z</time></trkpt><trkpt lat="39.40343520549352" lon="16.924156989606526"><ele>122.0</ele><time>2026-03-29T11:44:18Z</time></trkpt><trkpt lat="39.40350162481998" lon="16.924059606655693"><ele>121.99999999999999</ele><time>2026-03-29T11:44:19Z</time></trkpt><trkpt lat="39.4035588680032" lon="16.923952191495054"><ele>121.99999999999999</ele><time>2026-03-29T11:44:20Z</time></trkpt><trkpt lat="39.40365097669585" lon="16.92388020427276"><ele>122.0</ele><time>2026-03-29T11:44:21Z</time></trkpt><trkpt lat="39.40374968804067" lon="16.923790815841905"><ele>122.0</ele><time>2026-03-29T11:44:22Z</time></trkpt><trkpt lat="39.40386475868831" lon="16.923686508908958"><ele>123.0</ele><time>2026-03-29T11:44:23Z</time></trkpt><trkpt lat="39.40399072753071" lon="16.923569872388182"><ele>124.0</ele><time>2026-03-29T11:44:24Z</time></trkpt><trkpt lat="39.40411707590934" lon="16.923447595729307"><ele>125.0</ele><time>2026-03-29T11:44:25Z</time></trkpt><trkpt lat="39.40423343430707" lon="16.923331903567355"><ele>125.0</ele><time>2026-03-29T11:44:26Z</time></trkpt><trkpt lat="39.404344508825965" lon="16.923221465011885"><ele>125.0</ele><time>2026-03-29T11:44:27Z</time></trkpt><trkpt lat="39.4044449906923" lon="16.923121558458"><ele>125.0</ele><time>2026-03-29T11:44:28Z</time></trkpt><trkpt lat="39.40453378518025" lon="16.923034658060647"><ele>125.0</ele><time>2026-03-29T11:44:29Z</time></trkpt><trkpt lat="39.40461320059816" lon="16.922971195981827"><ele>127.14285714285714</ele><time>2026-03-29T11:44:30Z</time></trkpt><trkpt lat="39.40468145371765" lon="16.92293116950534"><ele>129.28571428571428</ele><time>2026-03-29T11:44:31Z</time></trkpt><trkpt lat="39.4047492771938" lon="16.922913235923968"><ele>131.42857142857144</ele><time>2026-03-29T11:44:32Z</time></trkpt><trkpt lat="39.40481257900351" lon="16.92292401784886"><ele>133.57142857142856</ele><time>2026-03-29T11:44:33Z</time></trkpt><trkpt lat="39.404874234772656" lon="16.922958657152808"><ele>135.71428571428572</ele><time>2026-03-29T11:44:34Z</time></trkpt><trkpt lat="39.40493455155358" lon="16.923007140301"><ele>137.85714285714286</ele><time>2026-03-29T11:44:35Z</time></trkpt><trkpt lat="39.40497973755076" lon="16.92309335744851"><ele>140.0</ele><time>2026-03-29T11:44:36Z</time></trkpt><trkpt lat="39.405016626264874" lon="16.923196745711774"><ele>140.0</ele><time>2026-03-29T11:44:37Z</time></trkpt><trkpt lat="39.40505130993971" lon="16.92329534941508"><ele>140.0</ele><time>2026-03-29T11:44:38Z</time></trkpt><trkpt lat="39.405096427572516" lon="16.923379116088487"><ele>140.0</ele><time>2026-03-29T11:44:39Z</time></trkpt><trkpt lat="39.40512106391114" lon="16.923468941717392"><ele>140.0</ele><time>2026-03-29T11:44:40Z</time></trkpt><trkpt lat="39.405140220638756" lon="16.92357235258151"><ele>140.0</ele><time>2026-03-29T11:44:41Z</time></trkpt><trkpt lat="39.40518879736547" lon="16.923688259053698"><ele>140.0</ele><time>2026-03-29T11:44:42Z</time></trkpt><trkpt lat="39.40527753778926" lon="16.923772763753735"><ele>141.5</ele><time>2026-03-29T11:44:43Z</time></trkpt><trkpt lat="39.40537741764401" lon="16.923859386198842"><ele>143.0</ele><time>2026-03-29T11:44:44Z</time></trkpt><trkpt lat="39.40551068055787" lon="16.923907406623453"><ele>144.5</ele><time>2026-03-29T11:44:45Z</time></trkpt><trkpt lat="39.40564116789121" lon="16.923975785427"><ele>146.0</ele><time>2026-03-29T11:44:46Z</time></trkpt><trkpt lat="39.40576214842937" lon="16.92404028009717"><ele>146.0</ele><time>2026-03-29T11:44:47Z</time></trkpt><trkpt lat="39.40586150963388" lon="16.924122718204227"><ele>146.0</ele><time>2026-03-29T11:44:48Z</time></trkpt><trkpt lat="39.40596673190718" lon="16.924215744494294"><ele>146.0</ele><time>2026-03-29T11:44:49Z</time></trkpt><trkpt lat="39.40607953121103" lon="16.924307171415386"><ele>146.0</ele><time>2026-03-29T11:44:50Z</time></trkpt><trkpt lat="39.40619276648498" lon="16.924380828712653"><ele>144.75</ele><time>2026-03-29T11:44:51Z</time></trkpt><trkpt lat="39.406313688133295" lon="16.92442416017501"><ele>143.5</ele><time>2026-03-29T11:44:52Z</time></trkpt><trkpt lat="39.406446160822654" lon="16.92442982018041"><ele>142.25</ele><time>2026-03-29T11:44:53Z</time></trkpt><trkpt lat="39.40658539646429" lon="16.92444936660511"><ele>141.0</ele><time>2026-03-29T11:44:54Z</time></trkpt><trkpt lat="39.40670812182772" lon="16.924464165008743"><ele>139.6</ele><time>2026-03-29T11:44:55Z</time></trkpt><trkpt lat="39.406811761903526" lon="16.924484624158513"><ele>138.2</ele><time>2026-03-29T11:44:56Z</time></trkpt><trkpt lat="39.40690309314511" lon="16.92450883525633"><ele>136.8</ele><time>2026-03-29T11:44:57Z</time></trkpt><trkpt lat="39.406980492019954" lon="16.92453084800718"><ele>135.4</ele><time>2026-03-29T11:44:58Z</time></trkpt><trkpt lat="39.40704323803209" lon="16.924550429158874"><ele>134.0</ele><time>2026-03-29T11:44:59Z</time></trkpt><trkpt lat="39.407161486768786" lon="16.924634192336736"><ele>134.66666666666666</ele><time>2026-03-29T11:45:01Z</time></trkpt><trkpt lat="39.40722012162029" lon="16.92470355097496"><ele>135.33333333333331</ele><time>2026-03-29T11:45:02Z</time></trkpt><trkpt lat="39.407285879910056" lon="16.924786760506148"><ele>136.0</ele><time>2026-03-29T11:45:03Z</time></trkpt><trkpt lat="39.407347721414176" lon="16.92487366883721"><ele>136.66666666666666</ele><time>2026-03-29T11:45:04Z</time></trkpt><trkpt lat="39.40740329559595" lon="16.92496320909845"><ele>137.33333333333334</ele><time>2026-03-29T11:45:05Z</time></trkpt><trkpt lat="39.40746388667935" lon="16.925047880370716"><ele>138.0</ele><time>2026-03-29T11:45:06Z</time></trkpt><trkpt lat="39.40749276764781" lon="16.92514554393613"><ele>138.0</ele><time>2026-03-29T11:45:07Z</time></trkpt><trkpt lat="39.40752564472862" lon="16.92525654001553"><ele>138.0</ele><time>2026-03-29T11:45:08Z</time></trkpt><trkpt lat="39.40754971519873" lon="16.925406848062238"><ele>138.0</ele><time>2026-03-29T11:45:09Z</time></trkpt><trkpt lat="39.40757371326812" lon="16.925573774529244"><ele>138.0</ele><time>2026-03-29T11:45:10Z</time></trkpt><trkpt lat="39.40760284818056" lon="16.92573755939724"><ele>136.5</ele><time>2026-03-29T11:45:11Z</time></trkpt><trkpt lat="39.40765445032337" lon="16.925906339287437"><ele>135.0</ele><time>2026-03-29T11:45:12Z</time></trkpt><trkpt lat="39.40770504457642" lon="16.92605902660785"><ele>133.5</ele><time>2026-03-29T11:45:13Z</time></trkpt><trkpt lat="39.407767723209695" lon="16.92621555050795"><ele>132.0</ele><time>2026-03-29T11:45:14Z</time></trkpt><trkpt lat="39.407838527334626" lon="16.926348953609125"><ele>132.0</ele><time>2026-03-29T11:45:15Z</time></trkpt><trkpt lat="39.40790476270864" lon="16.926472856225452"><ele>132.0</ele><time>2026-03-29T11:45:16Z</time></trkpt><trkpt lat="39.40795488491584" lon="16.92660809421787"><ele>132.0</ele><time>2026-03-29T11:45:17Z</time></trkpt><trkpt lat="39.407984478168885" lon="16.92676165906295"><ele>132.0</ele><time>2026-03-29T11:45:18Z</time></trkpt><trkpt lat="39.40799194985969" lon="16.926937775843005"><ele>131.75</ele><time>2026-03-29T11:45:19Z</time></trkpt><trkpt lat="39.407991419677586" lon="16.92712882072837"><ele>131.5</ele><time>2026-03-29T11:45:20Z</time></trkpt><trkpt lat="39.40799036705081" lon="16.927310916700254"><ele>131.25</ele><time>2026-03-29T11:45:20.999Z</time></trkpt><trkpt lat="39.407989444203594" lon="16.92747056185406"><ele>131.0</ele><time>2026-03-29T11:45:21.999Z</time></trkpt><trkpt lat="39.407989058190026" lon="16.92761338749027"><ele>131.2</ele><time>2026-03-29T11:45:22.999Z</time></trkpt><trkpt lat="39.40798983940179" lon="16.927750912303228"><ele>131.39999999999998</ele><time>2026-03-29T11:45:23.999Z</time></trkpt><trkpt lat="39.40800222191422" lon="16.927903365002663"><ele>131.6</ele><time>2026-03-29T11:45:24.999Z</time></trkpt><trkpt lat="39.40805318210582" lon="16.928035747590602"><ele>131.79999999999998</ele><time>2026-03-29T11:45:25.999Z</time></trkpt><trkpt lat="39.40809308176367" lon="16.928158098033386"><ele>132.0</ele><time>2026-03-29T11:45:26.999Z</time></trkpt><trkpt lat="39.408160819186506" lon="16.928254507331104"><ele>132.0</ele><time>2026-03-29T11:45:27.999Z</time></trkpt><trkpt lat="39.40823807098528" lon="16.928324874362097"><ele>132.0</ele><time>2026-03-29T11:45:28.999Z</time></trkpt><trkpt lat="39.40831004046973" lon="16.92837188462476"><ele>132.0</ele><time>2026-03-29T11:45:29.999Z</time></trkpt><trkpt lat="39.40837943420375" lon="16.928400929825496"><ele>132.0</ele><time>2026-03-29T11:45:30.999Z</time></trkpt><trkpt lat="39.40846021448209" lon="16.928418952512924"><ele>132.0</ele><time>2026-03-29T11:45:31.999Z</time></trkpt><trkpt lat="39.40856333828622" lon="16.92843640886489"><ele>132.0</ele><time>2026-03-29T11:45:32.999Z</time></trkpt><trkpt lat="39.408686678086866" lon="16.92844447756143"><ele>128.5</ele><time>2026-03-29T11:45:33.999Z</time></trkpt><trkpt lat="39.4088153106049" lon="16.928455369670818"><ele>125.0</ele><time>2026-03-29T11:45:34.999Z</time></trkpt><trkpt lat="39.408940837099166" lon="16.92846270733881"><ele>121.5</ele><time>2026-03-29T11:45:35.999Z</time></trkpt><trkpt lat="39.40905727935934" lon="16.92847061653503"><ele>118.0</ele><time>2026-03-29T11:45:36.999Z</time></trkpt><trkpt lat="39.40916460449816" lon="16.928474341622074"><ele>117.60000000000001</ele><time>2026-03-29T11:45:37.999Z</time></trkpt><trkpt lat="39.409259314345626" lon="16.928492827078585"><ele>117.20000000000002</ele><time>2026-03-29T11:45:38.999Z</time></trkpt><trkpt lat="39.40933762728514" lon="16.92853370771149"><ele>116.8</ele><time>2026-03-29T11:45:39.999Z</time></trkpt><trkpt lat="39.40939566974358" lon="16.92861775478001"><ele>116.4</ele><time>2026-03-29T11:45:40.999Z</time></trkpt><trkpt lat="39.40943556780419" lon="16.928750106189145"><ele>116.0</ele><time>2026-03-29T11:45:41.999Z</time></trkpt><trkpt lat="39.40947169284731" lon="16.928920290816883"><ele>116.0</ele><time>2026-03-29T11:45:42.999Z</time></trkpt><trkpt lat="39.40951376284035" lon="16.929115637143973"><ele>116.0</ele><time>2026-03-29T11:45:43.999Z</time></trkpt><trkpt lat="39.40955202563837" lon="16.92932322865919"><ele>116.0</ele><time>2026-03-29T11:45:44.999Z</time></trkpt><trkpt lat="39.40958921584492" lon="16.92953504268207"><ele>118.33333333333333</ele><time>2026-03-29T11:45:45.999Z</time></trkpt><trkpt lat="39.409618908350005" lon="16.929749393209917"><ele>120.66666666666666</ele><time>2026-03-29T11:45:46.999Z</time></trkpt><trkpt lat="39.409659547913" lon="16.929962293757022"><ele>123.0</ele><time>2026-03-29T11:45:47.999Z</time></trkpt><trkpt lat="39.40969451058151" lon="16.93014545354212"><ele>119.25</ele><time>2026-03-29T11:45:48.999Z</time></trkpt><trkpt lat="39.409724918820984" lon="16.930304753929573"><ele>115.5</ele><time>2026-03-29T11:45:49.999Z</time></trkpt><trkpt lat="39.40975254291206" lon="16.930440646819438"><ele>111.75</ele><time>2026-03-29T11:45:50.999Z</time></trkpt><trkpt lat="39.409885183944084" lon="16.93051265242956"><ele>108.0</ele><time>2026-03-29T11:45:51.999Z</time></trkpt><trkpt lat="39.409992102902166" lon="16.93054976923872"><ele>108.0</ele><time>2026-03-29T11:45:52.999Z</time></trkpt><trkpt lat="39.4101055917928" lon="16.93058656070106"><ele>108.0</ele><time>2026-03-29T11:45:53.999Z</time></trkpt><trkpt lat="39.41023412005869" lon="16.930563165057876"><ele>108.0</ele><time>2026-03-29T11:45:54.999Z</time></trkpt><trkpt lat="39.410378056979326" lon="16.93056197044519"><ele>108.0</ele><time>2026-03-29T11:45:55.999Z</time></trkpt><trkpt lat="39.41052613756801" lon="16.93057270573827"><ele>107.0</ele><time>2026-03-29T11:45:56.999Z</time></trkpt><trkpt lat="39.41066264768908" lon="16.930561239978964"><ele>106.0</ele><time>2026-03-29T11:45:57.999Z</time></trkpt><trkpt lat="39.4107901868089" lon="16.930581565624085"><ele>105.0</ele><time>2026-03-29T11:45:58.999Z</time></trkpt><trkpt lat="39.41092223612469" lon="16.930576309978417"><ele>104.0</ele><time>2026-03-29T11:45:59.999Z</time></trkpt><trkpt lat="39.41105171125699" lon="16.930595667827525"><ele>104.0</ele><time>2026-03-29T11:46:00.999Z</time></trkpt><trkpt lat="39.41117200095757" lon="16.93059501549901"><ele>104.0</ele><time>2026-03-29T11:46:01.999Z</time></trkpt><trkpt lat="39.41128701041196" lon="16.930581214625473"><ele>104.0</ele><time>2026-03-29T11:46:02.999Z</time></trkpt><trkpt lat="39.41138781737869" lon="16.930575864575154"><ele>104.0</ele><time>2026-03-29T11:46:03.999Z</time></trkpt><trkpt lat="39.41148585894077" lon="16.930567452446958"><ele>104.0</ele><time>2026-03-29T11:46:04.999Z</time></trkpt><trkpt lat="39.41158856148247" lon="16.93053071141223"><ele>103.25</ele><time>2026-03-29T11:46:05.999Z</time></trkpt><trkpt lat="39.411684430179086" lon="16.930473462782285"><ele>102.5</ele><time>2026-03-29T11:46:06.999Z</time></trkpt><trkpt lat="39.411802821366635" lon="16.93042592862696"><ele>101.75</ele><time>2026-03-29T11:46:07.999Z</time></trkpt><trkpt lat="39.41192586852472" lon="16.93037301352544"><ele>101.0</ele><time>2026-03-29T11:46:08.999Z</time></trkpt><trkpt lat="39.41204666844083" lon="16.930330314338764"><ele>100.5</ele><time>2026-03-29T11:46:09.999Z</time></trkpt><trkpt lat="39.412162031202335" lon="16.930294209571663"><ele>100.0</ele><time>2026-03-29T11:46:10.999Z</time></trkpt><trkpt lat="39.41227826603934" lon="16.93024163739672"><ele>99.5</ele><time>2026-03-29T11:46:11.999Z</time></trkpt><trkpt lat="39.41239099524044" lon="16.930194717899603"><ele>99.0</ele><time>2026-03-29T11:46:12.999Z</time></trkpt><trkpt lat="39.41248877532667" lon="16.93012224654069"><ele>99.0</ele><time>2026-03-29T11:46:13.999Z</time></trkpt><trkpt lat="39.41259070688493" lon="16.930066433563443"><ele>99.0</ele><time>2026-03-29T11:46:14.999Z</time></trkpt><trkpt lat="39.412696185748054" lon="16.930036744171613"><ele>99.0</ele><time>2026-03-29T11:46:15.999Z</time></trkpt><trkpt lat="39.41281388142212" lon="16.930008959071287"><ele>99.0</ele><time>2026-03-29T11:46:16.999Z</time></trkpt><trkpt lat="39.41293076327298" lon="16.92998314773605"><ele>100.0</ele><time>2026-03-29T11:46:17.999Z</time></trkpt><trkpt lat="39.41304910395192" lon="16.92995279530419"><ele>101.0</ele><time>2026-03-29T11:46:18.999Z</time></trkpt><trkpt lat="39.413168595983265" lon="16.92995360999563"><ele>102.0</ele><time>2026-03-29T11:46:19.999Z</time></trkpt><trkpt lat="39.41328680778178" lon="16.929945119427423"><ele>103.0</ele><time>2026-03-29T11:46:20.999Z</time></trkpt><trkpt lat="39.41339071726748" lon="16.92992365305115"><ele>103.0</ele><time>2026-03-29T11:46:21.999Z</time></trkpt><trkpt lat="39.41350539883421" lon="16.929917949492452"><ele>103.0</ele><time>2026-03-29T11:46:22.999Z</time></trkpt><trkpt lat="39.413631431434034" lon="16.929923810558126"><ele>103.0</ele><time>2026-03-29T11:46:23.999Z</time></trkpt><trkpt lat="39.413756251625735" lon="16.929947535308628"><ele>103.0</ele><time>2026-03-29T11:46:24.999Z</time></trkpt><trkpt lat="39.41386635609208" lon="16.92995636161682"><ele>104.2</ele><time>2026-03-29T11:46:25.999Z</time></trkpt><trkpt lat="39.41396674071373" lon="16.930004657794903"><ele>105.4</ele><time>2026-03-29T11:46:26.999Z</time></trkpt><trkpt lat="39.414060395993125" lon="16.930085119551354"><ele>106.60000000000001</ele><time>2026-03-29T11:46:27.999Z</time></trkpt><trkpt lat="39.414152744479516" lon="16.93016080155719"><ele>107.80000000000001</ele><time>2026-03-29T11:46:28.999Z</time></trkpt><trkpt lat="39.414231204737966" lon="16.93023712403281"><ele>109.0</ele><time>2026-03-29T11:46:29.999Z</time></trkpt><trkpt lat="39.414297931176996" lon="16.93033396406164"><ele>106.0</ele><time>2026-03-29T11:46:30.999Z</time></trkpt><trkpt lat="39.41436657383641" lon="16.930457897561382"><ele>103.0</ele><time>2026-03-29T11:46:31.999Z</time></trkpt><trkpt lat="39.414432410687475" lon="16.930602622721807"><ele>100.0</ele><time>2026-03-29T11:46:32.999Z</time></trkpt><trkpt lat="39.41448916108963" lon="16.930729348612783"><ele>97.0</ele><time>2026-03-29T11:46:33.999Z</time></trkpt><trkpt lat="39.41454443690492" lon="16.930854290449652"><ele>96.19999999999999</ele><time>2026-03-29T11:46:34.999Z</time></trkpt><trkpt lat="39.41459400790421" lon="16.930966337462518"><ele>95.4</ele><time>2026-03-29T11:46:35.999Z</time></trkpt><trkpt lat="39.41463744776989" lon="16.931061089675403"><ele>94.6</ele><time>2026-03-29T11:46:36.999Z</time></trkpt><trkpt lat="39.414675220335525" lon="16.931141935670468"><ele>93.80000000000001</ele><time>2026-03-29T11:46:37.999Z</time></trkpt><trkpt lat="39.414730632021424" lon="16.931258097669314"><ele>93.0</ele><time>2026-03-29T11:46:39.999Z</time></trkpt><trkpt lat="39.414785107539814" lon="16.931366008524922"><ele>92.75</ele><time>2026-03-29T11:46:41.999Z</time></trkpt><trkpt lat="39.41486372369561" lon="16.93148622961541"><ele>92.5</ele><time>2026-03-29T11:46:43.999Z</time></trkpt><trkpt lat="39.414980721357274" lon="16.931539541243026"><ele>92.25</ele><time>2026-03-29T11:46:44.999Z</time></trkpt><trkpt lat="39.415093716995536" lon="16.931609523414394"><ele>92.0</ele><time>2026-03-29T11:46:45.999Z</time></trkpt><trkpt lat="39.415213280870226" lon="16.931675823557732"><ele>91.5</ele><time>2026-03-29T11:46:46.999Z</time></trkpt><trkpt lat="39.41533454727534" lon="16.931758294145325"><ele>91.0</ele><time>2026-03-29T11:46:47.999Z</time></trkpt><trkpt lat="39.415448987126595" lon="16.931821836273034"><ele>90.5</ele><time>2026-03-29T11:46:48.999Z</time></trkpt><trkpt lat="39.41556476477134" lon="16.931864510084278"><ele>90.0</ele><time>2026-03-29T11:46:49.999Z</time></trkpt><trkpt lat="39.415663755371256" lon="16.9319394571191"><ele>89.8</ele><time>2026-03-29T11:46:50.999Z</time></trkpt><trkpt lat="39.41573521645557" lon="16.93198414786056"><ele>89.6</ele><time>2026-03-29T11:46:51.999Z</time></trkpt><trkpt lat="39.41579381680908" lon="16.93202495892277"><ele>89.4</ele><time>2026-03-29T11:46:52.999Z</time></trkpt><trkpt lat="39.41589860279083" lon="16.93207345480703"><ele>89.2</ele><time>2026-03-29T11:46:54.999Z</time></trkpt><trkpt lat="39.416011471064294" lon="16.932135788295124"><ele>89.0</ele><time>2026-03-29T11:46:56.999Z</time></trkpt><trkpt lat="39.416075913015845" lon="16.93217150295626"><ele>88.99999999999999</ele><time>2026-03-29T11:46:57.999Z</time></trkpt><trkpt lat="39.416134658393595" lon="16.932204060490584"><ele>89.0</ele><time>2026-03-29T11:46:58.999Z</time></trkpt><trkpt lat="39.41619534198312" lon="16.932237692222"><ele>89.0</ele><time>2026-03-29T11:46:59.999Z</time></trkpt><trkpt lat="39.416262721716656" lon="16.93227503503587"><ele>89.0</ele><time>2026-03-29T11:47:00.999Z</time></trkpt><trkpt lat="39.41633349739804" lon="16.93231425992345"><ele>89.0</ele><time>2026-03-29T11:47:01.999Z</time></trkpt><trkpt lat="39.41640486950208" lon="16.932355365149537"><ele>88.99999999999999</ele><time>2026-03-29T11:47:02.999Z</time></trkpt><trkpt lat="39.416483615281244" lon="16.93240062275809"><ele>89.0</ele><time>2026-03-29T11:47:03.999Z</time></trkpt><trkpt lat="39.41658708460794" lon="16.932460089758024"><ele>89.0</ele><time>2026-03-29T11:47:04.999Z</time></trkpt><trkpt lat="39.4167136098385" lon="16.93253280767834"><ele>89.0</ele><time>2026-03-29T11:47:05.999Z</time></trkpt><trkpt lat="39.41684067355311" lon="16.932605835091216"><ele>89.0</ele><time>2026-03-29T11:47:06.999Z</time></trkpt><trkpt lat="39.41696614600011" lon="16.932677942387922"><ele>89.0</ele><time>2026-03-29T11:47:07.999Z</time></trkpt><trkpt lat="39.41708544789354" lon="16.932746502716785"><ele>89.25</ele><time>2026-03-29T11:47:08.999Z</time></trkpt><trkpt lat="39.4171937209877" lon="16.932810114060842"><ele>89.5</ele><time>2026-03-29T11:47:09.999Z</time></trkpt><trkpt lat="39.417298079477476" lon="16.932871585125913"><ele>89.75</ele><time>2026-03-29T11:47:10.999Z</time></trkpt><trkpt lat="39.41741690345137" lon="16.932941576866362"><ele>90.0</ele><time>2026-03-29T11:47:11.999Z</time></trkpt><trkpt lat="39.417546998297176" lon="16.933015618964344"><ele>90.0</ele><time>2026-03-29T11:47:12.999Z</time></trkpt><trkpt lat="39.41767863370504" lon="16.933088952828253"><ele>90.0</ele><time>2026-03-29T11:47:13.999Z</time></trkpt><trkpt lat="39.41779618847388" lon="16.933156102948466"><ele>90.0</ele><time>2026-03-29T11:47:14.999Z</time></trkpt><trkpt lat="39.41789777951107" lon="16.9332199924865"><ele>90.0</ele><time>2026-03-29T11:47:15.999Z</time></trkpt><trkpt lat="39.41800386430391" lon="16.933291304929444"><ele>89.4</ele><time>2026-03-29T11:47:16.999Z</time></trkpt><trkpt lat="39.41809612731793" lon="16.93336360207686"><ele>88.8</ele><time>2026-03-29T11:47:17.999Z</time></trkpt><trkpt lat="39.41818638649778" lon="16.933441877722196"><ele>88.19999999999999</ele><time>2026-03-29T11:47:18.999Z</time></trkpt><trkpt lat="39.418258983653836" lon="16.933509802942716"><ele>87.6</ele><time>2026-03-29T11:47:19.999Z</time></trkpt><trkpt lat="39.41831734419747" lon="16.933575074650943"><ele>87.0</ele><time>2026-03-29T11:47:20.999Z</time></trkpt><trkpt lat="39.4183726326201" lon="16.933630907611825"><ele>87.0</ele><time>2026-03-29T11:47:21.999Z</time></trkpt><trkpt lat="39.41842359908463" lon="16.93368237613289"><ele>87.0</ele><time>2026-03-29T11:47:22.999Z</time></trkpt><trkpt lat="39.418520438085444" lon="16.93377811956568"><ele>87.0</ele><time>2026-03-29T11:47:24.999Z</time></trkpt><trkpt lat="39.418578513405144" lon="16.933834319102264"><ele>87.0</ele><time>2026-03-29T11:47:25.999Z</time></trkpt><trkpt lat="39.41866342392128" lon="16.933911865582917"><ele>87.0</ele><time>2026-03-29T11:47:26.999Z</time></trkpt><trkpt lat="39.418756944486184" lon="16.93400084023458"><ele>86.75</ele><time>2026-03-29T11:47:27.999Z</time></trkpt><trkpt lat="39.41885352593794" lon="16.934097137080915"><ele>86.5</ele><time>2026-03-29T11:47:28.999Z</time></trkpt><trkpt lat="39.418953345834915" lon="16.93420042627183"><ele>86.25</ele><time>2026-03-29T11:47:29.999Z</time></trkpt><trkpt lat="39.41906095122822" lon="16.93431245940808"><ele>86.0</ele><time>2026-03-29T11:47:30.999Z</time></trkpt><trkpt lat="39.41917377649909" lon="16.934429298192388"><ele>86.0</ele><time>2026-03-29T11:47:31.999Z</time></trkpt><trkpt lat="39.419294284690125" lon="16.93455409480898"><ele>86.0</ele><time>2026-03-29T11:47:32.999Z</time></trkpt><trkpt lat="39.41941499306097" lon="16.934679099861615"><ele>86.0</ele><time>2026-03-29T11:47:33.999Z</time></trkpt><trkpt lat="39.41952905805535" lon="16.934797225064003"><ele>86.0</ele><time>2026-03-29T11:47:34.999Z</time></trkpt><trkpt lat="39.419646090828344" lon="16.934918423684824"><ele>86.0</ele><time>2026-03-29T11:47:35.999Z</time></trkpt><trkpt lat="39.41984956882136" lon="16.93488616117694"><ele>86.0</ele><time>2026-03-29T11:47:36.999Z</time></trkpt><trkpt lat="39.41995979482214" lon="16.934990395116667"><ele>86.0</ele><time>2026-03-29T11:47:37.999Z</time></trkpt><trkpt lat="39.420058564841604" lon="16.935079886059643"><ele>86.0</ele><time>2026-03-29T11:47:38.999Z</time></trkpt><trkpt lat="39.42004312154141" lon="16.935307544865793"><ele>86.0</ele><time>2026-03-29T11:47:39.999Z</time></trkpt><trkpt lat="39.42011024738722" lon="16.93537658682694"><ele>86.0</ele><time>2026-03-29T11:47:40.999Z</time></trkpt><trkpt lat="39.4201843069594" lon="16.935451712700303"><ele>86.0</ele><time>2026-03-29T11:47:42.999Z</time></trkpt><trkpt lat="39.42032458583697" lon="16.935591249802915"><ele>86.0</ele><time>2026-03-29T11:47:53.999Z</time></trkpt><trkpt lat="39.420411417198515" lon="16.935677227874816"><ele>86.0</ele><time>2026-03-29T11:47:55.999Z</time></trkpt><trkpt lat="39.4204983221115" lon="16.935762216077652"><ele>86.0</ele><time>2026-03-29T11:47:57.999Z</time></trkpt><trkpt lat="39.420568272498684" lon="16.93583012860021"><ele>85.83333333333334</ele><time>2026-03-29T11:47:59.999Z</time></trkpt><trkpt lat="39.420667673416105" lon="16.935928728585882"><ele>85.66666666666667</ele><time>2026-03-29T11:48:01.999Z</time></trkpt><trkpt lat="39.42073349727846" lon="16.93599440880753"><ele>85.5</ele><time>2026-03-29T11:48:02.999Z</time></trkpt><trkpt lat="39.42080241571848" lon="16.936066338004608"><ele>85.33333333333333</ele><time>2026-03-29T11:48:03.999Z</time></trkpt><trkpt lat="39.42086012961514" lon="16.93613223717092"><ele>85.16666666666666</ele><time>2026-03-29T11:48:04.999Z</time></trkpt><trkpt lat="39.420906573288654" lon="16.936195531707316"><ele>85.0</ele><time>2026-03-29T11:48:05.999Z</time></trkpt><trkpt lat="39.420975220752055" lon="16.936308518846868"><ele>85.0</ele><time>2026-03-29T11:48:07.999Z</time></trkpt><trkpt lat="39.421011256502204" lon="16.93638123502789"><ele>85.0</ele><time>2026-03-29T11:48:08.999Z</time></trkpt><trkpt lat="39.42107076870684" lon="16.936550761379625"><ele>85.0</ele><time>2026-03-29T11:48:10.999Z</time></trkpt><trkpt lat="39.42110635008136" lon="16.93668831089066"><ele>85.0</ele><time>2026-03-29T11:48:11.999Z</time></trkpt><trkpt lat="39.421133183415236" lon="16.936854862321834"><ele>85.0</ele><time>2026-03-29T11:48:12.999Z</time></trkpt><trkpt lat="39.421152739023185" lon="16.937044339397975"><ele>85.0</ele><time>2026-03-29T11:48:13.999Z</time></trkpt><trkpt lat="39.42117166554709" lon="16.937224033792464"><ele>85.0</ele><time>2026-03-29T11:48:14.999Z</time></trkpt><trkpt lat="39.42119119999882" lon="16.937392220481673"><ele>85.0</ele><time>2026-03-29T11:48:15.999Z</time></trkpt><trkpt lat="39.42122405988967" lon="16.937559750233383"><ele>85.5</ele><time>2026-03-29T11:48:16.999Z</time></trkpt><trkpt lat="39.421278264971306" lon="16.937703668792444"><ele>86.0</ele><time>2026-03-29T11:48:17.999Z</time></trkpt><trkpt lat="39.42134550772455" lon="16.937832063890276"><ele>86.5</ele><time>2026-03-29T11:48:18.999Z</time></trkpt><trkpt lat="39.42141821344695" lon="16.937954838055976"><ele>87.0</ele><time>2026-03-29T11:48:19.999Z</time></trkpt><trkpt lat="39.42149372394169" lon="16.938078176130976"><ele>87.0</ele><time>2026-03-29T11:48:20.999Z</time></trkpt><trkpt lat="39.42157353641185" lon="16.93821906328781"><ele>87.0</ele><time>2026-03-29T11:48:21.999Z</time></trkpt><trkpt lat="39.42166060176059" lon="16.93836763327972"><ele>87.0</ele><time>2026-03-29T11:48:22.999Z</time></trkpt><trkpt lat="39.4217560425456" lon="16.93852655798463"><ele>87.0</ele><time>2026-03-29T11:48:23.999Z</time></trkpt><trkpt lat="39.42186412556097" lon="16.93869822990548"><ele>87.66666666666667</ele><time>2026-03-29T11:48:24.999Z</time></trkpt><trkpt lat="39.421980860175275" lon="16.938875034599825"><ele>88.33333333333334</ele><time>2026-03-29T11:48:25.999Z</time></trkpt><trkpt lat="39.4220955875673" lon="16.939065672386494"><ele>89.0</ele><time>2026-03-29T11:48:26.999Z</time></trkpt><trkpt lat="39.422215643735406" lon="16.939262439376865"><ele>89.0</ele><time>2026-03-29T11:48:27.999Z</time></trkpt><trkpt lat="39.4223362009302" lon="16.939453811615085"><ele>89.0</ele><time>2026-03-29T11:48:28.999Z</time></trkpt><trkpt lat="39.42245096524237" lon="16.93964030236795"><ele>89.0</ele><time>2026-03-29T11:48:29.999Z</time></trkpt><trkpt lat="39.42255995462914" lon="16.93982061174131"><ele>89.0</ele><time>2026-03-29T11:48:30.999Z</time></trkpt><trkpt lat="39.42266048867026" lon="16.93998693310338"><ele>89.0</ele><time>2026-03-29T11:48:31.999Z</time></trkpt><trkpt lat="39.422754549742415" lon="16.94014295306225"><ele>89.0</ele><time>2026-03-29T11:48:32.999Z</time></trkpt><trkpt lat="39.42284196869608" lon="16.940288015743977"><ele>88.25</ele><time>2026-03-29T11:48:33.999Z</time></trkpt><trkpt lat="39.42293244415344" lon="16.940438150327157"><ele>87.5</ele><time>2026-03-29T11:48:34.999Z</time></trkpt><trkpt lat="39.42301868003029" lon="16.940589019026582"><ele>86.75</ele><time>2026-03-29T11:48:35.999Z</time></trkpt><trkpt lat="39.42308906619675" lon="16.94073327519782"><ele>86.0</ele><time>2026-03-29T11:48:36.999Z</time></trkpt><trkpt lat="39.42313148194201" lon="16.940858672911205"><ele>87.0</ele><time>2026-03-29T11:48:37.999Z</time></trkpt><trkpt lat="39.42316799268108" lon="16.940973286850003"><ele>88.0</ele><time>2026-03-29T11:48:38.999Z</time></trkpt><trkpt lat="39.42320851473594" lon="16.94110048931646"><ele>89.0</ele><time>2026-03-29T11:48:39.999Z</time></trkpt><trkpt lat="39.423249279312664" lon="16.941228453080118"><ele>90.0</ele><time>2026-03-29T11:48:40.999Z</time></trkpt><trkpt lat="39.42329056674656" lon="16.941358058141716"><ele>91.0</ele><time>2026-03-29T11:48:41.999Z</time></trkpt><trkpt lat="39.42339621876241" lon="16.941464543343987"><ele>91.0</ele><time>2026-03-29T11:48:42.999Z</time></trkpt><trkpt lat="39.423406535796936" lon="16.941636367406154"><ele>91.0</ele><time>2026-03-29T11:48:43.999Z</time></trkpt><trkpt lat="39.42340430823422" lon="16.94179739741977"><ele>91.0</ele><time>2026-03-29T11:48:44.999Z</time></trkpt><trkpt lat="39.42335610476629" lon="16.94194998531483"><ele>91.0</ele><time>2026-03-29T11:48:45.999Z</time></trkpt><trkpt lat="39.42337859858967" lon="16.94207559239486"><ele>89.25</ele><time>2026-03-29T11:48:46.999Z</time></trkpt><trkpt lat="39.42340116437043" lon="16.942202114738308"><ele>87.5</ele><time>2026-03-29T11:48:47.999Z</time></trkpt><trkpt lat="39.4234242835829" lon="16.942331806732124"><ele>85.75</ele><time>2026-03-29T11:48:48.999Z</time></trkpt><trkpt lat="39.42345171348878" lon="16.94248567931129"><ele>84.0</ele><time>2026-03-29T11:48:49.999Z</time></trkpt><trkpt lat="39.423486285207595" lon="16.942654713086633"><ele>83.0</ele><time>2026-03-29T11:48:50.999Z</time></trkpt><trkpt lat="39.42353162621697" lon="16.942824707579934"><ele>82.0</ele><time>2026-03-29T11:48:51.999Z</time></trkpt><trkpt lat="39.42358111322593" lon="16.94300162986197"><ele>81.0</ele><time>2026-03-29T11:48:52.999Z</time></trkpt><trkpt lat="39.42362923001087" lon="16.943175891821692"><ele>80.0</ele><time>2026-03-29T11:48:53.999Z</time></trkpt><trkpt lat="39.42366606670473" lon="16.94330930123755"><ele>79.6</ele><time>2026-03-29T11:48:54.999Z</time></trkpt><trkpt lat="39.42370150353026" lon="16.943437640941156"><ele>79.2</ele><time>2026-03-29T11:48:55.999Z</time></trkpt><trkpt lat="39.42373515972688" lon="16.943559529361682"><ele>78.8</ele><time>2026-03-29T11:48:56.999Z</time></trkpt><trkpt lat="39.423768048293496" lon="16.94366962932371"><ele>78.4</ele><time>2026-03-29T11:48:57.999Z</time></trkpt><trkpt lat="39.42380545186587" lon="16.943778479747778"><ele>78.0</ele><time>2026-03-29T11:48:58.999Z</time></trkpt><trkpt lat="39.42386424807767" lon="16.94389625723502"><ele>79.0</ele><time>2026-03-29T11:48:59.999Z</time></trkpt><trkpt lat="39.42393740760519" lon="16.943992491804003"><ele>80.0</ele><time>2026-03-29T11:49:00.999Z</time></trkpt><trkpt lat="39.42402829819407" lon="16.944091383803453"><ele>81.0</ele><time>2026-03-29T11:49:01.999Z</time></trkpt><trkpt lat="39.42413613732456" lon="16.944186275642107"><ele>82.0</ele><time>2026-03-29T11:49:02.999Z</time></trkpt><trkpt lat="39.424243915181094" lon="16.944276856070374"><ele>80.0</ele><time>2026-03-29T11:49:03.999Z</time></trkpt><trkpt lat="39.42434766753712" lon="16.944364302365912"><ele>78.0</ele><time>2026-03-29T11:49:04.999Z</time></trkpt><trkpt lat="39.424449244842194" lon="16.94445230512582"><ele>76.0</ele><time>2026-03-29T11:49:05.999Z</time></trkpt><trkpt lat="39.42452115011907" lon="16.944539340689868"><ele>74.0</ele><time>2026-03-29T11:49:06.999Z</time></trkpt><trkpt lat="39.4245802480473" lon="16.9446541155547"><ele>74.0</ele><time>2026-03-29T11:49:07.999Z</time></trkpt><trkpt lat="39.424627129800314" lon="16.944770819674282"><ele>74.0</ele><time>2026-03-29T11:49:08.999Z</time></trkpt><trkpt lat="39.42467475741288" lon="16.94490768876757"><ele>74.0</ele><time>2026-03-29T11:49:09.999Z</time></trkpt><trkpt lat="39.42472476666953" lon="16.945061660790547"><ele>74.0</ele><time>2026-03-29T11:49:10.999Z</time></trkpt><trkpt lat="39.42476723345799" lon="16.945203733744247"><ele>74.75</ele><time>2026-03-29T11:49:11.999Z</time></trkpt><trkpt lat="39.4248118712084" lon="16.945348045805304"><ele>75.5</ele><time>2026-03-29T11:49:12.999Z</time></trkpt><trkpt lat="39.42485784549634" lon="16.945493687305493"><ele>76.25</ele><time>2026-03-29T11:49:13.999Z</time></trkpt><trkpt lat="39.42490952028532" lon="16.945643240193238"><ele>77.0</ele><time>2026-03-29T11:49:14.999Z</time></trkpt><trkpt lat="39.42496101288981" lon="16.94578183866551"><ele>76.2</ele><time>2026-03-29T11:49:15.999Z</time></trkpt><trkpt lat="39.42501508763134" lon="16.945912617562858"><ele>75.4</ele><time>2026-03-29T11:49:16.999Z</time></trkpt><trkpt lat="39.42508436379355" lon="16.946040492939108"><ele>74.6</ele><time>2026-03-29T11:49:17.999Z</time></trkpt><trkpt lat="39.42513929305701" lon="16.94614199677819"><ele>73.8</ele><time>2026-03-29T11:49:18.999Z</time></trkpt><trkpt lat="39.42518084178312" lon="16.946221338318626"><ele>73.0</ele><time>2026-03-29T11:49:19.999Z</time></trkpt><trkpt lat="39.42521978097929" lon="16.94629818536399"><ele>73.0</ele><time>2026-03-29T11:49:20.999Z</time></trkpt><trkpt lat="39.42526452092349" lon="16.94638648020566"><ele>73.0</ele><time>2026-03-29T11:49:22.999Z</time></trkpt><trkpt lat="39.425306305484206" lon="16.9464689425076"><ele>73.0</ele><time>2026-03-29T11:49:25.001Z</time></trkpt><trkpt lat="39.425343084263126" lon="16.946541525838583"><ele>73.0</ele><time>2026-03-29T11:49:26.001Z</time></trkpt><trkpt lat="39.4253816954427" lon="16.946617725456885"><ele>73.0</ele><time>2026-03-29T11:49:27.001Z</time></trkpt><trkpt lat="39.425441060004616" lon="16.94673186207089"><ele>73.0</ele><time>2026-03-29T11:49:28.001Z</time></trkpt><trkpt lat="39.425518832241416" lon="16.94685467532877"><ele>74.66666666666666</ele><time>2026-03-29T11:49:29.001Z</time></trkpt><trkpt lat="39.425591082933806" lon="16.947021162707376"><ele>76.33333333333333</ele><time>2026-03-29T11:49:30.001Z</time></trkpt><trkpt lat="39.42567822554724" lon="16.94720529395103"><ele>78.0</ele><time>2026-03-29T11:49:31.001Z</time></trkpt><trkpt lat="39.42577763933684" lon="16.947378867020774"><ele>78.0</ele><time>2026-03-29T11:49:32.001Z</time></trkpt><trkpt lat="39.425879799608815" lon="16.94754118436114"><ele>78.0</ele><time>2026-03-29T11:49:33.001Z</time></trkpt><trkpt lat="39.42599353936918" lon="16.94768765707398"><ele>78.0</ele><time>2026-03-29T11:49:34.001Z</time></trkpt><trkpt lat="39.42612221034288" lon="16.94784813492017"><ele>78.0</ele><time>2026-03-29T11:49:35.001Z</time></trkpt><trkpt lat="39.426258656877415" lon="16.947995872333255"><ele>78.0</ele><time>2026-03-29T11:49:36.001Z</time></trkpt><trkpt lat="39.42638432046294" lon="16.948135691240207"><ele>78.0</ele><time>2026-03-29T11:49:37.001Z</time></trkpt><trkpt lat="39.42649020209523" lon="16.948252152230005"><ele>78.0</ele><time>2026-03-29T11:49:38.001Z</time></trkpt><trkpt lat="39.42659223460075" lon="16.948350760650513"><ele>78.0</ele><time>2026-03-29T11:49:39.001Z</time></trkpt><trkpt lat="39.426705546034334" lon="16.948409274011553"><ele>78.0</ele><time>2026-03-29T11:49:40.001Z</time></trkpt><trkpt lat="39.426823055278156" lon="16.948481973529926"><ele>78.0</ele><time>2026-03-29T11:49:41.001Z</time></trkpt><trkpt lat="39.42694492646427" lon="16.948485380769522"><ele>76.25</ele><time>2026-03-29T11:49:42.001Z</time></trkpt><trkpt lat="39.4270871856876" lon="16.948467998978046"><ele>74.5</ele><time>2026-03-29T11:49:43.001Z</time></trkpt><trkpt lat="39.42723111459349" lon="16.948457920930768"><ele>72.75</ele><time>2026-03-29T11:49:44.001Z</time></trkpt><trkpt lat="39.427357687177796" lon="16.948430907109444"><ele>71.0</ele><time>2026-03-29T11:49:45.001Z</time></trkpt><trkpt lat="39.42749132363862" lon="16.94840753819918"><ele>70.6</ele><time>2026-03-29T11:49:46.001Z</time></trkpt><trkpt lat="39.42761015550593" lon="16.94842252201987"><ele>70.19999999999999</ele><time>2026-03-29T11:49:47.001Z</time></trkpt><trkpt lat="39.42772180219313" lon="16.94842799068245"><ele>69.80000000000001</ele><time>2026-03-29T11:49:48.001Z</time></trkpt><trkpt lat="39.427813404040236" lon="16.948473537062707"><ele>69.4</ele><time>2026-03-29T11:49:49.001Z</time></trkpt><trkpt lat="39.427923453090436" lon="16.94852720993783"><ele>69.0</ele><time>2026-03-29T11:49:50.001Z</time></trkpt><trkpt lat="39.42802104220408" lon="16.9486757869587"><ele>69.0</ele><time>2026-03-29T11:49:51.001Z</time></trkpt><trkpt lat="39.42813575440659" lon="16.94878258889086"><ele>69.0</ele><time>2026-03-29T11:49:52.001Z</time></trkpt><trkpt lat="39.42825008802037" lon="16.948862465825503"><ele>69.0</ele><time>2026-03-29T11:49:53.001Z</time></trkpt><trkpt lat="39.42833223251372" lon="16.948961319403224"><ele>69.0</ele><time>2026-03-29T11:49:54.001Z</time></trkpt><trkpt lat="39.42844726377565" lon="16.949037601199727"><ele>69.0</ele><time>2026-03-29T11:49:55Z</time></trkpt><trkpt lat="39.428549330823124" lon="16.949142280386138"><ele>69.0</ele><time>2026-03-29T11:49:56Z</time></trkpt><trkpt lat="39.42866897788053" lon="16.94922706586377"><ele>69.0</ele><time>2026-03-29T11:49:57Z</time></trkpt><trkpt lat="39.42881494028307" lon="16.949271390087393"><ele>69.0</ele><time>2026-03-29T11:49:58Z</time></trkpt><trkpt lat="39.428957575352186" lon="16.94932254155824"><ele>68.25</ele><time>2026-03-29T11:49:59Z</time></trkpt><trkpt lat="39.4291147240649" lon="16.949373753492626"><ele>67.5</ele><time>2026-03-29T11:50:00Z</time></trkpt><trkpt lat="39.4292500687578" lon="16.949412324895665"><ele>66.75</ele><time>2026-03-29T11:50:01Z</time></trkpt><trkpt lat="39.42938936466771" lon="16.94942760117905"><ele>66.0</ele><time>2026-03-29T11:50:02Z</time></trkpt><trkpt lat="39.42953302342443" lon="16.949438793173137"><ele>66.33333333333333</ele><time>2026-03-29T11:50:03Z</time></trkpt><trkpt lat="39.42967803037461" lon="16.949425235032272"><ele>66.66666666666666</ele><time>2026-03-29T11:50:04Z</time></trkpt><trkpt lat="39.429833941378" lon="16.94940024805858"><ele>67.0</ele><time>2026-03-29T11:50:05Z</time></trkpt><trkpt lat="39.429995330212726" lon="16.94937580959785"><ele>67.0</ele><time>2026-03-29T11:50:06Z</time></trkpt><trkpt lat="39.43015312083752" lon="16.949373136316545"><ele>67.0</ele><time>2026-03-29T11:50:07Z</time></trkpt><trkpt lat="39.430310308083676" lon="16.949367816014906"><ele>67.0</ele><time>2026-03-29T11:50:08Z</time></trkpt><trkpt lat="39.43046235141471" lon="16.9493794049057"><ele>67.0</ele><time>2026-03-29T11:50:09Z</time></trkpt><trkpt lat="39.430626773049845" lon="16.949356686412433"><ele>67.0</ele><time>2026-03-29T11:50:10Z</time></trkpt><trkpt lat="39.43077874521166" lon="16.949370775466015"><ele>67.0</ele><time>2026-03-29T11:50:11Z</time></trkpt><trkpt lat="39.430910373436404" lon="16.949368111042943"><ele>67.0</ele><time>2026-03-29T11:50:12Z</time></trkpt><trkpt lat="39.4310214048254" lon="16.949366155258705"><ele>67.0</ele><time>2026-03-29T11:50:13Z</time></trkpt><trkpt lat="39.43112672260323" lon="16.949345778366723"><ele>67.0</ele><time>2026-03-29T11:50:14Z</time></trkpt><trkpt lat="39.43122321552789" lon="16.949355492542615"><ele>67.0</ele><time>2026-03-29T11:50:15Z</time></trkpt><trkpt lat="39.43132118780931" lon="16.949379050366897"><ele>67.0</ele><time>2026-03-29T11:50:16Z</time></trkpt><trkpt lat="39.43140436638589" lon="16.949439648795916"><ele>67.0</ele><time>2026-03-29T11:50:17Z</time></trkpt><trkpt lat="39.43150485549499" lon="16.949496257714415"><ele>66.5</ele><time>2026-03-29T11:50:18Z</time></trkpt><trkpt lat="39.431624740196476" lon="16.949566809356032"><ele>66.0</ele><time>2026-03-29T11:50:19Z</time></trkpt><trkpt lat="39.43176707665678" lon="16.949644716849512"><ele>65.5</ele><time>2026-03-29T11:50:20Z</time></trkpt><trkpt lat="39.431899291462415" lon="16.949717301362746"><ele>65.0</ele><time>2026-03-29T11:50:21Z</time></trkpt><trkpt lat="39.43204867556972" lon="16.94977677321485"><ele>64.66666666666667</ele><time>2026-03-29T11:50:22Z</time></trkpt><trkpt lat="39.43219103419465" lon="16.949874644462106"><ele>64.33333333333333</ele><time>2026-03-29T11:50:23Z</time></trkpt><trkpt lat="39.43233164297848" lon="16.94994845906721"><ele>64.0</ele><time>2026-03-29T11:50:24Z</time></trkpt><trkpt lat="39.43246662069607" lon="16.950044142471157"><ele>64.0</ele><time>2026-03-29T11:50:25Z</time></trkpt><trkpt lat="39.43258878389117" lon="16.95013069397044"><ele>64.0</ele><time>2026-03-29T11:50:26Z</time></trkpt><trkpt lat="39.43269431806036" lon="16.950231717167146"><ele>64.0</ele><time>2026-03-29T11:50:27Z</time></trkpt><trkpt lat="39.43279997793346" lon="16.950350646204065"><ele>64.0</ele><time>2026-03-29T11:50:28Z</time></trkpt><trkpt lat="39.43289824070897" lon="16.95048035060698"><ele>63.75</ele><time>2026-03-29T11:50:29Z</time></trkpt><trkpt lat="39.43298491414417" lon="16.95062329378813"><ele>63.5</ele><time>2026-03-29T11:50:30Z</time></trkpt><trkpt lat="39.43307341468174" lon="16.950783807466504"><ele>63.25</ele><time>2026-03-29T11:50:31Z</time></trkpt><trkpt lat="39.433155066843284" lon="16.950942062511793"><ele>63.0</ele><time>2026-03-29T11:50:32Z</time></trkpt><trkpt lat="39.433239190304626" lon="16.951107589815752"><ele>63.0</ele><time>2026-03-29T11:50:33Z</time></trkpt><trkpt lat="39.43332347986579" lon="16.951273443600577"><ele>63.0</ele><time>2026-03-29T11:50:34Z</time></trkpt><trkpt lat="39.43340724251347" lon="16.951426249461573"><ele>63.0</ele><time>2026-03-29T11:50:35Z</time></trkpt><trkpt lat="39.43348941869768" lon="16.951582481843296"><ele>63.0</ele><time>2026-03-29T11:50:36Z</time></trkpt><trkpt lat="39.43357156079493" lon="16.951739359492066"><ele>63.0</ele><time>2026-03-29T11:50:37Z</time></trkpt><trkpt lat="39.43364293034122" lon="16.95189951573597"><ele>63.0</ele><time>2026-03-29T11:50:38Z</time></trkpt><trkpt lat="39.433726973509955" lon="16.95206367061634"><ele>63.0</ele><time>2026-03-29T11:50:39Z</time></trkpt><trkpt lat="39.43381336502901" lon="16.952232412693785"><ele>63.33333333333333</ele><time>2026-03-29T11:50:40Z</time></trkpt><trkpt lat="39.43391201534564" lon="16.95239182577139"><ele>63.666666666666664</ele><time>2026-03-29T11:50:41Z</time></trkpt><trkpt lat="39.433981575078874" lon="16.952567890056386"><ele>64.0</ele><time>2026-03-29T11:50:42Z</time></trkpt><trkpt lat="39.43402693289846" lon="16.952766795724372"><ele>63.33333333333333</ele><time>2026-03-29T11:50:43Z</time></trkpt><trkpt lat="39.43403968966663" lon="16.952977428037784"><ele>62.66666666666667</ele><time>2026-03-29T11:50:44Z</time></trkpt><trkpt lat="39.43406520580481" lon="16.953160657605967"><ele>62.0</ele><time>2026-03-29T11:50:45Z</time></trkpt><trkpt lat="39.434076739187184" lon="16.95336100660076"><ele>61.333333333333336</ele><time>2026-03-29T11:50:46Z</time></trkpt><trkpt lat="39.43408289494034" lon="16.9535841655528"><ele>60.66666666666667</ele><time>2026-03-29T11:50:47Z</time></trkpt><trkpt lat="39.43408182036826" lon="16.953796296142635"><ele>60.0</ele><time>2026-03-29T11:50:48Z</time></trkpt><trkpt lat="39.43408257387994" lon="16.954006618089352"><ele>59.66666666666667</ele><time>2026-03-29T11:50:49Z</time></trkpt><trkpt lat="39.43411149548605" lon="16.954228165393477"><ele>59.333333333333336</ele><time>2026-03-29T11:50:50Z</time></trkpt><trkpt lat="39.43412171773131" lon="16.954456492694455"><ele>59.0</ele><time>2026-03-29T11:50:51Z</time></trkpt><trkpt lat="39.434158066087804" lon="16.95466023951088"><ele>59.0</ele><time>2026-03-29T11:50:52Z</time></trkpt><trkpt lat="39.43419308231827" lon="16.954884632620722"><ele>59.0</ele><time>2026-03-29T11:50:53Z</time></trkpt><trkpt lat="39.43424442180603" lon="16.95510645605832"><ele>59.0</ele><time>2026-03-29T11:50:54Z</time></trkpt><trkpt lat="39.43429003449814" lon="16.955296332457984"><ele>59.0</ele><time>2026-03-29T11:50:55Z</time></trkpt><trkpt lat="39.43435375408405" lon="16.95547009600422"><ele>59.0</ele><time>2026-03-29T11:50:56Z</time></trkpt><trkpt lat="39.43438113946779" lon="16.95563893016379"><ele>59.0</ele><time>2026-03-29T11:50:57Z</time></trkpt><trkpt lat="39.434414710661315" lon="16.955808611916684"><ele>59.0</ele><time>2026-03-29T11:50:58Z</time></trkpt><trkpt lat="39.43444805795565" lon="16.95597716190633"><ele>59.0</ele><time>2026-03-29T11:50:59Z</time></trkpt><trkpt lat="39.43447935210981" lon="16.956135334697723"><ele>59.0</ele><time>2026-03-29T11:51:00Z</time></trkpt><trkpt lat="39.434508755733134" lon="16.956283951977827"><ele>59.0</ele><time>2026-03-29T11:51:01Z</time></trkpt><trkpt lat="39.43453874518225" lon="16.95643553015335"><ele>59.0</ele><time>2026-03-29T11:51:02Z</time></trkpt><trkpt lat="39.434572815573034" lon="16.95660171378008"><ele>58.66666666666667</ele><time>2026-03-29T11:51:03Z</time></trkpt><trkpt lat="39.43461146150935" lon="16.956785801489616"><ele>58.33333333333333</ele><time>2026-03-29T11:51:04Z</time></trkpt><trkpt lat="39.43465724929894" lon="16.956998902472698"><ele>58.0</ele><time>2026-03-29T11:51:05Z</time></trkpt><trkpt lat="39.4347151090526" lon="16.957202096005414"><ele>58.0</ele><time>2026-03-29T11:51:06Z</time></trkpt><trkpt lat="39.43475475205291" lon="16.95739349842237"><ele>58.0</ele><time>2026-03-29T11:51:07Z</time></trkpt><trkpt lat="39.43477287039339" lon="16.95756688127334"><ele>58.0</ele><time>2026-03-29T11:51:08Z</time></trkpt><trkpt lat="39.43481127185791" lon="16.957727829089716"><ele>58.0</ele><time>2026-03-29T11:51:09Z</time></trkpt><trkpt lat="39.43485579723838" lon="16.957882482422875"><ele>58.33333333333333</ele><time>2026-03-29T11:51:10Z</time></trkpt><trkpt lat="39.43491253322413" lon="16.958077304761915"><ele>58.66666666666667</ele><time>2026-03-29T11:51:11Z</time></trkpt><trkpt lat="39.434970739833496" lon="16.958281111224284"><ele>59.0</ele><time>2026-03-29T11:51:12Z</time></trkpt><trkpt lat="39.43502927292646" lon="16.958490587521936"><ele>61.0</ele><time>2026-03-29T11:51:13Z</time></trkpt><trkpt lat="39.43508899139479" lon="16.958702523613745"><ele>63.0</ele><time>2026-03-29T11:51:14Z</time></trkpt><trkpt lat="39.4351497415989" lon="16.95891563651778"><ele>65.0</ele><time>2026-03-29T11:51:15Z</time></trkpt><trkpt lat="39.43519760689847" lon="16.959108879397032"><ele>65.0</ele><time>2026-03-29T11:51:16Z</time></trkpt><trkpt lat="39.435233668081274" lon="16.959296420192178"><ele>65.0</ele><time>2026-03-29T11:51:17Z</time></trkpt><trkpt lat="39.43525711968087" lon="16.959457233946846"><ele>65.0</ele><time>2026-03-29T11:51:18Z</time></trkpt><trkpt lat="39.43526540941859" lon="16.959613167239525"><ele>65.0</ele><time>2026-03-29T11:51:19Z</time></trkpt><trkpt lat="39.43526279208045" lon="16.959789574436716"><ele>65.0</ele><time>2026-03-29T11:51:20Z</time></trkpt><trkpt lat="39.4352524844055" lon="16.959974428883026"><ele>65.0</ele><time>2026-03-29T11:51:21Z</time></trkpt><trkpt lat="39.43523802490969" lon="16.960163271882802"><ele>65.0</ele><time>2026-03-29T11:51:22Z</time></trkpt><trkpt lat="39.43522541757116" lon="16.960345212823132"><ele>65.0</ele><time>2026-03-29T11:51:23Z</time></trkpt><trkpt lat="39.43521356692883" lon="16.96054331016954"><ele>64.0</ele><time>2026-03-29T11:51:24Z</time></trkpt><trkpt lat="39.4352143064953" lon="16.96075756667905"><ele>63.0</ele><time>2026-03-29T11:51:25Z</time></trkpt><trkpt lat="39.43522578129952" lon="16.960987655007116"><ele>62.0</ele><time>2026-03-29T11:51:26Z</time></trkpt><trkpt lat="39.435254270396435" lon="16.96122707727376"><ele>64.66666666666667</ele><time>2026-03-29T11:51:27Z</time></trkpt><trkpt lat="39.43528877971287" lon="16.961436678195273"><ele>67.33333333333333</ele><time>2026-03-29T11:51:28Z</time></trkpt><trkpt lat="39.43533416227302" lon="16.96162204861458"><ele>70.0</ele><time>2026-03-29T11:51:29Z</time></trkpt><trkpt lat="39.43536110464124" lon="16.961813854030137"><ele>75.33333333333333</ele><time>2026-03-29T11:51:30Z</time></trkpt><trkpt lat="39.43538500229022" lon="16.962006019887006"><ele>80.66666666666667</ele><time>2026-03-29T11:51:31Z</time></trkpt><trkpt lat="39.43539679349661" lon="16.96221768669654"><ele>86.0</ele><time>2026-03-29T11:51:32Z</time></trkpt><trkpt lat="39.43542507844073" lon="16.96241632821601"><ele>87.25</ele><time>2026-03-29T11:51:33Z</time></trkpt><trkpt lat="39.43547012730386" lon="16.962578542401655"><ele>88.5</ele><time>2026-03-29T11:51:34Z</time></trkpt><trkpt lat="39.435502725304744" lon="16.962741802357122"><ele>89.75</ele><time>2026-03-29T11:51:35Z</time></trkpt><trkpt lat="39.43554482166911" lon="16.962903641951527"><ele>91.0</ele><time>2026-03-29T11:51:36Z</time></trkpt><trkpt lat="39.435583561497445" lon="16.963071063278026"><ele>86.75</ele><time>2026-03-29T11:51:37Z</time></trkpt><trkpt lat="39.43565496906215" lon="16.963218835875377"><ele>82.5</ele><time>2026-03-29T11:51:38Z</time></trkpt><trkpt lat="39.43577264101542" lon="16.96334793815862"><ele>78.25</ele><time>2026-03-29T11:51:39Z</time></trkpt><trkpt lat="39.435852397329775" lon="16.963499954365766"><ele>74.0</ele><time>2026-03-29T11:51:40Z</time></trkpt><trkpt lat="39.435940381111095" lon="16.963645816375667"><ele>74.0</ele><time>2026-03-29T11:51:41Z</time></trkpt><trkpt lat="39.43604178476084" lon="16.963788455077374"><ele>74.0</ele><time>2026-03-29T11:51:42Z</time></trkpt><trkpt lat="39.43613682929583" lon="16.96393704072401"><ele>74.0</ele><time>2026-03-29T11:51:43Z</time></trkpt><trkpt lat="39.43623077192942" lon="16.964081252229498"><ele>74.0</ele><time>2026-03-29T11:51:44Z</time></trkpt><trkpt lat="39.436326421995965" lon="16.96422694014022"><ele>70.33333333333334</ele><time>2026-03-29T11:51:45Z</time></trkpt><trkpt lat="39.4364272465701" lon="16.96438050952207"><ele>66.66666666666667</ele><time>2026-03-29T11:51:46Z</time></trkpt><trkpt lat="39.43661498561839" lon="16.96443272237048"><ele>63.0</ele><time>2026-03-29T11:51:47Z</time></trkpt><trkpt lat="39.43676723664776" lon="16.964544040236355"><ele>63.0</ele><time>2026-03-29T11:51:48Z</time></trkpt><trkpt lat="39.43690979976191" lon="16.964654531176837"><ele>63.0</ele><time>2026-03-29T11:51:49Z</time></trkpt><trkpt lat="39.43705205546174" lon="16.964741487535633"><ele>63.0</ele><time>2026-03-29T11:51:50Z</time></trkpt><trkpt lat="39.43717578143961" lon="16.96486187695202"><ele>63.66666666666667</ele><time>2026-03-29T11:51:51Z</time></trkpt><trkpt lat="39.43731343833715" lon="16.96499700490693"><ele>64.33333333333334</ele><time>2026-03-29T11:51:52Z</time></trkpt><trkpt lat="39.4374419027948" lon="16.96514632920662"><ele>65.0</ele><time>2026-03-29T11:51:53Z</time></trkpt><trkpt lat="39.437581498872525" lon="16.965312971975884"><ele>65.0</ele><time>2026-03-29T11:51:54Z</time></trkpt><trkpt lat="39.43773544863391" lon="16.965481322975336"><ele>65.0</ele><time>2026-03-29T11:51:55Z</time></trkpt><trkpt lat="39.43788723429483" lon="16.96566198310229"><ele>65.0</ele><time>2026-03-29T11:51:56Z</time></trkpt><trkpt lat="39.43802886638328" lon="16.965847406832072"><ele>66.0</ele><time>2026-03-29T11:51:57Z</time></trkpt><trkpt lat="39.43816258080237" lon="16.96602169510031"><ele>67.0</ele><time>2026-03-29T11:51:58Z</time></trkpt><trkpt lat="39.438283326133934" lon="16.96617067672678"><ele>68.0</ele><time>2026-03-29T11:51:59Z</time></trkpt><trkpt lat="39.43840811419394" lon="16.966298636529746"><ele>68.0</ele><time>2026-03-29T11:52:00Z</time></trkpt><trkpt lat="39.43851411417672" lon="16.96644617565296"><ele>68.0</ele><time>2026-03-29T11:52:01Z</time></trkpt><trkpt lat="39.438632765506505" lon="16.96656512058973"><ele>68.0</ele><time>2026-03-29T11:52:02Z</time></trkpt><trkpt lat="39.438757542151194" lon="16.966656309513912"><ele>68.0</ele><time>2026-03-29T11:52:03Z</time></trkpt><trkpt lat="39.4389048755083" lon="16.966706468881355"><ele>69.0</ele><time>2026-03-29T11:52:04Z</time></trkpt><trkpt lat="39.43904153788807" lon="16.96677910869527"><ele>70.0</ele><time>2026-03-29T11:52:05Z</time></trkpt><trkpt lat="39.43918642237388" lon="16.96681307274498"><ele>71.0</ele><time>2026-03-29T11:52:06Z</time></trkpt><trkpt lat="39.43932280084049" lon="16.9668476856406"><ele>72.0</ele><time>2026-03-29T11:52:07Z</time></trkpt><trkpt lat="39.43945152950974" lon="16.966894951506934"><ele>72.0</ele><time>2026-03-29T11:52:08Z</time></trkpt><trkpt lat="39.43957468842383" lon="16.966938937276495"><ele>72.0</ele><time>2026-03-29T11:52:09Z</time></trkpt><trkpt lat="39.43968673808586" lon="16.96696454725778"><ele>72.0</ele><time>2026-03-29T11:52:09.999Z</time></trkpt><trkpt lat="39.439799620957785" lon="16.96698738657528"><ele>72.0</ele><time>2026-03-29T11:52:10.999Z</time></trkpt><trkpt lat="39.43991449505062" lon="16.967011360554693"><ele>68.25</ele><time>2026-03-29T11:52:11.999Z</time></trkpt><trkpt lat="39.44001786664487" lon="16.967046552959992"><ele>64.5</ele><time>2026-03-29T11:52:12.999Z</time></trkpt><trkpt lat="39.440122499073425" lon="16.96710037168805"><ele>60.75</ele><time>2026-03-29T11:52:13.999Z</time></trkpt><trkpt lat="39.44022547188036" lon="16.96717766609216"><ele>57.0</ele><time>2026-03-29T11:52:14.999Z</time></trkpt><trkpt lat="39.44032398459528" lon="16.967282153099593"><ele>57.0</ele><time>2026-03-29T11:52:15.999Z</time></trkpt><trkpt lat="39.44044523982329" lon="16.96742330204566"><ele>57.0</ele><time>2026-03-29T11:52:16.999Z</time></trkpt><trkpt lat="39.44058030668217" lon="16.96758663500098"><ele>57.0</ele><time>2026-03-29T11:52:17.999Z</time></trkpt><trkpt lat="39.44071799767045" lon="16.96775877492094"><ele>59.0</ele><time>2026-03-29T11:52:18.999Z</time></trkpt><trkpt lat="39.440854109336236" lon="16.96793107247004"><ele>61.0</ele><time>2026-03-29T11:52:19.999Z</time></trkpt><trkpt lat="39.44100490513899" lon="16.968090620747212"><ele>63.0</ele><time>2026-03-29T11:52:20.999Z</time></trkpt><trkpt lat="39.4411231612735" lon="16.968238626914335"><ele>61.25</ele><time>2026-03-29T11:52:21.999Z</time></trkpt><trkpt lat="39.44123842634633" lon="16.968380537334586"><ele>59.5</ele><time>2026-03-29T11:52:22.999Z</time></trkpt><trkpt lat="39.44133722252084" lon="16.968518557071757"><ele>57.75</ele><time>2026-03-29T11:52:23.999Z</time></trkpt><trkpt lat="39.44142524897156" lon="16.968654181184174"><ele>56.0</ele><time>2026-03-29T11:52:24.999Z</time></trkpt><trkpt lat="39.441491864526036" lon="16.96881749457752"><ele>56.0</ele><time>2026-03-29T11:52:25.999Z</time></trkpt><trkpt lat="39.44155587770496" lon="16.96895918325639"><ele>56.0</ele><time>2026-03-29T11:52:26.999Z</time></trkpt><trkpt lat="39.441604661666446" lon="16.969098113388807"><ele>56.0</ele><time>2026-03-29T11:52:27.999Z</time></trkpt><trkpt lat="39.44164221663863" lon="16.9692455062955"><ele>56.0</ele><time>2026-03-29T11:52:28.999Z</time></trkpt><trkpt lat="39.4416808083027" lon="16.969391587531565"><ele>58.5</ele><time>2026-03-29T11:52:29.999Z</time></trkpt><trkpt lat="39.44172723017147" lon="16.969554161465986"><ele>61.0</ele><time>2026-03-29T11:52:30.999Z</time></trkpt><trkpt lat="39.441759561728226" lon="16.969714177339068"><ele>63.5</ele><time>2026-03-29T11:52:31.999Z</time></trkpt><trkpt lat="39.44177247008395" lon="16.96988222599418"><ele>66.0</ele><time>2026-03-29T11:52:32.999Z</time></trkpt><trkpt lat="39.441825781632424" lon="16.97000975853897"><ele>67.39999999999999</ele><time>2026-03-29T11:52:33.999Z</time></trkpt><trkpt lat="39.44188943462073" lon="16.970142161667873"><ele>68.8</ele><time>2026-03-29T11:52:34.999Z</time></trkpt><trkpt lat="39.44195235660716" lon="16.970261622577926"><ele>70.19999999999999</ele><time>2026-03-29T11:52:35.999Z</time></trkpt><trkpt lat="39.4420143729328" lon="16.970367145326307"><ele>71.6</ele><time>2026-03-29T11:52:36.999Z</time></trkpt><trkpt lat="39.44212067456883" lon="16.97042068634003"><ele>73.0</ele><time>2026-03-29T11:52:37.999Z</time></trkpt><trkpt lat="39.44219592329082" lon="16.97051491020568"><ele>71.0</ele><time>2026-03-29T11:52:38.999Z</time></trkpt><trkpt lat="39.44225865221425" lon="16.97059055417979"><ele>69.0</ele><time>2026-03-29T11:52:39.999Z</time></trkpt><trkpt lat="39.44232367681515" lon="16.970664034757124"><ele>67.0</ele><time>2026-03-29T11:52:40.999Z</time></trkpt><trkpt lat="39.44237346875795" lon="16.97074495121958"><ele>65.0</ele><time>2026-03-29T11:52:41.999Z</time></trkpt><trkpt lat="39.44243632391359" lon="16.970796798364194"><ele>62.99999999999999</ele><time>2026-03-29T11:52:42.999Z</time></trkpt><trkpt lat="39.4424799148585" lon="16.970890901511197"><ele>61.0</ele><time>2026-03-29T11:52:43.999Z</time></trkpt><trkpt lat="39.44251020612833" lon="16.970964144922057"><ele>61.0</ele><time>2026-03-29T11:52:44.999Z</time></trkpt><trkpt lat="39.44257913179369" lon="16.971029461259345"><ele>60.99999999999999</ele><time>2026-03-29T11:52:47.999Z</time></trkpt><trkpt lat="39.44269373082314" lon="16.971125917662242"><ele>60.99999999999999</ele><time>2026-03-29T11:52:49.999Z</time></trkpt><trkpt lat="39.44276257916394" lon="16.971164782425138"><ele>61.0</ele><time>2026-03-29T11:52:50.999Z</time></trkpt><trkpt lat="39.442819007717816" lon="16.971232597942237"><ele>61.0</ele><time>2026-03-29T11:52:51.999Z</time></trkpt><trkpt lat="39.44289594005988" lon="16.97131664332964"><ele>61.0</ele><time>2026-03-29T11:52:52.999Z</time></trkpt><trkpt lat="39.44296013652643" lon="16.97141873863651"><ele>60.99999999999999</ele><time>2026-03-29T11:52:53.999Z</time></trkpt><trkpt lat="39.44300513008434" lon="16.97149731001619"><ele>60.99999999999999</ele><time>2026-03-29T11:52:54.999Z</time></trkpt><trkpt lat="39.44305574332888" lon="16.971580628879284"><ele>61.0</ele><time>2026-03-29T11:52:55.999Z</time></trkpt><trkpt lat="39.44313532792195" lon="16.97168356811919"><ele>61.0</ele><time>2026-03-29T11:52:56.999Z</time></trkpt><trkpt lat="39.4432192194231" lon="16.97177731156238"><ele>61.666666666666664</ele><time>2026-03-29T11:52:57.999Z</time></trkpt><trkpt lat="39.44329909989623" lon="16.97184469686037"><ele>62.33333333333333</ele><time>2026-03-29T11:52:58.999Z</time></trkpt><trkpt lat="39.44336342690261" lon="16.97192900524847"><ele>63.0</ele><time>2026-03-29T11:52:59.999Z</time></trkpt><trkpt lat="39.44342275585732" lon="16.97200679972997"><ele>63.66666666666667</ele><time>2026-03-29T11:53:00.999Z</time></trkpt><trkpt lat="39.44349169886793" lon="16.97206134374713"><ele>64.33333333333334</ele><time>2026-03-29T11:53:01.999Z</time></trkpt><trkpt lat="39.44356283757922" lon="16.97211756637608"><ele>65.0</ele><time>2026-03-29T11:53:02.999Z</time></trkpt><trkpt lat="39.44365418941735" lon="16.972178772956116"><ele>65.0</ele><time>2026-03-29T11:53:03.999Z</time></trkpt><trkpt lat="39.44376750243905" lon="16.972223172133862"><ele>65.0</ele><time>2026-03-29T11:53:04.999Z</time></trkpt><trkpt lat="39.443852603919304" lon="16.972286316097644"><ele>65.0</ele><time>2026-03-29T11:53:05.999Z</time></trkpt><trkpt lat="39.44392445044656" lon="16.972335479244244"><ele>65.0</ele><time>2026-03-29T11:53:06.999Z</time></trkpt><trkpt lat="39.44397468230037" lon="16.972417646693064"><ele>65.0</ele><time>2026-03-29T11:53:07.999Z</time></trkpt><trkpt lat="39.444035572601216" lon="16.97249237323489"><ele>64.6</ele><time>2026-03-29T11:53:08.999Z</time></trkpt><trkpt lat="39.44409869759973" lon="16.972572421097908"><ele>64.2</ele><time>2026-03-29T11:53:09.999Z</time></trkpt><trkpt lat="39.44416804213229" lon="16.972625449630737"><ele>63.8</ele><time>2026-03-29T11:53:10.999Z</time></trkpt><trkpt lat="39.444234670539" lon="16.97267671791529"><ele>63.4</ele><time>2026-03-29T11:53:11.999Z</time></trkpt><trkpt lat="39.444326355231524" lon="16.972761548885103"><ele>63.0</ele><time>2026-03-29T11:53:13.999Z</time></trkpt><trkpt lat="39.44442052163481" lon="16.972812993739037"><ele>63.0</ele><time>2026-03-29T11:53:15.999Z</time></trkpt><trkpt lat="39.44449762154878" lon="16.972841245408624"><ele>63.0</ele><time>2026-03-29T11:53:16.999Z</time></trkpt><trkpt lat="39.44459236508153" lon="16.97286027896697"><ele>63.0</ele><time>2026-03-29T11:53:17.999Z</time></trkpt><trkpt lat="39.44470306516451" lon="16.97291571376846"><ele>63.0</ele><time>2026-03-29T11:53:18.999Z</time></trkpt><trkpt lat="39.44481599377756" lon="16.973000661491497"><ele>63.0</ele><time>2026-03-29T11:53:19.999Z</time></trkpt><trkpt lat="39.444913983050796" lon="16.973082298115465"><ele>63.2</ele><time>2026-03-29T11:53:20.999Z</time></trkpt><trkpt lat="39.445002200602815" lon="16.973171939656893"><ele>63.4</ele><time>2026-03-29T11:53:21.999Z</time></trkpt><trkpt lat="39.4450934400766" lon="16.97326329362113"><ele>63.60000000000001</ele><time>2026-03-29T11:53:22.999Z</time></trkpt><trkpt lat="39.44518131636487" lon="16.97333566002515"><ele>63.800000000000004</ele><time>2026-03-29T11:53:23.999Z</time></trkpt><trkpt lat="39.44524928192457" lon="16.97341408309882"><ele>64.0</ele><time>2026-03-29T11:53:24.999Z</time></trkpt><trkpt lat="39.44531798548813" lon="16.973471372246042"><ele>64.0</ele><time>2026-03-29T11:53:25.999Z</time></trkpt><trkpt lat="39.44539201477782" lon="16.973527818116118"><ele>64.0</ele><time>2026-03-29T11:53:26.999Z</time></trkpt><trkpt lat="39.445491434842005" lon="16.97359182730901"><ele>64.0</ele><time>2026-03-29T11:53:27.999Z</time></trkpt><trkpt lat="39.445577913499115" lon="16.97368321217186"><ele>64.0</ele><time>2026-03-29T11:53:28.999Z</time></trkpt><trkpt lat="39.44565567275607" lon="16.97378791411331"><ele>64.0</ele><time>2026-03-29T11:53:29.999Z</time></trkpt><trkpt lat="39.445710139862" lon="16.97390106150231"><ele>61.5</ele><time>2026-03-29T11:53:30.999Z</time></trkpt><trkpt lat="39.445758781555426" lon="16.97403746361909"><ele>59.0</ele><time>2026-03-29T11:53:31.999Z</time></trkpt><trkpt lat="39.445813213690144" lon="16.974178442509587"><ele>56.5</ele><time>2026-03-29T11:53:32.999Z</time></trkpt><trkpt lat="39.44586108534228" lon="16.974323838858034"><ele>54.0</ele><time>2026-03-29T11:53:33.999Z</time></trkpt><trkpt lat="39.44589075967351" lon="16.974486200999312"><ele>54.0</ele><time>2026-03-29T11:53:34.999Z</time></trkpt><trkpt lat="39.44591039811277" lon="16.974644976567824"><ele>54.0</ele><time>2026-03-29T11:53:35.999Z</time></trkpt><trkpt lat="39.445921861584246" lon="16.97479056245038"><ele>54.0</ele><time>2026-03-29T11:53:36.999Z</time></trkpt><trkpt lat="39.44596990270494" lon="16.9749213909169"><ele>54.0</ele><time>2026-03-29T11:53:37.999Z</time></trkpt><trkpt lat="39.44599947405884" lon="16.975064873075507"><ele>55.5</ele><time>2026-03-29T11:53:38.999Z</time></trkpt><trkpt lat="39.44602204025479" lon="16.975208448473346"><ele>57.0</ele><time>2026-03-29T11:53:39.999Z</time></trkpt><trkpt lat="39.44606409684345" lon="16.975374109983676"><ele>58.5</ele><time>2026-03-29T11:53:40.999Z</time></trkpt><trkpt lat="39.44610864772218" lon="16.975549793767314"><ele>60.0</ele><time>2026-03-29T11:53:41.999Z</time></trkpt><trkpt lat="39.446135143963545" lon="16.975735428472653"><ele>60.25</ele><time>2026-03-29T11:53:42.999Z</time></trkpt><trkpt lat="39.446185300942545" lon="16.9759023776645"><ele>60.5</ele><time>2026-03-29T11:53:43.999Z</time></trkpt><trkpt lat="39.44622191853478" lon="16.97608213211564"><ele>60.75</ele><time>2026-03-29T11:53:44.999Z</time></trkpt><trkpt lat="39.44623527692055" lon="16.976254014329506"><ele>61.0</ele><time>2026-03-29T11:53:45.999Z</time></trkpt><trkpt lat="39.44622550718565" lon="16.976400676874118"><ele>61.0</ele><time>2026-03-29T11:53:46.999Z</time></trkpt><trkpt lat="39.44620483547774" lon="16.976564341849603"><ele>61.0</ele><time>2026-03-29T11:53:47.999Z</time></trkpt><trkpt lat="39.446189331468766" lon="16.976761825145523"><ele>61.0</ele><time>2026-03-29T11:53:48.999Z</time></trkpt><trkpt lat="39.446190382669194" lon="16.976968976673987"><ele>61.0</ele><time>2026-03-29T11:53:49.999Z</time></trkpt><trkpt lat="39.446171779274124" lon="16.97717679807677"><ele>60.25</ele><time>2026-03-29T11:53:50.999Z</time></trkpt><trkpt lat="39.44615455463815" lon="16.97736111156226"><ele>59.5</ele><time>2026-03-29T11:53:51.999Z</time></trkpt><trkpt lat="39.44614850130202" lon="16.977529008649874"><ele>58.75</ele><time>2026-03-29T11:53:52.999Z</time></trkpt><trkpt lat="39.446135128665645" lon="16.97770030751553"><ele>58.0</ele><time>2026-03-29T11:53:53.999Z</time></trkpt><trkpt lat="39.44613402659451" lon="16.97782937133028"><ele>56.8</ele><time>2026-03-29T11:53:54.999Z</time></trkpt><trkpt lat="39.446094536664475" lon="16.977939490699256"><ele>55.599999999999994</ele><time>2026-03-29T11:53:55.999Z</time></trkpt><trkpt lat="39.44604937258874" lon="16.978023996550146"><ele>54.400000000000006</ele><time>2026-03-29T11:53:56.999Z</time></trkpt><trkpt lat="39.445983794956625" lon="16.97810358738955"><ele>53.2</ele><time>2026-03-29T11:53:57.999Z</time></trkpt><trkpt lat="39.44590249833289" lon="16.978166535052964"><ele>52.0</ele><time>2026-03-29T11:53:58.999Z</time></trkpt><trkpt lat="39.44579103985505" lon="16.978206489989088"><ele>52.0</ele><time>2026-03-29T11:53:59.999Z</time></trkpt><trkpt lat="39.44566879035833" lon="16.978231590840434"><ele>52.0</ele><time>2026-03-29T11:54:00.999Z</time></trkpt><trkpt lat="39.44551836075909" lon="16.978264438938297"><ele>52.0</ele><time>2026-03-29T11:54:01.999Z</time></trkpt><trkpt lat="39.44538382156713" lon="16.97829715655789"><ele>52.0</ele><time>2026-03-29T11:54:02.999Z</time></trkpt><trkpt lat="39.44524365821095" lon="16.97832203386307"><ele>50.33333333333333</ele><time>2026-03-29T11:54:03.999Z</time></trkpt><trkpt lat="39.4450985463571" lon="16.978347944736054"><ele>48.666666666666664</ele><time>2026-03-29T11:54:04.999Z</time></trkpt><trkpt lat="39.444944204129335" lon="16.978373650952044"><ele>47.0</ele><time>2026-03-29T11:54:05.999Z</time></trkpt><trkpt lat="39.444788367796676" lon="16.978404120861377"><ele>47.0</ele><time>2026-03-29T11:54:06.999Z</time></trkpt><trkpt lat="39.44464800266211" lon="16.97844900118398"><ele>47.0</ele><time>2026-03-29T11:54:07.998Z</time></trkpt><trkpt lat="39.444502068028584" lon="16.97849724970206"><ele>47.0</ele><time>2026-03-29T11:54:08.998Z</time></trkpt><trkpt lat="39.44434129321052" lon="16.97855040464235"><ele>49.33333333333333</ele><time>2026-03-29T11:54:09.998Z</time></trkpt><trkpt lat="39.44419154657522" lon="16.978599913474337"><ele>51.666666666666664</ele><time>2026-03-29T11:54:10.998Z</time></trkpt><trkpt lat="39.44405795753009" lon="16.978746470205856"><ele>54.0</ele><time>2026-03-29T11:54:11.998Z</time></trkpt><trkpt lat="39.44391163751864" lon="16.978800082958266"><ele>54.33333333333333</ele><time>2026-03-29T11:54:12.998Z</time></trkpt><trkpt lat="39.443759929382686" lon="16.978833657045758"><ele>54.666666666666664</ele><time>2026-03-29T11:54:13.998Z</time></trkpt><trkpt lat="39.443602355013574" lon="16.978811158612615"><ele>55.0</ele><time>2026-03-29T11:54:14.998Z</time></trkpt><trkpt lat="39.44345927697119" lon="16.978820927413725"><ele>55.0</ele><time>2026-03-29T11:54:15.998Z</time></trkpt><trkpt lat="39.44331150782992" lon="16.978833186267508"><ele>55.0</ele><time>2026-03-29T11:54:16.998Z</time></trkpt><trkpt lat="39.44317001511801" lon="16.978849263779733"><ele>55.0</ele><time>2026-03-29T11:54:17.998Z</time></trkpt><trkpt lat="39.44304297325554" lon="16.978865482822595"><ele>55.0</ele><time>2026-03-29T11:54:18.998Z</time></trkpt><trkpt lat="39.442920155813596" lon="16.97888065958808"><ele>55.5</ele><time>2026-03-29T11:54:19.998Z</time></trkpt><trkpt lat="39.44280080193464" lon="16.97890809389676"><ele>56.0</ele><time>2026-03-29T11:54:20.998Z</time></trkpt><trkpt lat="39.44268585770937" lon="16.97888548755126"><ele>56.5</ele><time>2026-03-29T11:54:21.998Z</time></trkpt><trkpt lat="39.442571050491345" lon="16.978876162693908"><ele>57.0</ele><time>2026-03-29T11:54:22.998Z</time></trkpt><trkpt lat="39.44244997928252" lon="16.978857542305672"><ele>57.0</ele><time>2026-03-29T11:54:23.998Z</time></trkpt><trkpt lat="39.442323026315684" lon="16.97883515453561"><ele>57.0</ele><time>2026-03-29T11:54:24.998Z</time></trkpt><trkpt lat="39.44219831410445" lon="16.978815311931726"><ele>57.0</ele><time>2026-03-29T11:54:25.998Z</time></trkpt><trkpt lat="39.442081626430266" lon="16.978828873805657"><ele>57.0</ele><time>2026-03-29T11:54:26.998Z</time></trkpt><trkpt lat="39.44196624635441" lon="16.978819535278678"><ele>56.75</ele><time>2026-03-29T11:54:27.998Z</time></trkpt><trkpt lat="39.4418435263661" lon="16.978856874514168"><ele>56.5</ele><time>2026-03-29T11:54:28.998Z</time></trkpt><trkpt lat="39.44171919888238" lon="16.978902501091408"><ele>56.25</ele><time>2026-03-29T11:54:29.998Z</time></trkpt><trkpt lat="39.44159902231569" lon="16.978999459741228"><ele>56.0</ele><time>2026-03-29T11:54:30.998Z</time></trkpt><trkpt lat="39.44148266070474" lon="16.979088824811043"><ele>56.0</ele><time>2026-03-29T11:54:31.998Z</time></trkpt><trkpt lat="39.441373441186315" lon="16.979162206446894"><ele>55.99999999999999</ele><time>2026-03-29T11:54:32.998Z</time></trkpt><trkpt lat="39.44127236217125" lon="16.979162975881586"><ele>55.99999999999999</ele><time>2026-03-29T11:54:33.998Z</time></trkpt><trkpt lat="39.4411717381185" lon="16.979148638634065"><ele>56.0</ele><time>2026-03-29T11:54:34.998Z</time></trkpt><trkpt lat="39.44107291192094" lon="16.979104728763083"><ele>56.0</ele><time>2026-03-29T11:54:35.998Z</time></trkpt><trkpt lat="39.44095635450814" lon="16.979046494513202"><ele>56.75</ele><time>2026-03-29T11:54:36.998Z</time></trkpt><trkpt lat="39.44082478926501" lon="16.978982585678143"><ele>57.5</ele><time>2026-03-29T11:54:37.998Z</time></trkpt><trkpt lat="39.44069914430294" lon="16.978926704109824"><ele>58.25</ele><time>2026-03-29T11:54:38.998Z</time></trkpt><trkpt lat="39.44057536834181" lon="16.97887194722601"><ele>59.0</ele><time>2026-03-29T11:54:39.998Z</time></trkpt><trkpt lat="39.44046281028906" lon="16.978827953881716"><ele>59.0</ele><time>2026-03-29T11:54:40.998Z</time></trkpt><trkpt lat="39.44036843149284" lon="16.97880499307378"><ele>59.00000000000001</ele><time>2026-03-29T11:54:41.998Z</time></trkpt><trkpt lat="39.44026311181129" lon="16.97876551301093"><ele>59.00000000000001</ele><time>2026-03-29T11:54:42.998Z</time></trkpt><trkpt lat="39.44017203258282" lon="16.97877509910431"><ele>59.0</ele><time>2026-03-29T11:54:43.998Z</time></trkpt><trkpt lat="39.44008629328167" lon="16.978795103804174"><ele>59.0</ele><time>2026-03-29T11:54:44.998Z</time></trkpt><trkpt lat="39.439994529123176" lon="16.978825096138248"><ele>59.0</ele><time>2026-03-29T11:54:45.998Z</time></trkpt><trkpt lat="39.43991307494948" lon="16.978861128453794"><ele>59.00000000000001</ele><time>2026-03-29T11:54:46.998Z</time></trkpt><trkpt lat="39.439823482961586" lon="16.978907244775165"><ele>59.00000000000001</ele><time>2026-03-29T11:54:47.998Z</time></trkpt><trkpt lat="39.43972575555313" lon="16.978969395736854"><ele>59.0</ele><time>2026-03-29T11:54:48.998Z</time></trkpt><trkpt lat="39.43960310215128" lon="16.97903083219395"><ele>59.0</ele><time>2026-03-29T11:54:49.998Z</time></trkpt><trkpt lat="39.43948731403783" lon="16.979126982514646"><ele>58.2</ele><time>2026-03-29T11:54:50.998Z</time></trkpt><trkpt lat="39.43938407736543" lon="16.97920164789541"><ele>57.400000000000006</ele><time>2026-03-29T11:54:51.998Z</time></trkpt><trkpt lat="39.439281364507515" lon="16.979265820627713"><ele>56.6</ele><time>2026-03-29T11:54:52.998Z</time></trkpt><trkpt lat="39.43921881414865" lon="16.97935893784901"><ele>55.8</ele><time>2026-03-29T11:54:53.998Z</time></trkpt><trkpt lat="39.43914462183532" lon="16.979448122955315"><ele>55.0</ele><time>2026-03-29T11:54:54.998Z</time></trkpt><trkpt lat="39.43909118782541" lon="16.979572871287665"><ele>55.0</ele><time>2026-03-29T11:54:55.998Z</time></trkpt><trkpt lat="39.43904604226237" lon="16.97971668547217"><ele>55.0</ele><time>2026-03-29T11:54:56.998Z</time></trkpt><trkpt lat="39.439012754636074" lon="16.979881077442826"><ele>55.0</ele><time>2026-03-29T11:54:57.998Z</time></trkpt><trkpt lat="39.43899261514454" lon="16.980050685158947"><ele>55.0</ele><time>2026-03-29T11:54:58.998Z</time></trkpt><trkpt lat="39.4389750899191" lon="16.980229980307367"><ele>55.2</ele><time>2026-03-29T11:54:59.998Z</time></trkpt><trkpt lat="39.43896066579289" lon="16.98038814004282"><ele>55.4</ele><time>2026-03-29T11:55:00.998Z</time></trkpt><trkpt lat="39.438948798918744" lon="16.980526680204676"><ele>55.599999999999994</ele><time>2026-03-29T11:55:01.998Z</time></trkpt><trkpt lat="39.43893179764176" lon="16.980644832982023"><ele>55.8</ele><time>2026-03-29T11:55:02.998Z</time></trkpt><trkpt lat="39.43891800092279" lon="16.98075840090697"><ele>56.0</ele><time>2026-03-29T11:55:03.998Z</time></trkpt><trkpt lat="39.4389221510453" lon="16.980858420395418"><ele>57.199999999999996</ele><time>2026-03-29T11:55:04.998Z</time></trkpt><trkpt lat="39.438944613679105" lon="16.980951109060584"><ele>58.39999999999999</ele><time>2026-03-29T11:55:05.998Z</time></trkpt><trkpt lat="39.438976135915006" lon="16.981074540951585"><ele>59.6</ele><time>2026-03-29T11:55:06.998Z</time></trkpt><trkpt lat="39.43903208349344" lon="16.98120801417999"><ele>60.8</ele><time>2026-03-29T11:55:07.998Z</time></trkpt><trkpt lat="39.43908368001718" lon="16.98133496868977"><ele>62.0</ele><time>2026-03-29T11:55:08.998Z</time></trkpt><trkpt lat="39.43911417746403" lon="16.981457606302122"><ele>62.0</ele><time>2026-03-29T11:55:09.998Z</time></trkpt><trkpt lat="39.43912338987211" lon="16.98159532635821"><ele>62.0</ele><time>2026-03-29T11:55:10.998Z</time></trkpt><trkpt lat="39.4390963516616" lon="16.98170854533494"><ele>62.0</ele><time>2026-03-29T11:55:11.998Z</time></trkpt><trkpt lat="39.43905976313495" lon="16.981865637791568"><ele>62.0</ele><time>2026-03-29T11:55:12.998Z</time></trkpt><trkpt lat="39.43903480210585" lon="16.982011323607768"><ele>62.0</ele><time>2026-03-29T11:55:13.998Z</time></trkpt><trkpt lat="39.43904316370088" lon="16.982161788611783"><ele>61.25</ele><time>2026-03-29T11:55:14.998Z</time></trkpt><trkpt lat="39.439039560871734" lon="16.9823271845011"><ele>60.5</ele><time>2026-03-29T11:55:15.998Z</time></trkpt><trkpt lat="39.43909604442143" lon="16.982467972591653"><ele>59.75</ele><time>2026-03-29T11:55:16.998Z</time></trkpt><trkpt lat="39.4391672391169" lon="16.982607898894262"><ele>59.0</ele><time>2026-03-29T11:55:17.998Z</time></trkpt><trkpt lat="39.439260915759164" lon="16.982739594491516"><ele>59.0</ele><time>2026-03-29T11:55:18.998Z</time></trkpt><trkpt lat="39.43936990512429" lon="16.982843097030393"><ele>59.0</ele><time>2026-03-29T11:55:19.998Z</time></trkpt><trkpt lat="39.439494494432964" lon="16.98295013504658"><ele>59.0</ele><time>2026-03-29T11:55:20.998Z</time></trkpt><trkpt lat="39.439643612339516" lon="16.983024493207754"><ele>59.0</ele><time>2026-03-29T11:55:21.998Z</time></trkpt><trkpt lat="39.43978535118794" lon="16.983121111556716"><ele>59.333333333333336</ele><time>2026-03-29T11:55:22.998Z</time></trkpt><trkpt lat="39.439939491931284" lon="16.98319379618049"><ele>59.66666666666667</ele><time>2026-03-29T11:55:23.998Z</time></trkpt><trkpt lat="39.440094091068644" lon="16.983278809940487"><ele>60.0</ele><time>2026-03-29T11:55:24.998Z</time></trkpt><trkpt lat="39.440249745953444" lon="16.983329710531645"><ele>61.5</ele><time>2026-03-29T11:55:25.998Z</time></trkpt><trkpt lat="39.44039425680039" lon="16.98337424162524"><ele>63.0</ele><time>2026-03-29T11:55:26.998Z</time></trkpt><trkpt lat="39.44053209612221" lon="16.983435313031595"><ele>64.5</ele><time>2026-03-29T11:55:27.998Z</time></trkpt><trkpt lat="39.44064537337916" lon="16.983523236484107"><ele>66.0</ele><time>2026-03-29T11:55:28.998Z</time></trkpt><trkpt lat="39.440755679920045" lon="16.98357652751291"><ele>66.83333333333333</ele><time>2026-03-29T11:55:29.998Z</time></trkpt><trkpt lat="39.44085905153081" lon="16.98359859496634"><ele>67.66666666666667</ele><time>2026-03-29T11:55:30.998Z</time></trkpt><trkpt lat="39.44094951126148" lon="16.98360327023585"><ele>68.5</ele><time>2026-03-29T11:55:31.998Z</time></trkpt><trkpt lat="39.44101749824391" lon="16.98360531753359"><ele>69.33333333333334</ele><time>2026-03-29T11:55:32.998Z</time></trkpt><trkpt lat="39.441110085206" lon="16.983610787102997"><ele>70.16666666666667</ele><time>2026-03-29T11:55:33.998Z</time></trkpt><trkpt lat="39.441182048129214" lon="16.983606009810657"><ele>71.0</ele><time>2026-03-29T11:55:34.998Z</time></trkpt><trkpt lat="39.44126073372735" lon="16.983616777812514"><ele>70.25</ele><time>2026-03-29T11:55:35.998Z</time></trkpt><trkpt lat="39.44137338193664" lon="16.9836638214003"><ele>69.5</ele><time>2026-03-29T11:55:37.998Z</time></trkpt><trkpt lat="39.44146727722465" lon="16.983698199849034"><ele>68.75</ele><time>2026-03-29T11:55:39.998Z</time></trkpt><trkpt lat="39.44156125155884" lon="16.98373723284757"><ele>68.0</ele><time>2026-03-29T11:55:41.998Z</time></trkpt><trkpt lat="39.441574177817714" lon="16.984081276034384"><ele>68.0</ele><time>2026-03-29T11:55:42.998Z</time></trkpt><trkpt lat="39.44166332895159" lon="16.984168079572864"><ele>68.0</ele><time>2026-03-29T11:55:43.998Z</time></trkpt><trkpt lat="39.4417146121836" lon="16.984278195671884"><ele>68.0</ele><time>2026-03-29T11:55:44.998Z</time></trkpt><trkpt lat="39.44178207031613" lon="16.98437177044681"><ele>68.0</ele><time>2026-03-29T11:55:45.998Z</time></trkpt><trkpt lat="39.4418484316451" lon="16.984458030759527"><ele>68.0</ele><time>2026-03-29T11:55:46.998Z</time></trkpt><trkpt lat="39.44192618740949" lon="16.98452844793725"><ele>70.2</ele><time>2026-03-29T11:55:47.998Z</time></trkpt><trkpt lat="39.44200555920215" lon="16.98456147897512"><ele>72.4</ele><time>2026-03-29T11:55:48.998Z</time></trkpt><trkpt lat="39.442105675173906" lon="16.98453595498761"><ele>74.60000000000001</ele><time>2026-03-29T11:55:49.998Z</time></trkpt><trkpt lat="39.442215384313826" lon="16.984520566147744"><ele>76.8</ele><time>2026-03-29T11:55:50.998Z</time></trkpt><trkpt lat="39.44232610434457" lon="16.98449863229904"><ele>79.0</ele><time>2026-03-29T11:55:51.998Z</time></trkpt><trkpt lat="39.442425958374486" lon="16.98451464327403"><ele>79.0</ele><time>2026-03-29T11:55:52.998Z</time></trkpt><trkpt lat="39.44253582520543" lon="16.984546259773694"><ele>79.0</ele><time>2026-03-29T11:55:53.998Z</time></trkpt><trkpt lat="39.44264449632254" lon="16.98464601487741"><ele>79.0</ele><time>2026-03-29T11:55:54.998Z</time></trkpt><trkpt lat="39.44277597405838" lon="16.98475703791325"><ele>79.0</ele><time>2026-03-29T11:55:55.998Z</time></trkpt><trkpt lat="39.44292225972542" lon="16.984856412652583"><ele>78.75</ele><time>2026-03-29T11:55:56.998Z</time></trkpt><trkpt lat="39.44307290789224" lon="16.984916655058623"><ele>78.5</ele><time>2026-03-29T11:55:57.998Z</time></trkpt><trkpt lat="39.44320766448891" lon="16.98501104544496"><ele>78.25</ele><time>2026-03-29T11:55:58.998Z</time></trkpt><trkpt lat="39.44332231447145" lon="16.985101826727476"><ele>78.0</ele><time>2026-03-29T11:55:59.998Z</time></trkpt><trkpt lat="39.44342405331137" lon="16.985142238572003"><ele>79.75</ele><time>2026-03-29T11:56:00.998Z</time></trkpt><trkpt lat="39.44352788783015" lon="16.98517401614131"><ele>81.5</ele><time>2026-03-29T11:56:01.998Z</time></trkpt><trkpt lat="39.44363078716922" lon="16.9852149299061"><ele>83.25</ele><time>2026-03-29T11:56:02.998Z</time></trkpt><trkpt lat="39.443754699883385" lon="16.985201322778547"><ele>85.0</ele><time>2026-03-29T11:56:03.998Z</time></trkpt><trkpt lat="39.44390476805799" lon="16.985179559340697"><ele>85.0</ele><time>2026-03-29T11:56:04.998Z</time></trkpt><trkpt lat="39.44404821786535" lon="16.98516498699917"><ele>85.0</ele><time>2026-03-29T11:56:05.998Z</time></trkpt><trkpt lat="39.44417620511729" lon="16.98517798584402"><ele>85.0</ele><time>2026-03-29T11:56:06.998Z</time></trkpt><trkpt lat="39.444299659538146" lon="16.985176707893654"><ele>85.0</ele><time>2026-03-29T11:56:07.998Z</time></trkpt><trkpt lat="39.444408018636594" lon="16.985143973293958"><ele>85.0</ele><time>2026-03-29T11:56:08.998Z</time></trkpt><trkpt lat="39.444498429834745" lon="16.985133893239563"><ele>85.0</ele><time>2026-03-29T11:56:09.998Z</time></trkpt><trkpt lat="39.4445798947916" lon="16.985148640455776"><ele>85.0</ele><time>2026-03-29T11:56:10.998Z</time></trkpt><trkpt lat="39.44463664534202" lon="16.985212569009878"><ele>85.0</ele><time>2026-03-29T11:56:11.998Z</time></trkpt><trkpt lat="39.44466197689946" lon="16.985347359205353"><ele>85.0</ele><time>2026-03-29T11:56:12.998Z</time></trkpt><trkpt lat="39.444704594082516" lon="16.985473800627478"><ele>85.0</ele><time>2026-03-29T11:56:13.998Z</time></trkpt><trkpt lat="39.44474518367721" lon="16.98560635696407"><ele>85.0</ele><time>2026-03-29T11:56:14.998Z</time></trkpt><trkpt lat="39.44478598923101" lon="16.985712999725184"><ele>85.0</ele><time>2026-03-29T11:56:15.998Z</time></trkpt><trkpt lat="39.44485559172833" lon="16.98580527682998"><ele>85.0</ele><time>2026-03-29T11:56:16.998Z</time></trkpt><trkpt lat="39.444970369996824" lon="16.98586198542756"><ele>85.0</ele><time>2026-03-29T11:56:17.998Z</time></trkpt><trkpt lat="39.44509218953812" lon="16.985883766927213"><ele>86.5</ele><time>2026-03-29T11:56:18.998Z</time></trkpt><trkpt lat="39.4452252498715" lon="16.98590387967149"><ele>88.0</ele><time>2026-03-29T11:56:19.998Z</time></trkpt><trkpt lat="39.44535432769758" lon="16.98589673825088"><ele>89.5</ele><time>2026-03-29T11:56:20.998Z</time></trkpt><trkpt lat="39.44546896946342" lon="16.98591667939573"><ele>91.0</ele><time>2026-03-29T11:56:21.998Z</time></trkpt><trkpt lat="39.44557365172201" lon="16.98595560970331"><ele>91.0</ele><time>2026-03-29T11:56:22.998Z</time></trkpt><trkpt lat="39.44565570635569" lon="16.985986959542256"><ele>91.0</ele><time>2026-03-29T11:56:23.998Z</time></trkpt><trkpt lat="39.44570284835333" lon="16.986070710434"><ele>91.0</ele><time>2026-03-29T11:56:24.998Z</time></trkpt><trkpt lat="39.44570962784945" lon="16.986184495092463"><ele>91.0</ele><time>2026-03-29T11:56:25.998Z</time></trkpt><trkpt lat="39.44570304757826" lon="16.986330892935072"><ele>91.0</ele><time>2026-03-29T11:56:26.998Z</time></trkpt><trkpt lat="39.4456638095466" lon="16.986484728315702"><ele>91.0</ele><time>2026-03-29T11:56:27.998Z</time></trkpt><trkpt lat="39.445628469386946" lon="16.98664614547059"><ele>91.0</ele><time>2026-03-29T11:56:28.998Z</time></trkpt><trkpt lat="39.44560901894966" lon="16.98681495028947"><ele>91.0</ele><time>2026-03-29T11:56:29.998Z</time></trkpt><trkpt lat="39.44559912854236" lon="16.986983358251855"><ele>91.0</ele><time>2026-03-29T11:56:31Z</time></trkpt><trkpt lat="39.445598945859416" lon="16.987132317820326"><ele>93.19999999999999</ele><time>2026-03-29T11:56:32Z</time></trkpt><trkpt lat="39.445618089452765" lon="16.98725969002704"><ele>95.39999999999999</ele><time>2026-03-29T11:56:33Z</time></trkpt><trkpt lat="39.445656572977576" lon="16.987369943339914"><ele>97.6</ele><time>2026-03-29T11:56:34Z</time></trkpt><trkpt lat="39.44571957276654" lon="16.987468334005904"><ele>99.8</ele><time>2026-03-29T11:56:35Z</time></trkpt><trkpt lat="39.44579272874205" lon="16.987586809127446"><ele>102.0</ele><time>2026-03-29T11:56:36Z</time></trkpt><trkpt lat="39.445845146879485" lon="16.987723588250486"><ele>103.75</ele><time>2026-03-29T11:56:37Z</time></trkpt><trkpt lat="39.44587458472194" lon="16.98788810248634"><ele>105.5</ele><time>2026-03-29T11:56:38Z</time></trkpt><trkpt lat="39.445871370760635" lon="16.9880408507781"><ele>107.25</ele><time>2026-03-29T11:56:39Z</time></trkpt><trkpt lat="39.44585711589611" lon="16.98821285053898"><ele>109.0</ele><time>2026-03-29T11:56:40Z</time></trkpt><trkpt lat="39.44585861763434" lon="16.98837569653636"><ele>110.4</ele><time>2026-03-29T11:56:41Z</time></trkpt><trkpt lat="39.44590145697305" lon="16.988528280783523"><ele>111.80000000000001</ele><time>2026-03-29T11:56:42Z</time></trkpt><trkpt lat="39.44594564197116" lon="16.988661037883844"><ele>113.19999999999999</ele><time>2026-03-29T11:56:43Z</time></trkpt><trkpt lat="39.44598651214716" lon="16.98876632659993"><ele>114.6</ele><time>2026-03-29T11:56:44Z</time></trkpt><trkpt lat="39.44601872061445" lon="16.988860914210033"><ele>116.0</ele><time>2026-03-29T11:56:45Z</time></trkpt><trkpt lat="39.44604208841879" lon="16.988940744274206"><ele>115.99999999999999</ele><time>2026-03-29T11:56:46Z</time></trkpt><trkpt lat="39.4460438319506" lon="16.98902748002727"><ele>116.0</ele><time>2026-03-29T11:56:47Z</time></trkpt><trkpt lat="39.44600116815979" lon="16.989101363706794"><ele>116.0</ele><time>2026-03-29T11:56:48Z</time></trkpt><trkpt lat="39.44595000639189" lon="16.98915835102197"><ele>116.0</ele><time>2026-03-29T11:56:49Z</time></trkpt><trkpt lat="39.44583255806255" lon="16.989190782747535"><ele>115.99999999999999</ele><time>2026-03-29T11:56:51Z</time></trkpt><trkpt lat="39.44574854859775" lon="16.989193677642216"><ele>116.0</ele><time>2026-03-29T11:56:52Z</time></trkpt><trkpt lat="39.44568518814173" lon="16.98923098525452"><ele>115.6</ele><time>2026-03-29T11:56:53Z</time></trkpt><trkpt lat="39.4455800240286" lon="16.98928605185829"><ele>115.19999999999999</ele><time>2026-03-29T11:56:55Z</time></trkpt><trkpt lat="39.445491938218666" lon="16.989302263053453"><ele>114.80000000000001</ele><time>2026-03-29T11:56:57Z</time></trkpt><trkpt lat="39.44540862432255" lon="16.98930566148518"><ele>114.4</ele><time>2026-03-29T11:56:59Z</time></trkpt><trkpt lat="39.445323892872565" lon="16.989382365995723"><ele>114.0</ele><time>2026-03-29T11:57:03Z</time></trkpt><trkpt lat="39.4452174776417" lon="16.989415452532107"><ele>117.6</ele><time>2026-03-29T11:57:05Z</time></trkpt><trkpt lat="39.445094091698465" lon="16.989459891676205"><ele>121.2</ele><time>2026-03-29T11:57:07Z</time></trkpt><trkpt lat="39.444998767966915" lon="16.989495102939536"><ele>124.79999999999998</ele><time>2026-03-29T11:57:09Z</time></trkpt><trkpt lat="39.444891872406664" lon="16.989524401431506"><ele>128.4</ele><time>2026-03-29T11:57:11Z</time></trkpt><trkpt lat="39.44481436567543" lon="16.989500841638446"><ele>132.0</ele><time>2026-03-29T11:57:14Z</time></trkpt><trkpt lat="39.44474842735499" lon="16.989521582509518"><ele>132.0</ele><time>2026-03-29T11:57:16Z</time></trkpt><trkpt lat="39.44465169365188" lon="16.989557452293223"><ele>132.0</ele><time>2026-03-29T11:57:18Z</time></trkpt><trkpt lat="39.44455178676646" lon="16.989612324098722"><ele>132.0</ele><time>2026-03-29T11:57:20Z</time></trkpt><trkpt lat="39.44448617614197" lon="16.989642270887718"><ele>132.0</ele><time>2026-03-29T11:57:21Z</time></trkpt><trkpt lat="39.44441533778304" lon="16.989691293006825"><ele>132.0</ele><time>2026-03-29T11:57:22Z</time></trkpt><trkpt lat="39.44434568416505" lon="16.989713405982407"><ele>132.0</ele><time>2026-03-29T11:57:23Z</time></trkpt><trkpt lat="39.44423522202412" lon="16.98974233737898"><ele>134.83333333333334</ele><time>2026-03-29T11:57:25Z</time></trkpt><trkpt lat="39.44417639817658" lon="16.989784598609972"><ele>137.66666666666666</ele><time>2026-03-29T11:57:29Z</time></trkpt><trkpt lat="39.444076504784114" lon="16.989749110054667"><ele>140.5</ele><time>2026-03-29T11:57:34Z</time></trkpt><trkpt lat="39.44400303064913" lon="16.989733668824776"><ele>143.33333333333331</ele><time>2026-03-29T11:57:35Z</time></trkpt><trkpt lat="39.44391921971882" lon="16.989705976202636"><ele>146.16666666666666</ele><time>2026-03-29T11:57:36Z</time></trkpt><trkpt lat="39.44384794140049" lon="16.989656760438606"><ele>149.0</ele><time>2026-03-29T11:57:37Z</time></trkpt><trkpt lat="39.44378755138885" lon="16.989628405404368"><ele>152.57142857142856</ele><time>2026-03-29T11:57:38Z</time></trkpt><trkpt lat="39.44371964206945" lon="16.989598840168377"><ele>156.14285714285714</ele><time>2026-03-29T11:57:39Z</time></trkpt><trkpt lat="39.44365380147273" lon="16.989557295332578"><ele>159.71428571428572</ele><time>2026-03-29T11:57:40Z</time></trkpt><trkpt lat="39.44358216599403" lon="16.989532258420663"><ele>163.28571428571428</ele><time>2026-03-29T11:57:41Z</time></trkpt><trkpt lat="39.443511927606785" lon="16.98949828798136"><ele>166.85714285714286</ele><time>2026-03-29T11:57:42Z</time></trkpt><trkpt lat="39.44344447174071" lon="16.989475125467937"><ele>170.42857142857142</ele><time>2026-03-29T11:57:43Z</time></trkpt><trkpt lat="39.44337991798006" lon="16.98942723317496"><ele>174.0</ele><time>2026-03-29T11:57:44Z</time></trkpt><trkpt lat="39.443251280528656" lon="16.989411665160553"><ele>174.0</ele><time>2026-03-29T11:57:46Z</time></trkpt><trkpt lat="39.44318960109876" lon="16.98937612330278"><ele>174.0</ele><time>2026-03-29T11:57:47Z</time></trkpt><trkpt lat="39.44308308140664" lon="16.989306460102124"><ele>174.0</ele><time>2026-03-29T11:57:49Z</time></trkpt><trkpt lat="39.44299011442761" lon="16.989261280767725"><ele>174.0</ele><time>2026-03-29T11:57:51Z</time></trkpt><trkpt lat="39.442880024383626" lon="16.989265354856162"><ele>174.0</ele><time>2026-03-29T11:57:53Z</time></trkpt><trkpt lat="39.44276222660687" lon="16.989292814233366"><ele>173.5</ele><time>2026-03-29T11:57:55Z</time></trkpt><trkpt lat="39.442675691472424" lon="16.989252664994783"><ele>173.0</ele><time>2026-03-29T11:57:57Z</time></trkpt><trkpt lat="39.44260573999712" lon="16.98921002119459"><ele>172.5</ele><time>2026-03-29T11:57:59Z</time></trkpt><trkpt lat="39.442524097914436" lon="16.989192969108245"><ele>172.0</ele><time>2026-03-29T11:58:01Z</time></trkpt><trkpt lat="39.44246439696497" lon="16.989127273268306"><ele>171.5</ele><time>2026-03-29T11:58:03Z</time></trkpt><trkpt lat="39.442402360753434" lon="16.9890322848991"><ele>171.0</ele><time>2026-03-29T11:58:05Z</time></trkpt><trkpt lat="39.44233029356858" lon="16.988943205407754"><ele>170.99999999999997</ele><time>2026-03-29T11:58:07Z</time></trkpt><trkpt lat="39.44226710918947" lon="16.9889260769643"><ele>171.0</ele><time>2026-03-29T11:58:08Z</time></trkpt><trkpt lat="39.44219535253152" lon="16.98889501705237"><ele>171.0</ele><time>2026-03-29T11:58:09Z</time></trkpt><trkpt lat="39.442121539827426" lon="16.988860863441513"><ele>171.0</ele><time>2026-03-29T11:58:10Z</time></trkpt><trkpt lat="39.44204796552675" lon="16.98883774126843"><ele>171.0</ele><time>2026-03-29T11:58:11Z</time></trkpt><trkpt lat="39.44198378090803" lon="16.988795114049957"><ele>170.99999999999997</ele><time>2026-03-29T11:58:12Z</time></trkpt><trkpt lat="39.441928929960326" lon="16.9887462753854"><ele>171.0</ele><time>2026-03-29T11:58:13Z</time></trkpt><trkpt lat="39.4418673037098" lon="16.98870336673135"><ele>174.8</ele><time>2026-03-29T11:58:14Z</time></trkpt><trkpt lat="39.44180797137547" lon="16.9886557402966"><ele>178.60000000000002</ele><time>2026-03-29T11:58:15Z</time></trkpt><trkpt lat="39.44170128288767" lon="16.988596225182192"><ele>182.4</ele><time>2026-03-29T11:58:17Z</time></trkpt><trkpt lat="39.44159690340357" lon="16.98854859273131"><ele>186.2</ele><time>2026-03-29T11:58:19Z</time></trkpt><trkpt lat="39.4414660032862" lon="16.988533489745294"><ele>190.0</ele><time>2026-03-29T11:58:20.999Z</time></trkpt><trkpt lat="39.4413848110259" lon="16.98854440808791"><ele>190.0</ele><time>2026-03-29T11:58:21.999Z</time></trkpt><trkpt lat="39.441302214709545" lon="16.988555672888943"><ele>190.0</ele><time>2026-03-29T11:58:22.999Z</time></trkpt><trkpt lat="39.44122508551162" lon="16.988558575575844"><ele>190.0</ele><time>2026-03-29T11:58:23.999Z</time></trkpt><trkpt lat="39.441151740952506" lon="16.98852773904568"><ele>190.0</ele><time>2026-03-29T11:58:24.999Z</time></trkpt><trkpt lat="39.441072716015306" lon="16.98849350236664"><ele>190.0</ele><time>2026-03-29T11:58:25.999Z</time></trkpt><trkpt lat="39.4409937285998" lon="16.988452692270396"><ele>190.0</ele><time>2026-03-29T11:58:26.999Z</time></trkpt><trkpt lat="39.44092079765497" lon="16.988428449690932"><ele>190.5</ele><time>2026-03-29T11:58:27.999Z</time></trkpt><trkpt lat="39.44084533852103" lon="16.988418086731162"><ele>191.0</ele><time>2026-03-29T11:58:28.999Z</time></trkpt><trkpt lat="39.44076026970195" lon="16.988419812288043"><ele>191.5</ele><time>2026-03-29T11:58:29.999Z</time></trkpt><trkpt lat="39.44066622430919" lon="16.988434504617285"><ele>192.0</ele><time>2026-03-29T11:58:30.999Z</time></trkpt><trkpt lat="39.44057725037585" lon="16.988453256621018"><ele>192.49999999999997</ele><time>2026-03-29T11:58:31.999Z</time></trkpt><trkpt lat="39.440498715516" lon="16.988478624723687"><ele>193.0</ele><time>2026-03-29T11:58:32.999Z</time></trkpt><trkpt lat="39.440432040751105" lon="16.988540329741813"><ele>193.2</ele><time>2026-03-29T11:58:33.999Z</time></trkpt><trkpt lat="39.44036716734467" lon="16.988596792010757"><ele>193.4</ele><time>2026-03-29T11:58:34.999Z</time></trkpt><trkpt lat="39.440319008660836" lon="16.9886523393816"><ele>193.6</ele><time>2026-03-29T11:58:35.999Z</time></trkpt><trkpt lat="39.44024108821518" lon="16.988755634632348"><ele>193.79999999999998</ele><time>2026-03-29T11:58:37.999Z</time></trkpt><trkpt lat="39.44012499276831" lon="16.98875643846288"><ele>194.0</ele><time>2026-03-29T11:58:39.999Z</time></trkpt><trkpt lat="39.44001110093309" lon="16.988709594364522"><ele>194.00000000000003</ele><time>2026-03-29T11:58:41.999Z</time></trkpt><trkpt lat="39.4399422838993" lon="16.988713026830315"><ele>194.0</ele><time>2026-03-29T11:58:42.999Z</time></trkpt><trkpt lat="39.439868987251764" lon="16.98871586817125"><ele>194.0</ele><time>2026-03-29T11:58:43.999Z</time></trkpt><trkpt lat="39.43978945925688" lon="16.988723588465206"><ele>194.0</ele><time>2026-03-29T11:58:44.999Z</time></trkpt><trkpt lat="39.439696189348346" lon="16.9887422799933"><ele>194.00000000000003</ele><time>2026-03-29T11:58:45.999Z</time></trkpt><trkpt lat="39.439600743137525" lon="16.988778964519994"><ele>194.0</ele><time>2026-03-29T11:58:46.999Z</time></trkpt><trkpt lat="39.439512651260394" lon="16.988829505061954"><ele>193.16666666666669</ele><time>2026-03-29T11:58:47.999Z</time></trkpt><trkpt lat="39.43943381689735" lon="16.988877463160303"><ele>192.33333333333334</ele><time>2026-03-29T11:58:48.999Z</time></trkpt><trkpt lat="39.43937038794022" lon="16.988935271023816"><ele>191.5</ele><time>2026-03-29T11:58:49.999Z</time></trkpt><trkpt lat="39.439324183661476" lon="16.989007974587572"><ele>190.66666666666669</ele><time>2026-03-29T11:58:50.999Z</time></trkpt><trkpt lat="39.43928283461061" lon="16.989088969553322"><ele>189.83333333333334</ele><time>2026-03-29T11:58:51.999Z</time></trkpt><trkpt lat="39.439241673378426" lon="16.989178526541966"><ele>189.0</ele><time>2026-03-29T11:58:52.999Z</time></trkpt><trkpt lat="39.439190609116345" lon="16.989276729450545"><ele>192.83333333333334</ele><time>2026-03-29T11:58:53.999Z</time></trkpt><trkpt lat="39.43912707644268" lon="16.989365652823665"><ele>196.66666666666669</ele><time>2026-03-29T11:58:54.999Z</time></trkpt><trkpt lat="39.43906899319483" lon="16.989447864764948"><ele>200.5</ele><time>2026-03-29T11:58:55.999Z</time></trkpt><trkpt lat="39.439011697852486" lon="16.98951572254239"><ele>204.33333333333334</ele><time>2026-03-29T11:58:56.999Z</time></trkpt><trkpt lat="39.43895300785127" lon="16.98957679098924"><ele>208.16666666666669</ele><time>2026-03-29T11:58:57.999Z</time></trkpt><trkpt lat="39.43890512094889" lon="16.989631744132254"><ele>212.0</ele><time>2026-03-29T11:58:58.999Z</time></trkpt><trkpt lat="39.43882247991346" lon="16.989756172095323"><ele>210.50000000000003</ele><time>2026-03-29T11:59:00.999Z</time></trkpt><trkpt lat="39.43877331598748" lon="16.989834124292877"><ele>209.0</ele><time>2026-03-29T11:59:01.999Z</time></trkpt><trkpt lat="39.43872550731084" lon="16.989900890451562"><ele>207.5</ele><time>2026-03-29T11:59:02.999Z</time></trkpt><trkpt lat="39.43864055516002" lon="16.989989126117482"><ele>206.0</ele><time>2026-03-29T11:59:04.999Z</time></trkpt><trkpt lat="39.43856760999395" lon="16.990063574256805"><ele>204.50000000000003</ele><time>2026-03-29T11:59:06.999Z</time></trkpt><trkpt lat="39.438517380565656" lon="16.99011906962275"><ele>203.0</ele><time>2026-03-29T11:59:08.999Z</time></trkpt><trkpt lat="39.43845750537785" lon="16.990158894897245"><ele>203.00000000000003</ele><time>2026-03-29T11:59:10.999Z</time></trkpt><trkpt lat="39.43838640435428" lon="16.990199731974577"><ele>203.0</ele><time>2026-03-29T11:59:13.999Z</time></trkpt><trkpt lat="39.43831728313545" lon="16.990221580848587"><ele>203.0</ele><time>2026-03-29T11:59:15.999Z</time></trkpt><trkpt lat="39.438249157349496" lon="16.9902421152591"><ele>203.0</ele><time>2026-03-29T11:59:17.999Z</time></trkpt><trkpt lat="39.43820230987278" lon="16.990303239329496"><ele>203.00000000000003</ele><time>2026-03-29T11:59:19.999Z</time></trkpt><trkpt lat="39.438123890293376" lon="16.99040608570418"><ele>203.0</ele><time>2026-03-29T11:59:21.999Z</time></trkpt><trkpt lat="39.43808574821472" lon="16.99047221818942"><ele>203.0</ele><time>2026-03-29T11:59:22.999Z</time></trkpt><trkpt lat="39.43804285324919" lon="16.9905402225011"><ele>203.0</ele><time>2026-03-29T11:59:23.999Z</time></trkpt><trkpt lat="39.43800070103649" lon="16.990607262420447"><ele>203.0</ele><time>2026-03-29T11:59:24.999Z</time></trkpt><trkpt lat="39.43795558653479" lon="16.99067610069762"><ele>203.0</ele><time>2026-03-29T11:59:25.999Z</time></trkpt><trkpt lat="39.43789757496702" lon="16.990731265846648"><ele>203.0</ele><time>2026-03-29T11:59:26.999Z</time></trkpt><trkpt lat="39.43782650517032" lon="16.99077968249527"><ele>203.0</ele><time>2026-03-29T11:59:27.999Z</time></trkpt><trkpt lat="39.43776232943868" lon="16.99083357358961"><ele>203.0</ele><time>2026-03-29T11:59:28.999Z</time></trkpt><trkpt lat="39.437709026870586" lon="16.990902987521437"><ele>202.66666666666669</ele><time>2026-03-29T11:59:29.999Z</time></trkpt><trkpt lat="39.437662769382406" lon="16.99098683458114"><ele>202.33333333333334</ele><time>2026-03-29T11:59:30.999Z</time></trkpt><trkpt lat="39.437604260682846" lon="16.99106907828509"><ele>202.0</ele><time>2026-03-29T11:59:31.999Z</time></trkpt><trkpt lat="39.43754831059785" lon="16.99115313462596"><ele>201.66666666666669</ele><time>2026-03-29T11:59:32.999Z</time></trkpt><trkpt lat="39.437482176952585" lon="16.991215896194323"><ele>201.33333333333334</ele><time>2026-03-29T11:59:33.999Z</time></trkpt><trkpt lat="39.43739845309602" lon="16.991252644582776"><ele>201.0</ele><time>2026-03-29T11:59:34.999Z</time></trkpt><trkpt lat="39.43731323569323" lon="16.99128380071683"><ele>201.0</ele><time>2026-03-29T11:59:35.999Z</time></trkpt><trkpt lat="39.43724224200502" lon="16.991310488635186"><ele>201.0</ele><time>2026-03-29T11:59:36.999Z</time></trkpt><trkpt lat="39.43717909825309" lon="16.991348095425643"><ele>201.0</ele><time>2026-03-29T11:59:37.999Z</time></trkpt><trkpt lat="39.437120538818036" lon="16.99140194035871"><ele>201.0</ele><time>2026-03-29T11:59:38.999Z</time></trkpt><trkpt lat="39.43708095216972" lon="16.99148821376421"><ele>201.0</ele><time>2026-03-29T11:59:39.999Z</time></trkpt><trkpt lat="39.437047462788364" lon="16.991580725562272"><ele>201.0</ele><time>2026-03-29T11:59:40.999Z</time></trkpt><trkpt lat="39.43701187369584" lon="16.99165675364988"><ele>201.0</ele><time>2026-03-29T11:59:41.999Z</time></trkpt><trkpt lat="39.43695117899424" lon="16.991706789645765"><ele>200.0</ele><time>2026-03-29T11:59:42.999Z</time></trkpt><trkpt lat="39.43688085611361" lon="16.99176534331385"><ele>199.0</ele><time>2026-03-29T11:59:43.999Z</time></trkpt><trkpt lat="39.43681109379573" lon="16.991818159027567"><ele>198.0</ele><time>2026-03-29T11:59:44.999Z</time></trkpt><trkpt lat="39.436756044467046" lon="16.99187885896953"><ele>197.0</ele><time>2026-03-29T11:59:45.999Z</time></trkpt><trkpt lat="39.436706770141114" lon="16.991939621568125"><ele>196.0</ele><time>2026-03-29T11:59:46.999Z</time></trkpt><trkpt lat="39.436677547245466" lon="16.992020369107898"><ele>195.0</ele><time>2026-03-29T11:59:47.999Z</time></trkpt><trkpt lat="39.43666308292495" lon="16.992110026504847"><ele>194.0</ele><time>2026-03-29T11:59:48.999Z</time></trkpt><trkpt lat="39.43662264629918" lon="16.99224527492715"><ele>194.0</ele><time>2026-03-29T11:59:50.999Z</time></trkpt><trkpt lat="39.43651041559659" lon="16.992332372464077"><ele>194.0</ele><time>2026-03-29T11:59:52.999Z</time></trkpt><trkpt lat="39.43644051129915" lon="16.992362536431802"><ele>194.0</ele><time>2026-03-29T11:59:53.999Z</time></trkpt><trkpt lat="39.43631569848235" lon="16.992392851560446"><ele>194.0</ele><time>2026-03-29T11:59:55.999Z</time></trkpt><trkpt lat="39.43625245846697" lon="16.992421121104087"><ele>194.0</ele><time>2026-03-29T11:59:56.999Z</time></trkpt><trkpt lat="39.436184907939754" lon="16.992540109585683"><ele>193.2</ele><time>2026-03-29T11:59:58.999Z</time></trkpt><trkpt lat="39.436160166132254" lon="16.992675426835184"><ele>192.39999999999998</ele><time>2026-03-29T12:00:00.999Z</time></trkpt><trkpt lat="39.4361404556347" lon="16.99278290340626"><ele>191.6</ele><time>2026-03-29T12:00:02.999Z</time></trkpt><trkpt lat="39.43613413240387" lon="16.99290675399582"><ele>190.8</ele><time>2026-03-29T12:00:04.999Z</time></trkpt><trkpt lat="39.43608381076255" lon="16.9930036960906"><ele>190.0</ele><time>2026-03-29T12:00:07.999Z</time></trkpt><trkpt lat="39.43601453093028" lon="16.993042768256593"><ele>190.0</ele><time>2026-03-29T12:00:09.999Z</time></trkpt><trkpt lat="39.43595232877307" lon="16.99309485478342"><ele>190.0</ele><time>2026-03-29T12:00:12.999Z</time></trkpt><trkpt lat="39.43587410916397" lon="16.993157909971185"><ele>190.0</ele><time>2026-03-29T12:00:15.999Z</time></trkpt><trkpt lat="39.43579123991264" lon="16.99324472510258"><ele>190.0</ele><time>2026-03-29T12:00:17.999Z</time></trkpt><trkpt lat="39.43570777155183" lon="16.993293274590933"><ele>190.0</ele><time>2026-03-29T12:00:19.999Z</time></trkpt><trkpt lat="39.43564334672146" lon="16.993302418703088"><ele>190.0</ele><time>2026-03-29T12:00:21.999Z</time></trkpt><trkpt lat="39.435563463544604" lon="16.993337037865814"><ele>190.33333333333334</ele><time>2026-03-29T12:00:23.999Z</time></trkpt><trkpt lat="39.4354724438843" lon="16.993383036976006"><ele>190.66666666666669</ele><time>2026-03-29T12:00:25.999Z</time></trkpt><trkpt lat="39.43537195412179" lon="16.99342586906105"><ele>191.0</ele><time>2026-03-29T12:00:27.999Z</time></trkpt><trkpt lat="39.43530993821493" lon="16.993447682340282"><ele>191.33333333333334</ele><time>2026-03-29T12:00:28.999Z</time></trkpt><trkpt lat="39.435246358500635" lon="16.993466279056086"><ele>191.66666666666666</ele><time>2026-03-29T12:00:29.999Z</time></trkpt><trkpt lat="39.43517842034809" lon="16.993490958798496"><ele>192.0</ele><time>2026-03-29T12:00:30.999Z</time></trkpt><trkpt lat="39.43507046860401" lon="16.993530482098997"><ele>192.0</ele><time>2026-03-29T12:00:32.999Z</time></trkpt><trkpt lat="39.43501048503161" lon="16.99359876433356"><ele>192.0</ele><time>2026-03-29T12:00:34.999Z</time></trkpt><trkpt lat="39.43497644961809" lon="16.993693729342933"><ele>192.0</ele><time>2026-03-29T12:00:37.999Z</time></trkpt><trkpt lat="39.43492600288846" lon="16.993801748412526"><ele>192.0</ele><time>2026-03-29T12:00:40.999Z</time></trkpt><trkpt lat="39.43488866056839" lon="16.993948521831406"><ele>192.0</ele><time>2026-03-29T12:00:42.999Z</time></trkpt><trkpt lat="39.43486534869755" lon="16.99402911680625"><ele>192.0</ele><time>2026-03-29T12:00:43.999Z</time></trkpt><trkpt lat="39.434841514981656" lon="16.99410902129277"><ele>193.28571428571428</ele><time>2026-03-29T12:00:44.999Z</time></trkpt><trkpt lat="39.43481321092942" lon="16.994193367139136"><ele>194.57142857142856</ele><time>2026-03-29T12:00:45.999Z</time></trkpt><trkpt lat="39.434774962632375" lon="16.99428053116262"><ele>195.85714285714283</ele><time>2026-03-29T12:00:46.999Z</time></trkpt><trkpt lat="39.43473491566915" lon="16.994364869219094"><ele>197.14285714285714</ele><time>2026-03-29T12:00:47.999Z</time></trkpt><trkpt lat="39.434701018655176" lon="16.994444071843372"><ele>198.42857142857144</ele><time>2026-03-29T12:00:48.999Z</time></trkpt><trkpt lat="39.43467799715981" lon="16.994522226887483"><ele>199.7142857142857</ele><time>2026-03-29T12:00:49.999Z</time></trkpt><trkpt lat="39.43466602167992" lon="16.994609371880834"><ele>201.0</ele><time>2026-03-29T12:00:50.999Z</time></trkpt><trkpt lat="39.43465368222233" lon="16.99471692285077"><ele>201.0</ele><time>2026-03-29T12:00:51.999Z</time></trkpt><trkpt lat="39.43465353495346" lon="16.994838198230532"><ele>201.0</ele><time>2026-03-29T12:00:52.999Z</time></trkpt><trkpt lat="39.43464341127064" lon="16.994953992598404"><ele>201.0</ele><time>2026-03-29T12:00:53.999Z</time></trkpt><trkpt lat="39.43462517976752" lon="16.995057113385496"><ele>201.0</ele><time>2026-03-29T12:00:54.999Z</time></trkpt><trkpt lat="39.4346034282501" lon="16.995159735355898"><ele>201.0</ele><time>2026-03-29T12:00:55.999Z</time></trkpt><trkpt lat="39.43456648761686" lon="16.99527613849661"><ele>201.0</ele><time>2026-03-29T12:00:56.999Z</time></trkpt><trkpt lat="39.434525632616776" lon="16.995407608927547"><ele>198.60000000000002</ele><time>2026-03-29T12:00:57.999Z</time></trkpt><trkpt lat="39.4344798694768" lon="16.995540675590632"><ele>196.2</ele><time>2026-03-29T12:00:58.999Z</time></trkpt><trkpt lat="39.434426149811365" lon="16.9956591308012"><ele>193.8</ele><time>2026-03-29T12:00:59.999Z</time></trkpt><trkpt lat="39.43438457723121" lon="16.995763192555394"><ele>191.39999999999998</ele><time>2026-03-29T12:01:00.999Z</time></trkpt><trkpt lat="39.4343495635102" lon="16.995852792256837"><ele>189.0</ele><time>2026-03-29T12:01:01.999Z</time></trkpt><trkpt lat="39.43431075247509" lon="16.99599696718454"><ele>189.0</ele><time>2026-03-29T12:01:03.999Z</time></trkpt><trkpt lat="39.434314900348156" lon="16.996090928521323"><ele>189.0</ele><time>2026-03-29T12:01:04.999Z</time></trkpt><trkpt lat="39.43432931176028" lon="16.996194827319567"><ele>189.0</ele><time>2026-03-29T12:01:05.999Z</time></trkpt><trkpt lat="39.43434214417338" lon="16.99629587751545"><ele>189.0</ele><time>2026-03-29T12:01:06.999Z</time></trkpt><trkpt lat="39.43435072598841" lon="16.99637739118068"><ele>189.0</ele><time>2026-03-29T12:01:07.999Z</time></trkpt><trkpt lat="39.43431867456593" lon="16.996541012002204"><ele>189.0</ele><time>2026-03-29T12:01:09.999Z</time></trkpt><trkpt lat="39.43430573376128" lon="16.996628775498593"><ele>190.14285714285714</ele><time>2026-03-29T12:01:10.999Z</time></trkpt><trkpt lat="39.43429166103031" lon="16.99671002825626"><ele>191.28571428571428</ele><time>2026-03-29T12:01:11.999Z</time></trkpt><trkpt lat="39.434291908865994" lon="16.99679463705171"><ele>192.42857142857144</ele><time>2026-03-29T12:01:12.999Z</time></trkpt><trkpt lat="39.43429796680699" lon="16.996888278626475"><ele>193.57142857142856</ele><time>2026-03-29T12:01:13.999Z</time></trkpt><trkpt lat="39.43431149212468" lon="16.99699366116195"><ele>194.71428571428572</ele><time>2026-03-29T12:01:14.999Z</time></trkpt><trkpt lat="39.43430342494741" lon="16.997092016169084"><ele>195.85714285714286</ele><time>2026-03-29T12:01:15.999Z</time></trkpt><trkpt lat="39.43428862486504" lon="16.997177024569126"><ele>197.0</ele><time>2026-03-29T12:01:16.999Z</time></trkpt><trkpt lat="39.434245934842416" lon="16.997322893405045"><ele>197.00000000000003</ele><time>2026-03-29T12:01:18.999Z</time></trkpt><trkpt lat="39.43421635859233" lon="16.997456498938877"><ele>197.0</ele><time>2026-03-29T12:01:20.999Z</time></trkpt><trkpt lat="39.43418254818042" lon="16.99753453152522"><ele>197.0</ele><time>2026-03-29T12:01:24.999Z</time></trkpt><trkpt lat="39.43410708064883" lon="16.99759462729594"><ele>197.0</ele><time>2026-03-29T12:01:28.999Z</time></trkpt><trkpt lat="39.43404028743924" lon="16.997619708181013"><ele>197.00000000000003</ele><time>2026-03-29T12:01:30.999Z</time></trkpt><trkpt lat="39.43394930643617" lon="16.997673745227445"><ele>197.0</ele><time>2026-03-29T12:01:32.999Z</time></trkpt><trkpt lat="39.433867710814994" lon="16.997705650950422"><ele>197.33333333333334</ele><time>2026-03-29T12:01:35.999Z</time></trkpt><trkpt lat="39.433781171718955" lon="16.997744604605696"><ele>197.66666666666669</ele><time>2026-03-29T12:01:41.999Z</time></trkpt><trkpt lat="39.433684150347844" lon="16.997807443332604"><ele>198.0</ele><time>2026-03-29T12:01:43.999Z</time></trkpt><trkpt lat="39.433605204970924" lon="16.997879565618387"><ele>198.33333333333331</ele><time>2026-03-29T12:01:45.999Z</time></trkpt><trkpt lat="39.433560286494554" lon="16.99795235771665"><ele>198.66666666666666</ele><time>2026-03-29T12:01:47.999Z</time></trkpt><trkpt lat="39.433511649318106" lon="16.998018197961116"><ele>199.0</ele><time>2026-03-29T12:01:49.999Z</time></trkpt><trkpt lat="39.43343170754747" lon="16.998109355000157"><ele>199.0</ele><time>2026-03-29T12:01:51.999Z</time></trkpt><trkpt lat="39.43335348248669" lon="16.998226911186052"><ele>199.0</ele><time>2026-03-29T12:01:53.999Z</time></trkpt><trkpt lat="39.43328067543346" lon="16.998315602410578"><ele>199.0</ele><time>2026-03-29T12:01:55.999Z</time></trkpt><trkpt lat="39.43320726449893" lon="16.99839257819517"><ele>199.0</ele><time>2026-03-29T12:01:57.999Z</time></trkpt><trkpt lat="39.4331396499437" lon="16.998483165227867"><ele>199.0</ele><time>2026-03-29T12:01:59.999Z</time></trkpt><trkpt lat="39.43306828133494" lon="16.998600411241032"><ele>200.0</ele><time>2026-03-29T12:02:01.999Z</time></trkpt><trkpt lat="39.432982686649076" lon="16.998689347798575"><ele>201.0</ele><time>2026-03-29T12:02:03.999Z</time></trkpt><trkpt lat="39.43297039066289" lon="16.998815807917357"><ele>202.0</ele><time>2026-03-29T12:02:05.999Z</time></trkpt><trkpt lat="39.43294857854018" lon="16.998949151444567"><ele>203.0</ele><time>2026-03-29T12:02:07.999Z</time></trkpt><trkpt lat="39.43291464444487" lon="16.999102000513634"><ele>204.0</ele><time>2026-03-29T12:02:09.999Z</time></trkpt><trkpt lat="39.43289373330588" lon="16.99920089019448"><ele>204.83333333333334</ele><time>2026-03-29T12:02:10.999Z</time></trkpt><trkpt lat="39.4328547899709" lon="16.999307784693006"><ele>205.66666666666669</ele><time>2026-03-29T12:02:11.999Z</time></trkpt><trkpt lat="39.43279601821951" lon="16.999393754073363"><ele>206.5</ele><time>2026-03-29T12:02:12.999Z</time></trkpt><trkpt lat="39.43274766743632" lon="16.999458866730375"><ele>207.33333333333334</ele><time>2026-03-29T12:02:13.999Z</time></trkpt><trkpt lat="39.43270713457024" lon="16.999591387155938"><ele>208.16666666666669</ele><time>2026-03-29T12:02:15.999Z</time></trkpt><trkpt lat="39.432709107225804" lon="16.99967629352953"><ele>209.0</ele><time>2026-03-29T12:02:16.998Z</time></trkpt><trkpt lat="39.43270894384746" lon="16.999766859560946"><ele>209.0</ele><time>2026-03-29T12:02:17.998Z</time></trkpt><trkpt lat="39.432706470913985" lon="16.99990478999554"><ele>209.0</ele><time>2026-03-29T12:02:19.998Z</time></trkpt><trkpt lat="39.432618327553236" lon="16.99997486919479"><ele>209.0</ele><time>2026-03-29T12:02:21.998Z</time></trkpt><trkpt lat="39.43255329426736" lon="17.000009849023165"><ele>209.0</ele><time>2026-03-29T12:02:22.998Z</time></trkpt><trkpt lat="39.43245983090545" lon="17.00008902735026"><ele>209.0</ele><time>2026-03-29T12:02:24.998Z</time></trkpt><trkpt lat="39.43241809995735" lon="17.00017387991511"><ele>209.0</ele><time>2026-03-29T12:02:26.998Z</time></trkpt><trkpt lat="39.43236919213521" lon="17.000311436782436"><ele>209.0</ele><time>2026-03-29T12:02:28.998Z</time></trkpt><trkpt lat="39.43234894194977" lon="17.00039713593573"><ele>209.0</ele><time>2026-03-29T12:02:29.998Z</time></trkpt><trkpt lat="39.43232327517439" lon="17.00052878678187"><ele>209.0</ele><time>2026-03-29T12:02:31.998Z</time></trkpt><trkpt lat="39.432302056788764" lon="17.00068786808186"><ele>209.0</ele><time>2026-03-29T12:02:33.998Z</time></trkpt><trkpt lat="39.43234708795288" lon="17.000789931341696"><ele>209.00000000000003</ele><time>2026-03-29T12:02:35.998Z</time></trkpt><trkpt lat="39.43241550693633" lon="17.00079832219119"><ele>209.0</ele><time>2026-03-29T12:02:38.998Z</time></trkpt><trkpt lat="39.43247346331934" lon="17.000756818000337"><ele>209.0</ele><time>2026-03-29T12:02:40.998Z</time></trkpt><trkpt lat="39.43257300468659" lon="17.000793473701407"><ele>209.0</ele><time>2026-03-29T12:02:44.998Z</time></trkpt><trkpt lat="39.432609491797265" lon="17.000885541709202"><ele>209.00000000000003</ele><time>2026-03-29T12:02:47.998Z</time></trkpt><trkpt lat="39.43264788683287" lon="17.00096582015399"><ele>209.0</ele><time>2026-03-29T12:02:50.998Z</time></trkpt><trkpt lat="39.432596180778134" lon="17.001028512256017"><ele>210.16666666666669</ele><time>2026-03-29T12:02:53.998Z</time></trkpt><trkpt lat="39.432563451517915" lon="17.001118015224133"><ele>211.33333333333334</ele><time>2026-03-29T12:03:49Z</time></trkpt><trkpt lat="39.43249985453144" lon="17.00119973572673"><ele>212.5</ele><time>2026-03-29T12:03:53Z</time></trkpt><trkpt lat="39.43245109546694" lon="17.00128795726433"><ele>213.66666666666669</ele><time>2026-03-29T12:03:56Z</time></trkpt><trkpt lat="39.43245642177557" lon="17.001392350516255"><ele>214.83333333333334</ele><time>2026-03-29T12:03:59Z</time></trkpt><trkpt lat="39.4324976655223" lon="17.001474929482395"><ele>216.0</ele><time>2026-03-29T12:04:02Z</time></trkpt><trkpt lat="39.43253889119308" lon="17.001572872767458"><ele>218.83333333333334</ele><time>2026-03-29T12:04:05Z</time></trkpt><trkpt lat="39.432574799862856" lon="17.00167514908282"><ele>221.66666666666669</ele><time>2026-03-29T12:04:08Z</time></trkpt><trkpt lat="39.432613258106585" lon="17.001774864680414"><ele>224.5</ele><time>2026-03-29T12:04:11Z</time></trkpt><trkpt lat="39.43262814315307" lon="17.00185928055681"><ele>227.33333333333334</ele><time>2026-03-29T12:04:14Z</time></trkpt><trkpt lat="39.4326391953875" lon="17.0019451959196"><ele>230.16666666666669</ele><time>2026-03-29T12:04:17Z</time></trkpt><trkpt lat="39.432707450589" lon="17.002017539373345"><ele>233.0</ele><time>2026-03-29T12:04:20Z</time></trkpt><trkpt lat="39.432767973146476" lon="17.002070300742513"><ele>233.00000000000003</ele><time>2026-03-29T12:04:23Z</time></trkpt><trkpt lat="39.43281243725803" lon="17.002155748075108"><ele>233.0</ele><time>2026-03-29T12:04:27Z</time></trkpt><trkpt lat="39.43287807308142" lon="17.002228278821864"><ele>233.0</ele><time>2026-03-29T12:04:31Z</time></trkpt><trkpt lat="39.43292727777023" lon="17.002286274360372"><ele>233.0</ele><time>2026-03-29T12:04:33Z</time></trkpt><trkpt lat="39.433020427289726" lon="17.002316940206853"><ele>233.00000000000003</ele><time>2026-03-29T12:04:36Z</time></trkpt><trkpt lat="39.433087841458374" lon="17.00236210092821"><ele>233.0</ele><time>2026-03-29T12:04:39Z</time></trkpt><trkpt lat="39.4330949773534" lon="17.00247109813656"><ele>235.00000000000003</ele><time>2026-03-29T12:04:42Z</time></trkpt><trkpt lat="39.433034973454056" lon="17.0025429583851"><ele>237.0</ele><time>2026-03-29T12:04:44Z</time></trkpt><trkpt lat="39.432956269506754" lon="17.002615979520122"><ele>239.0</ele><time>2026-03-29T12:04:46Z</time></trkpt><trkpt lat="39.43288164123667" lon="17.002679045299132"><ele>241.0</ele><time>2026-03-29T12:04:48Z</time></trkpt><trkpt lat="39.43282116530771" lon="17.00272476601241"><ele>243.00000000000003</ele><time>2026-03-29T12:04:50Z</time></trkpt><trkpt lat="39.43276296350237" lon="17.00276564495254"><ele>245.0</ele><time>2026-03-29T12:04:53Z</time></trkpt><trkpt lat="39.4327081707138" lon="17.0028113810867"><ele>245.0</ele><time>2026-03-29T12:04:59Z</time></trkpt><trkpt lat="39.432623003052356" lon="17.00291032553899"><ele>245.0</ele><time>2026-03-29T12:05:01Z</time></trkpt><trkpt lat="39.43253357766469" lon="17.00294375654917"><ele>245.0</ele><time>2026-03-29T12:05:02Z</time></trkpt><trkpt lat="39.432489918308384" lon="17.003043909986634"><ele>245.0</ele><time>2026-03-29T12:05:03Z</time></trkpt><trkpt lat="39.4324616380484" lon="17.00315306728441"><ele>245.0</ele><time>2026-03-29T12:05:04Z</time></trkpt><trkpt lat="39.43243428705376" lon="17.00325093702609"><ele>246.0</ele><time>2026-03-29T12:05:05Z</time></trkpt><trkpt lat="39.432346414511706" lon="17.003384088294876"><ele>247.0</ele><time>2026-03-29T12:05:07Z</time></trkpt><trkpt lat="39.43227740314746" lon="17.003456074871213"><ele>248.0</ele><time>2026-03-29T12:05:08Z</time></trkpt><trkpt lat="39.43219077458741" lon="17.003489442302282"><ele>249.0</ele><time>2026-03-29T12:05:09Z</time></trkpt><trkpt lat="39.43211152260579" lon="17.003499697994787"><ele>250.0</ele><time>2026-03-29T12:05:10Z</time></trkpt><trkpt lat="39.432036497383706" lon="17.00350001492766"><ele>249.99999999999997</ele><time>2026-03-29T12:05:11Z</time></trkpt><trkpt lat="39.43194775078098" lon="17.003499714611703"><ele>250.0</ele><time>2026-03-29T12:05:12Z</time></trkpt><trkpt lat="39.43187312428606" lon="17.003435216423586"><ele>250.0</ele><time>2026-03-29T12:05:13Z</time></trkpt><trkpt lat="39.431794215106976" lon="17.00336928219479"><ele>250.0</ele><time>2026-03-29T12:05:14Z</time></trkpt><trkpt lat="39.43171872999036" lon="17.00330414125113"><ele>249.99999999999997</ele><time>2026-03-29T12:05:15Z</time></trkpt><trkpt lat="39.43164897338288" lon="17.003242074065827"><ele>250.0</ele><time>2026-03-29T12:05:16Z</time></trkpt><trkpt lat="39.43158743197278" lon="17.003170254032746"><ele>248.99999999999997</ele><time>2026-03-29T12:05:17Z</time></trkpt><trkpt lat="39.43154674822385" lon="17.003075694139667"><ele>248.0</ele><time>2026-03-29T12:05:18Z</time></trkpt><trkpt lat="39.43152650130162" lon="17.002974347134217"><ele>247.0</ele><time>2026-03-29T12:05:19Z</time></trkpt><trkpt lat="39.431512868526234" lon="17.002891389379545"><ele>246.0</ele><time>2026-03-29T12:05:20Z</time></trkpt><trkpt lat="39.43147335911281" lon="17.002805071638573"><ele>244.99999999999997</ele><time>2026-03-29T12:05:22Z</time></trkpt><trkpt lat="39.43142489955238" lon="17.002725582407212"><ele>244.0</ele><time>2026-03-29T12:05:24Z</time></trkpt><trkpt lat="39.43135881322846" lon="17.002685513041953"><ele>248.33333333333331</ele><time>2026-03-29T12:05:26Z</time></trkpt><trkpt lat="39.43128192596849" lon="17.00266514405663"><ele>252.66666666666666</ele><time>2026-03-29T12:05:28Z</time></trkpt><trkpt lat="39.43121782095785" lon="17.002656739420132"><ele>257.0</ele><time>2026-03-29T12:05:30Z</time></trkpt><trkpt lat="39.431130565734925" lon="17.00264838459878"><ele>261.3333333333333</ele><time>2026-03-29T12:05:33Z</time></trkpt><trkpt lat="39.43106042456618" lon="17.00264169915464"><ele>265.6666666666667</ele><time>2026-03-29T12:05:35Z</time></trkpt><trkpt lat="39.43096349851392" lon="17.002632460732364"><ele>270.0</ele><time>2026-03-29T12:05:37Z</time></trkpt><trkpt lat="39.43086262014924" lon="17.00262284558493"><ele>270.0</ele><time>2026-03-29T12:05:39Z</time></trkpt><trkpt lat="39.43077132303437" lon="17.002616356854844"><ele>270.0</ele><time>2026-03-29T12:05:41Z</time></trkpt><trkpt lat="39.430671972880546" lon="17.002605540625122"><ele>270.0</ele><time>2026-03-29T12:05:43Z</time></trkpt><trkpt lat="39.43058128148354" lon="17.002594193724274"><ele>270.0</ele><time>2026-03-29T12:05:45Z</time></trkpt><trkpt lat="39.43048817737348" lon="17.002575533934337"><ele>270.0</ele><time>2026-03-29T12:05:47Z</time></trkpt><trkpt lat="39.430407660871225" lon="17.002517757022456"><ele>275.2</ele><time>2026-03-29T12:05:49Z</time></trkpt><trkpt lat="39.430338949818335" lon="17.00233831847689"><ele>280.4</ele><time>2026-03-29T12:05:51Z</time></trkpt><trkpt lat="39.430235780719606" lon="17.002286402615404"><ele>285.6</ele><time>2026-03-29T12:05:52Z</time></trkpt><trkpt lat="39.43016797550684" lon="17.002318699826297"><ele>290.8</ele><time>2026-03-29T12:05:53Z</time></trkpt><trkpt lat="39.43009792737215" lon="17.002379672860116"><ele>296.0</ele><time>2026-03-29T12:05:54Z</time></trkpt><trkpt lat="39.430037438336804" lon="17.002438540513605"><ele>296.0</ele><time>2026-03-29T12:05:55Z</time></trkpt><trkpt lat="39.4299659112924" lon="17.00249778892247"><ele>296.0</ele><time>2026-03-29T12:05:56Z</time></trkpt><trkpt lat="39.42989759600478" lon="17.002559327018425"><ele>296.0</ele><time>2026-03-29T12:05:57Z</time></trkpt><trkpt lat="39.42982732918805" lon="17.002592091382283"><ele>296.0</ele><time>2026-03-29T12:05:58Z</time></trkpt><trkpt lat="39.429752967378455" lon="17.002612521389675"><ele>296.0</ele><time>2026-03-29T12:06:00Z</time></trkpt><trkpt lat="39.429837182341075" lon="17.002509472425608"><ele>296.0</ele><time>2026-03-29T12:06:06Z</time></trkpt><trkpt lat="39.429900104008595" lon="17.002433801991515"><ele>296.0</ele><time>2026-03-29T12:06:07Z</time></trkpt><trkpt lat="39.429953021404366" lon="17.00235302795126"><ele>296.0</ele><time>2026-03-29T12:06:08Z</time></trkpt><trkpt lat="39.429991165931604" lon="17.00227300189834"><ele>296.0</ele><time>2026-03-29T12:06:09Z</time></trkpt><trkpt lat="39.43001940985952" lon="17.00218374913615"><ele>296.0</ele><time>2026-03-29T12:06:10Z</time></trkpt><trkpt lat="39.430041103638686" lon="17.002088107683893"><ele>296.0</ele><time>2026-03-29T12:06:11Z</time></trkpt><trkpt lat="39.43007024327515" lon="17.001988874932444"><ele>296.0</ele><time>2026-03-29T12:06:12Z</time></trkpt><trkpt lat="39.43005826106961" lon="17.001883554138672"><ele>296.0</ele><time>2026-03-29T12:06:13Z</time></trkpt><trkpt lat="39.43004204898132" lon="17.001776875773523"><ele>296.0</ele><time>2026-03-29T12:06:14Z</time></trkpt><trkpt lat="39.430021687950564" lon="17.0016666034238"><ele>296.0</ele><time>2026-03-29T12:06:15Z</time></trkpt><trkpt lat="39.429988985138934" lon="17.001559258127386"><ele>296.0</ele><time>2026-03-29T12:06:15.999Z</time></trkpt><trkpt lat="39.42993435075456" lon="17.00146830434166"><ele>296.0</ele><time>2026-03-29T12:06:16.999Z</time></trkpt><trkpt lat="39.429879618108735" lon="17.00138784563072"><ele>296.0</ele><time>2026-03-29T12:06:17.999Z</time></trkpt><trkpt lat="39.42981990924168" lon="17.001315805064127"><ele>294.5</ele><time>2026-03-29T12:06:18.999Z</time></trkpt><trkpt lat="39.429756242748844" lon="17.001242767571462"><ele>293.0</ele><time>2026-03-29T12:06:19.999Z</time></trkpt><trkpt lat="39.4296899341086" lon="17.001168682521755"><ele>291.5</ele><time>2026-03-29T12:06:20.999Z</time></trkpt><trkpt lat="39.42961648408938" lon="17.001101936132546"><ele>290.0</ele><time>2026-03-29T12:06:21.999Z</time></trkpt><trkpt lat="39.429537769917665" lon="17.001042476390733"><ele>288.5</ele><time>2026-03-29T12:06:22.999Z</time></trkpt><trkpt lat="39.42946052687504" lon="17.000971820142556"><ele>287.0</ele><time>2026-03-29T12:06:23.999Z</time></trkpt><trkpt lat="39.42936693218333" lon="17.00092225415527"><ele>293.0</ele><time>2026-03-29T12:06:24.999Z</time></trkpt><trkpt lat="39.42926085491942" lon="17.000882461445126"><ele>299.0</ele><time>2026-03-29T12:06:25.999Z</time></trkpt><trkpt lat="39.429142204221655" lon="17.0008585616427"><ele>305.0</ele><time>2026-03-29T12:06:26.999Z</time></trkpt><trkpt lat="39.429008507151295" lon="17.000857520932016"><ele>311.0</ele><time>2026-03-29T12:06:27.999Z</time></trkpt><trkpt lat="39.428855790083354" lon="17.000891844439213"><ele>308.6666666666667</ele><time>2026-03-29T12:06:28.999Z</time></trkpt><trkpt lat="39.42870660266728" lon="17.00096682577365"><ele>306.3333333333333</ele><time>2026-03-29T12:06:29.999Z</time></trkpt><trkpt lat="39.428565727827554" lon="17.001070806042787"><ele>304.0</ele><time>2026-03-29T12:06:30.999Z</time></trkpt><trkpt lat="39.428430947976345" lon="17.00120878553194"><ele>304.0</ele><time>2026-03-29T12:06:31.999Z</time></trkpt><trkpt lat="39.428329539297955" lon="17.001383813819007"><ele>304.0</ele><time>2026-03-29T12:06:32.999Z</time></trkpt><trkpt lat="39.42825328471196" lon="17.001563639741295"><ele>304.0</ele><time>2026-03-29T12:06:33.999Z</time></trkpt><trkpt lat="39.42815331972519" lon="17.001696793518995"><ele>305.0</ele><time>2026-03-29T12:06:34.999Z</time></trkpt><trkpt lat="39.42806177086162" lon="17.001826375865424"><ele>306.0</ele><time>2026-03-29T12:06:35.999Z</time></trkpt><trkpt lat="39.42795450511203" lon="17.00190570622192"><ele>307.0</ele><time>2026-03-29T12:06:36.999Z</time></trkpt><trkpt lat="39.42783635955542" lon="17.001950792573265"><ele>308.0</ele><time>2026-03-29T12:06:37.999Z</time></trkpt><trkpt lat="39.42770567928934" lon="17.002065921659824"><ele>308.0</ele><time>2026-03-29T12:06:38.999Z</time></trkpt><trkpt lat="39.42755061069658" lon="17.002085341312387"><ele>308.0</ele><time>2026-03-29T12:06:39.999Z</time></trkpt><trkpt lat="39.42738923072444" lon="17.00209788798632"><ele>308.0</ele><time>2026-03-29T12:06:40.999Z</time></trkpt><trkpt lat="39.42722687674287" lon="17.00211178343099"><ele>307.5</ele><time>2026-03-29T12:06:41.999Z</time></trkpt><trkpt lat="39.42708726224806" lon="17.00214739827826"><ele>307.0</ele><time>2026-03-29T12:06:42.999Z</time></trkpt><trkpt lat="39.42695452107387" lon="17.002204995476035"><ele>306.5</ele><time>2026-03-29T12:06:43.999Z</time></trkpt><trkpt lat="39.42681388011988" lon="17.00229722136651"><ele>306.0</ele><time>2026-03-29T12:06:44.999Z</time></trkpt><trkpt lat="39.42666796437183" lon="17.002402897212807"><ele>306.0</ele><time>2026-03-29T12:06:45.999Z</time></trkpt><trkpt lat="39.42650491854377" lon="17.002492722151082"><ele>306.0</ele><time>2026-03-29T12:06:46.999Z</time></trkpt><trkpt lat="39.42634764746183" lon="17.00258695876895"><ele>306.0</ele><time>2026-03-29T12:06:47.999Z</time></trkpt><trkpt lat="39.42621110961417" lon="17.002664189982966"><ele>310.0</ele><time>2026-03-29T12:06:48.999Z</time></trkpt><trkpt lat="39.426089877793075" lon="17.002737848695183"><ele>314.0</ele><time>2026-03-29T12:06:49.999Z</time></trkpt><trkpt lat="39.425975685846296" lon="17.002824798513466"><ele>318.0</ele><time>2026-03-29T12:06:50.999Z</time></trkpt><trkpt lat="39.42587764220311" lon="17.00291910161801"><ele>322.0</ele><time>2026-03-29T12:06:51.999Z</time></trkpt><trkpt lat="39.425794714840066" lon="17.003025907876665"><ele>322.0</ele><time>2026-03-29T12:06:52.999Z</time></trkpt><trkpt lat="39.42573314288666" lon="17.00310818936316"><ele>322.0</ele><time>2026-03-29T12:06:53.999Z</time></trkpt><trkpt lat="39.4256879618498" lon="17.003165480061977"><ele>322.0</ele><time>2026-03-29T12:06:54.999Z</time></trkpt><trkpt lat="39.4256353040471" lon="17.003217638170455"><ele>322.0</ele><time>2026-03-29T12:06:55.999Z</time></trkpt><trkpt lat="39.425564756342325" lon="17.003255618836224"><ele>322.0</ele><time>2026-03-29T12:06:57.999Z</time></trkpt><trkpt lat="39.42550604221589" lon="17.003320151409586"><ele>322.0</ele><time>2026-03-29T12:06:59.999Z</time></trkpt><trkpt lat="39.42553599517045" lon="17.003426321612263"><ele>325.0</ele><time>2026-03-29T12:07:00.999Z</time></trkpt><trkpt lat="39.42556680010817" lon="17.00354146747371"><ele>328.0</ele><time>2026-03-29T12:07:02.999Z</time></trkpt><trkpt lat="39.42558471881529" lon="17.003636602974026"><ele>331.0</ele><time>2026-03-29T12:07:03.999Z</time></trkpt><trkpt lat="39.42556067300865" lon="17.003782210203525"><ele>334.0</ele><time>2026-03-29T12:07:05.999Z</time></trkpt><trkpt lat="39.425525073953224" lon="17.003882373908773"><ele>337.0</ele><time>2026-03-29T12:07:06.999Z</time></trkpt><trkpt lat="39.425486645530505" lon="17.003984490236952"><ele>338.8333333333333</ele><time>2026-03-29T12:07:07.999Z</time></trkpt><trkpt lat="39.42545216561529" lon="17.004083758871257"><ele>340.66666666666663</ele><time>2026-03-29T12:07:08.999Z</time></trkpt><trkpt lat="39.425427677697755" lon="17.004183812631027"><ele>342.5</ele><time>2026-03-29T12:07:09.999Z</time></trkpt><trkpt lat="39.42541854062927" lon="17.00427015610118"><ele>344.3333333333333</ele><time>2026-03-29T12:07:10.999Z</time></trkpt><trkpt lat="39.42541650131229" lon="17.004353897385478"><ele>346.1666666666667</ele><time>2026-03-29T12:07:11.999Z</time></trkpt><trkpt lat="39.42544615169698" lon="17.00449353057161"><ele>348.0</ele><time>2026-03-29T12:07:13.999Z</time></trkpt><trkpt lat="39.42535121487275" lon="17.004449379460016"><ele>348.2</ele><time>2026-03-29T12:07:14.999Z</time></trkpt><trkpt lat="39.425313291945564" lon="17.004582387589295"><ele>348.4</ele><time>2026-03-29T12:07:15.999Z</time></trkpt><trkpt lat="39.42522082388171" lon="17.004584741389866"><ele>348.59999999999997</ele><time>2026-03-29T12:07:16.999Z</time></trkpt><trkpt lat="39.42511954370943" lon="17.004592377239753"><ele>348.79999999999995</ele><time>2026-03-29T12:07:17.999Z</time></trkpt><trkpt lat="39.425001980905556" lon="17.004643342617197"><ele>349.0</ele><time>2026-03-29T12:07:18.999Z</time></trkpt><trkpt lat="39.42489531013805" lon="17.004732267384686"><ele>349.0</ele><time>2026-03-29T12:07:19.999Z</time></trkpt><trkpt lat="39.42478885483271" lon="17.00483834004715"><ele>349.0</ele><time>2026-03-29T12:07:20.999Z</time></trkpt><trkpt lat="39.424650659774834" lon="17.00490369899434"><ele>349.0</ele><time>2026-03-29T12:07:21.999Z</time></trkpt><trkpt lat="39.42453205016539" lon="17.004956228264685"><ele>349.0</ele><time>2026-03-29T12:07:22.999Z</time></trkpt><trkpt lat="39.42441555215475" lon="17.005007862175596"><ele>347.0</ele><time>2026-03-29T12:07:23.999Z</time></trkpt><trkpt lat="39.424305654431066" lon="17.005056647026088"><ele>345.0</ele><time>2026-03-29T12:07:24.999Z</time></trkpt><trkpt lat="39.42421899322822" lon="17.00509769184699"><ele>343.0</ele><time>2026-03-29T12:07:25.999Z</time></trkpt><trkpt lat="39.424150435405366" lon="17.00512826207042"><ele>341.0</ele><time>2026-03-29T12:07:26.999Z</time></trkpt><trkpt lat="39.42406947652953" lon="17.00516015889577"><ele>339.0</ele><time>2026-03-29T12:07:27.999Z</time></trkpt><trkpt lat="39.4239444230864" lon="17.005099035683553"><ele>342.0</ele><time>2026-03-29T12:07:29.999Z</time></trkpt><trkpt lat="39.42379651181451" lon="17.00507321106948"><ele>345.0</ele><time>2026-03-29T12:07:30.999Z</time></trkpt><trkpt lat="39.42368456737878" lon="17.005129415093325"><ele>348.0</ele><time>2026-03-29T12:07:31.999Z</time></trkpt><trkpt lat="39.42359773735912" lon="17.00519807971278"><ele>351.0</ele><time>2026-03-29T12:07:32.999Z</time></trkpt><trkpt lat="39.42350444334037" lon="17.00527801060997"><ele>351.0</ele><time>2026-03-29T12:07:33.999Z</time></trkpt><trkpt lat="39.4234608923485" lon="17.00538557290942"><ele>351.0</ele><time>2026-03-29T12:07:34.999Z</time></trkpt><trkpt lat="39.423431511265846" lon="17.005503197478617"><ele>351.0</ele><time>2026-03-29T12:07:35.999Z</time></trkpt><trkpt lat="39.42340511119684" lon="17.00562392191328"><ele>351.0</ele><time>2026-03-29T12:07:36.999Z</time></trkpt><trkpt lat="39.42338056674194" lon="17.005708988042223"><ele>351.0</ele><time>2026-03-29T12:07:37.999Z</time></trkpt><trkpt lat="39.42332686638492" lon="17.005773274669473"><ele>351.0</ele><time>2026-03-29T12:07:38.999Z</time></trkpt><trkpt lat="39.42324092908085" lon="17.005851305709633"><ele>351.8</ele><time>2026-03-29T12:07:40.999Z</time></trkpt><trkpt lat="39.42316634893561" lon="17.005870127154083"><ele>352.6</ele><time>2026-03-29T12:07:42.999Z</time></trkpt><trkpt lat="39.42308201667827" lon="17.006037935389024"><ele>353.4</ele><time>2026-03-29T12:07:44.999Z</time></trkpt><trkpt lat="39.423003655133456" lon="17.006054893744857"><ele>354.2</ele><time>2026-03-29T12:07:45.999Z</time></trkpt><trkpt lat="39.422949844749546" lon="17.00614535995226"><ele>355.0</ele><time>2026-03-29T12:07:46.999Z</time></trkpt><trkpt lat="39.422875864184554" lon="17.006173179159227"><ele>355.0</ele><time>2026-03-29T12:07:47.999Z</time></trkpt><trkpt lat="39.42279645574147" lon="17.00621670583159"><ele>355.0</ele><time>2026-03-29T12:07:48.999Z</time></trkpt><trkpt lat="39.42271981032613" lon="17.006254128881174"><ele>355.0</ele><time>2026-03-29T12:07:49.999Z</time></trkpt><trkpt lat="39.422648608728245" lon="17.00631003369545"><ele>355.0</ele><time>2026-03-29T12:07:50.999Z</time></trkpt><trkpt lat="39.42257745613299" lon="17.006345321143755"><ele>355.0</ele><time>2026-03-29T12:07:51.999Z</time></trkpt><trkpt lat="39.42250152416663" lon="17.00636567395645"><ele>355.0</ele><time>2026-03-29T12:07:52.999Z</time></trkpt><trkpt lat="39.42243111023576" lon="17.006435563086896"><ele>355.0</ele><time>2026-03-29T12:07:53.999Z</time></trkpt><trkpt lat="39.42235183916868" lon="17.00652596712757"><ele>355.0</ele><time>2026-03-29T12:07:54.999Z</time></trkpt><trkpt lat="39.42225926013691" lon="17.006624420980483"><ele>355.0</ele><time>2026-03-29T12:07:55.999Z</time></trkpt><trkpt lat="39.42217446542061" lon="17.0067277705203"><ele>355.0</ele><time>2026-03-29T12:07:56.999Z</time></trkpt><trkpt lat="39.422113402551815" lon="17.006801753813342"><ele>355.0</ele><time>2026-03-29T12:07:57.999Z</time></trkpt><trkpt lat="39.422066103151586" lon="17.006869928152813"><ele>351.0</ele><time>2026-03-29T12:07:58.999Z</time></trkpt><trkpt lat="39.421966049525416" lon="17.006953484495472"><ele>347.0</ele><time>2026-03-29T12:08:00.999Z</time></trkpt><trkpt lat="39.42176965754832" lon="17.006891953934296"><ele>343.0</ele><time>2026-03-29T12:08:02.999Z</time></trkpt><trkpt lat="39.421662680466916" lon="17.006912985501593"><ele>339.0</ele><time>2026-03-29T12:08:03.999Z</time></trkpt><trkpt lat="39.42157598264015" lon="17.006942319291326"><ele>339.0</ele><time>2026-03-29T12:08:04.999Z</time></trkpt><trkpt lat="39.4215040616151" lon="17.00690388175476"><ele>339.0</ele><time>2026-03-29T12:08:05.999Z</time></trkpt><trkpt lat="39.421442621291085" lon="17.006883997880184"><ele>339.0</ele><time>2026-03-29T12:08:06.999Z</time></trkpt><trkpt lat="39.4213491299886" lon="17.006900373137707"><ele>339.0</ele><time>2026-03-29T12:08:08.999Z</time></trkpt><trkpt lat="39.42126481753958" lon="17.00696970329751"><ele>339.0</ele><time>2026-03-29T12:08:10.999Z</time></trkpt><trkpt lat="39.421254425058045" lon="17.00706550270214"><ele>339.0</ele><time>2026-03-29T12:08:11.999Z</time></trkpt><trkpt lat="39.421241667058084" lon="17.007218015889535"><ele>337.1666666666667</ele><time>2026-03-29T12:08:13.999Z</time></trkpt><trkpt lat="39.42120459891115" lon="17.007321647902973"><ele>335.3333333333333</ele><time>2026-03-29T12:08:15.999Z</time></trkpt><trkpt lat="39.42112673209541" lon="17.007364559771936"><ele>333.5</ele><time>2026-03-29T12:08:16.999Z</time></trkpt><trkpt lat="39.4210514870896" lon="17.007387986289487"><ele>331.66666666666663</ele><time>2026-03-29T12:08:17.999Z</time></trkpt><trkpt lat="39.42098438425787" lon="17.007408878031914"><ele>329.8333333333333</ele><time>2026-03-29T12:08:18.999Z</time></trkpt><trkpt lat="39.420918645706614" lon="17.007429345036353"><ele>328.0</ele><time>2026-03-29T12:08:19.999Z</time></trkpt><trkpt lat="39.42085099390825" lon="17.00748599057608"><ele>325.0</ele><time>2026-03-29T12:08:20.999Z</time></trkpt><trkpt lat="39.420794682891106" lon="17.007542824173147"><ele>322.0</ele><time>2026-03-29T12:08:21.999Z</time></trkpt><trkpt lat="39.420739693838826" lon="17.007627354573565"><ele>319.0</ele><time>2026-03-29T12:08:23.999Z</time></trkpt><trkpt lat="39.42068981428776" lon="17.007704030685485"><ele>316.0</ele><time>2026-03-29T12:08:26.999Z</time></trkpt><trkpt lat="39.42064115791149" lon="17.007833816155436"><ele>313.0</ele><time>2026-03-29T12:08:29.999Z</time></trkpt><trkpt lat="39.420560761918146" lon="17.00793617746942"><ele>313.0</ele><time>2026-03-29T12:08:31.999Z</time></trkpt><trkpt lat="39.42051604525189" lon="17.00800291966379"><ele>313.0</ele><time>2026-03-29T12:08:32.999Z</time></trkpt><trkpt lat="39.42047460172151" lon="17.008072426850504"><ele>313.0</ele><time>2026-03-29T12:08:33.999Z</time></trkpt><trkpt lat="39.42042581133691" lon="17.008160018672328"><ele>313.0</ele><time>2026-03-29T12:08:34.999Z</time></trkpt><trkpt lat="39.4203785806756" lon="17.008251914081505"><ele>313.0</ele><time>2026-03-29T12:08:35.999Z</time></trkpt><trkpt lat="39.42033705725862" lon="17.008357392369767"><ele>313.0</ele><time>2026-03-29T12:08:36.999Z</time></trkpt><trkpt lat="39.42029472828291" lon="17.008482933522775"><ele>310.4</ele><time>2026-03-29T12:08:37.999Z</time></trkpt><trkpt lat="39.4202435389182" lon="17.00860278206056"><ele>307.8</ele><time>2026-03-29T12:08:38.999Z</time></trkpt><trkpt lat="39.42018637918532" lon="17.008708605243466"><ele>305.2</ele><time>2026-03-29T12:08:39.999Z</time></trkpt><trkpt lat="39.42012107322283" lon="17.008819560944126"><ele>302.6</ele><time>2026-03-29T12:08:40.999Z</time></trkpt><trkpt lat="39.42006134625262" lon="17.00892079410875"><ele>300.0</ele><time>2026-03-29T12:08:41.999Z</time></trkpt><trkpt lat="39.42000508246691" lon="17.009016157787404"><ele>300.0</ele><time>2026-03-29T12:08:42.999Z</time></trkpt><trkpt lat="39.419943737062276" lon="17.009120134968704"><ele>300.0</ele><time>2026-03-29T12:08:43.999Z</time></trkpt><trkpt lat="39.41990234101145" lon="17.009190299059888"><ele>300.0</ele><time>2026-03-29T12:08:44.999Z</time></trkpt><trkpt lat="39.41983805068603" lon="17.009338595369424"><ele>300.0</ele><time>2026-03-29T12:08:46.999Z</time></trkpt><trkpt lat="39.41984921198946" lon="17.00942832951214"><ele>300.0</ele><time>2026-03-29T12:08:47.999Z</time></trkpt><trkpt lat="39.41985549259519" lon="17.00952867842328"><ele>300.0</ele><time>2026-03-29T12:08:48.999Z</time></trkpt><trkpt lat="39.419861029336275" lon="17.00961362854477"><ele>302.3333333333333</ele><time>2026-03-29T12:08:49.999Z</time></trkpt><trkpt lat="39.41986735594615" lon="17.009702923103838"><ele>304.6666666666667</ele><time>2026-03-29T12:08:50.999Z</time></trkpt><trkpt lat="39.41984920237563" lon="17.009863301628396"><ele>307.0</ele><time>2026-03-29T12:08:52.999Z</time></trkpt><trkpt lat="39.419807629894045" lon="17.00994119240393"><ele>309.33333333333337</ele><time>2026-03-29T12:08:53.999Z</time></trkpt><trkpt lat="39.4197505190674" lon="17.010016302283386"><ele>311.6666666666667</ele><time>2026-03-29T12:08:54.999Z</time></trkpt><trkpt lat="39.419711228654194" lon="17.010105786765628"><ele>314.0</ele><time>2026-03-29T12:08:55.999Z</time></trkpt><trkpt lat="39.41967868113407" lon="17.010198453250307"><ele>314.2</ele><time>2026-03-29T12:08:56.999Z</time></trkpt><trkpt lat="39.41964798933765" lon="17.010276010914634"><ele>314.4</ele><time>2026-03-29T12:08:57.999Z</time></trkpt><trkpt lat="39.41959915933012" lon="17.010333246173793"><ele>314.6</ele><time>2026-03-29T12:08:58.999Z</time></trkpt><trkpt lat="39.419486501273965" lon="17.010327001712422"><ele>314.8</ele><time>2026-03-29T12:09:00.999Z</time></trkpt><trkpt lat="39.41936663978942" lon="17.010304604097055"><ele>315.0</ele><time>2026-03-29T12:09:02.999Z</time></trkpt><trkpt lat="39.41926500848875" lon="17.01034468872191"><ele>315.0</ele><time>2026-03-29T12:09:04.999Z</time></trkpt><trkpt lat="39.41917367910883" lon="17.010410274371072"><ele>315.0</ele><time>2026-03-29T12:09:06.999Z</time></trkpt><trkpt lat="39.41913448589525" lon="17.01056308881762"><ele>315.0</ele><time>2026-03-29T12:09:08.999Z</time></trkpt><trkpt lat="39.41914531376036" lon="17.010671168509383"><ele>315.0</ele><time>2026-03-29T12:09:09.999Z</time></trkpt><trkpt lat="39.41917837871067" lon="17.010795720604392"><ele>315.0</ele><time>2026-03-29T12:09:10.999Z</time></trkpt><trkpt lat="39.419210394796934" lon="17.010915547930153"><ele>314.5</ele><time>2026-03-29T12:09:11.999Z</time></trkpt><trkpt lat="39.419233543652446" lon="17.01101944598659"><ele>314.0</ele><time>2026-03-29T12:09:12.999Z</time></trkpt><trkpt lat="39.41924548820002" lon="17.011110597474485"><ele>313.5</ele><time>2026-03-29T12:09:13.999Z</time></trkpt><trkpt lat="39.41926532696796" lon="17.01123877980632"><ele>313.0</ele><time>2026-03-29T12:09:15.999Z</time></trkpt><trkpt lat="39.41921784454115" lon="17.011325902686416"><ele>312.5</ele><time>2026-03-29T12:09:17.999Z</time></trkpt><trkpt lat="39.41914060899587" lon="17.011379870502704"><ele>312.0</ele><time>2026-03-29T12:09:19.999Z</time></trkpt><trkpt lat="39.419071032078875" lon="17.01142479232878"><ele>312.0</ele><time>2026-03-29T12:09:21.999Z</time></trkpt><trkpt lat="39.418999755810496" lon="17.01143974326365"><ele>312.0</ele><time>2026-03-29T12:09:23.999Z</time></trkpt><trkpt lat="39.41888167441322" lon="17.011490163771043"><ele>312.0</ele><time>2026-03-29T12:09:25.999Z</time></trkpt><trkpt lat="39.41883230678426" lon="17.01154465414481"><ele>312.0</ele><time>2026-03-29T12:09:26.999Z</time></trkpt><trkpt lat="39.41879964998816" lon="17.01161651204501"><ele>312.0</ele><time>2026-03-29T12:09:27.999Z</time></trkpt><trkpt lat="39.418775555298154" lon="17.01170375261133"><ele>312.0</ele><time>2026-03-29T12:09:28.999Z</time></trkpt><trkpt lat="39.41877117713846" lon="17.011816240369743"><ele>308.8333333333333</ele><time>2026-03-29T12:09:29.999Z</time></trkpt><trkpt lat="39.4187571814645" lon="17.011923259338097"><ele>305.6666666666667</ele><time>2026-03-29T12:09:30.999Z</time></trkpt><trkpt lat="39.41871968996136" lon="17.012010065498824"><ele>302.5</ele><time>2026-03-29T12:09:31.999Z</time></trkpt><trkpt lat="39.41867171744681" lon="17.012084436371595"><ele>299.33333333333337</ele><time>2026-03-29T12:09:32.999Z</time></trkpt><trkpt lat="39.418604922117964" lon="17.012146162285315"><ele>296.1666666666667</ele><time>2026-03-29T12:09:33.999Z</time></trkpt><trkpt lat="39.41851644739337" lon="17.012169456227554"><ele>293.0</ele><time>2026-03-29T12:09:34.999Z</time></trkpt><trkpt lat="39.41843498023979" lon="17.012208415418762"><ele>293.0</ele><time>2026-03-29T12:09:35.999Z</time></trkpt><trkpt lat="39.41835303516218" lon="17.012253079662262"><ele>293.0</ele><time>2026-03-29T12:09:36.999Z</time></trkpt><trkpt lat="39.41829145759583" lon="17.0123277789979"><ele>293.0</ele><time>2026-03-29T12:09:37.999Z</time></trkpt><trkpt lat="39.41824436886349" lon="17.012415644993442"><ele>293.0</ele><time>2026-03-29T12:09:38.998Z</time></trkpt><trkpt lat="39.418202487091136" lon="17.01249960379681"><ele>293.0</ele><time>2026-03-29T12:09:39.997Z</time></trkpt><trkpt lat="39.41816435479342" lon="17.012591809801904"><ele>293.0</ele><time>2026-03-29T12:09:40.997Z</time></trkpt><trkpt lat="39.41815525529673" lon="17.012686217978167"><ele>292.5</ele><time>2026-03-29T12:09:41.997Z</time></trkpt><trkpt lat="39.418148397159705" lon="17.012776644244298"><ele>292.0</ele><time>2026-03-29T12:09:42.997Z</time></trkpt><trkpt lat="39.41811434884409" lon="17.01285510011389"><ele>291.5</ele><time>2026-03-29T12:09:43.997Z</time></trkpt><trkpt lat="39.41807512195375" lon="17.01294492856488"><ele>291.0</ele><time>2026-03-29T12:09:44.997Z</time></trkpt><trkpt lat="39.41802356593898" lon="17.013045660623288"><ele>290.5</ele><time>2026-03-29T12:09:45.997Z</time></trkpt><trkpt lat="39.41796400058608" lon="17.013157856128206"><ele>290.0</ele><time>2026-03-29T12:09:46.997Z</time></trkpt><trkpt lat="39.41791004190314" lon="17.013266496566846"><ele>288.0</ele><time>2026-03-29T12:09:47.997Z</time></trkpt><trkpt lat="39.41786491630237" lon="17.013366004628438"><ele>286.0</ele><time>2026-03-29T12:09:48.997Z</time></trkpt><trkpt lat="39.41782662563069" lon="17.013466881252928"><ele>284.0</ele><time>2026-03-29T12:09:49.997Z</time></trkpt><trkpt lat="39.41778289342707" lon="17.013580166010883"><ele>282.0</ele><time>2026-03-29T12:09:50.997Z</time></trkpt><trkpt lat="39.41774911845648" lon="17.013710939806263"><ele>280.0</ele><time>2026-03-29T12:09:51.997Z</time></trkpt><trkpt lat="39.41770511673564" lon="17.013834003187775"><ele>280.0</ele><time>2026-03-29T12:09:52.997Z</time></trkpt><trkpt lat="39.41767504758735" lon="17.013950335763482"><ele>280.0</ele><time>2026-03-29T12:09:53.997Z</time></trkpt><trkpt lat="39.41764637717021" lon="17.014061077306163"><ele>280.0</ele><time>2026-03-29T12:09:54.997Z</time></trkpt><trkpt lat="39.41761322900691" lon="17.014160860780045"><ele>280.0</ele><time>2026-03-29T12:09:55.997Z</time></trkpt><trkpt lat="39.417557318114056" lon="17.01424453998315"><ele>280.0</ele><time>2026-03-29T12:09:56.997Z</time></trkpt><trkpt lat="39.41747402420018" lon="17.01431567233203"><ele>281.4</ele><time>2026-03-29T12:09:57.997Z</time></trkpt><trkpt lat="39.4173752713632" lon="17.014383941115437"><ele>282.8</ele><time>2026-03-29T12:09:58.997Z</time></trkpt><trkpt lat="39.417278485429044" lon="17.014407411431282"><ele>284.2</ele><time>2026-03-29T12:09:59.997Z</time></trkpt><trkpt lat="39.41717816726102" lon="17.014399753317882"><ele>285.6</ele><time>2026-03-29T12:10:00.997Z</time></trkpt><trkpt lat="39.417072189260765" lon="17.014392190868584"><ele>287.0</ele><time>2026-03-29T12:10:01.997Z</time></trkpt><trkpt lat="39.416980532521876" lon="17.014404936122766"><ele>287.0</ele><time>2026-03-29T12:10:02.997Z</time></trkpt><trkpt lat="39.41690814649241" lon="17.014426641959826"><ele>287.0</ele><time>2026-03-29T12:10:03.997Z</time></trkpt><trkpt lat="39.41684365317186" lon="17.014456905001605"><ele>287.0</ele><time>2026-03-29T12:10:04.997Z</time></trkpt><trkpt lat="39.41676842950084" lon="17.01448657494486"><ele>287.0</ele><time>2026-03-29T12:10:05.997Z</time></trkpt><trkpt lat="39.41668295849638" lon="17.01452828516804"><ele>287.0</ele><time>2026-03-29T12:10:06.997Z</time></trkpt><trkpt lat="39.41660770595702" lon="17.014570233910476"><ele>287.0</ele><time>2026-03-29T12:10:07.997Z</time></trkpt><trkpt lat="39.41653543128185" lon="17.01462177087683"><ele>287.0</ele><time>2026-03-29T12:10:08.997Z</time></trkpt><trkpt lat="39.41646729425095" lon="17.014692244282347"><ele>287.0</ele><time>2026-03-29T12:10:09.997Z</time></trkpt><trkpt lat="39.416424802039266" lon="17.01478133526124"><ele>287.0</ele><time>2026-03-29T12:10:10.997Z</time></trkpt><trkpt lat="39.416397458789845" lon="17.014887373726523"><ele>287.0</ele><time>2026-03-29T12:10:11.997Z</time></trkpt><trkpt lat="39.416383352237574" lon="17.015004122341697"><ele>287.0</ele><time>2026-03-29T12:10:12.997Z</time></trkpt><trkpt lat="39.41639839639087" lon="17.015135892573184"><ele>287.0</ele><time>2026-03-29T12:10:13.997Z</time></trkpt><trkpt lat="39.41640622694682" lon="17.01525694183657"><ele>287.0</ele><time>2026-03-29T12:10:14.997Z</time></trkpt><trkpt lat="39.41639567848578" lon="17.015351626806908"><ele>287.0</ele><time>2026-03-29T12:10:15.997Z</time></trkpt><trkpt lat="39.41638282084245" lon="17.01544872219637"><ele>287.0</ele><time>2026-03-29T12:10:16.997Z</time></trkpt><trkpt lat="39.416366105016614" lon="17.015545844903784"><ele>287.0</ele><time>2026-03-29T12:10:17.997Z</time></trkpt><trkpt lat="39.416360947347016" lon="17.015630013200333"><ele>287.0</ele><time>2026-03-29T12:10:18.997Z</time></trkpt><trkpt lat="39.416379113300415" lon="17.01573214341236"><ele>287.0</ele><time>2026-03-29T12:10:19.997Z</time></trkpt><trkpt lat="39.41640540762616" lon="17.015855102571017"><ele>287.0</ele><time>2026-03-29T12:10:20.997Z</time></trkpt><trkpt lat="39.41640521760785" lon="17.015943025195373"><ele>287.0</ele><time>2026-03-29T12:10:21.997Z</time></trkpt><trkpt lat="39.41635352229866" lon="17.016030647107595"><ele>287.0</ele><time>2026-03-29T12:10:22.997Z</time></trkpt><trkpt lat="39.41628859772723" lon="17.01610731846721"><ele>287.0</ele><time>2026-03-29T12:10:23.997Z</time></trkpt><trkpt lat="39.41622701885911" lon="17.01618329597739"><ele>287.0</ele><time>2026-03-29T12:10:24.997Z</time></trkpt><trkpt lat="39.41617830774218" lon="17.016257273794903"><ele>287.0</ele><time>2026-03-29T12:10:25.997Z</time></trkpt><trkpt lat="39.41613786005941" lon="17.016324140816963"><ele>286.6666666666667</ele><time>2026-03-29T12:10:26.997Z</time></trkpt><trkpt lat="39.41611284203965" lon="17.01640658282834"><ele>286.33333333333337</ele><time>2026-03-29T12:10:27.997Z</time></trkpt><trkpt lat="39.416088586453625" lon="17.016503191956"><ele>286.0</ele><time>2026-03-29T12:10:28.997Z</time></trkpt><trkpt lat="39.41605075796073" lon="17.016602410540912"><ele>285.6666666666667</ele><time>2026-03-29T12:10:29.997Z</time></trkpt><trkpt lat="39.415990422832635" lon="17.0166896920181"><ele>285.3333333333333</ele><time>2026-03-29T12:10:30.997Z</time></trkpt><trkpt lat="39.41592096127942" lon="17.016774437338544"><ele>285.0</ele><time>2026-03-29T12:10:31.997Z</time></trkpt><trkpt lat="39.41584717076893" lon="17.016842604944397"><ele>285.0</ele><time>2026-03-29T12:10:32.997Z</time></trkpt><trkpt lat="39.41577962839373" lon="17.01691450365068"><ele>285.0</ele><time>2026-03-29T12:10:33.997Z</time></trkpt><trkpt lat="39.41570906885244" lon="17.016971901860398"><ele>285.0</ele><time>2026-03-29T12:10:34.997Z</time></trkpt><trkpt lat="39.41563064452529" lon="17.01702746864546"><ele>285.0</ele><time>2026-03-29T12:10:35.997Z</time></trkpt><trkpt lat="39.41555762009348" lon="17.017089639589297"><ele>285.0</ele><time>2026-03-29T12:10:36.997Z</time></trkpt><trkpt lat="39.41549308928095" lon="17.01714309292964"><ele>285.0</ele><time>2026-03-29T12:10:37.997Z</time></trkpt><trkpt lat="39.41543040456204" lon="17.017203793880054"><ele>280.0</ele><time>2026-03-29T12:10:38.997Z</time></trkpt><trkpt lat="39.415375241334395" lon="17.017274799399047"><ele>275.0</ele><time>2026-03-29T12:10:39.997Z</time></trkpt><trkpt lat="39.41533388841607" lon="17.017352932320865"><ele>270.0</ele><time>2026-03-29T12:10:40.997Z</time></trkpt><trkpt lat="39.415296523219666" lon="17.017447420292715"><ele>265.0</ele><time>2026-03-29T12:10:41.997Z</time></trkpt><trkpt lat="39.41527427357189" lon="17.01757841541886"><ele>260.0</ele><time>2026-03-29T12:10:43Z</time></trkpt><trkpt lat="39.415243289399015" lon="17.017743648667206"><ele>260.0</ele><time>2026-03-29T12:10:44Z</time></trkpt><trkpt lat="39.41520877018492" lon="17.01791046506385"><ele>260.0</ele><time>2026-03-29T12:10:45Z</time></trkpt><trkpt lat="39.41518546109521" lon="17.01805142442006"><ele>260.0</ele><time>2026-03-29T12:10:46Z</time></trkpt><trkpt lat="39.41516145081653" lon="17.01817467259757"><ele>260.0</ele><time>2026-03-29T12:10:47Z</time></trkpt><trkpt lat="39.415129614079326" lon="17.018289226109847"><ele>260.0</ele><time>2026-03-29T12:10:48Z</time></trkpt><trkpt lat="39.41508336273211" lon="17.018392236900556"><ele>262.4</ele><time>2026-03-29T12:10:49Z</time></trkpt><trkpt lat="39.41504016049803" lon="17.018491352126382"><ele>264.8</ele><time>2026-03-29T12:10:50Z</time></trkpt><trkpt lat="39.414996481889595" lon="17.018587380389135"><ele>267.2</ele><time>2026-03-29T12:10:51Z</time></trkpt><trkpt lat="39.414957522491484" lon="17.018695605690148"><ele>269.6</ele><time>2026-03-29T12:10:52Z</time></trkpt><trkpt lat="39.41491660009162" lon="17.01881157952902"><ele>272.0</ele><time>2026-03-29T12:10:53Z</time></trkpt><trkpt lat="39.4148871386784" lon="17.01892909346337"><ele>272.0</ele><time>2026-03-29T12:10:54Z</time></trkpt><trkpt lat="39.41488424413093" lon="17.01903976819251"><ele>272.0</ele><time>2026-03-29T12:10:55Z</time></trkpt><trkpt lat="39.41489353468767" lon="17.019138917653382"><ele>272.0</ele><time>2026-03-29T12:10:56Z</time></trkpt><trkpt lat="39.41490490385589" lon="17.019221827521637"><ele>272.0</ele><time>2026-03-29T12:10:57Z</time></trkpt><trkpt lat="39.41488680724577" lon="17.019370739538125"><ele>272.0</ele><time>2026-03-29T12:10:59Z</time></trkpt><trkpt lat="39.41484797984032" lon="17.01944241812731"><ele>272.0</ele><time>2026-03-29T12:11:00Z</time></trkpt><trkpt lat="39.41480154734738" lon="17.01952838860677"><ele>271.1666666666667</ele><time>2026-03-29T12:11:01Z</time></trkpt><trkpt lat="39.414748619884165" lon="17.019627708525142"><ele>270.33333333333337</ele><time>2026-03-29T12:11:02Z</time></trkpt><trkpt lat="39.41470071145242" lon="17.01973749216469"><ele>269.5</ele><time>2026-03-29T12:11:03Z</time></trkpt><trkpt lat="39.41465030810216" lon="17.019836016165875"><ele>268.6666666666667</ele><time>2026-03-29T12:11:04Z</time></trkpt><trkpt lat="39.4146088280297" lon="17.01992753090363"><ele>267.8333333333333</ele><time>2026-03-29T12:11:05Z</time></trkpt><trkpt lat="39.41458111456689" lon="17.020020212657297"><ele>267.0</ele><time>2026-03-29T12:11:06Z</time></trkpt><trkpt lat="39.414576468627814" lon="17.02012905504307"><ele>270.6</ele><time>2026-03-29T12:11:07Z</time></trkpt><trkpt lat="39.414579767142556" lon="17.020248565733617"><ele>274.2</ele><time>2026-03-29T12:11:08Z</time></trkpt><trkpt lat="39.4145587374607" lon="17.02037259117848"><ele>277.8</ele><time>2026-03-29T12:11:09Z</time></trkpt><trkpt lat="39.414549882583" lon="17.02050441317"><ele>281.4</ele><time>2026-03-29T12:11:10Z</time></trkpt><trkpt lat="39.414528454180925" lon="17.02060906742756"><ele>285.0</ele><time>2026-03-29T12:11:11Z</time></trkpt><trkpt lat="39.41450755791311" lon="17.020703999556037"><ele>285.0</ele><time>2026-03-29T12:11:12Z</time></trkpt><trkpt lat="39.414490169834565" lon="17.02078313394648"><ele>285.0</ele><time>2026-03-29T12:11:13Z</time></trkpt><trkpt lat="39.4144561421651" lon="17.020883539127418"><ele>285.0</ele><time>2026-03-29T12:11:15Z</time></trkpt><trkpt lat="39.41442667072088" lon="17.02098461351322"><ele>285.0</ele><time>2026-03-29T12:11:17.999Z</time></trkpt><trkpt lat="39.41442363491965" lon="17.021090258967682"><ele>285.0</ele><time>2026-03-29T12:11:19.999Z</time></trkpt><trkpt lat="39.41447468155346" lon="17.02118224551928"><ele>285.0</ele><time>2026-03-29T12:11:21.999Z</time></trkpt><trkpt lat="39.414533865133286" lon="17.02126241476541"><ele>286.2</ele><time>2026-03-29T12:11:23.999Z</time></trkpt><trkpt lat="39.41460971649216" lon="17.021383019053623"><ele>287.4</ele><time>2026-03-29T12:11:25.999Z</time></trkpt><trkpt lat="39.414640719193095" lon="17.0214590084451"><ele>288.6</ele><time>2026-03-29T12:11:26.999Z</time></trkpt><trkpt lat="39.41467925178745" lon="17.021523876314223"><ele>289.8</ele><time>2026-03-29T12:11:27.999Z</time></trkpt><trkpt lat="39.41479582575332" lon="17.021577369388154"><ele>291.0</ele><time>2026-03-29T12:11:29.999Z</time></trkpt><trkpt lat="39.414916211233546" lon="17.021627571936662"><ele>295.2</ele><time>2026-03-29T12:11:31.999Z</time></trkpt><trkpt lat="39.414970152088756" lon="17.02167206010463"><ele>299.40000000000003</ele><time>2026-03-29T12:11:32.999Z</time></trkpt><trkpt lat="39.41506983381001" lon="17.021728162267493"><ele>303.6</ele><time>2026-03-29T12:11:34.999Z</time></trkpt><trkpt lat="39.415143454313515" lon="17.02187721482595"><ele>307.8</ele><time>2026-03-29T12:11:36.999Z</time></trkpt><trkpt lat="39.41518766094409" lon="17.021967553481304"><ele>312.0</ele><time>2026-03-29T12:11:37.999Z</time></trkpt><trkpt lat="39.415234773190136" lon="17.022055206953578"><ele>312.0</ele><time>2026-03-29T12:11:38.999Z</time></trkpt><trkpt lat="39.41527685436643" lon="17.022135427464697"><ele>312.0</ele><time>2026-03-29T12:11:39.999Z</time></trkpt><trkpt lat="39.41532005837349" lon="17.022233124757385"><ele>312.0</ele><time>2026-03-29T12:11:40.999Z</time></trkpt><trkpt lat="39.41536714145318" lon="17.022321794476856"><ele>312.0</ele><time>2026-03-29T12:11:41.999Z</time></trkpt><trkpt lat="39.41541038982199" lon="17.022396636716376"><ele>312.0</ele><time>2026-03-29T12:11:42.999Z</time></trkpt><trkpt lat="39.41545413983481" lon="17.022463992410213"><ele>312.0</ele><time>2026-03-29T12:11:43.999Z</time></trkpt><trkpt lat="39.4155204266699" lon="17.02256426652249"><ele>314.0</ele><time>2026-03-29T12:11:45.999Z</time></trkpt><trkpt lat="39.415565630406505" lon="17.02266567657621"><ele>316.0</ele><time>2026-03-29T12:11:47.999Z</time></trkpt><trkpt lat="39.41559915045843" lon="17.022772032821933"><ele>318.0</ele><time>2026-03-29T12:11:49.999Z</time></trkpt><trkpt lat="39.415620515797855" lon="17.02286112278221"><ele>320.0</ele><time>2026-03-29T12:11:51.999Z</time></trkpt><trkpt lat="39.41565981464322" lon="17.022938201877594"><ele>322.0</ele><time>2026-03-29T12:11:53.999Z</time></trkpt><trkpt lat="39.41574061943723" lon="17.02300509150558"><ele>324.0</ele><time>2026-03-29T12:11:55.999Z</time></trkpt><trkpt lat="39.41580353425902" lon="17.023011832827468"><ele>324.0</ele><time>2026-03-29T12:11:56.999Z</time></trkpt><trkpt lat="39.41588003914048" lon="17.02301325379252"><ele>324.0</ele><time>2026-03-29T12:11:57.999Z</time></trkpt><trkpt lat="39.41595986980221" lon="17.022994005082477"><ele>324.0</ele><time>2026-03-29T12:11:58.999Z</time></trkpt><trkpt lat="39.41604018120158" lon="17.023001800494853"><ele>324.0</ele><time>2026-03-29T12:11:59.999Z</time></trkpt><trkpt lat="39.41612357388448" lon="17.023025469531593"><ele>324.0</ele><time>2026-03-29T12:12:00.999Z</time></trkpt><trkpt lat="39.41621183115047" lon="17.023046244492715"><ele>324.0</ele><time>2026-03-29T12:12:01.999Z</time></trkpt><trkpt lat="39.41630795794028" lon="17.02305599733032"><ele>323.1666666666667</ele><time>2026-03-29T12:12:02.999Z</time></trkpt><trkpt lat="39.41640562812671" lon="17.02307985083666"><ele>322.3333333333333</ele><time>2026-03-29T12:12:03.999Z</time></trkpt><trkpt lat="39.41650247619582" lon="17.02310454597522"><ele>321.5</ele><time>2026-03-29T12:12:04.999Z</time></trkpt><trkpt lat="39.416591383867335" lon="17.02311333916417"><ele>320.66666666666663</ele><time>2026-03-29T12:12:05.999Z</time></trkpt><trkpt lat="39.41666097930975" lon="17.02314437522528"><ele>319.8333333333333</ele><time>2026-03-29T12:12:06.999Z</time></trkpt><trkpt lat="39.41672830280056" lon="17.023176588447328"><ele>319.0</ele><time>2026-03-29T12:12:07.999Z</time></trkpt><trkpt lat="39.41679671077086" lon="17.023181841809983"><ele>319.0</ele><time>2026-03-29T12:12:08.999Z</time></trkpt><trkpt lat="39.416869284828024" lon="17.023157519104604"><ele>319.0</ele><time>2026-03-29T12:12:09.999Z</time></trkpt><trkpt lat="39.41696013281265" lon="17.02309935473512"><ele>319.0</ele><time>2026-03-29T12:12:11.999Z</time></trkpt><trkpt lat="39.417003455570814" lon="17.023030236367433"><ele>319.0</ele><time>2026-03-29T12:12:15.999Z</time></trkpt><trkpt lat="39.4170517327738" lon="17.022952783430142"><ele>319.0</ele><time>2026-03-29T12:12:17.999Z</time></trkpt><trkpt lat="39.417105874079596" lon="17.02287211987927"><ele>319.0</ele><time>2026-03-29T12:12:19.999Z</time></trkpt><trkpt lat="39.41720290478893" lon="17.02282657501417"><ele>315.2</ele><time>2026-03-29T12:12:21.999Z</time></trkpt><trkpt lat="39.41727589472429" lon="17.02280525010574"><ele>311.4</ele><time>2026-03-29T12:12:22.999Z</time></trkpt><trkpt lat="39.41733486717582" lon="17.022759561539754"><ele>307.6</ele><time>2026-03-29T12:12:23.999Z</time></trkpt><trkpt lat="39.4173882968105" lon="17.022702120862466"><ele>303.8</ele><time>2026-03-29T12:12:24.999Z</time></trkpt><trkpt lat="39.41745528812685" lon="17.02267502588792"><ele>300.0</ele><time>2026-03-29T12:12:25.999Z</time></trkpt><trkpt lat="39.41769546297277" lon="17.0226673692391"><ele>300.0</ele><time>2026-03-29T12:12:28.999Z</time></trkpt><trkpt lat="39.41775939945522" lon="17.0226180822451"><ele>300.0</ele><time>2026-03-29T12:12:29.999Z</time></trkpt><trkpt lat="39.417820989886934" lon="17.022539767795088"><ele>300.0</ele><time>2026-03-29T12:12:30.999Z</time></trkpt><trkpt lat="39.417894238742356" lon="17.022492573915226"><ele>300.0</ele><time>2026-03-29T12:12:31.999Z</time></trkpt><trkpt lat="39.41796740850808" lon="17.022474699771145"><ele>300.0</ele><time>2026-03-29T12:12:32.999Z</time></trkpt><trkpt lat="39.4180675556676" lon="17.02247985154552"><ele>300.0</ele><time>2026-03-29T12:12:33.999Z</time></trkpt><trkpt lat="39.41819207937876" lon="17.022483038657054"><ele>298.5</ele><time>2026-03-29T12:12:34.999Z</time></trkpt><trkpt lat="39.41831732193312" lon="17.022497582888864"><ele>297.0</ele><time>2026-03-29T12:12:35.999Z</time></trkpt><trkpt lat="39.418433896257994" lon="17.022500745692696"><ele>295.5</ele><time>2026-03-29T12:12:36.999Z</time></trkpt><trkpt lat="39.41855856890849" lon="17.022511018849116"><ele>294.0</ele><time>2026-03-29T12:12:37.999Z</time></trkpt><trkpt lat="39.41866917726698" lon="17.022527612592487"><ele>292.75</ele><time>2026-03-29T12:12:38.999Z</time></trkpt><trkpt lat="39.41893483362305" lon="17.022547546375097"><ele>291.5</ele><time>2026-03-29T12:12:41.999Z</time></trkpt><trkpt lat="39.41900875815907" lon="17.022597434816923"><ele>290.25</ele><time>2026-03-29T12:12:42.999Z</time></trkpt><trkpt lat="39.419100701080566" lon="17.02262255609116"><ele>289.0</ele><time>2026-03-29T12:12:44.999Z</time></trkpt><trkpt lat="39.41918969712923" lon="17.02263189471577"><ele>289.0</ele><time>2026-03-29T12:12:46.999Z</time></trkpt><trkpt lat="39.41925423664015" lon="17.02264670928571"><ele>289.0</ele><time>2026-03-29T12:12:47.999Z</time></trkpt><trkpt lat="39.41932937241739" lon="17.022660854623908"><ele>289.0</ele><time>2026-03-29T12:12:48.999Z</time></trkpt><trkpt lat="39.41943485398023" lon="17.022681817625788"><ele>289.0</ele><time>2026-03-29T12:12:49.999Z</time></trkpt><trkpt lat="39.419526895366964" lon="17.022709631184263"><ele>289.0</ele><time>2026-03-29T12:12:50.999Z</time></trkpt><trkpt lat="39.41959619981514" lon="17.02273588620967"><ele>289.0</ele><time>2026-03-29T12:12:51.999Z</time></trkpt><trkpt lat="39.41964985952708" lon="17.022795073074253"><ele>289.0</ele><time>2026-03-29T12:12:52.999Z</time></trkpt><trkpt lat="39.41967546297659" lon="17.022913777326657"><ele>289.0</ele><time>2026-03-29T12:12:54.999Z</time></trkpt><trkpt lat="39.41965620850657" lon="17.02303070169269"><ele>289.0</ele><time>2026-03-29T12:12:56.999Z</time></trkpt><trkpt lat="39.419640134990004" lon="17.023141885117052"><ele>289.0</ele><time>2026-03-29T12:12:58.999Z</time></trkpt><trkpt lat="39.41962159823586" lon="17.023250059008376"><ele>289.0</ele><time>2026-03-29T12:13:00.999Z</time></trkpt><trkpt lat="39.41963365024352" lon="17.023353010308025"><ele>289.0</ele><time>2026-03-29T12:13:02.999Z</time></trkpt><trkpt lat="39.41965941266216" lon="17.023458619619696"><ele>288.16666666666663</ele><time>2026-03-29T12:13:04.999Z</time></trkpt><trkpt lat="39.41966514147358" lon="17.023560933064214"><ele>287.3333333333333</ele><time>2026-03-29T12:13:06.999Z</time></trkpt><trkpt lat="39.419631014159265" lon="17.02364477556608"><ele>286.5</ele><time>2026-03-29T12:13:08.999Z</time></trkpt><trkpt lat="39.41957155367802" lon="17.023687270600966"><ele>285.6666666666667</ele><time>2026-03-29T12:13:10.999Z</time></trkpt><trkpt lat="39.41948080344795" lon="17.02362465639971"><ele>284.83333333333337</ele><time>2026-03-29T12:13:12.999Z</time></trkpt><trkpt lat="39.419392422834605" lon="17.0235889781019"><ele>284.0</ele><time>2026-03-29T12:13:14.999Z</time></trkpt><trkpt lat="39.4193095393824" lon="17.023606951077365"><ele>284.0</ele><time>2026-03-29T12:13:16.999Z</time></trkpt><trkpt lat="39.41928537280825" lon="17.023707755568097"><ele>284.0</ele><time>2026-03-29T12:13:19.999Z</time></trkpt><trkpt lat="39.419325103743894" lon="17.023793320500243"><ele>284.0</ele><time>2026-03-29T12:13:21.999Z</time></trkpt><trkpt lat="39.4193207898415" lon="17.02390288878569"><ele>284.0</ele><time>2026-03-29T12:13:23.999Z</time></trkpt><trkpt lat="39.4193266494787" lon="17.02399246309126"><ele>284.0</ele><time>2026-03-29T12:13:25.999Z</time></trkpt><trkpt lat="39.419377986467246" lon="17.02409034082117"><ele>284.0</ele><time>2026-03-29T12:13:27.999Z</time></trkpt><trkpt lat="39.41945484154305" lon="17.02421577396917"><ele>279.6666666666667</ele><time>2026-03-29T12:13:29.999Z</time></trkpt><trkpt lat="39.41949893735209" lon="17.024283349277766"><ele>275.33333333333337</ele><time>2026-03-29T12:13:30.999Z</time></trkpt><trkpt lat="39.419535545201946" lon="17.024367054519217"><ele>271.0</ele><time>2026-03-29T12:13:31.999Z</time></trkpt><trkpt lat="39.41957491408353" lon="17.0244466599218"><ele>266.6666666666667</ele><time>2026-03-29T12:13:32.999Z</time></trkpt><trkpt lat="39.419612420341224" lon="17.02451381797129"><ele>262.3333333333333</ele><time>2026-03-29T12:13:33.999Z</time></trkpt><trkpt lat="39.419705975758966" lon="17.024608670928817"><ele>258.0</ele><time>2026-03-29T12:13:35.999Z</time></trkpt><trkpt lat="39.41976827069443" lon="17.024643190432005"><ele>257.4</ele><time>2026-03-29T12:13:36.999Z</time></trkpt><trkpt lat="39.41986115280561" lon="17.0247365067647"><ele>256.8</ele><time>2026-03-29T12:13:38.999Z</time></trkpt><trkpt lat="39.419960865398984" lon="17.024824767845725"><ele>256.2</ele><time>2026-03-29T12:13:40.999Z</time></trkpt><trkpt lat="39.4200221513695" lon="17.024852829613575"><ele>255.6</ele><time>2026-03-29T12:13:41.999Z</time></trkpt><trkpt lat="39.42012180478361" lon="17.024917576927585"><ele>255.0</ele><time>2026-03-29T12:13:43.999Z</time></trkpt><trkpt lat="39.420209345589186" lon="17.025012176818294"><ele>251.6</ele><time>2026-03-29T12:13:45.999Z</time></trkpt><trkpt lat="39.420289973442664" lon="17.025065344262313"><ele>248.2</ele><time>2026-03-29T12:13:47.999Z</time></trkpt><trkpt lat="39.42037239670524" lon="17.02511814199845"><ele>244.8</ele><time>2026-03-29T12:13:49.999Z</time></trkpt><trkpt lat="39.42047193221759" lon="17.025128116450162"><ele>241.4</ele><time>2026-03-29T12:13:51.999Z</time></trkpt><trkpt lat="39.42056048420829" lon="17.025182404353828"><ele>238.0</ele><time>2026-03-29T12:13:53.999Z</time></trkpt><trkpt lat="39.420610385238085" lon="17.025271107638645"><ele>235.60000000000002</ele><time>2026-03-29T12:13:55.999Z</time></trkpt><trkpt lat="39.42067019995922" lon="17.025369615876702"><ele>233.20000000000002</ele><time>2026-03-29T12:13:57.999Z</time></trkpt><trkpt lat="39.420734615906674" lon="17.02546251609409"><ele>230.8</ele><time>2026-03-29T12:13:59.999Z</time></trkpt><trkpt lat="39.42078438173218" lon="17.025618076486193"><ele>228.4</ele><time>2026-03-29T12:14:01.999Z</time></trkpt><trkpt lat="39.42082000454619" lon="17.025721869803217"><ele>226.0</ele><time>2026-03-29T12:14:02.999Z</time></trkpt><trkpt lat="39.42087785773161" lon="17.02581285712609"><ele>224.5</ele><time>2026-03-29T12:14:03.999Z</time></trkpt><trkpt lat="39.4209424295592" lon="17.025898230796432"><ele>223.0</ele><time>2026-03-29T12:14:04.999Z</time></trkpt><trkpt lat="39.421014298422655" lon="17.025995678188615"><ele>221.5</ele><time>2026-03-29T12:14:05.999Z</time></trkpt><trkpt lat="39.421104264013294" lon="17.026104608090368"><ele>220.0</ele><time>2026-03-29T12:14:06.999Z</time></trkpt><trkpt lat="39.42121534789045" lon="17.02622308899503"><ele>216.5</ele><time>2026-03-29T12:14:07.999Z</time></trkpt><trkpt lat="39.42133471850829" lon="17.02633970526895"><ele>213.0</ele><time>2026-03-29T12:14:08.999Z</time></trkpt><trkpt lat="39.42143887326812" lon="17.02645679182654"><ele>209.5</ele><time>2026-03-29T12:14:09.999Z</time></trkpt><trkpt lat="39.42154232630998" lon="17.026570169655812"><ele>206.0</ele><time>2026-03-29T12:14:10.999Z</time></trkpt><trkpt lat="39.42164715468393" lon="17.026685965405388"><ele>205.5</ele><time>2026-03-29T12:14:11.999Z</time></trkpt><trkpt lat="39.42175750658232" lon="17.026781241714616"><ele>205.0</ele><time>2026-03-29T12:14:12.999Z</time></trkpt><trkpt lat="39.421861215030106" lon="17.02687852466802"><ele>204.5</ele><time>2026-03-29T12:14:13.999Z</time></trkpt><trkpt lat="39.42196058180417" lon="17.026956898540604"><ele>204.0</ele><time>2026-03-29T12:14:14.999Z</time></trkpt><trkpt lat="39.4220547415743" lon="17.027021826278357"><ele>202.66666666666666</ele><time>2026-03-29T12:14:15.999Z</time></trkpt><trkpt lat="39.4221499712809" lon="17.027080416505694"><ele>201.33333333333331</ele><time>2026-03-29T12:14:16.999Z</time></trkpt><trkpt lat="39.42223196164638" lon="17.027140383474475"><ele>200.0</ele><time>2026-03-29T12:14:17.998Z</time></trkpt><trkpt lat="39.422300863165056" lon="17.027195173062374"><ele>198.66666666666666</ele><time>2026-03-29T12:14:18.998Z</time></trkpt><trkpt lat="39.422357439452405" lon="17.02725276256297"><ele>197.33333333333331</ele><time>2026-03-29T12:14:19.998Z</time></trkpt><trkpt lat="39.42239258177624" lon="17.02732812565557"><ele>196.0</ele><time>2026-03-29T12:14:20.998Z</time></trkpt><trkpt lat="39.42241773056514" lon="17.02742540294301"><ele>196.49999999999997</ele><time>2026-03-29T12:14:21.998Z</time></trkpt><trkpt lat="39.422435028228094" lon="17.02752503647071"><ele>197.0</ele><time>2026-03-29T12:14:22.998Z</time></trkpt><trkpt lat="39.4224490293699" lon="17.027627413530205"><ele>197.5</ele><time>2026-03-29T12:14:23.998Z</time></trkpt><trkpt lat="39.42246274723349" lon="17.027728386574587"><ele>198.0</ele><time>2026-03-29T12:14:24.998Z</time></trkpt><trkpt lat="39.42247493773749" lon="17.027828740398807"><ele>198.49999999999997</ele><time>2026-03-29T12:14:25.998Z</time></trkpt><trkpt lat="39.422483979639274" lon="17.02792507140147"><ele>199.0</ele><time>2026-03-29T12:14:26.998Z</time></trkpt><trkpt lat="39.422484447178675" lon="17.028021813964603"><ele>198.99999999999997</ele><time>2026-03-29T12:14:27.998Z</time></trkpt><trkpt lat="39.42248217351436" lon="17.02811854628549"><ele>199.0</ele><time>2026-03-29T12:14:28.998Z</time></trkpt><trkpt lat="39.42248469301533" lon="17.028214784386627"><ele>199.0</ele><time>2026-03-29T12:14:29.998Z</time></trkpt><trkpt lat="39.42249988442155" lon="17.02830416911207"><ele>199.0</ele><time>2026-03-29T12:14:30.998Z</time></trkpt><trkpt lat="39.42253941624243" lon="17.028384262667977"><ele>198.99999999999997</ele><time>2026-03-29T12:14:31.998Z</time></trkpt><trkpt lat="39.42262053546259" lon="17.028460750082488"><ele>199.0</ele><time>2026-03-29T12:14:32.998Z</time></trkpt><trkpt lat="39.422709509552355" lon="17.028542477657727"><ele>198.0</ele><time>2026-03-29T12:14:33.998Z</time></trkpt><trkpt lat="39.42279240666887" lon="17.028633153400012"><ele>197.0</ele><time>2026-03-29T12:14:34.998Z</time></trkpt><trkpt lat="39.42288854050581" lon="17.028709810241693"><ele>196.0</ele><time>2026-03-29T12:14:35.998Z</time></trkpt><trkpt lat="39.4229946473053" lon="17.028775520381405"><ele>195.0</ele><time>2026-03-29T12:14:36.998Z</time></trkpt><trkpt lat="39.423101356817426" lon="17.028836492406796"><ele>197.5</ele><time>2026-03-29T12:14:37.998Z</time></trkpt><trkpt lat="39.423200948778565" lon="17.028908686451448"><ele>200.0</ele><time>2026-03-29T12:14:38.998Z</time></trkpt><trkpt lat="39.423296887247304" lon="17.028995645356556"><ele>202.5</ele><time>2026-03-29T12:14:39.998Z</time></trkpt><trkpt lat="39.4233999672307" lon="17.029072425198283"><ele>205.0</ele><time>2026-03-29T12:14:40.998Z</time></trkpt><trkpt lat="39.423507446285605" lon="17.029115563772088"><ele>202.8</ele><time>2026-03-29T12:14:41.998Z</time></trkpt><trkpt lat="39.423603817973955" lon="17.02914766835608"><ele>200.6</ele><time>2026-03-29T12:14:42.998Z</time></trkpt><trkpt lat="39.423689047437314" lon="17.029167135419996"><ele>198.39999999999998</ele><time>2026-03-29T12:14:43.998Z</time></trkpt><trkpt lat="39.4237768607357" lon="17.02918480621133"><ele>196.2</ele><time>2026-03-29T12:14:44.998Z</time></trkpt><trkpt lat="39.42386681142656" lon="17.02921347460469"><ele>194.0</ele><time>2026-03-29T12:14:45.998Z</time></trkpt><trkpt lat="39.42394888794862" lon="17.029265172335407"><ele>193.2</ele><time>2026-03-29T12:14:46.998Z</time></trkpt><trkpt lat="39.424019852623715" lon="17.029341554396282"><ele>192.39999999999998</ele><time>2026-03-29T12:14:47.998Z</time></trkpt><trkpt lat="39.42407580780797" lon="17.029434192363738"><ele>191.6</ele><time>2026-03-29T12:14:48.998Z</time></trkpt><trkpt lat="39.42411289328837" lon="17.02954967874832"><ele>190.8</ele><time>2026-03-29T12:14:49.998Z</time></trkpt><trkpt lat="39.424155402617124" lon="17.029670093520064"><ele>190.0</ele><time>2026-03-29T12:14:50.998Z</time></trkpt><trkpt lat="39.42419822527615" lon="17.029799798593515"><ele>190.0</ele><time>2026-03-29T12:14:51.998Z</time></trkpt><trkpt lat="39.42425708654127" lon="17.02991950880892"><ele>190.0</ele><time>2026-03-29T12:14:52.998Z</time></trkpt><trkpt lat="39.42431843106812" lon="17.030037566832654"><ele>190.0</ele><time>2026-03-29T12:14:53.998Z</time></trkpt><trkpt lat="39.42438569353146" lon="17.030147738434934"><ele>190.0</ele><time>2026-03-29T12:14:54.998Z</time></trkpt><trkpt lat="39.4244777179351" lon="17.03024681380001"><ele>190.0</ele><time>2026-03-29T12:14:55.998Z</time></trkpt><trkpt lat="39.424599008002204" lon="17.03030785901079"><ele>184.0</ele><time>2026-03-29T12:14:56.998Z</time></trkpt><trkpt lat="39.42472718018602" lon="17.030355815099938"><ele>178.0</ele><time>2026-03-29T12:14:57.998Z</time></trkpt><trkpt lat="39.42488738301831" lon="17.030243776755565"><ele>172.0</ele><time>2026-03-29T12:14:58.998Z</time></trkpt><trkpt lat="39.42499189117223" lon="17.030291753253007"><ele>166.0</ele><time>2026-03-29T12:14:59.998Z</time></trkpt><trkpt lat="39.4250869949241" lon="17.030335412394557"><ele>166.0</ele><time>2026-03-29T12:15:00.998Z</time></trkpt><trkpt lat="39.425185423682436" lon="17.03038010126403"><ele>166.0</ele><time>2026-03-29T12:15:01.998Z</time></trkpt><trkpt lat="39.42528260043618" lon="17.030431343851653"><ele>166.0</ele><time>2026-03-29T12:15:02.998Z</time></trkpt><trkpt lat="39.42539146276808" lon="17.03050387157325"><ele>166.0</ele><time>2026-03-29T12:15:03.998Z</time></trkpt><trkpt lat="39.42551392868907" lon="17.030647385421716"><ele>166.75</ele><time>2026-03-29T12:15:04.998Z</time></trkpt><trkpt lat="39.4255759799971" lon="17.030786989708112"><ele>167.5</ele><time>2026-03-29T12:15:05.998Z</time></trkpt><trkpt lat="39.4256314302084" lon="17.030933703595426"><ele>168.25</ele><time>2026-03-29T12:15:06.998Z</time></trkpt><trkpt lat="39.42569672882497" lon="17.031096392534334"><ele>169.0</ele><time>2026-03-29T12:15:07.998Z</time></trkpt><trkpt lat="39.42575038086399" lon="17.031238416547716"><ele>169.0</ele><time>2026-03-29T12:15:08.998Z</time></trkpt><trkpt lat="39.42579371309409" lon="17.03138211085272"><ele>169.0</ele><time>2026-03-29T12:15:09.998Z</time></trkpt><trkpt lat="39.42585129968368" lon="17.031504775111394"><ele>169.0</ele><time>2026-03-29T12:15:10.998Z</time></trkpt><trkpt lat="39.42589245669649" lon="17.031630759703866"><ele>169.0</ele><time>2026-03-29T12:15:11.998Z</time></trkpt><trkpt lat="39.42592432512899" lon="17.03175015320391"><ele>169.0</ele><time>2026-03-29T12:15:12.998Z</time></trkpt><trkpt lat="39.42592548252448" lon="17.03187112531481"><ele>167.39999999999998</ele><time>2026-03-29T12:15:13.998Z</time></trkpt><trkpt lat="39.425942852721406" lon="17.031990034505508"><ele>165.8</ele><time>2026-03-29T12:15:14.998Z</time></trkpt><trkpt lat="39.42596355071405" lon="17.032110479434923"><ele>164.2</ele><time>2026-03-29T12:15:15.998Z</time></trkpt><trkpt lat="39.425991751932806" lon="17.032226502491568"><ele>162.60000000000002</ele><time>2026-03-29T12:15:16.998Z</time></trkpt><trkpt lat="39.42602460174915" lon="17.032330239951012"><ele>161.0</ele><time>2026-03-29T12:15:17.998Z</time></trkpt><trkpt lat="39.426056936511316" lon="17.032428138412396"><ele>160.66666666666666</ele><time>2026-03-29T12:15:18.998Z</time></trkpt><trkpt lat="39.426091545171474" lon="17.03253104824069"><ele>160.33333333333331</ele><time>2026-03-29T12:15:19.998Z</time></trkpt><trkpt lat="39.42613177211283" lon="17.03262033395503"><ele>160.0</ele><time>2026-03-29T12:15:20.998Z</time></trkpt><trkpt lat="39.42618647859224" lon="17.032692360534075"><ele>159.66666666666666</ele><time>2026-03-29T12:15:21.998Z</time></trkpt><trkpt lat="39.426253778471185" lon="17.032750018198108"><ele>159.33333333333334</ele><time>2026-03-29T12:15:22.998Z</time></trkpt><trkpt lat="39.42633763058294" lon="17.03279689501128"><ele>159.0</ele><time>2026-03-29T12:15:23.998Z</time></trkpt><trkpt lat="39.42644306896009" lon="17.032849692308545"><ele>159.0</ele><time>2026-03-29T12:15:24.998Z</time></trkpt><trkpt lat="39.42654751061501" lon="17.032901990500214"><ele>159.0</ele><time>2026-03-29T12:15:25.998Z</time></trkpt><trkpt lat="39.42664139874985" lon="17.03294659040456"><ele>159.0</ele><time>2026-03-29T12:15:26.998Z</time></trkpt><trkpt lat="39.42672529557241" lon="17.032959050847797"><ele>159.0</ele><time>2026-03-29T12:15:27.998Z</time></trkpt><trkpt lat="39.42679770569488" lon="17.03294893424866"><ele>159.0</ele><time>2026-03-29T12:15:28.998Z</time></trkpt><trkpt lat="39.42688792655592" lon="17.032935907543816"><ele>159.0</ele><time>2026-03-29T12:15:29.998Z</time></trkpt><trkpt lat="39.42697933087639" lon="17.03296527869509"><ele>159.0</ele><time>2026-03-29T12:15:30.998Z</time></trkpt><trkpt lat="39.427070432531785" lon="17.03299757179969"><ele>159.0</ele><time>2026-03-29T12:15:31.998Z</time></trkpt><trkpt lat="39.42716286137121" lon="17.033068177441304"><ele>159.0</ele><time>2026-03-29T12:15:32.998Z</time></trkpt><trkpt lat="39.427255795340635" lon="17.033138105238496"><ele>159.0</ele><time>2026-03-29T12:15:33.998Z</time></trkpt><trkpt lat="39.42734007835734" lon="17.033224807895685"><ele>152.8</ele><time>2026-03-29T12:15:34.998Z</time></trkpt><trkpt lat="39.42742195157127" lon="17.03331352827588"><ele>146.60000000000002</ele><time>2026-03-29T12:15:35.998Z</time></trkpt><trkpt lat="39.42749548274696" lon="17.03339644978593"><ele>140.4</ele><time>2026-03-29T12:15:36.998Z</time></trkpt><trkpt lat="39.42756361177685" lon="17.033468488164193"><ele>134.20000000000002</ele><time>2026-03-29T12:15:37.998Z</time></trkpt><trkpt lat="39.42758417617903" lon="17.033582983427188"><ele>128.0</ele><time>2026-03-29T12:15:38.998Z</time></trkpt><trkpt lat="39.427610226378484" lon="17.033717427474375"><ele>128.0</ele><time>2026-03-29T12:15:39.998Z</time></trkpt><trkpt lat="39.427639199007416" lon="17.033866954384777"><ele>128.0</ele><time>2026-03-29T12:15:40.998Z</time></trkpt><trkpt lat="39.42767169122636" lon="17.034029835625496"><ele>128.0</ele><time>2026-03-29T12:15:41.998Z</time></trkpt><trkpt lat="39.427709713866406" lon="17.03418886847953"><ele>128.0</ele><time>2026-03-29T12:15:42.998Z</time></trkpt><trkpt lat="39.42775515604927" lon="17.034328307675246"><ele>126.0</ele><time>2026-03-29T12:15:43.998Z</time></trkpt><trkpt lat="39.42777620386047" lon="17.034470814152666"><ele>124.00000000000001</ele><time>2026-03-29T12:15:44.998Z</time></trkpt><trkpt lat="39.42782556560384" lon="17.03458189041295"><ele>122.00000000000001</ele><time>2026-03-29T12:15:45.998Z</time></trkpt><trkpt lat="39.42787344363702" lon="17.034678927885203"><ele>120.0</ele><time>2026-03-29T12:15:46.998Z</time></trkpt><trkpt lat="39.42793024549626" lon="17.034752508970023"><ele>118.0</ele><time>2026-03-29T12:15:47.998Z</time></trkpt><trkpt lat="39.42800382463512" lon="17.03474382688027"><ele>117.00000000000001</ele><time>2026-03-29T12:15:48.998Z</time></trkpt><trkpt lat="39.42807618694732" lon="17.034768425432162"><ele>116.0</ele><time>2026-03-29T12:15:49.998Z</time></trkpt><trkpt lat="39.42815908041941" lon="17.034773510657182"><ele>115.0</ele><time>2026-03-29T12:15:50.998Z</time></trkpt><trkpt lat="39.428244358594974" lon="17.03481579990947"><ele>114.0</ele><time>2026-03-29T12:15:51.998Z</time></trkpt><trkpt lat="39.428306490718974" lon="17.034912338156563"><ele>113.00000000000001</ele><time>2026-03-29T12:15:52.998Z</time></trkpt><trkpt lat="39.428376099391045" lon="17.03500850224284"><ele>112.0</ele><time>2026-03-29T12:15:53.998Z</time></trkpt><trkpt lat="39.42843490752637" lon="17.035100661663712"><ele>112.0</ele><time>2026-03-29T12:15:54.998Z</time></trkpt><trkpt lat="39.4284580687604" lon="17.03519516499976"><ele>111.99999999999999</ele><time>2026-03-29T12:15:55.998Z</time></trkpt><trkpt lat="39.428469689445286" lon="17.035309105967798"><ele>111.99999999999999</ele><time>2026-03-29T12:15:56.998Z</time></trkpt><trkpt lat="39.428497771032546" lon="17.035447402875864"><ele>112.0</ele><time>2026-03-29T12:15:57.998Z</time></trkpt><trkpt lat="39.42854908479399" lon="17.03556353836474"><ele>112.0</ele><time>2026-03-29T12:15:58.998Z</time></trkpt><trkpt lat="39.4285816521717" lon="17.035666886887785"><ele>112.0</ele><time>2026-03-29T12:15:59.998Z</time></trkpt><trkpt lat="39.428586414387816" lon="17.035772189757914"><ele>111.99999999999999</ele><time>2026-03-29T12:16:00.998Z</time></trkpt><trkpt lat="39.42859296119745" lon="17.035891909525365"><ele>111.99999999999999</ele><time>2026-03-29T12:16:01.998Z</time></trkpt><trkpt lat="39.428599481719985" lon="17.03601114961635"><ele>112.0</ele><time>2026-03-29T12:16:02.998Z</time></trkpt><trkpt lat="39.42860863964649" lon="17.03611238463379"><ele>112.0</ele><time>2026-03-29T12:16:03.998Z</time></trkpt><trkpt lat="39.42855959131279" lon="17.036276664743852"><ele>111.39999999999999</ele><time>2026-03-29T12:16:05.998Z</time></trkpt><trkpt lat="39.4285082257891" lon="17.036394988071205"><ele>110.79999999999998</ele><time>2026-03-29T12:16:06.998Z</time></trkpt><trkpt lat="39.42851269789965" lon="17.036526960461362"><ele>110.2</ele><time>2026-03-29T12:16:07.998Z</time></trkpt><trkpt lat="39.42854939210389" lon="17.03662418702461"><ele>109.6</ele><time>2026-03-29T12:16:08.998Z</time></trkpt><trkpt lat="39.42859456410658" lon="17.036691329296055"><ele>109.0</ele><time>2026-03-29T12:16:09.998Z</time></trkpt><trkpt lat="39.42865776066878" lon="17.036806941313966"><ele>108.00000000000001</ele><time>2026-03-29T12:16:11.998Z</time></trkpt><trkpt lat="39.42870864313055" lon="17.036870284669178"><ele>107.0</ele><time>2026-03-29T12:16:14.998Z</time></trkpt><trkpt lat="39.428810362589374" lon="17.03694906075305"><ele>106.0</ele><time>2026-03-29T12:16:17.998Z</time></trkpt><trkpt lat="39.42885576865124" lon="17.037022290363087"><ele>105.0</ele><time>2026-03-29T12:16:18.998Z</time></trkpt><trkpt lat="39.42890181603874" lon="17.037108150032328"><ele>104.00000000000001</ele><time>2026-03-29T12:16:19.998Z</time></trkpt><trkpt lat="39.42891441696472" lon="17.037194355483493"><ele>103.0</ele><time>2026-03-29T12:16:20.998Z</time></trkpt><trkpt lat="39.428864429610606" lon="17.037268013945074"><ele>103.00000000000001</ele><time>2026-03-29T12:16:22.998Z</time></trkpt><trkpt lat="39.42878853035093" lon="17.03731906083419"><ele>103.0</ele><time>2026-03-29T12:16:23.998Z</time></trkpt><trkpt lat="39.42876483719641" lon="17.037405163554865"><ele>103.0</ele><time>2026-03-29T12:16:24.998Z</time></trkpt><trkpt lat="39.428766965289896" lon="17.03751967981378"><ele>103.0</ele><time>2026-03-29T12:16:25.998Z</time></trkpt><trkpt lat="39.428811688824055" lon="17.037615743991736"><ele>103.00000000000001</ele><time>2026-03-29T12:16:26.998Z</time></trkpt><trkpt lat="39.428889543283866" lon="17.037702986411027"><ele>103.0</ele><time>2026-03-29T12:16:27.998Z</time></trkpt><trkpt lat="39.428984466718696" lon="17.03780954323013"><ele>100.5</ele><time>2026-03-29T12:16:28.998Z</time></trkpt><trkpt lat="39.429095279687466" lon="17.037901281803713"><ele>98.0</ele><time>2026-03-29T12:16:29.998Z</time></trkpt><trkpt lat="39.4292110206886" lon="17.037961497889594"><ele>95.5</ele><time>2026-03-29T12:16:30.998Z</time></trkpt><trkpt lat="39.42932968729111" lon="17.03801038081659"><ele>93.0</ele><time>2026-03-29T12:16:31.998Z</time></trkpt><trkpt lat="39.429447260649646" lon="17.038058813487122"><ele>93.0</ele><time>2026-03-29T12:16:32.998Z</time></trkpt><trkpt lat="39.42955775565348" lon="17.03810001238993"><ele>93.0</ele><time>2026-03-29T12:16:33.998Z</time></trkpt><trkpt lat="39.429655265286996" lon="17.03812387276919"><ele>93.0</ele><time>2026-03-29T12:16:34.998Z</time></trkpt><trkpt lat="39.429744629596" lon="17.038162004995534"><ele>93.0</ele><time>2026-03-29T12:16:35.998Z</time></trkpt><trkpt lat="39.42981567642316" lon="17.03825917018231"><ele>93.0</ele><time>2026-03-29T12:16:36.998Z</time></trkpt><trkpt lat="39.42988082023781" lon="17.038356157935137"><ele>90.0</ele><time>2026-03-29T12:16:37.998Z</time></trkpt><trkpt lat="39.429942690075144" lon="17.038461224033366"><ele>87.0</ele><time>2026-03-29T12:16:38.998Z</time></trkpt><trkpt lat="39.429994824500575" lon="17.038577835739005"><ele>84.0</ele><time>2026-03-29T12:16:39.998Z</time></trkpt><trkpt lat="39.43003444031719" lon="17.038708249354702"><ele>81.0</ele><time>2026-03-29T12:16:40.998Z</time></trkpt><trkpt lat="39.430068303919235" lon="17.03884206147722"><ele>78.0</ele><time>2026-03-29T12:16:41.998Z</time></trkpt><trkpt lat="39.430104587314716" lon="17.03896921242593"><ele>78.0</ele><time>2026-03-29T12:16:42.998Z</time></trkpt><trkpt lat="39.43012707806097" lon="17.03911384444036"><ele>78.0</ele><time>2026-03-29T12:16:43.998Z</time></trkpt><trkpt lat="39.430146542025994" lon="17.03925354757412"><ele>78.0</ele><time>2026-03-29T12:16:44.998Z</time></trkpt><trkpt lat="39.43015991369868" lon="17.039381964443567"><ele>78.0</ele><time>2026-03-29T12:16:45.998Z</time></trkpt><trkpt lat="39.43016728269358" lon="17.039487890744077"><ele>78.0</ele><time>2026-03-29T12:16:46.998Z</time></trkpt><trkpt lat="39.43014184458157" lon="17.039589780221498"><ele>78.5</ele><time>2026-03-29T12:16:47.998Z</time></trkpt><trkpt lat="39.430161637285664" lon="17.03970058875251"><ele>79.0</ele><time>2026-03-29T12:16:48.998Z</time></trkpt><trkpt lat="39.43023710531428" lon="17.03980011905882"><ele>79.5</ele><time>2026-03-29T12:16:49.998Z</time></trkpt><trkpt lat="39.43031731445688" lon="17.039847320269743"><ele>80.0</ele><time>2026-03-29T12:16:50.998Z</time></trkpt><trkpt lat="39.43039074086837" lon="17.03989052964863"><ele>80.5</ele><time>2026-03-29T12:16:51.998Z</time></trkpt><trkpt lat="39.43046223782661" lon="17.039932603569586"><ele>81.0</ele><time>2026-03-29T12:16:52.998Z</time></trkpt><trkpt lat="39.43052790455933" lon="17.0399722035835"><ele>80.6</ele><time>2026-03-29T12:16:53.998Z</time></trkpt><trkpt lat="39.43049064783666" lon="17.04016647241124"><ele>80.19999999999999</ele><time>2026-03-29T12:16:54.998Z</time></trkpt><trkpt lat="39.43055123094189" lon="17.040192647476104"><ele>79.80000000000001</ele><time>2026-03-29T12:16:55.998Z</time></trkpt><trkpt lat="39.43046863775353" lon="17.040306607694447"><ele>79.4</ele><time>2026-03-29T12:16:57.998Z</time></trkpt><trkpt lat="39.4304211939449" lon="17.040389777681636"><ele>79.0</ele><time>2026-03-29T12:16:58.998Z</time></trkpt><trkpt lat="39.43037580736832" lon="17.040493271293972"><ele>79.0</ele><time>2026-03-29T12:16:59.998Z</time></trkpt><trkpt lat="39.43033950379585" lon="17.040607607351976"><ele>79.0</ele><time>2026-03-29T12:17:00.998Z</time></trkpt><trkpt lat="39.430343205422105" lon="17.040729211890174"><ele>79.0</ele><time>2026-03-29T12:17:01.998Z</time></trkpt><trkpt lat="39.43033009406135" lon="17.040839440838624"><ele>79.0</ele><time>2026-03-29T12:17:02.998Z</time></trkpt><trkpt lat="39.43032348284024" lon="17.040954042637495"><ele>79.0</ele><time>2026-03-29T12:17:03.998Z</time></trkpt><trkpt lat="39.430306442971606" lon="17.041058110249512"><ele>79.0</ele><time>2026-03-29T12:17:04.998Z</time></trkpt><trkpt lat="39.43029531419033" lon="17.04115059054201"><ele>78.83333333333333</ele><time>2026-03-29T12:17:05.998Z</time></trkpt><trkpt lat="39.430278077020795" lon="17.04123067227122"><ele>78.66666666666666</ele><time>2026-03-29T12:17:06.998Z</time></trkpt><trkpt lat="39.430250465823704" lon="17.04136946059325"><ele>78.5</ele><time>2026-03-29T12:17:08.998Z</time></trkpt><trkpt lat="39.430200188408" lon="17.04148102169362"><ele>78.33333333333333</ele><time>2026-03-29T12:17:10.998Z</time></trkpt><trkpt lat="39.43016944646751" lon="17.04160023135585"><ele>78.16666666666667</ele><time>2026-03-29T12:17:12.998Z</time></trkpt><trkpt lat="39.430147197417156" lon="17.041679657524504"><ele>78.0</ele><time>2026-03-29T12:17:14.998Z</time></trkpt><trkpt lat="39.4300842037855" lon="17.04173433029632"><ele>77.83333333333333</ele><time>2026-03-29T12:17:16.998Z</time></trkpt><trkpt lat="39.430055305827544" lon="17.041848770271237"><ele>77.66666666666667</ele><time>2026-03-29T12:17:18.998Z</time></trkpt><trkpt lat="39.43003454429794" lon="17.041933610774656"><ele>77.5</ele><time>2026-03-29T12:17:19.998Z</time></trkpt><trkpt lat="39.43001573800437" lon="17.042034576754453"><ele>77.33333333333334</ele><time>2026-03-29T12:17:20.998Z</time></trkpt><trkpt lat="39.43000210624533" lon="17.04213766383043"><ele>77.16666666666667</ele><time>2026-03-29T12:17:21.998Z</time></trkpt><trkpt lat="39.429991829926344" lon="17.04223618014979"><ele>77.0</ele><time>2026-03-29T12:17:22.998Z</time></trkpt><trkpt lat="39.42998135786772" lon="17.04233657289344"><ele>77.0</ele><time>2026-03-29T12:17:23.998Z</time></trkpt><trkpt lat="39.42997060767702" lon="17.042439632249405"><ele>77.0</ele><time>2026-03-29T12:17:24.998Z</time></trkpt><trkpt lat="39.42997478021425" lon="17.042547562832826"><ele>77.0</ele><time>2026-03-29T12:17:25.997Z</time></trkpt><trkpt lat="39.429959845890004" lon="17.042658472335717"><ele>77.0</ele><time>2026-03-29T12:17:26.997Z</time></trkpt><trkpt lat="39.429949927963044" lon="17.042768233554497"><ele>77.0</ele><time>2026-03-29T12:17:27.997Z</time></trkpt><trkpt lat="39.429948653727955" lon="17.042882874156565"><ele>77.0</ele><time>2026-03-29T12:17:28.997Z</time></trkpt><trkpt lat="39.4299512520633" lon="17.043014670325487"><ele>77.0</ele><time>2026-03-29T12:17:29.997Z</time></trkpt><trkpt lat="39.429971790810576" lon="17.043134916417653"><ele>77.0</ele><time>2026-03-29T12:17:30.997Z</time></trkpt><trkpt lat="39.42998067378146" lon="17.04326930236652"><ele>77.0</ele><time>2026-03-29T12:17:31.997Z</time></trkpt><trkpt lat="39.430029691553486" lon="17.043396365007496"><ele>77.0</ele><time>2026-03-29T12:17:32.997Z</time></trkpt><trkpt lat="39.43009463518652" lon="17.043516120339202"><ele>77.0</ele><time>2026-03-29T12:17:33.997Z</time></trkpt><trkpt lat="39.43016542751677" lon="17.043626648299156"><ele>76.2</ele><time>2026-03-29T12:17:34.997Z</time></trkpt><trkpt lat="39.43023403094309" lon="17.043733127135127"><ele>75.4</ele><time>2026-03-29T12:17:35.997Z</time></trkpt><trkpt lat="39.430297544153824" lon="17.043834703729438"><ele>74.6</ele><time>2026-03-29T12:17:36.997Z</time></trkpt><trkpt lat="39.43035340903378" lon="17.04392404813026"><ele>73.8</ele><time>2026-03-29T12:17:37.997Z</time></trkpt><trkpt lat="39.43041593738941" lon="17.043996116129364"><ele>73.0</ele><time>2026-03-29T12:17:38.997Z</time></trkpt><trkpt lat="39.430446339481854" lon="17.044109043305475"><ele>72.4</ele><time>2026-03-29T12:17:39.997Z</time></trkpt><trkpt lat="39.43048703163398" lon="17.04422911511069"><ele>71.8</ele><time>2026-03-29T12:17:40.997Z</time></trkpt><trkpt lat="39.43052727461001" lon="17.044347754914373"><ele>71.2</ele><time>2026-03-29T12:17:41.997Z</time></trkpt><trkpt lat="39.43057072429696" lon="17.044461952955565"><ele>70.6</ele><time>2026-03-29T12:17:42.997Z</time></trkpt><trkpt lat="39.43061020414184" lon="17.044559801653055"><ele>70.0</ele><time>2026-03-29T12:17:43.997Z</time></trkpt><trkpt lat="39.43064278098437" lon="17.044645041820605"><ele>70.0</ele><time>2026-03-29T12:17:44.997Z</time></trkpt><trkpt lat="39.43074087797617" lon="17.044744444692775"><ele>70.0</ele><time>2026-03-29T12:17:46.997Z</time></trkpt><trkpt lat="39.43081721150117" lon="17.04477695564931"><ele>70.0</ele><time>2026-03-29T12:17:47.997Z</time></trkpt><trkpt lat="39.43091107555121" lon="17.044796752705782"><ele>70.0</ele><time>2026-03-29T12:17:48.999Z</time></trkpt><trkpt lat="39.43100427744346" lon="17.044836292320912"><ele>70.0</ele><time>2026-03-29T12:17:49.999Z</time></trkpt><trkpt lat="39.43110380529369" lon="17.044853287939755"><ele>70.0</ele><time>2026-03-29T12:17:50.999Z</time></trkpt><trkpt lat="39.43120202709344" lon="17.044899711341237"><ele>70.0</ele><time>2026-03-29T12:17:51.999Z</time></trkpt><trkpt lat="39.43131222836784" lon="17.044928902772934"><ele>70.0</ele><time>2026-03-29T12:17:52.999Z</time></trkpt><trkpt lat="39.43142830838198" lon="17.044958423558604"><ele>70.0</ele><time>2026-03-29T12:17:53.999Z</time></trkpt><trkpt lat="39.43154487460387" lon="17.04497345386617"><ele>69.0</ele><time>2026-03-29T12:17:54.999Z</time></trkpt><trkpt lat="39.431649241993725" lon="17.045000386886716"><ele>68.0</ele><time>2026-03-29T12:17:55.999Z</time></trkpt><trkpt lat="39.43174087866388" lon="17.045020461296744"><ele>67.0</ele><time>2026-03-29T12:17:56.999Z</time></trkpt><trkpt lat="39.43180827412239" lon="17.04506723579944"><ele>66.0</ele><time>2026-03-29T12:17:57.999Z</time></trkpt><trkpt lat="39.43186806308608" lon="17.045132619681024"><ele>65.0</ele><time>2026-03-29T12:17:58.999Z</time></trkpt><trkpt lat="39.43193940559198" lon="17.045225949102264"><ele>65.0</ele><time>2026-03-29T12:18:00Z</time></trkpt><trkpt lat="39.43200258936871" lon="17.045363167402574"><ele>65.0</ele><time>2026-03-29T12:18:01Z</time></trkpt><trkpt lat="39.432085891105146" lon="17.04547191284056"><ele>65.0</ele><time>2026-03-29T12:18:02Z</time></trkpt><trkpt lat="39.43215815570174" lon="17.04557282100397"><ele>65.0</ele><time>2026-03-29T12:18:03Z</time></trkpt><trkpt lat="39.432223247912866" lon="17.045671630566325"><ele>65.0</ele><time>2026-03-29T12:18:04Z</time></trkpt><trkpt lat="39.4322760501372" lon="17.045780963365218"><ele>63.6</ele><time>2026-03-29T12:18:05Z</time></trkpt><trkpt lat="39.43234947275454" lon="17.045862537297086"><ele>62.2</ele><time>2026-03-29T12:18:06Z</time></trkpt><trkpt lat="39.432406933501724" lon="17.045962078455254"><ele>60.8</ele><time>2026-03-29T12:18:07Z</time></trkpt><trkpt lat="39.43244827053758" lon="17.046078592119315"><ele>59.4</ele><time>2026-03-29T12:18:08Z</time></trkpt><trkpt lat="39.432513888696406" lon="17.046180583155678"><ele>58.0</ele><time>2026-03-29T12:18:09Z</time></trkpt><trkpt lat="39.43256774485762" lon="17.046296828977912"><ele>57.99999999999999</ele><time>2026-03-29T12:18:10Z</time></trkpt><trkpt lat="39.432630164529016" lon="17.046401246023127"><ele>58.0</ele><time>2026-03-29T12:18:11Z</time></trkpt><trkpt lat="39.43270244839615" lon="17.046482386975725"><ele>58.0</ele><time>2026-03-29T12:18:12Z</time></trkpt><trkpt lat="39.43276145650506" lon="17.046571134709065"><ele>58.0</ele><time>2026-03-29T12:18:13Z</time></trkpt><trkpt lat="39.432819628456045" lon="17.04664055770571"><ele>57.99999999999999</ele><time>2026-03-29T12:18:14Z</time></trkpt><trkpt lat="39.43287735447458" lon="17.046705915782187"><ele>58.0</ele><time>2026-03-29T12:18:15Z</time></trkpt><trkpt lat="39.43294029784673" lon="17.046774335702054"><ele>57.0</ele><time>2026-03-29T12:18:16Z</time></trkpt><trkpt lat="39.43302009163097" lon="17.04683188102421"><ele>56.0</ele><time>2026-03-29T12:18:17Z</time></trkpt><trkpt lat="39.433093582495445" lon="17.046912248795632"><ele>55.0</ele><time>2026-03-29T12:18:18Z</time></trkpt><trkpt lat="39.43315907623231" lon="17.047009783866493"><ele>54.0</ele><time>2026-03-29T12:18:19Z</time></trkpt><trkpt lat="39.43324957081582" lon="17.047076296284725"><ele>53.0</ele><time>2026-03-29T12:18:20Z</time></trkpt><trkpt lat="39.433327998939255" lon="17.04716210781826"><ele>53.0</ele><time>2026-03-29T12:18:21Z</time></trkpt><trkpt lat="39.433406704676905" lon="17.047233389222306"><ele>53.0</ele><time>2026-03-29T12:18:22Z</time></trkpt><trkpt lat="39.433489015020555" lon="17.047290778531718"><ele>53.0</ele><time>2026-03-29T12:18:23Z</time></trkpt><trkpt lat="39.43357478892684" lon="17.047339611609203"><ele>53.0</ele><time>2026-03-29T12:18:24Z</time></trkpt><trkpt lat="39.43366960154681" lon="17.047379396640462"><ele>53.0</ele><time>2026-03-29T12:18:25Z</time></trkpt><trkpt lat="39.433759708170136" lon="17.047408314629703"><ele>53.16666666666667</ele><time>2026-03-29T12:18:26Z</time></trkpt><trkpt lat="39.43383785750589" lon="17.04743927118007"><ele>53.333333333333336</ele><time>2026-03-29T12:18:27Z</time></trkpt><trkpt lat="39.43390113184758" lon="17.047478140090618"><ele>53.5</ele><time>2026-03-29T12:18:28Z</time></trkpt><trkpt lat="39.43399073646071" lon="17.047556313527014"><ele>53.66666666666667</ele><time>2026-03-29T12:18:30Z</time></trkpt><trkpt lat="39.43404431025316" lon="17.047661761719286"><ele>53.833333333333336</ele><time>2026-03-29T12:18:32Z</time></trkpt><trkpt lat="39.434082741050716" lon="17.04776248822653"><ele>54.0</ele><time>2026-03-29T12:18:34Z</time></trkpt><trkpt lat="39.43409803696407" lon="17.04784703699015"><ele>54.0</ele><time>2026-03-29T12:18:35Z</time></trkpt><trkpt lat="39.4340919583704" lon="17.047938657311"><ele>54.0</ele><time>2026-03-29T12:18:36Z</time></trkpt><trkpt lat="39.434061454320954" lon="17.048027633260112"><ele>54.0</ele><time>2026-03-29T12:18:37Z</time></trkpt><trkpt lat="39.434049917371674" lon="17.04813654581912"><ele>54.0</ele><time>2026-03-29T12:18:38Z</time></trkpt><trkpt lat="39.43407204229771" lon="17.048236578740703"><ele>54.0</ele><time>2026-03-29T12:18:39Z</time></trkpt><trkpt lat="39.434116801975065" lon="17.048319201211317"><ele>54.0</ele><time>2026-03-29T12:18:40Z</time></trkpt><trkpt lat="39.43415835648546" lon="17.0483862190138"><ele>54.2</ele><time>2026-03-29T12:18:41Z</time></trkpt><trkpt lat="39.434205404428454" lon="17.048463868741734"><ele>54.400000000000006</ele><time>2026-03-29T12:18:42Z</time></trkpt><trkpt lat="39.434256791538594" lon="17.04854959136278"><ele>54.6</ele><time>2026-03-29T12:18:43Z</time></trkpt><trkpt lat="39.43431081605351" lon="17.048641991726267"><ele>54.8</ele><time>2026-03-29T12:18:44Z</time></trkpt><trkpt lat="39.43437422409705" lon="17.048744388398145"><ele>55.0</ele><time>2026-03-29T12:18:45Z</time></trkpt><trkpt lat="39.43444590759109" lon="17.048858071624714"><ele>55.0</ele><time>2026-03-29T12:18:46Z</time></trkpt><trkpt lat="39.434521762691226" lon="17.048978370940386"><ele>55.0</ele><time>2026-03-29T12:18:47Z</time></trkpt><trkpt lat="39.43459127556288" lon="17.04909007614266"><ele>55.0</ele><time>2026-03-29T12:18:48Z</time></trkpt><trkpt lat="39.434658657982524" lon="17.049198950302216"><ele>55.0</ele><time>2026-03-29T12:18:49Z</time></trkpt><trkpt lat="39.434727699966885" lon="17.04930576286697"><ele>55.0</ele><time>2026-03-29T12:18:50Z</time></trkpt><trkpt lat="39.434791500416324" lon="17.049407302255798"><ele>52.4</ele><time>2026-03-29T12:18:51Z</time></trkpt><trkpt lat="39.43485864027996" lon="17.04949970400421"><ele>49.8</ele><time>2026-03-29T12:18:52Z</time></trkpt><trkpt lat="39.434904782326385" lon="17.049607271681428"><ele>47.2</ele><time>2026-03-29T12:18:53Z</time></trkpt><trkpt lat="39.43495388895268" lon="17.049722476227405"><ele>44.6</ele><time>2026-03-29T12:18:54Z</time></trkpt><trkpt lat="39.43501450682744" lon="17.049832942061606"><ele>42.0</ele><time>2026-03-29T12:18:55Z</time></trkpt><trkpt lat="39.43508196803383" lon="17.04993269053586"><ele>42.25</ele><time>2026-03-29T12:18:56Z</time></trkpt><trkpt lat="39.43517585918025" lon="17.05000115167166"><ele>42.5</ele><time>2026-03-29T12:18:57Z</time></trkpt><trkpt lat="39.43529283028429" lon="17.050039222966173"><ele>42.75</ele><time>2026-03-29T12:18:58Z</time></trkpt><trkpt lat="39.435404054451304" lon="17.050101790281637"><ele>43.0</ele><time>2026-03-29T12:18:59Z</time></trkpt><trkpt lat="39.43551175837571" lon="17.050155228209977"><ele>38.5</ele><time>2026-03-29T12:19:00Z</time></trkpt><trkpt lat="39.43561976654613" lon="17.05021060488195"><ele>34.0</ele><time>2026-03-29T12:19:01Z</time></trkpt><trkpt lat="39.43573240335466" lon="17.050258712159188"><ele>29.5</ele><time>2026-03-29T12:19:02Z</time></trkpt><trkpt lat="39.43584401644667" lon="17.050344172429156"><ele>25.0</ele><time>2026-03-29T12:19:03Z</time></trkpt><trkpt lat="39.43597216012628" lon="17.05040171978318"><ele>25.0</ele><time>2026-03-29T12:19:04Z</time></trkpt><trkpt lat="39.43609906041152" lon="17.050442939919467"><ele>25.0</ele><time>2026-03-29T12:19:05Z</time></trkpt><trkpt lat="39.436202521622036" lon="17.050534431921665"><ele>25.0</ele><time>2026-03-29T12:19:06Z</time></trkpt><trkpt lat="39.436312463377256" lon="17.050609557510754"><ele>25.0</ele><time>2026-03-29T12:19:07Z</time></trkpt><trkpt lat="39.43642498819038" lon="17.050686448158665"><ele>23.75</ele><time>2026-03-29T12:19:08Z</time></trkpt><trkpt lat="39.43654183014665" lon="17.05076231407122"><ele>22.5</ele><time>2026-03-29T12:19:09Z</time></trkpt><trkpt lat="39.43664980899868" lon="17.050860139705634"><ele>21.25</ele><time>2026-03-29T12:19:10Z</time></trkpt><trkpt lat="39.43675345162343" lon="17.05094750253065"><ele>20.0</ele><time>2026-03-29T12:19:11Z</time></trkpt><trkpt lat="39.43685186021911" lon="17.051021510982114"><ele>20.0</ele><time>2026-03-29T12:19:12Z</time></trkpt><trkpt lat="39.43692195115131" lon="17.051136011516448"><ele>20.0</ele><time>2026-03-29T12:19:13Z</time></trkpt><trkpt lat="39.43700357247163" lon="17.051188521542176"><ele>20.0</ele><time>2026-03-29T12:19:14Z</time></trkpt><trkpt lat="39.4370816496601" lon="17.051229333338508"><ele>20.0</ele><time>2026-03-29T12:19:15Z</time></trkpt><trkpt lat="39.43716768613221" lon="17.051271719953697"><ele>20.0</ele><time>2026-03-29T12:19:16Z</time></trkpt><trkpt lat="39.43726014665552" lon="17.051317270013147"><ele>19.666666666666668</ele><time>2026-03-29T12:19:17Z</time></trkpt><trkpt lat="39.4373547730566" lon="17.051363886971107"><ele>19.333333333333336</ele><time>2026-03-29T12:19:18Z</time></trkpt><trkpt lat="39.43743928823046" lon="17.051405522748034"><ele>19.0</ele><time>2026-03-29T12:19:19Z</time></trkpt><trkpt lat="39.4375196917244" lon="17.05142391586952"><ele>18.666666666666668</ele><time>2026-03-29T12:19:20Z</time></trkpt><trkpt lat="39.437586174379305" lon="17.05148104319892"><ele>18.333333333333332</ele><time>2026-03-29T12:19:21Z</time></trkpt><trkpt lat="39.437651641546985" lon="17.051523363819296"><ele>18.0</ele><time>2026-03-29T12:19:22Z</time></trkpt><trkpt lat="39.43771025374506" lon="17.051564121324624"><ele>17.8</ele><time>2026-03-29T12:19:23Z</time></trkpt><trkpt lat="39.43777030012947" lon="17.051629707836707"><ele>17.6</ele><time>2026-03-29T12:19:25Z</time></trkpt><trkpt lat="39.437809702529" lon="17.051700274760368"><ele>17.4</ele><time>2026-03-29T12:19:35.999Z</time></trkpt><trkpt lat="39.437845940986115" lon="17.051861703354227"><ele>17.2</ele><time>2026-03-29T12:19:41.999Z</time></trkpt><trkpt lat="39.43774685858668" lon="17.051971791364384"><ele>17.0</ele><time>2026-03-29T12:19:43.999Z</time></trkpt><trkpt lat="39.43769065606598" lon="17.052037193635407"><ele>17.0</ele><time>2026-03-29T12:19:44.999Z</time></trkpt><trkpt lat="39.437636463246676" lon="17.05210281998417"><ele>17.0</ele><time>2026-03-29T12:19:45.999Z</time></trkpt><trkpt lat="39.437587067832524" lon="17.052166506523754"><ele>17.0</ele><time>2026-03-29T12:19:46.999Z</time></trkpt><trkpt lat="39.43754193376862" lon="17.052227223356972"><ele>17.0</ele><time>2026-03-29T12:19:47.999Z</time></trkpt><trkpt lat="39.437464422264476" lon="17.052334004744438"><ele>17.0</ele><time>2026-03-29T12:19:49.999Z</time></trkpt><trkpt lat="39.43739929293339" lon="17.052429590477928"><ele>17.0</ele><time>2026-03-29T12:19:51.999Z</time></trkpt><trkpt lat="39.43735538773263" lon="17.05249419828999"><ele>16.5</ele><time>2026-03-29T12:19:52.999Z</time></trkpt><trkpt lat="39.43730062885783" lon="17.052574777756977"><ele>16.0</ele><time>2026-03-29T12:19:53.999Z</time></trkpt><trkpt lat="39.43724412216339" lon="17.052655368873268"><ele>15.5</ele><time>2026-03-29T12:19:54.999Z</time></trkpt><trkpt lat="39.437218031454655" lon="17.052759168641916"><ele>15.0</ele><time>2026-03-29T12:19:55.999Z</time></trkpt><trkpt lat="39.43718553305344" lon="17.052845895851537"><ele>14.500000000000002</ele><time>2026-03-29T12:19:56.999Z</time></trkpt><trkpt lat="39.43714700697672" lon="17.052926120147966"><ele>14.0</ele><time>2026-03-29T12:19:57.999Z</time></trkpt><trkpt lat="39.437103402155685" lon="17.052995806250433"><ele>14.500000000000002</ele><time>2026-03-29T12:19:58.999Z</time></trkpt><trkpt lat="39.437061959611775" lon="17.05306410857548"><ele>15.0</ele><time>2026-03-29T12:19:59.999Z</time></trkpt><trkpt lat="39.43702293960252" lon="17.053128617098775"><ele>15.5</ele><time>2026-03-29T12:20:00.999Z</time></trkpt><trkpt lat="39.43694137071059" lon="17.05323845983902"><ele>16.0</ele><time>2026-03-29T12:20:02.999Z</time></trkpt><trkpt lat="39.43686768297658" lon="17.053335052333313"><ele>16.5</ele><time>2026-03-29T12:20:04.999Z</time></trkpt><trkpt lat="39.43680015371859" lon="17.053396879818415"><ele>17.0</ele><time>2026-03-29T12:20:07.999Z</time></trkpt><trkpt lat="39.43674444478281" lon="17.0534526578558"><ele>17.0</ele><time>2026-03-29T12:20:10.999Z</time></trkpt><trkpt lat="39.43669027778732" lon="17.053526728573537"><ele>17.0</ele><time>2026-03-29T12:20:12.999Z</time></trkpt><trkpt lat="39.43662163199653" lon="17.05364717981868"><ele>17.0</ele><time>2026-03-29T12:20:14.999Z</time></trkpt><trkpt lat="39.4365659248224" lon="17.053715669461994"><ele>17.0</ele><time>2026-03-29T12:20:15.999Z</time></trkpt><trkpt lat="39.436502985931874" lon="17.05378134718118"><ele>17.0</ele><time>2026-03-29T12:20:16.999Z</time></trkpt><trkpt lat="39.43643342840819" lon="17.053838130662534"><ele>17.0</ele><time>2026-03-29T12:20:17.999Z</time></trkpt><trkpt lat="39.436351946570475" lon="17.053901296092846"><ele>16.8</ele><time>2026-03-29T12:20:18.999Z</time></trkpt><trkpt lat="39.43626542193678" lon="17.05397634459938"><ele>16.6</ele><time>2026-03-29T12:20:19.999Z</time></trkpt><trkpt lat="39.43617538193155" lon="17.054057032029284"><ele>16.400000000000002</ele><time>2026-03-29T12:20:20.999Z</time></trkpt><trkpt lat="39.43608480588134" lon="17.054139462498267"><ele>16.2</ele><time>2026-03-29T12:20:21.999Z</time></trkpt><trkpt lat="39.43599069769174" lon="17.05422905845798"><ele>16.0</ele><time>2026-03-29T12:20:22.999Z</time></trkpt><trkpt lat="39.43589801775908" lon="17.054319152315408"><ele>16.0</ele><time>2026-03-29T12:20:23.999Z</time></trkpt><trkpt lat="39.43581022929557" lon="17.05440951710189"><ele>16.0</ele><time>2026-03-29T12:20:24.999Z</time></trkpt><trkpt lat="39.435728129921785" lon="17.05450436327058"><ele>16.0</ele><time>2026-03-29T12:20:25.999Z</time></trkpt><trkpt lat="39.43564521735953" lon="17.054597923830666"><ele>16.0</ele><time>2026-03-29T12:20:26.999Z</time></trkpt><trkpt lat="39.435571443340095" lon="17.054693288039623"><ele>16.0</ele><time>2026-03-29T12:20:27.999Z</time></trkpt><trkpt lat="39.435499833346874" lon="17.054785055520636"><ele>15.600000000000001</ele><time>2026-03-29T12:20:28.999Z</time></trkpt><trkpt lat="39.435427401426494" lon="17.054875324236583"><ele>15.200000000000001</ele><time>2026-03-29T12:20:29.999Z</time></trkpt><trkpt lat="39.43536043606949" lon="17.05496721025305"><ele>14.799999999999999</ele><time>2026-03-29T12:20:30.999Z</time></trkpt><trkpt lat="39.43529405450034" lon="17.055050823279462"><ele>14.399999999999999</ele><time>2026-03-29T12:20:31.999Z</time></trkpt><trkpt lat="39.43522729555799" lon="17.055129120099206"><ele>14.0</ele><time>2026-03-29T12:20:32.999Z</time></trkpt><trkpt lat="39.435159607737326" lon="17.055211272185353"><ele>14.0</ele><time>2026-03-29T12:20:33.999Z</time></trkpt><trkpt lat="39.43509155602226" lon="17.05529514705383"><ele>13.999999999999998</ele><time>2026-03-29T12:20:34.999Z</time></trkpt><trkpt lat="39.43502504540832" lon="17.05537823432085"><ele>13.999999999999998</ele><time>2026-03-29T12:20:35.999Z</time></trkpt><trkpt lat="39.43496258036585" lon="17.05546161147566"><ele>14.0</ele><time>2026-03-29T12:20:36.999Z</time></trkpt><trkpt lat="39.43489677635271" lon="17.055542464903706"><ele>14.0</ele><time>2026-03-29T12:20:37.999Z</time></trkpt><trkpt lat="39.43482428069792" lon="17.055616869555724"><ele>14.0</ele><time>2026-03-29T12:20:38.999Z</time></trkpt><trkpt lat="39.43475105686704" lon="17.055702341361425"><ele>13.999999999999998</ele><time>2026-03-29T12:20:39.999Z</time></trkpt><trkpt lat="39.434678413338496" lon="17.0557913582821"><ele>13.999999999999998</ele><time>2026-03-29T12:20:40.999Z</time></trkpt><trkpt lat="39.43460939624885" lon="17.055878060619126"><ele>14.0</ele><time>2026-03-29T12:20:41.999Z</time></trkpt><trkpt lat="39.434537453418564" lon="17.055952544362523"><ele>14.0</ele><time>2026-03-29T12:20:42.999Z</time></trkpt><trkpt lat="39.43446280729271" lon="17.056019645687705"><ele>13.2</ele><time>2026-03-29T12:20:43.999Z</time></trkpt><trkpt lat="39.4343803406271" lon="17.05607469753414"><ele>12.399999999999999</ele><time>2026-03-29T12:20:44.999Z</time></trkpt><trkpt lat="39.43428055573973" lon="17.056100341394213"><ele>11.6</ele><time>2026-03-29T12:20:45.999Z</time></trkpt><trkpt lat="39.43417574371764" lon="17.056113707313003"><ele>10.8</ele><time>2026-03-29T12:20:46.999Z</time></trkpt><trkpt lat="39.434073798550514" lon="17.0561282553857"><ele>10.0</ele><time>2026-03-29T12:20:47.999Z</time></trkpt><trkpt lat="39.43397163450549" lon="17.056128361360006"><ele>10.0</ele><time>2026-03-29T12:20:48.999Z</time></trkpt><trkpt lat="39.433869258345474" lon="17.05611350793892"><ele>10.0</ele><time>2026-03-29T12:20:49.999Z</time></trkpt><trkpt lat="39.433765408541966" lon="17.05609167151605"><ele>10.0</ele><time>2026-03-29T12:20:50.999Z</time></trkpt><trkpt lat="39.43366889142076" lon="17.056056666927937"><ele>10.0</ele><time>2026-03-29T12:20:51.999Z</time></trkpt><trkpt lat="39.43358366140791" lon="17.056016661517074"><ele>10.0</ele><time>2026-03-29T12:20:52.999Z</time></trkpt><trkpt lat="39.43351181036596" lon="17.055974840102074"><ele>10.714285714285714</ele><time>2026-03-29T12:20:53.999Z</time></trkpt><trkpt lat="39.43345181220849" lon="17.05594464316131"><ele>11.428571428571429</ele><time>2026-03-29T12:20:54.999Z</time></trkpt><trkpt lat="39.433372422084474" lon="17.05590106138616"><ele>12.142857142857142</ele><time>2026-03-29T12:20:56.999Z</time></trkpt><trkpt lat="39.433308221110316" lon="17.05587797380599"><ele>12.857142857142858</ele><time>2026-03-29T12:21:00.999Z</time></trkpt><trkpt lat="39.43334126461457" lon="17.055982675075384"><ele>13.571428571428571</ele><time>2026-03-29T12:21:05.999Z</time></trkpt><trkpt lat="39.43335815030247" lon="17.056064042269355"><ele>14.285714285714286</ele><time>2026-03-29T12:21:07.999Z</time></trkpt><trkpt lat="39.43329395411866" lon="17.056120878859897"><ele>15.0</ele><time>2026-03-29T12:21:09.999Z</time></trkpt><trkpt lat="39.43321199547503" lon="17.056173421022617"><ele>15.0</ele><time>2026-03-29T12:21:11.999Z</time></trkpt><trkpt lat="39.43312670145176" lon="17.056223662640654"><ele>15.0</ele><time>2026-03-29T12:21:13.999Z</time></trkpt><trkpt lat="39.433036527371534" lon="17.056301526064683"><ele>15.0</ele><time>2026-03-29T12:21:15.999Z</time></trkpt><trkpt lat="39.43298695078448" lon="17.056356414594042"><ele>15.0</ele><time>2026-03-29T12:21:16.999Z</time></trkpt><trkpt lat="39.43293302418105" lon="17.056401245176037"><ele>15.0</ele><time>2026-03-29T12:21:17.999Z</time></trkpt><trkpt lat="39.43285061193096" lon="17.05650663876507"><ele>15.0</ele><time>2026-03-29T12:21:19.999Z</time></trkpt><trkpt lat="39.432790377925066" lon="17.056626467044016"><ele>18.0</ele><time>2026-03-29T12:21:21.999Z</time></trkpt><trkpt lat="39.432743472755114" lon="17.056708708040468"><ele>21.0</ele><time>2026-03-29T12:21:23.999Z</time></trkpt><trkpt lat="39.4327170579694" lon="17.056829037039655"><ele>24.0</ele><time>2026-03-29T12:21:26.999Z</time></trkpt><trkpt lat="39.432683548148034" lon="17.056907997290313"><ele>27.0</ele><time>2026-03-29T12:21:28.999Z</time></trkpt><trkpt lat="39.432578895146165" lon="17.05692998667863"><ele>30.0</ele><time>2026-03-29T12:21:30.999Z</time></trkpt><trkpt lat="39.4325195472226" lon="17.056958177410298"><ele>33.0</ele><time>2026-03-29T12:21:31.999Z</time></trkpt><trkpt lat="39.4324626349881" lon="17.05699996106099"><ele>33.0</ele><time>2026-03-29T12:21:32.999Z</time></trkpt><trkpt lat="39.432361764196585" lon="17.057061641736965"><ele>33.0</ele><time>2026-03-29T12:21:34.999Z</time></trkpt><trkpt lat="39.43226955225531" lon="17.057121919890914"><ele>33.0</ele><time>2026-03-29T12:21:36.999Z</time></trkpt><trkpt lat="39.43220965012621" lon="17.05715362411917"><ele>33.0</ele><time>2026-03-29T12:21:37.999Z</time></trkpt><trkpt lat="39.432137856351076" lon="17.05718483284748"><ele>33.0</ele><time>2026-03-29T12:21:38.999Z</time></trkpt><trkpt lat="39.43206057001257" lon="17.057211638067212"><ele>33.0</ele><time>2026-03-29T12:21:39.999Z</time></trkpt><trkpt lat="39.43198529555975" lon="17.057236296912112"><ele>33.666666666666664</ele><time>2026-03-29T12:21:40.999Z</time></trkpt><trkpt lat="39.43191133521544" lon="17.05724794354323"><ele>34.333333333333336</ele><time>2026-03-29T12:21:41.999Z</time></trkpt><trkpt lat="39.43183606686752" lon="17.057243774253134"><ele>35.0</ele><time>2026-03-29T12:21:42.999Z</time></trkpt><trkpt lat="39.43175804836431" lon="17.057230482402517"><ele>35.66666666666667</ele><time>2026-03-29T12:21:43.999Z</time></trkpt><trkpt lat="39.431675066286104" lon="17.05722849651551"><ele>36.333333333333336</ele><time>2026-03-29T12:21:44.999Z</time></trkpt><trkpt lat="39.43159252646006" lon="17.057225513892703"><ele>37.0</ele><time>2026-03-29T12:21:45.999Z</time></trkpt><trkpt lat="39.43151330848095" lon="17.05722889259392"><ele>37.0</ele><time>2026-03-29T12:21:46.999Z</time></trkpt><trkpt lat="39.43143046765255" lon="17.057221409454222"><ele>37.0</ele><time>2026-03-29T12:21:47.999Z</time></trkpt><trkpt lat="39.4313476316584" lon="17.05719166595275"><ele>37.0</ele><time>2026-03-29T12:21:48.999Z</time></trkpt><trkpt lat="39.431261989510034" lon="17.057164223965646"><ele>37.0</ele><time>2026-03-29T12:21:49.999Z</time></trkpt><trkpt lat="39.43117971896866" lon="17.05713732883172"><ele>37.0</ele><time>2026-03-29T12:21:50.999Z</time></trkpt><trkpt lat="39.4311010325186" lon="17.05710916847547"><ele>37.0</ele><time>2026-03-29T12:21:51.999Z</time></trkpt><trkpt lat="39.43102141781621" lon="17.05708170153486"><ele>37.57142857142857</ele><time>2026-03-29T12:21:52.999Z</time></trkpt><trkpt lat="39.430943085381244" lon="17.05704809989811"><ele>38.14285714285714</ele><time>2026-03-29T12:21:53.999Z</time></trkpt><trkpt lat="39.430868571790725" lon="17.05701158475602"><ele>38.71428571428571</ele><time>2026-03-29T12:21:54.999Z</time></trkpt><trkpt lat="39.4307980713896" lon="17.056976607288856"><ele>39.285714285714285</ele><time>2026-03-29T12:21:55.999Z</time></trkpt><trkpt lat="39.43072973487201" lon="17.056945373756207"><ele>39.857142857142854</ele><time>2026-03-29T12:21:56.999Z</time></trkpt><trkpt lat="39.43066225626248" lon="17.05692890657052"><ele>40.42857142857142</ele><time>2026-03-29T12:21:57.999Z</time></trkpt><trkpt lat="39.430597841743676" lon="17.056916150443282"><ele>41.0</ele><time>2026-03-29T12:21:58.999Z</time></trkpt><trkpt lat="39.43052691624634" lon="17.056904778021384"><ele>42.166666666666664</ele><time>2026-03-29T12:21:59.999Z</time></trkpt><trkpt lat="39.430447953401035" lon="17.056897356454353"><ele>43.33333333333333</ele><time>2026-03-29T12:22:00.999Z</time></trkpt><trkpt lat="39.43036384681765" lon="17.056894267646342"><ele>44.5</ele><time>2026-03-29T12:22:01.999Z</time></trkpt><trkpt lat="39.43028276704926" lon="17.056899160145438"><ele>45.666666666666664</ele><time>2026-03-29T12:22:02.999Z</time></trkpt><trkpt lat="39.43021042714439" lon="17.056901829659786"><ele>46.833333333333336</ele><time>2026-03-29T12:22:03.999Z</time></trkpt><trkpt lat="39.4301424895115" lon="17.05690444699566"><ele>48.0</ele><time>2026-03-29T12:22:04.999Z</time></trkpt><trkpt lat="39.43007341147604" lon="17.056900891907034"><ele>48.0</ele><time>2026-03-29T12:22:05.999Z</time></trkpt><trkpt lat="39.429993468073256" lon="17.05688698049575"><ele>48.0</ele><time>2026-03-29T12:22:06.999Z</time></trkpt><trkpt lat="39.42990933088764" lon="17.056856769056733"><ele>48.0</ele><time>2026-03-29T12:22:07.999Z</time></trkpt><trkpt lat="39.4298271052855" lon="17.056810942183663"><ele>48.0</ele><time>2026-03-29T12:22:08.999Z</time></trkpt><trkpt lat="39.42973891765842" lon="17.056767204851656"><ele>48.0</ele><time>2026-03-29T12:22:09.999Z</time></trkpt><trkpt lat="39.42964409816413" lon="17.05674638827767"><ele>48.0</ele><time>2026-03-29T12:22:10.999Z</time></trkpt><trkpt lat="39.42955132443975" lon="17.05672525375711"><ele>48.166666666666664</ele><time>2026-03-29T12:22:11.999Z</time></trkpt><trkpt lat="39.42946842998791" lon="17.056704769876497"><ele>48.33333333333333</ele><time>2026-03-29T12:22:12.999Z</time></trkpt><trkpt lat="39.429397420057505" lon="17.056683196198335"><ele>48.5</ele><time>2026-03-29T12:22:13.999Z</time></trkpt><trkpt lat="39.4293262826414" lon="17.0566557202274"><ele>48.666666666666664</ele><time>2026-03-29T12:22:14.999Z</time></trkpt><trkpt lat="39.42925561997715" lon="17.05662225989599"><ele>48.83333333333333</ele><time>2026-03-29T12:22:15.999Z</time></trkpt><trkpt lat="39.42918525923187" lon="17.056586265770637"><ele>49.0</ele><time>2026-03-29T12:22:16.999Z</time></trkpt><trkpt lat="39.42912068080602" lon="17.0565588156502"><ele>48.99999999999999</ele><time>2026-03-29T12:22:17.999Z</time></trkpt><trkpt lat="39.42904532069367" lon="17.05656647438898"><ele>49.0</ele><time>2026-03-29T12:22:18.999Z</time></trkpt><trkpt lat="39.42897808028298" lon="17.056531319375285"><ele>49.0</ele><time>2026-03-29T12:22:19.999Z</time></trkpt><trkpt lat="39.428898400384384" lon="17.056489660034185"><ele>49.0</ele><time>2026-03-29T12:22:20.999Z</time></trkpt><trkpt lat="39.42880657527186" lon="17.056443782841914"><ele>48.99999999999999</ele><time>2026-03-29T12:22:21.999Z</time></trkpt><trkpt lat="39.428758357872574" lon="17.056311324892192"><ele>49.0</ele><time>2026-03-29T12:22:22.999Z</time></trkpt><trkpt lat="39.42867312304485" lon="17.0562409458494"><ele>49.400000000000006</ele><time>2026-03-29T12:22:23.999Z</time></trkpt><trkpt lat="39.42857975283333" lon="17.056190879714737"><ele>49.8</ele><time>2026-03-29T12:22:24.999Z</time></trkpt><trkpt lat="39.42848693344306" lon="17.05614588715512"><ele>50.2</ele><time>2026-03-29T12:22:25.999Z</time></trkpt><trkpt lat="39.428394695967604" lon="17.056102254936363"><ele>50.599999999999994</ele><time>2026-03-29T12:22:26.999Z</time></trkpt><trkpt lat="39.4283002816397" lon="17.056060622554135"><ele>51.0</ele><time>2026-03-29T12:22:27.999Z</time></trkpt><trkpt lat="39.42820812275404" lon="17.056023232172453"><ele>51.0</ele><time>2026-03-29T12:22:28.999Z</time></trkpt><trkpt lat="39.428115535525386" lon="17.05599314367159"><ele>51.0</ele><time>2026-03-29T12:22:29.999Z</time></trkpt><trkpt lat="39.42803202653366" lon="17.05596777530122"><ele>51.0</ele><time>2026-03-29T12:22:30.999Z</time></trkpt><trkpt lat="39.42794682077464" lon="17.05591984295167"><ele>51.0</ele><time>2026-03-29T12:22:31.999Z</time></trkpt><trkpt lat="39.427861793105556" lon="17.05586270745905"><ele>51.0</ele><time>2026-03-29T12:22:32.999Z</time></trkpt><trkpt lat="39.427780738625906" lon="17.055808053906603"><ele>51.333333333333336</ele><time>2026-03-29T12:22:33.999Z</time></trkpt><trkpt lat="39.42770603268423" lon="17.055757681141458"><ele>51.66666666666667</ele><time>2026-03-29T12:22:34.999Z</time></trkpt><trkpt lat="39.427640603944944" lon="17.055713564222042"><ele>52.0</ele><time>2026-03-29T12:22:35.999Z</time></trkpt><trkpt lat="39.427531793668834" lon="17.055662403074635"><ele>52.333333333333336</ele><time>2026-03-29T12:22:37.999Z</time></trkpt><trkpt lat="39.42749849424056" lon="17.05558122545216"><ele>52.66666666666667</ele><time>2026-03-29T12:22:38.999Z</time></trkpt><trkpt lat="39.42746791710546" lon="17.055477166579543"><ele>53.0</ele><time>2026-03-29T12:22:39.999Z</time></trkpt><trkpt lat="39.427430673464634" lon="17.05536240754413"><ele>53.0</ele><time>2026-03-29T12:22:40.999Z</time></trkpt><trkpt lat="39.427379799547715" lon="17.05525702895381"><ele>53.0</ele><time>2026-03-29T12:22:41.999Z</time></trkpt><trkpt lat="39.42732794098509" lon="17.05515346131061"><ele>53.0</ele><time>2026-03-29T12:22:42.999Z</time></trkpt><trkpt lat="39.42726893343636" lon="17.055052298032297"><ele>53.0</ele><time>2026-03-29T12:22:43.999Z</time></trkpt><trkpt lat="39.42719321971612" lon="17.054964089269003"><ele>53.0</ele><time>2026-03-29T12:22:44.999Z</time></trkpt><trkpt lat="39.42711282468225" lon="17.05488703883641"><ele>53.50000000000001</ele><time>2026-03-29T12:22:45.999Z</time></trkpt><trkpt lat="39.42703867614778" lon="17.05481455596157"><ele>54.0</ele><time>2026-03-29T12:22:46.999Z</time></trkpt><trkpt lat="39.42697378866121" lon="17.054746964384787"><ele>54.5</ele><time>2026-03-29T12:22:47.999Z</time></trkpt><trkpt lat="39.426926768086034" lon="17.054671296928024"><ele>55.0</ele><time>2026-03-29T12:22:48.999Z</time></trkpt><trkpt lat="39.426895549875574" lon="17.05458562100122"><ele>55.50000000000001</ele><time>2026-03-29T12:22:49.999Z</time></trkpt><trkpt lat="39.426875826261906" lon="17.054488462448976"><ele>56.0</ele><time>2026-03-29T12:22:50.999Z</time></trkpt><trkpt lat="39.42686778602333" lon="17.05438128692778"><ele>56.0</ele><time>2026-03-29T12:22:51.999Z</time></trkpt><trkpt lat="39.42685774992517" lon="17.054274353542606"><ele>55.99999999999999</ele><time>2026-03-29T12:22:52.999Z</time></trkpt><trkpt lat="39.42683473167211" lon="17.054176686895225"><ele>55.99999999999999</ele><time>2026-03-29T12:22:53.999Z</time></trkpt><trkpt lat="39.42678375238656" lon="17.054088528036303"><ele>56.0</ele><time>2026-03-29T12:22:54.999Z</time></trkpt><trkpt lat="39.42670846887358" lon="17.05399602366885"><ele>56.0</ele><time>2026-03-29T12:22:55.999Z</time></trkpt><trkpt lat="39.4266206910567" lon="17.053895101969623"><ele>56.0</ele><time>2026-03-29T12:22:56.999Z</time></trkpt><trkpt lat="39.42653592468204" lon="17.05378904071101"><ele>55.99999999999999</ele><time>2026-03-29T12:22:57.999Z</time></trkpt><trkpt lat="39.426452545019686" lon="17.05369000761266"><ele>55.99999999999999</ele><time>2026-03-29T12:22:58.999Z</time></trkpt><trkpt lat="39.42638110275639" lon="17.053591086392885"><ele>56.0</ele><time>2026-03-29T12:22:59.999Z</time></trkpt><trkpt lat="39.42631597215284" lon="17.053500238199987"><ele>56.0</ele><time>2026-03-29T12:23:00.999Z</time></trkpt><trkpt lat="39.42625593113451" lon="17.0534256164159"><ele>55.833333333333336</ele><time>2026-03-29T12:23:01.999Z</time></trkpt><trkpt lat="39.426202604379405" lon="17.053367885054215"><ele>55.66666666666667</ele><time>2026-03-29T12:23:02.999Z</time></trkpt><trkpt lat="39.426143591076425" lon="17.05332651110614"><ele>55.5</ele><time>2026-03-29T12:23:03.999Z</time></trkpt><trkpt lat="39.42607232384329" lon="17.05330418725868"><ele>55.33333333333333</ele><time>2026-03-29T12:23:04.999Z</time></trkpt><trkpt lat="39.42598790057259" lon="17.053335233459126"><ele>55.166666666666664</ele><time>2026-03-29T12:23:05.999Z</time></trkpt><trkpt lat="39.42590648752948" lon="17.053367183732064"><ele>55.0</ele><time>2026-03-29T12:23:06.999Z</time></trkpt><trkpt lat="39.42582705647094" lon="17.05338366271871"><ele>54.99999999999999</ele><time>2026-03-29T12:23:07.999Z</time></trkpt><trkpt lat="39.42573829914035" lon="17.053373829715223"><ele>55.0</ele><time>2026-03-29T12:23:08.999Z</time></trkpt><trkpt lat="39.42564483380261" lon="17.053362246995114"><ele>55.0</ele><time>2026-03-29T12:23:09.999Z</time></trkpt><trkpt lat="39.42555946657646" lon="17.053364103732626"><ele>55.0</ele><time>2026-03-29T12:23:10.999Z</time></trkpt><trkpt lat="39.425475185131155" lon="17.05336338473301"><ele>54.99999999999999</ele><time>2026-03-29T12:23:11.999Z</time></trkpt><trkpt lat="39.425396627051924" lon="17.053391025697472"><ele>55.0</ele><time>2026-03-29T12:23:12.999Z</time></trkpt><trkpt lat="39.42532559788048" lon="17.05342386596889"><ele>54.2</ele><time>2026-03-29T12:23:13.999Z</time></trkpt><trkpt lat="39.425260989153394" lon="17.053448884273497"><ele>53.4</ele><time>2026-03-29T12:23:14.999Z</time></trkpt><trkpt lat="39.42514153070791" lon="17.053473088204484"><ele>52.599999999999994</ele><time>2026-03-29T12:23:16.999Z</time></trkpt><trkpt lat="39.42503591639003" lon="17.05346973310003"><ele>51.8</ele><time>2026-03-29T12:23:18.999Z</time></trkpt><trkpt lat="39.42496399158067" lon="17.05342144520212"><ele>51.0</ele><time>2026-03-29T12:23:21.999Z</time></trkpt><trkpt lat="39.424853548076705" lon="17.053404790167757"><ele>51.0</ele><time>2026-03-29T12:23:24.999Z</time></trkpt><trkpt lat="39.42477589416954" lon="17.05351045424643"><ele>51.0</ele><time>2026-03-29T12:23:26.998Z</time></trkpt><trkpt lat="39.42470401330983" lon="17.05360468671193"><ele>51.0</ele><time>2026-03-29T12:23:27.998Z</time></trkpt><trkpt lat="39.42461250849051" lon="17.05372329094081"><ele>51.0</ele><time>2026-03-29T12:23:28.998Z</time></trkpt><trkpt lat="39.4245132749318" lon="17.05385665247218"><ele>51.0</ele><time>2026-03-29T12:23:29.998Z</time></trkpt><trkpt lat="39.424412361565516" lon="17.05400038195497"><ele>51.0</ele><time>2026-03-29T12:23:30.998Z</time></trkpt><trkpt lat="39.42431986646425" lon="17.05416711181816"><ele>51.0</ele><time>2026-03-29T12:23:31.998Z</time></trkpt><trkpt lat="39.42424817479506" lon="17.0543591314629"><ele>51.0</ele><time>2026-03-29T12:23:32.998Z</time></trkpt><trkpt lat="39.42420337215291" lon="17.054574415323113"><ele>51.0</ele><time>2026-03-29T12:23:33.998Z</time></trkpt><trkpt lat="39.42418082277215" lon="17.05479624859054"><ele>51.0</ele><time>2026-03-29T12:23:34.998Z</time></trkpt><trkpt lat="39.424171678946955" lon="17.055014857295216"><ele>50.75</ele><time>2026-03-29T12:23:35.998Z</time></trkpt><trkpt lat="39.42416564977592" lon="17.055202610479924"><ele>50.5</ele><time>2026-03-29T12:23:36.998Z</time></trkpt><trkpt lat="39.424158277875485" lon="17.055384140686627"><ele>50.25</ele><time>2026-03-29T12:23:37.998Z</time></trkpt><trkpt lat="39.42415013128074" lon="17.05554557227281"><ele>50.0</ele><time>2026-03-29T12:23:38.998Z</time></trkpt><trkpt lat="39.42413946384783" lon="17.055693580208388"><ele>49.8</ele><time>2026-03-29T12:23:39.998Z</time></trkpt><trkpt lat="39.42412410414972" lon="17.055829616182038"><ele>49.6</ele><time>2026-03-29T12:23:40.998Z</time></trkpt><trkpt lat="39.424115165734406" lon="17.0559736691654"><ele>49.400000000000006</ele><time>2026-03-29T12:23:41.998Z</time></trkpt><trkpt lat="39.424067658747376" lon="17.05609570646766"><ele>49.2</ele><time>2026-03-29T12:23:42.998Z</time></trkpt><trkpt lat="39.42402554659029" lon="17.05621766847679"><ele>49.0</ele><time>2026-03-29T12:23:43.998Z</time></trkpt><trkpt lat="39.42398001484549" lon="17.056317202516787"><ele>49.0</ele><time>2026-03-29T12:23:44.998Z</time></trkpt><trkpt lat="39.423916193138766" lon="17.056417462416896"><ele>49.0</ele><time>2026-03-29T12:23:45.998Z</time></trkpt><trkpt lat="39.42384389585677" lon="17.0565084108335"><ele>49.0</ele><time>2026-03-29T12:23:46.998Z</time></trkpt><trkpt lat="39.423770434041906" lon="17.056584033073857"><ele>49.0</ele><time>2026-03-29T12:23:47.998Z</time></trkpt><trkpt lat="39.42368343058695" lon="17.05665715797331"><ele>49.0</ele><time>2026-03-29T12:23:48.998Z</time></trkpt><trkpt lat="39.42358647845162" lon="17.056730180184662"><ele>49.5</ele><time>2026-03-29T12:23:49.998Z</time></trkpt><trkpt lat="39.42349996494775" lon="17.056813852156413"><ele>50.0</ele><time>2026-03-29T12:23:50.998Z</time></trkpt><trkpt lat="39.42339172392503" lon="17.056889746106638"><ele>50.5</ele><time>2026-03-29T12:23:51.998Z</time></trkpt><trkpt lat="39.423263569885165" lon="17.056965922404956"><ele>51.0</ele><time>2026-03-29T12:23:52.998Z</time></trkpt><trkpt lat="39.423154080658634" lon="17.05705137385935"><ele>51.0</ele><time>2026-03-29T12:23:53.998Z</time></trkpt><trkpt lat="39.42305079670095" lon="17.05715634392808"><ele>51.0</ele><time>2026-03-29T12:23:54.998Z</time></trkpt><trkpt lat="39.42295911957849" lon="17.057275188041032"><ele>51.0</ele><time>2026-03-29T12:23:55.998Z</time></trkpt><trkpt lat="39.42285625657484" lon="17.057393612788214"><ele>51.0</ele><time>2026-03-29T12:23:56.998Z</time></trkpt><trkpt lat="39.42275541423254" lon="17.057544265714974"><ele>49.25</ele><time>2026-03-29T12:23:57.998Z</time></trkpt><trkpt lat="39.422659167201495" lon="17.057698395485946"><ele>47.5</ele><time>2026-03-29T12:23:58.998Z</time></trkpt><trkpt lat="39.42256811866087" lon="17.057851899788595"><ele>45.75</ele><time>2026-03-29T12:23:59.998Z</time></trkpt><trkpt lat="39.422470082362835" lon="17.057991663178967"><ele>44.0</ele><time>2026-03-29T12:24:00.998Z</time></trkpt><trkpt lat="39.42236972163909" lon="17.05814794237761"><ele>44.5</ele><time>2026-03-29T12:24:01.998Z</time></trkpt><trkpt lat="39.422275776874194" lon="17.05828676474031"><ele>45.0</ele><time>2026-03-29T12:24:02.998Z</time></trkpt><trkpt lat="39.42218101744534" lon="17.058422300519023"><ele>45.5</ele><time>2026-03-29T12:24:03.998Z</time></trkpt><trkpt lat="39.42208721747042" lon="17.058557127892886"><ele>46.0</ele><time>2026-03-29T12:24:04.998Z</time></trkpt><trkpt lat="39.422001814431155" lon="17.058709753002745"><ele>44.333333333333336</ele><time>2026-03-29T12:24:05.998Z</time></trkpt><trkpt lat="39.42188075857807" lon="17.05884172428112"><ele>42.666666666666664</ele><time>2026-03-29T12:24:06.998Z</time></trkpt><trkpt lat="39.421768824834224" lon="17.058988612298542"><ele>41.0</ele><time>2026-03-29T12:24:07.998Z</time></trkpt><trkpt lat="39.42164179413437" lon="17.059120979711988"><ele>41.0</ele><time>2026-03-29T12:24:08.998Z</time></trkpt><trkpt lat="39.421516691081365" lon="17.05926310907323"><ele>41.0</ele><time>2026-03-29T12:24:09.998Z</time></trkpt><trkpt lat="39.42139905353518" lon="17.05940156090178"><ele>41.0</ele><time>2026-03-29T12:24:10.998Z</time></trkpt><trkpt lat="39.421273849510996" lon="17.059553359880983"><ele>39.666666666666664</ele><time>2026-03-29T12:24:11.998Z</time></trkpt><trkpt lat="39.42115210825939" lon="17.0597016501502"><ele>38.333333333333336</ele><time>2026-03-29T12:24:12.998Z</time></trkpt><trkpt lat="39.421029257836146" lon="17.059852265972626"><ele>37.0</ele><time>2026-03-29T12:24:13.998Z</time></trkpt><trkpt lat="39.42091221304432" lon="17.059994273081593"><ele>37.0</ele><time>2026-03-29T12:24:14.998Z</time></trkpt><trkpt lat="39.42078595051258" lon="17.060136357691295"><ele>37.0</ele><time>2026-03-29T12:24:15.998Z</time></trkpt><trkpt lat="39.4206499663192" lon="17.06026680934657"><ele>37.0</ele><time>2026-03-29T12:24:16.998Z</time></trkpt><trkpt lat="39.420511115510635" lon="17.06038367143206"><ele>34.333333333333336</ele><time>2026-03-29T12:24:17.998Z</time></trkpt><trkpt lat="39.42036434506413" lon="17.06049191133351"><ele>31.666666666666664</ele><time>2026-03-29T12:24:18.998Z</time></trkpt><trkpt lat="39.42022517881611" lon="17.060579749997096"><ele>29.0</ele><time>2026-03-29T12:24:19.998Z</time></trkpt><trkpt lat="39.42007844056801" lon="17.060666371986695"><ele>29.0</ele><time>2026-03-29T12:24:20.998Z</time></trkpt><trkpt lat="39.41992755536546" lon="17.06075491604571"><ele>29.0</ele><time>2026-03-29T12:24:21.998Z</time></trkpt><trkpt lat="39.4197710962905" lon="17.060848468143345"><ele>29.0</ele><time>2026-03-29T12:24:22.998Z</time></trkpt><trkpt lat="39.41962288676931" lon="17.06093752805062"><ele>29.0</ele><time>2026-03-29T12:24:23.998Z</time></trkpt><trkpt lat="39.41948542451839" lon="17.06102012986444"><ele>29.0</ele><time>2026-03-29T12:24:24.998Z</time></trkpt><trkpt lat="39.419352196451825" lon="17.06110316914594"><ele>29.0</ele><time>2026-03-29T12:24:25.998Z</time></trkpt><trkpt lat="39.41922548905633" lon="17.06118988450638"><ele>29.0</ele><time>2026-03-29T12:24:26.998Z</time></trkpt><trkpt lat="39.4190939527366" lon="17.061277260100553"><ele>29.0</ele><time>2026-03-29T12:24:27.998Z</time></trkpt><trkpt lat="39.418951213649656" lon="17.06133520015563"><ele>29.0</ele><time>2026-03-29T12:24:28.998Z</time></trkpt><trkpt lat="39.41886407720737" lon="17.061473264567184"><ele>29.0</ele><time>2026-03-29T12:24:29.998Z</time></trkpt><trkpt lat="39.418807408175866" lon="17.061652837911872"><ele>29.0</ele><time>2026-03-29T12:24:30.998Z</time></trkpt><trkpt lat="39.41877485534286" lon="17.061831870559534"><ele>28.25</ele><time>2026-03-29T12:24:31.998Z</time></trkpt><trkpt lat="39.418750335771556" lon="17.0620135445985"><ele>27.5</ele><time>2026-03-29T12:24:32.998Z</time></trkpt><trkpt lat="39.41873305771796" lon="17.06219021968606"><ele>26.75</ele><time>2026-03-29T12:24:33.998Z</time></trkpt><trkpt lat="39.41871811466797" lon="17.06235708492424"><ele>26.0</ele><time>2026-03-29T12:24:34.998Z</time></trkpt><trkpt lat="39.418698521212114" lon="17.06250234108718"><ele>25.8</ele><time>2026-03-29T12:24:35.998Z</time></trkpt><trkpt lat="39.4186826123243" lon="17.062650024179728"><ele>25.6</ele><time>2026-03-29T12:24:36.998Z</time></trkpt><trkpt lat="39.418682236375645" lon="17.062797830196754"><ele>25.4</ele><time>2026-03-29T12:24:37.998Z</time></trkpt><trkpt lat="39.418665504896744" lon="17.062946333098523"><ele>25.2</ele><time>2026-03-29T12:24:38.998Z</time></trkpt><trkpt lat="39.41863804209863" lon="17.063060875714967"><ele>25.0</ele><time>2026-03-29T12:24:39.998Z</time></trkpt><trkpt lat="39.41862801200302" lon="17.063160687826354"><ele>25.0</ele><time>2026-03-29T12:24:40.998Z</time></trkpt><trkpt lat="39.41856527485464" lon="17.06313933110693"><ele>25.0</ele><time>2026-03-29T12:24:43.998Z</time></trkpt><trkpt lat="39.41848986651173" lon="17.06304227141107"><ele>25.0</ele><time>2026-03-29T12:24:45.998Z</time></trkpt><trkpt lat="39.41842786898802" lon="17.06296465967642"><ele>25.0</ele><time>2026-03-29T12:24:46.998Z</time></trkpt><trkpt lat="39.41834188651396" lon="17.062866651821956"><ele>25.0</ele><time>2026-03-29T12:24:47.998Z</time></trkpt><trkpt lat="39.41824007148728" lon="17.06276645982196"><ele>25.0</ele><time>2026-03-29T12:24:48.998Z</time></trkpt><trkpt lat="39.41816420679999" lon="17.062646599622404"><ele>25.0</ele><time>2026-03-29T12:24:49.998Z</time></trkpt><trkpt lat="39.41808584632803" lon="17.06254465402506"><ele>25.0</ele><time>2026-03-29T12:24:50.998Z</time></trkpt><trkpt lat="39.418012636739924" lon="17.062448721725364"><ele>25.0</ele><time>2026-03-29T12:24:51.998Z</time></trkpt><trkpt lat="39.417948671867634" lon="17.062329368927976"><ele>25.0</ele><time>2026-03-29T12:24:52.998Z</time></trkpt><trkpt lat="39.41793189788935" lon="17.062238088280427"><ele>24.833333333333336</ele><time>2026-03-29T12:24:53.998Z</time></trkpt><trkpt lat="39.417934879568634" lon="17.062116260578808"><ele>24.666666666666668</ele><time>2026-03-29T12:24:55.001Z</time></trkpt><trkpt lat="39.417946156889585" lon="17.061979919181308"><ele>24.5</ele><time>2026-03-29T12:24:56.001Z</time></trkpt><trkpt lat="39.41795951886765" lon="17.061851518831027"><ele>24.333333333333336</ele><time>2026-03-29T12:24:57.001Z</time></trkpt><trkpt lat="39.417950015179926" lon="17.061746128428567"><ele>24.166666666666668</ele><time>2026-03-29T12:24:58.001Z</time></trkpt><trkpt lat="39.41792443059708" lon="17.06166883793615"><ele>24.0</ele><time>2026-03-29T12:24:59.001Z</time></trkpt><trkpt lat="39.41788639185892" lon="17.061553923699037"><ele>26.0</ele><time>2026-03-29T12:25:00.001Z</time></trkpt><trkpt lat="39.41774510092986" lon="17.06148937679711"><ele>28.0</ele><time>2026-03-29T12:25:01.001Z</time></trkpt><trkpt lat="39.417667830922426" lon="17.061371062783447"><ele>30.0</ele><time>2026-03-29T12:25:02.001Z</time></trkpt><trkpt lat="39.41759895800186" lon="17.0612400286661"><ele>32.0</ele><time>2026-03-29T12:25:03.001Z</time></trkpt><trkpt lat="39.417561669905886" lon="17.06106227021137"><ele>32.0</ele><time>2026-03-29T12:25:04.001Z</time></trkpt><trkpt lat="39.41749711467777" lon="17.06094886436594"><ele>32.0</ele><time>2026-03-29T12:25:05.001Z</time></trkpt><trkpt lat="39.41743010629473" lon="17.06083364662418"><ele>32.0</ele><time>2026-03-29T12:25:06.001Z</time></trkpt><trkpt lat="39.41736235151573" lon="17.060697483149703"><ele>32.0</ele><time>2026-03-29T12:25:07.001Z</time></trkpt><trkpt lat="39.41730033677519" lon="17.060542270041974"><ele>31.5</ele><time>2026-03-29T12:25:08.001Z</time></trkpt><trkpt lat="39.41724937738458" lon="17.06039186759269"><ele>31.0</ele><time>2026-03-29T12:25:09.001Z</time></trkpt><trkpt lat="39.41719736236979" lon="17.060226428151648"><ele>30.5</ele><time>2026-03-29T12:25:10.001Z</time></trkpt><trkpt lat="39.41715243393219" lon="17.060075441192023"><ele>30.0</ele><time>2026-03-29T12:25:11.001Z</time></trkpt><trkpt lat="39.41709779730384" lon="17.059915079307146"><ele>30.0</ele><time>2026-03-29T12:25:12Z</time></trkpt><trkpt lat="39.41702894198021" lon="17.059740809117876"><ele>30.0</ele><time>2026-03-29T12:25:13.001Z</time></trkpt><trkpt lat="39.41693641594955" lon="17.059597750437433"><ele>30.0</ele><time>2026-03-29T12:25:14.001Z</time></trkpt><trkpt lat="39.4168428400313" lon="17.059472508073107"><ele>30.0</ele><time>2026-03-29T12:25:15Z</time></trkpt><trkpt lat="39.41677700844505" lon="17.05940954505768"><ele>30.0</ele><time>2026-03-29T12:25:16Z</time></trkpt><trkpt lat="39.416752649806675" lon="17.059324728737444"><ele>30.0</ele><time>2026-03-29T12:25:17Z</time></trkpt><trkpt lat="39.41679489949153" lon="17.05914256178359"><ele>30.0</ele><time>2026-03-29T12:25:19Z</time></trkpt><trkpt lat="39.41687982862186" lon="17.059027372735677"><ele>30.0</ele><time>2026-03-29T12:25:20Z</time></trkpt><trkpt lat="39.416948036484484" lon="17.05889266374191"><ele>30.4</ele><time>2026-03-29T12:25:21Z</time></trkpt><trkpt lat="39.41702589212816" lon="17.058779069122743"><ele>30.8</ele><time>2026-03-29T12:25:22Z</time></trkpt><trkpt lat="39.417087681407146" lon="17.058659579663246"><ele>31.200000000000003</ele><time>2026-03-29T12:25:23Z</time></trkpt><trkpt lat="39.41712279926069" lon="17.058540743091143"><ele>31.6</ele><time>2026-03-29T12:25:24Z</time></trkpt><trkpt lat="39.417159233616836" lon="17.058421520976573"><ele>32.0</ele><time>2026-03-29T12:25:25Z</time></trkpt><trkpt lat="39.41719272123977" lon="17.05830964917015"><ele>35.400000000000006</ele><time>2026-03-29T12:25:26Z</time></trkpt><trkpt lat="39.417175979067004" lon="17.058200083542037"><ele>38.800000000000004</ele><time>2026-03-29T12:25:27Z</time></trkpt><trkpt lat="39.41712622748255" lon="17.058083160807335"><ele>42.2</ele><time>2026-03-29T12:25:28Z</time></trkpt><trkpt lat="39.41705116372838" lon="17.057986942340886"><ele>45.6</ele><time>2026-03-29T12:25:29Z</time></trkpt><trkpt lat="39.41694142477053" lon="17.05791174521219"><ele>49.0</ele><time>2026-03-29T12:25:30Z</time></trkpt><trkpt lat="39.41683541784777" lon="17.057864073503286"><ele>49.0</ele><time>2026-03-29T12:25:31Z</time></trkpt><trkpt lat="39.416747662261926" lon="17.057812776215236"><ele>49.0</ele><time>2026-03-29T12:25:32Z</time></trkpt><trkpt lat="39.41667179161795" lon="17.0577555173243"><ele>49.0</ele><time>2026-03-29T12:25:33Z</time></trkpt><trkpt lat="39.41658839303496" lon="17.057668892142125"><ele>49.0</ele><time>2026-03-29T12:25:34Z</time></trkpt><trkpt lat="39.416495802520416" lon="17.057559325386215"><ele>49.0</ele><time>2026-03-29T12:25:35Z</time></trkpt><trkpt lat="39.4163973179006" lon="17.057435632020805"><ele>46.0</ele><time>2026-03-29T12:25:36Z</time></trkpt><trkpt lat="39.416312398752645" lon="17.057334598894883"><ele>43.0</ele><time>2026-03-29T12:25:37Z</time></trkpt><trkpt lat="39.41623657675082" lon="17.0572405849988"><ele>40.0</ele><time>2026-03-29T12:25:38Z</time></trkpt><trkpt lat="39.41615931439049" lon="17.057113666286078"><ele>37.0</ele><time>2026-03-29T12:25:39Z</time></trkpt><trkpt lat="39.41608590666766" lon="17.056950185541453"><ele>37.0</ele><time>2026-03-29T12:25:40Z</time></trkpt><trkpt lat="39.41602439656324" lon="17.056781597062272"><ele>37.0</ele><time>2026-03-29T12:25:41Z</time></trkpt><trkpt lat="39.415969081900045" lon="17.05661074582752"><ele>37.0</ele><time>2026-03-29T12:25:42Z</time></trkpt><trkpt lat="39.4159022744004" lon="17.056451532747918"><ele>37.0</ele><time>2026-03-29T12:25:43Z</time></trkpt><trkpt lat="39.415836143626315" lon="17.05633066151688"><ele>37.75</ele><time>2026-03-29T12:25:44Z</time></trkpt><trkpt lat="39.41577473044246" lon="17.05618994998758"><ele>38.5</ele><time>2026-03-29T12:25:45Z</time></trkpt><trkpt lat="39.415734559717" lon="17.05604824583272"><ele>39.25</ele><time>2026-03-29T12:25:46Z</time></trkpt><trkpt lat="39.41567727760551" lon="17.05588243132821"><ele>40.0</ele><time>2026-03-29T12:25:47Z</time></trkpt><trkpt lat="39.41564622919537" lon="17.055699429121056"><ele>40.8</ele><time>2026-03-29T12:25:48Z</time></trkpt><trkpt lat="39.415617312065706" lon="17.055537499503064"><ele>41.6</ele><time>2026-03-29T12:25:49Z</time></trkpt><trkpt lat="39.415580561045495" lon="17.05541038379289"><ele>42.400000000000006</ele><time>2026-03-29T12:25:50Z</time></trkpt><trkpt lat="39.4155549383861" lon="17.055304996811298"><ele>43.2</ele><time>2026-03-29T12:25:51Z</time></trkpt><trkpt lat="39.41552454730205" lon="17.055186395786325"><ele>44.0</ele><time>2026-03-29T12:25:52Z</time></trkpt><trkpt lat="39.41549314013985" lon="17.055063829360773"><ele>41.0</ele><time>2026-03-29T12:25:53Z</time></trkpt><trkpt lat="39.415456168332966" lon="17.054920532193243"><ele>38.0</ele><time>2026-03-29T12:25:54Z</time></trkpt><trkpt lat="39.415400157495284" lon="17.054759753745227"><ele>35.0</ele><time>2026-03-29T12:25:55Z</time></trkpt><trkpt lat="39.41536447084723" lon="17.054565295663597"><ele>32.0</ele><time>2026-03-29T12:25:56Z</time></trkpt><trkpt lat="39.415319008802754" lon="17.054391877274462"><ele>32.0</ele><time>2026-03-29T12:25:57Z</time></trkpt><trkpt lat="39.41526727895084" lon="17.054234622669828"><ele>32.0</ele><time>2026-03-29T12:25:58Z</time></trkpt><trkpt lat="39.41520683356022" lon="17.054065585760807"><ele>32.0</ele><time>2026-03-29T12:25:59Z</time></trkpt><trkpt lat="39.41512829389242" lon="17.053882849847277"><ele>32.0</ele><time>2026-03-29T12:26:00Z</time></trkpt><trkpt lat="39.41504282043894" lon="17.053710266699387"><ele>35.666666666666664</ele><time>2026-03-29T12:26:01Z</time></trkpt><trkpt lat="39.4149916522729" lon="17.053499958734363"><ele>39.333333333333336</ele><time>2026-03-29T12:26:02Z</time></trkpt><trkpt lat="39.414942570278114" lon="17.053306551659638"><ele>43.0</ele><time>2026-03-29T12:26:03Z</time></trkpt><trkpt lat="39.4148950617003" lon="17.053119158455115"><ele>44.5</ele><time>2026-03-29T12:26:04Z</time></trkpt><trkpt lat="39.414848585186235" lon="17.052928656302477"><ele>46.0</ele><time>2026-03-29T12:26:05Z</time></trkpt><trkpt lat="39.41479368631939" lon="17.052747103066764"><ele>47.5</ele><time>2026-03-29T12:26:06Z</time></trkpt><trkpt lat="39.41477720183623" lon="17.052567209021724"><ele>49.0</ele><time>2026-03-29T12:26:07Z</time></trkpt><trkpt lat="39.41476469886478" lon="17.05238342059753"><ele>51.0</ele><time>2026-03-29T12:26:08Z</time></trkpt><trkpt lat="39.41475481692748" lon="17.052203040457734"><ele>53.0</ele><time>2026-03-29T12:26:09Z</time></trkpt><trkpt lat="39.41472802611853" lon="17.05204159504297"><ele>55.0</ele><time>2026-03-29T12:26:10Z</time></trkpt><trkpt lat="39.41467168831514" lon="17.05190125503155"><ele>57.0</ele><time>2026-03-29T12:26:11Z</time></trkpt><trkpt lat="39.41459237285022" lon="17.051752850556202"><ele>56.0</ele><time>2026-03-29T12:26:12Z</time></trkpt><trkpt lat="39.41451759487415" lon="17.05158065650517"><ele>55.0</ele><time>2026-03-29T12:26:13Z</time></trkpt><trkpt lat="39.414439733765555" lon="17.051423082995154"><ele>54.0</ele><time>2026-03-29T12:26:14Z</time></trkpt><trkpt lat="39.41437860797605" lon="17.05124436392232"><ele>53.0</ele><time>2026-03-29T12:26:15Z</time></trkpt><trkpt lat="39.41432063224982" lon="17.05106633093402"><ele>53.0</ele><time>2026-03-29T12:26:16Z</time></trkpt><trkpt lat="39.414234555105274" lon="17.050922591632553"><ele>53.0</ele><time>2026-03-29T12:26:17Z</time></trkpt><trkpt lat="39.41415559874177" lon="17.050791090433183"><ele>53.0</ele><time>2026-03-29T12:26:18Z</time></trkpt><trkpt lat="39.41409625911923" lon="17.0506691853853"><ele>53.0</ele><time>2026-03-29T12:26:19Z</time></trkpt><trkpt lat="39.41403164494778" lon="17.050571614521164"><ele>55.0</ele><time>2026-03-29T12:26:20Z</time></trkpt><trkpt lat="39.41396733432539" lon="17.050474502031804"><ele>57.0</ele><time>2026-03-29T12:26:21Z</time></trkpt><trkpt lat="39.41389451634792" lon="17.0503703936243"><ele>59.0</ele><time>2026-03-29T12:26:22Z</time></trkpt><trkpt lat="39.413843721160745" lon="17.050247707995574"><ele>61.0</ele><time>2026-03-29T12:26:23Z</time></trkpt><trkpt lat="39.41383587291242" lon="17.050113313384934"><ele>63.0</ele><time>2026-03-29T12:26:24Z</time></trkpt><trkpt lat="39.413827136040524" lon="17.050000950436516"><ele>65.33333333333333</ele><time>2026-03-29T12:26:25Z</time></trkpt><trkpt lat="39.413822877627396" lon="17.04989311269718"><ele>67.66666666666667</ele><time>2026-03-29T12:26:26Z</time></trkpt><trkpt lat="39.41382429007517" lon="17.049792386208125"><ele>70.0</ele><time>2026-03-29T12:26:27Z</time></trkpt><trkpt lat="39.4138116892441" lon="17.049676478901354"><ele>72.33333333333334</ele><time>2026-03-29T12:26:28Z</time></trkpt><trkpt lat="39.413805668840354" lon="17.049565706814406"><ele>74.66666666666667</ele><time>2026-03-29T12:26:29Z</time></trkpt><trkpt lat="39.41375949873668" lon="17.049449547310974"><ele>77.0</ele><time>2026-03-29T12:26:30Z</time></trkpt><trkpt lat="39.413668187445694" lon="17.049356579525554"><ele>73.2</ele><time>2026-03-29T12:26:31Z</time></trkpt><trkpt lat="39.41356840489154" lon="17.04928413645979"><ele>69.4</ele><time>2026-03-29T12:26:32Z</time></trkpt><trkpt lat="39.41348503218744" lon="17.04922531645028"><ele>65.6</ele><time>2026-03-29T12:26:33Z</time></trkpt><trkpt lat="39.41340263133364" lon="17.04913976801956"><ele>61.8</ele><time>2026-03-29T12:26:34Z</time></trkpt><trkpt lat="39.41332691825548" lon="17.04904073298468"><ele>58.0</ele><time>2026-03-29T12:26:35Z</time></trkpt><trkpt lat="39.41326646068261" lon="17.04892903951047"><ele>58.0</ele><time>2026-03-29T12:26:36Z</time></trkpt><trkpt lat="39.41320075282146" lon="17.048835485544338"><ele>58.0</ele><time>2026-03-29T12:26:37Z</time></trkpt><trkpt lat="39.41315538215953" lon="17.048748664077294"><ele>58.0</ele><time>2026-03-29T12:26:38Z</time></trkpt><trkpt lat="39.41311799327474" lon="17.04859049552465"><ele>58.0</ele><time>2026-03-29T12:26:40Z</time></trkpt><trkpt lat="39.41311062291649" lon="17.048472698591457"><ele>58.0</ele><time>2026-03-29T12:26:41Z</time></trkpt><trkpt lat="39.4131051038518" lon="17.048327258103004"><ele>58.5</ele><time>2026-03-29T12:26:42Z</time></trkpt><trkpt lat="39.413087458053894" lon="17.048164734640594"><ele>59.0</ele><time>2026-03-29T12:26:43Z</time></trkpt><trkpt lat="39.41305351243809" lon="17.04801574040273"><ele>59.5</ele><time>2026-03-29T12:26:44Z</time></trkpt><trkpt lat="39.41299861846221" lon="17.047850540104257"><ele>60.0</ele><time>2026-03-29T12:26:45Z</time></trkpt><trkpt lat="39.412956626611695" lon="17.047705414474468"><ele>55.25</ele><time>2026-03-29T12:26:46Z</time></trkpt><trkpt lat="39.41293801113431" lon="17.047540479825617"><ele>50.5</ele><time>2026-03-29T12:26:47Z</time></trkpt><trkpt lat="39.41294008743023" lon="17.047353514094443"><ele>45.75</ele><time>2026-03-29T12:26:48Z</time></trkpt><trkpt lat="39.412946728262874" lon="17.047188043824175"><ele>41.0</ele><time>2026-03-29T12:26:49Z</time></trkpt><trkpt lat="39.412968761884166" lon="17.047050925333778"><ele>43.0</ele><time>2026-03-29T12:26:50Z</time></trkpt><trkpt lat="39.41302202462294" lon="17.046953262789486"><ele>45.0</ele><time>2026-03-29T12:26:51Z</time></trkpt><trkpt lat="39.41308209808439" lon="17.046871894191394"><ele>47.0</ele><time>2026-03-29T12:26:52Z</time></trkpt><trkpt lat="39.41311454903436" lon="17.046771778051376"><ele>49.0</ele><time>2026-03-29T12:26:53Z</time></trkpt><trkpt lat="39.41310718703485" lon="17.04667489834813"><ele>51.00000000000001</ele><time>2026-03-29T12:26:54Z</time></trkpt><trkpt lat="39.4130949699884" lon="17.04654022175591"><ele>53.0</ele><time>2026-03-29T12:26:55Z</time></trkpt><trkpt lat="39.413067971884075" lon="17.046383749646647"><ele>55.0</ele><time>2026-03-29T12:26:56Z</time></trkpt><trkpt lat="39.413036861057506" lon="17.0462139875819"><ele>57.0</ele><time>2026-03-29T12:26:57Z</time></trkpt><trkpt lat="39.41301413560765" lon="17.04604631651922"><ele>59.0</ele><time>2026-03-29T12:26:58Z</time></trkpt><trkpt lat="39.413002319548504" lon="17.04589981811993"><ele>61.0</ele><time>2026-03-29T12:26:59Z</time></trkpt><trkpt lat="39.412999922767966" lon="17.0457643520785"><ele>61.599999999999994</ele><time>2026-03-29T12:27:00Z</time></trkpt><trkpt lat="39.41300591926463" lon="17.045632914343578"><ele>62.199999999999996</ele><time>2026-03-29T12:27:01Z</time></trkpt><trkpt lat="39.41302372864886" lon="17.045481060050367"><ele>62.800000000000004</ele><time>2026-03-29T12:27:02Z</time></trkpt><trkpt lat="39.41304544946243" lon="17.045346741120206"><ele>63.400000000000006</ele><time>2026-03-29T12:27:03Z</time></trkpt><trkpt lat="39.41306985031477" lon="17.045214780785685"><ele>64.0</ele><time>2026-03-29T12:27:04Z</time></trkpt><trkpt lat="39.41312767832052" lon="17.04509366539045"><ele>64.0</ele><time>2026-03-29T12:27:05Z</time></trkpt><trkpt lat="39.41318347682126" lon="17.044972674324253"><ele>64.0</ele><time>2026-03-29T12:27:06Z</time></trkpt><trkpt lat="39.41322603910827" lon="17.044847613099027"><ele>64.0</ele><time>2026-03-29T12:27:07Z</time></trkpt><trkpt lat="39.41322808011035" lon="17.044707155828917"><ele>64.0</ele><time>2026-03-29T12:27:08Z</time></trkpt><trkpt lat="39.41322555122066" lon="17.044545603137387"><ele>64.0</ele><time>2026-03-29T12:27:09Z</time></trkpt><trkpt lat="39.413219666807784" lon="17.044374080322353"><ele>63.75</ele><time>2026-03-29T12:27:10Z</time></trkpt><trkpt lat="39.413200183258795" lon="17.044224839711344"><ele>63.5</ele><time>2026-03-29T12:27:11Z</time></trkpt><trkpt lat="39.41320122971858" lon="17.044050499817434"><ele>63.25</ele><time>2026-03-29T12:27:12Z</time></trkpt><trkpt lat="39.41319318675668" lon="17.04386918489939"><ele>63.0</ele><time>2026-03-29T12:27:13Z</time></trkpt><trkpt lat="39.413186648329926" lon="17.043702423290366"><ele>63.2</ele><time>2026-03-29T12:27:13.999Z</time></trkpt><trkpt lat="39.41317124718337" lon="17.043554299938545"><ele>63.4</ele><time>2026-03-29T12:27:14.999Z</time></trkpt><trkpt lat="39.41316530039215" lon="17.043427826914833"><ele>63.60000000000001</ele><time>2026-03-29T12:27:15.999Z</time></trkpt><trkpt lat="39.413163770242626" lon="17.04331795074544"><ele>63.800000000000004</ele><time>2026-03-29T12:27:16.999Z</time></trkpt><trkpt lat="39.413171792174914" lon="17.043229758250256"><ele>64.0</ele><time>2026-03-29T12:27:17.999Z</time></trkpt><trkpt lat="39.41315020465496" lon="17.04311811170719"><ele>64.0</ele><time>2026-03-29T12:27:18.999Z</time></trkpt><trkpt lat="39.41311438965115" lon="17.043005978959012"><ele>64.0</ele><time>2026-03-29T12:27:19.999Z</time></trkpt><trkpt lat="39.413027237976905" lon="17.04289727342165"><ele>64.0</ele><time>2026-03-29T12:27:20.999Z</time></trkpt><trkpt lat="39.412905491082924" lon="17.042844954740062"><ele>64.0</ele><time>2026-03-29T12:27:21.999Z</time></trkpt><trkpt lat="39.4127735783334" lon="17.042782828759318"><ele>62.0</ele><time>2026-03-29T12:27:22.999Z</time></trkpt><trkpt lat="39.41263803850989" lon="17.042728891082746"><ele>60.0</ele><time>2026-03-29T12:27:23.999Z</time></trkpt><trkpt lat="39.41251207253308" lon="17.042680520692258"><ele>58.0</ele><time>2026-03-29T12:27:24.999Z</time></trkpt><trkpt lat="39.41239942456524" lon="17.04265647954209"><ele>56.0</ele><time>2026-03-29T12:27:25.999Z</time></trkpt><trkpt lat="39.41227696783064" lon="17.042678163992758"><ele>56.0</ele><time>2026-03-29T12:27:26.999Z</time></trkpt><trkpt lat="39.41213691464102" lon="17.04271694445444"><ele>56.0</ele><time>2026-03-29T12:27:27.999Z</time></trkpt><trkpt lat="39.41198298859234" lon="17.042762500438933"><ele>56.0</ele><time>2026-03-29T12:27:28.999Z</time></trkpt><trkpt lat="39.41184297370545" lon="17.04280329541032"><ele>56.0</ele><time>2026-03-29T12:27:29.999Z</time></trkpt><trkpt lat="39.411695586022034" lon="17.042843564634584"><ele>56.0</ele><time>2026-03-29T12:27:30.999Z</time></trkpt><trkpt lat="39.41155695518925" lon="17.042901530186693"><ele>56.0</ele><time>2026-03-29T12:27:31.999Z</time></trkpt><trkpt lat="39.411425256820216" lon="17.0429335707002"><ele>56.0</ele><time>2026-03-29T12:27:32.999Z</time></trkpt><trkpt lat="39.41130222234966" lon="17.042951891919284"><ele>56.0</ele><time>2026-03-29T12:27:33.999Z</time></trkpt><trkpt lat="39.41118781419476" lon="17.04300343714968"><ele>54.4</ele><time>2026-03-29T12:27:34.999Z</time></trkpt><trkpt lat="39.41107297612138" lon="17.043039808054182"><ele>52.8</ele><time>2026-03-29T12:27:35.999Z</time></trkpt><trkpt lat="39.410963924291" lon="17.043051618105387"><ele>51.199999999999996</ele><time>2026-03-29T12:27:36.999Z</time></trkpt><trkpt lat="39.41086941106946" lon="17.043075979940983"><ele>49.599999999999994</ele><time>2026-03-29T12:27:37.999Z</time></trkpt><trkpt lat="39.41079306384825" lon="17.043087442017914"><ele>48.0</ele><time>2026-03-29T12:27:38.999Z</time></trkpt><trkpt lat="39.4106714649779" lon="17.04305792923882"><ele>48.0</ele><time>2026-03-29T12:27:40.999Z</time></trkpt><trkpt lat="39.410603463214436" lon="17.043057360568618"><ele>48.0</ele><time>2026-03-29T12:27:41.999Z</time></trkpt><trkpt lat="39.41053288761626" lon="17.04300014651145"><ele>48.0</ele><time>2026-03-29T12:27:43.999Z</time></trkpt><trkpt lat="39.41052551399314" lon="17.04275992876746"><ele>48.0</ele><time>2026-03-29T12:27:45.999Z</time></trkpt><trkpt lat="39.41047921526243" lon="17.042676003066667"><ele>48.0</ele><time>2026-03-29T12:27:47.999Z</time></trkpt><trkpt lat="39.41048365209071" lon="17.04253454399587"><ele>48.333333333333336</ele><time>2026-03-29T12:27:49.999Z</time></trkpt><trkpt lat="39.41051050105454" lon="17.042444666015577"><ele>48.66666666666667</ele><time>2026-03-29T12:27:51.999Z</time></trkpt><trkpt lat="39.41055266910936" lon="17.042319000930146"><ele>49.0</ele><time>2026-03-29T12:27:53.999Z</time></trkpt><trkpt lat="39.41058332328826" lon="17.042222941826424"><ele>49.333333333333336</ele><time>2026-03-29T12:27:55.999Z</time></trkpt><trkpt lat="39.410555852699005" lon="17.042147869317446"><ele>49.66666666666667</ele><time>2026-03-29T12:27:57.999Z</time></trkpt><trkpt lat="39.41057322824722" lon="17.042036562670212"><ele>50.0</ele><time>2026-03-29T12:28:00.999Z</time></trkpt><trkpt lat="39.41047189821288" lon="17.04197676654015"><ele>49.16666666666667</ele><time>2026-03-29T12:28:02.999Z</time></trkpt><trkpt lat="39.41040156598596" lon="17.041990283838572"><ele>48.333333333333336</ele><time>2026-03-29T12:28:03.999Z</time></trkpt><trkpt lat="39.41035535130405" lon="17.042049457535835"><ele>47.5</ele><time>2026-03-29T12:28:04.999Z</time></trkpt><trkpt lat="39.41031226101814" lon="17.042154318790047"><ele>46.66666666666667</ele><time>2026-03-29T12:28:05.999Z</time></trkpt><trkpt lat="39.410253333476255" lon="17.042259776421286"><ele>45.833333333333336</ele><time>2026-03-29T12:28:06.999Z</time></trkpt><trkpt lat="39.41020069901162" lon="17.04234933386468"><ele>45.0</ele><time>2026-03-29T12:28:07.999Z</time></trkpt><trkpt lat="39.410147193697" lon="17.04245915745162"><ele>45.0</ele><time>2026-03-29T12:28:08.999Z</time></trkpt><trkpt lat="39.4101125094476" lon="17.04258283205074"><ele>45.0</ele><time>2026-03-29T12:28:09.999Z</time></trkpt><trkpt lat="39.41010270699899" lon="17.042708978707203"><ele>45.0</ele><time>2026-03-29T12:28:10.999Z</time></trkpt><trkpt lat="39.410093423320454" lon="17.042817045106187"><ele>45.0</ele><time>2026-03-29T12:28:11.999Z</time></trkpt><trkpt lat="39.410070616474684" lon="17.042918787210077"><ele>45.0</ele><time>2026-03-29T12:28:12.999Z</time></trkpt><trkpt lat="39.41003923866547" lon="17.043047298558758"><ele>45.0</ele><time>2026-03-29T12:28:13.999Z</time></trkpt><trkpt lat="39.41000302461244" lon="17.043194675427088"><ele>45.0</ele><time>2026-03-29T12:28:14.999Z</time></trkpt><trkpt lat="39.40997713721531" lon="17.043341496321126"><ele>45.0</ele><time>2026-03-29T12:28:15.999Z</time></trkpt><trkpt lat="39.4099650568582" lon="17.043483656983234"><ele>45.0</ele><time>2026-03-29T12:28:16.999Z</time></trkpt><trkpt lat="39.40995877973666" lon="17.043603661846085"><ele>45.0</ele><time>2026-03-29T12:28:17.999Z</time></trkpt><trkpt lat="39.409951495228924" lon="17.043701311259078"><ele>45.2</ele><time>2026-03-29T12:28:18.999Z</time></trkpt><trkpt lat="39.409946594993755" lon="17.043789568151244"><ele>45.4</ele><time>2026-03-29T12:28:19.999Z</time></trkpt><trkpt lat="39.409877455503455" lon="17.043888324715958"><ele>45.599999999999994</ele><time>2026-03-29T12:28:20.999Z</time></trkpt><trkpt lat="39.40983271357403" lon="17.044022000669415"><ele>45.8</ele><time>2026-03-29T12:28:21.999Z</time></trkpt><trkpt lat="39.409805677337424" lon="17.044163466792025"><ele>46.0</ele><time>2026-03-29T12:28:22.999Z</time></trkpt><trkpt lat="39.409812588441035" lon="17.04430941921545"><ele>46.199999999999996</ele><time>2026-03-29T12:28:23.999Z</time></trkpt><trkpt lat="39.40980230750494" lon="17.044435061262803"><ele>46.4</ele><time>2026-03-29T12:28:24.999Z</time></trkpt><trkpt lat="39.4097815696587" lon="17.044561109475946"><ele>46.6</ele><time>2026-03-29T12:28:25.999Z</time></trkpt><trkpt lat="39.40978042405041" lon="17.044686648457795"><ele>46.8</ele><time>2026-03-29T12:28:26.999Z</time></trkpt><trkpt lat="39.409774290575086" lon="17.044821390051776"><ele>47.0</ele><time>2026-03-29T12:28:27.999Z</time></trkpt><trkpt lat="39.40974738367581" lon="17.044967509856296"><ele>46.6</ele><time>2026-03-29T12:28:28.999Z</time></trkpt><trkpt lat="39.40972889579076" lon="17.045086177014735"><ele>46.2</ele><time>2026-03-29T12:28:29.999Z</time></trkpt><trkpt lat="39.40968851741117" lon="17.045189823158303"><ele>45.8</ele><time>2026-03-29T12:28:30.999Z</time></trkpt><trkpt lat="39.40967578235893" lon="17.04529812434134"><ele>45.4</ele><time>2026-03-29T12:28:31.999Z</time></trkpt><trkpt lat="39.40966579665484" lon="17.045436510555795"><ele>45.0</ele><time>2026-03-29T12:28:32.999Z</time></trkpt><trkpt lat="39.40963825783785" lon="17.0455817733621"><ele>49.5</ele><time>2026-03-29T12:28:33.999Z</time></trkpt><trkpt lat="39.409622176620694" lon="17.045729809965792"><ele>54.0</ele><time>2026-03-29T12:28:34.999Z</time></trkpt><trkpt lat="39.40962850238349" lon="17.045897027048717"><ele>58.5</ele><time>2026-03-29T12:28:35.999Z</time></trkpt><trkpt lat="39.40960798283835" lon="17.046051125793596"><ele>63.0</ele><time>2026-03-29T12:28:36.999Z</time></trkpt><trkpt lat="39.409619882832715" lon="17.04618907463444"><ele>63.0</ele><time>2026-03-29T12:28:37.999Z</time></trkpt><trkpt lat="39.409643741434536" lon="17.046296876636706"><ele>63.0</ele><time>2026-03-29T12:28:38.999Z</time></trkpt><trkpt lat="39.409646259856736" lon="17.046395798024754"><ele>63.0</ele><time>2026-03-29T12:28:39.999Z</time></trkpt><trkpt lat="39.409634966716865" lon="17.046486013731986"><ele>63.0</ele><time>2026-03-29T12:28:40.999Z</time></trkpt><trkpt lat="39.4096204212141" lon="17.046575573131257"><ele>63.0</ele><time>2026-03-29T12:28:41.999Z</time></trkpt><trkpt lat="39.409600322728885" lon="17.04668829750893"><ele>63.0</ele><time>2026-03-29T12:28:42.999Z</time></trkpt><trkpt lat="39.40958832604404" lon="17.046787749971788"><ele>63.0</ele><time>2026-03-29T12:28:43.999Z</time></trkpt><trkpt lat="39.40957959035631" lon="17.046908785310404"><ele>63.0</ele><time>2026-03-29T12:28:44.999Z</time></trkpt><trkpt lat="39.40957284398952" lon="17.04701038976345"><ele>63.0</ele><time>2026-03-29T12:28:45.999Z</time></trkpt><trkpt lat="39.40956434322803" lon="17.047116146775412"><ele>63.0</ele><time>2026-03-29T12:28:46.999Z</time></trkpt><trkpt lat="39.40954838584339" lon="17.047221669904328"><ele>63.0</ele><time>2026-03-29T12:28:47.999Z</time></trkpt><trkpt lat="39.40953541241739" lon="17.04733913736946"><ele>63.0</ele><time>2026-03-29T12:28:48.998Z</time></trkpt><trkpt lat="39.40949466702078" lon="17.047452009042967"><ele>64.6</ele><time>2026-03-29T12:28:49.998Z</time></trkpt><trkpt lat="39.409456209776685" lon="17.04758009897213"><ele>66.19999999999999</ele><time>2026-03-29T12:28:50.998Z</time></trkpt><trkpt lat="39.40940910357772" lon="17.04768426541159"><ele>67.8</ele><time>2026-03-29T12:28:51.998Z</time></trkpt><trkpt lat="39.409332041386705" lon="17.047771130245216"><ele>69.39999999999999</ele><time>2026-03-29T12:28:52.998Z</time></trkpt><trkpt lat="39.40926670112754" lon="17.047842204098725"><ele>71.0</ele><time>2026-03-29T12:28:53.998Z</time></trkpt><trkpt lat="39.40920132624057" lon="17.047908002199534"><ele>71.0</ele><time>2026-03-29T12:28:54.998Z</time></trkpt><trkpt lat="39.40912290242529" lon="17.047962970624408"><ele>71.0</ele><time>2026-03-29T12:28:55.998Z</time></trkpt><trkpt lat="39.40903214893029" lon="17.048009669097937"><ele>71.0</ele><time>2026-03-29T12:28:56.998Z</time></trkpt><trkpt lat="39.408942462580086" lon="17.048068061571797"><ele>71.0</ele><time>2026-03-29T12:28:57.998Z</time></trkpt><trkpt lat="39.40885155638972" lon="17.048170679671745"><ele>71.0</ele><time>2026-03-29T12:28:58.998Z</time></trkpt><trkpt lat="39.40875519001779" lon="17.048247876319653"><ele>75.75</ele><time>2026-03-29T12:28:59.998Z</time></trkpt><trkpt lat="39.40864884177283" lon="17.0483036272682"><ele>80.5</ele><time>2026-03-29T12:29:00.998Z</time></trkpt><trkpt lat="39.408517623159376" lon="17.048363332546575"><ele>85.25</ele><time>2026-03-29T12:29:01.998Z</time></trkpt><trkpt lat="39.40840024190622" lon="17.048409348814122"><ele>90.0</ele><time>2026-03-29T12:29:02.998Z</time></trkpt><trkpt lat="39.408265177351836" lon="17.04846097921714"><ele>90.0</ele><time>2026-03-29T12:29:03.998Z</time></trkpt><trkpt lat="39.40813138771517" lon="17.04847689487994"><ele>90.0</ele><time>2026-03-29T12:29:04.998Z</time></trkpt><trkpt lat="39.407991411824575" lon="17.04850479083872"><ele>90.0</ele><time>2026-03-29T12:29:05.998Z</time></trkpt><trkpt lat="39.40784549989288" lon="17.04852242954978"><ele>90.0</ele><time>2026-03-29T12:29:06.998Z</time></trkpt><trkpt lat="39.40770842621804" lon="17.04853366575439"><ele>92.25</ele><time>2026-03-29T12:29:07.998Z</time></trkpt><trkpt lat="39.40759120618096" lon="17.04854089013538"><ele>94.5</ele><time>2026-03-29T12:29:08.998Z</time></trkpt><trkpt lat="39.407480195445984" lon="17.048561434465803"><ele>96.75</ele><time>2026-03-29T12:29:09.998Z</time></trkpt><trkpt lat="39.40735350533091" lon="17.0485622952307"><ele>99.0</ele><time>2026-03-29T12:29:10.998Z</time></trkpt><trkpt lat="39.40723562519575" lon="17.048570494263668"><ele>101.6</ele><time>2026-03-29T12:29:11.998Z</time></trkpt><trkpt lat="39.407119764646794" lon="17.04855343286356"><ele>104.2</ele><time>2026-03-29T12:29:12.998Z</time></trkpt><trkpt lat="39.40701732970122" lon="17.048548149450053"><ele>106.79999999999998</ele><time>2026-03-29T12:29:13.998Z</time></trkpt><trkpt lat="39.40693694045201" lon="17.048537924041984"><ele>109.39999999999999</ele><time>2026-03-29T12:29:14.998Z</time></trkpt><trkpt lat="39.40682908762" lon="17.04851764159498"><ele>112.0</ele><time>2026-03-29T12:29:16.998Z</time></trkpt><trkpt lat="39.40674892941706" lon="17.048477911994667"><ele>112.0</ele><time>2026-03-29T12:29:18.998Z</time></trkpt><trkpt lat="39.40667313842189" lon="17.04833792537989"><ele>111.99999999999999</ele><time>2026-03-29T12:29:20.998Z</time></trkpt><trkpt lat="39.4066646341613" lon="17.048224164742038"><ele>111.99999999999999</ele><time>2026-03-29T12:29:21.998Z</time></trkpt><trkpt lat="39.40665629600614" lon="17.048102996797827"><ele>112.0</ele><time>2026-03-29T12:29:22.998Z</time></trkpt><trkpt lat="39.40664042360523" lon="17.0479739977763"><ele>112.0</ele><time>2026-03-29T12:29:23.998Z</time></trkpt><trkpt lat="39.40664556386252" lon="17.04785299382899"><ele>111.0</ele><time>2026-03-29T12:29:24.998Z</time></trkpt><trkpt lat="39.40661245256607" lon="17.047758982518843"><ele>109.99999999999999</ele><time>2026-03-29T12:29:25.998Z</time></trkpt><trkpt lat="39.4065666471487" lon="17.047663075232478"><ele>108.99999999999999</ele><time>2026-03-29T12:29:26.998Z</time></trkpt><trkpt lat="39.40648303742945" lon="17.047589056632674"><ele>108.0</ele><time>2026-03-29T12:29:27.998Z</time></trkpt><trkpt lat="39.40640360947011" lon="17.047510299613105"><ele>107.0</ele><time>2026-03-29T12:29:28.998Z</time></trkpt><trkpt lat="39.40632626022059" lon="17.04746261821959"><ele>111.49999999999999</ele><time>2026-03-29T12:29:29.998Z</time></trkpt><trkpt lat="39.40626306388376" lon="17.047407190525295"><ele>116.0</ele><time>2026-03-29T12:29:30.998Z</time></trkpt><trkpt lat="39.40619224499735" lon="17.047397417095112"><ele>120.5</ele><time>2026-03-29T12:29:31.998Z</time></trkpt><trkpt lat="39.40609754427079" lon="17.04737414439878"><ele>125.0</ele><time>2026-03-29T12:29:33.998Z</time></trkpt><trkpt lat="39.406048672976276" lon="17.04745899922417"><ele>129.5</ele><time>2026-03-29T12:29:34.998Z</time></trkpt><trkpt lat="39.406051199479435" lon="17.04755347348889"><ele>134.0</ele><time>2026-03-29T12:29:35.998Z</time></trkpt><trkpt lat="39.40607650049492" lon="17.047652609421167"><ele>134.0</ele><time>2026-03-29T12:29:36.998Z</time></trkpt><trkpt lat="39.40611360134412" lon="17.047746988454193"><ele>134.0</ele><time>2026-03-29T12:29:37.998Z</time></trkpt><trkpt lat="39.406137663279935" lon="17.047844693563572"><ele>134.0</ele><time>2026-03-29T12:29:38.998Z</time></trkpt><trkpt lat="39.406150413236595" lon="17.047963522426375"><ele>134.0</ele><time>2026-03-29T12:29:39.998Z</time></trkpt><trkpt lat="39.40615555961123" lon="17.04807575864427"><ele>134.0</ele><time>2026-03-29T12:29:40.998Z</time></trkpt><trkpt lat="39.40615357220034" lon="17.04815890644353"><ele>134.0</ele><time>2026-03-29T12:29:41.998Z</time></trkpt><trkpt lat="39.40611862670115" lon="17.04827700372951"><ele>134.8</ele><time>2026-03-29T12:29:43.998Z</time></trkpt><trkpt lat="39.40607589224967" lon="17.048367295111657"><ele>135.60000000000002</ele><time>2026-03-29T12:29:44.998Z</time></trkpt><trkpt lat="39.40602734196118" lon="17.048469874401782"><ele>136.4</ele><time>2026-03-29T12:29:45.998Z</time></trkpt><trkpt lat="39.40597797980557" lon="17.04857697509768"><ele>137.20000000000002</ele><time>2026-03-29T12:29:46.998Z</time></trkpt><trkpt lat="39.405918242265074" lon="17.048679410143684"><ele>138.0</ele><time>2026-03-29T12:29:47.998Z</time></trkpt><trkpt lat="39.40585163318057" lon="17.0487583041198"><ele>138.0</ele><time>2026-03-29T12:29:48.998Z</time></trkpt><trkpt lat="39.40576502715332" lon="17.048830176207478"><ele>138.0</ele><time>2026-03-29T12:29:49.998Z</time></trkpt><trkpt lat="39.4056760804353" lon="17.04890101662641"><ele>138.0</ele><time>2026-03-29T12:29:50.998Z</time></trkpt><trkpt lat="39.40559114239942" lon="17.048967351206635"><ele>138.0</ele><time>2026-03-29T12:29:51.998Z</time></trkpt><trkpt lat="39.40550241418612" lon="17.049032357450482"><ele>138.0</ele><time>2026-03-29T12:29:52.998Z</time></trkpt><trkpt lat="39.40541357639249" lon="17.04911261567895"><ele>141.20000000000002</ele><time>2026-03-29T12:29:53.998Z</time></trkpt><trkpt lat="39.40533306716436" lon="17.049211604731386"><ele>144.4</ele><time>2026-03-29T12:29:54.998Z</time></trkpt><trkpt lat="39.405282029599825" lon="17.04930611588135"><ele>147.60000000000002</ele><time>2026-03-29T12:29:55.998Z</time></trkpt><trkpt lat="39.40524754983558" lon="17.04940994539092"><ele>150.8</ele><time>2026-03-29T12:29:56.998Z</time></trkpt><trkpt lat="39.40523734615067" lon="17.049497949296278"><ele>154.0</ele><time>2026-03-29T12:29:57.998Z</time></trkpt><trkpt lat="39.40523734615489" lon="17.049627183427297"><ele>154.0</ele><time>2026-03-29T12:29:59.998Z</time></trkpt><trkpt lat="39.40523734615778" lon="17.04971650556699"><ele>154.0</ele><time>2026-03-29T12:30:01.998Z</time></trkpt><trkpt lat="39.40522594130375" lon="17.04983288871143"><ele>154.0</ele><time>2026-03-29T12:30:05.998Z</time></trkpt><trkpt lat="39.4052596573433" lon="17.049904293129376"><ele>154.0</ele><time>2026-03-29T12:30:07.998Z</time></trkpt><trkpt lat="39.40532496815107" lon="17.050007130211576"><ele>154.0</ele><time>2026-03-29T12:30:09.998Z</time></trkpt><trkpt lat="39.40541157996341" lon="17.050116209178967"><ele>154.0</ele><time>2026-03-29T12:30:11.998Z</time></trkpt><trkpt lat="39.405466754039374" lon="17.050164865313782"><ele>153.33333333333334</ele><time>2026-03-29T12:30:12.998Z</time></trkpt><trkpt lat="39.405510893096015" lon="17.050224047201485"><ele>152.66666666666669</ele><time>2026-03-29T12:30:13.998Z</time></trkpt><trkpt lat="39.405590008483244" lon="17.050327886019303"><ele>152.0</ele><time>2026-03-29T12:30:15.998Z</time></trkpt><trkpt lat="39.40563230486016" lon="17.050392558679043"><ele>151.33333333333334</ele><time>2026-03-29T12:30:17.998Z</time></trkpt><trkpt lat="39.405541636068286" lon="17.050427703684893"><ele>150.66666666666666</ele><time>2026-03-29T12:30:20.998Z</time></trkpt><trkpt lat="39.40547564024956" lon="17.050428774278526"><ele>150.0</ele><time>2026-03-29T12:30:21.998Z</time></trkpt><trkpt lat="39.405405204020965" lon="17.050434264507285"><ele>150.0</ele><time>2026-03-29T12:30:22.998Z</time></trkpt><trkpt lat="39.40533148978313" lon="17.050466214387907"><ele>150.0</ele><time>2026-03-29T12:30:23.998Z</time></trkpt><trkpt lat="39.4052545158251" lon="17.05047379428773"><ele>150.0</ele><time>2026-03-29T12:30:24.998Z</time></trkpt><trkpt lat="39.40517766089698" lon="17.050483189084854"><ele>150.0</ele><time>2026-03-29T12:30:25.998Z</time></trkpt><trkpt lat="39.40509148901429" lon="17.050468916449287"><ele>150.0</ele><time>2026-03-29T12:30:26.998Z</time></trkpt><trkpt lat="39.40500406330823" lon="17.050494323143017"><ele>150.0</ele><time>2026-03-29T12:30:27.998Z</time></trkpt><trkpt lat="39.40491353228649" lon="17.050482743851067"><ele>150.0</ele><time>2026-03-29T12:30:28.998Z</time></trkpt><trkpt lat="39.40482880719176" lon="17.050489125719082"><ele>150.0</ele><time>2026-03-29T12:30:29.998Z</time></trkpt><trkpt lat="39.40474864472626" lon="17.05049516391605"><ele>150.0</ele><time>2026-03-29T12:30:30.998Z</time></trkpt><trkpt lat="39.404671805232674" lon="17.050499358829253"><ele>150.0</ele><time>2026-03-29T12:30:31.998Z</time></trkpt><trkpt lat="39.4046006326244" lon="17.05052381986277"><ele>150.0</ele><time>2026-03-29T12:30:32.998Z</time></trkpt><trkpt lat="39.404532138266894" lon="17.050506766676012"><ele>150.0</ele><time>2026-03-29T12:30:33.998Z</time></trkpt><trkpt lat="39.40446214595354" lon="17.050531192952267"><ele>149.83333333333334</ele><time>2026-03-29T12:30:34.998Z</time></trkpt><trkpt lat="39.4043930514545" lon="17.050534390865913"><ele>149.66666666666666</ele><time>2026-03-29T12:30:35.998Z</time></trkpt><trkpt lat="39.40432233076771" lon="17.050516811983414"><ele>149.5</ele><time>2026-03-29T12:30:36.998Z</time></trkpt><trkpt lat="39.40424766336216" lon="17.050520291827734"><ele>149.33333333333331</ele><time>2026-03-29T12:30:37.998Z</time></trkpt><trkpt lat="39.40415990956343" lon="17.0505243815623"><ele>149.16666666666666</ele><time>2026-03-29T12:30:38.998Z</time></trkpt><trkpt lat="39.40405671134486" lon="17.050528084530082"><ele>149.0</ele><time>2026-03-29T12:30:39.998Z</time></trkpt><trkpt lat="39.40395469875878" lon="17.050530043056938"><ele>149.0</ele><time>2026-03-29T12:30:40.998Z</time></trkpt><trkpt lat="39.403857587934326" lon="17.05052586572177"><ele>149.0</ele><time>2026-03-29T12:30:41.998Z</time></trkpt><trkpt lat="39.40376962264802" lon="17.05051943460724"><ele>149.0</ele><time>2026-03-29T12:30:42.998Z</time></trkpt><trkpt lat="39.40369339973807" lon="17.050502188750254"><ele>149.0</ele><time>2026-03-29T12:30:43.998Z</time></trkpt><trkpt lat="39.40361174499575" lon="17.05047277601934"><ele>149.0</ele><time>2026-03-29T12:30:44.998Z</time></trkpt><trkpt lat="39.40352356946659" lon="17.050468490030877"><ele>149.0</ele><time>2026-03-29T12:30:45.998Z</time></trkpt><trkpt lat="39.403443186294275" lon="17.050472594737787"><ele>148.66666666666666</ele><time>2026-03-29T12:30:46.998Z</time></trkpt><trkpt lat="39.403367219888324" lon="17.050480327392783"><ele>148.33333333333331</ele><time>2026-03-29T12:30:47.998Z</time></trkpt><trkpt lat="39.403296751914404" lon="17.050514613631066"><ele>148.0</ele><time>2026-03-29T12:30:48.998Z</time></trkpt><trkpt lat="39.40317348140227" lon="17.05049035113076"><ele>147.66666666666666</ele><time>2026-03-29T12:30:50.998Z</time></trkpt><trkpt lat="39.40310964493653" lon="17.050454449933415"><ele>147.33333333333334</ele><time>2026-03-29T12:30:51.998Z</time></trkpt><trkpt lat="39.40304321058121" lon="17.050417699004814"><ele>147.0</ele><time>2026-03-29T12:30:52.998Z</time></trkpt><trkpt lat="39.40297264490556" lon="17.050391131972425"><ele>145.14285714285714</ele><time>2026-03-29T12:30:53.998Z</time></trkpt><trkpt lat="39.402902368104016" lon="17.050386184166012"><ele>143.28571428571428</ele><time>2026-03-29T12:30:54.998Z</time></trkpt><trkpt lat="39.40283008879133" lon="17.050381789050356"><ele>141.42857142857144</ele><time>2026-03-29T12:30:55.998Z</time></trkpt><trkpt lat="39.40275493795366" lon="17.050376201501052"><ele>139.57142857142856</ele><time>2026-03-29T12:30:56.998Z</time></trkpt><trkpt lat="39.402678104452356" lon="17.05037743264921"><ele>137.71428571428572</ele><time>2026-03-29T12:30:57.998Z</time></trkpt><trkpt lat="39.402606671532865" lon="17.05039369549498"><ele>135.85714285714286</ele><time>2026-03-29T12:30:58.998Z</time></trkpt><trkpt lat="39.4025392843703" lon="17.050408360930252"><ele>134.0</ele><time>2026-03-29T12:30:59.998Z</time></trkpt><trkpt lat="39.402475181541995" lon="17.0503960663707"><ele>134.0</ele><time>2026-03-29T12:31:00.998Z</time></trkpt><trkpt lat="39.40236727771722" lon="17.05039232013599"><ele>134.0</ele><time>2026-03-29T12:31:02.998Z</time></trkpt><trkpt lat="39.402252361560194" lon="17.050350546821953"><ele>134.0</ele><time>2026-03-29T12:31:04.998Z</time></trkpt><trkpt lat="39.40219063400546" lon="17.05031630786786"><ele>134.0</ele><time>2026-03-29T12:31:05.998Z</time></trkpt><trkpt lat="39.40208341798196" lon="17.050256837359704"><ele>134.0</ele><time>2026-03-29T12:31:07.998Z</time></trkpt><trkpt lat="39.40202280019162" lon="17.050223213928938"><ele>131.83333333333331</ele><time>2026-03-29T12:31:08.998Z</time></trkpt><trkpt lat="39.40192307058206" lon="17.050298092819787"><ele>129.66666666666666</ele><time>2026-03-29T12:31:09.998Z</time></trkpt><trkpt lat="39.401848706917605" lon="17.050286881324222"><ele>127.5</ele><time>2026-03-29T12:31:10.998Z</time></trkpt><trkpt lat="39.40177174397049" lon="17.05027125233353"><ele>125.33333333333334</ele><time>2026-03-29T12:31:11.998Z</time></trkpt><trkpt lat="39.40170343689558" lon="17.050252418915047"><ele>123.16666666666667</ele><time>2026-03-29T12:31:12.998Z</time></trkpt><trkpt lat="39.40159999245968" lon="17.050213558144616"><ele>121.0</ele><time>2026-03-29T12:31:14.998Z</time></trkpt><trkpt lat="39.401505745156435" lon="17.050127394909758"><ele>121.0</ele><time>2026-03-29T12:31:16.998Z</time></trkpt><trkpt lat="39.40147859792786" lon="17.05004911348841"><ele>121.0</ele><time>2026-03-29T12:31:17.998Z</time></trkpt><trkpt lat="39.40135999231221" lon="17.049991827716894"><ele>121.0</ele><time>2026-03-29T12:31:19.998Z</time></trkpt><trkpt lat="39.40124795602316" lon="17.04996886534279"><ele>121.0</ele><time>2026-03-29T12:31:21.998Z</time></trkpt><trkpt lat="39.40116181259381" lon="17.049974233258457"><ele>121.0</ele><time>2026-03-29T12:31:23.998Z</time></trkpt><trkpt lat="39.401088231713665" lon="17.049989411092472"><ele>120.42857142857142</ele><time>2026-03-29T12:31:25.998Z</time></trkpt><trkpt lat="39.40102533111567" lon="17.050000114197324"><ele>119.85714285714285</ele><time>2026-03-29T12:31:27.998Z</time></trkpt><trkpt lat="39.400961607524756" lon="17.050017467423046"><ele>119.28571428571428</ele><time>2026-03-29T12:31:29.998Z</time></trkpt><trkpt lat="39.400882947291336" lon="17.050002079568447"><ele>118.71428571428572</ele><time>2026-03-29T12:31:32.998Z</time></trkpt><trkpt lat="39.40081590082238" lon="17.049983458874493"><ele>118.14285714285715</ele><time>2026-03-29T12:31:35.998Z</time></trkpt><trkpt lat="39.40073101260626" lon="17.049945053130422"><ele>117.57142857142858</ele><time>2026-03-29T12:31:38.998Z</time></trkpt><trkpt lat="39.40066999902476" lon="17.049910976630077"><ele>117.0</ele><time>2026-03-29T12:31:40.998Z</time></trkpt><trkpt lat="39.400603505505686" lon="17.049849099782367"><ele>117.0</ele><time>2026-03-29T12:31:43.998Z</time></trkpt><trkpt lat="39.400536580397656" lon="17.049791641974494"><ele>116.99999999999999</ele><time>2026-03-29T12:31:45.998Z</time></trkpt><trkpt lat="39.400439129444436" lon="17.049739155085494"><ele>116.99999999999999</ele><time>2026-03-29T12:31:47.998Z</time></trkpt><trkpt lat="39.40033545708468" lon="17.049686302587798"><ele>117.0</ele><time>2026-03-29T12:31:49.998Z</time></trkpt><trkpt lat="39.40022976937327" lon="17.049635118470846"><ele>117.0</ele><time>2026-03-29T12:31:51.998Z</time></trkpt><trkpt lat="39.400136837745976" lon="17.04960127549308"><ele>112.33333333333333</ele><time>2026-03-29T12:31:53.998Z</time></trkpt><trkpt lat="39.40005652742095" lon="17.0495467455578"><ele>107.66666666666667</ele><time>2026-03-29T12:31:55.998Z</time></trkpt><trkpt lat="39.39999763071718" lon="17.049596050359064"><ele>103.0</ele><time>2026-03-29T12:31:56.998Z</time></trkpt><trkpt lat="39.4000066858181" lon="17.049726377283715"><ele>98.33333333333334</ele><time>2026-03-29T12:31:58.998Z</time></trkpt><trkpt lat="39.40005917977937" lon="17.049843866026684"><ele>93.66666666666667</ele><time>2026-03-29T12:32:01Z</time></trkpt><trkpt lat="39.400100220721015" lon="17.049917063550453"><ele>89.0</ele><time>2026-03-29T12:32:02Z</time></trkpt><trkpt lat="39.4001528158412" lon="17.04998644300539"><ele>88.0</ele><time>2026-03-29T12:32:04Z</time></trkpt><trkpt lat="39.4001528005061" lon="17.050105302119206"><ele>87.0</ele><time>2026-03-29T12:32:07Z</time></trkpt><trkpt lat="39.40014305164214" lon="17.050201475498763"><ele>86.0</ele><time>2026-03-29T12:32:12Z</time></trkpt><trkpt lat="39.40013529092059" lon="17.050283318490774"><ele>85.0</ele><time>2026-03-29T12:32:20Z</time></trkpt><trkpt lat="39.400140529940884" lon="17.050374614504236"><ele>84.0</ele><time>2026-03-29T12:32:24Z</time></trkpt><trkpt lat="39.400268891925116" lon="17.050415902822614"><ele>83.0</ele><time>2026-03-29T12:32:25Z</time></trkpt><trkpt lat="39.40027928094287" lon="17.050509640621545"><ele>83.0</ele><time>2026-03-29T12:32:30Z</time></trkpt><trkpt lat="39.400266954886575" lon="17.05059302965999"><ele>83.0</ele><time>2026-03-29T12:32:34Z</time></trkpt><trkpt lat="39.40027724544057" lon="17.050719301761998"><ele>83.0</ele><time>2026-03-29T12:32:37Z</time></trkpt><trkpt lat="39.40035104792227" lon="17.05081602330346"><ele>83.0</ele><time>2026-03-29T12:32:39Z</time></trkpt><trkpt lat="39.40040116091048" lon="17.0509217772842"><ele>83.0</ele><time>2026-03-29T12:32:41Z</time></trkpt><trkpt lat="39.400430708259805" lon="17.051030998289264"><ele>83.0</ele><time>2026-03-29T12:32:43Z</time></trkpt><trkpt lat="39.40048430056767" lon="17.051149302041807"><ele>83.0</ele><time>2026-03-29T12:32:45Z</time></trkpt><trkpt lat="39.400549305848166" lon="17.05126054663306"><ele>83.0</ele><time>2026-03-29T12:32:47Z</time></trkpt><trkpt lat="39.4005993205223" lon="17.051365581381297"><ele>83.0</ele><time>2026-03-29T12:32:49Z</time></trkpt><trkpt lat="39.40062672148941" lon="17.051446576186642"><ele>83.0</ele><time>2026-03-29T12:32:51Z</time></trkpt><trkpt lat="39.400683225304164" lon="17.051513882156296"><ele>83.0</ele><time>2026-03-29T12:32:56Z</time></trkpt><trkpt lat="39.400690288075424" lon="17.05160448525719"><ele>83.0</ele><time>2026-03-29T12:33:07Z</time></trkpt><trkpt lat="39.40071620177808" lon="17.051690594285702"><ele>83.0</ele><time>2026-03-29T12:33:14Z</time></trkpt><trkpt lat="39.40074388406416" lon="17.05177468823822"><ele>83.0</ele><time>2026-03-29T12:33:17Z</time></trkpt><trkpt lat="39.400787097105486" lon="17.0518569556884"><ele>83.0</ele><time>2026-03-29T12:33:19.999Z</time></trkpt><trkpt lat="39.40084223891766" lon="17.05192556562196"><ele>83.0</ele><time>2026-03-29T12:33:22.999Z</time></trkpt><trkpt lat="39.40090157934945" lon="17.051967958908957"><ele>83.0</ele><time>2026-03-29T12:33:25.999Z</time></trkpt><trkpt lat="39.400952091841276" lon="17.05203311041115"><ele>82.71428571428571</ele><time>2026-03-29T12:33:29.999Z</time></trkpt><trkpt lat="39.401008198216765" lon="17.052075609054206"><ele>82.42857142857143</ele><time>2026-03-29T12:33:34.999Z</time></trkpt><trkpt lat="39.40106998838523" lon="17.05213055769775"><ele>82.14285714285714</ele><time>2026-03-29T12:33:39.999Z</time></trkpt><trkpt lat="39.40110648986896" lon="17.052221333960834"><ele>81.85714285714286</ele><time>2026-03-29T12:33:42.999Z</time></trkpt><trkpt lat="39.401169654236824" lon="17.052245285753386"><ele>81.57142857142857</ele><time>2026-03-29T12:33:44.999Z</time></trkpt><trkpt lat="39.40122952495672" lon="17.05228654379872"><ele>81.28571428571429</ele><time>2026-03-29T12:33:50.999Z</time></trkpt><trkpt lat="39.40132085204064" lon="17.052304274127483"><ele>81.0</ele><time>2026-03-29T12:33:52.999Z</time></trkpt><trkpt lat="39.401391478755734" lon="17.052324341085438"><ele>81.0</ele><time>2026-03-29T12:33:53.999Z</time></trkpt><trkpt lat="39.40145950556256" lon="17.052353041784027"><ele>81.0</ele><time>2026-03-29T12:33:54.999Z</time></trkpt><trkpt lat="39.40153052943527" lon="17.05236768367391"><ele>81.0</ele><time>2026-03-29T12:33:55.999Z</time></trkpt><trkpt lat="39.4015952885678" lon="17.052376324525234"><ele>81.0</ele><time>2026-03-29T12:33:56.999Z</time></trkpt><trkpt lat="39.40170729594738" lon="17.05241778345534"><ele>81.0</ele><time>2026-03-29T12:33:58.999Z</time></trkpt><trkpt lat="39.4017579592394" lon="17.05246803101971"><ele>81.0</ele><time>2026-03-29T12:33:59.999Z</time></trkpt><trkpt lat="39.401810754421895" lon="17.052526245393928"><ele>79.6</ele><time>2026-03-29T12:34:00.999Z</time></trkpt><trkpt lat="39.401867757672406" lon="17.05257624937781"><ele>78.19999999999999</ele><time>2026-03-29T12:34:01.999Z</time></trkpt><trkpt lat="39.40196860762933" lon="17.052669548199297"><ele>76.80000000000001</ele><time>2026-03-29T12:34:03.999Z</time></trkpt><trkpt lat="39.40203689620898" lon="17.052779490722795"><ele>75.4</ele><time>2026-03-29T12:34:05.999Z</time></trkpt><trkpt lat="39.402068242712936" lon="17.052871923345695"><ele>74.0</ele><time>2026-03-29T12:34:07.999Z</time></trkpt><trkpt lat="39.402082553714365" lon="17.05296073315675"><ele>74.0</ele><time>2026-03-29T12:34:10.999Z</time></trkpt><trkpt lat="39.402096590654985" lon="17.053048271250265"><ele>74.0</ele><time>2026-03-29T12:34:20.999Z</time></trkpt><trkpt lat="39.402160069171295" lon="17.05311265811518"><ele>74.0</ele><time>2026-03-29T12:34:24.999Z</time></trkpt><trkpt lat="39.40221177568381" lon="17.05315937936578"><ele>74.0</ele><time>2026-03-29T12:34:26.999Z</time></trkpt><trkpt lat="39.40226701303283" lon="17.053219220439573"><ele>74.0</ele><time>2026-03-29T12:34:28.999Z</time></trkpt><trkpt lat="39.40230583539237" lon="17.053286249505177"><ele>74.0</ele><time>2026-03-29T12:34:30.999Z</time></trkpt><trkpt lat="39.40236267762396" lon="17.053352894462193"><ele>74.0</ele><time>2026-03-29T12:34:32.999Z</time></trkpt><trkpt lat="39.402391279654466" lon="17.0534456024189"><ele>74.16666666666667</ele><time>2026-03-29T12:34:34.999Z</time></trkpt><trkpt lat="39.40242573999239" lon="17.053532693856713"><ele>74.33333333333334</ele><time>2026-03-29T12:34:36.999Z</time></trkpt><trkpt lat="39.40245595837902" lon="17.053642161364927"><ele>74.5</ele><time>2026-03-29T12:34:39.999Z</time></trkpt><trkpt lat="39.402492878900155" lon="17.053709798538122"><ele>74.66666666666667</ele><time>2026-03-29T12:34:42.999Z</time></trkpt><trkpt lat="39.40254657257703" lon="17.05378734147433"><ele>74.83333333333333</ele><time>2026-03-29T12:34:46.999Z</time></trkpt><trkpt lat="39.402614028980665" lon="17.053854246414115"><ele>75.0</ele><time>2026-03-29T12:34:50.999Z</time></trkpt><trkpt lat="39.40265551730106" lon="17.05392091989536"><ele>74.99999999999999</ele><time>2026-03-29T12:34:54.999Z</time></trkpt><trkpt lat="39.40270738015856" lon="17.053985384839798"><ele>75.0</ele><time>2026-03-29T12:34:59.999Z</time></trkpt><trkpt lat="39.40276633974391" lon="17.054036792991784"><ele>75.0</ele><time>2026-03-29T12:35:05.999Z</time></trkpt><trkpt lat="39.40283299490883" lon="17.05409255241821"><ele>75.0</ele><time>2026-03-29T12:35:11.999Z</time></trkpt><trkpt lat="39.40287428099532" lon="17.054171065312318"><ele>75.0</ele><time>2026-03-29T12:35:17.999Z</time></trkpt><trkpt lat="39.40292967834192" lon="17.054226809428776"><ele>74.99999999999999</ele><time>2026-03-29T12:35:22.999Z</time></trkpt><trkpt lat="39.402979633836786" lon="17.054284414692567"><ele>75.0</ele><time>2026-03-29T12:35:25.999Z</time></trkpt><trkpt lat="39.403012331231686" lon="17.05436675154664"><ele>74.83333333333333</ele><time>2026-03-29T12:35:27.999Z</time></trkpt><trkpt lat="39.4030567363653" lon="17.054451659197653"><ele>74.66666666666667</ele><time>2026-03-29T12:35:29.999Z</time></trkpt><trkpt lat="39.403116514174584" lon="17.05454025626523"><ele>74.5</ele><time>2026-03-29T12:35:31.999Z</time></trkpt><trkpt lat="39.40318450979708" lon="17.0546144814102"><ele>74.33333333333334</ele><time>2026-03-29T12:35:33.999Z</time></trkpt><trkpt lat="39.40323279321024" lon="17.054716609117335"><ele>74.16666666666667</ele><time>2026-03-29T12:35:35.999Z</time></trkpt><trkpt lat="39.40328948890228" lon="17.054810003353726"><ele>74.0</ele><time>2026-03-29T12:35:37.999Z</time></trkpt><trkpt lat="39.40335607273208" lon="17.054874336477056"><ele>74.0</ele><time>2026-03-29T12:35:39.999Z</time></trkpt><trkpt lat="39.40341829092078" lon="17.054922641637198"><ele>74.0</ele><time>2026-03-29T12:35:41.999Z</time></trkpt><trkpt lat="39.4034753977886" lon="17.05496711873531"><ele>74.0</ele><time>2026-03-29T12:35:43.999Z</time></trkpt><trkpt lat="39.40353214288161" lon="17.055007691933294"><ele>74.0</ele><time>2026-03-29T12:35:45.999Z</time></trkpt><trkpt lat="39.403581004460776" lon="17.05506358769889"><ele>74.0</ele><time>2026-03-29T12:35:49.999Z</time></trkpt><trkpt lat="39.40359727041915" lon="17.055171986595276"><ele>74.0</ele><time>2026-03-29T12:35:56.999Z</time></trkpt><trkpt lat="39.40355780980578" lon="17.05524207502337"><ele>74.0</ele><time>2026-03-29T12:35:57.999Z</time></trkpt><trkpt lat="39.40352165364752" lon="17.05532218802691"><ele>72.60000000000001</ele><time>2026-03-29T12:35:58.999Z</time></trkpt><trkpt lat="39.40348579952609" lon="17.05539469848051"><ele>71.2</ele><time>2026-03-29T12:35:59.999Z</time></trkpt><trkpt lat="39.4034321737726" lon="17.055511476764714"><ele>69.80000000000001</ele><time>2026-03-29T12:36:01.999Z</time></trkpt><trkpt lat="39.40340632541168" lon="17.05562532087255"><ele>68.4</ele><time>2026-03-29T12:36:03.999Z</time></trkpt><trkpt lat="39.40339101531024" lon="17.055746902025913"><ele>67.0</ele><time>2026-03-29T12:36:05.999Z</time></trkpt><trkpt lat="39.40337864534851" lon="17.05588285928138"><ele>66.4</ele><time>2026-03-29T12:36:07.999Z</time></trkpt><trkpt lat="39.40338118253368" lon="17.05602551614473"><ele>65.80000000000001</ele><time>2026-03-29T12:36:09.999Z</time></trkpt><trkpt lat="39.40340049236887" lon="17.056196990603087"><ele>65.2</ele><time>2026-03-29T12:36:11.999Z</time></trkpt><trkpt lat="39.40341666913033" lon="17.056293093578223"><ele>64.60000000000001</ele><time>2026-03-29T12:36:12.999Z</time></trkpt><trkpt lat="39.40343800696529" lon="17.056381993167307"><ele>64.0</ele><time>2026-03-29T12:36:13.999Z</time></trkpt><trkpt lat="39.40345481516865" lon="17.056467243282597"><ele>63.99999999999999</ele><time>2026-03-29T12:36:14.999Z</time></trkpt><trkpt lat="39.40349044078526" lon="17.056578663404775"><ele>64.0</ele><time>2026-03-29T12:36:16.999Z</time></trkpt><trkpt lat="39.40354367242711" lon="17.05664517454465"><ele>64.0</ele><time>2026-03-29T12:36:18.999Z</time></trkpt><trkpt lat="39.40359498932389" lon="17.056721409398307"><ele>64.0</ele><time>2026-03-29T12:36:20.999Z</time></trkpt><trkpt lat="39.4036422275722" lon="17.056803729270378"><ele>63.99999999999999</ele><time>2026-03-29T12:36:22.999Z</time></trkpt><trkpt lat="39.40372428736607" lon="17.056895331325162"><ele>64.0</ele><time>2026-03-29T12:36:24.999Z</time></trkpt><trkpt lat="39.403767718488645" lon="17.05696709236169"><ele>63.99999999999999</ele><time>2026-03-29T12:36:25.999Z</time></trkpt><trkpt lat="39.40379754870299" lon="17.05705143570278"><ele>64.0</ele><time>2026-03-29T12:36:26.999Z</time></trkpt><trkpt lat="39.40381393398608" lon="17.057149380369506"><ele>64.0</ele><time>2026-03-29T12:36:27.999Z</time></trkpt><trkpt lat="39.403822217076566" lon="17.057257469203698"><ele>64.0</ele><time>2026-03-29T12:36:28.999Z</time></trkpt><trkpt lat="39.403834101385435" lon="17.057357484824514"><ele>63.99999999999999</ele><time>2026-03-29T12:36:29.999Z</time></trkpt><trkpt lat="39.403855159725836" lon="17.05744047778211"><ele>64.0</ele><time>2026-03-29T12:36:30.999Z</time></trkpt><trkpt lat="39.40389645226661" lon="17.057563028725383"><ele>63.99999999999999</ele><time>2026-03-29T12:36:32.999Z</time></trkpt><trkpt lat="39.403946227800795" lon="17.057637550067763"><ele>64.0</ele><time>2026-03-29T12:36:35.999Z</time></trkpt><trkpt lat="39.403994587705704" lon="17.057690127512704"><ele>64.0</ele><time>2026-03-29T12:36:38.999Z</time></trkpt><trkpt lat="39.40407009782987" lon="17.057709074141336"><ele>64.0</ele><time>2026-03-29T12:36:45.999Z</time></trkpt><trkpt lat="39.404129332783164" lon="17.057770100917654"><ele>63.99999999999999</ele><time>2026-03-29T12:36:48.999Z</time></trkpt><trkpt lat="39.404185602128756" lon="17.0578708184044"><ele>64.0</ele><time>2026-03-29T12:36:51.999Z</time></trkpt><trkpt lat="39.40425546751533" lon="17.05792915158064"><ele>64.0</ele><time>2026-03-29T12:36:53.999Z</time></trkpt><trkpt lat="39.40432333155355" lon="17.058016640736582"><ele>64.0</ele><time>2026-03-29T12:36:55.998Z</time></trkpt><trkpt lat="39.404378302559714" lon="17.058156815072888"><ele>64.0</ele><time>2026-03-29T12:36:57.998Z</time></trkpt><trkpt lat="39.40440670626618" lon="17.058243117547608"><ele>64.0</ele><time>2026-03-29T12:36:58.998Z</time></trkpt><trkpt lat="39.404437244607834" lon="17.058321570911193"><ele>64.0</ele><time>2026-03-29T12:36:59.998Z</time></trkpt><trkpt lat="39.40450592184863" lon="17.058455849129384"><ele>64.0</ele><time>2026-03-29T12:37:01.998Z</time></trkpt><trkpt lat="39.40454551988104" lon="17.058520360049048"><ele>63.99999999999999</ele><time>2026-03-29T12:37:02.998Z</time></trkpt><trkpt lat="39.404584593207765" lon="17.05858748011288"><ele>64.0</ele><time>2026-03-29T12:37:03.998Z</time></trkpt><trkpt lat="39.40462650546842" lon="17.058655748865494"><ele>64.0</ele><time>2026-03-29T12:37:04.998Z</time></trkpt><trkpt lat="39.40467125650867" lon="17.05872160042204"><ele>63.99999999999999</ele><time>2026-03-29T12:37:05.998Z</time></trkpt><trkpt lat="39.40471561106289" lon="17.05878613321554"><ele>64.0</ele><time>2026-03-29T12:37:06.998Z</time></trkpt><trkpt lat="39.40475959140269" lon="17.058846862433576"><ele>64.0</ele><time>2026-03-29T12:37:07.998Z</time></trkpt><trkpt lat="39.40480996496873" lon="17.058906166246597"><ele>63.99999999999999</ele><time>2026-03-29T12:37:08.998Z</time></trkpt><trkpt lat="39.40485757880723" lon="17.058962306275525"><ele>64.0</ele><time>2026-03-29T12:37:09.998Z</time></trkpt><trkpt lat="39.40494860914452" lon="17.05906694125401"><ele>64.0</ele><time>2026-03-29T12:37:11.998Z</time></trkpt><trkpt lat="39.40498628213562" lon="17.059134878958552"><ele>64.0</ele><time>2026-03-29T12:37:12.998Z</time></trkpt><trkpt lat="39.405024701688305" lon="17.05920290177205"><ele>63.99999999999999</ele><time>2026-03-29T12:37:13.998Z</time></trkpt><trkpt lat="39.405040950479574" lon="17.059293045539665"><ele>64.0</ele><time>2026-03-29T12:37:14.998Z</time></trkpt><trkpt lat="39.405052142849904" lon="17.05938606785032"><ele>62.6</ele><time>2026-03-29T12:37:15.998Z</time></trkpt><trkpt lat="39.405069769934855" lon="17.059480607710483"><ele>61.2</ele><time>2026-03-29T12:37:16.998Z</time></trkpt><trkpt lat="39.40508728815653" lon="17.059576002576055"><ele>59.800000000000004</ele><time>2026-03-29T12:37:17.998Z</time></trkpt><trkpt lat="39.405082084983164" lon="17.05966463140783"><ele>58.400000000000006</ele><time>2026-03-29T12:37:18.998Z</time></trkpt><trkpt lat="39.405030101043394" lon="17.05980877439386"><ele>57.0</ele><time>2026-03-29T12:37:20.998Z</time></trkpt><trkpt lat="39.405004959998124" lon="17.059971021884746"><ele>57.0</ele><time>2026-03-29T12:37:22.998Z</time></trkpt><trkpt lat="39.40498717208913" lon="17.060065309089705"><ele>57.0</ele><time>2026-03-29T12:37:23.998Z</time></trkpt><trkpt lat="39.40497033367489" lon="17.060163778354713"><ele>57.0</ele><time>2026-03-29T12:37:24.998Z</time></trkpt><trkpt lat="39.40495383109198" lon="17.060272451852313"><ele>57.0</ele><time>2026-03-29T12:37:25.998Z</time></trkpt><trkpt lat="39.40493278356497" lon="17.060373978730595"><ele>57.0</ele><time>2026-03-29T12:37:26.998Z</time></trkpt><trkpt lat="39.40490323061582" lon="17.06045304211887"><ele>57.0</ele><time>2026-03-29T12:37:27.998Z</time></trkpt><trkpt lat="39.404861024581535" lon="17.060578238843885"><ele>57.0</ele><time>2026-03-29T12:37:29.998Z</time></trkpt><trkpt lat="39.40481423816244" lon="17.060672552135316"><ele>57.0</ele><time>2026-03-29T12:37:31.998Z</time></trkpt><trkpt lat="39.404743720961925" lon="17.060780787813105"><ele>57.0</ele><time>2026-03-29T12:37:33.998Z</time></trkpt><trkpt lat="39.404674614280154" lon="17.060893949910064"><ele>57.0</ele><time>2026-03-29T12:37:35.998Z</time></trkpt><trkpt lat="39.40465505796478" lon="17.061005213758484"><ele>57.0</ele><time>2026-03-29T12:37:37.998Z</time></trkpt><trkpt lat="39.4046754182284" lon="17.061124586286898"><ele>56.5</ele><time>2026-03-29T12:37:39.998Z</time></trkpt><trkpt lat="39.40476516740435" lon="17.06124020401086"><ele>56.0</ele><time>2026-03-29T12:37:41.998Z</time></trkpt><trkpt lat="39.404818548133" lon="17.0612957503173"><ele>55.5</ele><time>2026-03-29T12:37:42.998Z</time></trkpt><trkpt lat="39.404878330462076" lon="17.06135555090041"><ele>55.0</ele><time>2026-03-29T12:37:43.998Z</time></trkpt><trkpt lat="39.404954051993734" lon="17.061395250701647"><ele>54.5</ele><time>2026-03-29T12:37:44.998Z</time></trkpt><trkpt lat="39.405032404294616" lon="17.061438250982484"><ele>54.0</ele><time>2026-03-29T12:37:45.998Z</time></trkpt><trkpt lat="39.40510984203289" lon="17.061484032599314"><ele>54.0</ele><time>2026-03-29T12:37:46.998Z</time></trkpt><trkpt lat="39.40517432949423" lon="17.061519616802034"><ele>54.0</ele><time>2026-03-29T12:37:47.998Z</time></trkpt><trkpt lat="39.40526720314143" lon="17.06157529835753"><ele>54.0</ele><time>2026-03-29T12:37:49.998Z</time></trkpt><trkpt lat="39.40528630075969" lon="17.06171763064141"><ele>54.0</ele><time>2026-03-29T12:37:51.998Z</time></trkpt><trkpt lat="39.40528283683279" lon="17.061800170634715"><ele>54.0</ele><time>2026-03-29T12:37:52.998Z</time></trkpt><trkpt lat="39.40529842404329" lon="17.061927891949086"><ele>54.0</ele><time>2026-03-29T12:37:54.998Z</time></trkpt><trkpt lat="39.405340197095136" lon="17.06199698236209"><ele>54.0</ele><time>2026-03-29T12:37:55.998Z</time></trkpt><trkpt lat="39.405400861063285" lon="17.062073730557227"><ele>54.0</ele><time>2026-03-29T12:37:56.998Z</time></trkpt><trkpt lat="39.4054533837712" lon="17.062155848051322"><ele>54.0</ele><time>2026-03-29T12:37:57.998Z</time></trkpt><trkpt lat="39.40549470284883" lon="17.062242297786863"><ele>54.0</ele><time>2026-03-29T12:37:58.998Z</time></trkpt><trkpt lat="39.405525335910205" lon="17.062335142828978"><ele>54.0</ele><time>2026-03-29T12:37:59.998Z</time></trkpt><trkpt lat="39.40555257149857" lon="17.062422292329444"><ele>54.0</ele><time>2026-03-29T12:38:00.998Z</time></trkpt><trkpt lat="39.40556943834603" lon="17.062505604466118"><ele>53.666666666666664</ele><time>2026-03-29T12:38:01.998Z</time></trkpt><trkpt lat="39.40556420860408" lon="17.06259900201537"><ele>53.33333333333333</ele><time>2026-03-29T12:38:02.998Z</time></trkpt><trkpt lat="39.40554516673631" lon="17.062703938712893"><ele>53.0</ele><time>2026-03-29T12:38:03.998Z</time></trkpt><trkpt lat="39.4055220876454" lon="17.062805813423555"><ele>52.666666666666664</ele><time>2026-03-29T12:38:04.998Z</time></trkpt><trkpt lat="39.40549963370257" lon="17.062898824982128"><ele>52.33333333333333</ele><time>2026-03-29T12:38:05.998Z</time></trkpt><trkpt lat="39.40548025913929" lon="17.063030210615835"><ele>52.0</ele><time>2026-03-29T12:38:07.998Z</time></trkpt><trkpt lat="39.40549800182344" lon="17.063137729233915"><ele>52.0</ele><time>2026-03-29T12:38:09.998Z</time></trkpt><trkpt lat="39.40550790862907" lon="17.063238575228535"><ele>52.0</ele><time>2026-03-29T12:38:11.998Z</time></trkpt><trkpt lat="39.40551569153554" lon="17.063337146145077"><ele>52.0</ele><time>2026-03-29T12:38:13.998Z</time></trkpt><trkpt lat="39.40552932019052" lon="17.063450355217732"><ele>52.0</ele><time>2026-03-29T12:38:15.998Z</time></trkpt><trkpt lat="39.40559274565591" lon="17.063585802095293"><ele>52.0</ele><time>2026-03-29T12:38:17.998Z</time></trkpt><trkpt lat="39.40566089841462" lon="17.063679068134046"><ele>51.666666666666664</ele><time>2026-03-29T12:38:19.998Z</time></trkpt><trkpt lat="39.40572446675265" lon="17.063736358954046"><ele>51.33333333333333</ele><time>2026-03-29T12:38:21.998Z</time></trkpt><trkpt lat="39.405795635000786" lon="17.063833599999345"><ele>51.0</ele><time>2026-03-29T12:38:23.998Z</time></trkpt><trkpt lat="39.40583822912568" lon="17.063974681401703"><ele>50.66666666666667</ele><time>2026-03-29T12:38:25.998Z</time></trkpt><trkpt lat="39.40584780287454" lon="17.064057886858038"><ele>50.333333333333336</ele><time>2026-03-29T12:38:26.998Z</time></trkpt><trkpt lat="39.40585904599391" lon="17.06414128523809"><ele>50.0</ele><time>2026-03-29T12:38:27.998Z</time></trkpt><trkpt lat="39.40588180167004" lon="17.064225062042265"><ele>50.00000000000001</ele><time>2026-03-29T12:38:28.998Z</time></trkpt><trkpt lat="39.40589654100914" lon="17.064306880933124"><ele>50.0</ele><time>2026-03-29T12:38:29.998Z</time></trkpt><trkpt lat="39.40589901261858" lon="17.064392750349597"><ele>50.0</ele><time>2026-03-29T12:38:30.998Z</time></trkpt><trkpt lat="39.405899895716715" lon="17.064480842054316"><ele>50.0</ele><time>2026-03-29T12:38:31.998Z</time></trkpt><trkpt lat="39.405895257205785" lon="17.06462102994049"><ele>50.00000000000001</ele><time>2026-03-29T12:38:33.998Z</time></trkpt><trkpt lat="39.405909853756114" lon="17.064718742457917"><ele>50.0</ele><time>2026-03-29T12:38:36.998Z</time></trkpt><trkpt lat="39.405909050784636" lon="17.064819419550215"><ele>50.0</ele><time>2026-03-29T12:38:40.998Z</time></trkpt><trkpt lat="39.40592861325615" lon="17.064926615861463"><ele>50.0</ele><time>2026-03-29T12:38:43.998Z</time></trkpt><trkpt lat="39.40597652187631" lon="17.06505092118271"><ele>50.0</ele><time>2026-03-29T12:38:45.998Z</time></trkpt><trkpt lat="39.406041905453094" lon="17.065188218387963"><ele>50.0</ele><time>2026-03-29T12:38:47.998Z</time></trkpt><trkpt lat="39.40611513581081" lon="17.065305844911627"><ele>50.0</ele><time>2026-03-29T12:38:49.998Z</time></trkpt><trkpt lat="39.406114695643915" lon="17.06543509535096"><ele>50.0</ele><time>2026-03-29T12:38:51.998Z</time></trkpt><trkpt lat="39.4060913771343" lon="17.065583280468775"><ele>50.0</ele><time>2026-03-29T12:38:53.998Z</time></trkpt><trkpt lat="39.40604214152128" lon="17.065706388906694"><ele>50.0</ele><time>2026-03-29T12:38:55.998Z</time></trkpt><trkpt lat="39.40601394017719" lon="17.06579452783607"><ele>50.0</ele><time>2026-03-29T12:38:57.998Z</time></trkpt><trkpt lat="39.4059773707972" lon="17.065908363355867"><ele>50.0</ele><time>2026-03-29T12:39:00.998Z</time></trkpt><trkpt lat="39.405940371463174" lon="17.06602490980743"><ele>50.00000000000001</ele><time>2026-03-29T12:39:02.998Z</time></trkpt><trkpt lat="39.40594522988529" lon="17.0661667278308"><ele>50.0</ele><time>2026-03-29T12:39:04.998Z</time></trkpt><trkpt lat="39.40593070271617" lon="17.06629808971951"><ele>50.0</ele><time>2026-03-29T12:39:07.001Z</time></trkpt><trkpt lat="39.40590345016714" lon="17.066380343400283"><ele>50.0</ele><time>2026-03-29T12:39:09.001Z</time></trkpt><trkpt lat="39.40587385433261" lon="17.0664585263695"><ele>50.00000000000001</ele><time>2026-03-29T12:39:11.001Z</time></trkpt><trkpt lat="39.40582803430683" lon="17.066562625266403"><ele>50.0</ele><time>2026-03-29T12:39:14.001Z</time></trkpt><trkpt lat="39.405809426390796" lon="17.066657476631526"><ele>51.6</ele><time>2026-03-29T12:39:16.001Z</time></trkpt><trkpt lat="39.40581455136829" lon="17.06675167109266"><ele>53.2</ele><time>2026-03-29T12:39:18.001Z</time></trkpt><trkpt lat="39.40580769247089" lon="17.066869147872897"><ele>54.8</ele><time>2026-03-29T12:39:20.001Z</time></trkpt><trkpt lat="39.40581506296013" lon="17.067007901853724"><ele>56.4</ele><time>2026-03-29T12:39:22.001Z</time></trkpt><trkpt lat="39.40581849856793" lon="17.067159224731697"><ele>58.0</ele><time>2026-03-29T12:39:24Z</time></trkpt><trkpt lat="39.40582003151144" lon="17.067287696714263"><ele>57.99999999999999</ele><time>2026-03-29T12:39:26Z</time></trkpt><trkpt lat="39.40579609976444" lon="17.067433980217885"><ele>58.0</ele><time>2026-03-29T12:39:28Z</time></trkpt><trkpt lat="39.40576985721658" lon="17.06751752116323"><ele>58.0</ele><time>2026-03-29T12:39:29Z</time></trkpt><trkpt lat="39.40575501946741" lon="17.067611932236208"><ele>58.0</ele><time>2026-03-29T12:39:30Z</time></trkpt><trkpt lat="39.405736049103425" lon="17.067706569366205"><ele>57.99999999999999</ele><time>2026-03-29T12:39:31Z</time></trkpt><trkpt lat="39.40572119044273" lon="17.067805903313662"><ele>58.0</ele><time>2026-03-29T12:39:32Z</time></trkpt><trkpt lat="39.40571350321708" lon="17.067913583610935"><ele>60.33333333333333</ele><time>2026-03-29T12:39:33Z</time></trkpt><trkpt lat="39.4056776975508" lon="17.067998337931826"><ele>62.666666666666664</ele><time>2026-03-29T12:39:34Z</time></trkpt><trkpt lat="39.40562282557599" lon="17.06814217565423"><ele>65.0</ele><time>2026-03-29T12:39:36Z</time></trkpt><trkpt lat="39.40558838315922" lon="17.068225024459185"><ele>67.33333333333333</ele><time>2026-03-29T12:39:37Z</time></trkpt><trkpt lat="39.405544153651775" lon="17.068314010505713"><ele>69.66666666666667</ele><time>2026-03-29T12:39:38Z</time></trkpt><trkpt lat="39.40549387200892" lon="17.06839717818054"><ele>72.0</ele><time>2026-03-29T12:39:39Z</time></trkpt><trkpt lat="39.40551184664804" lon="17.068494371788397"><ele>73.5</ele><time>2026-03-29T12:39:40Z</time></trkpt><trkpt lat="39.40550768460572" lon="17.068610636857517"><ele>75.0</ele><time>2026-03-29T12:39:42Z</time></trkpt><trkpt lat="39.40548765224558" lon="17.068821751568755"><ele>76.5</ele><time>2026-03-29T12:39:43Z</time></trkpt><trkpt lat="39.40547724622861" lon="17.068931417517188"><ele>78.0</ele><time>2026-03-29T12:39:46Z</time></trkpt><trkpt lat="39.405298326100336" lon="17.068888374094776"><ele>78.2</ele><time>2026-03-29T12:39:48Z</time></trkpt><trkpt lat="39.40522946810678" lon="17.068889629080704"><ele>78.4</ele><time>2026-03-29T12:39:50Z</time></trkpt><trkpt lat="39.40508969559142" lon="17.068894504386158"><ele>78.60000000000001</ele><time>2026-03-29T12:39:52Z</time></trkpt><trkpt lat="39.405001627906294" lon="17.06890483554792"><ele>78.8</ele><time>2026-03-29T12:39:53Z</time></trkpt><trkpt lat="39.40491570646423" lon="17.068929421713428"><ele>79.0</ele><time>2026-03-29T12:39:54Z</time></trkpt><trkpt lat="39.40482071853664" lon="17.068966274915983"><ele>79.0</ele><time>2026-03-29T12:39:55Z</time></trkpt><trkpt lat="39.40471098857866" lon="17.06902798249017"><ele>79.0</ele><time>2026-03-29T12:39:56Z</time></trkpt><trkpt lat="39.40459747643689" lon="17.069116995853065"><ele>79.0</ele><time>2026-03-29T12:39:57Z</time></trkpt><trkpt lat="39.40450001524509" lon="17.06921790270156"><ele>79.0</ele><time>2026-03-29T12:39:58Z</time></trkpt><trkpt lat="39.40438792641108" lon="17.06935740382114"><ele>79.0</ele><time>2026-03-29T12:39:59Z</time></trkpt><trkpt lat="39.4042787128634" lon="17.069502831337594"><ele>79.0</ele><time>2026-03-29T12:40:00Z</time></trkpt><trkpt lat="39.404172137542794" lon="17.069646399855934"><ele>79.0</ele><time>2026-03-29T12:40:01Z</time></trkpt><trkpt lat="39.40406227215537" lon="17.069792783392426"><ele>79.0</ele><time>2026-03-29T12:40:02Z</time></trkpt><trkpt lat="39.40394922125436" lon="17.0699394572516"><ele>79.0</ele><time>2026-03-29T12:40:03Z</time></trkpt><trkpt lat="39.40383192540121" lon="17.07009163863162"><ele>79.0</ele><time>2026-03-29T12:40:04Z</time></trkpt><trkpt lat="39.40371498177612" lon="17.07024336297977"><ele>79.25</ele><time>2026-03-29T12:40:05Z</time></trkpt><trkpt lat="39.40361048153102" lon="17.07038402554493"><ele>79.5</ele><time>2026-03-29T12:40:06Z</time></trkpt><trkpt lat="39.40351356737031" lon="17.07051610513585"><ele>79.75</ele><time>2026-03-29T12:40:07Z</time></trkpt><trkpt lat="39.40340523246137" lon="17.070654248177703"><ele>80.0</ele><time>2026-03-29T12:40:08Z</time></trkpt><trkpt lat="39.403290913060665" lon="17.07077668139704"><ele>80.0</ele><time>2026-03-29T12:40:09Z</time></trkpt><trkpt lat="39.403162594128936" lon="17.070875282355075"><ele>80.0</ele><time>2026-03-29T12:40:10Z</time></trkpt><trkpt lat="39.403036547421635" lon="17.070953487500194"><ele>80.0</ele><time>2026-03-29T12:40:11Z</time></trkpt><trkpt lat="39.40291645099268" lon="17.071003949819076"><ele>80.0</ele><time>2026-03-29T12:40:12Z</time></trkpt><trkpt lat="39.40278530166506" lon="17.071038193836944"><ele>80.33333333333334</ele><time>2026-03-29T12:40:13Z</time></trkpt><trkpt lat="39.402641162446116" lon="17.071049978011732"><ele>80.66666666666667</ele><time>2026-03-29T12:40:14Z</time></trkpt><trkpt lat="39.40247041911778" lon="17.071041999074687"><ele>81.0</ele><time>2026-03-29T12:40:15Z</time></trkpt><trkpt lat="39.40229053215499" lon="17.071039642116425"><ele>80.66666666666667</ele><time>2026-03-29T12:40:16Z</time></trkpt><trkpt lat="39.40210424407586" lon="17.071011342554847"><ele>80.33333333333334</ele><time>2026-03-29T12:40:17Z</time></trkpt><trkpt lat="39.40192467246905" lon="17.070978248103767"><ele>80.0</ele><time>2026-03-29T12:40:18Z</time></trkpt><trkpt lat="39.401753286606606" lon="17.07098636317352"><ele>80.0</ele><time>2026-03-29T12:40:19Z</time></trkpt><trkpt lat="39.401565697386495" lon="17.0709650711733"><ele>80.0</ele><time>2026-03-29T12:40:20Z</time></trkpt><trkpt lat="39.40138183404095" lon="17.071056962642636"><ele>80.0</ele><time>2026-03-29T12:40:21Z</time></trkpt><trkpt lat="39.401224602693695" lon="17.071085053254617"><ele>79.66666666666667</ele><time>2026-03-29T12:40:22Z</time></trkpt><trkpt lat="39.40106171168625" lon="17.071105132764796"><ele>79.33333333333333</ele><time>2026-03-29T12:40:23Z</time></trkpt><trkpt lat="39.40090727131887" lon="17.07111249993067"><ele>79.0</ele><time>2026-03-29T12:40:24Z</time></trkpt><trkpt lat="39.40076153230723" lon="17.071116499502317"><ele>79.0</ele><time>2026-03-29T12:40:25Z</time></trkpt><trkpt lat="39.40061532482659" lon="17.07112806232571"><ele>79.0</ele><time>2026-03-29T12:40:26Z</time></trkpt><trkpt lat="39.40048060866903" lon="17.07118280903414"><ele>79.0</ele><time>2026-03-29T12:40:27Z</time></trkpt><trkpt lat="39.40034078489967" lon="17.071198356051543"><ele>79.0</ele><time>2026-03-29T12:40:28Z</time></trkpt><trkpt lat="39.40020038223993" lon="17.071223163081466"><ele>80.25</ele><time>2026-03-29T12:40:29Z</time></trkpt><trkpt lat="39.40006522820089" lon="17.071246104618446"><ele>81.5</ele><time>2026-03-29T12:40:30Z</time></trkpt><trkpt lat="39.399933078913975" lon="17.071308263023237"><ele>82.75</ele><time>2026-03-29T12:40:31Z</time></trkpt><trkpt lat="39.39981580549701" lon="17.071387724046062"><ele>84.0</ele><time>2026-03-29T12:40:32Z</time></trkpt><trkpt lat="39.39969218710591" lon="17.071460499111733"><ele>85.0</ele><time>2026-03-29T12:40:33Z</time></trkpt><trkpt lat="39.39957436517287" lon="17.071557381330262"><ele>86.0</ele><time>2026-03-29T12:40:34Z</time></trkpt><trkpt lat="39.39944872492921" lon="17.071642982465022"><ele>87.0</ele><time>2026-03-29T12:40:35Z</time></trkpt><trkpt lat="39.39933093216446" lon="17.07170648057605"><ele>88.0</ele><time>2026-03-29T12:40:36Z</time></trkpt><trkpt lat="39.39918600811795" lon="17.071774561672818"><ele>88.0</ele><time>2026-03-29T12:40:37Z</time></trkpt><trkpt lat="39.39903779681625" lon="17.071829475628764"><ele>88.0</ele><time>2026-03-29T12:40:38Z</time></trkpt><trkpt lat="39.398885797987724" lon="17.071891637170584"><ele>88.0</ele><time>2026-03-29T12:40:39Z</time></trkpt><trkpt lat="39.39872654849856" lon="17.071929737905414"><ele>89.33333333333333</ele><time>2026-03-29T12:40:40Z</time></trkpt><trkpt lat="39.39857354466567" lon="17.071967159733987"><ele>90.66666666666667</ele><time>2026-03-29T12:40:41Z</time></trkpt><trkpt lat="39.398418976638" lon="17.072026623083737"><ele>92.0</ele><time>2026-03-29T12:40:42Z</time></trkpt><trkpt lat="39.39826142614172" lon="17.072080263403773"><ele>92.0</ele><time>2026-03-29T12:40:43Z</time></trkpt><trkpt lat="39.39809362750296" lon="17.072131674234683"><ele>92.0</ele><time>2026-03-29T12:40:44Z</time></trkpt><trkpt lat="39.3979270745598" lon="17.07221564869658"><ele>92.0</ele><time>2026-03-29T12:40:45Z</time></trkpt><trkpt lat="39.397756531487516" lon="17.07230808869905"><ele>91.0</ele><time>2026-03-29T12:40:46Z</time></trkpt><trkpt lat="39.39758012068349" lon="17.07241868643659"><ele>90.0</ele><time>2026-03-29T12:40:47Z</time></trkpt><trkpt lat="39.397401816781326" lon="17.072516852814193"><ele>89.0</ele><time>2026-03-29T12:40:48Z</time></trkpt><trkpt lat="39.397253983350275" lon="17.07264993231562"><ele>91.66666666666667</ele><time>2026-03-29T12:40:49Z</time></trkpt><trkpt lat="39.397098326685786" lon="17.072752931825725"><ele>94.33333333333334</ele><time>2026-03-29T12:40:50Z</time></trkpt><trkpt lat="39.3969523074551" lon="17.07288005040088"><ele>97.0</ele><time>2026-03-29T12:40:51Z</time></trkpt><trkpt lat="39.396804800140735" lon="17.072978446749744"><ele>97.0</ele><time>2026-03-29T12:40:52Z</time></trkpt><trkpt lat="39.396651613838515" lon="17.073093112098224"><ele>97.0</ele><time>2026-03-29T12:40:53Z</time></trkpt><trkpt lat="39.39650208727432" lon="17.073193651519414"><ele>97.0</ele><time>2026-03-29T12:40:54Z</time></trkpt><trkpt lat="39.39636936886514" lon="17.07332084414418"><ele>97.0</ele><time>2026-03-29T12:40:55Z</time></trkpt><trkpt lat="39.39624272969392" lon="17.07342648794633"><ele>97.0</ele><time>2026-03-29T12:40:56Z</time></trkpt><trkpt lat="39.39613363157069" lon="17.07352483200521"><ele>97.0</ele><time>2026-03-29T12:40:57Z</time></trkpt><trkpt lat="39.39604270664046" lon="17.073629445496394"><ele>97.0</ele><time>2026-03-29T12:40:58Z</time></trkpt><trkpt lat="39.39594952047193" lon="17.07371229600419"><ele>97.0</ele><time>2026-03-29T12:40:59Z</time></trkpt><trkpt lat="39.39587200318581" lon="17.073782549366154"><ele>97.0</ele><time>2026-03-29T12:41:00Z</time></trkpt><trkpt lat="39.39580078537194" lon="17.073827528469455"><ele>97.0</ele><time>2026-03-29T12:41:01Z</time></trkpt><trkpt lat="39.395707155301686" lon="17.07389013552396"><ele>97.0</ele><time>2026-03-29T12:41:03Z</time></trkpt><trkpt lat="39.39575450727162" lon="17.073961958481387"><ele>97.0</ele><time>2026-03-29T12:41:06Z</time></trkpt><trkpt lat="39.395901284398974" lon="17.073979530820644"><ele>97.00000000000001</ele><time>2026-03-29T12:41:10Z</time></trkpt><trkpt lat="39.39596252301575" lon="17.07404046210091"><ele>97.0</ele><time>2026-03-29T12:41:12Z</time></trkpt><trkpt lat="39.39603810853113" lon="17.074056693262612"><ele>97.0</ele><time>2026-03-29T12:41:14Z</time></trkpt><trkpt lat="39.396152915682165" lon="17.074046134318262"><ele>97.0</ele><time>2026-03-29T12:41:16Z</time></trkpt><trkpt lat="39.39622224218296" lon="17.074007305179247"><ele>97.00000000000001</ele><time>2026-03-29T12:41:17Z</time></trkpt><trkpt lat="39.39628757160409" lon="17.07397398835952"><ele>97.0</ele><time>2026-03-29T12:41:18Z</time></trkpt><trkpt lat="39.3963518333405" lon="17.073976678205725"><ele>95.39999999999999</ele><time>2026-03-29T12:41:19Z</time></trkpt><trkpt lat="39.39643799313295" lon="17.07399896806366"><ele>93.8</ele><time>2026-03-29T12:41:20Z</time></trkpt><trkpt lat="39.39653091284992" lon="17.074066721991926"><ele>92.2</ele><time>2026-03-29T12:41:21Z</time></trkpt><trkpt lat="39.39661372400713" lon="17.074172099696916"><ele>90.6</ele><time>2026-03-29T12:41:22Z</time></trkpt><trkpt lat="39.39668686686281" lon="17.074278476430184"><ele>89.0</ele><time>2026-03-29T12:41:23Z</time></trkpt><trkpt lat="39.396768939589464" lon="17.074369165340276"><ele>88.80000000000001</ele><time>2026-03-29T12:41:24Z</time></trkpt><trkpt lat="39.396836831942295" lon="17.074459483432346"><ele>88.60000000000001</ele><time>2026-03-29T12:41:25Z</time></trkpt><trkpt lat="39.39690599738449" lon="17.074553336465502"><ele>88.4</ele><time>2026-03-29T12:41:26Z</time></trkpt><trkpt lat="39.39698251626276" lon="17.07464055250837"><ele>88.2</ele><time>2026-03-29T12:41:27Z</time></trkpt><trkpt lat="39.39705000280432" lon="17.07473445405973"><ele>88.0</ele><time>2026-03-29T12:41:28Z</time></trkpt><trkpt lat="39.39712753840375" lon="17.074828206513892"><ele>86.60000000000001</ele><time>2026-03-29T12:41:29Z</time></trkpt><trkpt lat="39.39720393297534" lon="17.074908897101796"><ele>85.2</ele><time>2026-03-29T12:41:30Z</time></trkpt><trkpt lat="39.39728578836464" lon="17.074985056802532"><ele>83.8</ele><time>2026-03-29T12:41:31Z</time></trkpt><trkpt lat="39.39738665651409" lon="17.07506318530051"><ele>82.4</ele><time>2026-03-29T12:41:32Z</time></trkpt><trkpt lat="39.39748332184074" lon="17.07515613106812"><ele>81.0</ele><time>2026-03-29T12:41:33Z</time></trkpt><trkpt lat="39.39756645468868" lon="17.075253106646414"><ele>81.0</ele><time>2026-03-29T12:41:34Z</time></trkpt><trkpt lat="39.39764788824861" lon="17.075354017511696"><ele>81.0</ele><time>2026-03-29T12:41:35Z</time></trkpt><trkpt lat="39.39773849271954" lon="17.075454507077428"><ele>81.0</ele><time>2026-03-29T12:41:36Z</time></trkpt><trkpt lat="39.39784974916907" lon="17.07553374767009"><ele>81.0</ele><time>2026-03-29T12:41:37Z</time></trkpt><trkpt lat="39.39794085716086" lon="17.07561996856181"><ele>80.6</ele><time>2026-03-29T12:41:38Z</time></trkpt><trkpt lat="39.398026594707666" lon="17.075703699768432"><ele>80.19999999999999</ele><time>2026-03-29T12:41:39Z</time></trkpt><trkpt lat="39.3981130118093" lon="17.075777699174512"><ele>79.80000000000001</ele><time>2026-03-29T12:41:40Z</time></trkpt><trkpt lat="39.398206805240974" lon="17.07586105242534"><ele>79.4</ele><time>2026-03-29T12:41:41Z</time></trkpt><trkpt lat="39.39830689070529" lon="17.07590901339687"><ele>79.0</ele><time>2026-03-29T12:41:42Z</time></trkpt><trkpt lat="39.398391189497666" lon="17.07592055912127"><ele>79.0</ele><time>2026-03-29T12:41:42.999Z</time></trkpt><trkpt lat="39.398478125805646" lon="17.07594285653168"><ele>79.0</ele><time>2026-03-29T12:41:43.999Z</time></trkpt><trkpt lat="39.39856271530871" lon="17.075994487684206"><ele>79.0</ele><time>2026-03-29T12:41:44.999Z</time></trkpt><trkpt lat="39.39865567347189" lon="17.07604443133794"><ele>79.0</ele><time>2026-03-29T12:41:45.999Z</time></trkpt><trkpt lat="39.39874946794898" lon="17.076109663286548"><ele>79.0</ele><time>2026-03-29T12:41:46.999Z</time></trkpt><trkpt lat="39.39883737787243" lon="17.07616939735826"><ele>78.2</ele><time>2026-03-29T12:41:47.999Z</time></trkpt><trkpt lat="39.3989368459899" lon="17.07622940351628"><ele>77.4</ele><time>2026-03-29T12:41:48.999Z</time></trkpt><trkpt lat="39.39902152675238" lon="17.076290311175235"><ele>76.6</ele><time>2026-03-29T12:41:49.999Z</time></trkpt><trkpt lat="39.39909648596225" lon="17.076357559567537"><ele>75.8</ele><time>2026-03-29T12:41:50.999Z</time></trkpt><trkpt lat="39.399155827048546" lon="17.07643743703893"><ele>75.0</ele><time>2026-03-29T12:41:51.999Z</time></trkpt><trkpt lat="39.399234468051176" lon="17.076499277679"><ele>75.0</ele><time>2026-03-29T12:41:52.999Z</time></trkpt><trkpt lat="39.39931317671841" lon="17.076540831409815"><ele>75.0</ele><time>2026-03-29T12:41:53.999Z</time></trkpt><trkpt lat="39.39939032781737" lon="17.076584032040717"><ele>75.0</ele><time>2026-03-29T12:41:54.999Z</time></trkpt><trkpt lat="39.39945948127577" lon="17.076653565629822"><ele>75.0</ele><time>2026-03-29T12:41:55.999Z</time></trkpt><trkpt lat="39.39953608543707" lon="17.076744322639485"><ele>75.0</ele><time>2026-03-29T12:41:56.999Z</time></trkpt><trkpt lat="39.39962884423279" lon="17.07685700943786"><ele>73.75</ele><time>2026-03-29T12:41:57.999Z</time></trkpt><trkpt lat="39.39972863405229" lon="17.0769631894537"><ele>72.5</ele><time>2026-03-29T12:41:58.999Z</time></trkpt><trkpt lat="39.39984656971922" lon="17.07706169280501"><ele>71.25</ele><time>2026-03-29T12:41:59.999Z</time></trkpt><trkpt lat="39.39995298801991" lon="17.077177635717177"><ele>70.0</ele><time>2026-03-29T12:42:00.999Z</time></trkpt><trkpt lat="39.400053821059224" lon="17.077330551932754"><ele>69.66666666666666</ele><time>2026-03-29T12:42:01.999Z</time></trkpt><trkpt lat="39.40016196044747" lon="17.077479976724305"><ele>69.33333333333333</ele><time>2026-03-29T12:42:02.999Z</time></trkpt><trkpt lat="39.40027713919583" lon="17.077633676593916"><ele>69.0</ele><time>2026-03-29T12:42:03.999Z</time></trkpt><trkpt lat="39.40036316840821" lon="17.077769169578275"><ele>69.0</ele><time>2026-03-29T12:42:04.999Z</time></trkpt><trkpt lat="39.40042950721727" lon="17.07789517629015"><ele>69.0</ele><time>2026-03-29T12:42:05.999Z</time></trkpt><trkpt lat="39.40049857048494" lon="17.078005650982238"><ele>69.0</ele><time>2026-03-29T12:42:06.999Z</time></trkpt><trkpt lat="39.400563204147" lon="17.07808842240271"><ele>69.0</ele><time>2026-03-29T12:42:07.999Z</time></trkpt><trkpt lat="39.40061536794076" lon="17.078171484555618"><ele>69.0</ele><time>2026-03-29T12:42:08.999Z</time></trkpt><trkpt lat="39.40065901299466" lon="17.078262784484206"><ele>68.8</ele><time>2026-03-29T12:42:09.999Z</time></trkpt><trkpt lat="39.40070452989682" lon="17.078349200401735"><ele>68.60000000000001</ele><time>2026-03-29T12:42:10.999Z</time></trkpt><trkpt lat="39.40075892559075" lon="17.078410025381473"><ele>68.4</ele><time>2026-03-29T12:42:11.999Z</time></trkpt><trkpt lat="39.4008463293763" lon="17.078454702421997"><ele>68.2</ele><time>2026-03-29T12:42:12.999Z</time></trkpt><trkpt lat="39.40094961682377" lon="17.078516976742332"><ele>68.0</ele><time>2026-03-29T12:42:13.999Z</time></trkpt><trkpt lat="39.40105185918068" lon="17.07856063810287"><ele>68.0</ele><time>2026-03-29T12:42:14.999Z</time></trkpt><trkpt lat="39.401144579433016" lon="17.07858886853765"><ele>68.0</ele><time>2026-03-29T12:42:15.999Z</time></trkpt><trkpt lat="39.40124338277224" lon="17.07862696627997"><ele>68.0</ele><time>2026-03-29T12:42:16.999Z</time></trkpt><trkpt lat="39.4013253569303" lon="17.078704465244417"><ele>68.0</ele><time>2026-03-29T12:42:17.999Z</time></trkpt><trkpt lat="39.4014214423322" lon="17.07880614962136"><ele>68.0</ele><time>2026-03-29T12:42:18.999Z</time></trkpt><trkpt lat="39.40153322333299" lon="17.078877101241236"><ele>68.2</ele><time>2026-03-29T12:42:19.999Z</time></trkpt><trkpt lat="39.40164339871722" lon="17.078914250423093"><ele>68.4</ele><time>2026-03-29T12:42:20.999Z</time></trkpt><trkpt lat="39.401747994330265" lon="17.0789597978578"><ele>68.60000000000001</ele><time>2026-03-29T12:42:21.999Z</time></trkpt><trkpt lat="39.40186153610981" lon="17.078979372705405"><ele>68.8</ele><time>2026-03-29T12:42:22.999Z</time></trkpt><trkpt lat="39.401949124149404" lon="17.079043030217814"><ele>69.0</ele><time>2026-03-29T12:42:23.999Z</time></trkpt><trkpt lat="39.402029522126014" lon="17.079078946676745"><ele>69.0</ele><time>2026-03-29T12:42:24.999Z</time></trkpt><trkpt lat="39.40209980132764" lon="17.07908395989707"><ele>69.0</ele><time>2026-03-29T12:42:25.999Z</time></trkpt><trkpt lat="39.40217442852717" lon="17.07908126930638"><ele>69.0</ele><time>2026-03-29T12:42:26.999Z</time></trkpt><trkpt lat="39.40227904051605" lon="17.079057184259398"><ele>69.0</ele><time>2026-03-29T12:42:27.999Z</time></trkpt><trkpt lat="39.40237597781968" lon="17.07902910377386"><ele>69.0</ele><time>2026-03-29T12:42:28.999Z</time></trkpt><trkpt lat="39.40246709978917" lon="17.07902474225995"><ele>69.0</ele><time>2026-03-29T12:42:29.999Z</time></trkpt><trkpt lat="39.40258182556543" lon="17.0790610190778"><ele>69.33333333333333</ele><time>2026-03-29T12:42:30.999Z</time></trkpt><trkpt lat="39.40265541450675" lon="17.079115730428004"><ele>69.66666666666667</ele><time>2026-03-29T12:42:31.999Z</time></trkpt><trkpt lat="39.40272529794661" lon="17.07918229122488"><ele>70.0</ele><time>2026-03-29T12:42:32.999Z</time></trkpt><trkpt lat="39.40278978785884" lon="17.0792439966486"><ele>70.33333333333334</ele><time>2026-03-29T12:42:33.999Z</time></trkpt><trkpt lat="39.402846291459696" lon="17.079296915929348"><ele>70.66666666666667</ele><time>2026-03-29T12:42:34.999Z</time></trkpt><trkpt lat="39.40293532543064" lon="17.079351229707765"><ele>71.0</ele><time>2026-03-29T12:42:36.999Z</time></trkpt><trkpt lat="39.403000436546165" lon="17.079422804100936"><ele>70.0</ele><time>2026-03-29T12:42:38.999Z</time></trkpt><trkpt lat="39.40307916184389" lon="17.079491517369316"><ele>69.0</ele><time>2026-03-29T12:42:41.999Z</time></trkpt><trkpt lat="39.4031356619445" lon="17.079564819289136"><ele>68.0</ele><time>2026-03-29T12:42:43.999Z</time></trkpt><trkpt lat="39.40321070896449" lon="17.07962295114451"><ele>67.0</ele><time>2026-03-29T12:42:44.999Z</time></trkpt><trkpt lat="39.40328384141394" lon="17.07967196097052"><ele>66.0</ele><time>2026-03-29T12:42:45.999Z</time></trkpt><trkpt lat="39.403358367962426" lon="17.07971850122709"><ele>65.0</ele><time>2026-03-29T12:42:46.999Z</time></trkpt><trkpt lat="39.40343494762277" lon="17.079741303808728"><ele>65.0</ele><time>2026-03-29T12:42:47.999Z</time></trkpt><trkpt lat="39.40351875267336" lon="17.079762141179103"><ele>65.0</ele><time>2026-03-29T12:42:48.999Z</time></trkpt><trkpt lat="39.40358763068369" lon="17.079793981557348"><ele>65.0</ele><time>2026-03-29T12:42:49.999Z</time></trkpt><trkpt lat="39.403650476512496" lon="17.079817236817842"><ele>65.0</ele><time>2026-03-29T12:42:50.999Z</time></trkpt><trkpt lat="39.4037841421524" lon="17.07985565317473"><ele>65.0</ele><time>2026-03-29T12:42:52.999Z</time></trkpt><trkpt lat="39.403901387023566" lon="17.079937491393363"><ele>64.16666666666667</ele><time>2026-03-29T12:42:54.999Z</time></trkpt><trkpt lat="39.403993280327896" lon="17.079987468708055"><ele>63.333333333333336</ele><time>2026-03-29T12:42:56.999Z</time></trkpt><trkpt lat="39.40405168824078" lon="17.08004980705852"><ele>62.5</ele><time>2026-03-29T12:42:58.999Z</time></trkpt><trkpt lat="39.40411399296624" lon="17.080078135492112"><ele>61.66666666666667</ele><time>2026-03-29T12:43:00.999Z</time></trkpt><trkpt lat="39.404182238213544" lon="17.080104313022854"><ele>60.833333333333336</ele><time>2026-03-29T12:43:02.999Z</time></trkpt><trkpt lat="39.40429576099803" lon="17.080091806832208"><ele>60.0</ele><time>2026-03-29T12:43:06.999Z</time></trkpt><trkpt lat="39.40441435045341" lon="17.080074786577327"><ele>60.0</ele><time>2026-03-29T12:43:08.999Z</time></trkpt><trkpt lat="39.40453058080955" lon="17.08002978271465"><ele>60.0</ele><time>2026-03-29T12:43:10.999Z</time></trkpt><trkpt lat="39.40464757264647" lon="17.08002064766042"><ele>60.0</ele><time>2026-03-29T12:43:12.999Z</time></trkpt><trkpt lat="39.404763479932896" lon="17.0800298533451"><ele>60.0</ele><time>2026-03-29T12:43:14.999Z</time></trkpt><trkpt lat="39.404844291576374" lon="17.08001960587152"><ele>60.0</ele><time>2026-03-29T12:43:16.999Z</time></trkpt><trkpt lat="39.404941786467795" lon="17.080015045515825"><ele>59.4</ele><time>2026-03-29T12:43:18.999Z</time></trkpt><trkpt lat="39.405020959313184" lon="17.080038590803365"><ele>58.8</ele><time>2026-03-29T12:43:20.999Z</time></trkpt><trkpt lat="39.40514364668932" lon="17.080101873590817"><ele>58.2</ele><time>2026-03-29T12:43:22.999Z</time></trkpt><trkpt lat="39.405215896880925" lon="17.080177209371545"><ele>57.6</ele><time>2026-03-29T12:43:23.999Z</time></trkpt><trkpt lat="39.40528755170496" lon="17.08026127320828"><ele>57.0</ele><time>2026-03-29T12:43:24.999Z</time></trkpt><trkpt lat="39.40537897665519" lon="17.08034294164749"><ele>57.0</ele><time>2026-03-29T12:43:25.999Z</time></trkpt><trkpt lat="39.40547004319122" lon="17.080417475156878"><ele>57.0</ele><time>2026-03-29T12:43:26.999Z</time></trkpt><trkpt lat="39.40554815370297" lon="17.08050024081035"><ele>57.0</ele><time>2026-03-29T12:43:27.999Z</time></trkpt><trkpt lat="39.40563705555974" lon="17.080585523671395"><ele>57.0</ele><time>2026-03-29T12:43:28.999Z</time></trkpt><trkpt lat="39.405707998313694" lon="17.080671770956858"><ele>57.0</ele><time>2026-03-29T12:43:29.999Z</time></trkpt><trkpt lat="39.40578103035972" lon="17.080762594983824"><ele>57.2</ele><time>2026-03-29T12:43:30.999Z</time></trkpt><trkpt lat="39.40585927552336" lon="17.080848061573604"><ele>57.400000000000006</ele><time>2026-03-29T12:43:31.999Z</time></trkpt><trkpt lat="39.40594014542903" lon="17.08093791647743"><ele>57.599999999999994</ele><time>2026-03-29T12:43:32.999Z</time></trkpt><trkpt lat="39.406022723344385" lon="17.081028184786557"><ele>57.8</ele><time>2026-03-29T12:43:33.999Z</time></trkpt><trkpt lat="39.40608453762182" lon="17.081125119872937"><ele>58.0</ele><time>2026-03-29T12:43:34.999Z</time></trkpt><trkpt lat="39.40613219334166" lon="17.08121429583246"><ele>58.0</ele><time>2026-03-29T12:43:35.999Z</time></trkpt><trkpt lat="39.40621164469608" lon="17.08128385695978"><ele>58.0</ele><time>2026-03-29T12:43:36.999Z</time></trkpt><trkpt lat="39.40628878721057" lon="17.081355369106777"><ele>58.0</ele><time>2026-03-29T12:43:37.999Z</time></trkpt><trkpt lat="39.40638056984222" lon="17.081422923903098"><ele>58.0</ele><time>2026-03-29T12:43:38.999Z</time></trkpt><trkpt lat="39.40646985435262" lon="17.081471513534897"><ele>58.0</ele><time>2026-03-29T12:43:39.999Z</time></trkpt><trkpt lat="39.40654898232788" lon="17.0815450786732"><ele>58.2</ele><time>2026-03-29T12:43:40.999Z</time></trkpt><trkpt lat="39.40663627992289" lon="17.081618367744603"><ele>58.4</ele><time>2026-03-29T12:43:41.999Z</time></trkpt><trkpt lat="39.40671410285319" lon="17.081681036957583"><ele>58.60000000000001</ele><time>2026-03-29T12:43:42.999Z</time></trkpt><trkpt lat="39.40680657845649" lon="17.081744282665465"><ele>58.800000000000004</ele><time>2026-03-29T12:43:43.999Z</time></trkpt><trkpt lat="39.40689160770857" lon="17.081774279916804"><ele>59.0</ele><time>2026-03-29T12:43:44.999Z</time></trkpt><trkpt lat="39.4069798048953" lon="17.081801832501537"><ele>59.0</ele><time>2026-03-29T12:43:45.999Z</time></trkpt><trkpt lat="39.40706253516844" lon="17.081812395308365"><ele>59.00000000000001</ele><time>2026-03-29T12:43:46.999Z</time></trkpt><trkpt lat="39.4071522160877" lon="17.081850454036758"><ele>59.00000000000001</ele><time>2026-03-29T12:43:47.999Z</time></trkpt><trkpt lat="39.407248855599704" lon="17.081905604117004"><ele>59.0</ele><time>2026-03-29T12:43:48.999Z</time></trkpt><trkpt lat="39.407358003482784" lon="17.08196523989223"><ele>59.0</ele><time>2026-03-29T12:43:49.999Z</time></trkpt><trkpt lat="39.40747235852647" lon="17.082023051399855"><ele>59.400000000000006</ele><time>2026-03-29T12:43:50.999Z</time></trkpt><trkpt lat="39.407589377099036" lon="17.08205461025714"><ele>59.800000000000004</ele><time>2026-03-29T12:43:51.999Z</time></trkpt><trkpt lat="39.407679252495875" lon="17.082106383205776"><ele>60.199999999999996</ele><time>2026-03-29T12:43:52.999Z</time></trkpt><trkpt lat="39.40774110961766" lon="17.08219423372288"><ele>60.599999999999994</ele><time>2026-03-29T12:43:53.999Z</time></trkpt><trkpt lat="39.40780503271941" lon="17.082248264139626"><ele>61.0</ele><time>2026-03-29T12:43:54.999Z</time></trkpt><trkpt lat="39.407868789181165" lon="17.08231655945978"><ele>61.0</ele><time>2026-03-29T12:43:55.999Z</time></trkpt><trkpt lat="39.40795394416621" lon="17.08240659055036"><ele>60.99999999999999</ele><time>2026-03-29T12:43:56.999Z</time></trkpt><trkpt lat="39.40803049888132" lon="17.08246563175225"><ele>60.99999999999999</ele><time>2026-03-29T12:43:57.999Z</time></trkpt><trkpt lat="39.40810068094134" lon="17.082513061217565"><ele>61.0</ele><time>2026-03-29T12:43:58.999Z</time></trkpt><trkpt lat="39.40820157526517" lon="17.08258787682908"><ele>61.0</ele><time>2026-03-29T12:44:00.999Z</time></trkpt><trkpt lat="39.40828683213475" lon="17.082634933366606"><ele>60.8</ele><time>2026-03-29T12:44:02.999Z</time></trkpt><trkpt lat="39.4083754755394" lon="17.082745820653876"><ele>60.599999999999994</ele><time>2026-03-29T12:44:04.999Z</time></trkpt><trkpt lat="39.40844499869427" lon="17.082821193877184"><ele>60.4</ele><time>2026-03-29T12:44:05.999Z</time></trkpt><trkpt lat="39.408527537322044" lon="17.08291788025556"><ele>60.2</ele><time>2026-03-29T12:44:06.999Z</time></trkpt><trkpt lat="39.408625479118555" lon="17.083010083017086"><ele>60.0</ele><time>2026-03-29T12:44:07.999Z</time></trkpt><trkpt lat="39.408737520622054" lon="17.083100487047133"><ele>59.5</ele><time>2026-03-29T12:44:08.999Z</time></trkpt><trkpt lat="39.408854731510736" lon="17.083192046427282"><ele>59.0</ele><time>2026-03-29T12:44:09.999Z</time></trkpt><trkpt lat="39.408972743572576" lon="17.083293323412754"><ele>58.5</ele><time>2026-03-29T12:44:10.999Z</time></trkpt><trkpt lat="39.40908715337399" lon="17.08337673295591"><ele>58.0</ele><time>2026-03-29T12:44:11.999Z</time></trkpt><trkpt lat="39.40919501215071" lon="17.083458744242566"><ele>58.0</ele><time>2026-03-29T12:44:12.999Z</time></trkpt><trkpt lat="39.40929533686287" lon="17.083545857225857"><ele>58.0</ele><time>2026-03-29T12:44:13.999Z</time></trkpt><trkpt lat="39.40939502785479" lon="17.08362022146789"><ele>58.0</ele><time>2026-03-29T12:44:14.999Z</time></trkpt><trkpt lat="39.409489280119516" lon="17.083685459516197"><ele>58.0</ele><time>2026-03-29T12:44:15.999Z</time></trkpt><trkpt lat="39.409574850515234" lon="17.083742940336084"><ele>58.0</ele><time>2026-03-29T12:44:16.999Z</time></trkpt><trkpt lat="39.4096470357977" lon="17.083814422960273"><ele>58.0</ele><time>2026-03-29T12:44:17.999Z</time></trkpt><trkpt lat="39.4097069299731" lon="17.083908371407187"><ele>58.0</ele><time>2026-03-29T12:44:18.999Z</time></trkpt><trkpt lat="39.40974567008146" lon="17.084039852182197"><ele>58.0</ele><time>2026-03-29T12:44:19.999Z</time></trkpt><trkpt lat="39.40977815860743" lon="17.08418910993465"><ele>58.0</ele><time>2026-03-29T12:44:20.999Z</time></trkpt><trkpt lat="39.40981926759032" lon="17.084340230918517"><ele>58.0</ele><time>2026-03-29T12:44:21.999Z</time></trkpt><trkpt lat="39.409861630719035" lon="17.084486348305546"><ele>58.0</ele><time>2026-03-29T12:44:22.999Z</time></trkpt><trkpt lat="39.409905234419256" lon="17.084619258670994"><ele>58.0</ele><time>2026-03-29T12:44:23.999Z</time></trkpt><trkpt lat="39.40994742179636" lon="17.084743151917426"><ele>58.0</ele><time>2026-03-29T12:44:24.999Z</time></trkpt><trkpt lat="39.40999629838663" lon="17.08485446406637"><ele>58.0</ele><time>2026-03-29T12:44:25.999Z</time></trkpt><trkpt lat="39.41004677472582" lon="17.084959733881274"><ele>58.0</ele><time>2026-03-29T12:44:26.999Z</time></trkpt><trkpt lat="39.41009432266919" lon="17.085062427251884"><ele>57.599999999999994</ele><time>2026-03-29T12:44:27.999Z</time></trkpt><trkpt lat="39.41013671385611" lon="17.08517246577652"><ele>57.199999999999996</ele><time>2026-03-29T12:44:28.999Z</time></trkpt><trkpt lat="39.4101710157474" lon="17.085294990613942"><ele>56.8</ele><time>2026-03-29T12:44:29.999Z</time></trkpt><trkpt lat="39.41020442073232" lon="17.085431251284014"><ele>56.4</ele><time>2026-03-29T12:44:30.999Z</time></trkpt><trkpt lat="39.410235443212926" lon="17.085576763395085"><ele>56.0</ele><time>2026-03-29T12:44:31.999Z</time></trkpt><trkpt lat="39.410260361389405" lon="17.08572874734378"><ele>55.5</ele><time>2026-03-29T12:44:32.999Z</time></trkpt><trkpt lat="39.41028021222708" lon="17.085881732004783"><ele>55.0</ele><time>2026-03-29T12:44:33.999Z</time></trkpt><trkpt lat="39.41030044730386" lon="17.086028471889342"><ele>54.5</ele><time>2026-03-29T12:44:34.999Z</time></trkpt><trkpt lat="39.41031792139789" lon="17.08616763325338"><ele>54.0</ele><time>2026-03-29T12:44:35.999Z</time></trkpt><trkpt lat="39.41033938814667" lon="17.086304256835152"><ele>54.0</ele><time>2026-03-29T12:44:36.999Z</time></trkpt><trkpt lat="39.41035620835336" lon="17.086446988028243"><ele>54.0</ele><time>2026-03-29T12:44:37.999Z</time></trkpt><trkpt lat="39.41037544209677" lon="17.08659975497997"><ele>54.0</ele><time>2026-03-29T12:44:38.999Z</time></trkpt><trkpt lat="39.410403019142706" lon="17.086748380113736"><ele>54.0</ele><time>2026-03-29T12:44:39.998Z</time></trkpt><trkpt lat="39.410428206023745" lon="17.086884259041163"><ele>54.0</ele><time>2026-03-29T12:44:40.998Z</time></trkpt><trkpt lat="39.4104511002046" lon="17.087010442275844"><ele>54.00000000000001</ele><time>2026-03-29T12:44:41.998Z</time></trkpt><trkpt lat="39.41047746060131" lon="17.087130253897215"><ele>54.00000000000001</ele><time>2026-03-29T12:44:42.998Z</time></trkpt><trkpt lat="39.41050957017261" lon="17.087246753616764"><ele>54.0</ele><time>2026-03-29T12:44:43.998Z</time></trkpt><trkpt lat="39.410542890974966" lon="17.087363183110774"><ele>54.0</ele><time>2026-03-29T12:44:44.997Z</time></trkpt><trkpt lat="39.41058558044057" lon="17.087481848265924"><ele>53.2</ele><time>2026-03-29T12:44:45.997Z</time></trkpt><trkpt lat="39.410631727058636" lon="17.087609025908694"><ele>52.400000000000006</ele><time>2026-03-29T12:44:46.997Z</time></trkpt><trkpt lat="39.41067481339317" lon="17.087739319114327"><ele>51.6</ele><time>2026-03-29T12:44:47.997Z</time></trkpt><trkpt lat="39.410704501093306" lon="17.087864233831557"><ele>50.8</ele><time>2026-03-29T12:44:48.997Z</time></trkpt><trkpt lat="39.410723644105914" lon="17.087986260545748"><ele>50.0</ele><time>2026-03-29T12:44:49.997Z</time></trkpt><trkpt lat="39.41074619354881" lon="17.088115346265006"><ele>50.0</ele><time>2026-03-29T12:44:50.997Z</time></trkpt><trkpt lat="39.410783470345834" lon="17.088248187204062"><ele>50.0</ele><time>2026-03-29T12:44:51.997Z</time></trkpt><trkpt lat="39.41082772396394" lon="17.088374122332493"><ele>50.0</ele><time>2026-03-29T12:44:52.997Z</time></trkpt><trkpt lat="39.410877921413416" lon="17.088492422812273"><ele>50.0</ele><time>2026-03-29T12:44:53.997Z</time></trkpt><trkpt lat="39.41092576877819" lon="17.088607449165558"><ele>50.0</ele><time>2026-03-29T12:44:54.997Z</time></trkpt><trkpt lat="39.41096448373537" lon="17.08872400177035"><ele>49.66666666666667</ele><time>2026-03-29T12:44:55.997Z</time></trkpt><trkpt lat="39.41100099647709" lon="17.08883911705903"><ele>49.333333333333336</ele><time>2026-03-29T12:44:56.997Z</time></trkpt><trkpt lat="39.41103863662731" lon="17.08894416082388"><ele>49.0</ele><time>2026-03-29T12:44:57.997Z</time></trkpt><trkpt lat="39.411080068109804" lon="17.08903125172311"><ele>48.66666666666667</ele><time>2026-03-29T12:44:58.997Z</time></trkpt><trkpt lat="39.41111569259533" lon="17.08910694120734"><ele>48.333333333333336</ele><time>2026-03-29T12:44:59.997Z</time></trkpt><trkpt lat="39.41116628538966" lon="17.089239103302326"><ele>48.0</ele><time>2026-03-29T12:45:01.997Z</time></trkpt><trkpt lat="39.41121926586598" lon="17.089365348786586"><ele>47.2</ele><time>2026-03-29T12:45:03.997Z</time></trkpt><trkpt lat="39.411305699587594" lon="17.08949109084628"><ele>46.4</ele><time>2026-03-29T12:45:05.997Z</time></trkpt><trkpt lat="39.411352259914224" lon="17.089558315618262"><ele>45.6</ele><time>2026-03-29T12:45:06.997Z</time></trkpt><trkpt lat="39.41139887411999" lon="17.0896173733746"><ele>44.800000000000004</ele><time>2026-03-29T12:45:07.997Z</time></trkpt><trkpt lat="39.411473792959725" lon="17.089747061891718"><ele>44.0</ele><time>2026-03-29T12:45:09.997Z</time></trkpt><trkpt lat="39.411508417988806" lon="17.08981892844661"><ele>43.57142857142857</ele><time>2026-03-29T12:45:10.997Z</time></trkpt><trkpt lat="39.411539902973395" lon="17.089895800924545"><ele>43.14285714285714</ele><time>2026-03-29T12:45:11.997Z</time></trkpt><trkpt lat="39.41156303186533" lon="17.089978121890542"><ele>42.71428571428571</ele><time>2026-03-29T12:45:12.997Z</time></trkpt><trkpt lat="39.411586499706054" lon="17.090061333549446"><ele>42.285714285714285</ele><time>2026-03-29T12:45:13.997Z</time></trkpt><trkpt lat="39.41160833397424" lon="17.090145468478937"><ele>41.857142857142854</ele><time>2026-03-29T12:45:14.997Z</time></trkpt><trkpt lat="39.41162835202096" lon="17.090231365747087"><ele>41.42857142857142</ele><time>2026-03-29T12:45:15.997Z</time></trkpt><trkpt lat="39.4116491373694" lon="17.09031582629474"><ele>41.0</ele><time>2026-03-29T12:45:16.997Z</time></trkpt><trkpt lat="39.41166901239507" lon="17.090403274064695"><ele>39.83333333333333</ele><time>2026-03-29T12:45:17.997Z</time></trkpt><trkpt lat="39.41168887832001" lon="17.090495568197216"><ele>38.666666666666664</ele><time>2026-03-29T12:45:18.997Z</time></trkpt><trkpt lat="39.41171434553803" lon="17.09058976688814"><ele>37.5</ele><time>2026-03-29T12:45:19.997Z</time></trkpt><trkpt lat="39.41173317183328" lon="17.090689357064623"><ele>36.333333333333336</ele><time>2026-03-29T12:45:20.997Z</time></trkpt><trkpt lat="39.41176256478369" lon="17.09078420994263"><ele>35.16666666666667</ele><time>2026-03-29T12:45:21.997Z</time></trkpt><trkpt lat="39.41179341093172" lon="17.090880001567054"><ele>34.0</ele><time>2026-03-29T12:45:22.997Z</time></trkpt><trkpt lat="39.411826178285196" lon="17.090977834115517"><ele>32.333333333333336</ele><time>2026-03-29T12:45:23.997Z</time></trkpt><trkpt lat="39.41185452595172" lon="17.091079730893973"><ele>30.666666666666668</ele><time>2026-03-29T12:45:24.997Z</time></trkpt><trkpt lat="39.41188458203502" lon="17.09118102346394"><ele>29.0</ele><time>2026-03-29T12:45:25.997Z</time></trkpt><trkpt lat="39.41191078892621" lon="17.091281859999622"><ele>27.333333333333336</ele><time>2026-03-29T12:45:26.997Z</time></trkpt><trkpt lat="39.41193348862707" lon="17.091377531054672"><ele>25.666666666666668</ele><time>2026-03-29T12:45:27.997Z</time></trkpt><trkpt lat="39.411958343900004" lon="17.09147374382515"><ele>24.0</ele><time>2026-03-29T12:45:28.997Z</time></trkpt><trkpt lat="39.411973060805046" lon="17.091573112070733"><ele>22.833333333333332</ele><time>2026-03-29T12:45:29.997Z</time></trkpt><trkpt lat="39.411978900375566" lon="17.091665519670183"><ele>21.666666666666668</ele><time>2026-03-29T12:45:30.997Z</time></trkpt><trkpt lat="39.4119811105323" lon="17.091810560827227"><ele>20.5</ele><time>2026-03-29T12:45:32.997Z</time></trkpt><trkpt lat="39.4119518422292" lon="17.091904654958697"><ele>19.333333333333336</ele><time>2026-03-29T12:45:34.997Z</time></trkpt><trkpt lat="39.411875357864716" lon="17.09196599575809"><ele>18.166666666666668</ele><time>2026-03-29T12:45:37.997Z</time></trkpt><trkpt lat="39.41183242453406" lon="17.092031336504135"><ele>17.0</ele><time>2026-03-29T12:45:39.997Z</time></trkpt><trkpt lat="39.411827710431226" lon="17.092125344388084"><ele>17.0</ele><time>2026-03-29T12:45:41.997Z</time></trkpt><trkpt lat="39.41188709541618" lon="17.092286046858387"><ele>17.0</ele><time>2026-03-29T12:45:43.997Z</time></trkpt><trkpt lat="39.411925845138605" lon="17.0923789078143"><ele>17.0</ele><time>2026-03-29T12:45:44.997Z</time></trkpt><trkpt lat="39.411966248708936" lon="17.092467703900667"><ele>17.0</ele><time>2026-03-29T12:45:45.997Z</time></trkpt><trkpt lat="39.41201048274232" lon="17.092555282966103"><ele>17.0</ele><time>2026-03-29T12:45:46.997Z</time></trkpt><trkpt lat="39.41203784106456" lon="17.092656488533414"><ele>16.0</ele><time>2026-03-29T12:45:47.997Z</time></trkpt><trkpt lat="39.4120398282646" lon="17.09276993734564"><ele>15.0</ele><time>2026-03-29T12:45:48.997Z</time></trkpt><trkpt lat="39.41203517343618" lon="17.092887040355528"><ele>14.0</ele><time>2026-03-29T12:45:49.997Z</time></trkpt><trkpt lat="39.41202186649041" lon="17.09299964367115"><ele>13.0</ele><time>2026-03-29T12:45:50.997Z</time></trkpt><trkpt lat="39.41200713256576" lon="17.093102011734796"><ele>12.0</ele><time>2026-03-29T12:45:51.997Z</time></trkpt><trkpt lat="39.411992654349305" lon="17.09318489428268"><ele>11.0</ele><time>2026-03-29T12:45:52.997Z</time></trkpt><trkpt lat="39.41198502982219" lon="17.093286034241345"><ele>10.5</ele><time>2026-03-29T12:45:54.997Z</time></trkpt><trkpt lat="39.411933013393515" lon="17.09335625191811"><ele>10.0</ele><time>2026-03-29T12:45:57.997Z</time></trkpt><trkpt lat="39.41181592409336" lon="17.093344522736242"><ele>9.5</ele><time>2026-03-29T12:45:59.997Z</time></trkpt><trkpt lat="39.411739887723435" lon="17.09334640580373"><ele>9.0</ele><time>2026-03-29T12:46:00.997Z</time></trkpt><trkpt lat="39.41166092570463" lon="17.0933477116059"><ele>8.5</ele><time>2026-03-29T12:46:01.997Z</time></trkpt><trkpt lat="39.41156955824919" lon="17.093327577673435"><ele>8.0</ele><time>2026-03-29T12:46:02.997Z</time></trkpt><trkpt lat="39.41148411157313" lon="17.093347571094675"><ele>7.999999999999999</ele><time>2026-03-29T12:46:03.997Z</time></trkpt><trkpt lat="39.41140370557026" lon="17.093376730991853"><ele>8.0</ele><time>2026-03-29T12:46:04.997Z</time></trkpt><trkpt lat="39.411329108136584" lon="17.093401074797928"><ele>8.0</ele><time>2026-03-29T12:46:05.997Z</time></trkpt><trkpt lat="39.41125527792121" lon="17.093411332710858"><ele>8.0</ele><time>2026-03-29T12:46:06.997Z</time></trkpt><trkpt lat="39.41117780574479" lon="17.093394862077584"><ele>7.999999999999999</ele><time>2026-03-29T12:46:07.997Z</time></trkpt><trkpt lat="39.411088242693" lon="17.09336818615801"><ele>8.0</ele><time>2026-03-29T12:46:08.997Z</time></trkpt><trkpt lat="39.41099792413008" lon="17.093344862044923"><ele>7.833333333333333</ele><time>2026-03-29T12:46:09.997Z</time></trkpt><trkpt lat="39.41091564677878" lon="17.093322456306716"><ele>7.666666666666666</ele><time>2026-03-29T12:46:10.997Z</time></trkpt><trkpt lat="39.41083839185751" lon="17.093304929826417"><ele>7.5</ele><time>2026-03-29T12:46:11.999Z</time></trkpt><trkpt lat="39.410763690406604" lon="17.093311207785288"><ele>7.333333333333334</ele><time>2026-03-29T12:46:12.999Z</time></trkpt><trkpt lat="39.4106895484206" lon="17.09333138512554"><ele>7.166666666666667</ele><time>2026-03-29T12:46:13.999Z</time></trkpt><trkpt lat="39.41061677315529" lon="17.09335820600488"><ele>7.0</ele><time>2026-03-29T12:46:14.999Z</time></trkpt><trkpt lat="39.41054247346282" lon="17.093392145753228"><ele>7.666666666666667</ele><time>2026-03-29T12:46:15.999Z</time></trkpt><trkpt lat="39.41046801877224" lon="17.09342481422008"><ele>8.333333333333334</ele><time>2026-03-29T12:46:16.999Z</time></trkpt><trkpt lat="39.41039709444188" lon="17.09345627371518"><ele>9.0</ele><time>2026-03-29T12:46:17.999Z</time></trkpt><trkpt lat="39.41033348793982" lon="17.0934807891757"><ele>9.666666666666666</ele><time>2026-03-29T12:46:18.999Z</time></trkpt><trkpt lat="39.41025329632191" lon="17.0935327501426"><ele>10.333333333333332</ele><time>2026-03-29T12:46:20.999Z</time></trkpt><trkpt lat="39.410238760235885" lon="17.093673956413948"><ele>11.0</ele><time>2026-03-29T12:46:22.999Z</time></trkpt><trkpt lat="39.410281986530286" lon="17.09381061955997"><ele>11.0</ele><time>2026-03-29T12:46:24.999Z</time></trkpt><trkpt lat="39.410255028583414" lon="17.093953723830282"><ele>11.0</ele><time>2026-03-29T12:46:27Z</time></trkpt><trkpt lat="39.41019904183564" lon="17.094007564032278"><ele>11.0</ele><time>2026-03-29T12:46:28Z</time></trkpt><trkpt lat="39.41013192838524" lon="17.094041882394357"><ele>11.0</ele><time>2026-03-29T12:46:29Z</time></trkpt><trkpt lat="39.41006659147758" lon="17.094063908616423"><ele>11.0</ele><time>2026-03-29T12:46:30Z</time></trkpt><trkpt lat="39.409987765595815" lon="17.094104291015203"><ele>11.0</ele><time>2026-03-29T12:46:32Z</time></trkpt><trkpt lat="39.409945703513216" lon="17.094171215095372"><ele>10.8</ele><time>2026-03-29T12:46:34Z</time></trkpt><trkpt lat="39.40987426774811" lon="17.09423436126624"><ele>10.600000000000001</ele><time>2026-03-29T12:46:37Z</time></trkpt><trkpt lat="39.40979041361699" lon="17.094247633152566"><ele>10.4</ele><time>2026-03-29T12:46:41.999Z</time></trkpt><trkpt lat="39.409682638419625" lon="17.094202125442692"><ele>10.2</ele><time>2026-03-29T12:46:43.999Z</time></trkpt><trkpt lat="39.409585447645135" lon="17.094149332232316"><ele>10.0</ele><time>2026-03-29T12:46:45.999Z</time></trkpt><trkpt lat="39.40946736024635" lon="17.094099267056983"><ele>10.285714285714285</ele><time>2026-03-29T12:46:47.999Z</time></trkpt><trkpt lat="39.40939465200194" lon="17.094072196438457"><ele>10.571428571428571</ele><time>2026-03-29T12:46:48.999Z</time></trkpt><trkpt lat="39.409321916729695" lon="17.094035959598497"><ele>10.857142857142858</ele><time>2026-03-29T12:46:49.999Z</time></trkpt><trkpt lat="39.40924874417864" lon="17.09400164369515"><ele>11.142857142857142</ele><time>2026-03-29T12:46:50.999Z</time></trkpt><trkpt lat="39.40917680046885" lon="17.093968811524107"><ele>11.428571428571429</ele><time>2026-03-29T12:46:51.999Z</time></trkpt><trkpt lat="39.40910850971722" lon="17.093941532029767"><ele>11.714285714285714</ele><time>2026-03-29T12:46:52.999Z</time></trkpt><trkpt lat="39.40904648375309" lon="17.093901850521085"><ele>12.0</ele><time>2026-03-29T12:46:53.999Z</time></trkpt><trkpt lat="39.408986564993555" lon="17.093859822599477"><ele>12.0</ele><time>2026-03-29T12:46:54.999Z</time></trkpt><trkpt lat="39.40892484034817" lon="17.093833855356237"><ele>12.0</ele><time>2026-03-29T12:46:55.999Z</time></trkpt><trkpt lat="39.40879976992989" lon="17.093807901277962"><ele>12.0</ele><time>2026-03-29T12:46:57.999Z</time></trkpt><trkpt lat="39.4087368227169" lon="17.09380198654433"><ele>12.0</ele><time>2026-03-29T12:46:58.999Z</time></trkpt><trkpt lat="39.408631922156985" lon="17.093822959749037"><ele>12.0</ele><time>2026-03-29T12:47:00.999Z</time></trkpt><trkpt lat="39.40852517903055" lon="17.09383327245511"><ele>12.0</ele><time>2026-03-29T12:47:02.999Z</time></trkpt><trkpt lat="39.40840683730569" lon="17.09383802110747"><ele>12.0</ele><time>2026-03-29T12:47:04.999Z</time></trkpt><trkpt lat="39.40833474601838" lon="17.093826999370926"><ele>12.0</ele><time>2026-03-29T12:47:05.999Z</time></trkpt><trkpt lat="39.40825143709114" lon="17.093825460138497"><ele>12.0</ele><time>2026-03-29T12:47:06.999Z</time></trkpt><trkpt lat="39.408164857122976" lon="17.093837077637804"><ele>12.0</ele><time>2026-03-29T12:47:07.999Z</time></trkpt><trkpt lat="39.40808495293887" lon="17.093869814192153"><ele>12.0</ele><time>2026-03-29T12:47:08.999Z</time></trkpt><trkpt lat="39.408010306731974" lon="17.093905539119646"><ele>11.999999999999998</ele><time>2026-03-29T12:47:09.999Z</time></trkpt><trkpt lat="39.407947681178854" lon="17.093955748225113"><ele>12.0</ele><time>2026-03-29T12:47:10.999Z</time></trkpt><trkpt lat="39.407886994117156" lon="17.094001794911392"><ele>12.0</ele><time>2026-03-29T12:47:11.999Z</time></trkpt><trkpt lat="39.40783185676298" lon="17.09405590782694"><ele>12.0</ele><time>2026-03-29T12:47:12.999Z</time></trkpt><trkpt lat="39.407776442648135" lon="17.094114116795925"><ele>12.0</ele><time>2026-03-29T12:47:13.999Z</time></trkpt><trkpt lat="39.407722685094065" lon="17.0941708913631"><ele>11.999999999999998</ele><time>2026-03-29T12:47:14.999Z</time></trkpt><trkpt lat="39.407671877091595" lon="17.09422290874188"><ele>12.0</ele><time>2026-03-29T12:47:15.999Z</time></trkpt><trkpt lat="39.407574368264676" lon="17.094314565666796"><ele>12.0</ele><time>2026-03-29T12:47:17.999Z</time></trkpt><trkpt lat="39.407483128121484" lon="17.094419582517887"><ele>12.0</ele><time>2026-03-29T12:47:19.999Z</time></trkpt><trkpt lat="39.407435706926954" lon="17.094473349063637"><ele>12.0</ele><time>2026-03-29T12:47:20.999Z</time></trkpt><trkpt lat="39.407339307791034" lon="17.09456123522416"><ele>12.0</ele><time>2026-03-29T12:47:22.999Z</time></trkpt><trkpt lat="39.40726100352524" lon="17.094650455380286"><ele>12.0</ele><time>2026-03-29T12:47:24.999Z</time></trkpt><trkpt lat="39.40718113168778" lon="17.09474473084889"><ele>12.2</ele><time>2026-03-29T12:47:26.999Z</time></trkpt><trkpt lat="39.407104819721546" lon="17.094812563288553"><ele>12.399999999999999</ele><time>2026-03-29T12:47:28.999Z</time></trkpt><trkpt lat="39.407045068342335" lon="17.094859786193446"><ele>12.600000000000001</ele><time>2026-03-29T12:47:30.999Z</time></trkpt><trkpt lat="39.406913496337694" lon="17.09492045106366"><ele>12.8</ele><time>2026-03-29T12:47:32.999Z</time></trkpt><trkpt lat="39.406835513704216" lon="17.094959716091406"><ele>13.0</ele><time>2026-03-29T12:47:33.999Z</time></trkpt><trkpt lat="39.40676201341891" lon="17.094996254453434"><ele>12.999999999999998</ele><time>2026-03-29T12:47:34.999Z</time></trkpt><trkpt lat="39.406700933236735" lon="17.095035745767508"><ele>13.0</ele><time>2026-03-29T12:47:35.999Z</time></trkpt><trkpt lat="39.40663157438559" lon="17.095058491248654"><ele>13.0</ele><time>2026-03-29T12:47:37.999Z</time></trkpt><trkpt lat="39.40657053797882" lon="17.095079643449168"><ele>13.0</ele><time>2026-03-29T12:47:39.999Z</time></trkpt><trkpt lat="39.40648415364996" lon="17.09511917052677"><ele>12.999999999999998</ele><time>2026-03-29T12:47:41.999Z</time></trkpt><trkpt lat="39.406373332793464" lon="17.095126791549603"><ele>13.0</ele><time>2026-03-29T12:47:43.999Z</time></trkpt><trkpt lat="39.406256714966126" lon="17.09514921309265"><ele>13.333333333333332</ele><time>2026-03-29T12:47:45.999Z</time></trkpt><trkpt lat="39.406160041966864" lon="17.095171347947893"><ele>13.666666666666666</ele><time>2026-03-29T12:47:47.999Z</time></trkpt><trkpt lat="39.40608815233328" lon="17.095184303777756"><ele>14.0</ele><time>2026-03-29T12:47:49.999Z</time></trkpt><trkpt lat="39.40602093050091" lon="17.095220632025853"><ele>14.333333333333332</ele><time>2026-03-29T12:47:51.999Z</time></trkpt><trkpt lat="39.40595793047491" lon="17.095256005827427"><ele>14.666666666666666</ele><time>2026-03-29T12:47:53.999Z</time></trkpt><trkpt lat="39.405910532122185" lon="17.09531374966854"><ele>15.0</ele><time>2026-03-29T12:47:55.999Z</time></trkpt><trkpt lat="39.405860424680775" lon="17.09542525842102"><ele>15.0</ele><time>2026-03-29T12:47:57.999Z</time></trkpt><trkpt lat="39.40580408334163" lon="17.095537274112854"><ele>15.0</ele><time>2026-03-29T12:47:59.999Z</time></trkpt><trkpt lat="39.40574252046328" lon="17.09561317499687"><ele>15.0</ele><time>2026-03-29T12:48:01.999Z</time></trkpt><trkpt lat="39.40569065590008" lon="17.09569645821222"><ele>15.0</ele><time>2026-03-29T12:48:03.999Z</time></trkpt><trkpt lat="39.40559975857101" lon="17.095810937119687"><ele>15.0</ele><time>2026-03-29T12:48:05.999Z</time></trkpt><trkpt lat="39.40556059273021" lon="17.09588150838077"><ele>14.8</ele><time>2026-03-29T12:48:06.999Z</time></trkpt><trkpt lat="39.40552834230874" lon="17.095954606085268"><ele>14.6</ele><time>2026-03-29T12:48:07.999Z</time></trkpt><trkpt lat="39.40546344735945" lon="17.096076604069538"><ele>14.399999999999999</ele><time>2026-03-29T12:48:09.999Z</time></trkpt><trkpt lat="39.405391472080346" lon="17.09618460921366"><ele>14.2</ele><time>2026-03-29T12:48:11.999Z</time></trkpt><trkpt lat="39.40529845437138" lon="17.096278127889054"><ele>14.0</ele><time>2026-03-29T12:48:13.999Z</time></trkpt><trkpt lat="39.40519025812143" lon="17.096344107114156"><ele>14.0</ele><time>2026-03-29T12:48:15.999Z</time></trkpt><trkpt lat="39.40509024440218" lon="17.09639786700919"><ele>13.999999999999998</ele><time>2026-03-29T12:48:17.999Z</time></trkpt><trkpt lat="39.40500720346913" lon="17.096417566383153"><ele>13.999999999999998</ele><time>2026-03-29T12:48:19.999Z</time></trkpt><trkpt lat="39.40491941448281" lon="17.096437482788318"><ele>14.0</ele><time>2026-03-29T12:48:21.999Z</time></trkpt><trkpt lat="39.404826181251636" lon="17.096473044680277"><ele>14.0</ele><time>2026-03-29T12:48:23.999Z</time></trkpt><trkpt lat="39.404730773194316" lon="17.096512997726528"><ele>14.799999999999999</ele><time>2026-03-29T12:48:25.999Z</time></trkpt><trkpt lat="39.40461772016489" lon="17.096533826726617"><ele>15.599999999999998</ele><time>2026-03-29T12:48:27.999Z</time></trkpt><trkpt lat="39.404510965516764" lon="17.09654940870655"><ele>16.4</ele><time>2026-03-29T12:48:29.999Z</time></trkpt><trkpt lat="39.40441838960415" lon="17.096574246758454"><ele>17.2</ele><time>2026-03-29T12:48:31.999Z</time></trkpt><trkpt lat="39.40431804599257" lon="17.096581392248584"><ele>18.0</ele><time>2026-03-29T12:48:33.999Z</time></trkpt><trkpt lat="39.40419939645342" lon="17.09654958411965"><ele>18.0</ele><time>2026-03-29T12:48:35.999Z</time></trkpt><trkpt lat="39.404132292387146" lon="17.096527876815188"><ele>18.0</ele><time>2026-03-29T12:48:36.999Z</time></trkpt><trkpt lat="39.40406792096046" lon="17.096512122894787"><ele>18.0</ele><time>2026-03-29T12:48:37.999Z</time></trkpt><trkpt lat="39.404002534093905" lon="17.096495625911896"><ele>18.0</ele><time>2026-03-29T12:48:38.999Z</time></trkpt><trkpt lat="39.40394061633753" lon="17.096477583885708"><ele>18.0</ele><time>2026-03-29T12:48:39.999Z</time></trkpt><trkpt lat="39.40382373760338" lon="17.096450083845102"><ele>18.0</ele><time>2026-03-29T12:48:41.999Z</time></trkpt><trkpt lat="39.40372080562973" lon="17.09645843666459"><ele>18.5</ele><time>2026-03-29T12:48:43.999Z</time></trkpt><trkpt lat="39.4036088933849" lon="17.096487223353254"><ele>19.0</ele><time>2026-03-29T12:48:45.999Z</time></trkpt><trkpt lat="39.403504211179424" lon="17.0964813506788"><ele>19.5</ele><time>2026-03-29T12:48:47.999Z</time></trkpt><trkpt lat="39.40342637248805" lon="17.096471432199692"><ele>20.0</ele><time>2026-03-29T12:48:49.999Z</time></trkpt><trkpt lat="39.40334420705934" lon="17.09644299092258"><ele>20.5</ele><time>2026-03-29T12:48:52.999Z</time></trkpt><trkpt lat="39.40328309388394" lon="17.096469409614855"><ele>21.0</ele><time>2026-03-29T12:48:54.999Z</time></trkpt><trkpt lat="39.403243690825654" lon="17.09653915623565"><ele>20.666666666666668</ele><time>2026-03-29T12:48:56.999Z</time></trkpt><trkpt lat="39.40319769183397" lon="17.096601324500984"><ele>20.333333333333332</ele><time>2026-03-29T12:48:58.999Z</time></trkpt><trkpt lat="39.403141438824484" lon="17.0966718476827"><ele>20.0</ele><time>2026-03-29T12:49:00.999Z</time></trkpt><trkpt lat="39.40309576013666" lon="17.096775437793106"><ele>19.666666666666664</ele><time>2026-03-29T12:49:02.999Z</time></trkpt><trkpt lat="39.40307492928439" lon="17.09686660235711"><ele>19.333333333333332</ele><time>2026-03-29T12:49:04.999Z</time></trkpt><trkpt lat="39.40305725238921" lon="17.09696608967669"><ele>19.0</ele><time>2026-03-29T12:49:06.999Z</time></trkpt><trkpt lat="39.402994288094426" lon="17.09704047083542"><ele>19.0</ele><time>2026-03-29T12:49:08.999Z</time></trkpt><trkpt lat="39.402910980532596" lon="17.097062628401815"><ele>19.0</ele><time>2026-03-29T12:49:11.999Z</time></trkpt><trkpt lat="39.40284155019811" lon="17.0970590787386"><ele>19.0</ele><time>2026-03-29T12:49:15.999Z</time></trkpt><trkpt lat="39.40276495988357" lon="17.097057804563157"><ele>19.0</ele><time>2026-03-29T12:49:19.999Z</time></trkpt><trkpt lat="39.40269568541621" lon="17.097076380383058"><ele>19.0</ele><time>2026-03-29T12:49:21.999Z</time></trkpt><trkpt lat="39.40261802786074" lon="17.097146544525913"><ele>19.0</ele><time>2026-03-29T12:49:23.999Z</time></trkpt><trkpt lat="39.40254073477296" lon="17.097237725441705"><ele>19.0</ele><time>2026-03-29T12:49:25.999Z</time></trkpt><trkpt lat="39.40244534598359" lon="17.097325869427017"><ele>19.0</ele><time>2026-03-29T12:49:27.999Z</time></trkpt><trkpt lat="39.40235342226265" lon="17.097393364171193"><ele>19.0</ele><time>2026-03-29T12:49:29.999Z</time></trkpt><trkpt lat="39.402283150078254" lon="17.097448938472564"><ele>19.0</ele><time>2026-03-29T12:49:31.999Z</time></trkpt><trkpt lat="39.40219885615175" lon="17.09751489551806"><ele>19.0</ele><time>2026-03-29T12:49:33.999Z</time></trkpt><trkpt lat="39.40217175589841" lon="17.097659126744496"><ele>19.333333333333332</ele><time>2026-03-29T12:49:35.999Z</time></trkpt><trkpt lat="39.40212811741629" lon="17.097788513733363"><ele>19.666666666666664</ele><time>2026-03-29T12:49:37.999Z</time></trkpt><trkpt lat="39.402064183771884" lon="17.097869191823786"><ele>20.0</ele><time>2026-03-29T12:49:39.999Z</time></trkpt><trkpt lat="39.402003578369445" lon="17.097937155922395"><ele>20.333333333333332</ele><time>2026-03-29T12:49:42.999Z</time></trkpt><trkpt lat="39.40195491067504" lon="17.09801679767211"><ele>20.666666666666668</ele><time>2026-03-29T12:49:46.999Z</time></trkpt><trkpt lat="39.40188471699769" lon="17.098053168685528"><ele>21.0</ele><time>2026-03-29T12:49:48.998Z</time></trkpt><trkpt lat="39.4017709284228" lon="17.09808212955082"><ele>21.0</ele><time>2026-03-29T12:49:50.998Z</time></trkpt><trkpt lat="39.40164687749696" lon="17.098087453035664"><ele>21.0</ele><time>2026-03-29T12:49:52.998Z</time></trkpt><trkpt lat="39.401579878295834" lon="17.09809020587578"><ele>21.0</ele><time>2026-03-29T12:49:53.998Z</time></trkpt><trkpt lat="39.40151159683123" lon="17.098088384441997"><ele>21.0</ele><time>2026-03-29T12:49:54.998Z</time></trkpt><trkpt lat="39.40144356424345" lon="17.098094995172364"><ele>21.0</ele><time>2026-03-29T12:49:55.998Z</time></trkpt><trkpt lat="39.4013859055382" lon="17.098134316687567"><ele>21.0</ele><time>2026-03-29T12:49:56.998Z</time></trkpt><trkpt lat="39.40134414523692" lon="17.098210443799992"><ele>21.333333333333332</ele><time>2026-03-29T12:49:57.998Z</time></trkpt><trkpt lat="39.40130661807759" lon="17.098292080395073"><ele>21.666666666666668</ele><time>2026-03-29T12:49:58.998Z</time></trkpt><trkpt lat="39.40127213448035" lon="17.09837794256461"><ele>22.0</ele><time>2026-03-29T12:49:59.998Z</time></trkpt><trkpt lat="39.401235635378576" lon="17.098476795945295"><ele>22.333333333333336</ele><time>2026-03-29T12:50:00.998Z</time></trkpt><trkpt lat="39.40118275414731" lon="17.09857592580926"><ele>22.666666666666668</ele><time>2026-03-29T12:50:01.998Z</time></trkpt><trkpt lat="39.401125361519526" lon="17.09866758300235"><ele>23.0</ele><time>2026-03-29T12:50:02.998Z</time></trkpt><trkpt lat="39.40107685066836" lon="17.09875178250825"><ele>23.0</ele><time>2026-03-29T12:50:03.998Z</time></trkpt><trkpt lat="39.40102646878212" lon="17.098823003511697"><ele>23.0</ele><time>2026-03-29T12:50:04.998Z</time></trkpt><trkpt lat="39.400972118765345" lon="17.098874124565423"><ele>23.0</ele><time>2026-03-29T12:50:05.998Z</time></trkpt><trkpt lat="39.40091062487986" lon="17.098968015435116"><ele>23.0</ele><time>2026-03-29T12:50:07.998Z</time></trkpt><trkpt lat="39.400968080243736" lon="17.09907875941507"><ele>23.0</ele><time>2026-03-29T12:50:09.998Z</time></trkpt><trkpt lat="39.401097271779825" lon="17.099074979397482"><ele>23.333333333333336</ele><time>2026-03-29T12:50:11.998Z</time></trkpt><trkpt lat="39.401169909986905" lon="17.099102880755417"><ele>23.666666666666668</ele><time>2026-03-29T12:50:12.998Z</time></trkpt><trkpt lat="39.40124911684638" lon="17.099123465872196"><ele>24.0</ele><time>2026-03-29T12:50:13.998Z</time></trkpt><trkpt lat="39.40133527605107" lon="17.099144535811014"><ele>24.333333333333336</ele><time>2026-03-29T12:50:14.998Z</time></trkpt><trkpt lat="39.40141145867555" lon="17.099171063186613"><ele>24.666666666666668</ele><time>2026-03-29T12:50:15.998Z</time></trkpt><trkpt lat="39.40147440912536" lon="17.09920995432167"><ele>25.0</ele><time>2026-03-29T12:50:16.998Z</time></trkpt><trkpt lat="39.40153798132254" lon="17.099240537256918"><ele>26.333333333333336</ele><time>2026-03-29T12:50:17.998Z</time></trkpt><trkpt lat="39.401605098618866" lon="17.099276692067747"><ele>27.666666666666668</ele><time>2026-03-29T12:50:18.998Z</time></trkpt><trkpt lat="39.40166373273771" lon="17.099321727894036"><ele>29.0</ele><time>2026-03-29T12:50:19.998Z</time></trkpt><trkpt lat="39.40167719277019" lon="17.09940145009394"><ele>30.333333333333336</ele><time>2026-03-29T12:50:21.998Z</time></trkpt><trkpt lat="39.40157675080755" lon="17.099484800170018"><ele>31.666666666666668</ele><time>2026-03-29T12:50:23.998Z</time></trkpt><trkpt lat="39.40149972422925" lon="17.09952775855123"><ele>33.0</ele><time>2026-03-29T12:50:24.998Z</time></trkpt><trkpt lat="39.401416002896795" lon="17.099586517743614"><ele>34.0</ele><time>2026-03-29T12:50:25.998Z</time></trkpt><trkpt lat="39.40133058078931" lon="17.099653096607952"><ele>35.0</ele><time>2026-03-29T12:50:26.998Z</time></trkpt><trkpt lat="39.401245745895736" lon="17.099732830324534"><ele>36.0</ele><time>2026-03-29T12:50:27.998Z</time></trkpt><trkpt lat="39.401182534665374" lon="17.09984780675791"><ele>37.0</ele><time>2026-03-29T12:50:28.998Z</time></trkpt><trkpt lat="39.40112296462245" lon="17.09996625142827"><ele>38.0</ele><time>2026-03-29T12:50:29.998Z</time></trkpt><trkpt lat="39.40106286090398" lon="17.100081382531368"><ele>38.0</ele><time>2026-03-29T12:50:30.998Z</time></trkpt><trkpt lat="39.401005975272945" lon="17.100198568093543"><ele>38.0</ele><time>2026-03-29T12:50:31.998Z</time></trkpt><trkpt lat="39.40094558024242" lon="17.10030038830738"><ele>38.0</ele><time>2026-03-29T12:50:32.998Z</time></trkpt><trkpt lat="39.400890030508826" lon="17.100386955266227"><ele>38.0</ele><time>2026-03-29T12:50:33.998Z</time></trkpt><trkpt lat="39.40084914701723" lon="17.10047480301377"><ele>38.0</ele><time>2026-03-29T12:50:34.998Z</time></trkpt><trkpt lat="39.40081125873636" lon="17.100569193466434"><ele>38.0</ele><time>2026-03-29T12:50:35.998Z</time></trkpt><trkpt lat="39.4007406440495" lon="17.1006542511221"><ele>38.0</ele><time>2026-03-29T12:50:36.998Z</time></trkpt><trkpt lat="39.40070728105788" lon="17.100758266557424"><ele>38.0</ele><time>2026-03-29T12:50:37.998Z</time></trkpt><trkpt lat="39.4006850087746" lon="17.100859271992576"><ele>38.0</ele><time>2026-03-29T12:50:38.998Z</time></trkpt><trkpt lat="39.400653832974356" lon="17.100937401528274"><ele>38.0</ele><time>2026-03-29T12:50:39.998Z</time></trkpt><trkpt lat="39.40059940997173" lon="17.101000133565847"><ele>38.0</ele><time>2026-03-29T12:50:40.998Z</time></trkpt><trkpt lat="39.400527564047344" lon="17.101062607988563"><ele>39.75</ele><time>2026-03-29T12:50:41.998Z</time></trkpt><trkpt lat="39.400437088526054" lon="17.10113956305951"><ele>41.5</ele><time>2026-03-29T12:50:42.998Z</time></trkpt><trkpt lat="39.40033772410176" lon="17.10121964820941"><ele>43.25</ele><time>2026-03-29T12:50:43.998Z</time></trkpt><trkpt lat="39.400233156140516" lon="17.101292542196703"><ele>45.0</ele><time>2026-03-29T12:50:44.998Z</time></trkpt><trkpt lat="39.40013308816867" lon="17.101351268480194"><ele>45.0</ele><time>2026-03-29T12:50:45.998Z</time></trkpt><trkpt lat="39.40003341711798" lon="17.101402833824164"><ele>45.0</ele><time>2026-03-29T12:50:46.998Z</time></trkpt><trkpt lat="39.39992078212357" lon="17.101437047761646"><ele>45.0</ele><time>2026-03-29T12:50:47.998Z</time></trkpt><trkpt lat="39.39980536684102" lon="17.101446283883682"><ele>45.0</ele><time>2026-03-29T12:50:48.998Z</time></trkpt><trkpt lat="39.39968552227851" lon="17.10144192042109"><ele>45.2</ele><time>2026-03-29T12:50:49.998Z</time></trkpt><trkpt lat="39.399569961972155" lon="17.101451156892118"><ele>45.4</ele><time>2026-03-29T12:50:50.998Z</time></trkpt><trkpt lat="39.399462325971314" lon="17.101460355229328"><ele>45.599999999999994</ele><time>2026-03-29T12:50:51.998Z</time></trkpt><trkpt lat="39.39936214941715" lon="17.101465895059768"><ele>45.8</ele><time>2026-03-29T12:50:52.998Z</time></trkpt><trkpt lat="39.399266722353836" lon="17.10146662137778"><ele>46.0</ele><time>2026-03-29T12:50:53.998Z</time></trkpt><trkpt lat="39.39918994856676" lon="17.101403486932938"><ele>46.0</ele><time>2026-03-29T12:50:54.998Z</time></trkpt><trkpt lat="39.39912079291278" lon="17.101325967486687"><ele>46.0</ele><time>2026-03-29T12:50:55.998Z</time></trkpt><trkpt lat="39.399050761038296" lon="17.101253294870993"><ele>46.0</ele><time>2026-03-29T12:50:56.998Z</time></trkpt><trkpt lat="39.39897917699208" lon="17.101188670975212"><ele>46.0</ele><time>2026-03-29T12:50:57.998Z</time></trkpt><trkpt lat="39.39891561141936" lon="17.101141235659814"><ele>46.0</ele><time>2026-03-29T12:50:58.998Z</time></trkpt><trkpt lat="39.39881378355675" lon="17.10109194511251"><ele>46.75</ele><time>2026-03-29T12:51:00.998Z</time></trkpt><trkpt lat="39.39873178020631" lon="17.101047078854137"><ele>47.5</ele><time>2026-03-29T12:51:02.998Z</time></trkpt><trkpt lat="39.39862001364894" lon="17.100986441616243"><ele>48.25</ele><time>2026-03-29T12:51:04.998Z</time></trkpt><trkpt lat="39.39851599435525" lon="17.100949756083956"><ele>49.0</ele><time>2026-03-29T12:51:05.998Z</time></trkpt><trkpt lat="39.39839168810147" lon="17.1008875195287"><ele>49.0</ele><time>2026-03-29T12:51:06.998Z</time></trkpt><trkpt lat="39.39824782004506" lon="17.100845775481226"><ele>49.0</ele><time>2026-03-29T12:51:07.998Z</time></trkpt><trkpt lat="39.398094530776135" lon="17.100846844336314"><ele>49.0</ele><time>2026-03-29T12:51:08.998Z</time></trkpt><trkpt lat="39.39794642306879" lon="17.100870642719023"><ele>49.0</ele><time>2026-03-29T12:51:09.998Z</time></trkpt><trkpt lat="39.39780804724723" lon="17.100900795607753"><ele>49.0</ele><time>2026-03-29T12:51:10.998Z</time></trkpt><trkpt lat="39.397678169492174" lon="17.10089528064153"><ele>49.0</ele><time>2026-03-29T12:51:11.998Z</time></trkpt><trkpt lat="39.397567215222914" lon="17.10092134702452"><ele>49.0</ele><time>2026-03-29T12:51:12.998Z</time></trkpt><trkpt lat="39.39747050445108" lon="17.10093687660416"><ele>49.0</ele><time>2026-03-29T12:51:13.998Z</time></trkpt><trkpt lat="39.39739650866174" lon="17.10097119694472"><ele>49.0</ele><time>2026-03-29T12:51:14.998Z</time></trkpt><trkpt lat="39.39733180103205" lon="17.101024587539598"><ele>49.0</ele><time>2026-03-29T12:51:15.998Z</time></trkpt><trkpt lat="39.397289142618746" lon="17.101195123524487"><ele>49.0</ele><time>2026-03-29T12:51:16.998Z</time></trkpt><trkpt lat="39.3972276841892" lon="17.101325971557312"><ele>49.0</ele><time>2026-03-29T12:51:17.998Z</time></trkpt><trkpt lat="39.397129821543594" lon="17.101434537705398"><ele>49.5</ele><time>2026-03-29T12:51:18.998Z</time></trkpt><trkpt lat="39.397020993185805" lon="17.10152857179133"><ele>50.0</ele><time>2026-03-29T12:51:19.998Z</time></trkpt><trkpt lat="39.39691539584924" lon="17.101612637570764"><ele>50.5</ele><time>2026-03-29T12:51:20.998Z</time></trkpt><trkpt lat="39.39680987774503" lon="17.101693984471353"><ele>51.0</ele><time>2026-03-29T12:51:21.998Z</time></trkpt><trkpt lat="39.39670389717573" lon="17.10178715383232"><ele>51.25</ele><time>2026-03-29T12:51:22.998Z</time></trkpt><trkpt lat="39.39657078916363" lon="17.10184193873447"><ele>51.5</ele><time>2026-03-29T12:51:23.998Z</time></trkpt><trkpt lat="39.396438812920415" lon="17.101897837967886"><ele>51.75</ele><time>2026-03-29T12:51:24.998Z</time></trkpt><trkpt lat="39.39630719811634" lon="17.101937837736106"><ele>52.0</ele><time>2026-03-29T12:51:25.998Z</time></trkpt><trkpt lat="39.39619231024665" lon="17.102016622434054"><ele>52.0</ele><time>2026-03-29T12:51:26.998Z</time></trkpt><trkpt lat="39.39608149509266" lon="17.10208687467847"><ele>52.0</ele><time>2026-03-29T12:51:27.998Z</time></trkpt><trkpt lat="39.39596376066413" lon="17.102134237063197"><ele>52.0</ele><time>2026-03-29T12:51:28.998Z</time></trkpt><trkpt lat="39.395832227890175" lon="17.10216839076348"><ele>52.0</ele><time>2026-03-29T12:51:29.998Z</time></trkpt><trkpt lat="39.395694339318815" lon="17.1022260619848"><ele>52.0</ele><time>2026-03-29T12:51:30.998Z</time></trkpt><trkpt lat="39.39555282594481" lon="17.102318947138386"><ele>52.0</ele><time>2026-03-29T12:51:31.998Z</time></trkpt><trkpt lat="39.39540960981222" lon="17.102425207843634"><ele>52.0</ele><time>2026-03-29T12:51:32.998Z</time></trkpt><trkpt lat="39.395260762709725" lon="17.10253084294137"><ele>52.33333333333333</ele><time>2026-03-29T12:51:33.998Z</time></trkpt><trkpt lat="39.395093740044466" lon="17.10263743736067"><ele>52.66666666666667</ele><time>2026-03-29T12:51:34.998Z</time></trkpt><trkpt lat="39.394922748295905" lon="17.10273757358064"><ele>53.0</ele><time>2026-03-29T12:51:35.998Z</time></trkpt><trkpt lat="39.39474630747799" lon="17.102838466277646"><ele>52.66666666666667</ele><time>2026-03-29T12:51:36.998Z</time></trkpt><trkpt lat="39.394588260292096" lon="17.102932549624718"><ele>52.33333333333333</ele><time>2026-03-29T12:51:37.998Z</time></trkpt><trkpt lat="39.39445648429891" lon="17.10300397716861"><ele>52.0</ele><time>2026-03-29T12:51:38.998Z</time></trkpt><trkpt lat="39.39431060326402" lon="17.103063188597957"><ele>52.0</ele><time>2026-03-29T12:51:39.998Z</time></trkpt><trkpt lat="39.3941644219832" lon="17.103115599918628"><ele>52.0</ele><time>2026-03-29T12:51:40.998Z</time></trkpt><trkpt lat="39.394025132175315" lon="17.10316105251682"><ele>52.0</ele><time>2026-03-29T12:51:41.998Z</time></trkpt><trkpt lat="39.393899843023924" lon="17.103200554637763"><ele>52.0</ele><time>2026-03-29T12:51:42.998Z</time></trkpt><trkpt lat="39.39377119555832" lon="17.10322626754297"><ele>52.666666666666664</ele><time>2026-03-29T12:51:43.998Z</time></trkpt><trkpt lat="39.39363745958147" lon="17.103225503876857"><ele>53.33333333333333</ele><time>2026-03-29T12:51:44.998Z</time></trkpt><trkpt lat="39.393488237664755" lon="17.103244646175433"><ele>54.0</ele><time>2026-03-29T12:51:45.998Z</time></trkpt><trkpt lat="39.39331789092088" lon="17.103196732192096"><ele>54.0</ele><time>2026-03-29T12:51:46.998Z</time></trkpt><trkpt lat="39.39314343195294" lon="17.103218233385235"><ele>54.0</ele><time>2026-03-29T12:51:47.998Z</time></trkpt><trkpt lat="39.392977150589196" lon="17.103150198873774"><ele>54.0</ele><time>2026-03-29T12:51:48.998Z</time></trkpt><trkpt lat="39.39283128345048" lon="17.10312205011975"><ele>55.0</ele><time>2026-03-29T12:51:49.998Z</time></trkpt><trkpt lat="39.39267749755122" lon="17.103089273696895"><ele>56.0</ele><time>2026-03-29T12:51:50.998Z</time></trkpt><trkpt lat="39.39252961257515" lon="17.102999761264428"><ele>57.0</ele><time>2026-03-29T12:51:51.998Z</time></trkpt><trkpt lat="39.392352471636876" lon="17.10294163904285"><ele>57.33333333333333</ele><time>2026-03-29T12:51:52.998Z</time></trkpt><trkpt lat="39.39216845430717" lon="17.102886634851934"><ele>57.666666666666664</ele><time>2026-03-29T12:51:53.998Z</time></trkpt><trkpt lat="39.391984249303796" lon="17.102836054319436"><ele>58.0</ele><time>2026-03-29T12:51:54.998Z</time></trkpt><trkpt lat="39.39180934474384" lon="17.102789931848886"><ele>58.0</ele><time>2026-03-29T12:51:55.998Z</time></trkpt><trkpt lat="39.391662142326055" lon="17.102754272624043"><ele>58.0</ele><time>2026-03-29T12:51:56.998Z</time></trkpt><trkpt lat="39.391523746334194" lon="17.102723893206523"><ele>58.0</ele><time>2026-03-29T12:51:57.998Z</time></trkpt><trkpt lat="39.39140712981404" lon="17.10269829461606"><ele>58.0</ele><time>2026-03-29T12:51:58.998Z</time></trkpt><trkpt lat="39.391268534781084" lon="17.102666007230237"><ele>58.25</ele><time>2026-03-29T12:51:59.998Z</time></trkpt><trkpt lat="39.39112853564267" lon="17.10263268536505"><ele>58.5</ele><time>2026-03-29T12:52:00.998Z</time></trkpt><trkpt lat="39.39098325705097" lon="17.102596926024994"><ele>58.75</ele><time>2026-03-29T12:52:01.998Z</time></trkpt><trkpt lat="39.390831745945654" lon="17.10257650315913"><ele>59.0</ele><time>2026-03-29T12:52:02.998Z</time></trkpt><trkpt lat="39.39068812050865" lon="17.102528019086545"><ele>59.0</ele><time>2026-03-29T12:52:03.998Z</time></trkpt><trkpt lat="39.39054877700065" lon="17.10249939362426"><ele>59.0</ele><time>2026-03-29T12:52:04.998Z</time></trkpt><trkpt lat="39.39042819321891" lon="17.10244945244703"><ele>59.0</ele><time>2026-03-29T12:52:05.998Z</time></trkpt><trkpt lat="39.39029910734461" lon="17.102407711370184"><ele>59.0</ele><time>2026-03-29T12:52:06.998Z</time></trkpt><trkpt lat="39.390168010090974" lon="17.10235932426505"><ele>59.0</ele><time>2026-03-29T12:52:07.998Z</time></trkpt><trkpt lat="39.3900497370382" lon="17.102322714585004"><ele>59.0</ele><time>2026-03-29T12:52:08.998Z</time></trkpt><trkpt lat="39.38992383628862" lon="17.102261648582058"><ele>59.0</ele><time>2026-03-29T12:52:09.998Z</time></trkpt><trkpt lat="39.389809419276965" lon="17.10218306680894"><ele>59.0</ele><time>2026-03-29T12:52:10.998Z</time></trkpt><trkpt lat="39.389703967556144" lon="17.10217048111583"><ele>59.6</ele><time>2026-03-29T12:52:11.998Z</time></trkpt><trkpt lat="39.38961331635777" lon="17.102147195304433"><ele>60.2</ele><time>2026-03-29T12:52:12.998Z</time></trkpt><trkpt lat="39.38954272762449" lon="17.10211956637755"><ele>60.800000000000004</ele><time>2026-03-29T12:52:13.998Z</time></trkpt><trkpt lat="39.38944535848582" lon="17.102065988845702"><ele>61.400000000000006</ele><time>2026-03-29T12:52:15.998Z</time></trkpt><trkpt lat="39.389345652239214" lon="17.102060790107362"><ele>62.0</ele><time>2026-03-29T12:52:17.998Z</time></trkpt><trkpt lat="39.389193656242036" lon="17.102123016567766"><ele>62.0</ele><time>2026-03-29T12:52:19.998Z</time></trkpt><trkpt lat="39.3890910883495" lon="17.102179694804793"><ele>62.0</ele><time>2026-03-29T12:52:20.998Z</time></trkpt><trkpt lat="39.38898148841418" lon="17.102221135612236"><ele>62.0</ele><time>2026-03-29T12:52:21.998Z</time></trkpt><trkpt lat="39.388877025900534" lon="17.10226437052853"><ele>62.0</ele><time>2026-03-29T12:52:22.998Z</time></trkpt><trkpt lat="39.38877203189952" lon="17.10225254518286"><ele>62.0</ele><time>2026-03-29T12:52:23.998Z</time></trkpt><trkpt lat="39.388667406800266" lon="17.102239643715038"><ele>62.0</ele><time>2026-03-29T12:52:24.998Z</time></trkpt><trkpt lat="39.38856093968561" lon="17.10224308715226"><ele>62.0</ele><time>2026-03-29T12:52:25.998Z</time></trkpt><trkpt lat="39.38846575577129" lon="17.102240351873377"><ele>62.0</ele><time>2026-03-29T12:52:26.998Z</time></trkpt><trkpt lat="39.388370816029" lon="17.102247793776588"><ele>62.0</ele><time>2026-03-29T12:52:27.998Z</time></trkpt><trkpt lat="39.3882687421263" lon="17.102261142711463"><ele>62.0</ele><time>2026-03-29T12:52:28.998Z</time></trkpt><trkpt lat="39.388184627986135" lon="17.102281687752704"><ele>62.0</ele><time>2026-03-29T12:52:29.998Z</time></trkpt><trkpt lat="39.38810489607737" lon="17.102302480600176"><ele>62.0</ele><time>2026-03-29T12:52:30.998Z</time></trkpt><trkpt lat="39.38802940876339" lon="17.10230868836755"><ele>62.0</ele><time>2026-03-29T12:52:31.998Z</time></trkpt><trkpt lat="39.3879309179345" lon="17.102343041786323"><ele>62.0</ele><time>2026-03-29T12:52:32.998Z</time></trkpt><trkpt lat="39.38781316460639" lon="17.102370586130114"><ele>62.0</ele><time>2026-03-29T12:52:33.998Z</time></trkpt><trkpt lat="39.38769982045393" lon="17.102391287778033"><ele>62.0</ele><time>2026-03-29T12:52:34.998Z</time></trkpt><trkpt lat="39.38759977035356" lon="17.102389941755145"><ele>62.0</ele><time>2026-03-29T12:52:35.998Z</time></trkpt><trkpt lat="39.38748176223254" lon="17.102424862323108"><ele>62.0</ele><time>2026-03-29T12:52:36.998Z</time></trkpt><trkpt lat="39.38736632115558" lon="17.102453369247748"><ele>62.0</ele><time>2026-03-29T12:52:37.998Z</time></trkpt><trkpt lat="39.387274377683546" lon="17.10248196667214"><ele>62.0</ele><time>2026-03-29T12:52:38.998Z</time></trkpt><trkpt lat="39.3871749893067" lon="17.10248316914304"><ele>62.2</ele><time>2026-03-29T12:52:39.998Z</time></trkpt><trkpt lat="39.38708033753652" lon="17.102485145710595"><ele>62.400000000000006</ele><time>2026-03-29T12:52:40.998Z</time></trkpt><trkpt lat="39.386990514484864" lon="17.10249265935927"><ele>62.599999999999994</ele><time>2026-03-29T12:52:41.998Z</time></trkpt><trkpt lat="39.386898903752204" lon="17.10250446874738"><ele>62.8</ele><time>2026-03-29T12:52:42.998Z</time></trkpt><trkpt lat="39.38680348132858" lon="17.10252612197524"><ele>63.0</ele><time>2026-03-29T12:52:43.998Z</time></trkpt><trkpt lat="39.386683998693414" lon="17.102502234563925"><ele>63.0</ele><time>2026-03-29T12:52:44.998Z</time></trkpt><trkpt lat="39.386588727142204" lon="17.10252081938351"><ele>63.0</ele><time>2026-03-29T12:52:45.998Z</time></trkpt><trkpt lat="39.38650030181815" lon="17.10254204960912"><ele>63.0</ele><time>2026-03-29T12:52:46.998Z</time></trkpt><trkpt lat="39.38641932377319" lon="17.102572802490243"><ele>63.0</ele><time>2026-03-29T12:52:47.998Z</time></trkpt><trkpt lat="39.3863435792618" lon="17.102569778296747"><ele>63.0</ele><time>2026-03-29T12:52:48.998Z</time></trkpt><trkpt lat="39.38626704817954" lon="17.1025902216358"><ele>63.0</ele><time>2026-03-29T12:52:49.998Z</time></trkpt><trkpt lat="39.38619189970209" lon="17.10263534458856"><ele>63.333333333333336</ele><time>2026-03-29T12:52:51.998Z</time></trkpt><trkpt lat="39.38609530138249" lon="17.10264529703686"><ele>63.66666666666667</ele><time>2026-03-29T12:52:54.997Z</time></trkpt><trkpt lat="39.38603777825643" lon="17.102681888010608"><ele>64.0</ele><time>2026-03-29T12:52:55.997Z</time></trkpt><trkpt lat="39.385977004439646" lon="17.10270976976036"><ele>64.33333333333334</ele><time>2026-03-29T12:52:56.997Z</time></trkpt><trkpt lat="39.385906738334135" lon="17.10277014647838"><ele>64.66666666666667</ele><time>2026-03-29T12:52:58.997Z</time></trkpt><trkpt lat="39.38590421187171" lon="17.102883581272565"><ele>65.0</ele><time>2026-03-29T12:53:01.997Z</time></trkpt><trkpt lat="39.3860148439704" lon="17.102930787736568"><ele>65.0</ele><time>2026-03-29T12:53:03.997Z</time></trkpt><trkpt lat="39.38606671948548" lon="17.10303380697092"><ele>65.0</ele><time>2026-03-29T12:53:05.997Z</time></trkpt><trkpt lat="39.38606345388265" lon="17.103157291744672"><ele>65.0</ele><time>2026-03-29T12:53:07.997Z</time></trkpt><trkpt lat="39.38602265121284" lon="17.103268593742097"><ele>65.0</ele><time>2026-03-29T12:53:09.997Z</time></trkpt><trkpt lat="39.38597583064642" lon="17.103399966508842"><ele>65.0</ele><time>2026-03-29T12:53:11.997Z</time></trkpt><trkpt lat="39.385947887013096" lon="17.103490253308735"><ele>64.75</ele><time>2026-03-29T12:53:12.997Z</time></trkpt><trkpt lat="39.38590816292095" lon="17.103648264047575"><ele>64.5</ele><time>2026-03-29T12:53:14.997Z</time></trkpt><trkpt lat="39.385889307710826" lon="17.10378655974952"><ele>64.25</ele><time>2026-03-29T12:53:16.997Z</time></trkpt><trkpt lat="39.38593769282193" lon="17.103915418321314"><ele>64.0</ele><time>2026-03-29T12:53:19Z</time></trkpt><trkpt lat="39.386011549043694" lon="17.104009622922"><ele>63.857142857142854</ele><time>2026-03-29T12:53:21Z</time></trkpt><trkpt lat="39.38606479915907" lon="17.104082889784237"><ele>63.71428571428571</ele><time>2026-03-29T12:53:22Z</time></trkpt><trkpt lat="39.386099755077886" lon="17.104163879101883"><ele>63.57142857142857</ele><time>2026-03-29T12:53:23Z</time></trkpt><trkpt lat="39.38612468996024" lon="17.104242161319387"><ele>63.42857142857143</ele><time>2026-03-29T12:53:24Z</time></trkpt><trkpt lat="39.38613265794203" lon="17.104350983146215"><ele>63.285714285714285</ele><time>2026-03-29T12:53:25Z</time></trkpt><trkpt lat="39.386100871216456" lon="17.10442771019957"><ele>63.14285714285714</ele><time>2026-03-29T12:53:26Z</time></trkpt><trkpt lat="39.3860881191409" lon="17.10451184502123"><ele>63.0</ele><time>2026-03-29T12:53:27Z</time></trkpt><trkpt lat="39.386155207310225" lon="17.104639702053696"><ele>63.0</ele><time>2026-03-29T12:53:29Z</time></trkpt><trkpt lat="39.386221214384825" lon="17.10466830917388"><ele>63.0</ele><time>2026-03-29T12:53:30Z</time></trkpt><trkpt lat="39.38630681289095" lon="17.104710706821177"><ele>63.0</ele><time>2026-03-29T12:53:31Z</time></trkpt><trkpt lat="39.386394982738786" lon="17.10472807238936"><ele>63.0</ele><time>2026-03-29T12:53:32Z</time></trkpt><trkpt lat="39.38649119599726" lon="17.104744848791412"><ele>63.0</ele><time>2026-03-29T12:53:33Z</time></trkpt><trkpt lat="39.38657407856844" lon="17.104766224086347"><ele>63.0</ele><time>2026-03-29T12:53:34Z</time></trkpt><trkpt lat="39.38666570736948" lon="17.104827380329187"><ele>63.2</ele><time>2026-03-29T12:53:35Z</time></trkpt><trkpt lat="39.38675217526272" lon="17.10488998711143"><ele>63.4</ele><time>2026-03-29T12:53:36Z</time></trkpt><trkpt lat="39.38684166206737" lon="17.104943684635007"><ele>63.60000000000001</ele><time>2026-03-29T12:53:37Z</time></trkpt><trkpt lat="39.386933680371754" lon="17.10497278264683"><ele>63.800000000000004</ele><time>2026-03-29T12:53:38Z</time></trkpt><trkpt lat="39.38700306994832" lon="17.10499687437803"><ele>64.0</ele><time>2026-03-29T12:53:39Z</time></trkpt><trkpt lat="39.38707331309156" lon="17.105097900175206"><ele>64.2</ele><time>2026-03-29T12:53:41Z</time></trkpt><trkpt lat="39.3871588196864" lon="17.105154924024017"><ele>64.4</ele><time>2026-03-29T12:53:43Z</time></trkpt><trkpt lat="39.38726540672045" lon="17.105212181244088"><ele>64.6</ele><time>2026-03-29T12:53:45Z</time></trkpt><trkpt lat="39.387345823659544" lon="17.105280861456382"><ele>64.8</ele><time>2026-03-29T12:53:47Z</time></trkpt><trkpt lat="39.38735114073488" lon="17.105410901450533"><ele>65.0</ele><time>2026-03-29T12:53:49Z</time></trkpt><trkpt lat="39.38734392549647" lon="17.105553562033567"><ele>65.0</ele><time>2026-03-29T12:53:51Z</time></trkpt><trkpt lat="39.38728674911531" lon="17.105624885178514"><ele>65.0</ele><time>2026-03-29T12:53:53Z</time></trkpt><trkpt lat="39.38720436505969" lon="17.1056737440648"><ele>65.0</ele><time>2026-03-29T12:53:55Z</time></trkpt><trkpt lat="39.38714458834248" lon="17.10571037707715"><ele>65.0</ele><time>2026-03-29T12:53:57Z</time></trkpt><trkpt lat="39.3870726784293" lon="17.105748944054227"><ele>65.0</ele><time>2026-03-29T12:53:59Z</time></trkpt><trkpt lat="39.386993542495524" lon="17.105791946812623"><ele>65.0</ele><time>2026-03-29T12:54:02Z</time></trkpt><trkpt lat="39.38694349587445" lon="17.105853075304502"><ele>63.2</ele><time>2026-03-29T12:54:04Z</time></trkpt><trkpt lat="39.38690842836722" lon="17.105927030848687"><ele>61.4</ele><time>2026-03-29T12:54:08Z</time></trkpt><trkpt lat="39.38686416786786" lon="17.106064313519575"><ele>59.599999999999994</ele><time>2026-03-29T12:54:12Z</time></trkpt><trkpt lat="39.3868534169787" lon="17.10622592187335"><ele>57.8</ele><time>2026-03-29T12:54:14Z</time></trkpt><trkpt lat="39.386864420952456" lon="17.10631142063084"><ele>56.0</ele><time>2026-03-29T12:54:15Z</time></trkpt><trkpt lat="39.3869060314439" lon="17.106395776963538"><ele>56.00000000000001</ele><time>2026-03-29T12:54:16Z</time></trkpt><trkpt lat="39.386946246680964" lon="17.10649287148157"><ele>56.0</ele><time>2026-03-29T12:54:17Z</time></trkpt><trkpt lat="39.38698916945828" lon="17.10658482028808"><ele>56.0</ele><time>2026-03-29T12:54:18Z</time></trkpt><trkpt lat="39.3870247769453" lon="17.106673627564792"><ele>56.0</ele><time>2026-03-29T12:54:19Z</time></trkpt><trkpt lat="39.38705822845568" lon="17.10675420461873"><ele>56.00000000000001</ele><time>2026-03-29T12:54:20Z</time></trkpt><trkpt lat="39.38709423495645" lon="17.10683462526475"><ele>56.0</ele><time>2026-03-29T12:54:21Z</time></trkpt><trkpt lat="39.387126732515625" lon="17.10691584531715"><ele>56.16666666666667</ele><time>2026-03-29T12:54:22Z</time></trkpt><trkpt lat="39.38715727110117" lon="17.106998375197957"><ele>56.333333333333336</ele><time>2026-03-29T12:54:23Z</time></trkpt><trkpt lat="39.38718133358665" lon="17.10708699946957"><ele>56.5</ele><time>2026-03-29T12:54:24Z</time></trkpt><trkpt lat="39.387179761165754" lon="17.107174837261702"><ele>56.66666666666667</ele><time>2026-03-29T12:54:25Z</time></trkpt><trkpt lat="39.38717019273028" lon="17.107257962337275"><ele>56.833333333333336</ele><time>2026-03-29T12:54:26Z</time></trkpt><trkpt lat="39.38714519580814" lon="17.10740923949516"><ele>57.0</ele><time>2026-03-29T12:54:28Z</time></trkpt><trkpt lat="39.38713902005314" lon="17.107543228758104"><ele>56.400000000000006</ele><time>2026-03-29T12:54:30Z</time></trkpt><trkpt lat="39.38716008551965" lon="17.1076477463118"><ele>55.800000000000004</ele><time>2026-03-29T12:54:32Z</time></trkpt><trkpt lat="39.38717633213592" lon="17.107760513592613"><ele>55.2</ele><time>2026-03-29T12:54:35Z</time></trkpt><trkpt lat="39.38722853637128" lon="17.10790677058035"><ele>54.6</ele><time>2026-03-29T12:54:37Z</time></trkpt><trkpt lat="39.38728862324064" lon="17.107982727009432"><ele>54.0</ele><time>2026-03-29T12:54:38Z</time></trkpt><trkpt lat="39.38735482800375" lon="17.108056682446758"><ele>53.833333333333336</ele><time>2026-03-29T12:54:39Z</time></trkpt><trkpt lat="39.387420021294304" lon="17.108120853410224"><ele>53.66666666666667</ele><time>2026-03-29T12:54:40Z</time></trkpt><trkpt lat="39.38748382214625" lon="17.10818792371313"><ele>53.5</ele><time>2026-03-29T12:54:41Z</time></trkpt><trkpt lat="39.38755608966853" lon="17.108250527698416"><ele>53.333333333333336</ele><time>2026-03-29T12:54:42Z</time></trkpt><trkpt lat="39.387636894369564" lon="17.10831117494745"><ele>53.16666666666667</ele><time>2026-03-29T12:54:43Z</time></trkpt><trkpt lat="39.38771250480363" lon="17.108366433937274"><ele>53.0</ele><time>2026-03-29T12:54:44Z</time></trkpt><trkpt lat="39.38778647465008" lon="17.108419273675135"><ele>52.16666666666667</ele><time>2026-03-29T12:54:45Z</time></trkpt><trkpt lat="39.387855769639884" lon="17.108477252736012"><ele>51.333333333333336</ele><time>2026-03-29T12:54:46Z</time></trkpt><trkpt lat="39.38792866125186" lon="17.108513926505335"><ele>50.5</ele><time>2026-03-29T12:54:47Z</time></trkpt><trkpt lat="39.38799910400487" lon="17.108551998539866"><ele>49.66666666666667</ele><time>2026-03-29T12:54:48Z</time></trkpt><trkpt lat="39.38806576520796" lon="17.108600538486925"><ele>48.833333333333336</ele><time>2026-03-29T12:54:49Z</time></trkpt><trkpt lat="39.3881306959676" lon="17.1086569257877"><ele>48.0</ele><time>2026-03-29T12:54:50Z</time></trkpt><trkpt lat="39.388190414780375" lon="17.108731050311956"><ele>48.0</ele><time>2026-03-29T12:54:51Z</time></trkpt><trkpt lat="39.38825118083846" lon="17.108825451557703"><ele>48.0</ele><time>2026-03-29T12:54:52Z</time></trkpt><trkpt lat="39.38832172414432" lon="17.108923150897578"><ele>48.0</ele><time>2026-03-29T12:54:53Z</time></trkpt><trkpt lat="39.388398606869515" lon="17.109010892149062"><ele>48.0</ele><time>2026-03-29T12:54:54Z</time></trkpt><trkpt lat="39.38846159655062" lon="17.109093120990586"><ele>48.0</ele><time>2026-03-29T12:54:55Z</time></trkpt><trkpt lat="39.3885197682123" lon="17.109157077162262"><ele>47.4</ele><time>2026-03-29T12:54:56Z</time></trkpt><trkpt lat="39.388563015403975" lon="17.109238466763042"><ele>46.8</ele><time>2026-03-29T12:54:57Z</time></trkpt><trkpt lat="39.38859976468124" lon="17.109323183239884"><ele>46.2</ele><time>2026-03-29T12:54:58Z</time></trkpt><trkpt lat="39.3886642967206" lon="17.109436278196053"><ele>45.6</ele><time>2026-03-29T12:55:00Z</time></trkpt><trkpt lat="39.388744558240695" lon="17.10948713743405"><ele>45.0</ele><time>2026-03-29T12:55:02Z</time></trkpt><trkpt lat="39.38883874185835" lon="17.10954784151812"><ele>45.666666666666664</ele><time>2026-03-29T12:55:04Z</time></trkpt><trkpt lat="39.3888924863479" lon="17.10959108053864"><ele>46.33333333333333</ele><time>2026-03-29T12:55:05Z</time></trkpt><trkpt lat="39.38895050703507" lon="17.109706184382627"><ele>47.0</ele><time>2026-03-29T12:55:07Z</time></trkpt><trkpt lat="39.38896172170262" lon="17.109799217442355"><ele>47.666666666666664</ele><time>2026-03-29T12:55:10Z</time></trkpt><trkpt lat="39.388992621077946" lon="17.109890642398202"><ele>48.33333333333333</ele><time>2026-03-29T12:55:13Z</time></trkpt><trkpt lat="39.389041534690236" lon="17.109988557974184"><ele>49.0</ele><time>2026-03-29T12:55:16Z</time></trkpt><trkpt lat="39.38907240120976" lon="17.110069094556593"><ele>47.2</ele><time>2026-03-29T12:55:18.999Z</time></trkpt><trkpt lat="39.389105068063124" lon="17.110160228891417"><ele>45.400000000000006</ele><time>2026-03-29T12:55:20.999Z</time></trkpt><trkpt lat="39.389160246415294" lon="17.110262503302053"><ele>43.6</ele><time>2026-03-29T12:55:22.999Z</time></trkpt><trkpt lat="39.38922436418279" lon="17.11037108389865"><ele>41.8</ele><time>2026-03-29T12:55:24.999Z</time></trkpt><trkpt lat="39.38927944930228" lon="17.11048938663892"><ele>40.0</ele><time>2026-03-29T12:55:26.999Z</time></trkpt><trkpt lat="39.38932621722742" lon="17.110569497669932"><ele>40.0</ele><time>2026-03-29T12:55:28.999Z</time></trkpt><trkpt lat="39.38932103932138" lon="17.110667628696007"><ele>40.0</ele><time>2026-03-29T12:55:30.999Z</time></trkpt><trkpt lat="39.38928414856407" lon="17.110763029686574"><ele>40.0</ele><time>2026-03-29T12:55:32.999Z</time></trkpt><trkpt lat="39.38923392896168" lon="17.11087343334625"><ele>40.0</ele><time>2026-03-29T12:55:34.999Z</time></trkpt><trkpt lat="39.38922495991037" lon="17.11097873512534"><ele>40.0</ele><time>2026-03-29T12:55:36.999Z</time></trkpt><trkpt lat="39.38916607151828" lon="17.111104191279125"><ele>39.4</ele><time>2026-03-29T12:55:38.999Z</time></trkpt><trkpt lat="39.38912589903188" lon="17.11124020173209"><ele>38.8</ele><time>2026-03-29T12:55:40.999Z</time></trkpt><trkpt lat="39.389094194235426" lon="17.111386575130503"><ele>38.2</ele><time>2026-03-29T12:55:42.999Z</time></trkpt><trkpt lat="39.389075876615756" lon="17.11148884464377"><ele>37.6</ele><time>2026-03-29T12:55:43.999Z</time></trkpt><trkpt lat="39.38905889721234" lon="17.111616128582376"><ele>37.0</ele><time>2026-03-29T12:55:44.999Z</time></trkpt><trkpt lat="39.38905520359775" lon="17.111758778250916"><ele>36.2</ele><time>2026-03-29T12:55:45.999Z</time></trkpt><trkpt lat="39.38905144766902" lon="17.11189809276424"><ele>35.400000000000006</ele><time>2026-03-29T12:55:46.999Z</time></trkpt><trkpt lat="39.38906798047457" lon="17.11202937350496"><ele>34.599999999999994</ele><time>2026-03-29T12:55:47.999Z</time></trkpt><trkpt lat="39.389120231826595" lon="17.112142239778034"><ele>33.8</ele><time>2026-03-29T12:55:48.999Z</time></trkpt><trkpt lat="39.38917704635694" lon="17.112263965226493"><ele>33.0</ele><time>2026-03-29T12:55:49.999Z</time></trkpt><trkpt lat="39.38925269253169" lon="17.112385292134547"><ele>32.5</ele><time>2026-03-29T12:55:50.999Z</time></trkpt><trkpt lat="39.38934180538157" lon="17.11251033895717"><ele>32.0</ele><time>2026-03-29T12:55:51.999Z</time></trkpt><trkpt lat="39.38942746216691" lon="17.112641448429294"><ele>31.5</ele><time>2026-03-29T12:55:52.999Z</time></trkpt><trkpt lat="39.38951524851395" lon="17.112755543323065"><ele>31.0</ele><time>2026-03-29T12:55:53.999Z</time></trkpt><trkpt lat="39.389581925340046" lon="17.11287428745623"><ele>31.0</ele><time>2026-03-29T12:55:54.999Z</time></trkpt><trkpt lat="39.38963998896193" lon="17.11298688258785"><ele>31.0</ele><time>2026-03-29T12:55:55.999Z</time></trkpt><trkpt lat="39.38968952603059" lon="17.11308769000518"><ele>31.0</ele><time>2026-03-29T12:55:56.999Z</time></trkpt><trkpt lat="39.38972634749528" lon="17.113180868869367"><ele>31.0</ele><time>2026-03-29T12:55:57.999Z</time></trkpt><trkpt lat="39.38974770344123" lon="17.113268369845436"><ele>31.0</ele><time>2026-03-29T12:55:58.999Z</time></trkpt><trkpt lat="39.3897574796963" lon="17.113404298415592"><ele>30.833333333333336</ele><time>2026-03-29T12:56:00.999Z</time></trkpt><trkpt lat="39.389790447560145" lon="17.11352406356301"><ele>30.666666666666668</ele><time>2026-03-29T12:56:02.999Z</time></trkpt><trkpt lat="39.389797050513444" lon="17.113612488813274"><ele>30.5</ele><time>2026-03-29T12:56:03.999Z</time></trkpt><trkpt lat="39.389805319207674" lon="17.113720981798583"><ele>30.333333333333336</ele><time>2026-03-29T12:56:04.999Z</time></trkpt><trkpt lat="39.38978725453274" lon="17.113826685725854"><ele>30.166666666666668</ele><time>2026-03-29T12:56:05.999Z</time></trkpt><trkpt lat="39.38977916832887" lon="17.11391507304317"><ele>30.0</ele><time>2026-03-29T12:56:06.999Z</time></trkpt><trkpt lat="39.38976604116821" lon="17.11402067299291"><ele>30.0</ele><time>2026-03-29T12:56:08.999Z</time></trkpt><trkpt lat="39.38968501159574" lon="17.114062339249696"><ele>30.0</ele><time>2026-03-29T12:56:11.999Z</time></trkpt><trkpt lat="39.389607304273106" lon="17.114066583528665"><ele>30.0</ele><time>2026-03-29T12:56:13.999Z</time></trkpt><trkpt lat="39.3895365582305" lon="17.114103097693274"><ele>30.0</ele><time>2026-03-29T12:56:15.999Z</time></trkpt><trkpt lat="39.38945204587012" lon="17.114166501003933"><ele>30.0</ele><time>2026-03-29T12:56:17.999Z</time></trkpt><trkpt lat="39.38938991940475" lon="17.114208078820063"><ele>30.0</ele><time>2026-03-29T12:56:18.999Z</time></trkpt><trkpt lat="39.38932717838921" lon="17.114258939994052"><ele>30.42857142857143</ele><time>2026-03-29T12:56:19.999Z</time></trkpt><trkpt lat="39.38926115026638" lon="17.114301992688862"><ele>30.857142857142854</ele><time>2026-03-29T12:56:20.999Z</time></trkpt><trkpt lat="39.38919796104809" lon="17.11434705885852"><ele>31.285714285714285</ele><time>2026-03-29T12:56:21.999Z</time></trkpt><trkpt lat="39.389135364071024" lon="17.114392268709476"><ele>31.714285714285715</ele><time>2026-03-29T12:56:22.999Z</time></trkpt><trkpt lat="39.389068126255175" lon="17.11441355194785"><ele>32.142857142857146</ele><time>2026-03-29T12:56:23.999Z</time></trkpt><trkpt lat="39.38900093575111" lon="17.114411872330734"><ele>32.57142857142857</ele><time>2026-03-29T12:56:24.999Z</time></trkpt><trkpt lat="39.38893831589734" lon="17.11439786048496"><ele>33.0</ele><time>2026-03-29T12:56:25.999Z</time></trkpt><trkpt lat="39.388815494289915" lon="17.11438383873359"><ele>34.833333333333336</ele><time>2026-03-29T12:56:27.999Z</time></trkpt><trkpt lat="39.38874802975506" lon="17.114376157006376"><ele>36.666666666666664</ele><time>2026-03-29T12:56:28.999Z</time></trkpt><trkpt lat="39.38868077115791" lon="17.114358217737102"><ele>38.5</ele><time>2026-03-29T12:56:29.999Z</time></trkpt><trkpt lat="39.388620944292605" lon="17.114325568243235"><ele>40.33333333333333</ele><time>2026-03-29T12:56:30.999Z</time></trkpt><trkpt lat="39.38852216819774" lon="17.11430201788779"><ele>42.166666666666664</ele><time>2026-03-29T12:56:32.999Z</time></trkpt><trkpt lat="39.38844147193471" lon="17.114383609962193"><ele>44.0</ele><time>2026-03-29T12:56:34.999Z</time></trkpt><trkpt lat="39.388394781751835" lon="17.11450227834422"><ele>44.0</ele><time>2026-03-29T12:56:36.999Z</time></trkpt><trkpt lat="39.38832466902987" lon="17.11461284129981"><ele>44.0</ele><time>2026-03-29T12:56:38.999Z</time></trkpt><trkpt lat="39.3882414393117" lon="17.11471657729115"><ele>44.0</ele><time>2026-03-29T12:56:40.999Z</time></trkpt><trkpt lat="39.388166030813395" lon="17.114845211824218"><ele>44.0</ele><time>2026-03-29T12:56:42.999Z</time></trkpt><trkpt lat="39.38811668282927" lon="17.11490212585007"><ele>44.0</ele><time>2026-03-29T12:56:43.999Z</time></trkpt><trkpt lat="39.38805418706378" lon="17.11496846816916"><ele>44.5</ele><time>2026-03-29T12:56:44.999Z</time></trkpt><trkpt lat="39.38798207114794" lon="17.1150387937774"><ele>45.0</ele><time>2026-03-29T12:56:45.999Z</time></trkpt><trkpt lat="39.38790017457906" lon="17.11509881596499"><ele>45.5</ele><time>2026-03-29T12:56:46.999Z</time></trkpt><trkpt lat="39.387815946303434" lon="17.115151556379484"><ele>46.0</ele><time>2026-03-29T12:56:47.999Z</time></trkpt><trkpt lat="39.387735246517025" lon="17.115196474339704"><ele>46.5</ele><time>2026-03-29T12:56:48.999Z</time></trkpt><trkpt lat="39.38765384187205" lon="17.115209212725023"><ele>47.0</ele><time>2026-03-29T12:56:49.999Z</time></trkpt><trkpt lat="39.38757627476104" lon="17.1152252007067"><ele>47.0</ele><time>2026-03-29T12:56:50.999Z</time></trkpt><trkpt lat="39.38750386317756" lon="17.115222435989757"><ele>47.0</ele><time>2026-03-29T12:56:51.999Z</time></trkpt><trkpt lat="39.387425493116176" lon="17.115208070719806"><ele>47.0</ele><time>2026-03-29T12:56:52.999Z</time></trkpt><trkpt lat="39.387332025215024" lon="17.11516310470394"><ele>47.0</ele><time>2026-03-29T12:56:53.999Z</time></trkpt><trkpt lat="39.38722098736082" lon="17.11510406901683"><ele>47.0</ele><time>2026-03-29T12:56:54.999Z</time></trkpt><trkpt lat="39.38710137791879" lon="17.115043359756594"><ele>47.0</ele><time>2026-03-29T12:56:55.999Z</time></trkpt><trkpt lat="39.386996490231674" lon="17.114995960841494"><ele>47.0</ele><time>2026-03-29T12:56:56.999Z</time></trkpt><trkpt lat="39.386911365304364" lon="17.11495287992104"><ele>47.0</ele><time>2026-03-29T12:56:57.999Z</time></trkpt><trkpt lat="39.38683369108108" lon="17.114902199841076"><ele>47.0</ele><time>2026-03-29T12:56:58.999Z</time></trkpt><trkpt lat="39.38675014158999" lon="17.11485378822746"><ele>47.0</ele><time>2026-03-29T12:56:59.999Z</time></trkpt><trkpt lat="39.386659813021154" lon="17.11482142035637"><ele>47.33333333333333</ele><time>2026-03-29T12:57:00.999Z</time></trkpt><trkpt lat="39.38656611583507" lon="17.114816785488554"><ele>47.666666666666664</ele><time>2026-03-29T12:57:01.999Z</time></trkpt><trkpt lat="39.38647090877146" lon="17.11482676369529"><ele>48.0</ele><time>2026-03-29T12:57:02.999Z</time></trkpt><trkpt lat="39.38637751279264" lon="17.114846391327845"><ele>48.33333333333333</ele><time>2026-03-29T12:57:03.999Z</time></trkpt><trkpt lat="39.38629351705135" lon="17.114856391421387"><ele>48.666666666666664</ele><time>2026-03-29T12:57:04.999Z</time></trkpt><trkpt lat="39.38622733233401" lon="17.114875469376685"><ele>49.0</ele><time>2026-03-29T12:57:05.999Z</time></trkpt><trkpt lat="39.38612818883468" lon="17.11492387616872"><ele>49.33333333333333</ele><time>2026-03-29T12:57:07.999Z</time></trkpt><trkpt lat="39.38602557448182" lon="17.114860160313942"><ele>49.666666666666664</ele><time>2026-03-29T12:57:09.999Z</time></trkpt><trkpt lat="39.385978448885275" lon="17.114782357482518"><ele>50.0</ele><time>2026-03-29T12:57:10.999Z</time></trkpt><trkpt lat="39.38591998929688" lon="17.11473529206763"><ele>50.33333333333333</ele><time>2026-03-29T12:57:11.999Z</time></trkpt><trkpt lat="39.38584962562913" lon="17.114726146669604"><ele>50.666666666666664</ele><time>2026-03-29T12:57:12.999Z</time></trkpt><trkpt lat="39.385774355537755" lon="17.114759785453735"><ele>51.0</ele><time>2026-03-29T12:57:13.999Z</time></trkpt><trkpt lat="39.38569397171767" lon="17.1148140642491"><ele>51.0</ele><time>2026-03-29T12:57:14.999Z</time></trkpt><trkpt lat="39.385602264750304" lon="17.114874189921125"><ele>51.0</ele><time>2026-03-29T12:57:15.999Z</time></trkpt><trkpt lat="39.3855123192129" lon="17.114936949577064"><ele>51.0</ele><time>2026-03-29T12:57:16.999Z</time></trkpt><trkpt lat="39.38543408243272" lon="17.114992330488537"><ele>51.0</ele><time>2026-03-29T12:57:17.999Z</time></trkpt><trkpt lat="39.38537057225085" lon="17.115056871075225"><ele>51.0</ele><time>2026-03-29T12:57:18.999Z</time></trkpt><trkpt lat="39.385309563778975" lon="17.11513093870261"><ele>51.333333333333336</ele><time>2026-03-29T12:57:19.999Z</time></trkpt><trkpt lat="39.385252893710465" lon="17.115214402904808"><ele>51.66666666666667</ele><time>2026-03-29T12:57:20.999Z</time></trkpt><trkpt lat="39.38520308394232" lon="17.11530610953905"><ele>52.0</ele><time>2026-03-29T12:57:21.999Z</time></trkpt><trkpt lat="39.385164322845306" lon="17.11540537805292"><ele>52.333333333333336</ele><time>2026-03-29T12:57:22.999Z</time></trkpt><trkpt lat="39.38514216442836" lon="17.115506667098863"><ele>52.66666666666667</ele><time>2026-03-29T12:57:23.999Z</time></trkpt><trkpt lat="39.38510804496356" lon="17.11558806173411"><ele>53.0</ele><time>2026-03-29T12:57:24.999Z</time></trkpt><trkpt lat="39.38505397752926" lon="17.11565827592654"><ele>53.0</ele><time>2026-03-29T12:57:25.999Z</time></trkpt><trkpt lat="39.384984957913254" lon="17.115725288046583"><ele>53.0</ele><time>2026-03-29T12:57:26.999Z</time></trkpt><trkpt lat="39.38491405148629" lon="17.115785162437973"><ele>53.0</ele><time>2026-03-29T12:57:27.999Z</time></trkpt><trkpt lat="39.38484102206731" lon="17.115843618925673"><ele>53.0</ele><time>2026-03-29T12:57:28.999Z</time></trkpt><trkpt lat="39.38475392376736" lon="17.11590816656874"><ele>53.0</ele><time>2026-03-29T12:57:29.999Z</time></trkpt><trkpt lat="39.38466449199112" lon="17.115975912637555"><ele>53.16666666666667</ele><time>2026-03-29T12:57:30.999Z</time></trkpt><trkpt lat="39.384587045189306" lon="17.116039476525913"><ele>53.333333333333336</ele><time>2026-03-29T12:57:31.999Z</time></trkpt><trkpt lat="39.384531434602714" lon="17.116116605465102"><ele>53.5</ele><time>2026-03-29T12:57:32.999Z</time></trkpt><trkpt lat="39.38447868918431" lon="17.116173018568645"><ele>53.66666666666667</ele><time>2026-03-29T12:57:33.999Z</time></trkpt><trkpt lat="39.38442229409173" lon="17.116219878184058"><ele>53.833333333333336</ele><time>2026-03-29T12:57:34.999Z</time></trkpt><trkpt lat="39.3843439306148" lon="17.11621398707704"><ele>54.0</ele><time>2026-03-29T12:57:35.999Z</time></trkpt><trkpt lat="39.384246968601126" lon="17.116215049380184"><ele>54.0</ele><time>2026-03-29T12:57:36.999Z</time></trkpt><trkpt lat="39.384154545237244" lon="17.11618891908676"><ele>54.0</ele><time>2026-03-29T12:57:37.999Z</time></trkpt><trkpt lat="39.38406337411552" lon="17.116178466508124"><ele>54.0</ele><time>2026-03-29T12:57:38.999Z</time></trkpt><trkpt lat="39.38396345664495" lon="17.11612542664061"><ele>54.0</ele><time>2026-03-29T12:57:39.999Z</time></trkpt><trkpt lat="39.383887244725706" lon="17.116150669649674"><ele>54.0</ele><time>2026-03-29T12:57:40.999Z</time></trkpt><trkpt lat="39.383821919503404" lon="17.116176424839285"><ele>54.0</ele><time>2026-03-29T12:57:41.999Z</time></trkpt><trkpt lat="39.38372389720271" lon="17.116229754487325"><ele>54.0</ele><time>2026-03-29T12:57:43.999Z</time></trkpt><trkpt lat="39.383666209641504" lon="17.116282365503526"><ele>54.0</ele><time>2026-03-29T12:58:00.999Z</time></trkpt><trkpt lat="39.383796610211675" lon="17.11618264633578"><ele>54.0</ele><time>2026-03-29T12:58:03.999Z</time></trkpt><trkpt lat="39.38387296934455" lon="17.11616443138636"><ele>54.0</ele><time>2026-03-29T12:58:04.999Z</time></trkpt><trkpt lat="39.38392843218472" lon="17.11611010296878"><ele>54.0</ele><time>2026-03-29T12:58:05.999Z</time></trkpt><trkpt lat="39.38400694968175" lon="17.11610641917006"><ele>54.0</ele><time>2026-03-29T12:58:06.999Z</time></trkpt><trkpt lat="39.38406976102784" lon="17.116090310502862"><ele>54.0</ele><time>2026-03-29T12:58:07.999Z</time></trkpt><trkpt lat="39.38413027551354" lon="17.116066245535343"><ele>54.00000000000001</ele><time>2026-03-29T12:58:08.999Z</time></trkpt><trkpt lat="39.38414014419349" lon="17.11583358343588"><ele>54.00000000000001</ele><time>2026-03-29T12:58:09.999Z</time></trkpt><trkpt lat="39.384178635211526" lon="17.115744681220786"><ele>54.0</ele><time>2026-03-29T12:58:10.998Z</time></trkpt><trkpt lat="39.38420339675354" lon="17.115653620449574"><ele>54.0</ele><time>2026-03-29T12:58:11.998Z</time></trkpt><trkpt lat="39.38414428851678" lon="17.11557137733651"><ele>58.0</ele><time>2026-03-29T12:58:13.998Z</time></trkpt><trkpt lat="39.38407922909936" lon="17.115589377788964"><ele>58.0</ele><time>2026-03-29T12:58:15.998Z</time></trkpt></trkseg></trk></gpx>